<?xml version="1.0" encoding="utf-8"?>
<gpx xmlns:xsi="http://www.w3.org/2001/XMLSchema-instance" xmlns:xsd="http://www.w3.org/2001/XMLSchema" version="1.1" creator="Shapelink.com" xmlns="http://www.topografix.com/GPX/1/1" xmlns:gpxtpx="http://www.garmin.com/xmlschemas/TrackPointExtension/v1">
  <metadata>
    <name>Sykling 81.42 km, 2014-07-12</name>
    <desc></desc>
    <author><name>Mikael Blom</name></author> 
    <time>2014-07-12T10:03:35Z</time>
  </metadata>
  <trk>
    <name>Sykling 81.42 km, 2014-07-12</name>
    <trkseg>
      <trkpt lat="59.8949173" lon="17.7392809">
        <ele>24.651</ele>
        <time>2014-07-12T10:03:35Z</time>
      </trkpt>
      <trkpt lat="59.8949528" lon="17.7392688">
        <ele>24.651</ele>
        <time>2014-07-12T10:03:36Z</time>
      </trkpt>
      <trkpt lat="59.894991" lon="17.7392521">
        <ele>24.1703</ele>
        <time>2014-07-12T10:03:37Z</time>
      </trkpt>
      <trkpt lat="59.8950313" lon="17.7392347">
        <ele>24.1703</ele>
        <time>2014-07-12T10:03:38Z</time>
      </trkpt>
      <trkpt lat="59.8950717" lon="17.7392158">
        <ele>23.6896</ele>
        <time>2014-07-12T10:03:39Z</time>
      </trkpt>
      <trkpt lat="59.8951127" lon="17.7391889">
        <ele>23.6896</ele>
        <time>2014-07-12T10:03:40Z</time>
      </trkpt>
      <trkpt lat="59.8951548" lon="17.73917">
        <ele>23.6896</ele>
        <time>2014-07-12T10:03:41Z</time>
      </trkpt>
      <trkpt lat="59.8951978" lon="17.7391628">
        <ele>23.6896</ele>
        <time>2014-07-12T10:03:42Z</time>
      </trkpt>
      <trkpt lat="59.8952406" lon="17.7391575">
        <ele>23.6896</ele>
        <time>2014-07-12T10:03:43Z</time>
      </trkpt>
      <trkpt lat="59.8952827" lon="17.7391496">
        <ele>23.6896</ele>
        <time>2014-07-12T10:03:44Z</time>
      </trkpt>
      <trkpt lat="59.895324" lon="17.7391367">
        <ele>23.6896</ele>
        <time>2014-07-12T10:03:45Z</time>
      </trkpt>
      <trkpt lat="59.8953643" lon="17.7391236">
        <ele>23.209</ele>
        <time>2014-07-12T10:03:46Z</time>
      </trkpt>
      <trkpt lat="59.8954042" lon="17.7391143">
        <ele>23.209</ele>
        <time>2014-07-12T10:03:47Z</time>
      </trkpt>
      <trkpt lat="59.8954432" lon="17.7391067">
        <ele>23.209</ele>
        <time>2014-07-12T10:03:48Z</time>
      </trkpt>
      <trkpt lat="59.8954811" lon="17.7391001">
        <ele>23.6896</ele>
        <time>2014-07-12T10:03:49Z</time>
      </trkpt>
      <trkpt lat="59.8955183" lon="17.7390936">
        <ele>23.6896</ele>
        <time>2014-07-12T10:03:50Z</time>
      </trkpt>
      <trkpt lat="59.8955556" lon="17.7390843">
        <ele>23.6896</ele>
        <time>2014-07-12T10:03:51Z</time>
      </trkpt>
      <trkpt lat="59.8955932" lon="17.7390751">
        <ele>23.6896</ele>
        <time>2014-07-12T10:03:52Z</time>
      </trkpt>
      <trkpt lat="59.8956313" lon="17.7390704">
        <ele>23.6896</ele>
        <time>2014-07-12T10:03:53Z</time>
      </trkpt>
      <trkpt lat="59.8956694" lon="17.7390688">
        <ele>23.6896</ele>
        <time>2014-07-12T10:03:54Z</time>
      </trkpt>
      <trkpt lat="59.8957073" lon="17.7390677">
        <ele>23.6896</ele>
        <time>2014-07-12T10:03:55Z</time>
      </trkpt>
      <trkpt lat="59.8957448" lon="17.7390626">
        <ele>23.6896</ele>
        <time>2014-07-12T10:03:56Z</time>
      </trkpt>
      <trkpt lat="59.8957803" lon="17.7390492">
        <ele>23.6896</ele>
        <time>2014-07-12T10:03:57Z</time>
      </trkpt>
      <trkpt lat="59.8958149" lon="17.7390299">
        <ele>23.6896</ele>
        <time>2014-07-12T10:03:58Z</time>
      </trkpt>
      <trkpt lat="59.8958494" lon="17.7390169">
        <ele>23.6896</ele>
        <time>2014-07-12T10:03:59Z</time>
      </trkpt>
      <trkpt lat="59.8958831" lon="17.7390128">
        <ele>23.209</ele>
        <time>2014-07-12T10:04:00Z</time>
      </trkpt>
      <trkpt lat="59.8959152" lon="17.7390088">
        <ele>23.209</ele>
        <time>2014-07-12T10:04:01Z</time>
      </trkpt>
      <trkpt lat="59.8959403" lon="17.7389937">
        <ele>24.1703</ele>
        <time>2014-07-12T10:04:02Z</time>
      </trkpt>
      <trkpt lat="59.8959622" lon="17.7389718">
        <ele>24.1703</ele>
        <time>2014-07-12T10:04:03Z</time>
      </trkpt>
      <trkpt lat="59.8959914" lon="17.7389522">
        <ele>24.1703</ele>
        <time>2014-07-12T10:04:04Z</time>
      </trkpt>
      <trkpt lat="59.8960214" lon="17.7389358">
        <ele>24.1703</ele>
        <time>2014-07-12T10:04:05Z</time>
      </trkpt>
      <trkpt lat="59.8960514" lon="17.7389243">
        <ele>24.1703</ele>
        <time>2014-07-12T10:04:06Z</time>
      </trkpt>
      <trkpt lat="59.8960818" lon="17.7389187">
        <ele>24.1703</ele>
        <time>2014-07-12T10:04:07Z</time>
      </trkpt>
      <trkpt lat="59.8961119" lon="17.7389135">
        <ele>24.1703</ele>
        <time>2014-07-12T10:04:08Z</time>
      </trkpt>
      <trkpt lat="59.8961434" lon="17.7389048">
        <ele>23.6896</ele>
        <time>2014-07-12T10:04:09Z</time>
      </trkpt>
      <trkpt lat="59.8961768" lon="17.7388938">
        <ele>23.6896</ele>
        <time>2014-07-12T10:04:10Z</time>
      </trkpt>
      <trkpt lat="59.896212" lon="17.7388812">
        <ele>23.6896</ele>
        <time>2014-07-12T10:04:11Z</time>
      </trkpt>
      <trkpt lat="59.8962472" lon="17.7388637">
        <ele>24.1703</ele>
        <time>2014-07-12T10:04:12Z</time>
      </trkpt>
      <trkpt lat="59.8962822" lon="17.738842">
        <ele>24.1703</ele>
        <time>2014-07-12T10:04:13Z</time>
      </trkpt>
      <trkpt lat="59.8963175" lon="17.7388177">
        <ele>23.6896</ele>
        <time>2014-07-12T10:04:14Z</time>
      </trkpt>
      <trkpt lat="59.8963529" lon="17.7387872">
        <ele>23.6896</ele>
        <time>2014-07-12T10:04:15Z</time>
      </trkpt>
      <trkpt lat="59.8963925" lon="17.7387477">
        <ele>24.1703</ele>
        <time>2014-07-12T10:04:16Z</time>
      </trkpt>
      <trkpt lat="59.8964272" lon="17.7387011">
        <ele>24.1703</ele>
        <time>2014-07-12T10:04:17Z</time>
      </trkpt>
      <trkpt lat="59.8964615" lon="17.73864">
        <ele>25.1317</ele>
        <time>2014-07-12T10:04:18Z</time>
      </trkpt>
      <trkpt lat="59.8964907" lon="17.7385628">
        <ele>25.1317</ele>
        <time>2014-07-12T10:04:19Z</time>
      </trkpt>
      <trkpt lat="59.8965187" lon="17.7384773">
        <ele>25.1317</ele>
        <time>2014-07-12T10:04:20Z</time>
      </trkpt>
      <trkpt lat="59.8965459" lon="17.7383919">
        <ele>25.6123</ele>
        <time>2014-07-12T10:04:21Z</time>
      </trkpt>
      <trkpt lat="59.896569" lon="17.7383038">
        <ele>26.0929</ele>
        <time>2014-07-12T10:04:22Z</time>
      </trkpt>
      <trkpt lat="59.896591" lon="17.7382153">
        <ele>26.5736</ele>
        <time>2014-07-12T10:04:23Z</time>
      </trkpt>
      <trkpt lat="59.8966135" lon="17.7381283">
        <ele>27.0543</ele>
        <time>2014-07-12T10:04:24Z</time>
      </trkpt>
      <trkpt lat="59.8966357" lon="17.7380409">
        <ele>27.5349</ele>
        <time>2014-07-12T10:04:25Z</time>
      </trkpt>
      <trkpt lat="59.8966584" lon="17.7379531">
        <ele>28.0155</ele>
        <time>2014-07-12T10:04:26Z</time>
      </trkpt>
      <trkpt lat="59.8966834" lon="17.7378683">
        <ele>28.0155</ele>
        <time>2014-07-12T10:04:27Z</time>
      </trkpt>
      <trkpt lat="59.8967113" lon="17.7377884">
        <ele>28.4962</ele>
        <time>2014-07-12T10:04:28Z</time>
      </trkpt>
      <trkpt lat="59.8967396" lon="17.7377122">
        <ele>28.4962</ele>
        <time>2014-07-12T10:04:29Z</time>
      </trkpt>
      <trkpt lat="59.8967679" lon="17.7376388">
        <ele>28.4962</ele>
        <time>2014-07-12T10:04:30Z</time>
      </trkpt>
      <trkpt lat="59.8967972" lon="17.7375651">
        <ele>28.9769</ele>
        <time>2014-07-12T10:04:31Z</time>
      </trkpt>
      <trkpt lat="59.8968258" lon="17.737488">
        <ele>28.9769</ele>
        <time>2014-07-12T10:04:32Z</time>
      </trkpt>
      <trkpt lat="59.8968548" lon="17.7374079">
        <ele>28.9769</ele>
        <time>2014-07-12T10:04:33Z</time>
      </trkpt>
      <trkpt lat="59.8968852" lon="17.7373236">
        <ele>28.9769</ele>
        <time>2014-07-12T10:04:34Z</time>
      </trkpt>
      <trkpt lat="59.896917" lon="17.7372335">
        <ele>28.9769</ele>
        <time>2014-07-12T10:04:35Z</time>
      </trkpt>
      <trkpt lat="59.8969492" lon="17.7371357">
        <ele>28.9769</ele>
        <time>2014-07-12T10:04:36Z</time>
      </trkpt>
      <trkpt lat="59.8969825" lon="17.7370347">
        <ele>28.9769</ele>
        <time>2014-07-12T10:04:37Z</time>
      </trkpt>
      <trkpt lat="59.8970158" lon="17.7369311">
        <ele>28.4962</ele>
        <time>2014-07-12T10:04:38Z</time>
      </trkpt>
      <trkpt lat="59.8970479" lon="17.7368247">
        <ele>28.4962</ele>
        <time>2014-07-12T10:04:39Z</time>
      </trkpt>
      <trkpt lat="59.8970776" lon="17.7367152">
        <ele>28.4962</ele>
        <time>2014-07-12T10:04:40Z</time>
      </trkpt>
      <trkpt lat="59.8971046" lon="17.7366032">
        <ele>28.4962</ele>
        <time>2014-07-12T10:04:41Z</time>
      </trkpt>
      <trkpt lat="59.8971288" lon="17.7364892">
        <ele>28.4962</ele>
        <time>2014-07-12T10:04:42Z</time>
      </trkpt>
      <trkpt lat="59.897149" lon="17.7363735">
        <ele>28.4962</ele>
        <time>2014-07-12T10:04:43Z</time>
      </trkpt>
      <trkpt lat="59.8971646" lon="17.7362545">
        <ele>28.4962</ele>
        <time>2014-07-12T10:04:44Z</time>
      </trkpt>
      <trkpt lat="59.8971759" lon="17.7361316">
        <ele>28.4962</ele>
        <time>2014-07-12T10:04:45Z</time>
      </trkpt>
      <trkpt lat="59.8971832" lon="17.7360045">
        <ele>28.9769</ele>
        <time>2014-07-12T10:04:46Z</time>
      </trkpt>
      <trkpt lat="59.8971882" lon="17.7358737">
        <ele>28.9769</ele>
        <time>2014-07-12T10:04:47Z</time>
      </trkpt>
      <trkpt lat="59.8971925" lon="17.7357394">
        <ele>28.9769</ele>
        <time>2014-07-12T10:04:48Z</time>
      </trkpt>
      <trkpt lat="59.8971962" lon="17.7356028">
        <ele>29.4575</ele>
        <time>2014-07-12T10:04:49Z</time>
      </trkpt>
      <trkpt lat="59.8971998" lon="17.7354645">
        <ele>29.9381</ele>
        <time>2014-07-12T10:04:50Z</time>
      </trkpt>
      <trkpt lat="59.8972049" lon="17.7353251">
        <ele>29.9381</ele>
        <time>2014-07-12T10:04:51Z</time>
      </trkpt>
      <trkpt lat="59.897211" lon="17.7351884">
        <ele>30.4188</ele>
        <time>2014-07-12T10:04:52Z</time>
      </trkpt>
      <trkpt lat="59.8972191" lon="17.7350534">
        <ele>30.4188</ele>
        <time>2014-07-12T10:04:53Z</time>
      </trkpt>
      <trkpt lat="59.8972313" lon="17.7349201">
        <ele>30.4188</ele>
        <time>2014-07-12T10:04:54Z</time>
      </trkpt>
      <trkpt lat="59.8972478" lon="17.734788">
        <ele>30.8995</ele>
        <time>2014-07-12T10:04:55Z</time>
      </trkpt>
      <trkpt lat="59.8972678" lon="17.7346587">
        <ele>30.8995</ele>
        <time>2014-07-12T10:04:56Z</time>
      </trkpt>
      <trkpt lat="59.8972926" lon="17.734533">
        <ele>30.8995</ele>
        <time>2014-07-12T10:04:57Z</time>
      </trkpt>
      <trkpt lat="59.8973232" lon="17.7344111">
        <ele>31.3801</ele>
        <time>2014-07-12T10:04:58Z</time>
      </trkpt>
      <trkpt lat="59.8973572" lon="17.7342976">
        <ele>31.3801</ele>
        <time>2014-07-12T10:04:59Z</time>
      </trkpt>
      <trkpt lat="59.8973905" lon="17.7341844">
        <ele>31.3801</ele>
        <time>2014-07-12T10:05:00Z</time>
      </trkpt>
      <trkpt lat="59.8974209" lon="17.7340665">
        <ele>31.3801</ele>
        <time>2014-07-12T10:05:01Z</time>
      </trkpt>
      <trkpt lat="59.8974469" lon="17.7339447">
        <ele>31.3801</ele>
        <time>2014-07-12T10:05:02Z</time>
      </trkpt>
      <trkpt lat="59.8974703" lon="17.7338245">
        <ele>31.3801</ele>
        <time>2014-07-12T10:05:03Z</time>
      </trkpt>
      <trkpt lat="59.8974914" lon="17.7337055">
        <ele>31.3801</ele>
        <time>2014-07-12T10:05:04Z</time>
      </trkpt>
      <trkpt lat="59.8975104" lon="17.7335868">
        <ele>31.3801</ele>
        <time>2014-07-12T10:05:05Z</time>
      </trkpt>
      <trkpt lat="59.8975277" lon="17.7334655">
        <ele>31.3801</ele>
        <time>2014-07-12T10:05:06Z</time>
      </trkpt>
      <trkpt lat="59.897541" lon="17.7333398">
        <ele>31.3801</ele>
        <time>2014-07-12T10:05:07Z</time>
      </trkpt>
      <trkpt lat="59.8975513" lon="17.7332133">
        <ele>31.3801</ele>
        <time>2014-07-12T10:05:08Z</time>
      </trkpt>
      <trkpt lat="59.8975603" lon="17.7330881">
        <ele>31.3801</ele>
        <time>2014-07-12T10:05:09Z</time>
      </trkpt>
      <trkpt lat="59.8975676" lon="17.7329642">
        <ele>31.3801</ele>
        <time>2014-07-12T10:05:10Z</time>
      </trkpt>
      <trkpt lat="59.8975736" lon="17.7328393">
        <ele>31.3801</ele>
        <time>2014-07-12T10:05:11Z</time>
      </trkpt>
      <trkpt lat="59.8975845" lon="17.7325855">
        <ele>31.3801</ele>
        <time>2014-07-12T10:05:13Z</time>
      </trkpt>
      <trkpt lat="59.8975893" lon="17.7324553">
        <ele>31.3801</ele>
        <time>2014-07-12T10:05:14Z</time>
      </trkpt>
      <trkpt lat="59.8975945" lon="17.7323208">
        <ele>31.3801</ele>
        <time>2014-07-12T10:05:15Z</time>
      </trkpt>
      <trkpt lat="59.8975992" lon="17.7321823">
        <ele>31.3801</ele>
        <time>2014-07-12T10:05:16Z</time>
      </trkpt>
      <trkpt lat="59.8976044" lon="17.7320396">
        <ele>31.8607</ele>
        <time>2014-07-12T10:05:17Z</time>
      </trkpt>
      <trkpt lat="59.8976095" lon="17.7318938">
        <ele>31.8607</ele>
        <time>2014-07-12T10:05:18Z</time>
      </trkpt>
      <trkpt lat="59.8976143" lon="17.7317466">
        <ele>31.8607</ele>
        <time>2014-07-12T10:05:19Z</time>
      </trkpt>
      <trkpt lat="59.8976179" lon="17.7315975">
        <ele>32.3416</ele>
        <time>2014-07-12T10:05:20Z</time>
      </trkpt>
      <trkpt lat="59.8976194" lon="17.7314479">
        <ele>32.3416</ele>
        <time>2014-07-12T10:05:21Z</time>
      </trkpt>
      <trkpt lat="59.8976184" lon="17.731302">
        <ele>32.3416</ele>
        <time>2014-07-12T10:05:22Z</time>
      </trkpt>
      <trkpt lat="59.8976127" lon="17.7311599">
        <ele>32.8223</ele>
        <time>2014-07-12T10:05:23Z</time>
      </trkpt>
      <trkpt lat="59.8976029" lon="17.7310159">
        <ele>32.3416</ele>
        <time>2014-07-12T10:05:24Z</time>
      </trkpt>
      <trkpt lat="59.8975888" lon="17.7308724">
        <ele>32.3416</ele>
        <time>2014-07-12T10:05:25Z</time>
      </trkpt>
      <trkpt lat="59.8975706" lon="17.7307253">
        <ele>32.3416</ele>
        <time>2014-07-12T10:05:26Z</time>
      </trkpt>
      <trkpt lat="59.8975509" lon="17.7305735">
        <ele>31.8607</ele>
        <time>2014-07-12T10:05:27Z</time>
      </trkpt>
      <trkpt lat="59.8975309" lon="17.7304139">
        <ele>31.8607</ele>
        <time>2014-07-12T10:05:28Z</time>
      </trkpt>
      <trkpt lat="59.8975153" lon="17.7302435">
        <ele>30.8995</ele>
        <time>2014-07-12T10:05:29Z</time>
      </trkpt>
      <trkpt lat="59.8975099" lon="17.7300648">
        <ele>30.4188</ele>
        <time>2014-07-12T10:05:30Z</time>
      </trkpt>
      <trkpt lat="59.8975166" lon="17.7298795">
        <ele>29.9381</ele>
        <time>2014-07-12T10:05:31Z</time>
      </trkpt>
      <trkpt lat="59.8975309" lon="17.7296923">
        <ele>29.4575</ele>
        <time>2014-07-12T10:05:32Z</time>
      </trkpt>
      <trkpt lat="59.8975505" lon="17.7295069">
        <ele>29.4575</ele>
        <time>2014-07-12T10:05:33Z</time>
      </trkpt>
      <trkpt lat="59.8975757" lon="17.7293252">
        <ele>28.9769</ele>
        <time>2014-07-12T10:05:34Z</time>
      </trkpt>
      <trkpt lat="59.8976049" lon="17.729147">
        <ele>28.9769</ele>
        <time>2014-07-12T10:05:35Z</time>
      </trkpt>
      <trkpt lat="59.8976369" lon="17.7289738">
        <ele>28.4962</ele>
        <time>2014-07-12T10:05:36Z</time>
      </trkpt>
      <trkpt lat="59.8976707" lon="17.7288044">
        <ele>28.4962</ele>
        <time>2014-07-12T10:05:37Z</time>
      </trkpt>
      <trkpt lat="59.8977048" lon="17.7286361">
        <ele>28.4962</ele>
        <time>2014-07-12T10:05:38Z</time>
      </trkpt>
      <trkpt lat="59.8977379" lon="17.7284683">
        <ele>28.4962</ele>
        <time>2014-07-12T10:05:39Z</time>
      </trkpt>
      <trkpt lat="59.8977721" lon="17.7283039">
        <ele>28.4962</ele>
        <time>2014-07-12T10:05:40Z</time>
      </trkpt>
      <trkpt lat="59.8978108" lon="17.7281457">
        <ele>28.0155</ele>
        <time>2014-07-12T10:05:41Z</time>
      </trkpt>
      <trkpt lat="59.8978551" lon="17.7279944">
        <ele>28.0155</ele>
        <time>2014-07-12T10:05:42Z</time>
      </trkpt>
      <trkpt lat="59.8979027" lon="17.7278472">
        <ele>28.0155</ele>
        <time>2014-07-12T10:05:43Z</time>
      </trkpt>
      <trkpt lat="59.8979525" lon="17.7277041">
        <ele>28.0155</ele>
        <time>2014-07-12T10:05:44Z</time>
      </trkpt>
      <trkpt lat="59.8980033" lon="17.7275645">
        <ele>28.0155</ele>
        <time>2014-07-12T10:05:45Z</time>
      </trkpt>
      <trkpt lat="59.8980539" lon="17.7274274">
        <ele>28.0155</ele>
        <time>2014-07-12T10:05:46Z</time>
      </trkpt>
      <trkpt lat="59.8981038" lon="17.7272917">
        <ele>28.0155</ele>
        <time>2014-07-12T10:05:47Z</time>
      </trkpt>
      <trkpt lat="59.8981525" lon="17.7271546">
        <ele>28.0155</ele>
        <time>2014-07-12T10:05:48Z</time>
      </trkpt>
      <trkpt lat="59.8981995" lon="17.7270154">
        <ele>28.0155</ele>
        <time>2014-07-12T10:05:49Z</time>
      </trkpt>
      <trkpt lat="59.8982439" lon="17.7268734">
        <ele>28.0155</ele>
        <time>2014-07-12T10:05:50Z</time>
      </trkpt>
      <trkpt lat="59.8982861" lon="17.7267288">
        <ele>28.0155</ele>
        <time>2014-07-12T10:05:51Z</time>
      </trkpt>
      <trkpt lat="59.8983264" lon="17.7265826">
        <ele>28.0155</ele>
        <time>2014-07-12T10:05:52Z</time>
      </trkpt>
      <trkpt lat="59.8983656" lon="17.7264357">
        <ele>28.0155</ele>
        <time>2014-07-12T10:05:53Z</time>
      </trkpt>
      <trkpt lat="59.8984032" lon="17.7262881">
        <ele>28.0155</ele>
        <time>2014-07-12T10:05:54Z</time>
      </trkpt>
      <trkpt lat="59.8984384" lon="17.7261408">
        <ele>28.0155</ele>
        <time>2014-07-12T10:05:55Z</time>
      </trkpt>
      <trkpt lat="59.898471" lon="17.725996">
        <ele>28.0155</ele>
        <time>2014-07-12T10:05:56Z</time>
      </trkpt>
      <trkpt lat="59.8985016" lon="17.7258563">
        <ele>28.0155</ele>
        <time>2014-07-12T10:05:57Z</time>
      </trkpt>
      <trkpt lat="59.8985301" lon="17.7257213">
        <ele>28.0155</ele>
        <time>2014-07-12T10:05:58Z</time>
      </trkpt>
      <trkpt lat="59.8985557" lon="17.7255893">
        <ele>28.4962</ele>
        <time>2014-07-12T10:05:59Z</time>
      </trkpt>
      <trkpt lat="59.8985785" lon="17.72546">
        <ele>28.4962</ele>
        <time>2014-07-12T10:06:00Z</time>
      </trkpt>
      <trkpt lat="59.8985995" lon="17.725334">
        <ele>28.4962</ele>
        <time>2014-07-12T10:06:01Z</time>
      </trkpt>
      <trkpt lat="59.8986202" lon="17.7252115">
        <ele>28.4962</ele>
        <time>2014-07-12T10:06:02Z</time>
      </trkpt>
      <trkpt lat="59.8986405" lon="17.7250917">
        <ele>28.4962</ele>
        <time>2014-07-12T10:06:03Z</time>
      </trkpt>
      <trkpt lat="59.8986601" lon="17.7249755">
        <ele>28.4962</ele>
        <time>2014-07-12T10:06:04Z</time>
      </trkpt>
      <trkpt lat="59.8986788" lon="17.7248638">
        <ele>28.4962</ele>
        <time>2014-07-12T10:06:05Z</time>
      </trkpt>
      <trkpt lat="59.8986972" lon="17.7247563">
        <ele>28.9769</ele>
        <time>2014-07-12T10:06:06Z</time>
      </trkpt>
      <trkpt lat="59.8987146" lon="17.7246521">
        <ele>28.9769</ele>
        <time>2014-07-12T10:06:07Z</time>
      </trkpt>
      <trkpt lat="59.898731" lon="17.7245491">
        <ele>28.9769</ele>
        <time>2014-07-12T10:06:08Z</time>
      </trkpt>
      <trkpt lat="59.8987467" lon="17.7244459">
        <ele>28.9769</ele>
        <time>2014-07-12T10:06:09Z</time>
      </trkpt>
      <trkpt lat="59.8987631" lon="17.724343">
        <ele>29.4575</ele>
        <time>2014-07-12T10:06:10Z</time>
      </trkpt>
      <trkpt lat="59.8987797" lon="17.7242404">
        <ele>29.4575</ele>
        <time>2014-07-12T10:06:11Z</time>
      </trkpt>
      <trkpt lat="59.8987962" lon="17.7241376">
        <ele>29.4575</ele>
        <time>2014-07-12T10:06:12Z</time>
      </trkpt>
      <trkpt lat="59.898812" lon="17.7240351">
        <ele>29.4575</ele>
        <time>2014-07-12T10:06:13Z</time>
      </trkpt>
      <trkpt lat="59.8988278" lon="17.7239332">
        <ele>29.4575</ele>
        <time>2014-07-12T10:06:14Z</time>
      </trkpt>
      <trkpt lat="59.8988434" lon="17.7238332">
        <ele>29.4575</ele>
        <time>2014-07-12T10:06:15Z</time>
      </trkpt>
      <trkpt lat="59.8988585" lon="17.7237353">
        <ele>29.4575</ele>
        <time>2014-07-12T10:06:16Z</time>
      </trkpt>
      <trkpt lat="59.8988729" lon="17.7236383">
        <ele>29.9381</ele>
        <time>2014-07-12T10:06:17Z</time>
      </trkpt>
      <trkpt lat="59.8988875" lon="17.7235427">
        <ele>29.9381</ele>
        <time>2014-07-12T10:06:18Z</time>
      </trkpt>
      <trkpt lat="59.8989025" lon="17.7234488">
        <ele>29.4575</ele>
        <time>2014-07-12T10:06:19Z</time>
      </trkpt>
      <trkpt lat="59.8989184" lon="17.7233567">
        <ele>29.4575</ele>
        <time>2014-07-12T10:06:20Z</time>
      </trkpt>
      <trkpt lat="59.898933" lon="17.7232647">
        <ele>29.9381</ele>
        <time>2014-07-12T10:06:21Z</time>
      </trkpt>
      <trkpt lat="59.8989471" lon="17.7231723">
        <ele>29.9381</ele>
        <time>2014-07-12T10:06:22Z</time>
      </trkpt>
      <trkpt lat="59.8989615" lon="17.7230817">
        <ele>29.9381</ele>
        <time>2014-07-12T10:06:23Z</time>
      </trkpt>
      <trkpt lat="59.8989758" lon="17.7229935">
        <ele>29.9381</ele>
        <time>2014-07-12T10:06:24Z</time>
      </trkpt>
      <trkpt lat="59.8989898" lon="17.7229075">
        <ele>29.9381</ele>
        <time>2014-07-12T10:06:25Z</time>
      </trkpt>
      <trkpt lat="59.8990025" lon="17.7228236">
        <ele>29.9381</ele>
        <time>2014-07-12T10:06:26Z</time>
      </trkpt>
      <trkpt lat="59.8990134" lon="17.7227412">
        <ele>29.9381</ele>
        <time>2014-07-12T10:06:27Z</time>
      </trkpt>
      <trkpt lat="59.899023" lon="17.7226616">
        <ele>29.9381</ele>
        <time>2014-07-12T10:06:28Z</time>
      </trkpt>
      <trkpt lat="59.8990325" lon="17.7225846">
        <ele>29.9381</ele>
        <time>2014-07-12T10:06:29Z</time>
      </trkpt>
      <trkpt lat="59.899046" lon="17.7225143">
        <ele>29.9381</ele>
        <time>2014-07-12T10:06:30Z</time>
      </trkpt>
      <trkpt lat="59.8990572" lon="17.722451">
        <ele>29.4575</ele>
        <time>2014-07-12T10:06:31Z</time>
      </trkpt>
      <trkpt lat="59.8990517" lon="17.7223984">
        <ele>29.4575</ele>
        <time>2014-07-12T10:06:32Z</time>
      </trkpt>
      <trkpt lat="59.8990308" lon="17.7223751">
        <ele>29.4575</ele>
        <time>2014-07-12T10:06:33Z</time>
      </trkpt>
      <trkpt lat="59.89901" lon="17.7223911">
        <ele>29.4575</ele>
        <time>2014-07-12T10:06:34Z</time>
      </trkpt>
      <trkpt lat="59.8990019" lon="17.7224346">
        <ele>29.4575</ele>
        <time>2014-07-12T10:06:35Z</time>
      </trkpt>
      <trkpt lat="59.899004" lon="17.7224895">
        <ele>29.9381</ele>
        <time>2014-07-12T10:06:36Z</time>
      </trkpt>
      <trkpt lat="59.8990085" lon="17.7225506">
        <ele>29.9381</ele>
        <time>2014-07-12T10:06:37Z</time>
      </trkpt>
      <trkpt lat="59.8990075" lon="17.7226194">
        <ele>29.4575</ele>
        <time>2014-07-12T10:06:38Z</time>
      </trkpt>
      <trkpt lat="59.8989986" lon="17.7226936">
        <ele>29.4575</ele>
        <time>2014-07-12T10:06:39Z</time>
      </trkpt>
      <trkpt lat="59.8989874" lon="17.7227742">
        <ele>29.4575</ele>
        <time>2014-07-12T10:06:40Z</time>
      </trkpt>
      <trkpt lat="59.8989738" lon="17.722862">
        <ele>29.4575</ele>
        <time>2014-07-12T10:06:41Z</time>
      </trkpt>
      <trkpt lat="59.8989565" lon="17.7229557">
        <ele>29.4575</ele>
        <time>2014-07-12T10:06:42Z</time>
      </trkpt>
      <trkpt lat="59.8989398" lon="17.7230541">
        <ele>29.9381</ele>
        <time>2014-07-12T10:06:43Z</time>
      </trkpt>
      <trkpt lat="59.8989237" lon="17.7231568">
        <ele>29.9381</ele>
        <time>2014-07-12T10:06:44Z</time>
      </trkpt>
      <trkpt lat="59.8989064" lon="17.723264">
        <ele>29.4575</ele>
        <time>2014-07-12T10:06:45Z</time>
      </trkpt>
      <trkpt lat="59.8988864" lon="17.7233751">
        <ele>29.4575</ele>
        <time>2014-07-12T10:06:46Z</time>
      </trkpt>
      <trkpt lat="59.8988666" lon="17.7234903">
        <ele>29.4575</ele>
        <time>2014-07-12T10:06:47Z</time>
      </trkpt>
      <trkpt lat="59.8988475" lon="17.7236089">
        <ele>29.4575</ele>
        <time>2014-07-12T10:06:48Z</time>
      </trkpt>
      <trkpt lat="59.8988274" lon="17.7237317">
        <ele>28.9769</ele>
        <time>2014-07-12T10:06:49Z</time>
      </trkpt>
      <trkpt lat="59.8988065" lon="17.7238601">
        <ele>28.9769</ele>
        <time>2014-07-12T10:06:50Z</time>
      </trkpt>
      <trkpt lat="59.8987844" lon="17.7239938">
        <ele>28.9769</ele>
        <time>2014-07-12T10:06:51Z</time>
      </trkpt>
      <trkpt lat="59.8987622" lon="17.724131">
        <ele>28.4962</ele>
        <time>2014-07-12T10:06:52Z</time>
      </trkpt>
      <trkpt lat="59.8987404" lon="17.7242725">
        <ele>28.4962</ele>
        <time>2014-07-12T10:06:53Z</time>
      </trkpt>
      <trkpt lat="59.8987174" lon="17.7244196">
        <ele>28.4962</ele>
        <time>2014-07-12T10:06:54Z</time>
      </trkpt>
      <trkpt lat="59.8986925" lon="17.7245719">
        <ele>28.0155</ele>
        <time>2014-07-12T10:06:55Z</time>
      </trkpt>
      <trkpt lat="59.8986666" lon="17.7247284">
        <ele>28.0155</ele>
        <time>2014-07-12T10:06:56Z</time>
      </trkpt>
      <trkpt lat="59.8986393" lon="17.7248885">
        <ele>27.5349</ele>
        <time>2014-07-12T10:06:57Z</time>
      </trkpt>
      <trkpt lat="59.8986109" lon="17.7250537">
        <ele>27.5349</ele>
        <time>2014-07-12T10:06:58Z</time>
      </trkpt>
      <trkpt lat="59.8985832" lon="17.7252221">
        <ele>27.5349</ele>
        <time>2014-07-12T10:06:59Z</time>
      </trkpt>
      <trkpt lat="59.898555" lon="17.7253927">
        <ele>27.5349</ele>
        <time>2014-07-12T10:07:00Z</time>
      </trkpt>
      <trkpt lat="59.8985249" lon="17.7255638">
        <ele>27.5349</ele>
        <time>2014-07-12T10:07:01Z</time>
      </trkpt>
      <trkpt lat="59.8984917" lon="17.7257352">
        <ele>27.5349</ele>
        <time>2014-07-12T10:07:02Z</time>
      </trkpt>
      <trkpt lat="59.8984563" lon="17.7259066">
        <ele>27.0543</ele>
        <time>2014-07-12T10:07:03Z</time>
      </trkpt>
      <trkpt lat="59.8984191" lon="17.7260767">
        <ele>27.0543</ele>
        <time>2014-07-12T10:07:04Z</time>
      </trkpt>
      <trkpt lat="59.8983798" lon="17.7262446">
        <ele>27.0543</ele>
        <time>2014-07-12T10:07:05Z</time>
      </trkpt>
      <trkpt lat="59.8983388" lon="17.7264113">
        <ele>27.0543</ele>
        <time>2014-07-12T10:07:06Z</time>
      </trkpt>
      <trkpt lat="59.898296" lon="17.7265766">
        <ele>27.0543</ele>
        <time>2014-07-12T10:07:07Z</time>
      </trkpt>
      <trkpt lat="59.8982517" lon="17.7267382">
        <ele>27.0543</ele>
        <time>2014-07-12T10:07:08Z</time>
      </trkpt>
      <trkpt lat="59.8982057" lon="17.7268971">
        <ele>27.0543</ele>
        <time>2014-07-12T10:07:09Z</time>
      </trkpt>
      <trkpt lat="59.8981576" lon="17.7270519">
        <ele>27.0543</ele>
        <time>2014-07-12T10:07:10Z</time>
      </trkpt>
      <trkpt lat="59.8981068" lon="17.7272018">
        <ele>27.0543</ele>
        <time>2014-07-12T10:07:11Z</time>
      </trkpt>
      <trkpt lat="59.898054" lon="17.7273474">
        <ele>26.5736</ele>
        <time>2014-07-12T10:07:12Z</time>
      </trkpt>
      <trkpt lat="59.8980001" lon="17.7274891">
        <ele>26.5736</ele>
        <time>2014-07-12T10:07:13Z</time>
      </trkpt>
      <trkpt lat="59.8979462" lon="17.7276302">
        <ele>26.5736</ele>
        <time>2014-07-12T10:07:14Z</time>
      </trkpt>
      <trkpt lat="59.8978934" lon="17.7277732">
        <ele>26.5736</ele>
        <time>2014-07-12T10:07:15Z</time>
      </trkpt>
      <trkpt lat="59.8978435" lon="17.7279198">
        <ele>26.5736</ele>
        <time>2014-07-12T10:07:16Z</time>
      </trkpt>
      <trkpt lat="59.8977975" lon="17.7280699">
        <ele>26.5736</ele>
        <time>2014-07-12T10:07:17Z</time>
      </trkpt>
      <trkpt lat="59.8977561" lon="17.7282241">
        <ele>26.5736</ele>
        <time>2014-07-12T10:07:18Z</time>
      </trkpt>
      <trkpt lat="59.8977189" lon="17.7283797">
        <ele>26.5736</ele>
        <time>2014-07-12T10:07:19Z</time>
      </trkpt>
      <trkpt lat="59.8976852" lon="17.7285342">
        <ele>26.5736</ele>
        <time>2014-07-12T10:07:20Z</time>
      </trkpt>
      <trkpt lat="59.8976537" lon="17.7286884">
        <ele>27.0543</ele>
        <time>2014-07-12T10:07:21Z</time>
      </trkpt>
      <trkpt lat="59.8976233" lon="17.7288418">
        <ele>27.0543</ele>
        <time>2014-07-12T10:07:22Z</time>
      </trkpt>
      <trkpt lat="59.8975931" lon="17.7289955">
        <ele>27.0543</ele>
        <time>2014-07-12T10:07:23Z</time>
      </trkpt>
      <trkpt lat="59.8975637" lon="17.7291496">
        <ele>27.0543</ele>
        <time>2014-07-12T10:07:24Z</time>
      </trkpt>
      <trkpt lat="59.8975361" lon="17.7293048">
        <ele>27.5349</ele>
        <time>2014-07-12T10:07:25Z</time>
      </trkpt>
      <trkpt lat="59.8975117" lon="17.7294612">
        <ele>27.5349</ele>
        <time>2014-07-12T10:07:26Z</time>
      </trkpt>
      <trkpt lat="59.8974909" lon="17.7296187">
        <ele>27.5349</ele>
        <time>2014-07-12T10:07:27Z</time>
      </trkpt>
      <trkpt lat="59.8974732" lon="17.7297767">
        <ele>28.0155</ele>
        <time>2014-07-12T10:07:28Z</time>
      </trkpt>
      <trkpt lat="59.8974602" lon="17.7299339">
        <ele>28.4962</ele>
        <time>2014-07-12T10:07:29Z</time>
      </trkpt>
      <trkpt lat="59.8974542" lon="17.7300848">
        <ele>28.9769</ele>
        <time>2014-07-12T10:07:30Z</time>
      </trkpt>
      <trkpt lat="59.8974553" lon="17.7302278">
        <ele>28.9769</ele>
        <time>2014-07-12T10:07:31Z</time>
      </trkpt>
      <trkpt lat="59.8974612" lon="17.7303648">
        <ele>29.4575</ele>
        <time>2014-07-12T10:07:32Z</time>
      </trkpt>
      <trkpt lat="59.8974733" lon="17.7304938">
        <ele>29.9381</ele>
        <time>2014-07-12T10:07:33Z</time>
      </trkpt>
      <trkpt lat="59.8974894" lon="17.7306174">
        <ele>30.4188</ele>
        <time>2014-07-12T10:07:34Z</time>
      </trkpt>
      <trkpt lat="59.8975043" lon="17.7307372">
        <ele>30.4188</ele>
        <time>2014-07-12T10:07:35Z</time>
      </trkpt>
      <trkpt lat="59.8975173" lon="17.7308487">
        <ele>30.8995</ele>
        <time>2014-07-12T10:07:36Z</time>
      </trkpt>
      <trkpt lat="59.8975282" lon="17.7309543">
        <ele>31.3801</ele>
        <time>2014-07-12T10:07:37Z</time>
      </trkpt>
      <trkpt lat="59.8975374" lon="17.7310589">
        <ele>31.8607</ele>
        <time>2014-07-12T10:07:38Z</time>
      </trkpt>
      <trkpt lat="59.8975448" lon="17.7311623">
        <ele>32.3416</ele>
        <time>2014-07-12T10:07:39Z</time>
      </trkpt>
      <trkpt lat="59.8975489" lon="17.7312678">
        <ele>32.8223</ele>
        <time>2014-07-12T10:07:40Z</time>
      </trkpt>
      <trkpt lat="59.8975513" lon="17.7313764">
        <ele>32.8223</ele>
        <time>2014-07-12T10:07:41Z</time>
      </trkpt>
      <trkpt lat="59.897553" lon="17.7314888">
        <ele>33.3029</ele>
        <time>2014-07-12T10:07:42Z</time>
      </trkpt>
      <trkpt lat="59.897553" lon="17.7316047">
        <ele>33.3029</ele>
        <time>2014-07-12T10:07:43Z</time>
      </trkpt>
      <trkpt lat="59.8975506" lon="17.7317257">
        <ele>33.3029</ele>
        <time>2014-07-12T10:07:44Z</time>
      </trkpt>
      <trkpt lat="59.8975464" lon="17.7318505">
        <ele>33.3029</ele>
        <time>2014-07-12T10:07:45Z</time>
      </trkpt>
      <trkpt lat="59.8975421" lon="17.7319768">
        <ele>33.3029</ele>
        <time>2014-07-12T10:07:46Z</time>
      </trkpt>
      <trkpt lat="59.8975386" lon="17.7321032">
        <ele>32.8223</ele>
        <time>2014-07-12T10:07:47Z</time>
      </trkpt>
      <trkpt lat="59.8975338" lon="17.7322299">
        <ele>33.3029</ele>
        <time>2014-07-12T10:07:48Z</time>
      </trkpt>
      <trkpt lat="59.8975267" lon="17.7323555">
        <ele>32.8223</ele>
        <time>2014-07-12T10:07:49Z</time>
      </trkpt>
      <trkpt lat="59.8975192" lon="17.7324806">
        <ele>33.3029</ele>
        <time>2014-07-12T10:07:50Z</time>
      </trkpt>
      <trkpt lat="59.8975174" lon="17.7326135">
        <ele>32.8223</ele>
        <time>2014-07-12T10:07:51Z</time>
      </trkpt>
      <trkpt lat="59.8975163" lon="17.7327467">
        <ele>32.8223</ele>
        <time>2014-07-12T10:07:52Z</time>
      </trkpt>
      <trkpt lat="59.897513" lon="17.7328818">
        <ele>32.8223</ele>
        <time>2014-07-12T10:07:53Z</time>
      </trkpt>
      <trkpt lat="59.8975063" lon="17.7330169">
        <ele>32.3416</ele>
        <time>2014-07-12T10:07:54Z</time>
      </trkpt>
      <trkpt lat="59.8974975" lon="17.7331518">
        <ele>32.3416</ele>
        <time>2014-07-12T10:07:55Z</time>
      </trkpt>
      <trkpt lat="59.8974868" lon="17.7332883">
        <ele>32.3416</ele>
        <time>2014-07-12T10:07:56Z</time>
      </trkpt>
      <trkpt lat="59.8974732" lon="17.7334239">
        <ele>31.8607</ele>
        <time>2014-07-12T10:07:57Z</time>
      </trkpt>
      <trkpt lat="59.8974578" lon="17.7335599">
        <ele>31.8607</ele>
        <time>2014-07-12T10:07:58Z</time>
      </trkpt>
      <trkpt lat="59.8974421" lon="17.733693">
        <ele>31.3801</ele>
        <time>2014-07-12T10:07:59Z</time>
      </trkpt>
      <trkpt lat="59.8974228" lon="17.7338245">
        <ele>31.3801</ele>
        <time>2014-07-12T10:08:00Z</time>
      </trkpt>
      <trkpt lat="59.8973973" lon="17.7339533">
        <ele>30.8995</ele>
        <time>2014-07-12T10:08:01Z</time>
      </trkpt>
      <trkpt lat="59.897367" lon="17.7340792">
        <ele>30.8995</ele>
        <time>2014-07-12T10:08:02Z</time>
      </trkpt>
      <trkpt lat="59.8973303" lon="17.7341987">
        <ele>30.8995</ele>
        <time>2014-07-12T10:08:03Z</time>
      </trkpt>
      <trkpt lat="59.897297" lon="17.7343247">
        <ele>30.4188</ele>
        <time>2014-07-12T10:08:04Z</time>
      </trkpt>
      <trkpt lat="59.8972633" lon="17.734452">
        <ele>30.4188</ele>
        <time>2014-07-12T10:08:05Z</time>
      </trkpt>
      <trkpt lat="59.8972319" lon="17.7345984">
        <ele>29.9381</ele>
        <time>2014-07-12T10:08:06Z</time>
      </trkpt>
      <trkpt lat="59.897207" lon="17.7347405">
        <ele>29.4575</ele>
        <time>2014-07-12T10:08:07Z</time>
      </trkpt>
      <trkpt lat="59.8971888" lon="17.734889">
        <ele>29.4575</ele>
        <time>2014-07-12T10:08:08Z</time>
      </trkpt>
      <trkpt lat="59.8971752" lon="17.7350407">
        <ele>28.9769</ele>
        <time>2014-07-12T10:08:09Z</time>
      </trkpt>
      <trkpt lat="59.8971664" lon="17.7351986">
        <ele>28.4962</ele>
        <time>2014-07-12T10:08:10Z</time>
      </trkpt>
      <trkpt lat="59.897162" lon="17.7353606">
        <ele>28.0155</ele>
        <time>2014-07-12T10:08:11Z</time>
      </trkpt>
      <trkpt lat="59.8971603" lon="17.7355257">
        <ele>27.5349</ele>
        <time>2014-07-12T10:08:12Z</time>
      </trkpt>
      <trkpt lat="59.8971594" lon="17.735695">
        <ele>27.5349</ele>
        <time>2014-07-12T10:08:13Z</time>
      </trkpt>
      <trkpt lat="59.8971563" lon="17.7358696">
        <ele>27.5349</ele>
        <time>2014-07-12T10:08:14Z</time>
      </trkpt>
      <trkpt lat="59.8971519" lon="17.7360396">
        <ele>27.0543</ele>
        <time>2014-07-12T10:08:15Z</time>
      </trkpt>
      <trkpt lat="59.8971411" lon="17.7362077">
        <ele>27.0543</ele>
        <time>2014-07-12T10:08:16Z</time>
      </trkpt>
      <trkpt lat="59.8971241" lon="17.7363727">
        <ele>26.5736</ele>
        <time>2014-07-12T10:08:17Z</time>
      </trkpt>
      <trkpt lat="59.8971014" lon="17.7365325">
        <ele>26.5736</ele>
        <time>2014-07-12T10:08:18Z</time>
      </trkpt>
      <trkpt lat="59.8970703" lon="17.7366866">
        <ele>26.5736</ele>
        <time>2014-07-12T10:08:19Z</time>
      </trkpt>
      <trkpt lat="59.8970325" lon="17.736831">
        <ele>27.0543</ele>
        <time>2014-07-12T10:08:20Z</time>
      </trkpt>
      <trkpt lat="59.8969905" lon="17.7369654">
        <ele>27.0543</ele>
        <time>2014-07-12T10:08:21Z</time>
      </trkpt>
      <trkpt lat="59.8969466" lon="17.7370935">
        <ele>27.5349</ele>
        <time>2014-07-12T10:08:22Z</time>
      </trkpt>
      <trkpt lat="59.8969018" lon="17.7372161">
        <ele>27.5349</ele>
        <time>2014-07-12T10:08:23Z</time>
      </trkpt>
      <trkpt lat="59.8968553" lon="17.7373335">
        <ele>28.0155</ele>
        <time>2014-07-12T10:08:24Z</time>
      </trkpt>
      <trkpt lat="59.8968083" lon="17.7374465">
        <ele>28.0155</ele>
        <time>2014-07-12T10:08:25Z</time>
      </trkpt>
      <trkpt lat="59.8967626" lon="17.7375589">
        <ele>28.4962</ele>
        <time>2014-07-12T10:08:26Z</time>
      </trkpt>
      <trkpt lat="59.8967189" lon="17.7376734">
        <ele>28.4962</ele>
        <time>2014-07-12T10:08:27Z</time>
      </trkpt>
      <trkpt lat="59.8966787" lon="17.737793">
        <ele>28.4962</ele>
        <time>2014-07-12T10:08:28Z</time>
      </trkpt>
      <trkpt lat="59.8966425" lon="17.7379189">
        <ele>28.4962</ele>
        <time>2014-07-12T10:08:29Z</time>
      </trkpt>
      <trkpt lat="59.8966106" lon="17.7380515">
        <ele>28.4962</ele>
        <time>2014-07-12T10:08:30Z</time>
      </trkpt>
      <trkpt lat="59.8965812" lon="17.7381896">
        <ele>28.4962</ele>
        <time>2014-07-12T10:08:31Z</time>
      </trkpt>
      <trkpt lat="59.8965516" lon="17.7383317">
        <ele>28.4962</ele>
        <time>2014-07-12T10:08:32Z</time>
      </trkpt>
      <trkpt lat="59.8965196" lon="17.738474">
        <ele>28.4962</ele>
        <time>2014-07-12T10:08:33Z</time>
      </trkpt>
      <trkpt lat="59.8964792" lon="17.7386089">
        <ele>28.4962</ele>
        <time>2014-07-12T10:08:34Z</time>
      </trkpt>
      <trkpt lat="59.8964252" lon="17.7387175">
        <ele>28.9769</ele>
        <time>2014-07-12T10:08:35Z</time>
      </trkpt>
      <trkpt lat="59.8963585" lon="17.7387969">
        <ele>28.9769</ele>
        <time>2014-07-12T10:08:36Z</time>
      </trkpt>
      <trkpt lat="59.8962833" lon="17.7388492">
        <ele>28.4962</ele>
        <time>2014-07-12T10:08:37Z</time>
      </trkpt>
      <trkpt lat="59.8962022" lon="17.7388828">
        <ele>28.4962</ele>
        <time>2014-07-12T10:08:38Z</time>
      </trkpt>
      <trkpt lat="59.8961177" lon="17.7389095">
        <ele>28.0155</ele>
        <time>2014-07-12T10:08:39Z</time>
      </trkpt>
      <trkpt lat="59.8960306" lon="17.7389367">
        <ele>27.5349</ele>
        <time>2014-07-12T10:08:40Z</time>
      </trkpt>
      <trkpt lat="59.895941" lon="17.7389642">
        <ele>27.5349</ele>
        <time>2014-07-12T10:08:41Z</time>
      </trkpt>
      <trkpt lat="59.8958507" lon="17.7389921">
        <ele>27.5349</ele>
        <time>2014-07-12T10:08:42Z</time>
      </trkpt>
      <trkpt lat="59.8957602" lon="17.7390197">
        <ele>27.5349</ele>
        <time>2014-07-12T10:08:43Z</time>
      </trkpt>
      <trkpt lat="59.8956697" lon="17.7390456">
        <ele>28.0155</ele>
        <time>2014-07-12T10:08:44Z</time>
      </trkpt>
      <trkpt lat="59.89558" lon="17.7390676">
        <ele>28.0155</ele>
        <time>2014-07-12T10:08:45Z</time>
      </trkpt>
      <trkpt lat="59.8954909" lon="17.7390869">
        <ele>28.0155</ele>
        <time>2014-07-12T10:08:46Z</time>
      </trkpt>
      <trkpt lat="59.8954028" lon="17.739107">
        <ele>28.0155</ele>
        <time>2014-07-12T10:08:47Z</time>
      </trkpt>
      <trkpt lat="59.8953161" lon="17.7391285">
        <ele>28.4962</ele>
        <time>2014-07-12T10:08:48Z</time>
      </trkpt>
      <trkpt lat="59.8952308" lon="17.7391514">
        <ele>28.4962</ele>
        <time>2014-07-12T10:08:49Z</time>
      </trkpt>
      <trkpt lat="59.8951469" lon="17.7391755">
        <ele>28.4962</ele>
        <time>2014-07-12T10:08:50Z</time>
      </trkpt>
      <trkpt lat="59.8950641" lon="17.7392005">
        <ele>28.4962</ele>
        <time>2014-07-12T10:08:51Z</time>
      </trkpt>
      <trkpt lat="59.8949827" lon="17.739228">
        <ele>28.9769</ele>
        <time>2014-07-12T10:08:52Z</time>
      </trkpt>
      <trkpt lat="59.8949029" lon="17.7392581">
        <ele>28.9769</ele>
        <time>2014-07-12T10:08:53Z</time>
      </trkpt>
      <trkpt lat="59.8948245" lon="17.7392916">
        <ele>29.4575</ele>
        <time>2014-07-12T10:08:54Z</time>
      </trkpt>
      <trkpt lat="59.894747" lon="17.7393298">
        <ele>29.4575</ele>
        <time>2014-07-12T10:08:55Z</time>
      </trkpt>
      <trkpt lat="59.8946709" lon="17.739371">
        <ele>29.9381</ele>
        <time>2014-07-12T10:08:56Z</time>
      </trkpt>
      <trkpt lat="59.8945983" lon="17.7394154">
        <ele>30.4188</ele>
        <time>2014-07-12T10:08:57Z</time>
      </trkpt>
      <trkpt lat="59.8945305" lon="17.7394648">
        <ele>30.4188</ele>
        <time>2014-07-12T10:08:58Z</time>
      </trkpt>
      <trkpt lat="59.8944666" lon="17.7395227">
        <ele>30.8995</ele>
        <time>2014-07-12T10:08:59Z</time>
      </trkpt>
      <trkpt lat="59.8944067" lon="17.7395895">
        <ele>30.8995</ele>
        <time>2014-07-12T10:09:00Z</time>
      </trkpt>
      <trkpt lat="59.89435" lon="17.7396621">
        <ele>31.3801</ele>
        <time>2014-07-12T10:09:01Z</time>
      </trkpt>
      <trkpt lat="59.8942977" lon="17.7397412">
        <ele>31.3801</ele>
        <time>2014-07-12T10:09:02Z</time>
      </trkpt>
      <trkpt lat="59.8942522" lon="17.7398405">
        <ele>30.8995</ele>
        <time>2014-07-12T10:09:03Z</time>
      </trkpt>
      <trkpt lat="59.8942057" lon="17.7399439">
        <ele>30.8995</ele>
        <time>2014-07-12T10:09:04Z</time>
      </trkpt>
      <trkpt lat="59.8941679" lon="17.740037">
        <ele>30.8995</ele>
        <time>2014-07-12T10:09:05Z</time>
      </trkpt>
      <trkpt lat="59.8941322" lon="17.7401568">
        <ele>30.8995</ele>
        <time>2014-07-12T10:09:06Z</time>
      </trkpt>
      <trkpt lat="59.8940915" lon="17.7402876">
        <ele>30.4188</ele>
        <time>2014-07-12T10:09:07Z</time>
      </trkpt>
      <trkpt lat="59.8940487" lon="17.7404176">
        <ele>29.9381</ele>
        <time>2014-07-12T10:09:08Z</time>
      </trkpt>
      <trkpt lat="59.894004" lon="17.7405551">
        <ele>29.9381</ele>
        <time>2014-07-12T10:09:09Z</time>
      </trkpt>
      <trkpt lat="59.8939605" lon="17.7406923">
        <ele>29.9381</ele>
        <time>2014-07-12T10:09:10Z</time>
      </trkpt>
      <trkpt lat="59.8939187" lon="17.7408274">
        <ele>29.9381</ele>
        <time>2014-07-12T10:09:11Z</time>
      </trkpt>
      <trkpt lat="59.8938788" lon="17.7409585">
        <ele>29.9381</ele>
        <time>2014-07-12T10:09:12Z</time>
      </trkpt>
      <trkpt lat="59.8938391" lon="17.7410869">
        <ele>29.9381</ele>
        <time>2014-07-12T10:09:13Z</time>
      </trkpt>
      <trkpt lat="59.8937996" lon="17.7412109">
        <ele>29.9381</ele>
        <time>2014-07-12T10:09:14Z</time>
      </trkpt>
      <trkpt lat="59.8937587" lon="17.7413381">
        <ele>29.9381</ele>
        <time>2014-07-12T10:09:15Z</time>
      </trkpt>
      <trkpt lat="59.8937183" lon="17.7414645">
        <ele>29.9381</ele>
        <time>2014-07-12T10:09:16Z</time>
      </trkpt>
      <trkpt lat="59.8936784" lon="17.7415907">
        <ele>29.4575</ele>
        <time>2014-07-12T10:09:17Z</time>
      </trkpt>
      <trkpt lat="59.8936364" lon="17.741718">
        <ele>29.9381</ele>
        <time>2014-07-12T10:09:18Z</time>
      </trkpt>
      <trkpt lat="59.8935948" lon="17.7418455">
        <ele>29.9381</ele>
        <time>2014-07-12T10:09:19Z</time>
      </trkpt>
      <trkpt lat="59.8935533" lon="17.741974">
        <ele>29.9381</ele>
        <time>2014-07-12T10:09:20Z</time>
      </trkpt>
      <trkpt lat="59.8935119" lon="17.7421002">
        <ele>29.9381</ele>
        <time>2014-07-12T10:09:21Z</time>
      </trkpt>
      <trkpt lat="59.8934712" lon="17.742223">
        <ele>29.9381</ele>
        <time>2014-07-12T10:09:22Z</time>
      </trkpt>
      <trkpt lat="59.8934324" lon="17.7423431">
        <ele>30.4188</ele>
        <time>2014-07-12T10:09:23Z</time>
      </trkpt>
      <trkpt lat="59.893394" lon="17.742464">
        <ele>30.8995</ele>
        <time>2014-07-12T10:09:24Z</time>
      </trkpt>
      <trkpt lat="59.8933571" lon="17.7425761">
        <ele>30.8995</ele>
        <time>2014-07-12T10:09:25Z</time>
      </trkpt>
      <trkpt lat="59.893325" lon="17.7426851">
        <ele>31.3801</ele>
        <time>2014-07-12T10:09:26Z</time>
      </trkpt>
      <trkpt lat="59.8932935" lon="17.7427846">
        <ele>31.8607</ele>
        <time>2014-07-12T10:09:27Z</time>
      </trkpt>
      <trkpt lat="59.8932604" lon="17.7428774">
        <ele>31.8607</ele>
        <time>2014-07-12T10:09:28Z</time>
      </trkpt>
      <trkpt lat="59.8932335" lon="17.742973">
        <ele>32.3416</ele>
        <time>2014-07-12T10:09:29Z</time>
      </trkpt>
      <trkpt lat="59.8932045" lon="17.7430713">
        <ele>32.8223</ele>
        <time>2014-07-12T10:09:30Z</time>
      </trkpt>
      <trkpt lat="59.893177" lon="17.743172">
        <ele>33.3029</ele>
        <time>2014-07-12T10:09:31Z</time>
      </trkpt>
      <trkpt lat="59.8931457" lon="17.7432768">
        <ele>33.7834</ele>
        <time>2014-07-12T10:09:32Z</time>
      </trkpt>
      <trkpt lat="59.8931105" lon="17.7433791">
        <ele>33.7834</ele>
        <time>2014-07-12T10:09:33Z</time>
      </trkpt>
      <trkpt lat="59.893075" lon="17.7434808">
        <ele>33.7834</ele>
        <time>2014-07-12T10:09:34Z</time>
      </trkpt>
      <trkpt lat="59.8930438" lon="17.7435824">
        <ele>34.2642</ele>
        <time>2014-07-12T10:09:35Z</time>
      </trkpt>
      <trkpt lat="59.8930121" lon="17.7436786">
        <ele>34.2642</ele>
        <time>2014-07-12T10:09:36Z</time>
      </trkpt>
      <trkpt lat="59.8929811" lon="17.743774">
        <ele>34.2642</ele>
        <time>2014-07-12T10:09:37Z</time>
      </trkpt>
      <trkpt lat="59.8929509" lon="17.7438724">
        <ele>34.7449</ele>
        <time>2014-07-12T10:09:38Z</time>
      </trkpt>
      <trkpt lat="59.8929179" lon="17.7439724">
        <ele>34.7449</ele>
        <time>2014-07-12T10:09:39Z</time>
      </trkpt>
      <trkpt lat="59.8928851" lon="17.7440872">
        <ele>34.2642</ele>
        <time>2014-07-12T10:09:40Z</time>
      </trkpt>
      <trkpt lat="59.892848" lon="17.744207">
        <ele>33.7834</ele>
        <time>2014-07-12T10:09:41Z</time>
      </trkpt>
      <trkpt lat="59.8928087" lon="17.7443344">
        <ele>32.8223</ele>
        <time>2014-07-12T10:09:42Z</time>
      </trkpt>
      <trkpt lat="59.8927659" lon="17.7444687">
        <ele>31.8607</ele>
        <time>2014-07-12T10:09:43Z</time>
      </trkpt>
      <trkpt lat="59.8927185" lon="17.7446116">
        <ele>30.8995</ele>
        <time>2014-07-12T10:09:44Z</time>
      </trkpt>
      <trkpt lat="59.8926692" lon="17.7447595">
        <ele>29.9381</ele>
        <time>2014-07-12T10:09:45Z</time>
      </trkpt>
      <trkpt lat="59.8926194" lon="17.7449122">
        <ele>29.4575</ele>
        <time>2014-07-12T10:09:46Z</time>
      </trkpt>
      <trkpt lat="59.8925693" lon="17.7450672">
        <ele>28.9769</ele>
        <time>2014-07-12T10:09:47Z</time>
      </trkpt>
      <trkpt lat="59.8925195" lon="17.7452218">
        <ele>28.4962</ele>
        <time>2014-07-12T10:09:48Z</time>
      </trkpt>
      <trkpt lat="59.89247" lon="17.7453756">
        <ele>28.0155</ele>
        <time>2014-07-12T10:09:49Z</time>
      </trkpt>
      <trkpt lat="59.8924217" lon="17.7455277">
        <ele>28.0155</ele>
        <time>2014-07-12T10:09:50Z</time>
      </trkpt>
      <trkpt lat="59.8923733" lon="17.7456772">
        <ele>27.5349</ele>
        <time>2014-07-12T10:09:51Z</time>
      </trkpt>
      <trkpt lat="59.8923247" lon="17.7458232">
        <ele>27.5349</ele>
        <time>2014-07-12T10:09:52Z</time>
      </trkpt>
      <trkpt lat="59.8922751" lon="17.7459649">
        <ele>27.0543</ele>
        <time>2014-07-12T10:09:53Z</time>
      </trkpt>
      <trkpt lat="59.8922232" lon="17.7461007">
        <ele>26.5736</ele>
        <time>2014-07-12T10:09:54Z</time>
      </trkpt>
      <trkpt lat="59.8921663" lon="17.746233">
        <ele>26.0929</ele>
        <time>2014-07-12T10:09:55Z</time>
      </trkpt>
      <trkpt lat="59.8921053" lon="17.7463583">
        <ele>26.0929</ele>
        <time>2014-07-12T10:09:56Z</time>
      </trkpt>
      <trkpt lat="59.8920409" lon="17.7464774">
        <ele>25.6123</ele>
        <time>2014-07-12T10:09:57Z</time>
      </trkpt>
      <trkpt lat="59.8919731" lon="17.7465893">
        <ele>25.6123</ele>
        <time>2014-07-12T10:09:58Z</time>
      </trkpt>
      <trkpt lat="59.891904" lon="17.7466935">
        <ele>25.1317</ele>
        <time>2014-07-12T10:09:59Z</time>
      </trkpt>
      <trkpt lat="59.8918348" lon="17.7467932">
        <ele>25.1317</ele>
        <time>2014-07-12T10:10:00Z</time>
      </trkpt>
      <trkpt lat="59.8917659" lon="17.7468915">
        <ele>25.1317</ele>
        <time>2014-07-12T10:10:01Z</time>
      </trkpt>
      <trkpt lat="59.891698" lon="17.7469902">
        <ele>25.1317</ele>
        <time>2014-07-12T10:10:02Z</time>
      </trkpt>
      <trkpt lat="59.8916312" lon="17.7470868">
        <ele>24.651</ele>
        <time>2014-07-12T10:10:03Z</time>
      </trkpt>
      <trkpt lat="59.8915644" lon="17.7471823">
        <ele>24.651</ele>
        <time>2014-07-12T10:10:04Z</time>
      </trkpt>
      <trkpt lat="59.8914973" lon="17.7472773">
        <ele>24.651</ele>
        <time>2014-07-12T10:10:05Z</time>
      </trkpt>
      <trkpt lat="59.8914298" lon="17.747373">
        <ele>24.651</ele>
        <time>2014-07-12T10:10:06Z</time>
      </trkpt>
      <trkpt lat="59.8913617" lon="17.7474693">
        <ele>24.651</ele>
        <time>2014-07-12T10:10:07Z</time>
      </trkpt>
      <trkpt lat="59.8912922" lon="17.7475653">
        <ele>24.651</ele>
        <time>2014-07-12T10:10:08Z</time>
      </trkpt>
      <trkpt lat="59.8912213" lon="17.7476599">
        <ele>24.651</ele>
        <time>2014-07-12T10:10:09Z</time>
      </trkpt>
      <trkpt lat="59.8911485" lon="17.7477524">
        <ele>24.1703</ele>
        <time>2014-07-12T10:10:10Z</time>
      </trkpt>
      <trkpt lat="59.8910744" lon="17.7478443">
        <ele>24.1703</ele>
        <time>2014-07-12T10:10:11Z</time>
      </trkpt>
      <trkpt lat="59.8909997" lon="17.747937">
        <ele>24.1703</ele>
        <time>2014-07-12T10:10:12Z</time>
      </trkpt>
      <trkpt lat="59.890925" lon="17.7480319">
        <ele>24.1703</ele>
        <time>2014-07-12T10:10:13Z</time>
      </trkpt>
      <trkpt lat="59.8908505" lon="17.7481294">
        <ele>24.651</ele>
        <time>2014-07-12T10:10:14Z</time>
      </trkpt>
      <trkpt lat="59.8907781" lon="17.7482307">
        <ele>24.651</ele>
        <time>2014-07-12T10:10:15Z</time>
      </trkpt>
      <trkpt lat="59.8907096" lon="17.7483382">
        <ele>24.651</ele>
        <time>2014-07-12T10:10:16Z</time>
      </trkpt>
      <trkpt lat="59.8906452" lon="17.7484535">
        <ele>24.651</ele>
        <time>2014-07-12T10:10:17Z</time>
      </trkpt>
      <trkpt lat="59.8905853" lon="17.748576">
        <ele>24.651</ele>
        <time>2014-07-12T10:10:18Z</time>
      </trkpt>
      <trkpt lat="59.8905294" lon="17.7487045">
        <ele>25.1317</ele>
        <time>2014-07-12T10:10:19Z</time>
      </trkpt>
      <trkpt lat="59.8904753" lon="17.7488344">
        <ele>25.1317</ele>
        <time>2014-07-12T10:10:20Z</time>
      </trkpt>
      <trkpt lat="59.890421" lon="17.7489612">
        <ele>25.1317</ele>
        <time>2014-07-12T10:10:21Z</time>
      </trkpt>
      <trkpt lat="59.8903663" lon="17.7490854">
        <ele>25.6123</ele>
        <time>2014-07-12T10:10:22Z</time>
      </trkpt>
      <trkpt lat="59.8903118" lon="17.7492079">
        <ele>25.6123</ele>
        <time>2014-07-12T10:10:23Z</time>
      </trkpt>
      <trkpt lat="59.8902575" lon="17.7493271">
        <ele>26.0929</ele>
        <time>2014-07-12T10:10:24Z</time>
      </trkpt>
      <trkpt lat="59.8902046" lon="17.7494436">
        <ele>26.5736</ele>
        <time>2014-07-12T10:10:25Z</time>
      </trkpt>
      <trkpt lat="59.8901528" lon="17.749559">
        <ele>26.5736</ele>
        <time>2014-07-12T10:10:26Z</time>
      </trkpt>
      <trkpt lat="59.8901005" lon="17.7496727">
        <ele>26.5736</ele>
        <time>2014-07-12T10:10:27Z</time>
      </trkpt>
      <trkpt lat="59.8900461" lon="17.7497834">
        <ele>27.0543</ele>
        <time>2014-07-12T10:10:28Z</time>
      </trkpt>
      <trkpt lat="59.8899891" lon="17.7498866">
        <ele>27.0543</ele>
        <time>2014-07-12T10:10:29Z</time>
      </trkpt>
      <trkpt lat="59.889931" lon="17.7499808">
        <ele>27.0543</ele>
        <time>2014-07-12T10:10:30Z</time>
      </trkpt>
      <trkpt lat="59.8898735" lon="17.750071">
        <ele>27.0543</ele>
        <time>2014-07-12T10:10:31Z</time>
      </trkpt>
      <trkpt lat="59.8898162" lon="17.7501605">
        <ele>27.0543</ele>
        <time>2014-07-12T10:10:32Z</time>
      </trkpt>
      <trkpt lat="59.8897596" lon="17.7502504">
        <ele>27.0543</ele>
        <time>2014-07-12T10:10:33Z</time>
      </trkpt>
      <trkpt lat="59.8897037" lon="17.7503433">
        <ele>27.5349</ele>
        <time>2014-07-12T10:10:34Z</time>
      </trkpt>
      <trkpt lat="59.8896502" lon="17.7504404">
        <ele>27.5349</ele>
        <time>2014-07-12T10:10:35Z</time>
      </trkpt>
      <trkpt lat="59.8896006" lon="17.7505454">
        <ele>27.5349</ele>
        <time>2014-07-12T10:10:36Z</time>
      </trkpt>
      <trkpt lat="59.8895569" lon="17.7506587">
        <ele>28.0155</ele>
        <time>2014-07-12T10:10:37Z</time>
      </trkpt>
      <trkpt lat="59.8895193" lon="17.7507822">
        <ele>28.0155</ele>
        <time>2014-07-12T10:10:38Z</time>
      </trkpt>
      <trkpt lat="59.8894896" lon="17.7509116">
        <ele>28.0155</ele>
        <time>2014-07-12T10:10:39Z</time>
      </trkpt>
      <trkpt lat="59.889468" lon="17.7510472">
        <ele>28.0155</ele>
        <time>2014-07-12T10:10:40Z</time>
      </trkpt>
      <trkpt lat="59.8894531" lon="17.7511877">
        <ele>28.0155</ele>
        <time>2014-07-12T10:10:41Z</time>
      </trkpt>
      <trkpt lat="59.8894435" lon="17.7513317">
        <ele>28.0155</ele>
        <time>2014-07-12T10:10:42Z</time>
      </trkpt>
      <trkpt lat="59.8894365" lon="17.7514794">
        <ele>28.0155</ele>
        <time>2014-07-12T10:10:43Z</time>
      </trkpt>
      <trkpt lat="59.8894298" lon="17.7516306">
        <ele>28.0155</ele>
        <time>2014-07-12T10:10:44Z</time>
      </trkpt>
      <trkpt lat="59.8894227" lon="17.7517841">
        <ele>27.5349</ele>
        <time>2014-07-12T10:10:45Z</time>
      </trkpt>
      <trkpt lat="59.8894144" lon="17.7519386">
        <ele>27.5349</ele>
        <time>2014-07-12T10:10:46Z</time>
      </trkpt>
      <trkpt lat="59.8894049" lon="17.7520928">
        <ele>27.5349</ele>
        <time>2014-07-12T10:10:47Z</time>
      </trkpt>
      <trkpt lat="59.8893958" lon="17.7522466">
        <ele>27.0543</ele>
        <time>2014-07-12T10:10:48Z</time>
      </trkpt>
      <trkpt lat="59.8893864" lon="17.7524004">
        <ele>27.0543</ele>
        <time>2014-07-12T10:10:49Z</time>
      </trkpt>
      <trkpt lat="59.8893757" lon="17.7525532">
        <ele>26.5736</ele>
        <time>2014-07-12T10:10:50Z</time>
      </trkpt>
      <trkpt lat="59.8893619" lon="17.7527043">
        <ele>26.5736</ele>
        <time>2014-07-12T10:10:51Z</time>
      </trkpt>
      <trkpt lat="59.8893434" lon="17.7528531">
        <ele>26.5736</ele>
        <time>2014-07-12T10:10:52Z</time>
      </trkpt>
      <trkpt lat="59.8893193" lon="17.7529976">
        <ele>26.5736</ele>
        <time>2014-07-12T10:10:53Z</time>
      </trkpt>
      <trkpt lat="59.8892883" lon="17.7531389">
        <ele>26.5736</ele>
        <time>2014-07-12T10:10:54Z</time>
      </trkpt>
      <trkpt lat="59.8892515" lon="17.7532702">
        <ele>26.5736</ele>
        <time>2014-07-12T10:10:55Z</time>
      </trkpt>
      <trkpt lat="59.8892126" lon="17.7533997">
        <ele>26.5736</ele>
        <time>2014-07-12T10:10:56Z</time>
      </trkpt>
      <trkpt lat="59.8891737" lon="17.7535239">
        <ele>26.5736</ele>
        <time>2014-07-12T10:10:57Z</time>
      </trkpt>
      <trkpt lat="59.8891368" lon="17.7536471">
        <ele>26.0929</ele>
        <time>2014-07-12T10:10:58Z</time>
      </trkpt>
      <trkpt lat="59.8891017" lon="17.7537705">
        <ele>26.5736</ele>
        <time>2014-07-12T10:10:59Z</time>
      </trkpt>
      <trkpt lat="59.8890691" lon="17.7538941">
        <ele>26.5736</ele>
        <time>2014-07-12T10:11:00Z</time>
      </trkpt>
      <trkpt lat="59.8890387" lon="17.7540139">
        <ele>26.5736</ele>
        <time>2014-07-12T10:11:01Z</time>
      </trkpt>
      <trkpt lat="59.8890085" lon="17.7541331">
        <ele>27.0543</ele>
        <time>2014-07-12T10:11:02Z</time>
      </trkpt>
      <trkpt lat="59.888981" lon="17.7542467">
        <ele>27.5349</ele>
        <time>2014-07-12T10:11:03Z</time>
      </trkpt>
      <trkpt lat="59.8889549" lon="17.7543544">
        <ele>28.0155</ele>
        <time>2014-07-12T10:11:04Z</time>
      </trkpt>
      <trkpt lat="59.8889303" lon="17.7544575">
        <ele>28.0155</ele>
        <time>2014-07-12T10:11:05Z</time>
      </trkpt>
      <trkpt lat="59.8889078" lon="17.7545548">
        <ele>28.4962</ele>
        <time>2014-07-12T10:11:06Z</time>
      </trkpt>
      <trkpt lat="59.8888833" lon="17.754646">
        <ele>28.4962</ele>
        <time>2014-07-12T10:11:07Z</time>
      </trkpt>
      <trkpt lat="59.8888547" lon="17.75473">
        <ele>28.9769</ele>
        <time>2014-07-12T10:11:08Z</time>
      </trkpt>
      <trkpt lat="59.8888237" lon="17.7548063">
        <ele>28.9769</ele>
        <time>2014-07-12T10:11:09Z</time>
      </trkpt>
      <trkpt lat="59.8887892" lon="17.7548778">
        <ele>29.4575</ele>
        <time>2014-07-12T10:11:10Z</time>
      </trkpt>
      <trkpt lat="59.8887515" lon="17.7549424">
        <ele>29.4575</ele>
        <time>2014-07-12T10:11:11Z</time>
      </trkpt>
      <trkpt lat="59.8887127" lon="17.7550049">
        <ele>29.4575</ele>
        <time>2014-07-12T10:11:12Z</time>
      </trkpt>
      <trkpt lat="59.8886718" lon="17.7550634">
        <ele>29.9381</ele>
        <time>2014-07-12T10:11:13Z</time>
      </trkpt>
      <trkpt lat="59.8886299" lon="17.7551142">
        <ele>30.4188</ele>
        <time>2014-07-12T10:11:14Z</time>
      </trkpt>
      <trkpt lat="59.8885858" lon="17.7551562">
        <ele>30.4188</ele>
        <time>2014-07-12T10:11:15Z</time>
      </trkpt>
      <trkpt lat="59.888539" lon="17.7551917">
        <ele>30.4188</ele>
        <time>2014-07-12T10:11:16Z</time>
      </trkpt>
      <trkpt lat="59.8884922" lon="17.7552223">
        <ele>30.8995</ele>
        <time>2014-07-12T10:11:17Z</time>
      </trkpt>
      <trkpt lat="59.8884449" lon="17.7552495">
        <ele>31.3801</ele>
        <time>2014-07-12T10:11:18Z</time>
      </trkpt>
      <trkpt lat="59.8883971" lon="17.7552759">
        <ele>31.3801</ele>
        <time>2014-07-12T10:11:19Z</time>
      </trkpt>
      <trkpt lat="59.8883495" lon="17.755298">
        <ele>31.8607</ele>
        <time>2014-07-12T10:11:20Z</time>
      </trkpt>
      <trkpt lat="59.8883019" lon="17.755312">
        <ele>31.8607</ele>
        <time>2014-07-12T10:11:21Z</time>
      </trkpt>
      <trkpt lat="59.8882542" lon="17.7553193">
        <ele>32.3416</ele>
        <time>2014-07-12T10:11:22Z</time>
      </trkpt>
      <trkpt lat="59.8882066" lon="17.7553194">
        <ele>32.8223</ele>
        <time>2014-07-12T10:11:23Z</time>
      </trkpt>
      <trkpt lat="59.8881595" lon="17.7553138">
        <ele>32.8223</ele>
        <time>2014-07-12T10:11:24Z</time>
      </trkpt>
      <trkpt lat="59.8881121" lon="17.7553102">
        <ele>32.8223</ele>
        <time>2014-07-12T10:11:25Z</time>
      </trkpt>
      <trkpt lat="59.8880638" lon="17.7553062">
        <ele>32.8223</ele>
        <time>2014-07-12T10:11:26Z</time>
      </trkpt>
      <trkpt lat="59.888015" lon="17.7553012">
        <ele>32.8223</ele>
        <time>2014-07-12T10:11:27Z</time>
      </trkpt>
      <trkpt lat="59.8879651" lon="17.7552945">
        <ele>32.8223</ele>
        <time>2014-07-12T10:11:28Z</time>
      </trkpt>
      <trkpt lat="59.8879139" lon="17.7552867">
        <ele>33.3029</ele>
        <time>2014-07-12T10:11:29Z</time>
      </trkpt>
      <trkpt lat="59.8878611" lon="17.7552798">
        <ele>33.3029</ele>
        <time>2014-07-12T10:11:30Z</time>
      </trkpt>
      <trkpt lat="59.887807" lon="17.7552743">
        <ele>33.3029</ele>
        <time>2014-07-12T10:11:31Z</time>
      </trkpt>
      <trkpt lat="59.8877522" lon="17.7552703">
        <ele>33.3029</ele>
        <time>2014-07-12T10:11:32Z</time>
      </trkpt>
      <trkpt lat="59.8876963" lon="17.7552742">
        <ele>33.3029</ele>
        <time>2014-07-12T10:11:33Z</time>
      </trkpt>
      <trkpt lat="59.8876418" lon="17.7552841">
        <ele>32.8223</ele>
        <time>2014-07-12T10:11:34Z</time>
      </trkpt>
      <trkpt lat="59.8875886" lon="17.7553016">
        <ele>32.8223</ele>
        <time>2014-07-12T10:11:35Z</time>
      </trkpt>
      <trkpt lat="59.8875357" lon="17.7553266">
        <ele>32.8223</ele>
        <time>2014-07-12T10:11:36Z</time>
      </trkpt>
      <trkpt lat="59.8874841" lon="17.7553594">
        <ele>32.8223</ele>
        <time>2014-07-12T10:11:37Z</time>
      </trkpt>
      <trkpt lat="59.8874348" lon="17.7554002">
        <ele>32.8223</ele>
        <time>2014-07-12T10:11:38Z</time>
      </trkpt>
      <trkpt lat="59.8873865" lon="17.7554463">
        <ele>32.8223</ele>
        <time>2014-07-12T10:11:39Z</time>
      </trkpt>
      <trkpt lat="59.8873394" lon="17.7554961">
        <ele>33.3029</ele>
        <time>2014-07-12T10:11:40Z</time>
      </trkpt>
      <trkpt lat="59.8872953" lon="17.7555514">
        <ele>33.3029</ele>
        <time>2014-07-12T10:11:41Z</time>
      </trkpt>
      <trkpt lat="59.8872553" lon="17.7556087">
        <ele>33.3029</ele>
        <time>2014-07-12T10:11:42Z</time>
      </trkpt>
      <trkpt lat="59.8872183" lon="17.7556696">
        <ele>33.3029</ele>
        <time>2014-07-12T10:11:43Z</time>
      </trkpt>
      <trkpt lat="59.8871816" lon="17.7557374">
        <ele>33.3029</ele>
        <time>2014-07-12T10:11:44Z</time>
      </trkpt>
      <trkpt lat="59.8871421" lon="17.7558115">
        <ele>32.8223</ele>
        <time>2014-07-12T10:11:45Z</time>
      </trkpt>
      <trkpt lat="59.8871022" lon="17.7558871">
        <ele>32.8223</ele>
        <time>2014-07-12T10:11:46Z</time>
      </trkpt>
      <trkpt lat="59.8870629" lon="17.7559612">
        <ele>32.8223</ele>
        <time>2014-07-12T10:11:47Z</time>
      </trkpt>
      <trkpt lat="59.8870225" lon="17.7560309">
        <ele>32.8223</ele>
        <time>2014-07-12T10:11:48Z</time>
      </trkpt>
      <trkpt lat="59.8869806" lon="17.7560937">
        <ele>32.8223</ele>
        <time>2014-07-12T10:11:49Z</time>
      </trkpt>
      <trkpt lat="59.8869374" lon="17.7561508">
        <ele>32.3416</ele>
        <time>2014-07-12T10:11:50Z</time>
      </trkpt>
      <trkpt lat="59.8868949" lon="17.7562042">
        <ele>31.8607</ele>
        <time>2014-07-12T10:11:51Z</time>
      </trkpt>
      <trkpt lat="59.8868525" lon="17.7562519">
        <ele>31.8607</ele>
        <time>2014-07-12T10:11:52Z</time>
      </trkpt>
      <trkpt lat="59.8868074" lon="17.7562964">
        <ele>31.8607</ele>
        <time>2014-07-12T10:11:53Z</time>
      </trkpt>
      <trkpt lat="59.8867593" lon="17.7563405">
        <ele>31.3801</ele>
        <time>2014-07-12T10:11:54Z</time>
      </trkpt>
      <trkpt lat="59.8867096" lon="17.7563835">
        <ele>30.8995</ele>
        <time>2014-07-12T10:11:55Z</time>
      </trkpt>
      <trkpt lat="59.8866572" lon="17.7564298">
        <ele>29.9381</ele>
        <time>2014-07-12T10:11:56Z</time>
      </trkpt>
      <trkpt lat="59.8866039" lon="17.7564751">
        <ele>29.4575</ele>
        <time>2014-07-12T10:11:57Z</time>
      </trkpt>
      <trkpt lat="59.8865495" lon="17.7565206">
        <ele>28.9769</ele>
        <time>2014-07-12T10:11:58Z</time>
      </trkpt>
      <trkpt lat="59.8864932" lon="17.7565755">
        <ele>28.4962</ele>
        <time>2014-07-12T10:11:59Z</time>
      </trkpt>
      <trkpt lat="59.886436" lon="17.7566212">
        <ele>27.5349</ele>
        <time>2014-07-12T10:12:00Z</time>
      </trkpt>
      <trkpt lat="59.8863707" lon="17.7566751">
        <ele>27.0543</ele>
        <time>2014-07-12T10:12:01Z</time>
      </trkpt>
      <trkpt lat="59.8862986" lon="17.7567396">
        <ele>27.0543</ele>
        <time>2014-07-12T10:12:02Z</time>
      </trkpt>
      <trkpt lat="59.8862232" lon="17.7568076">
        <ele>26.5736</ele>
        <time>2014-07-12T10:12:03Z</time>
      </trkpt>
      <trkpt lat="59.8861465" lon="17.7568825">
        <ele>26.0929</ele>
        <time>2014-07-12T10:12:04Z</time>
      </trkpt>
      <trkpt lat="59.8860704" lon="17.7569628">
        <ele>25.6123</ele>
        <time>2014-07-12T10:12:05Z</time>
      </trkpt>
      <trkpt lat="59.8859955" lon="17.7570525">
        <ele>25.1317</ele>
        <time>2014-07-12T10:12:06Z</time>
      </trkpt>
      <trkpt lat="59.8859246" lon="17.7571541">
        <ele>25.1317</ele>
        <time>2014-07-12T10:12:07Z</time>
      </trkpt>
      <trkpt lat="59.885859" lon="17.7572659">
        <ele>25.1317</ele>
        <time>2014-07-12T10:12:08Z</time>
      </trkpt>
      <trkpt lat="59.8857997" lon="17.7573861">
        <ele>25.1317</ele>
        <time>2014-07-12T10:12:09Z</time>
      </trkpt>
      <trkpt lat="59.8857456" lon="17.7575169">
        <ele>25.1317</ele>
        <time>2014-07-12T10:12:10Z</time>
      </trkpt>
      <trkpt lat="59.8856965" lon="17.7576541">
        <ele>25.1317</ele>
        <time>2014-07-12T10:12:11Z</time>
      </trkpt>
      <trkpt lat="59.8856521" lon="17.7577991">
        <ele>24.651</ele>
        <time>2014-07-12T10:12:12Z</time>
      </trkpt>
      <trkpt lat="59.885611" lon="17.7579556">
        <ele>24.651</ele>
        <time>2014-07-12T10:12:13Z</time>
      </trkpt>
      <trkpt lat="59.8855757" lon="17.7581218">
        <ele>24.651</ele>
        <time>2014-07-12T10:12:14Z</time>
      </trkpt>
      <trkpt lat="59.8855466" lon="17.7582962">
        <ele>25.1317</ele>
        <time>2014-07-12T10:12:15Z</time>
      </trkpt>
      <trkpt lat="59.8855237" lon="17.7584725">
        <ele>25.6123</ele>
        <time>2014-07-12T10:12:16Z</time>
      </trkpt>
      <trkpt lat="59.8855052" lon="17.7586458">
        <ele>26.0929</ele>
        <time>2014-07-12T10:12:17Z</time>
      </trkpt>
      <trkpt lat="59.8854885" lon="17.7588149">
        <ele>26.5736</ele>
        <time>2014-07-12T10:12:18Z</time>
      </trkpt>
      <trkpt lat="59.8854735" lon="17.7589794">
        <ele>26.5736</ele>
        <time>2014-07-12T10:12:19Z</time>
      </trkpt>
      <trkpt lat="59.8854581" lon="17.7591402">
        <ele>27.0543</ele>
        <time>2014-07-12T10:12:20Z</time>
      </trkpt>
      <trkpt lat="59.8854431" lon="17.7592993">
        <ele>27.5349</ele>
        <time>2014-07-12T10:12:21Z</time>
      </trkpt>
      <trkpt lat="59.885428" lon="17.7594553">
        <ele>27.5349</ele>
        <time>2014-07-12T10:12:22Z</time>
      </trkpt>
      <trkpt lat="59.885413" lon="17.7596102">
        <ele>28.0155</ele>
        <time>2014-07-12T10:12:23Z</time>
      </trkpt>
      <trkpt lat="59.8853986" lon="17.759765">
        <ele>28.0155</ele>
        <time>2014-07-12T10:12:24Z</time>
      </trkpt>
      <trkpt lat="59.8853855" lon="17.7599187">
        <ele>28.4962</ele>
        <time>2014-07-12T10:12:25Z</time>
      </trkpt>
      <trkpt lat="59.8853715" lon="17.7600704">
        <ele>28.9769</ele>
        <time>2014-07-12T10:12:26Z</time>
      </trkpt>
      <trkpt lat="59.8853566" lon="17.7602188">
        <ele>29.4575</ele>
        <time>2014-07-12T10:12:27Z</time>
      </trkpt>
      <trkpt lat="59.8853413" lon="17.7603631">
        <ele>29.4575</ele>
        <time>2014-07-12T10:12:28Z</time>
      </trkpt>
      <trkpt lat="59.8853259" lon="17.7605057">
        <ele>29.9381</ele>
        <time>2014-07-12T10:12:29Z</time>
      </trkpt>
      <trkpt lat="59.8853116" lon="17.7606467">
        <ele>30.4188</ele>
        <time>2014-07-12T10:12:30Z</time>
      </trkpt>
      <trkpt lat="59.885297" lon="17.7607849">
        <ele>30.4188</ele>
        <time>2014-07-12T10:12:31Z</time>
      </trkpt>
      <trkpt lat="59.8852805" lon="17.7609196">
        <ele>30.4188</ele>
        <time>2014-07-12T10:12:32Z</time>
      </trkpt>
      <trkpt lat="59.8852596" lon="17.7610475">
        <ele>30.4188</ele>
        <time>2014-07-12T10:12:33Z</time>
      </trkpt>
      <trkpt lat="59.8852379" lon="17.7611714">
        <ele>30.8995</ele>
        <time>2014-07-12T10:12:34Z</time>
      </trkpt>
      <trkpt lat="59.8852187" lon="17.7612982">
        <ele>30.8995</ele>
        <time>2014-07-12T10:12:35Z</time>
      </trkpt>
      <trkpt lat="59.8852001" lon="17.7614219">
        <ele>30.8995</ele>
        <time>2014-07-12T10:12:36Z</time>
      </trkpt>
      <trkpt lat="59.8851809" lon="17.7615448">
        <ele>31.3801</ele>
        <time>2014-07-12T10:12:37Z</time>
      </trkpt>
      <trkpt lat="59.8851642" lon="17.7616636">
        <ele>31.8607</ele>
        <time>2014-07-12T10:12:38Z</time>
      </trkpt>
      <trkpt lat="59.8851462" lon="17.7617758">
        <ele>32.3416</ele>
        <time>2014-07-12T10:12:39Z</time>
      </trkpt>
      <trkpt lat="59.8851285" lon="17.7618877">
        <ele>31.8607</ele>
        <time>2014-07-12T10:12:40Z</time>
      </trkpt>
      <trkpt lat="59.88511" lon="17.7620037">
        <ele>31.8607</ele>
        <time>2014-07-12T10:12:41Z</time>
      </trkpt>
      <trkpt lat="59.8850906" lon="17.7621171">
        <ele>31.8607</ele>
        <time>2014-07-12T10:12:42Z</time>
      </trkpt>
      <trkpt lat="59.8850731" lon="17.7622327">
        <ele>31.8607</ele>
        <time>2014-07-12T10:12:43Z</time>
      </trkpt>
      <trkpt lat="59.8850583" lon="17.7623524">
        <ele>31.3801</ele>
        <time>2014-07-12T10:12:44Z</time>
      </trkpt>
      <trkpt lat="59.8850429" lon="17.7624691">
        <ele>30.8995</ele>
        <time>2014-07-12T10:12:45Z</time>
      </trkpt>
      <trkpt lat="59.8850277" lon="17.7625802">
        <ele>30.8995</ele>
        <time>2014-07-12T10:12:46Z</time>
      </trkpt>
      <trkpt lat="59.8850122" lon="17.7626939">
        <ele>30.4188</ele>
        <time>2014-07-12T10:12:47Z</time>
      </trkpt>
      <trkpt lat="59.884997" lon="17.7628042">
        <ele>30.4188</ele>
        <time>2014-07-12T10:12:48Z</time>
      </trkpt>
      <trkpt lat="59.8849808" lon="17.7629161">
        <ele>30.4188</ele>
        <time>2014-07-12T10:12:49Z</time>
      </trkpt>
      <trkpt lat="59.8849638" lon="17.7630309">
        <ele>30.4188</ele>
        <time>2014-07-12T10:12:50Z</time>
      </trkpt>
      <trkpt lat="59.8849499" lon="17.7631709">
        <ele>30.8995</ele>
        <time>2014-07-12T10:12:51Z</time>
      </trkpt>
      <trkpt lat="59.884925" lon="17.7632998">
        <ele>30.8995</ele>
        <time>2014-07-12T10:12:52Z</time>
      </trkpt>
      <trkpt lat="59.8848986" lon="17.7634322">
        <ele>30.4188</ele>
        <time>2014-07-12T10:12:53Z</time>
      </trkpt>
      <trkpt lat="59.8848735" lon="17.7635469">
        <ele>30.4188</ele>
        <time>2014-07-12T10:12:54Z</time>
      </trkpt>
      <trkpt lat="59.8848537" lon="17.7636602">
        <ele>30.8995</ele>
        <time>2014-07-12T10:12:55Z</time>
      </trkpt>
      <trkpt lat="59.8848282" lon="17.7637707">
        <ele>31.3801</ele>
        <time>2014-07-12T10:12:56Z</time>
      </trkpt>
      <trkpt lat="59.8848039" lon="17.7638774">
        <ele>31.8607</ele>
        <time>2014-07-12T10:12:57Z</time>
      </trkpt>
      <trkpt lat="59.8847805" lon="17.7639822">
        <ele>32.3416</ele>
        <time>2014-07-12T10:12:58Z</time>
      </trkpt>
      <trkpt lat="59.8847593" lon="17.7640872">
        <ele>32.8223</ele>
        <time>2014-07-12T10:12:59Z</time>
      </trkpt>
      <trkpt lat="59.8847422" lon="17.7641923">
        <ele>33.3029</ele>
        <time>2014-07-12T10:13:00Z</time>
      </trkpt>
      <trkpt lat="59.8847287" lon="17.7642992">
        <ele>33.7834</ele>
        <time>2014-07-12T10:13:01Z</time>
      </trkpt>
      <trkpt lat="59.8847166" lon="17.7644088">
        <ele>34.2642</ele>
        <time>2014-07-12T10:13:02Z</time>
      </trkpt>
      <trkpt lat="59.8847054" lon="17.7645118">
        <ele>34.2642</ele>
        <time>2014-07-12T10:13:03Z</time>
      </trkpt>
      <trkpt lat="59.8846966" lon="17.7646128">
        <ele>34.7449</ele>
        <time>2014-07-12T10:13:04Z</time>
      </trkpt>
      <trkpt lat="59.8846924" lon="17.7647207">
        <ele>35.2255</ele>
        <time>2014-07-12T10:13:05Z</time>
      </trkpt>
      <trkpt lat="59.8846887" lon="17.7648311">
        <ele>35.2255</ele>
        <time>2014-07-12T10:13:06Z</time>
      </trkpt>
      <trkpt lat="59.8846873" lon="17.7649425">
        <ele>35.7061</ele>
        <time>2014-07-12T10:13:07Z</time>
      </trkpt>
      <trkpt lat="59.8846867" lon="17.7650541">
        <ele>35.7061</ele>
        <time>2014-07-12T10:13:08Z</time>
      </trkpt>
      <trkpt lat="59.8846871" lon="17.7651684">
        <ele>36.1868</ele>
        <time>2014-07-12T10:13:09Z</time>
      </trkpt>
      <trkpt lat="59.8846857" lon="17.7652891">
        <ele>36.6675</ele>
        <time>2014-07-12T10:13:10Z</time>
      </trkpt>
      <trkpt lat="59.8846836" lon="17.7654144">
        <ele>36.6675</ele>
        <time>2014-07-12T10:13:11Z</time>
      </trkpt>
      <trkpt lat="59.8846804" lon="17.7655423">
        <ele>36.6675</ele>
        <time>2014-07-12T10:13:12Z</time>
      </trkpt>
      <trkpt lat="59.8846762" lon="17.7656735">
        <ele>36.6675</ele>
        <time>2014-07-12T10:13:13Z</time>
      </trkpt>
      <trkpt lat="59.8846708" lon="17.7658086">
        <ele>36.6675</ele>
        <time>2014-07-12T10:13:14Z</time>
      </trkpt>
      <trkpt lat="59.8846651" lon="17.7659458">
        <ele>36.6675</ele>
        <time>2014-07-12T10:13:15Z</time>
      </trkpt>
      <trkpt lat="59.8846602" lon="17.7660852">
        <ele>36.6675</ele>
        <time>2014-07-12T10:13:16Z</time>
      </trkpt>
      <trkpt lat="59.8846551" lon="17.7662243">
        <ele>36.1868</ele>
        <time>2014-07-12T10:13:17Z</time>
      </trkpt>
      <trkpt lat="59.8846494" lon="17.7663608">
        <ele>36.1868</ele>
        <time>2014-07-12T10:13:18Z</time>
      </trkpt>
      <trkpt lat="59.8846417" lon="17.766495">
        <ele>36.1868</ele>
        <time>2014-07-12T10:13:19Z</time>
      </trkpt>
      <trkpt lat="59.8846353" lon="17.7666282">
        <ele>36.1868</ele>
        <time>2014-07-12T10:13:20Z</time>
      </trkpt>
      <trkpt lat="59.8846306" lon="17.7667591">
        <ele>36.1868</ele>
        <time>2014-07-12T10:13:21Z</time>
      </trkpt>
      <trkpt lat="59.884629" lon="17.7668846">
        <ele>36.1868</ele>
        <time>2014-07-12T10:13:22Z</time>
      </trkpt>
      <trkpt lat="59.8846322" lon="17.7670076">
        <ele>36.6675</ele>
        <time>2014-07-12T10:13:23Z</time>
      </trkpt>
      <trkpt lat="59.8846365" lon="17.7671293">
        <ele>36.6675</ele>
        <time>2014-07-12T10:13:24Z</time>
      </trkpt>
      <trkpt lat="59.8846427" lon="17.7672455">
        <ele>36.6675</ele>
        <time>2014-07-12T10:13:25Z</time>
      </trkpt>
      <trkpt lat="59.8846544" lon="17.7673565">
        <ele>36.6675</ele>
        <time>2014-07-12T10:13:26Z</time>
      </trkpt>
      <trkpt lat="59.8846697" lon="17.7674616">
        <ele>36.6675</ele>
        <time>2014-07-12T10:13:27Z</time>
      </trkpt>
      <trkpt lat="59.8846852" lon="17.7675647">
        <ele>36.6675</ele>
        <time>2014-07-12T10:13:28Z</time>
      </trkpt>
      <trkpt lat="59.8846966" lon="17.767675">
        <ele>36.1868</ele>
        <time>2014-07-12T10:13:29Z</time>
      </trkpt>
      <trkpt lat="59.8846926" lon="17.7678056">
        <ele>36.1868</ele>
        <time>2014-07-12T10:13:30Z</time>
      </trkpt>
      <trkpt lat="59.8846712" lon="17.7679324">
        <ele>35.7061</ele>
        <time>2014-07-12T10:13:31Z</time>
      </trkpt>
      <trkpt lat="59.8846385" lon="17.7680539">
        <ele>34.7449</ele>
        <time>2014-07-12T10:13:32Z</time>
      </trkpt>
      <trkpt lat="59.8846017" lon="17.7681727">
        <ele>34.7449</ele>
        <time>2014-07-12T10:13:33Z</time>
      </trkpt>
      <trkpt lat="59.8845598" lon="17.7682798">
        <ele>34.7449</ele>
        <time>2014-07-12T10:13:34Z</time>
      </trkpt>
      <trkpt lat="59.8845277" lon="17.7684125">
        <ele>34.2642</ele>
        <time>2014-07-12T10:13:35Z</time>
      </trkpt>
      <trkpt lat="59.8845116" lon="17.7685395">
        <ele>34.2642</ele>
        <time>2014-07-12T10:13:36Z</time>
      </trkpt>
      <trkpt lat="59.8845087" lon="17.7686565">
        <ele>34.2642</ele>
        <time>2014-07-12T10:13:37Z</time>
      </trkpt>
      <trkpt lat="59.8845115" lon="17.7688031">
        <ele>33.7834</ele>
        <time>2014-07-12T10:13:38Z</time>
      </trkpt>
      <trkpt lat="59.8845182" lon="17.7689507">
        <ele>33.3029</ele>
        <time>2014-07-12T10:13:39Z</time>
      </trkpt>
      <trkpt lat="59.8845386" lon="17.7690933">
        <ele>33.3029</ele>
        <time>2014-07-12T10:13:40Z</time>
      </trkpt>
      <trkpt lat="59.88457" lon="17.769215">
        <ele>32.3416</ele>
        <time>2014-07-12T10:13:41Z</time>
      </trkpt>
      <trkpt lat="59.8846127" lon="17.7693177">
        <ele>31.8607</ele>
        <time>2014-07-12T10:13:42Z</time>
      </trkpt>
      <trkpt lat="59.8846604" lon="17.7694181">
        <ele>30.8995</ele>
        <time>2014-07-12T10:13:43Z</time>
      </trkpt>
      <trkpt lat="59.8847102" lon="17.7695206">
        <ele>30.4188</ele>
        <time>2014-07-12T10:13:44Z</time>
      </trkpt>
      <trkpt lat="59.884763" lon="17.7696249">
        <ele>30.8995</ele>
        <time>2014-07-12T10:13:45Z</time>
      </trkpt>
      <trkpt lat="59.8848145" lon="17.7697308">
        <ele>30.8995</ele>
        <time>2014-07-12T10:13:46Z</time>
      </trkpt>
      <trkpt lat="59.884865" lon="17.769836">
        <ele>30.8995</ele>
        <time>2014-07-12T10:13:47Z</time>
      </trkpt>
      <trkpt lat="59.8849147" lon="17.7699416">
        <ele>30.8995</ele>
        <time>2014-07-12T10:13:48Z</time>
      </trkpt>
      <trkpt lat="59.8849637" lon="17.7700446">
        <ele>30.8995</ele>
        <time>2014-07-12T10:13:49Z</time>
      </trkpt>
      <trkpt lat="59.8850126" lon="17.7701479">
        <ele>30.8995</ele>
        <time>2014-07-12T10:13:50Z</time>
      </trkpt>
      <trkpt lat="59.8850613" lon="17.7702489">
        <ele>30.4188</ele>
        <time>2014-07-12T10:13:51Z</time>
      </trkpt>
      <trkpt lat="59.8851123" lon="17.7703463">
        <ele>30.4188</ele>
        <time>2014-07-12T10:13:52Z</time>
      </trkpt>
      <trkpt lat="59.8851664" lon="17.7704385">
        <ele>30.4188</ele>
        <time>2014-07-12T10:13:53Z</time>
      </trkpt>
      <trkpt lat="59.8852211" lon="17.7705265">
        <ele>30.4188</ele>
        <time>2014-07-12T10:13:54Z</time>
      </trkpt>
      <trkpt lat="59.8852768" lon="17.7706146">
        <ele>30.4188</ele>
        <time>2014-07-12T10:13:55Z</time>
      </trkpt>
      <trkpt lat="59.8853331" lon="17.7706999">
        <ele>30.4188</ele>
        <time>2014-07-12T10:13:56Z</time>
      </trkpt>
      <trkpt lat="59.8853867" lon="17.7707814">
        <ele>30.4188</ele>
        <time>2014-07-12T10:13:57Z</time>
      </trkpt>
      <trkpt lat="59.8854398" lon="17.7708629">
        <ele>29.9381</ele>
        <time>2014-07-12T10:13:58Z</time>
      </trkpt>
      <trkpt lat="59.8854907" lon="17.7709461">
        <ele>29.9381</ele>
        <time>2014-07-12T10:13:59Z</time>
      </trkpt>
      <trkpt lat="59.8855411" lon="17.7710331">
        <ele>29.9381</ele>
        <time>2014-07-12T10:14:00Z</time>
      </trkpt>
      <trkpt lat="59.8855895" lon="17.7711306">
        <ele>29.9381</ele>
        <time>2014-07-12T10:14:01Z</time>
      </trkpt>
      <trkpt lat="59.8856315" lon="17.7712409">
        <ele>29.9381</ele>
        <time>2014-07-12T10:14:02Z</time>
      </trkpt>
      <trkpt lat="59.8856653" lon="17.7713661">
        <ele>29.9381</ele>
        <time>2014-07-12T10:14:03Z</time>
      </trkpt>
      <trkpt lat="59.8856928" lon="17.7714984">
        <ele>29.4575</ele>
        <time>2014-07-12T10:14:04Z</time>
      </trkpt>
      <trkpt lat="59.8857149" lon="17.7716341">
        <ele>29.9381</ele>
        <time>2014-07-12T10:14:05Z</time>
      </trkpt>
      <trkpt lat="59.8857299" lon="17.7717738">
        <ele>29.9381</ele>
        <time>2014-07-12T10:14:06Z</time>
      </trkpt>
      <trkpt lat="59.8857379" lon="17.7719163">
        <ele>29.9381</ele>
        <time>2014-07-12T10:14:07Z</time>
      </trkpt>
      <trkpt lat="59.8857429" lon="17.7720604">
        <ele>29.9381</ele>
        <time>2014-07-12T10:14:08Z</time>
      </trkpt>
      <trkpt lat="59.8857435" lon="17.772206">
        <ele>29.9381</ele>
        <time>2014-07-12T10:14:09Z</time>
      </trkpt>
      <trkpt lat="59.8857373" lon="17.7723516">
        <ele>29.4575</ele>
        <time>2014-07-12T10:14:10Z</time>
      </trkpt>
      <trkpt lat="59.8857187" lon="17.7724956">
        <ele>29.4575</ele>
        <time>2014-07-12T10:14:11Z</time>
      </trkpt>
      <trkpt lat="59.8856848" lon="17.7726322">
        <ele>29.4575</ele>
        <time>2014-07-12T10:14:12Z</time>
      </trkpt>
      <trkpt lat="59.8856404" lon="17.7727614">
        <ele>29.4575</ele>
        <time>2014-07-12T10:14:13Z</time>
      </trkpt>
      <trkpt lat="59.8855892" lon="17.7728851">
        <ele>29.4575</ele>
        <time>2014-07-12T10:14:14Z</time>
      </trkpt>
      <trkpt lat="59.8855302" lon="17.7729991">
        <ele>29.4575</ele>
        <time>2014-07-12T10:14:15Z</time>
      </trkpt>
      <trkpt lat="59.8854665" lon="17.7731038">
        <ele>29.4575</ele>
        <time>2014-07-12T10:14:16Z</time>
      </trkpt>
      <trkpt lat="59.8853937" lon="17.7732063">
        <ele>29.9381</ele>
        <time>2014-07-12T10:14:17Z</time>
      </trkpt>
      <trkpt lat="59.8853227" lon="17.7733109">
        <ele>29.9381</ele>
        <time>2014-07-12T10:14:18Z</time>
      </trkpt>
      <trkpt lat="59.8852622" lon="17.7734135">
        <ele>30.4188</ele>
        <time>2014-07-12T10:14:19Z</time>
      </trkpt>
      <trkpt lat="59.8852038" lon="17.77353">
        <ele>29.9381</ele>
        <time>2014-07-12T10:14:20Z</time>
      </trkpt>
      <trkpt lat="59.8851499" lon="17.7736616">
        <ele>29.9381</ele>
        <time>2014-07-12T10:14:21Z</time>
      </trkpt>
      <trkpt lat="59.8851062" lon="17.7737869">
        <ele>29.9381</ele>
        <time>2014-07-12T10:14:22Z</time>
      </trkpt>
      <trkpt lat="59.8850689" lon="17.7739188">
        <ele>29.9381</ele>
        <time>2014-07-12T10:14:23Z</time>
      </trkpt>
      <trkpt lat="59.8850292" lon="17.7740571">
        <ele>29.9381</ele>
        <time>2014-07-12T10:14:24Z</time>
      </trkpt>
      <trkpt lat="59.8849924" lon="17.774192">
        <ele>29.9381</ele>
        <time>2014-07-12T10:14:25Z</time>
      </trkpt>
      <trkpt lat="59.8849556" lon="17.7743272">
        <ele>30.4188</ele>
        <time>2014-07-12T10:14:26Z</time>
      </trkpt>
      <trkpt lat="59.8849173" lon="17.7744608">
        <ele>30.4188</ele>
        <time>2014-07-12T10:14:27Z</time>
      </trkpt>
      <trkpt lat="59.8848784" lon="17.77459">
        <ele>30.4188</ele>
        <time>2014-07-12T10:14:28Z</time>
      </trkpt>
      <trkpt lat="59.8848373" lon="17.7747177">
        <ele>29.9381</ele>
        <time>2014-07-12T10:14:29Z</time>
      </trkpt>
      <trkpt lat="59.8847922" lon="17.774844">
        <ele>29.9381</ele>
        <time>2014-07-12T10:14:30Z</time>
      </trkpt>
      <trkpt lat="59.8847442" lon="17.7749679">
        <ele>29.9381</ele>
        <time>2014-07-12T10:14:31Z</time>
      </trkpt>
      <trkpt lat="59.8846965" lon="17.7750888">
        <ele>29.9381</ele>
        <time>2014-07-12T10:14:32Z</time>
      </trkpt>
      <trkpt lat="59.88465" lon="17.7752085">
        <ele>29.9381</ele>
        <time>2014-07-12T10:14:33Z</time>
      </trkpt>
      <trkpt lat="59.8846042" lon="17.7753281">
        <ele>30.4188</ele>
        <time>2014-07-12T10:14:34Z</time>
      </trkpt>
      <trkpt lat="59.8845581" lon="17.7754487">
        <ele>29.9381</ele>
        <time>2014-07-12T10:14:35Z</time>
      </trkpt>
      <trkpt lat="59.8845132" lon="17.7755715">
        <ele>29.9381</ele>
        <time>2014-07-12T10:14:36Z</time>
      </trkpt>
      <trkpt lat="59.8844692" lon="17.7756953">
        <ele>29.9381</ele>
        <time>2014-07-12T10:14:37Z</time>
      </trkpt>
      <trkpt lat="59.8844249" lon="17.7758191">
        <ele>29.9381</ele>
        <time>2014-07-12T10:14:38Z</time>
      </trkpt>
      <trkpt lat="59.8843823" lon="17.7759441">
        <ele>29.9381</ele>
        <time>2014-07-12T10:14:39Z</time>
      </trkpt>
      <trkpt lat="59.8843413" lon="17.7760701">
        <ele>29.9381</ele>
        <time>2014-07-12T10:14:40Z</time>
      </trkpt>
      <trkpt lat="59.8843019" lon="17.7761958">
        <ele>29.9381</ele>
        <time>2014-07-12T10:14:41Z</time>
      </trkpt>
      <trkpt lat="59.8842642" lon="17.7763236">
        <ele>29.9381</ele>
        <time>2014-07-12T10:14:42Z</time>
      </trkpt>
      <trkpt lat="59.8842269" lon="17.776453">
        <ele>29.9381</ele>
        <time>2014-07-12T10:14:43Z</time>
      </trkpt>
      <trkpt lat="59.8841895" lon="17.7765837">
        <ele>29.9381</ele>
        <time>2014-07-12T10:14:44Z</time>
      </trkpt>
      <trkpt lat="59.8841516" lon="17.7767159">
        <ele>30.4188</ele>
        <time>2014-07-12T10:14:45Z</time>
      </trkpt>
      <trkpt lat="59.8841118" lon="17.7768475">
        <ele>30.4188</ele>
        <time>2014-07-12T10:14:46Z</time>
      </trkpt>
      <trkpt lat="59.8840693" lon="17.7769768">
        <ele>30.4188</ele>
        <time>2014-07-12T10:14:47Z</time>
      </trkpt>
      <trkpt lat="59.8840241" lon="17.7771015">
        <ele>30.4188</ele>
        <time>2014-07-12T10:14:48Z</time>
      </trkpt>
      <trkpt lat="59.8839736" lon="17.7772151">
        <ele>30.8995</ele>
        <time>2014-07-12T10:14:49Z</time>
      </trkpt>
      <trkpt lat="59.8839196" lon="17.7773171">
        <ele>30.8995</ele>
        <time>2014-07-12T10:14:50Z</time>
      </trkpt>
      <trkpt lat="59.8838626" lon="17.7774078">
        <ele>30.8995</ele>
        <time>2014-07-12T10:14:51Z</time>
      </trkpt>
      <trkpt lat="59.883802" lon="17.7774884">
        <ele>30.8995</ele>
        <time>2014-07-12T10:14:52Z</time>
      </trkpt>
      <trkpt lat="59.8837388" lon="17.7775617">
        <ele>30.8995</ele>
        <time>2014-07-12T10:14:53Z</time>
      </trkpt>
      <trkpt lat="59.8836729" lon="17.7776305">
        <ele>30.4188</ele>
        <time>2014-07-12T10:14:54Z</time>
      </trkpt>
      <trkpt lat="59.8836036" lon="17.7776903">
        <ele>30.4188</ele>
        <time>2014-07-12T10:14:55Z</time>
      </trkpt>
      <trkpt lat="59.8835307" lon="17.7777373">
        <ele>30.4188</ele>
        <time>2014-07-12T10:14:56Z</time>
      </trkpt>
      <trkpt lat="59.8834561" lon="17.777771">
        <ele>30.4188</ele>
        <time>2014-07-12T10:14:57Z</time>
      </trkpt>
      <trkpt lat="59.8833808" lon="17.7777953">
        <ele>30.4188</ele>
        <time>2014-07-12T10:14:58Z</time>
      </trkpt>
      <trkpt lat="59.8833051" lon="17.7778141">
        <ele>30.4188</ele>
        <time>2014-07-12T10:14:59Z</time>
      </trkpt>
      <trkpt lat="59.8832301" lon="17.777833">
        <ele>30.4188</ele>
        <time>2014-07-12T10:15:00Z</time>
      </trkpt>
      <trkpt lat="59.883156" lon="17.7778585">
        <ele>30.4188</ele>
        <time>2014-07-12T10:15:01Z</time>
      </trkpt>
      <trkpt lat="59.8830851" lon="17.7778944">
        <ele>30.4188</ele>
        <time>2014-07-12T10:15:02Z</time>
      </trkpt>
      <trkpt lat="59.883016" lon="17.7779462">
        <ele>30.4188</ele>
        <time>2014-07-12T10:15:03Z</time>
      </trkpt>
      <trkpt lat="59.8829526" lon="17.7780225">
        <ele>30.4188</ele>
        <time>2014-07-12T10:15:04Z</time>
      </trkpt>
      <trkpt lat="59.8829042" lon="17.7781261">
        <ele>29.9381</ele>
        <time>2014-07-12T10:15:05Z</time>
      </trkpt>
      <trkpt lat="59.8828719" lon="17.7782527">
        <ele>29.9381</ele>
        <time>2014-07-12T10:15:06Z</time>
      </trkpt>
      <trkpt lat="59.8828632" lon="17.7784175">
        <ele>30.4188</ele>
        <time>2014-07-12T10:15:07Z</time>
      </trkpt>
      <trkpt lat="59.8828603" lon="17.7785599">
        <ele>30.4188</ele>
        <time>2014-07-12T10:15:08Z</time>
      </trkpt>
      <trkpt lat="59.8828642" lon="17.7787018">
        <ele>30.4188</ele>
        <time>2014-07-12T10:15:09Z</time>
      </trkpt>
      <trkpt lat="59.8828749" lon="17.7788432">
        <ele>30.8995</ele>
        <time>2014-07-12T10:15:10Z</time>
      </trkpt>
      <trkpt lat="59.8828908" lon="17.7789796">
        <ele>30.8995</ele>
        <time>2014-07-12T10:15:11Z</time>
      </trkpt>
      <trkpt lat="59.8829121" lon="17.779108">
        <ele>30.8995</ele>
        <time>2014-07-12T10:15:12Z</time>
      </trkpt>
      <trkpt lat="59.8829385" lon="17.779229">
        <ele>30.8995</ele>
        <time>2014-07-12T10:15:13Z</time>
      </trkpt>
      <trkpt lat="59.8829688" lon="17.7793422">
        <ele>31.3801</ele>
        <time>2014-07-12T10:15:14Z</time>
      </trkpt>
      <trkpt lat="59.883003" lon="17.7794491">
        <ele>31.8607</ele>
        <time>2014-07-12T10:15:15Z</time>
      </trkpt>
      <trkpt lat="59.8830399" lon="17.7795503">
        <ele>31.8607</ele>
        <time>2014-07-12T10:15:16Z</time>
      </trkpt>
      <trkpt lat="59.8830773" lon="17.7796471">
        <ele>31.8607</ele>
        <time>2014-07-12T10:15:17Z</time>
      </trkpt>
      <trkpt lat="59.8831177" lon="17.779741">
        <ele>31.8607</ele>
        <time>2014-07-12T10:15:18Z</time>
      </trkpt>
      <trkpt lat="59.8831612" lon="17.7798311">
        <ele>31.8607</ele>
        <time>2014-07-12T10:15:19Z</time>
      </trkpt>
      <trkpt lat="59.8832063" lon="17.7799233">
        <ele>31.8607</ele>
        <time>2014-07-12T10:15:20Z</time>
      </trkpt>
      <trkpt lat="59.8832485" lon="17.780026">
        <ele>32.3416</ele>
        <time>2014-07-12T10:15:21Z</time>
      </trkpt>
      <trkpt lat="59.8832838" lon="17.7801414">
        <ele>32.3416</ele>
        <time>2014-07-12T10:15:22Z</time>
      </trkpt>
      <trkpt lat="59.8833072" lon="17.7802679">
        <ele>32.8223</ele>
        <time>2014-07-12T10:15:23Z</time>
      </trkpt>
      <trkpt lat="59.8833196" lon="17.7804029">
        <ele>32.8223</ele>
        <time>2014-07-12T10:15:24Z</time>
      </trkpt>
      <trkpt lat="59.8833218" lon="17.78054">
        <ele>32.8223</ele>
        <time>2014-07-12T10:15:25Z</time>
      </trkpt>
      <trkpt lat="59.8833162" lon="17.7806722">
        <ele>32.8223</ele>
        <time>2014-07-12T10:15:26Z</time>
      </trkpt>
      <trkpt lat="59.883305" lon="17.7807991">
        <ele>32.8223</ele>
        <time>2014-07-12T10:15:27Z</time>
      </trkpt>
      <trkpt lat="59.8832928" lon="17.7809221">
        <ele>32.8223</ele>
        <time>2014-07-12T10:15:28Z</time>
      </trkpt>
      <trkpt lat="59.8832838" lon="17.7810453">
        <ele>32.8223</ele>
        <time>2014-07-12T10:15:29Z</time>
      </trkpt>
      <trkpt lat="59.883276" lon="17.7811668">
        <ele>32.8223</ele>
        <time>2014-07-12T10:15:30Z</time>
      </trkpt>
      <trkpt lat="59.8832679" lon="17.7812884">
        <ele>32.3416</ele>
        <time>2014-07-12T10:15:31Z</time>
      </trkpt>
      <trkpt lat="59.8832628" lon="17.7814104">
        <ele>32.8223</ele>
        <time>2014-07-12T10:15:32Z</time>
      </trkpt>
      <trkpt lat="59.8832555" lon="17.7815337">
        <ele>33.3029</ele>
        <time>2014-07-12T10:15:33Z</time>
      </trkpt>
      <trkpt lat="59.8832498" lon="17.7816559">
        <ele>33.7834</ele>
        <time>2014-07-12T10:15:34Z</time>
      </trkpt>
      <trkpt lat="59.8832472" lon="17.7817765">
        <ele>33.7834</ele>
        <time>2014-07-12T10:15:35Z</time>
      </trkpt>
      <trkpt lat="59.8832466" lon="17.7818973">
        <ele>34.2642</ele>
        <time>2014-07-12T10:15:36Z</time>
      </trkpt>
      <trkpt lat="59.8832458" lon="17.782014">
        <ele>34.7449</ele>
        <time>2014-07-12T10:15:37Z</time>
      </trkpt>
      <trkpt lat="59.8832432" lon="17.7821269">
        <ele>35.2255</ele>
        <time>2014-07-12T10:15:38Z</time>
      </trkpt>
      <trkpt lat="59.8832399" lon="17.7822362">
        <ele>35.7061</ele>
        <time>2014-07-12T10:15:39Z</time>
      </trkpt>
      <trkpt lat="59.8832389" lon="17.7823424">
        <ele>36.1868</ele>
        <time>2014-07-12T10:15:40Z</time>
      </trkpt>
      <trkpt lat="59.8832397" lon="17.782444">
        <ele>36.1868</ele>
        <time>2014-07-12T10:15:41Z</time>
      </trkpt>
      <trkpt lat="59.8832358" lon="17.7825437">
        <ele>36.1868</ele>
        <time>2014-07-12T10:15:42Z</time>
      </trkpt>
      <trkpt lat="59.8832206" lon="17.7826413">
        <ele>35.7061</ele>
        <time>2014-07-12T10:15:43Z</time>
      </trkpt>
      <trkpt lat="59.8831854" lon="17.7827299">
        <ele>35.7061</ele>
        <time>2014-07-12T10:15:44Z</time>
      </trkpt>
      <trkpt lat="59.8831291" lon="17.7827781">
        <ele>34.2642</ele>
        <time>2014-07-12T10:15:45Z</time>
      </trkpt>
      <trkpt lat="59.8830528" lon="17.7828076">
        <ele>33.7834</ele>
        <time>2014-07-12T10:15:46Z</time>
      </trkpt>
      <trkpt lat="59.8829654" lon="17.7828019">
        <ele>33.3029</ele>
        <time>2014-07-12T10:15:47Z</time>
      </trkpt>
      <trkpt lat="59.88288" lon="17.7828091">
        <ele>32.8223</ele>
        <time>2014-07-12T10:15:48Z</time>
      </trkpt>
      <trkpt lat="59.8827965" lon="17.7828212">
        <ele>32.3416</ele>
        <time>2014-07-12T10:15:49Z</time>
      </trkpt>
      <trkpt lat="59.8827114" lon="17.7828402">
        <ele>31.8607</ele>
        <time>2014-07-12T10:15:50Z</time>
      </trkpt>
      <trkpt lat="59.8826245" lon="17.7828655">
        <ele>31.3801</ele>
        <time>2014-07-12T10:15:51Z</time>
      </trkpt>
      <trkpt lat="59.8825375" lon="17.7828957">
        <ele>30.8995</ele>
        <time>2014-07-12T10:15:52Z</time>
      </trkpt>
      <trkpt lat="59.8824514" lon="17.782932">
        <ele>30.4188</ele>
        <time>2014-07-12T10:15:53Z</time>
      </trkpt>
      <trkpt lat="59.8823653" lon="17.7829713">
        <ele>30.4188</ele>
        <time>2014-07-12T10:15:54Z</time>
      </trkpt>
      <trkpt lat="59.8822795" lon="17.7830096">
        <ele>29.9381</ele>
        <time>2014-07-12T10:15:55Z</time>
      </trkpt>
      <trkpt lat="59.8821924" lon="17.7830464">
        <ele>29.4575</ele>
        <time>2014-07-12T10:15:56Z</time>
      </trkpt>
      <trkpt lat="59.882102" lon="17.7830812">
        <ele>28.4962</ele>
        <time>2014-07-12T10:15:57Z</time>
      </trkpt>
      <trkpt lat="59.8820084" lon="17.7831167">
        <ele>28.0155</ele>
        <time>2014-07-12T10:15:58Z</time>
      </trkpt>
      <trkpt lat="59.8819114" lon="17.7831526">
        <ele>27.0543</ele>
        <time>2014-07-12T10:15:59Z</time>
      </trkpt>
      <trkpt lat="59.8818112" lon="17.7831876">
        <ele>26.5736</ele>
        <time>2014-07-12T10:16:00Z</time>
      </trkpt>
      <trkpt lat="59.8817097" lon="17.7832234">
        <ele>25.6123</ele>
        <time>2014-07-12T10:16:01Z</time>
      </trkpt>
      <trkpt lat="59.8816078" lon="17.7832593">
        <ele>25.1317</ele>
        <time>2014-07-12T10:16:02Z</time>
      </trkpt>
      <trkpt lat="59.8815051" lon="17.7832948">
        <ele>24.651</ele>
        <time>2014-07-12T10:16:03Z</time>
      </trkpt>
      <trkpt lat="59.8814016" lon="17.7833307">
        <ele>24.1703</ele>
        <time>2014-07-12T10:16:04Z</time>
      </trkpt>
      <trkpt lat="59.8812969" lon="17.7833655">
        <ele>23.209</ele>
        <time>2014-07-12T10:16:05Z</time>
      </trkpt>
      <trkpt lat="59.8811907" lon="17.7834016">
        <ele>23.209</ele>
        <time>2014-07-12T10:16:06Z</time>
      </trkpt>
      <trkpt lat="59.8810827" lon="17.7834375">
        <ele>22.7283</ele>
        <time>2014-07-12T10:16:07Z</time>
      </trkpt>
      <trkpt lat="59.8809729" lon="17.7834705">
        <ele>22.2476</ele>
        <time>2014-07-12T10:16:08Z</time>
      </trkpt>
      <trkpt lat="59.8808624" lon="17.7834966">
        <ele>21.767</ele>
        <time>2014-07-12T10:16:09Z</time>
      </trkpt>
      <trkpt lat="59.8807508" lon="17.7835008">
        <ele>21.2864</ele>
        <time>2014-07-12T10:16:10Z</time>
      </trkpt>
      <trkpt lat="59.8806388" lon="17.7834746">
        <ele>20.8057</ele>
        <time>2014-07-12T10:16:11Z</time>
      </trkpt>
      <trkpt lat="59.8805297" lon="17.7834203">
        <ele>20.8057</ele>
        <time>2014-07-12T10:16:12Z</time>
      </trkpt>
      <trkpt lat="59.8804251" lon="17.7833472">
        <ele>20.325</ele>
        <time>2014-07-12T10:16:13Z</time>
      </trkpt>
      <trkpt lat="59.880322" lon="17.7832692">
        <ele>19.8444</ele>
        <time>2014-07-12T10:16:14Z</time>
      </trkpt>
      <trkpt lat="59.8802192" lon="17.783191">
        <ele>19.3638</ele>
        <time>2014-07-12T10:16:15Z</time>
      </trkpt>
      <trkpt lat="59.8801158" lon="17.7831168">
        <ele>19.3638</ele>
        <time>2014-07-12T10:16:16Z</time>
      </trkpt>
      <trkpt lat="59.8800118" lon="17.783046">
        <ele>18.8831</ele>
        <time>2014-07-12T10:16:17Z</time>
      </trkpt>
      <trkpt lat="59.8799075" lon="17.782978">
        <ele>18.8831</ele>
        <time>2014-07-12T10:16:18Z</time>
      </trkpt>
      <trkpt lat="59.879803" lon="17.7829144">
        <ele>18.4023</ele>
        <time>2014-07-12T10:16:19Z</time>
      </trkpt>
      <trkpt lat="59.8796968" lon="17.7828664">
        <ele>17.9218</ele>
        <time>2014-07-12T10:16:20Z</time>
      </trkpt>
      <trkpt lat="59.8795895" lon="17.7828507">
        <ele>17.9218</ele>
        <time>2014-07-12T10:16:21Z</time>
      </trkpt>
      <trkpt lat="59.8794848" lon="17.7828785">
        <ele>17.9218</ele>
        <time>2014-07-12T10:16:22Z</time>
      </trkpt>
      <trkpt lat="59.8793873" lon="17.7829457">
        <ele>17.9218</ele>
        <time>2014-07-12T10:16:23Z</time>
      </trkpt>
      <trkpt lat="59.8792984" lon="17.7830434">
        <ele>17.9218</ele>
        <time>2014-07-12T10:16:24Z</time>
      </trkpt>
      <trkpt lat="59.879216" lon="17.7831603">
        <ele>17.9218</ele>
        <time>2014-07-12T10:16:25Z</time>
      </trkpt>
      <trkpt lat="59.8791367" lon="17.7832861">
        <ele>17.9218</ele>
        <time>2014-07-12T10:16:26Z</time>
      </trkpt>
      <trkpt lat="59.8790579" lon="17.7834124">
        <ele>17.4412</ele>
        <time>2014-07-12T10:16:27Z</time>
      </trkpt>
      <trkpt lat="59.8789788" lon="17.7835369">
        <ele>17.4412</ele>
        <time>2014-07-12T10:16:28Z</time>
      </trkpt>
      <trkpt lat="59.8789002" lon="17.7836618">
        <ele>17.4412</ele>
        <time>2014-07-12T10:16:29Z</time>
      </trkpt>
      <trkpt lat="59.8788227" lon="17.7837886">
        <ele>17.4412</ele>
        <time>2014-07-12T10:16:30Z</time>
      </trkpt>
      <trkpt lat="59.8787457" lon="17.783915">
        <ele>16.9604</ele>
        <time>2014-07-12T10:16:31Z</time>
      </trkpt>
      <trkpt lat="59.878669" lon="17.7840394">
        <ele>16.9604</ele>
        <time>2014-07-12T10:16:32Z</time>
      </trkpt>
      <trkpt lat="59.8785929" lon="17.7841631">
        <ele>16.9604</ele>
        <time>2014-07-12T10:16:33Z</time>
      </trkpt>
      <trkpt lat="59.8785182" lon="17.7842899">
        <ele>16.4797</ele>
        <time>2014-07-12T10:16:34Z</time>
      </trkpt>
      <trkpt lat="59.8784468" lon="17.7844226">
        <ele>16.4797</ele>
        <time>2014-07-12T10:16:35Z</time>
      </trkpt>
      <trkpt lat="59.878382" lon="17.7845632">
        <ele>16.4797</ele>
        <time>2014-07-12T10:16:36Z</time>
      </trkpt>
      <trkpt lat="59.8783261" lon="17.7847131">
        <ele>16.4797</ele>
        <time>2014-07-12T10:16:37Z</time>
      </trkpt>
      <trkpt lat="59.87828" lon="17.7848704">
        <ele>16.4797</ele>
        <time>2014-07-12T10:16:38Z</time>
      </trkpt>
      <trkpt lat="59.8782433" lon="17.7850331">
        <ele>16.4797</ele>
        <time>2014-07-12T10:16:39Z</time>
      </trkpt>
      <trkpt lat="59.8782127" lon="17.7851977">
        <ele>16.4797</ele>
        <time>2014-07-12T10:16:40Z</time>
      </trkpt>
      <trkpt lat="59.878184" lon="17.7853614">
        <ele>16.4797</ele>
        <time>2014-07-12T10:16:41Z</time>
      </trkpt>
      <trkpt lat="59.8781556" lon="17.785523">
        <ele>16.4797</ele>
        <time>2014-07-12T10:16:42Z</time>
      </trkpt>
      <trkpt lat="59.8781275" lon="17.7856828">
        <ele>16.9604</ele>
        <time>2014-07-12T10:16:43Z</time>
      </trkpt>
      <trkpt lat="59.8781002" lon="17.7858395">
        <ele>16.9604</ele>
        <time>2014-07-12T10:16:44Z</time>
      </trkpt>
      <trkpt lat="59.8780737" lon="17.7859932">
        <ele>16.9604</ele>
        <time>2014-07-12T10:16:45Z</time>
      </trkpt>
      <trkpt lat="59.8780475" lon="17.7861441">
        <ele>16.9604</ele>
        <time>2014-07-12T10:16:46Z</time>
      </trkpt>
      <trkpt lat="59.8780213" lon="17.7862933">
        <ele>17.4412</ele>
        <time>2014-07-12T10:16:47Z</time>
      </trkpt>
      <trkpt lat="59.8779946" lon="17.7864417">
        <ele>17.4412</ele>
        <time>2014-07-12T10:16:48Z</time>
      </trkpt>
      <trkpt lat="59.8779676" lon="17.7865883">
        <ele>17.4412</ele>
        <time>2014-07-12T10:16:49Z</time>
      </trkpt>
      <trkpt lat="59.8779387" lon="17.7867319">
        <ele>17.9218</ele>
        <time>2014-07-12T10:16:50Z</time>
      </trkpt>
      <trkpt lat="59.8779086" lon="17.7868727">
        <ele>17.9218</ele>
        <time>2014-07-12T10:16:51Z</time>
      </trkpt>
      <trkpt lat="59.8778789" lon="17.7870112">
        <ele>17.9218</ele>
        <time>2014-07-12T10:16:52Z</time>
      </trkpt>
      <trkpt lat="59.8778491" lon="17.7871488">
        <ele>18.4023</ele>
        <time>2014-07-12T10:16:53Z</time>
      </trkpt>
      <trkpt lat="59.8778195" lon="17.7872858">
        <ele>18.4023</ele>
        <time>2014-07-12T10:16:54Z</time>
      </trkpt>
      <trkpt lat="59.877791" lon="17.7874215">
        <ele>18.8831</ele>
        <time>2014-07-12T10:16:55Z</time>
      </trkpt>
      <trkpt lat="59.8777635" lon="17.7875542">
        <ele>18.8831</ele>
        <time>2014-07-12T10:16:56Z</time>
      </trkpt>
      <trkpt lat="59.8777345" lon="17.7876846">
        <ele>19.3638</ele>
        <time>2014-07-12T10:16:57Z</time>
      </trkpt>
      <trkpt lat="59.8777045" lon="17.787812">
        <ele>19.3638</ele>
        <time>2014-07-12T10:16:58Z</time>
      </trkpt>
      <trkpt lat="59.877676" lon="17.7879338">
        <ele>19.3638</ele>
        <time>2014-07-12T10:16:59Z</time>
      </trkpt>
      <trkpt lat="59.8776492" lon="17.788052">
        <ele>19.3638</ele>
        <time>2014-07-12T10:17:00Z</time>
      </trkpt>
      <trkpt lat="59.8776231" lon="17.7881695">
        <ele>19.3638</ele>
        <time>2014-07-12T10:17:01Z</time>
      </trkpt>
      <trkpt lat="59.8776002" lon="17.7882896">
        <ele>19.3638</ele>
        <time>2014-07-12T10:17:02Z</time>
      </trkpt>
      <trkpt lat="59.8775828" lon="17.7884171">
        <ele>19.3638</ele>
        <time>2014-07-12T10:17:03Z</time>
      </trkpt>
      <trkpt lat="59.8775701" lon="17.7885509">
        <ele>19.3638</ele>
        <time>2014-07-12T10:17:04Z</time>
      </trkpt>
      <trkpt lat="59.8775611" lon="17.7886858">
        <ele>19.8444</ele>
        <time>2014-07-12T10:17:05Z</time>
      </trkpt>
      <trkpt lat="59.8775563" lon="17.788821">
        <ele>19.8444</ele>
        <time>2014-07-12T10:17:06Z</time>
      </trkpt>
      <trkpt lat="59.8775572" lon="17.7889547">
        <ele>19.8444</ele>
        <time>2014-07-12T10:17:07Z</time>
      </trkpt>
      <trkpt lat="59.8775631" lon="17.7890878">
        <ele>20.325</ele>
        <time>2014-07-12T10:17:08Z</time>
      </trkpt>
      <trkpt lat="59.8775719" lon="17.7892216">
        <ele>20.325</ele>
        <time>2014-07-12T10:17:09Z</time>
      </trkpt>
      <trkpt lat="59.8775822" lon="17.7893573">
        <ele>20.325</ele>
        <time>2014-07-12T10:17:10Z</time>
      </trkpt>
      <trkpt lat="59.8775917" lon="17.7894964">
        <ele>20.325</ele>
        <time>2014-07-12T10:17:11Z</time>
      </trkpt>
      <trkpt lat="59.8775994" lon="17.7896376">
        <ele>20.8057</ele>
        <time>2014-07-12T10:17:12Z</time>
      </trkpt>
      <trkpt lat="59.8776061" lon="17.7897799">
        <ele>20.8057</ele>
        <time>2014-07-12T10:17:13Z</time>
      </trkpt>
      <trkpt lat="59.8776112" lon="17.7899222">
        <ele>21.2864</ele>
        <time>2014-07-12T10:17:14Z</time>
      </trkpt>
      <trkpt lat="59.8776139" lon="17.7900637">
        <ele>21.767</ele>
        <time>2014-07-12T10:17:15Z</time>
      </trkpt>
      <trkpt lat="59.8776152" lon="17.7902032">
        <ele>21.767</ele>
        <time>2014-07-12T10:17:16Z</time>
      </trkpt>
      <trkpt lat="59.8776164" lon="17.790341">
        <ele>22.2476</ele>
        <time>2014-07-12T10:17:17Z</time>
      </trkpt>
      <trkpt lat="59.8776188" lon="17.7904763">
        <ele>22.2476</ele>
        <time>2014-07-12T10:17:18Z</time>
      </trkpt>
      <trkpt lat="59.8776222" lon="17.7906089">
        <ele>22.7283</ele>
        <time>2014-07-12T10:17:19Z</time>
      </trkpt>
      <trkpt lat="59.8776267" lon="17.7907391">
        <ele>22.7283</ele>
        <time>2014-07-12T10:17:20Z</time>
      </trkpt>
      <trkpt lat="59.877633" lon="17.7908668">
        <ele>23.209</ele>
        <time>2014-07-12T10:17:21Z</time>
      </trkpt>
      <trkpt lat="59.8776385" lon="17.790994">
        <ele>23.209</ele>
        <time>2014-07-12T10:17:22Z</time>
      </trkpt>
      <trkpt lat="59.8776407" lon="17.7911206">
        <ele>23.6896</ele>
        <time>2014-07-12T10:17:23Z</time>
      </trkpt>
      <trkpt lat="59.8776418" lon="17.7912466">
        <ele>23.6896</ele>
        <time>2014-07-12T10:17:24Z</time>
      </trkpt>
      <trkpt lat="59.8776445" lon="17.7913723">
        <ele>23.6896</ele>
        <time>2014-07-12T10:17:25Z</time>
      </trkpt>
      <trkpt lat="59.8776491" lon="17.7914976">
        <ele>24.1703</ele>
        <time>2014-07-12T10:17:26Z</time>
      </trkpt>
      <trkpt lat="59.8776536" lon="17.7916215">
        <ele>24.1703</ele>
        <time>2014-07-12T10:17:27Z</time>
      </trkpt>
      <trkpt lat="59.8776575" lon="17.7917442">
        <ele>24.1703</ele>
        <time>2014-07-12T10:17:28Z</time>
      </trkpt>
      <trkpt lat="59.8776605" lon="17.7918675">
        <ele>24.1703</ele>
        <time>2014-07-12T10:17:29Z</time>
      </trkpt>
      <trkpt lat="59.877662" lon="17.7919924">
        <ele>24.651</ele>
        <time>2014-07-12T10:17:30Z</time>
      </trkpt>
      <trkpt lat="59.8776613" lon="17.7921182">
        <ele>24.651</ele>
        <time>2014-07-12T10:17:31Z</time>
      </trkpt>
      <trkpt lat="59.8776577" lon="17.7922443">
        <ele>24.651</ele>
        <time>2014-07-12T10:17:32Z</time>
      </trkpt>
      <trkpt lat="59.8776518" lon="17.7923712">
        <ele>24.651</ele>
        <time>2014-07-12T10:17:33Z</time>
      </trkpt>
      <trkpt lat="59.8776444" lon="17.7924985">
        <ele>24.651</ele>
        <time>2014-07-12T10:17:34Z</time>
      </trkpt>
      <trkpt lat="59.8776365" lon="17.792626">
        <ele>24.651</ele>
        <time>2014-07-12T10:17:35Z</time>
      </trkpt>
      <trkpt lat="59.8776273" lon="17.7927549">
        <ele>24.651</ele>
        <time>2014-07-12T10:17:36Z</time>
      </trkpt>
      <trkpt lat="59.8776159" lon="17.7928845">
        <ele>24.651</ele>
        <time>2014-07-12T10:17:37Z</time>
      </trkpt>
      <trkpt lat="59.8776015" lon="17.7930102">
        <ele>24.651</ele>
        <time>2014-07-12T10:17:38Z</time>
      </trkpt>
      <trkpt lat="59.877586" lon="17.7931335">
        <ele>24.651</ele>
        <time>2014-07-12T10:17:39Z</time>
      </trkpt>
      <trkpt lat="59.8775722" lon="17.7932574">
        <ele>24.651</ele>
        <time>2014-07-12T10:17:40Z</time>
      </trkpt>
      <trkpt lat="59.8775563" lon="17.7933782">
        <ele>24.651</ele>
        <time>2014-07-12T10:17:41Z</time>
      </trkpt>
      <trkpt lat="59.8775357" lon="17.7934977">
        <ele>24.651</ele>
        <time>2014-07-12T10:17:42Z</time>
      </trkpt>
      <trkpt lat="59.8775154" lon="17.7936157">
        <ele>24.651</ele>
        <time>2014-07-12T10:17:43Z</time>
      </trkpt>
      <trkpt lat="59.877494" lon="17.7937299">
        <ele>24.651</ele>
        <time>2014-07-12T10:17:44Z</time>
      </trkpt>
      <trkpt lat="59.8774703" lon="17.7938407">
        <ele>24.651</ele>
        <time>2014-07-12T10:17:45Z</time>
      </trkpt>
      <trkpt lat="59.8774434" lon="17.7939483">
        <ele>24.651</ele>
        <time>2014-07-12T10:17:46Z</time>
      </trkpt>
      <trkpt lat="59.8774144" lon="17.7940572">
        <ele>25.1317</ele>
        <time>2014-07-12T10:17:47Z</time>
      </trkpt>
      <trkpt lat="59.8773844" lon="17.794166">
        <ele>24.651</ele>
        <time>2014-07-12T10:17:48Z</time>
      </trkpt>
      <trkpt lat="59.8773528" lon="17.7942746">
        <ele>24.651</ele>
        <time>2014-07-12T10:17:49Z</time>
      </trkpt>
      <trkpt lat="59.8773204" lon="17.794385">
        <ele>24.651</ele>
        <time>2014-07-12T10:17:50Z</time>
      </trkpt>
      <trkpt lat="59.8772876" lon="17.7944981">
        <ele>25.1317</ele>
        <time>2014-07-12T10:17:51Z</time>
      </trkpt>
      <trkpt lat="59.8772531" lon="17.7946136">
        <ele>25.1317</ele>
        <time>2014-07-12T10:17:52Z</time>
      </trkpt>
      <trkpt lat="59.8772165" lon="17.7947309">
        <ele>25.1317</ele>
        <time>2014-07-12T10:17:53Z</time>
      </trkpt>
      <trkpt lat="59.8771798" lon="17.7948513">
        <ele>25.1317</ele>
        <time>2014-07-12T10:17:54Z</time>
      </trkpt>
      <trkpt lat="59.877143" lon="17.7949747">
        <ele>25.1317</ele>
        <time>2014-07-12T10:17:55Z</time>
      </trkpt>
      <trkpt lat="59.8771057" lon="17.795099">
        <ele>24.651</ele>
        <time>2014-07-12T10:17:56Z</time>
      </trkpt>
      <trkpt lat="59.8770677" lon="17.7952247">
        <ele>24.651</ele>
        <time>2014-07-12T10:17:57Z</time>
      </trkpt>
      <trkpt lat="59.87703" lon="17.7953513">
        <ele>24.651</ele>
        <time>2014-07-12T10:17:58Z</time>
      </trkpt>
      <trkpt lat="59.8769929" lon="17.7954787">
        <ele>24.651</ele>
        <time>2014-07-12T10:17:59Z</time>
      </trkpt>
      <trkpt lat="59.876956" lon="17.7956061">
        <ele>24.651</ele>
        <time>2014-07-12T10:18:00Z</time>
      </trkpt>
      <trkpt lat="59.8769202" lon="17.7957335">
        <ele>25.1317</ele>
        <time>2014-07-12T10:18:01Z</time>
      </trkpt>
      <trkpt lat="59.8768859" lon="17.7958614">
        <ele>25.1317</ele>
        <time>2014-07-12T10:18:02Z</time>
      </trkpt>
      <trkpt lat="59.8768516" lon="17.7959882">
        <ele>25.1317</ele>
        <time>2014-07-12T10:18:03Z</time>
      </trkpt>
      <trkpt lat="59.8768166" lon="17.7961143">
        <ele>25.1317</ele>
        <time>2014-07-12T10:18:04Z</time>
      </trkpt>
      <trkpt lat="59.876782" lon="17.7962416">
        <ele>25.6123</ele>
        <time>2014-07-12T10:18:05Z</time>
      </trkpt>
      <trkpt lat="59.8767483" lon="17.7963697">
        <ele>25.6123</ele>
        <time>2014-07-12T10:18:06Z</time>
      </trkpt>
      <trkpt lat="59.8767147" lon="17.7964963">
        <ele>25.6123</ele>
        <time>2014-07-12T10:18:07Z</time>
      </trkpt>
      <trkpt lat="59.8766814" lon="17.7966204">
        <ele>25.6123</ele>
        <time>2014-07-12T10:18:08Z</time>
      </trkpt>
      <trkpt lat="59.8766487" lon="17.7967436">
        <ele>26.0929</ele>
        <time>2014-07-12T10:18:09Z</time>
      </trkpt>
      <trkpt lat="59.8766159" lon="17.7968658">
        <ele>26.0929</ele>
        <time>2014-07-12T10:18:10Z</time>
      </trkpt>
      <trkpt lat="59.8765815" lon="17.7969918">
        <ele>25.6123</ele>
        <time>2014-07-12T10:18:11Z</time>
      </trkpt>
      <trkpt lat="59.8765458" lon="17.7971226">
        <ele>25.6123</ele>
        <time>2014-07-12T10:18:12Z</time>
      </trkpt>
      <trkpt lat="59.8765093" lon="17.7972574">
        <ele>25.6123</ele>
        <time>2014-07-12T10:18:13Z</time>
      </trkpt>
      <trkpt lat="59.8764717" lon="17.7973931">
        <ele>25.1317</ele>
        <time>2014-07-12T10:18:14Z</time>
      </trkpt>
      <trkpt lat="59.8764332" lon="17.7975268">
        <ele>25.1317</ele>
        <time>2014-07-12T10:18:15Z</time>
      </trkpt>
      <trkpt lat="59.8763944" lon="17.7976589">
        <ele>24.651</ele>
        <time>2014-07-12T10:18:16Z</time>
      </trkpt>
      <trkpt lat="59.8763557" lon="17.7977922">
        <ele>24.1703</ele>
        <time>2014-07-12T10:18:17Z</time>
      </trkpt>
      <trkpt lat="59.8763179" lon="17.7979278">
        <ele>23.6896</ele>
        <time>2014-07-12T10:18:18Z</time>
      </trkpt>
      <trkpt lat="59.8762795" lon="17.7980649">
        <ele>23.6896</ele>
        <time>2014-07-12T10:18:19Z</time>
      </trkpt>
      <trkpt lat="59.8762385" lon="17.7982026">
        <ele>23.209</ele>
        <time>2014-07-12T10:18:20Z</time>
      </trkpt>
      <trkpt lat="59.8761967" lon="17.7983401">
        <ele>23.209</ele>
        <time>2014-07-12T10:18:21Z</time>
      </trkpt>
      <trkpt lat="59.8761557" lon="17.7984772">
        <ele>23.209</ele>
        <time>2014-07-12T10:18:22Z</time>
      </trkpt>
      <trkpt lat="59.8761141" lon="17.7986116">
        <ele>23.209</ele>
        <time>2014-07-12T10:18:23Z</time>
      </trkpt>
      <trkpt lat="59.8760722" lon="17.7987427">
        <ele>23.209</ele>
        <time>2014-07-12T10:18:24Z</time>
      </trkpt>
      <trkpt lat="59.8760303" lon="17.7988695">
        <ele>23.209</ele>
        <time>2014-07-12T10:18:25Z</time>
      </trkpt>
      <trkpt lat="59.8759864" lon="17.7989908">
        <ele>23.209</ele>
        <time>2014-07-12T10:18:26Z</time>
      </trkpt>
      <trkpt lat="59.8759408" lon="17.7991083">
        <ele>23.209</ele>
        <time>2014-07-12T10:18:27Z</time>
      </trkpt>
      <trkpt lat="59.8758939" lon="17.7992218">
        <ele>23.209</ele>
        <time>2014-07-12T10:18:28Z</time>
      </trkpt>
      <trkpt lat="59.8758448" lon="17.799333">
        <ele>23.209</ele>
        <time>2014-07-12T10:18:29Z</time>
      </trkpt>
      <trkpt lat="59.8757946" lon="17.7994453">
        <ele>23.209</ele>
        <time>2014-07-12T10:18:30Z</time>
      </trkpt>
      <trkpt lat="59.8757446" lon="17.7995615">
        <ele>22.7283</ele>
        <time>2014-07-12T10:18:31Z</time>
      </trkpt>
      <trkpt lat="59.8756962" lon="17.7996836">
        <ele>22.7283</ele>
        <time>2014-07-12T10:18:32Z</time>
      </trkpt>
      <trkpt lat="59.8756516" lon="17.7998136">
        <ele>22.7283</ele>
        <time>2014-07-12T10:18:33Z</time>
      </trkpt>
      <trkpt lat="59.8756106" lon="17.7999511">
        <ele>22.2476</ele>
        <time>2014-07-12T10:18:34Z</time>
      </trkpt>
      <trkpt lat="59.8755716" lon="17.8000936">
        <ele>22.2476</ele>
        <time>2014-07-12T10:18:35Z</time>
      </trkpt>
      <trkpt lat="59.8755331" lon="17.8002377">
        <ele>22.2476</ele>
        <time>2014-07-12T10:18:36Z</time>
      </trkpt>
      <trkpt lat="59.8754941" lon="17.8003833">
        <ele>22.2476</ele>
        <time>2014-07-12T10:18:37Z</time>
      </trkpt>
      <trkpt lat="59.8754548" lon="17.8005292">
        <ele>22.2476</ele>
        <time>2014-07-12T10:18:38Z</time>
      </trkpt>
      <trkpt lat="59.8754167" lon="17.8006752">
        <ele>22.2476</ele>
        <time>2014-07-12T10:18:39Z</time>
      </trkpt>
      <trkpt lat="59.8753786" lon="17.8008219">
        <ele>22.2476</ele>
        <time>2014-07-12T10:18:40Z</time>
      </trkpt>
      <trkpt lat="59.8753409" lon="17.8009706">
        <ele>21.767</ele>
        <time>2014-07-12T10:18:41Z</time>
      </trkpt>
      <trkpt lat="59.8753045" lon="17.8011232">
        <ele>21.2864</ele>
        <time>2014-07-12T10:18:42Z</time>
      </trkpt>
      <trkpt lat="59.8752687" lon="17.8012814">
        <ele>21.2864</ele>
        <time>2014-07-12T10:18:43Z</time>
      </trkpt>
      <trkpt lat="59.8752326" lon="17.8014455">
        <ele>20.8057</ele>
        <time>2014-07-12T10:18:44Z</time>
      </trkpt>
      <trkpt lat="59.8751958" lon="17.8016133">
        <ele>20.325</ele>
        <time>2014-07-12T10:18:45Z</time>
      </trkpt>
      <trkpt lat="59.8751568" lon="17.8017826">
        <ele>20.325</ele>
        <time>2014-07-12T10:18:46Z</time>
      </trkpt>
      <trkpt lat="59.8751142" lon="17.8019512">
        <ele>19.8444</ele>
        <time>2014-07-12T10:18:47Z</time>
      </trkpt>
      <trkpt lat="59.8750671" lon="17.8021167">
        <ele>19.8444</ele>
        <time>2014-07-12T10:18:48Z</time>
      </trkpt>
      <trkpt lat="59.8750158" lon="17.8022759">
        <ele>19.3638</ele>
        <time>2014-07-12T10:18:49Z</time>
      </trkpt>
      <trkpt lat="59.8749599" lon="17.8024257">
        <ele>18.8831</ele>
        <time>2014-07-12T10:18:50Z</time>
      </trkpt>
      <trkpt lat="59.8748995" lon="17.8025655">
        <ele>18.8831</ele>
        <time>2014-07-12T10:18:51Z</time>
      </trkpt>
      <trkpt lat="59.8748373" lon="17.8026974">
        <ele>18.8831</ele>
        <time>2014-07-12T10:18:52Z</time>
      </trkpt>
      <trkpt lat="59.8747767" lon="17.8028255">
        <ele>18.8831</ele>
        <time>2014-07-12T10:18:53Z</time>
      </trkpt>
      <trkpt lat="59.8747201" lon="17.8029552">
        <ele>18.8831</ele>
        <time>2014-07-12T10:18:54Z</time>
      </trkpt>
      <trkpt lat="59.8746687" lon="17.8030896">
        <ele>18.8831</ele>
        <time>2014-07-12T10:18:55Z</time>
      </trkpt>
      <trkpt lat="59.8746218" lon="17.8032266">
        <ele>18.8831</ele>
        <time>2014-07-12T10:18:56Z</time>
      </trkpt>
      <trkpt lat="59.8745778" lon="17.8033648">
        <ele>18.8831</ele>
        <time>2014-07-12T10:18:57Z</time>
      </trkpt>
      <trkpt lat="59.8745353" lon="17.8035037">
        <ele>19.3638</ele>
        <time>2014-07-12T10:18:58Z</time>
      </trkpt>
      <trkpt lat="59.8744933" lon="17.8036415">
        <ele>19.3638</ele>
        <time>2014-07-12T10:18:59Z</time>
      </trkpt>
      <trkpt lat="59.874451" lon="17.8037772">
        <ele>19.3638</ele>
        <time>2014-07-12T10:19:00Z</time>
      </trkpt>
      <trkpt lat="59.8744089" lon="17.8039122">
        <ele>19.3638</ele>
        <time>2014-07-12T10:19:01Z</time>
      </trkpt>
      <trkpt lat="59.8743654" lon="17.8040466">
        <ele>19.3638</ele>
        <time>2014-07-12T10:19:02Z</time>
      </trkpt>
      <trkpt lat="59.8743188" lon="17.8041789">
        <ele>19.3638</ele>
        <time>2014-07-12T10:19:03Z</time>
      </trkpt>
      <trkpt lat="59.8742701" lon="17.8043094">
        <ele>18.8831</ele>
        <time>2014-07-12T10:19:04Z</time>
      </trkpt>
      <trkpt lat="59.8742201" lon="17.8044395">
        <ele>18.8831</ele>
        <time>2014-07-12T10:19:05Z</time>
      </trkpt>
      <trkpt lat="59.8741684" lon="17.8045674">
        <ele>18.8831</ele>
        <time>2014-07-12T10:19:06Z</time>
      </trkpt>
      <trkpt lat="59.8741148" lon="17.8046919">
        <ele>18.8831</ele>
        <time>2014-07-12T10:19:07Z</time>
      </trkpt>
      <trkpt lat="59.8740596" lon="17.8048142">
        <ele>18.8831</ele>
        <time>2014-07-12T10:19:08Z</time>
      </trkpt>
      <trkpt lat="59.8740033" lon="17.8049349">
        <ele>18.8831</ele>
        <time>2014-07-12T10:19:09Z</time>
      </trkpt>
      <trkpt lat="59.8739463" lon="17.805054">
        <ele>18.8831</ele>
        <time>2014-07-12T10:19:10Z</time>
      </trkpt>
      <trkpt lat="59.87389" lon="17.8051752">
        <ele>18.8831</ele>
        <time>2014-07-12T10:19:11Z</time>
      </trkpt>
      <trkpt lat="59.8738351" lon="17.8053001">
        <ele>18.8831</ele>
        <time>2014-07-12T10:19:12Z</time>
      </trkpt>
      <trkpt lat="59.8737832" lon="17.8054306">
        <ele>18.8831</ele>
        <time>2014-07-12T10:19:13Z</time>
      </trkpt>
      <trkpt lat="59.873735" lon="17.8055684">
        <ele>18.8831</ele>
        <time>2014-07-12T10:19:14Z</time>
      </trkpt>
      <trkpt lat="59.8736899" lon="17.8057104">
        <ele>18.8831</ele>
        <time>2014-07-12T10:19:15Z</time>
      </trkpt>
      <trkpt lat="59.873646" lon="17.8058534">
        <ele>18.8831</ele>
        <time>2014-07-12T10:19:16Z</time>
      </trkpt>
      <trkpt lat="59.8736025" lon="17.8059958">
        <ele>19.3638</ele>
        <time>2014-07-12T10:19:17Z</time>
      </trkpt>
      <trkpt lat="59.8735595" lon="17.8061367">
        <ele>19.3638</ele>
        <time>2014-07-12T10:19:18Z</time>
      </trkpt>
      <trkpt lat="59.8735173" lon="17.8062776">
        <ele>19.3638</ele>
        <time>2014-07-12T10:19:19Z</time>
      </trkpt>
      <trkpt lat="59.8734749" lon="17.8064194">
        <ele>19.3638</ele>
        <time>2014-07-12T10:19:20Z</time>
      </trkpt>
      <trkpt lat="59.8734345" lon="17.80656">
        <ele>19.8444</ele>
        <time>2014-07-12T10:19:21Z</time>
      </trkpt>
      <trkpt lat="59.8733979" lon="17.8066992">
        <ele>19.8444</ele>
        <time>2014-07-12T10:19:22Z</time>
      </trkpt>
      <trkpt lat="59.8733646" lon="17.8068382">
        <ele>19.8444</ele>
        <time>2014-07-12T10:19:23Z</time>
      </trkpt>
      <trkpt lat="59.8733339" lon="17.8069778">
        <ele>19.8444</ele>
        <time>2014-07-12T10:19:24Z</time>
      </trkpt>
      <trkpt lat="59.8733061" lon="17.8071188">
        <ele>20.325</ele>
        <time>2014-07-12T10:19:25Z</time>
      </trkpt>
      <trkpt lat="59.873281" lon="17.8072612">
        <ele>20.325</ele>
        <time>2014-07-12T10:19:26Z</time>
      </trkpt>
      <trkpt lat="59.8732573" lon="17.8074038">
        <ele>20.325</ele>
        <time>2014-07-12T10:19:27Z</time>
      </trkpt>
      <trkpt lat="59.8732357" lon="17.8075482">
        <ele>20.8057</ele>
        <time>2014-07-12T10:19:28Z</time>
      </trkpt>
      <trkpt lat="59.8732174" lon="17.8076939">
        <ele>20.8057</ele>
        <time>2014-07-12T10:19:29Z</time>
      </trkpt>
      <trkpt lat="59.8732021" lon="17.8078394">
        <ele>21.2864</ele>
        <time>2014-07-12T10:19:30Z</time>
      </trkpt>
      <trkpt lat="59.8731889" lon="17.8079829">
        <ele>21.2864</ele>
        <time>2014-07-12T10:19:31Z</time>
      </trkpt>
      <trkpt lat="59.8731779" lon="17.8081262">
        <ele>21.767</ele>
        <time>2014-07-12T10:19:32Z</time>
      </trkpt>
      <trkpt lat="59.8731681" lon="17.8082674">
        <ele>21.767</ele>
        <time>2014-07-12T10:19:33Z</time>
      </trkpt>
      <trkpt lat="59.8731577" lon="17.8084062">
        <ele>21.767</ele>
        <time>2014-07-12T10:19:34Z</time>
      </trkpt>
      <trkpt lat="59.873149" lon="17.8085444">
        <ele>22.2476</ele>
        <time>2014-07-12T10:19:35Z</time>
      </trkpt>
      <trkpt lat="59.8731413" lon="17.8086841">
        <ele>22.7283</ele>
        <time>2014-07-12T10:19:36Z</time>
      </trkpt>
      <trkpt lat="59.8731329" lon="17.8088236">
        <ele>22.7283</ele>
        <time>2014-07-12T10:19:37Z</time>
      </trkpt>
      <trkpt lat="59.8731232" lon="17.8089629">
        <ele>22.7283</ele>
        <time>2014-07-12T10:19:38Z</time>
      </trkpt>
      <trkpt lat="59.8731116" lon="17.8091023">
        <ele>22.7283</ele>
        <time>2014-07-12T10:19:39Z</time>
      </trkpt>
      <trkpt lat="59.8730971" lon="17.8092419">
        <ele>22.7283</ele>
        <time>2014-07-12T10:19:40Z</time>
      </trkpt>
      <trkpt lat="59.8730802" lon="17.8093818">
        <ele>22.7283</ele>
        <time>2014-07-12T10:19:41Z</time>
      </trkpt>
      <trkpt lat="59.8730603" lon="17.8095208">
        <ele>22.7283</ele>
        <time>2014-07-12T10:19:42Z</time>
      </trkpt>
      <trkpt lat="59.8730372" lon="17.8096566">
        <ele>22.7283</ele>
        <time>2014-07-12T10:19:43Z</time>
      </trkpt>
      <trkpt lat="59.8730134" lon="17.8097905">
        <ele>22.2476</ele>
        <time>2014-07-12T10:19:44Z</time>
      </trkpt>
      <trkpt lat="59.8729885" lon="17.8099233">
        <ele>22.2476</ele>
        <time>2014-07-12T10:19:45Z</time>
      </trkpt>
      <trkpt lat="59.8729609" lon="17.8100538">
        <ele>22.2476</ele>
        <time>2014-07-12T10:19:46Z</time>
      </trkpt>
      <trkpt lat="59.8729306" lon="17.8101821">
        <ele>22.2476</ele>
        <time>2014-07-12T10:19:47Z</time>
      </trkpt>
      <trkpt lat="59.8728992" lon="17.8103093">
        <ele>22.2476</ele>
        <time>2014-07-12T10:19:48Z</time>
      </trkpt>
      <trkpt lat="59.8728662" lon="17.8104362">
        <ele>22.2476</ele>
        <time>2014-07-12T10:19:49Z</time>
      </trkpt>
      <trkpt lat="59.8728304" lon="17.8105626">
        <ele>22.2476</ele>
        <time>2014-07-12T10:19:50Z</time>
      </trkpt>
      <trkpt lat="59.8727926" lon="17.8106884">
        <ele>21.767</ele>
        <time>2014-07-12T10:19:51Z</time>
      </trkpt>
      <trkpt lat="59.8727528" lon="17.8108165">
        <ele>21.2864</ele>
        <time>2014-07-12T10:19:52Z</time>
      </trkpt>
      <trkpt lat="59.872711" lon="17.8109494">
        <ele>21.2864</ele>
        <time>2014-07-12T10:19:53Z</time>
      </trkpt>
      <trkpt lat="59.8726726" lon="17.8110824">
        <ele>20.8057</ele>
        <time>2014-07-12T10:19:54Z</time>
      </trkpt>
      <trkpt lat="59.8726356" lon="17.8112145">
        <ele>20.8057</ele>
        <time>2014-07-12T10:19:55Z</time>
      </trkpt>
      <trkpt lat="59.8725958" lon="17.8113447">
        <ele>20.8057</ele>
        <time>2014-07-12T10:19:56Z</time>
      </trkpt>
      <trkpt lat="59.8725549" lon="17.8114757">
        <ele>20.8057</ele>
        <time>2014-07-12T10:19:57Z</time>
      </trkpt>
      <trkpt lat="59.8725143" lon="17.8116095">
        <ele>20.325</ele>
        <time>2014-07-12T10:19:58Z</time>
      </trkpt>
      <trkpt lat="59.8724774" lon="17.8117484">
        <ele>20.325</ele>
        <time>2014-07-12T10:19:59Z</time>
      </trkpt>
      <trkpt lat="59.8724441" lon="17.8118922">
        <ele>20.8057</ele>
        <time>2014-07-12T10:20:00Z</time>
      </trkpt>
      <trkpt lat="59.8724145" lon="17.8120384">
        <ele>20.8057</ele>
        <time>2014-07-12T10:20:01Z</time>
      </trkpt>
      <trkpt lat="59.8723876" lon="17.8121846">
        <ele>20.8057</ele>
        <time>2014-07-12T10:20:02Z</time>
      </trkpt>
      <trkpt lat="59.8723612" lon="17.8123316">
        <ele>20.8057</ele>
        <time>2014-07-12T10:20:03Z</time>
      </trkpt>
      <trkpt lat="59.8723352" lon="17.8124765">
        <ele>20.8057</ele>
        <time>2014-07-12T10:20:04Z</time>
      </trkpt>
      <trkpt lat="59.8723097" lon="17.8126178">
        <ele>21.2864</ele>
        <time>2014-07-12T10:20:05Z</time>
      </trkpt>
      <trkpt lat="59.8722851" lon="17.8127569">
        <ele>21.2864</ele>
        <time>2014-07-12T10:20:06Z</time>
      </trkpt>
      <trkpt lat="59.8722618" lon="17.8128962">
        <ele>21.2864</ele>
        <time>2014-07-12T10:20:07Z</time>
      </trkpt>
      <trkpt lat="59.872239" lon="17.813036">
        <ele>21.2864</ele>
        <time>2014-07-12T10:20:08Z</time>
      </trkpt>
      <trkpt lat="59.8722157" lon="17.8131758">
        <ele>21.2864</ele>
        <time>2014-07-12T10:20:09Z</time>
      </trkpt>
      <trkpt lat="59.8721927" lon="17.8133162">
        <ele>21.2864</ele>
        <time>2014-07-12T10:20:10Z</time>
      </trkpt>
      <trkpt lat="59.872169" lon="17.8134571">
        <ele>21.767</ele>
        <time>2014-07-12T10:20:11Z</time>
      </trkpt>
      <trkpt lat="59.8721446" lon="17.813598">
        <ele>21.767</ele>
        <time>2014-07-12T10:20:12Z</time>
      </trkpt>
      <trkpt lat="59.872121" lon="17.813739">
        <ele>21.767</ele>
        <time>2014-07-12T10:20:13Z</time>
      </trkpt>
      <trkpt lat="59.8720986" lon="17.8138794">
        <ele>22.2476</ele>
        <time>2014-07-12T10:20:14Z</time>
      </trkpt>
      <trkpt lat="59.8720764" lon="17.8140182">
        <ele>22.2476</ele>
        <time>2014-07-12T10:20:15Z</time>
      </trkpt>
      <trkpt lat="59.872054" lon="17.814155">
        <ele>22.2476</ele>
        <time>2014-07-12T10:20:16Z</time>
      </trkpt>
      <trkpt lat="59.8720313" lon="17.8142902">
        <ele>22.7283</ele>
        <time>2014-07-12T10:20:17Z</time>
      </trkpt>
      <trkpt lat="59.872011" lon="17.8144243">
        <ele>22.7283</ele>
        <time>2014-07-12T10:20:18Z</time>
      </trkpt>
      <trkpt lat="59.8719924" lon="17.8145575">
        <ele>22.7283</ele>
        <time>2014-07-12T10:20:19Z</time>
      </trkpt>
      <trkpt lat="59.8719739" lon="17.8146895">
        <ele>22.7283</ele>
        <time>2014-07-12T10:20:20Z</time>
      </trkpt>
      <trkpt lat="59.871958" lon="17.8148217">
        <ele>22.7283</ele>
        <time>2014-07-12T10:20:21Z</time>
      </trkpt>
      <trkpt lat="59.8719459" lon="17.8149562">
        <ele>23.209</ele>
        <time>2014-07-12T10:20:22Z</time>
      </trkpt>
      <trkpt lat="59.8719391" lon="17.8150925">
        <ele>23.209</ele>
        <time>2014-07-12T10:20:23Z</time>
      </trkpt>
      <trkpt lat="59.8719388" lon="17.8152304">
        <ele>23.209</ele>
        <time>2014-07-12T10:20:24Z</time>
      </trkpt>
      <trkpt lat="59.8719428" lon="17.8153676">
        <ele>23.209</ele>
        <time>2014-07-12T10:20:25Z</time>
      </trkpt>
      <trkpt lat="59.8719489" lon="17.8155019">
        <ele>23.6896</ele>
        <time>2014-07-12T10:20:26Z</time>
      </trkpt>
      <trkpt lat="59.8719554" lon="17.8156339">
        <ele>23.6896</ele>
        <time>2014-07-12T10:20:27Z</time>
      </trkpt>
      <trkpt lat="59.8719621" lon="17.8157638">
        <ele>23.6896</ele>
        <time>2014-07-12T10:20:28Z</time>
      </trkpt>
      <trkpt lat="59.871969" lon="17.8158924">
        <ele>23.6896</ele>
        <time>2014-07-12T10:20:29Z</time>
      </trkpt>
      <trkpt lat="59.8719763" lon="17.8160192">
        <ele>23.6896</ele>
        <time>2014-07-12T10:20:30Z</time>
      </trkpt>
      <trkpt lat="59.8719826" lon="17.8161439">
        <ele>24.1703</ele>
        <time>2014-07-12T10:20:31Z</time>
      </trkpt>
      <trkpt lat="59.8719876" lon="17.8162668">
        <ele>23.6896</ele>
        <time>2014-07-12T10:20:32Z</time>
      </trkpt>
      <trkpt lat="59.8719941" lon="17.8163897">
        <ele>23.6896</ele>
        <time>2014-07-12T10:20:33Z</time>
      </trkpt>
      <trkpt lat="59.8720008" lon="17.816512">
        <ele>23.209</ele>
        <time>2014-07-12T10:20:34Z</time>
      </trkpt>
      <trkpt lat="59.8720065" lon="17.8166317">
        <ele>23.6896</ele>
        <time>2014-07-12T10:20:35Z</time>
      </trkpt>
      <trkpt lat="59.8720116" lon="17.8167521">
        <ele>23.209</ele>
        <time>2014-07-12T10:20:36Z</time>
      </trkpt>
      <trkpt lat="59.8720161" lon="17.8168735">
        <ele>23.209</ele>
        <time>2014-07-12T10:20:37Z</time>
      </trkpt>
      <trkpt lat="59.8720229" lon="17.816995">
        <ele>23.209</ele>
        <time>2014-07-12T10:20:38Z</time>
      </trkpt>
      <trkpt lat="59.8720313" lon="17.8171194">
        <ele>23.209</ele>
        <time>2014-07-12T10:20:39Z</time>
      </trkpt>
      <trkpt lat="59.8720405" lon="17.8172471">
        <ele>23.209</ele>
        <time>2014-07-12T10:20:40Z</time>
      </trkpt>
      <trkpt lat="59.8720502" lon="17.8173789">
        <ele>23.209</ele>
        <time>2014-07-12T10:20:41Z</time>
      </trkpt>
      <trkpt lat="59.8720612" lon="17.8175133">
        <ele>23.209</ele>
        <time>2014-07-12T10:20:42Z</time>
      </trkpt>
      <trkpt lat="59.8720735" lon="17.81765">
        <ele>22.7283</ele>
        <time>2014-07-12T10:20:43Z</time>
      </trkpt>
      <trkpt lat="59.8720877" lon="17.8177894">
        <ele>22.7283</ele>
        <time>2014-07-12T10:20:44Z</time>
      </trkpt>
      <trkpt lat="59.8721027" lon="17.8179326">
        <ele>22.7283</ele>
        <time>2014-07-12T10:20:45Z</time>
      </trkpt>
      <trkpt lat="59.8721184" lon="17.8180787">
        <ele>22.7283</ele>
        <time>2014-07-12T10:20:46Z</time>
      </trkpt>
      <trkpt lat="59.8721338" lon="17.8182253">
        <ele>22.7283</ele>
        <time>2014-07-12T10:20:47Z</time>
      </trkpt>
      <trkpt lat="59.8721491" lon="17.8183721">
        <ele>22.7283</ele>
        <time>2014-07-12T10:20:48Z</time>
      </trkpt>
      <trkpt lat="59.8721652" lon="17.8185172">
        <ele>22.7283</ele>
        <time>2014-07-12T10:20:49Z</time>
      </trkpt>
      <trkpt lat="59.8721823" lon="17.8186607">
        <ele>22.7283</ele>
        <time>2014-07-12T10:20:50Z</time>
      </trkpt>
      <trkpt lat="59.8721995" lon="17.8188042">
        <ele>22.7283</ele>
        <time>2014-07-12T10:20:51Z</time>
      </trkpt>
      <trkpt lat="59.8722167" lon="17.8189475">
        <ele>23.209</ele>
        <time>2014-07-12T10:20:52Z</time>
      </trkpt>
      <trkpt lat="59.8722343" lon="17.8190883">
        <ele>23.209</ele>
        <time>2014-07-12T10:20:53Z</time>
      </trkpt>
      <trkpt lat="59.8722513" lon="17.8192272">
        <ele>23.209</ele>
        <time>2014-07-12T10:20:54Z</time>
      </trkpt>
      <trkpt lat="59.8722672" lon="17.8193635">
        <ele>23.209</ele>
        <time>2014-07-12T10:20:55Z</time>
      </trkpt>
      <trkpt lat="59.872283" lon="17.8194983">
        <ele>23.209</ele>
        <time>2014-07-12T10:20:56Z</time>
      </trkpt>
      <trkpt lat="59.8722986" lon="17.8196328">
        <ele>23.209</ele>
        <time>2014-07-12T10:20:57Z</time>
      </trkpt>
      <trkpt lat="59.8723147" lon="17.8197669">
        <ele>23.209</ele>
        <time>2014-07-12T10:20:58Z</time>
      </trkpt>
      <trkpt lat="59.8723311" lon="17.8199006">
        <ele>23.6896</ele>
        <time>2014-07-12T10:20:59Z</time>
      </trkpt>
      <trkpt lat="59.8723472" lon="17.8200318">
        <ele>23.6896</ele>
        <time>2014-07-12T10:21:00Z</time>
      </trkpt>
      <trkpt lat="59.8723629" lon="17.8201597">
        <ele>23.6896</ele>
        <time>2014-07-12T10:21:01Z</time>
      </trkpt>
      <trkpt lat="59.8723783" lon="17.8202846">
        <ele>23.6896</ele>
        <time>2014-07-12T10:21:02Z</time>
      </trkpt>
      <trkpt lat="59.8723923" lon="17.8204058">
        <ele>24.1703</ele>
        <time>2014-07-12T10:21:03Z</time>
      </trkpt>
      <trkpt lat="59.8724054" lon="17.8205217">
        <ele>24.1703</ele>
        <time>2014-07-12T10:21:04Z</time>
      </trkpt>
      <trkpt lat="59.8724187" lon="17.8206316">
        <ele>24.1703</ele>
        <time>2014-07-12T10:21:05Z</time>
      </trkpt>
      <trkpt lat="59.8724315" lon="17.8207402">
        <ele>24.651</ele>
        <time>2014-07-12T10:21:06Z</time>
      </trkpt>
      <trkpt lat="59.8724446" lon="17.8208508">
        <ele>24.651</ele>
        <time>2014-07-12T10:21:07Z</time>
      </trkpt>
      <trkpt lat="59.8724586" lon="17.8209641">
        <ele>24.651</ele>
        <time>2014-07-12T10:21:08Z</time>
      </trkpt>
      <trkpt lat="59.8724722" lon="17.8210802">
        <ele>25.1317</ele>
        <time>2014-07-12T10:21:09Z</time>
      </trkpt>
      <trkpt lat="59.8724865" lon="17.8211983">
        <ele>25.1317</ele>
        <time>2014-07-12T10:21:10Z</time>
      </trkpt>
      <trkpt lat="59.8725006" lon="17.821319">
        <ele>25.1317</ele>
        <time>2014-07-12T10:21:11Z</time>
      </trkpt>
      <trkpt lat="59.8725145" lon="17.8214422">
        <ele>25.6123</ele>
        <time>2014-07-12T10:21:12Z</time>
      </trkpt>
      <trkpt lat="59.872529" lon="17.8215662">
        <ele>25.6123</ele>
        <time>2014-07-12T10:21:13Z</time>
      </trkpt>
      <trkpt lat="59.8725435" lon="17.821691">
        <ele>26.0929</ele>
        <time>2014-07-12T10:21:14Z</time>
      </trkpt>
      <trkpt lat="59.872558" lon="17.8218161">
        <ele>26.0929</ele>
        <time>2014-07-12T10:21:15Z</time>
      </trkpt>
      <trkpt lat="59.8725727" lon="17.8219405">
        <ele>26.0929</ele>
        <time>2014-07-12T10:21:16Z</time>
      </trkpt>
      <trkpt lat="59.8725869" lon="17.8220651">
        <ele>26.5736</ele>
        <time>2014-07-12T10:21:17Z</time>
      </trkpt>
      <trkpt lat="59.8726005" lon="17.8221901">
        <ele>26.5736</ele>
        <time>2014-07-12T10:21:18Z</time>
      </trkpt>
      <trkpt lat="59.8726146" lon="17.8223157">
        <ele>26.5736</ele>
        <time>2014-07-12T10:21:19Z</time>
      </trkpt>
      <trkpt lat="59.8726295" lon="17.8224414">
        <ele>27.0543</ele>
        <time>2014-07-12T10:21:20Z</time>
      </trkpt>
      <trkpt lat="59.872644" lon="17.8225652">
        <ele>27.0543</ele>
        <time>2014-07-12T10:21:21Z</time>
      </trkpt>
      <trkpt lat="59.8726579" lon="17.8226861">
        <ele>27.5349</ele>
        <time>2014-07-12T10:21:22Z</time>
      </trkpt>
      <trkpt lat="59.872674" lon="17.8228031">
        <ele>27.5349</ele>
        <time>2014-07-12T10:21:23Z</time>
      </trkpt>
      <trkpt lat="59.8726942" lon="17.8229154">
        <ele>27.5349</ele>
        <time>2014-07-12T10:21:24Z</time>
      </trkpt>
      <trkpt lat="59.8727191" lon="17.8230241">
        <ele>27.5349</ele>
        <time>2014-07-12T10:21:25Z</time>
      </trkpt>
      <trkpt lat="59.8727487" lon="17.82313">
        <ele>27.5349</ele>
        <time>2014-07-12T10:21:26Z</time>
      </trkpt>
      <trkpt lat="59.8727817" lon="17.8232331">
        <ele>27.5349</ele>
        <time>2014-07-12T10:21:27Z</time>
      </trkpt>
      <trkpt lat="59.8728151" lon="17.8233363">
        <ele>27.5349</ele>
        <time>2014-07-12T10:21:28Z</time>
      </trkpt>
      <trkpt lat="59.8728461" lon="17.8234447">
        <ele>27.0543</ele>
        <time>2014-07-12T10:21:29Z</time>
      </trkpt>
      <trkpt lat="59.8728725" lon="17.8235595">
        <ele>27.0543</ele>
        <time>2014-07-12T10:21:30Z</time>
      </trkpt>
      <trkpt lat="59.8728927" lon="17.823681">
        <ele>26.5736</ele>
        <time>2014-07-12T10:21:31Z</time>
      </trkpt>
      <trkpt lat="59.8729047" lon="17.82381">
        <ele>26.5736</ele>
        <time>2014-07-12T10:21:32Z</time>
      </trkpt>
      <trkpt lat="59.8729096" lon="17.8239447">
        <ele>26.5736</ele>
        <time>2014-07-12T10:21:33Z</time>
      </trkpt>
      <trkpt lat="59.8729086" lon="17.8240827">
        <ele>26.0929</ele>
        <time>2014-07-12T10:21:34Z</time>
      </trkpt>
      <trkpt lat="59.8729006" lon="17.8242235">
        <ele>25.6123</ele>
        <time>2014-07-12T10:21:35Z</time>
      </trkpt>
      <trkpt lat="59.872888" lon="17.8243666">
        <ele>25.6123</ele>
        <time>2014-07-12T10:21:36Z</time>
      </trkpt>
      <trkpt lat="59.872873" lon="17.8245114">
        <ele>25.1317</ele>
        <time>2014-07-12T10:21:37Z</time>
      </trkpt>
      <trkpt lat="59.8728574" lon="17.8246571">
        <ele>25.1317</ele>
        <time>2014-07-12T10:21:38Z</time>
      </trkpt>
      <trkpt lat="59.8728413" lon="17.8248046">
        <ele>24.651</ele>
        <time>2014-07-12T10:21:39Z</time>
      </trkpt>
      <trkpt lat="59.8728241" lon="17.8249523">
        <ele>24.651</ele>
        <time>2014-07-12T10:21:40Z</time>
      </trkpt>
      <trkpt lat="59.872805" lon="17.8250991">
        <ele>24.1703</ele>
        <time>2014-07-12T10:21:41Z</time>
      </trkpt>
      <trkpt lat="59.8727837" lon="17.8252445">
        <ele>24.1703</ele>
        <time>2014-07-12T10:21:42Z</time>
      </trkpt>
      <trkpt lat="59.8727585" lon="17.825388">
        <ele>24.1703</ele>
        <time>2014-07-12T10:21:43Z</time>
      </trkpt>
      <trkpt lat="59.8727298" lon="17.825531">
        <ele>23.6896</ele>
        <time>2014-07-12T10:21:44Z</time>
      </trkpt>
      <trkpt lat="59.8726999" lon="17.825675">
        <ele>23.6896</ele>
        <time>2014-07-12T10:21:45Z</time>
      </trkpt>
      <trkpt lat="59.8726703" lon="17.8258186">
        <ele>23.6896</ele>
        <time>2014-07-12T10:21:46Z</time>
      </trkpt>
      <trkpt lat="59.8726408" lon="17.8259598">
        <ele>23.6896</ele>
        <time>2014-07-12T10:21:47Z</time>
      </trkpt>
      <trkpt lat="59.8726118" lon="17.8260977">
        <ele>23.6896</ele>
        <time>2014-07-12T10:21:48Z</time>
      </trkpt>
      <trkpt lat="59.8725833" lon="17.8262337">
        <ele>23.6896</ele>
        <time>2014-07-12T10:21:49Z</time>
      </trkpt>
      <trkpt lat="59.8725547" lon="17.8263696">
        <ele>23.6896</ele>
        <time>2014-07-12T10:21:50Z</time>
      </trkpt>
      <trkpt lat="59.8725268" lon="17.8265083">
        <ele>23.209</ele>
        <time>2014-07-12T10:21:51Z</time>
      </trkpt>
      <trkpt lat="59.8725017" lon="17.8266504">
        <ele>23.209</ele>
        <time>2014-07-12T10:21:52Z</time>
      </trkpt>
      <trkpt lat="59.8724802" lon="17.826794">
        <ele>23.209</ele>
        <time>2014-07-12T10:21:53Z</time>
      </trkpt>
      <trkpt lat="59.8724606" lon="17.8269367">
        <ele>23.209</ele>
        <time>2014-07-12T10:21:54Z</time>
      </trkpt>
      <trkpt lat="59.872442" lon="17.8270777">
        <ele>23.209</ele>
        <time>2014-07-12T10:21:55Z</time>
      </trkpt>
      <trkpt lat="59.8724249" lon="17.8272185">
        <ele>23.209</ele>
        <time>2014-07-12T10:21:56Z</time>
      </trkpt>
      <trkpt lat="59.872409" lon="17.8273616">
        <ele>23.209</ele>
        <time>2014-07-12T10:21:57Z</time>
      </trkpt>
      <trkpt lat="59.8723944" lon="17.8275061">
        <ele>23.209</ele>
        <time>2014-07-12T10:21:58Z</time>
      </trkpt>
      <trkpt lat="59.872381" lon="17.8276507">
        <ele>22.7283</ele>
        <time>2014-07-12T10:21:59Z</time>
      </trkpt>
      <trkpt lat="59.872368" lon="17.8277962">
        <ele>22.7283</ele>
        <time>2014-07-12T10:22:00Z</time>
      </trkpt>
      <trkpt lat="59.8723536" lon="17.8279424">
        <ele>22.7283</ele>
        <time>2014-07-12T10:22:01Z</time>
      </trkpt>
      <trkpt lat="59.8723375" lon="17.828089">
        <ele>22.7283</ele>
        <time>2014-07-12T10:22:02Z</time>
      </trkpt>
      <trkpt lat="59.8723202" lon="17.8282346">
        <ele>22.7283</ele>
        <time>2014-07-12T10:22:03Z</time>
      </trkpt>
      <trkpt lat="59.8723022" lon="17.828378">
        <ele>22.7283</ele>
        <time>2014-07-12T10:22:04Z</time>
      </trkpt>
      <trkpt lat="59.8722851" lon="17.828519">
        <ele>22.7283</ele>
        <time>2014-07-12T10:22:05Z</time>
      </trkpt>
      <trkpt lat="59.8722698" lon="17.8286583">
        <ele>22.7283</ele>
        <time>2014-07-12T10:22:06Z</time>
      </trkpt>
      <trkpt lat="59.8722555" lon="17.8287969">
        <ele>22.7283</ele>
        <time>2014-07-12T10:22:07Z</time>
      </trkpt>
      <trkpt lat="59.8722421" lon="17.8289358">
        <ele>22.7283</ele>
        <time>2014-07-12T10:22:08Z</time>
      </trkpt>
      <trkpt lat="59.8722275" lon="17.8290758">
        <ele>22.2476</ele>
        <time>2014-07-12T10:22:09Z</time>
      </trkpt>
      <trkpt lat="59.8722109" lon="17.8292162">
        <ele>22.2476</ele>
        <time>2014-07-12T10:22:10Z</time>
      </trkpt>
      <trkpt lat="59.8721937" lon="17.8293573">
        <ele>22.2476</ele>
        <time>2014-07-12T10:22:11Z</time>
      </trkpt>
      <trkpt lat="59.8721763" lon="17.8294966">
        <ele>22.2476</ele>
        <time>2014-07-12T10:22:12Z</time>
      </trkpt>
      <trkpt lat="59.8721582" lon="17.829633">
        <ele>22.2476</ele>
        <time>2014-07-12T10:22:13Z</time>
      </trkpt>
      <trkpt lat="59.8721427" lon="17.8297708">
        <ele>22.2476</ele>
        <time>2014-07-12T10:22:14Z</time>
      </trkpt>
      <trkpt lat="59.8721342" lon="17.8299056">
        <ele>22.2476</ele>
        <time>2014-07-12T10:22:15Z</time>
      </trkpt>
      <trkpt lat="59.8721374" lon="17.8300352">
        <ele>22.2476</ele>
        <time>2014-07-12T10:22:16Z</time>
      </trkpt>
      <trkpt lat="59.8721567" lon="17.8301571">
        <ele>22.7283</ele>
        <time>2014-07-12T10:22:17Z</time>
      </trkpt>
      <trkpt lat="59.8721927" lon="17.8302586">
        <ele>22.7283</ele>
        <time>2014-07-12T10:22:18Z</time>
      </trkpt>
      <trkpt lat="59.8722396" lon="17.8303338">
        <ele>23.209</ele>
        <time>2014-07-12T10:22:19Z</time>
      </trkpt>
      <trkpt lat="59.8722922" lon="17.8303925">
        <ele>23.209</ele>
        <time>2014-07-12T10:22:20Z</time>
      </trkpt>
      <trkpt lat="59.8723462" lon="17.8304438">
        <ele>23.6896</ele>
        <time>2014-07-12T10:22:21Z</time>
      </trkpt>
      <trkpt lat="59.8724001" lon="17.8304894">
        <ele>23.6896</ele>
        <time>2014-07-12T10:22:22Z</time>
      </trkpt>
      <trkpt lat="59.8724532" lon="17.8305287">
        <ele>24.1703</ele>
        <time>2014-07-12T10:22:23Z</time>
      </trkpt>
      <trkpt lat="59.8725048" lon="17.8305608">
        <ele>24.1703</ele>
        <time>2014-07-12T10:22:24Z</time>
      </trkpt>
      <trkpt lat="59.872555" lon="17.8305892">
        <ele>24.651</ele>
        <time>2014-07-12T10:22:25Z</time>
      </trkpt>
      <trkpt lat="59.8726032" lon="17.8306164">
        <ele>24.651</ele>
        <time>2014-07-12T10:22:26Z</time>
      </trkpt>
      <trkpt lat="59.8726502" lon="17.8306418">
        <ele>24.651</ele>
        <time>2014-07-12T10:22:27Z</time>
      </trkpt>
      <trkpt lat="59.8726964" lon="17.830664">
        <ele>25.1317</ele>
        <time>2014-07-12T10:22:28Z</time>
      </trkpt>
      <trkpt lat="59.8727419" lon="17.8306857">
        <ele>25.6123</ele>
        <time>2014-07-12T10:22:29Z</time>
      </trkpt>
      <trkpt lat="59.872787" lon="17.8307047">
        <ele>25.6123</ele>
        <time>2014-07-12T10:22:30Z</time>
      </trkpt>
      <trkpt lat="59.8728321" lon="17.8307199">
        <ele>26.0929</ele>
        <time>2014-07-12T10:22:31Z</time>
      </trkpt>
      <trkpt lat="59.8728766" lon="17.8307366">
        <ele>26.0929</ele>
        <time>2014-07-12T10:22:32Z</time>
      </trkpt>
      <trkpt lat="59.8729207" lon="17.8307554">
        <ele>26.5736</ele>
        <time>2014-07-12T10:22:33Z</time>
      </trkpt>
      <trkpt lat="59.8729643" lon="17.8307757">
        <ele>26.5736</ele>
        <time>2014-07-12T10:22:34Z</time>
      </trkpt>
      <trkpt lat="59.8730083" lon="17.8307995">
        <ele>26.5736</ele>
        <time>2014-07-12T10:22:35Z</time>
      </trkpt>
      <trkpt lat="59.8730513" lon="17.8308276">
        <ele>26.5736</ele>
        <time>2014-07-12T10:22:36Z</time>
      </trkpt>
      <trkpt lat="59.8730942" lon="17.8308597">
        <ele>26.5736</ele>
        <time>2014-07-12T10:22:37Z</time>
      </trkpt>
      <trkpt lat="59.8731372" lon="17.830893">
        <ele>27.0543</ele>
        <time>2014-07-12T10:22:38Z</time>
      </trkpt>
      <trkpt lat="59.8731805" lon="17.8309276">
        <ele>27.0543</ele>
        <time>2014-07-12T10:22:39Z</time>
      </trkpt>
      <trkpt lat="59.8732242" lon="17.8309631">
        <ele>27.0543</ele>
        <time>2014-07-12T10:22:40Z</time>
      </trkpt>
      <trkpt lat="59.8732686" lon="17.8309974">
        <ele>27.0543</ele>
        <time>2014-07-12T10:22:41Z</time>
      </trkpt>
      <trkpt lat="59.8733134" lon="17.8310306">
        <ele>27.5349</ele>
        <time>2014-07-12T10:22:42Z</time>
      </trkpt>
      <trkpt lat="59.8733575" lon="17.8310658">
        <ele>27.5349</ele>
        <time>2014-07-12T10:22:43Z</time>
      </trkpt>
      <trkpt lat="59.8734014" lon="17.8311037">
        <ele>27.5349</ele>
        <time>2014-07-12T10:22:44Z</time>
      </trkpt>
      <trkpt lat="59.8734464" lon="17.8311424">
        <ele>28.0155</ele>
        <time>2014-07-12T10:22:45Z</time>
      </trkpt>
      <trkpt lat="59.8734913" lon="17.8311809">
        <ele>28.0155</ele>
        <time>2014-07-12T10:22:46Z</time>
      </trkpt>
      <trkpt lat="59.8735351" lon="17.8312209">
        <ele>28.4962</ele>
        <time>2014-07-12T10:22:47Z</time>
      </trkpt>
      <trkpt lat="59.8735785" lon="17.8312629">
        <ele>28.4962</ele>
        <time>2014-07-12T10:22:48Z</time>
      </trkpt>
      <trkpt lat="59.8736215" lon="17.8313084">
        <ele>28.9769</ele>
        <time>2014-07-12T10:22:49Z</time>
      </trkpt>
      <trkpt lat="59.8736625" lon="17.8313587">
        <ele>28.9769</ele>
        <time>2014-07-12T10:22:50Z</time>
      </trkpt>
      <trkpt lat="59.8737018" lon="17.8314108">
        <ele>29.4575</ele>
        <time>2014-07-12T10:22:51Z</time>
      </trkpt>
      <trkpt lat="59.8737408" lon="17.8314616">
        <ele>29.4575</ele>
        <time>2014-07-12T10:22:52Z</time>
      </trkpt>
      <trkpt lat="59.8737796" lon="17.8315112">
        <ele>29.9381</ele>
        <time>2014-07-12T10:22:53Z</time>
      </trkpt>
      <trkpt lat="59.8738182" lon="17.8315627">
        <ele>29.9381</ele>
        <time>2014-07-12T10:22:54Z</time>
      </trkpt>
      <trkpt lat="59.8738572" lon="17.8316129">
        <ele>29.9381</ele>
        <time>2014-07-12T10:22:55Z</time>
      </trkpt>
      <trkpt lat="59.8738967" lon="17.8316614">
        <ele>29.9381</ele>
        <time>2014-07-12T10:22:56Z</time>
      </trkpt>
      <trkpt lat="59.8739355" lon="17.8317119">
        <ele>30.4188</ele>
        <time>2014-07-12T10:22:57Z</time>
      </trkpt>
      <trkpt lat="59.8739748" lon="17.8317629">
        <ele>30.4188</ele>
        <time>2014-07-12T10:22:58Z</time>
      </trkpt>
      <trkpt lat="59.8740147" lon="17.8318142">
        <ele>30.4188</ele>
        <time>2014-07-12T10:22:59Z</time>
      </trkpt>
      <trkpt lat="59.8740556" lon="17.8318648">
        <ele>30.4188</ele>
        <time>2014-07-12T10:23:00Z</time>
      </trkpt>
      <trkpt lat="59.874097" lon="17.831916">
        <ele>30.4188</ele>
        <time>2014-07-12T10:23:01Z</time>
      </trkpt>
      <trkpt lat="59.8741394" lon="17.8319687">
        <ele>30.4188</ele>
        <time>2014-07-12T10:23:02Z</time>
      </trkpt>
      <trkpt lat="59.8741825" lon="17.8320186">
        <ele>30.4188</ele>
        <time>2014-07-12T10:23:03Z</time>
      </trkpt>
      <trkpt lat="59.8742275" lon="17.8320663">
        <ele>30.4188</ele>
        <time>2014-07-12T10:23:04Z</time>
      </trkpt>
      <trkpt lat="59.8742738" lon="17.8321147">
        <ele>30.4188</ele>
        <time>2014-07-12T10:23:05Z</time>
      </trkpt>
      <trkpt lat="59.8743219" lon="17.8321614">
        <ele>30.4188</ele>
        <time>2014-07-12T10:23:06Z</time>
      </trkpt>
      <trkpt lat="59.8743716" lon="17.832205">
        <ele>30.4188</ele>
        <time>2014-07-12T10:23:07Z</time>
      </trkpt>
      <trkpt lat="59.8744224" lon="17.8322465">
        <ele>30.4188</ele>
        <time>2014-07-12T10:23:08Z</time>
      </trkpt>
      <trkpt lat="59.8744763" lon="17.8322828">
        <ele>29.9381</ele>
        <time>2014-07-12T10:23:09Z</time>
      </trkpt>
      <trkpt lat="59.8745337" lon="17.8323133">
        <ele>29.9381</ele>
        <time>2014-07-12T10:23:10Z</time>
      </trkpt>
      <trkpt lat="59.8745931" lon="17.8323376">
        <ele>29.4575</ele>
        <time>2014-07-12T10:23:11Z</time>
      </trkpt>
      <trkpt lat="59.874656" lon="17.8323552">
        <ele>29.4575</ele>
        <time>2014-07-12T10:23:12Z</time>
      </trkpt>
      <trkpt lat="59.8747234" lon="17.8323709">
        <ele>28.9769</ele>
        <time>2014-07-12T10:23:13Z</time>
      </trkpt>
      <trkpt lat="59.8747922" lon="17.8323874">
        <ele>28.9769</ele>
        <time>2014-07-12T10:23:14Z</time>
      </trkpt>
      <trkpt lat="59.8748622" lon="17.8324034">
        <ele>28.9769</ele>
        <time>2014-07-12T10:23:15Z</time>
      </trkpt>
      <trkpt lat="59.8749307" lon="17.8324184">
        <ele>28.4962</ele>
        <time>2014-07-12T10:23:16Z</time>
      </trkpt>
      <trkpt lat="59.8749979" lon="17.832435">
        <ele>28.4962</ele>
        <time>2014-07-12T10:23:17Z</time>
      </trkpt>
      <trkpt lat="59.8750658" lon="17.8324537">
        <ele>28.4962</ele>
        <time>2014-07-12T10:23:18Z</time>
      </trkpt>
      <trkpt lat="59.8751336" lon="17.8324705">
        <ele>28.9769</ele>
        <time>2014-07-12T10:23:19Z</time>
      </trkpt>
      <trkpt lat="59.8752034" lon="17.8324866">
        <ele>28.4962</ele>
        <time>2014-07-12T10:23:20Z</time>
      </trkpt>
      <trkpt lat="59.8752735" lon="17.8325113">
        <ele>28.4962</ele>
        <time>2014-07-12T10:23:21Z</time>
      </trkpt>
      <trkpt lat="59.8753418" lon="17.8325438">
        <ele>28.9769</ele>
        <time>2014-07-12T10:23:22Z</time>
      </trkpt>
      <trkpt lat="59.8754081" lon="17.8325778">
        <ele>28.9769</ele>
        <time>2014-07-12T10:23:23Z</time>
      </trkpt>
      <trkpt lat="59.8754722" lon="17.8326138">
        <ele>28.9769</ele>
        <time>2014-07-12T10:23:24Z</time>
      </trkpt>
      <trkpt lat="59.8755346" lon="17.8326568">
        <ele>28.9769</ele>
        <time>2014-07-12T10:23:25Z</time>
      </trkpt>
      <trkpt lat="59.8755957" lon="17.8327085">
        <ele>28.9769</ele>
        <time>2014-07-12T10:23:26Z</time>
      </trkpt>
      <trkpt lat="59.8756552" lon="17.8327679">
        <ele>28.9769</ele>
        <time>2014-07-12T10:23:27Z</time>
      </trkpt>
      <trkpt lat="59.8757142" lon="17.8328285">
        <ele>28.9769</ele>
        <time>2014-07-12T10:23:28Z</time>
      </trkpt>
      <trkpt lat="59.8757734" lon="17.8328887">
        <ele>28.4962</ele>
        <time>2014-07-12T10:23:29Z</time>
      </trkpt>
      <trkpt lat="59.8758333" lon="17.8329502">
        <ele>28.4962</ele>
        <time>2014-07-12T10:23:30Z</time>
      </trkpt>
      <trkpt lat="59.8758949" lon="17.83301">
        <ele>28.4962</ele>
        <time>2014-07-12T10:23:31Z</time>
      </trkpt>
      <trkpt lat="59.8759572" lon="17.8330679">
        <ele>28.0155</ele>
        <time>2014-07-12T10:23:32Z</time>
      </trkpt>
      <trkpt lat="59.8760213" lon="17.8331241">
        <ele>28.0155</ele>
        <time>2014-07-12T10:23:33Z</time>
      </trkpt>
      <trkpt lat="59.8760858" lon="17.8331764">
        <ele>27.5349</ele>
        <time>2014-07-12T10:23:34Z</time>
      </trkpt>
      <trkpt lat="59.8761509" lon="17.8332228">
        <ele>27.5349</ele>
        <time>2014-07-12T10:23:35Z</time>
      </trkpt>
      <trkpt lat="59.8762152" lon="17.8332693">
        <ele>27.5349</ele>
        <time>2014-07-12T10:23:36Z</time>
      </trkpt>
      <trkpt lat="59.8762769" lon="17.8333156">
        <ele>27.0543</ele>
        <time>2014-07-12T10:23:37Z</time>
      </trkpt>
      <trkpt lat="59.8763367" lon="17.8333571">
        <ele>27.0543</ele>
        <time>2014-07-12T10:23:38Z</time>
      </trkpt>
      <trkpt lat="59.8763949" lon="17.8333979">
        <ele>27.0543</ele>
        <time>2014-07-12T10:23:39Z</time>
      </trkpt>
      <trkpt lat="59.8764505" lon="17.8334379">
        <ele>27.0543</ele>
        <time>2014-07-12T10:23:40Z</time>
      </trkpt>
      <trkpt lat="59.8765042" lon="17.8334741">
        <ele>27.0543</ele>
        <time>2014-07-12T10:23:41Z</time>
      </trkpt>
      <trkpt lat="59.8765574" lon="17.8335086">
        <ele>27.0543</ele>
        <time>2014-07-12T10:23:42Z</time>
      </trkpt>
      <trkpt lat="59.8766119" lon="17.833544">
        <ele>27.0543</ele>
        <time>2014-07-12T10:23:43Z</time>
      </trkpt>
      <trkpt lat="59.8766684" lon="17.8335807">
        <ele>27.0543</ele>
        <time>2014-07-12T10:23:44Z</time>
      </trkpt>
      <trkpt lat="59.876727" lon="17.8336192">
        <ele>26.5736</ele>
        <time>2014-07-12T10:23:45Z</time>
      </trkpt>
      <trkpt lat="59.8767897" lon="17.8336642">
        <ele>26.5736</ele>
        <time>2014-07-12T10:23:46Z</time>
      </trkpt>
      <trkpt lat="59.8768549" lon="17.8337125">
        <ele>26.0929</ele>
        <time>2014-07-12T10:23:47Z</time>
      </trkpt>
      <trkpt lat="59.8769197" lon="17.8337632">
        <ele>25.6123</ele>
        <time>2014-07-12T10:23:48Z</time>
      </trkpt>
      <trkpt lat="59.8769855" lon="17.8338186">
        <ele>25.6123</ele>
        <time>2014-07-12T10:23:49Z</time>
      </trkpt>
      <trkpt lat="59.8770518" lon="17.8338792">
        <ele>25.1317</ele>
        <time>2014-07-12T10:23:50Z</time>
      </trkpt>
      <trkpt lat="59.8771182" lon="17.8339454">
        <ele>25.1317</ele>
        <time>2014-07-12T10:23:51Z</time>
      </trkpt>
      <trkpt lat="59.877184" lon="17.8340175">
        <ele>25.1317</ele>
        <time>2014-07-12T10:23:52Z</time>
      </trkpt>
      <trkpt lat="59.8772492" lon="17.8340925">
        <ele>24.651</ele>
        <time>2014-07-12T10:23:53Z</time>
      </trkpt>
      <trkpt lat="59.877313" lon="17.8341683">
        <ele>24.651</ele>
        <time>2014-07-12T10:23:54Z</time>
      </trkpt>
      <trkpt lat="59.8773745" lon="17.8342449">
        <ele>24.1703</ele>
        <time>2014-07-12T10:23:55Z</time>
      </trkpt>
      <trkpt lat="59.8774332" lon="17.8343217">
        <ele>24.1703</ele>
        <time>2014-07-12T10:23:56Z</time>
      </trkpt>
      <trkpt lat="59.877492" lon="17.8343992">
        <ele>24.1703</ele>
        <time>2014-07-12T10:23:57Z</time>
      </trkpt>
      <trkpt lat="59.8775502" lon="17.8344775">
        <ele>24.1703</ele>
        <time>2014-07-12T10:23:58Z</time>
      </trkpt>
      <trkpt lat="59.8776085" lon="17.8345559">
        <ele>23.6896</ele>
        <time>2014-07-12T10:23:59Z</time>
      </trkpt>
      <trkpt lat="59.8776668" lon="17.8346334">
        <ele>24.1703</ele>
        <time>2014-07-12T10:24:00Z</time>
      </trkpt>
      <trkpt lat="59.8777261" lon="17.8347074">
        <ele>24.1703</ele>
        <time>2014-07-12T10:24:01Z</time>
      </trkpt>
      <trkpt lat="59.8777863" lon="17.8347762">
        <ele>24.651</ele>
        <time>2014-07-12T10:24:02Z</time>
      </trkpt>
      <trkpt lat="59.8778467" lon="17.8348412">
        <ele>25.1317</ele>
        <time>2014-07-12T10:24:03Z</time>
      </trkpt>
      <trkpt lat="59.8779065" lon="17.8349071">
        <ele>25.6123</ele>
        <time>2014-07-12T10:24:04Z</time>
      </trkpt>
      <trkpt lat="59.8779661" lon="17.8349713">
        <ele>25.1317</ele>
        <time>2014-07-12T10:24:05Z</time>
      </trkpt>
      <trkpt lat="59.878026" lon="17.8350339">
        <ele>25.1317</ele>
        <time>2014-07-12T10:24:06Z</time>
      </trkpt>
      <trkpt lat="59.8780869" lon="17.8350981">
        <ele>25.1317</ele>
        <time>2014-07-12T10:24:07Z</time>
      </trkpt>
      <trkpt lat="59.8781469" lon="17.8351639">
        <ele>25.1317</ele>
        <time>2014-07-12T10:24:08Z</time>
      </trkpt>
      <trkpt lat="59.8782063" lon="17.8352284">
        <ele>24.651</ele>
        <time>2014-07-12T10:24:09Z</time>
      </trkpt>
      <trkpt lat="59.8782654" lon="17.8352916">
        <ele>24.651</ele>
        <time>2014-07-12T10:24:10Z</time>
      </trkpt>
      <trkpt lat="59.8783262" lon="17.835355">
        <ele>24.1703</ele>
        <time>2014-07-12T10:24:11Z</time>
      </trkpt>
      <trkpt lat="59.8783898" lon="17.8354161">
        <ele>24.1703</ele>
        <time>2014-07-12T10:24:12Z</time>
      </trkpt>
      <trkpt lat="59.8784562" lon="17.8354735">
        <ele>24.1703</ele>
        <time>2014-07-12T10:24:13Z</time>
      </trkpt>
      <trkpt lat="59.878524" lon="17.8355255">
        <ele>24.651</ele>
        <time>2014-07-12T10:24:14Z</time>
      </trkpt>
      <trkpt lat="59.8785908" lon="17.8355753">
        <ele>25.1317</ele>
        <time>2014-07-12T10:24:15Z</time>
      </trkpt>
      <trkpt lat="59.8786574" lon="17.8356222">
        <ele>25.6123</ele>
        <time>2014-07-12T10:24:16Z</time>
      </trkpt>
      <trkpt lat="59.878723" lon="17.8356638">
        <ele>25.6123</ele>
        <time>2014-07-12T10:24:17Z</time>
      </trkpt>
      <trkpt lat="59.8787882" lon="17.835701">
        <ele>26.0929</ele>
        <time>2014-07-12T10:24:18Z</time>
      </trkpt>
      <trkpt lat="59.8788517" lon="17.8357335">
        <ele>26.0929</ele>
        <time>2014-07-12T10:24:19Z</time>
      </trkpt>
      <trkpt lat="59.8789136" lon="17.8357612">
        <ele>26.5736</ele>
        <time>2014-07-12T10:24:20Z</time>
      </trkpt>
      <trkpt lat="59.8789752" lon="17.8357854">
        <ele>26.5736</ele>
        <time>2014-07-12T10:24:21Z</time>
      </trkpt>
      <trkpt lat="59.8790374" lon="17.8358021">
        <ele>26.5736</ele>
        <time>2014-07-12T10:24:22Z</time>
      </trkpt>
      <trkpt lat="59.8791021" lon="17.8358162">
        <ele>27.0543</ele>
        <time>2014-07-12T10:24:23Z</time>
      </trkpt>
      <trkpt lat="59.8791663" lon="17.835829">
        <ele>26.5736</ele>
        <time>2014-07-12T10:24:24Z</time>
      </trkpt>
      <trkpt lat="59.8792326" lon="17.8358409">
        <ele>27.0543</ele>
        <time>2014-07-12T10:24:25Z</time>
      </trkpt>
      <trkpt lat="59.8793005" lon="17.8358544">
        <ele>27.0543</ele>
        <time>2014-07-12T10:24:26Z</time>
      </trkpt>
      <trkpt lat="59.8793676" lon="17.8358649">
        <ele>27.0543</ele>
        <time>2014-07-12T10:24:27Z</time>
      </trkpt>
      <trkpt lat="59.8795096" lon="17.8358718">
        <ele>27.5349</ele>
        <time>2014-07-12T10:24:29Z</time>
      </trkpt>
      <trkpt lat="59.8795791" lon="17.8358728">
        <ele>27.5349</ele>
        <time>2014-07-12T10:24:30Z</time>
      </trkpt>
      <trkpt lat="59.8796442" lon="17.8358737">
        <ele>27.5349</ele>
        <time>2014-07-12T10:24:31Z</time>
      </trkpt>
      <trkpt lat="59.8797061" lon="17.8358768">
        <ele>28.0155</ele>
        <time>2014-07-12T10:24:32Z</time>
      </trkpt>
      <trkpt lat="59.8797641" lon="17.835885">
        <ele>28.0155</ele>
        <time>2014-07-12T10:24:33Z</time>
      </trkpt>
      <trkpt lat="59.8798204" lon="17.8358962">
        <ele>28.0155</ele>
        <time>2014-07-12T10:24:34Z</time>
      </trkpt>
      <trkpt lat="59.8798759" lon="17.8359119">
        <ele>28.0155</ele>
        <time>2014-07-12T10:24:35Z</time>
      </trkpt>
      <trkpt lat="59.8799323" lon="17.8359366">
        <ele>28.0155</ele>
        <time>2014-07-12T10:24:36Z</time>
      </trkpt>
      <trkpt lat="59.8799905" lon="17.8359715">
        <ele>27.5349</ele>
        <time>2014-07-12T10:24:37Z</time>
      </trkpt>
      <trkpt lat="59.8800531" lon="17.8360168">
        <ele>27.0543</ele>
        <time>2014-07-12T10:24:38Z</time>
      </trkpt>
      <trkpt lat="59.8801189" lon="17.836072">
        <ele>27.0543</ele>
        <time>2014-07-12T10:24:39Z</time>
      </trkpt>
      <trkpt lat="59.8801864" lon="17.836136">
        <ele>26.5736</ele>
        <time>2014-07-12T10:24:40Z</time>
      </trkpt>
      <trkpt lat="59.8802551" lon="17.8362044">
        <ele>26.0929</ele>
        <time>2014-07-12T10:24:41Z</time>
      </trkpt>
      <trkpt lat="59.880323" lon="17.8362758">
        <ele>26.0929</ele>
        <time>2014-07-12T10:24:42Z</time>
      </trkpt>
      <trkpt lat="59.8803897" lon="17.8363513">
        <ele>26.0929</ele>
        <time>2014-07-12T10:24:43Z</time>
      </trkpt>
      <trkpt lat="59.8804555" lon="17.8364313">
        <ele>26.0929</ele>
        <time>2014-07-12T10:24:44Z</time>
      </trkpt>
      <trkpt lat="59.8805205" lon="17.8365157">
        <ele>26.0929</ele>
        <time>2014-07-12T10:24:45Z</time>
      </trkpt>
      <trkpt lat="59.8805845" lon="17.836603">
        <ele>26.0929</ele>
        <time>2014-07-12T10:24:46Z</time>
      </trkpt>
      <trkpt lat="59.8806458" lon="17.8366915">
        <ele>26.0929</ele>
        <time>2014-07-12T10:24:47Z</time>
      </trkpt>
      <trkpt lat="59.8807038" lon="17.8367826">
        <ele>26.0929</ele>
        <time>2014-07-12T10:24:48Z</time>
      </trkpt>
      <trkpt lat="59.88076" lon="17.8368759">
        <ele>26.0929</ele>
        <time>2014-07-12T10:24:49Z</time>
      </trkpt>
      <trkpt lat="59.8808146" lon="17.8369685">
        <ele>26.5736</ele>
        <time>2014-07-12T10:24:50Z</time>
      </trkpt>
      <trkpt lat="59.8808684" lon="17.8370593">
        <ele>26.5736</ele>
        <time>2014-07-12T10:24:51Z</time>
      </trkpt>
      <trkpt lat="59.8809208" lon="17.8371488">
        <ele>26.5736</ele>
        <time>2014-07-12T10:24:52Z</time>
      </trkpt>
      <trkpt lat="59.8809753" lon="17.8372368">
        <ele>27.0543</ele>
        <time>2014-07-12T10:24:53Z</time>
      </trkpt>
      <trkpt lat="59.881031" lon="17.8373241">
        <ele>27.0543</ele>
        <time>2014-07-12T10:24:54Z</time>
      </trkpt>
      <trkpt lat="59.8810861" lon="17.837412">
        <ele>27.0543</ele>
        <time>2014-07-12T10:24:55Z</time>
      </trkpt>
      <trkpt lat="59.881143" lon="17.8374983">
        <ele>26.5736</ele>
        <time>2014-07-12T10:24:56Z</time>
      </trkpt>
      <trkpt lat="59.8812011" lon="17.837582">
        <ele>26.5736</ele>
        <time>2014-07-12T10:24:57Z</time>
      </trkpt>
      <trkpt lat="59.8812583" lon="17.8376664">
        <ele>26.5736</ele>
        <time>2014-07-12T10:24:58Z</time>
      </trkpt>
      <trkpt lat="59.8813141" lon="17.8377496">
        <ele>26.0929</ele>
        <time>2014-07-12T10:24:59Z</time>
      </trkpt>
      <trkpt lat="59.8813684" lon="17.8378317">
        <ele>26.0929</ele>
        <time>2014-07-12T10:25:00Z</time>
      </trkpt>
      <trkpt lat="59.8814215" lon="17.8379135">
        <ele>25.6123</ele>
        <time>2014-07-12T10:25:01Z</time>
      </trkpt>
      <trkpt lat="59.8814746" lon="17.8379965">
        <ele>25.6123</ele>
        <time>2014-07-12T10:25:02Z</time>
      </trkpt>
      <trkpt lat="59.8815293" lon="17.8380812">
        <ele>25.1317</ele>
        <time>2014-07-12T10:25:03Z</time>
      </trkpt>
      <trkpt lat="59.8815832" lon="17.8381664">
        <ele>25.1317</ele>
        <time>2014-07-12T10:25:04Z</time>
      </trkpt>
      <trkpt lat="59.8816377" lon="17.8382528">
        <ele>25.1317</ele>
        <time>2014-07-12T10:25:05Z</time>
      </trkpt>
      <trkpt lat="59.8816905" lon="17.8383362">
        <ele>24.651</ele>
        <time>2014-07-12T10:25:06Z</time>
      </trkpt>
      <trkpt lat="59.8817434" lon="17.8384174">
        <ele>24.651</ele>
        <time>2014-07-12T10:25:07Z</time>
      </trkpt>
      <trkpt lat="59.8817945" lon="17.8384976">
        <ele>24.651</ele>
        <time>2014-07-12T10:25:08Z</time>
      </trkpt>
      <trkpt lat="59.8818465" lon="17.8385756">
        <ele>24.651</ele>
        <time>2014-07-12T10:25:09Z</time>
      </trkpt>
      <trkpt lat="59.8818982" lon="17.8386517">
        <ele>24.651</ele>
        <time>2014-07-12T10:25:10Z</time>
      </trkpt>
      <trkpt lat="59.8819494" lon="17.8387237">
        <ele>24.1703</ele>
        <time>2014-07-12T10:25:11Z</time>
      </trkpt>
      <trkpt lat="59.8820015" lon="17.8387873">
        <ele>24.1703</ele>
        <time>2014-07-12T10:25:12Z</time>
      </trkpt>
      <trkpt lat="59.8820556" lon="17.8388452">
        <ele>24.1703</ele>
        <time>2014-07-12T10:25:13Z</time>
      </trkpt>
      <trkpt lat="59.8821108" lon="17.8388961">
        <ele>24.1703</ele>
        <time>2014-07-12T10:25:14Z</time>
      </trkpt>
      <trkpt lat="59.8821669" lon="17.8389397">
        <ele>24.1703</ele>
        <time>2014-07-12T10:25:15Z</time>
      </trkpt>
      <trkpt lat="59.8822221" lon="17.8389728">
        <ele>24.1703</ele>
        <time>2014-07-12T10:25:16Z</time>
      </trkpt>
      <trkpt lat="59.8822764" lon="17.8389951">
        <ele>24.651</ele>
        <time>2014-07-12T10:25:17Z</time>
      </trkpt>
      <trkpt lat="59.8823286" lon="17.8390187">
        <ele>25.1317</ele>
        <time>2014-07-12T10:25:18Z</time>
      </trkpt>
      <trkpt lat="59.882378" lon="17.8390448">
        <ele>25.6123</ele>
        <time>2014-07-12T10:25:19Z</time>
      </trkpt>
      <trkpt lat="59.8824267" lon="17.8390656">
        <ele>26.0929</ele>
        <time>2014-07-12T10:25:20Z</time>
      </trkpt>
      <trkpt lat="59.8824744" lon="17.8390831">
        <ele>26.5736</ele>
        <time>2014-07-12T10:25:21Z</time>
      </trkpt>
      <trkpt lat="59.8825209" lon="17.8390982">
        <ele>27.0543</ele>
        <time>2014-07-12T10:25:22Z</time>
      </trkpt>
      <trkpt lat="59.8825664" lon="17.8391119">
        <ele>27.5349</ele>
        <time>2014-07-12T10:25:23Z</time>
      </trkpt>
      <trkpt lat="59.8826101" lon="17.8391272">
        <ele>27.5349</ele>
        <time>2014-07-12T10:25:24Z</time>
      </trkpt>
      <trkpt lat="59.8826534" lon="17.8391467">
        <ele>28.0155</ele>
        <time>2014-07-12T10:25:25Z</time>
      </trkpt>
      <trkpt lat="59.8826963" lon="17.8391701">
        <ele>28.4962</ele>
        <time>2014-07-12T10:25:26Z</time>
      </trkpt>
      <trkpt lat="59.8827395" lon="17.8391951">
        <ele>28.4962</ele>
        <time>2014-07-12T10:25:27Z</time>
      </trkpt>
      <trkpt lat="59.8827844" lon="17.8392256">
        <ele>28.9769</ele>
        <time>2014-07-12T10:25:28Z</time>
      </trkpt>
      <trkpt lat="59.8828302" lon="17.839265">
        <ele>28.9769</ele>
        <time>2014-07-12T10:25:29Z</time>
      </trkpt>
      <trkpt lat="59.8828779" lon="17.8393132">
        <ele>28.9769</ele>
        <time>2014-07-12T10:25:30Z</time>
      </trkpt>
      <trkpt lat="59.8829282" lon="17.8393697">
        <ele>28.4962</ele>
        <time>2014-07-12T10:25:31Z</time>
      </trkpt>
      <trkpt lat="59.8829819" lon="17.8394329">
        <ele>28.4962</ele>
        <time>2014-07-12T10:25:32Z</time>
      </trkpt>
      <trkpt lat="59.883038" lon="17.8395008">
        <ele>28.0155</ele>
        <time>2014-07-12T10:25:33Z</time>
      </trkpt>
      <trkpt lat="59.8830975" lon="17.8395732">
        <ele>27.5349</ele>
        <time>2014-07-12T10:25:34Z</time>
      </trkpt>
      <trkpt lat="59.88316" lon="17.8396505">
        <ele>27.0543</ele>
        <time>2014-07-12T10:25:35Z</time>
      </trkpt>
      <trkpt lat="59.8832245" lon="17.8397339">
        <ele>26.5736</ele>
        <time>2014-07-12T10:25:36Z</time>
      </trkpt>
      <trkpt lat="59.8832902" lon="17.8398232">
        <ele>26.0929</ele>
        <time>2014-07-12T10:25:37Z</time>
      </trkpt>
      <trkpt lat="59.8833579" lon="17.8399162">
        <ele>25.6123</ele>
        <time>2014-07-12T10:25:38Z</time>
      </trkpt>
      <trkpt lat="59.8834259" lon="17.8400098">
        <ele>24.651</ele>
        <time>2014-07-12T10:25:39Z</time>
      </trkpt>
      <trkpt lat="59.8834962" lon="17.8401039">
        <ele>24.1703</ele>
        <time>2014-07-12T10:25:40Z</time>
      </trkpt>
      <trkpt lat="59.8835692" lon="17.8401972">
        <ele>23.6896</ele>
        <time>2014-07-12T10:25:41Z</time>
      </trkpt>
      <trkpt lat="59.8836424" lon="17.8402906">
        <ele>23.209</ele>
        <time>2014-07-12T10:25:42Z</time>
      </trkpt>
      <trkpt lat="59.8837149" lon="17.8403849">
        <ele>22.7283</ele>
        <time>2014-07-12T10:25:43Z</time>
      </trkpt>
      <trkpt lat="59.8837876" lon="17.8404806">
        <ele>21.767</ele>
        <time>2014-07-12T10:25:44Z</time>
      </trkpt>
      <trkpt lat="59.8838599" lon="17.8405764">
        <ele>21.2864</ele>
        <time>2014-07-12T10:25:45Z</time>
      </trkpt>
      <trkpt lat="59.8839318" lon="17.8406712">
        <ele>20.8057</ele>
        <time>2014-07-12T10:25:46Z</time>
      </trkpt>
      <trkpt lat="59.8840017" lon="17.8407658">
        <ele>20.325</ele>
        <time>2014-07-12T10:25:47Z</time>
      </trkpt>
      <trkpt lat="59.8840708" lon="17.8408594">
        <ele>20.325</ele>
        <time>2014-07-12T10:25:48Z</time>
      </trkpt>
      <trkpt lat="59.8841396" lon="17.840949">
        <ele>19.8444</ele>
        <time>2014-07-12T10:25:49Z</time>
      </trkpt>
      <trkpt lat="59.8842112" lon="17.8410359">
        <ele>20.325</ele>
        <time>2014-07-12T10:25:50Z</time>
      </trkpt>
      <trkpt lat="59.8842848" lon="17.8411198">
        <ele>20.8057</ele>
        <time>2014-07-12T10:25:51Z</time>
      </trkpt>
      <trkpt lat="59.8843593" lon="17.8412">
        <ele>21.2864</ele>
        <time>2014-07-12T10:25:52Z</time>
      </trkpt>
      <trkpt lat="59.884435" lon="17.8412739">
        <ele>21.767</ele>
        <time>2014-07-12T10:25:53Z</time>
      </trkpt>
      <trkpt lat="59.8845125" lon="17.8413387">
        <ele>21.767</ele>
        <time>2014-07-12T10:25:54Z</time>
      </trkpt>
      <trkpt lat="59.8845914" lon="17.8413935">
        <ele>21.767</ele>
        <time>2014-07-12T10:25:55Z</time>
      </trkpt>
      <trkpt lat="59.8846721" lon="17.8414416">
        <ele>21.767</ele>
        <time>2014-07-12T10:25:56Z</time>
      </trkpt>
      <trkpt lat="59.884753" lon="17.8414816">
        <ele>22.2476</ele>
        <time>2014-07-12T10:25:57Z</time>
      </trkpt>
      <trkpt lat="59.8848344" lon="17.8415095">
        <ele>22.2476</ele>
        <time>2014-07-12T10:25:58Z</time>
      </trkpt>
      <trkpt lat="59.8849171" lon="17.8415245">
        <ele>22.2476</ele>
        <time>2014-07-12T10:25:59Z</time>
      </trkpt>
      <trkpt lat="59.8849982" lon="17.841534">
        <ele>22.7283</ele>
        <time>2014-07-12T10:26:00Z</time>
      </trkpt>
      <trkpt lat="59.8850777" lon="17.8415378">
        <ele>22.7283</ele>
        <time>2014-07-12T10:26:01Z</time>
      </trkpt>
      <trkpt lat="59.885156" lon="17.8415328">
        <ele>22.7283</ele>
        <time>2014-07-12T10:26:02Z</time>
      </trkpt>
      <trkpt lat="59.8852322" lon="17.8415239">
        <ele>23.209</ele>
        <time>2014-07-12T10:26:03Z</time>
      </trkpt>
      <trkpt lat="59.8853058" lon="17.8415134">
        <ele>23.209</ele>
        <time>2014-07-12T10:26:04Z</time>
      </trkpt>
      <trkpt lat="59.8853763" lon="17.8415048">
        <ele>23.6896</ele>
        <time>2014-07-12T10:26:05Z</time>
      </trkpt>
      <trkpt lat="59.8854446" lon="17.8414984">
        <ele>23.6896</ele>
        <time>2014-07-12T10:26:06Z</time>
      </trkpt>
      <trkpt lat="59.8855109" lon="17.8414913">
        <ele>24.1703</ele>
        <time>2014-07-12T10:26:07Z</time>
      </trkpt>
      <trkpt lat="59.8855766" lon="17.841487">
        <ele>24.1703</ele>
        <time>2014-07-12T10:26:08Z</time>
      </trkpt>
      <trkpt lat="59.8856425" lon="17.8414872">
        <ele>24.1703</ele>
        <time>2014-07-12T10:26:09Z</time>
      </trkpt>
      <trkpt lat="59.8857093" lon="17.8414892">
        <ele>24.1703</ele>
        <time>2014-07-12T10:26:10Z</time>
      </trkpt>
      <trkpt lat="59.8857773" lon="17.8414861">
        <ele>24.1703</ele>
        <time>2014-07-12T10:26:11Z</time>
      </trkpt>
      <trkpt lat="59.8858466" lon="17.841479">
        <ele>24.651</ele>
        <time>2014-07-12T10:26:12Z</time>
      </trkpt>
      <trkpt lat="59.8859165" lon="17.84147">
        <ele>24.651</ele>
        <time>2014-07-12T10:26:13Z</time>
      </trkpt>
      <trkpt lat="59.8859868" lon="17.8414586">
        <ele>24.651</ele>
        <time>2014-07-12T10:26:14Z</time>
      </trkpt>
      <trkpt lat="59.8860569" lon="17.841442">
        <ele>25.1317</ele>
        <time>2014-07-12T10:26:15Z</time>
      </trkpt>
      <trkpt lat="59.8861269" lon="17.8414204">
        <ele>25.1317</ele>
        <time>2014-07-12T10:26:16Z</time>
      </trkpt>
      <trkpt lat="59.8861973" lon="17.8414011">
        <ele>25.1317</ele>
        <time>2014-07-12T10:26:17Z</time>
      </trkpt>
      <trkpt lat="59.8862677" lon="17.8413747">
        <ele>25.1317</ele>
        <time>2014-07-12T10:26:18Z</time>
      </trkpt>
      <trkpt lat="59.8863376" lon="17.8413396">
        <ele>25.1317</ele>
        <time>2014-07-12T10:26:19Z</time>
      </trkpt>
      <trkpt lat="59.8864072" lon="17.8413017">
        <ele>25.6123</ele>
        <time>2014-07-12T10:26:20Z</time>
      </trkpt>
      <trkpt lat="59.886476" lon="17.8412638">
        <ele>25.6123</ele>
        <time>2014-07-12T10:26:21Z</time>
      </trkpt>
      <trkpt lat="59.8865465" lon="17.8412259">
        <ele>25.6123</ele>
        <time>2014-07-12T10:26:22Z</time>
      </trkpt>
      <trkpt lat="59.8866167" lon="17.8411905">
        <ele>25.6123</ele>
        <time>2014-07-12T10:26:23Z</time>
      </trkpt>
      <trkpt lat="59.8866856" lon="17.8411645">
        <ele>25.6123</ele>
        <time>2014-07-12T10:26:24Z</time>
      </trkpt>
      <trkpt lat="59.8867555" lon="17.841142">
        <ele>25.6123</ele>
        <time>2014-07-12T10:26:25Z</time>
      </trkpt>
      <trkpt lat="59.8868278" lon="17.8411315">
        <ele>25.1317</ele>
        <time>2014-07-12T10:26:26Z</time>
      </trkpt>
      <trkpt lat="59.886901" lon="17.8411375">
        <ele>25.1317</ele>
        <time>2014-07-12T10:26:27Z</time>
      </trkpt>
      <trkpt lat="59.8869738" lon="17.8411635">
        <ele>25.1317</ele>
        <time>2014-07-12T10:26:28Z</time>
      </trkpt>
      <trkpt lat="59.8870441" lon="17.8412117">
        <ele>25.1317</ele>
        <time>2014-07-12T10:26:29Z</time>
      </trkpt>
      <trkpt lat="59.887111" lon="17.8412765">
        <ele>25.1317</ele>
        <time>2014-07-12T10:26:30Z</time>
      </trkpt>
      <trkpt lat="59.8871749" lon="17.8413549">
        <ele>25.1317</ele>
        <time>2014-07-12T10:26:31Z</time>
      </trkpt>
      <trkpt lat="59.8872346" lon="17.8414458">
        <ele>25.6123</ele>
        <time>2014-07-12T10:26:32Z</time>
      </trkpt>
      <trkpt lat="59.8872865" lon="17.8415463">
        <ele>25.6123</ele>
        <time>2014-07-12T10:26:33Z</time>
      </trkpt>
      <trkpt lat="59.8873308" lon="17.8416543">
        <ele>25.6123</ele>
        <time>2014-07-12T10:26:34Z</time>
      </trkpt>
      <trkpt lat="59.8873691" lon="17.8417659">
        <ele>25.6123</ele>
        <time>2014-07-12T10:26:35Z</time>
      </trkpt>
      <trkpt lat="59.8874073" lon="17.8418772">
        <ele>25.6123</ele>
        <time>2014-07-12T10:26:36Z</time>
      </trkpt>
      <trkpt lat="59.8874498" lon="17.8419848">
        <ele>25.1317</ele>
        <time>2014-07-12T10:26:37Z</time>
      </trkpt>
      <trkpt lat="59.8874971" lon="17.8420879">
        <ele>25.1317</ele>
        <time>2014-07-12T10:26:38Z</time>
      </trkpt>
      <trkpt lat="59.8875493" lon="17.8421866">
        <ele>24.651</ele>
        <time>2014-07-12T10:26:39Z</time>
      </trkpt>
      <trkpt lat="59.8876052" lon="17.8422806">
        <ele>24.651</ele>
        <time>2014-07-12T10:26:40Z</time>
      </trkpt>
      <trkpt lat="59.8876625" lon="17.8423679">
        <ele>25.1317</ele>
        <time>2014-07-12T10:26:41Z</time>
      </trkpt>
      <trkpt lat="59.8877203" lon="17.8424495">
        <ele>25.1317</ele>
        <time>2014-07-12T10:26:42Z</time>
      </trkpt>
      <trkpt lat="59.8877786" lon="17.8425274">
        <ele>25.1317</ele>
        <time>2014-07-12T10:26:43Z</time>
      </trkpt>
      <trkpt lat="59.8878373" lon="17.8426034">
        <ele>25.1317</ele>
        <time>2014-07-12T10:26:44Z</time>
      </trkpt>
      <trkpt lat="59.8878968" lon="17.8426754">
        <ele>25.6123</ele>
        <time>2014-07-12T10:26:45Z</time>
      </trkpt>
      <trkpt lat="59.8879579" lon="17.8427417">
        <ele>25.6123</ele>
        <time>2014-07-12T10:26:46Z</time>
      </trkpt>
      <trkpt lat="59.8880199" lon="17.8428029">
        <ele>25.6123</ele>
        <time>2014-07-12T10:26:47Z</time>
      </trkpt>
      <trkpt lat="59.8880813" lon="17.8428594">
        <ele>25.6123</ele>
        <time>2014-07-12T10:26:48Z</time>
      </trkpt>
      <trkpt lat="59.8881424" lon="17.8429114">
        <ele>26.0929</ele>
        <time>2014-07-12T10:26:49Z</time>
      </trkpt>
      <trkpt lat="59.8882033" lon="17.8429609">
        <ele>26.0929</ele>
        <time>2014-07-12T10:26:50Z</time>
      </trkpt>
      <trkpt lat="59.8882639" lon="17.8430059">
        <ele>26.0929</ele>
        <time>2014-07-12T10:26:51Z</time>
      </trkpt>
      <trkpt lat="59.8883242" lon="17.8430444">
        <ele>26.5736</ele>
        <time>2014-07-12T10:26:52Z</time>
      </trkpt>
      <trkpt lat="59.8883847" lon="17.8430795">
        <ele>26.5736</ele>
        <time>2014-07-12T10:26:53Z</time>
      </trkpt>
      <trkpt lat="59.888444" lon="17.8431141">
        <ele>26.5736</ele>
        <time>2014-07-12T10:26:54Z</time>
      </trkpt>
      <trkpt lat="59.8885034" lon="17.8431426">
        <ele>27.0543</ele>
        <time>2014-07-12T10:26:55Z</time>
      </trkpt>
      <trkpt lat="59.8885626" lon="17.8431619">
        <ele>27.0543</ele>
        <time>2014-07-12T10:26:56Z</time>
      </trkpt>
      <trkpt lat="59.888621" lon="17.8431785">
        <ele>27.5349</ele>
        <time>2014-07-12T10:26:57Z</time>
      </trkpt>
      <trkpt lat="59.88868" lon="17.8431925">
        <ele>28.0155</ele>
        <time>2014-07-12T10:26:58Z</time>
      </trkpt>
      <trkpt lat="59.8887434" lon="17.8432066">
        <ele>28.0155</ele>
        <time>2014-07-12T10:26:59Z</time>
      </trkpt>
      <trkpt lat="59.8888096" lon="17.8432218">
        <ele>28.0155</ele>
        <time>2014-07-12T10:27:00Z</time>
      </trkpt>
      <trkpt lat="59.8888754" lon="17.8432365">
        <ele>28.0155</ele>
        <time>2014-07-12T10:27:01Z</time>
      </trkpt>
      <trkpt lat="59.8889411" lon="17.8432568">
        <ele>28.0155</ele>
        <time>2014-07-12T10:27:02Z</time>
      </trkpt>
      <trkpt lat="59.8890042" lon="17.8432871">
        <ele>28.0155</ele>
        <time>2014-07-12T10:27:03Z</time>
      </trkpt>
      <trkpt lat="59.8890634" lon="17.8433268">
        <ele>28.0155</ele>
        <time>2014-07-12T10:27:04Z</time>
      </trkpt>
      <trkpt lat="59.8891223" lon="17.843369">
        <ele>28.0155</ele>
        <time>2014-07-12T10:27:05Z</time>
      </trkpt>
      <trkpt lat="59.8891826" lon="17.8434096">
        <ele>28.0155</ele>
        <time>2014-07-12T10:27:06Z</time>
      </trkpt>
      <trkpt lat="59.8892456" lon="17.8434457">
        <ele>28.0155</ele>
        <time>2014-07-12T10:27:07Z</time>
      </trkpt>
      <trkpt lat="59.8893126" lon="17.8434749">
        <ele>27.5349</ele>
        <time>2014-07-12T10:27:08Z</time>
      </trkpt>
      <trkpt lat="59.8893821" lon="17.8434924">
        <ele>27.5349</ele>
        <time>2014-07-12T10:27:09Z</time>
      </trkpt>
      <trkpt lat="59.8894509" lon="17.8434872">
        <ele>27.5349</ele>
        <time>2014-07-12T10:27:10Z</time>
      </trkpt>
      <trkpt lat="59.8895157" lon="17.8434617">
        <ele>27.5349</ele>
        <time>2014-07-12T10:27:11Z</time>
      </trkpt>
      <trkpt lat="59.8895773" lon="17.8434215">
        <ele>27.5349</ele>
        <time>2014-07-12T10:27:12Z</time>
      </trkpt>
      <trkpt lat="59.8896323" lon="17.8433566">
        <ele>27.5349</ele>
        <time>2014-07-12T10:27:13Z</time>
      </trkpt>
      <trkpt lat="59.8896793" lon="17.8432666">
        <ele>28.0155</ele>
        <time>2014-07-12T10:27:14Z</time>
      </trkpt>
      <trkpt lat="59.8897161" lon="17.843166">
        <ele>28.0155</ele>
        <time>2014-07-12T10:27:15Z</time>
      </trkpt>
      <trkpt lat="59.8897459" lon="17.8430628">
        <ele>28.0155</ele>
        <time>2014-07-12T10:27:16Z</time>
      </trkpt>
      <trkpt lat="59.8897653" lon="17.842947">
        <ele>28.0155</ele>
        <time>2014-07-12T10:27:17Z</time>
      </trkpt>
      <trkpt lat="59.8897784" lon="17.8428292">
        <ele>27.5349</ele>
        <time>2014-07-12T10:27:18Z</time>
      </trkpt>
      <trkpt lat="59.8897891" lon="17.8427073">
        <ele>27.5349</ele>
        <time>2014-07-12T10:27:19Z</time>
      </trkpt>
      <trkpt lat="59.889798" lon="17.8425823">
        <ele>27.5349</ele>
        <time>2014-07-12T10:27:20Z</time>
      </trkpt>
      <trkpt lat="59.8898052" lon="17.8424575">
        <ele>27.5349</ele>
        <time>2014-07-12T10:27:21Z</time>
      </trkpt>
      <trkpt lat="59.8898108" lon="17.8423346">
        <ele>28.0155</ele>
        <time>2014-07-12T10:27:22Z</time>
      </trkpt>
      <trkpt lat="59.8898157" lon="17.842214">
        <ele>28.0155</ele>
        <time>2014-07-12T10:27:23Z</time>
      </trkpt>
      <trkpt lat="59.8898228" lon="17.8420959">
        <ele>28.0155</ele>
        <time>2014-07-12T10:27:24Z</time>
      </trkpt>
      <trkpt lat="59.889828" lon="17.8419782">
        <ele>28.0155</ele>
        <time>2014-07-12T10:27:25Z</time>
      </trkpt>
      <trkpt lat="59.8898347" lon="17.8418588">
        <ele>28.4962</ele>
        <time>2014-07-12T10:27:26Z</time>
      </trkpt>
      <trkpt lat="59.889844" lon="17.8417389">
        <ele>28.4962</ele>
        <time>2014-07-12T10:27:27Z</time>
      </trkpt>
      <trkpt lat="59.8898564" lon="17.8416186">
        <ele>28.4962</ele>
        <time>2014-07-12T10:27:28Z</time>
      </trkpt>
      <trkpt lat="59.8898746" lon="17.8415006">
        <ele>28.4962</ele>
        <time>2014-07-12T10:27:29Z</time>
      </trkpt>
      <trkpt lat="59.8898984" lon="17.8413831">
        <ele>28.4962</ele>
        <time>2014-07-12T10:27:30Z</time>
      </trkpt>
      <trkpt lat="59.8899265" lon="17.8412664">
        <ele>28.4962</ele>
        <time>2014-07-12T10:27:31Z</time>
      </trkpt>
      <trkpt lat="59.8899615" lon="17.8411552">
        <ele>28.4962</ele>
        <time>2014-07-12T10:27:32Z</time>
      </trkpt>
      <trkpt lat="59.8900056" lon="17.8410545">
        <ele>28.4962</ele>
        <time>2014-07-12T10:27:33Z</time>
      </trkpt>
      <trkpt lat="59.8900606" lon="17.840977">
        <ele>28.0155</ele>
        <time>2014-07-12T10:27:34Z</time>
      </trkpt>
      <trkpt lat="59.8901252" lon="17.8409313">
        <ele>28.0155</ele>
        <time>2014-07-12T10:27:35Z</time>
      </trkpt>
      <trkpt lat="59.8901932" lon="17.8409219">
        <ele>28.0155</ele>
        <time>2014-07-12T10:27:36Z</time>
      </trkpt>
      <trkpt lat="59.8902605" lon="17.8409522">
        <ele>28.0155</ele>
        <time>2014-07-12T10:27:37Z</time>
      </trkpt>
      <trkpt lat="59.8903236" lon="17.8410071">
        <ele>28.0155</ele>
        <time>2014-07-12T10:27:38Z</time>
      </trkpt>
      <trkpt lat="59.8903812" lon="17.8410759">
        <ele>28.0155</ele>
        <time>2014-07-12T10:27:39Z</time>
      </trkpt>
      <trkpt lat="59.8904342" lon="17.841151">
        <ele>28.0155</ele>
        <time>2014-07-12T10:27:40Z</time>
      </trkpt>
      <trkpt lat="59.8904839" lon="17.8412306">
        <ele>28.0155</ele>
        <time>2014-07-12T10:27:41Z</time>
      </trkpt>
      <trkpt lat="59.8905305" lon="17.841308">
        <ele>28.0155</ele>
        <time>2014-07-12T10:27:42Z</time>
      </trkpt>
      <trkpt lat="59.890575" lon="17.8413795">
        <ele>28.0155</ele>
        <time>2014-07-12T10:27:43Z</time>
      </trkpt>
      <trkpt lat="59.8906176" lon="17.8414468">
        <ele>28.0155</ele>
        <time>2014-07-12T10:27:44Z</time>
      </trkpt>
      <trkpt lat="59.8906594" lon="17.8415135">
        <ele>28.0155</ele>
        <time>2014-07-12T10:27:45Z</time>
      </trkpt>
      <trkpt lat="59.8907019" lon="17.8415804">
        <ele>28.4962</ele>
        <time>2014-07-12T10:27:46Z</time>
      </trkpt>
      <trkpt lat="59.8907445" lon="17.8416455">
        <ele>28.4962</ele>
        <time>2014-07-12T10:27:47Z</time>
      </trkpt>
      <trkpt lat="59.8907894" lon="17.8417078">
        <ele>28.4962</ele>
        <time>2014-07-12T10:27:48Z</time>
      </trkpt>
      <trkpt lat="59.890836" lon="17.8417653">
        <ele>28.4962</ele>
        <time>2014-07-12T10:27:49Z</time>
      </trkpt>
      <trkpt lat="59.890885" lon="17.8418199">
        <ele>28.4962</ele>
        <time>2014-07-12T10:27:50Z</time>
      </trkpt>
      <trkpt lat="59.8909355" lon="17.8418737">
        <ele>28.9769</ele>
        <time>2014-07-12T10:27:51Z</time>
      </trkpt>
      <trkpt lat="59.8909868" lon="17.8419265">
        <ele>28.9769</ele>
        <time>2014-07-12T10:27:52Z</time>
      </trkpt>
      <trkpt lat="59.891038" lon="17.8419762">
        <ele>28.4962</ele>
        <time>2014-07-12T10:27:53Z</time>
      </trkpt>
      <trkpt lat="59.8910899" lon="17.8420248">
        <ele>28.4962</ele>
        <time>2014-07-12T10:27:54Z</time>
      </trkpt>
      <trkpt lat="59.8911428" lon="17.8420706">
        <ele>28.4962</ele>
        <time>2014-07-12T10:27:55Z</time>
      </trkpt>
      <trkpt lat="59.8911951" lon="17.8421134">
        <ele>28.4962</ele>
        <time>2014-07-12T10:27:56Z</time>
      </trkpt>
      <trkpt lat="59.891248" lon="17.8421551">
        <ele>28.0155</ele>
        <time>2014-07-12T10:27:57Z</time>
      </trkpt>
      <trkpt lat="59.8912993" lon="17.8421928">
        <ele>28.0155</ele>
        <time>2014-07-12T10:27:58Z</time>
      </trkpt>
      <trkpt lat="59.8913528" lon="17.8422257">
        <ele>28.0155</ele>
        <time>2014-07-12T10:27:59Z</time>
      </trkpt>
      <trkpt lat="59.891406" lon="17.8422529">
        <ele>28.4962</ele>
        <time>2014-07-12T10:28:00Z</time>
      </trkpt>
      <trkpt lat="59.8914614" lon="17.8422747">
        <ele>28.4962</ele>
        <time>2014-07-12T10:28:01Z</time>
      </trkpt>
      <trkpt lat="59.8915198" lon="17.8422901">
        <ele>28.4962</ele>
        <time>2014-07-12T10:28:02Z</time>
      </trkpt>
      <trkpt lat="59.8915761" lon="17.8422957">
        <ele>28.4962</ele>
        <time>2014-07-12T10:28:03Z</time>
      </trkpt>
      <trkpt lat="59.8916334" lon="17.8423">
        <ele>28.4962</ele>
        <time>2014-07-12T10:28:04Z</time>
      </trkpt>
      <trkpt lat="59.8916916" lon="17.8423093">
        <ele>28.0155</ele>
        <time>2014-07-12T10:28:05Z</time>
      </trkpt>
      <trkpt lat="59.8917524" lon="17.842325">
        <ele>28.4962</ele>
        <time>2014-07-12T10:28:06Z</time>
      </trkpt>
      <trkpt lat="59.8918123" lon="17.8423446">
        <ele>28.4962</ele>
        <time>2014-07-12T10:28:07Z</time>
      </trkpt>
      <trkpt lat="59.8918726" lon="17.842363">
        <ele>28.0155</ele>
        <time>2014-07-12T10:28:08Z</time>
      </trkpt>
      <trkpt lat="59.8919349" lon="17.8423854">
        <ele>28.0155</ele>
        <time>2014-07-12T10:28:09Z</time>
      </trkpt>
      <trkpt lat="59.8919982" lon="17.8424096">
        <ele>28.0155</ele>
        <time>2014-07-12T10:28:10Z</time>
      </trkpt>
      <trkpt lat="59.8920632" lon="17.8424322">
        <ele>28.0155</ele>
        <time>2014-07-12T10:28:11Z</time>
      </trkpt>
      <trkpt lat="59.8921288" lon="17.8424563">
        <ele>27.5349</ele>
        <time>2014-07-12T10:28:12Z</time>
      </trkpt>
      <trkpt lat="59.8921957" lon="17.8424816">
        <ele>27.0543</ele>
        <time>2014-07-12T10:28:13Z</time>
      </trkpt>
      <trkpt lat="59.8922638" lon="17.8425093">
        <ele>26.5736</ele>
        <time>2014-07-12T10:28:14Z</time>
      </trkpt>
      <trkpt lat="59.892332" lon="17.8425372">
        <ele>26.5736</ele>
        <time>2014-07-12T10:28:15Z</time>
      </trkpt>
      <trkpt lat="59.892401" lon="17.8425694">
        <ele>26.0929</ele>
        <time>2014-07-12T10:28:16Z</time>
      </trkpt>
      <trkpt lat="59.8924717" lon="17.8426041">
        <ele>25.6123</ele>
        <time>2014-07-12T10:28:17Z</time>
      </trkpt>
      <trkpt lat="59.8925442" lon="17.842637">
        <ele>25.6123</ele>
        <time>2014-07-12T10:28:18Z</time>
      </trkpt>
      <trkpt lat="59.8926164" lon="17.8426684">
        <ele>25.1317</ele>
        <time>2014-07-12T10:28:19Z</time>
      </trkpt>
      <trkpt lat="59.8926886" lon="17.8427023">
        <ele>25.1317</ele>
        <time>2014-07-12T10:28:20Z</time>
      </trkpt>
      <trkpt lat="59.8927602" lon="17.8427393">
        <ele>25.1317</ele>
        <time>2014-07-12T10:28:21Z</time>
      </trkpt>
      <trkpt lat="59.8928325" lon="17.8427766">
        <ele>24.651</ele>
        <time>2014-07-12T10:28:22Z</time>
      </trkpt>
      <trkpt lat="59.8929069" lon="17.8428122">
        <ele>24.651</ele>
        <time>2014-07-12T10:28:23Z</time>
      </trkpt>
      <trkpt lat="59.8929832" lon="17.8428473">
        <ele>24.1703</ele>
        <time>2014-07-12T10:28:24Z</time>
      </trkpt>
      <trkpt lat="59.8930607" lon="17.8428832">
        <ele>24.1703</ele>
        <time>2014-07-12T10:28:25Z</time>
      </trkpt>
      <trkpt lat="59.89314" lon="17.8429204">
        <ele>24.1703</ele>
        <time>2014-07-12T10:28:26Z</time>
      </trkpt>
      <trkpt lat="59.8932194" lon="17.8429561">
        <ele>24.651</ele>
        <time>2014-07-12T10:28:27Z</time>
      </trkpt>
      <trkpt lat="59.893299" lon="17.8429872">
        <ele>25.1317</ele>
        <time>2014-07-12T10:28:28Z</time>
      </trkpt>
      <trkpt lat="59.8933784" lon="17.8430163">
        <ele>25.1317</ele>
        <time>2014-07-12T10:28:29Z</time>
      </trkpt>
      <trkpt lat="59.8934566" lon="17.8430443">
        <ele>25.1317</ele>
        <time>2014-07-12T10:28:30Z</time>
      </trkpt>
      <trkpt lat="59.8935344" lon="17.8430687">
        <ele>25.1317</ele>
        <time>2014-07-12T10:28:31Z</time>
      </trkpt>
      <trkpt lat="59.8936124" lon="17.8430858">
        <ele>25.6123</ele>
        <time>2014-07-12T10:28:32Z</time>
      </trkpt>
      <trkpt lat="59.8936882" lon="17.8430955">
        <ele>25.6123</ele>
        <time>2014-07-12T10:28:33Z</time>
      </trkpt>
      <trkpt lat="59.8937652" lon="17.8430993">
        <ele>25.6123</ele>
        <time>2014-07-12T10:28:34Z</time>
      </trkpt>
      <trkpt lat="59.8938395" lon="17.8430997">
        <ele>25.6123</ele>
        <time>2014-07-12T10:28:35Z</time>
      </trkpt>
      <trkpt lat="59.8939121" lon="17.8430954">
        <ele>25.6123</ele>
        <time>2014-07-12T10:28:36Z</time>
      </trkpt>
      <trkpt lat="59.893985" lon="17.8430901">
        <ele>25.6123</ele>
        <time>2014-07-12T10:28:37Z</time>
      </trkpt>
      <trkpt lat="59.8940574" lon="17.8430895">
        <ele>26.0929</ele>
        <time>2014-07-12T10:28:38Z</time>
      </trkpt>
      <trkpt lat="59.8941296" lon="17.8430915">
        <ele>26.0929</ele>
        <time>2014-07-12T10:28:39Z</time>
      </trkpt>
      <trkpt lat="59.8942026" lon="17.843093">
        <ele>26.0929</ele>
        <time>2014-07-12T10:28:40Z</time>
      </trkpt>
      <trkpt lat="59.8942751" lon="17.8431024">
        <ele>26.5736</ele>
        <time>2014-07-12T10:28:41Z</time>
      </trkpt>
      <trkpt lat="59.8943474" lon="17.8431183">
        <ele>26.5736</ele>
        <time>2014-07-12T10:28:42Z</time>
      </trkpt>
      <trkpt lat="59.8944189" lon="17.8431361">
        <ele>26.5736</ele>
        <time>2014-07-12T10:28:43Z</time>
      </trkpt>
      <trkpt lat="59.8944904" lon="17.8431516">
        <ele>27.0543</ele>
        <time>2014-07-12T10:28:44Z</time>
      </trkpt>
      <trkpt lat="59.8945616" lon="17.8431669">
        <ele>27.0543</ele>
        <time>2014-07-12T10:28:45Z</time>
      </trkpt>
      <trkpt lat="59.894632" lon="17.8431799">
        <ele>27.5349</ele>
        <time>2014-07-12T10:28:46Z</time>
      </trkpt>
      <trkpt lat="59.8947047" lon="17.843193">
        <ele>27.5349</ele>
        <time>2014-07-12T10:28:47Z</time>
      </trkpt>
      <trkpt lat="59.8947791" lon="17.8432084">
        <ele>28.0155</ele>
        <time>2014-07-12T10:28:48Z</time>
      </trkpt>
      <trkpt lat="59.8948532" lon="17.8432173">
        <ele>28.4962</ele>
        <time>2014-07-12T10:28:49Z</time>
      </trkpt>
      <trkpt lat="59.8949288" lon="17.8432232">
        <ele>28.9769</ele>
        <time>2014-07-12T10:28:50Z</time>
      </trkpt>
      <trkpt lat="59.8950046" lon="17.8432184">
        <ele>29.4575</ele>
        <time>2014-07-12T10:28:51Z</time>
      </trkpt>
      <trkpt lat="59.8950774" lon="17.8432004">
        <ele>29.9381</ele>
        <time>2014-07-12T10:28:52Z</time>
      </trkpt>
      <trkpt lat="59.8951511" lon="17.8431733">
        <ele>29.9381</ele>
        <time>2014-07-12T10:28:53Z</time>
      </trkpt>
      <trkpt lat="59.8952226" lon="17.8431402">
        <ele>29.9381</ele>
        <time>2014-07-12T10:28:54Z</time>
      </trkpt>
      <trkpt lat="59.8952921" lon="17.8431059">
        <ele>29.9381</ele>
        <time>2014-07-12T10:28:55Z</time>
      </trkpt>
      <trkpt lat="59.8953614" lon="17.8430703">
        <ele>29.9381</ele>
        <time>2014-07-12T10:28:56Z</time>
      </trkpt>
      <trkpt lat="59.8954287" lon="17.8430338">
        <ele>29.9381</ele>
        <time>2014-07-12T10:28:57Z</time>
      </trkpt>
      <trkpt lat="59.8954939" lon="17.8430008">
        <ele>30.4188</ele>
        <time>2014-07-12T10:28:58Z</time>
      </trkpt>
      <trkpt lat="59.8955571" lon="17.8429712">
        <ele>30.8995</ele>
        <time>2014-07-12T10:28:59Z</time>
      </trkpt>
      <trkpt lat="59.8956199" lon="17.8429428">
        <ele>30.8995</ele>
        <time>2014-07-12T10:29:00Z</time>
      </trkpt>
      <trkpt lat="59.8956816" lon="17.8429105">
        <ele>30.8995</ele>
        <time>2014-07-12T10:29:01Z</time>
      </trkpt>
      <trkpt lat="59.8957443" lon="17.8428779">
        <ele>30.8995</ele>
        <time>2014-07-12T10:29:02Z</time>
      </trkpt>
      <trkpt lat="59.8958095" lon="17.8428554">
        <ele>30.8995</ele>
        <time>2014-07-12T10:29:03Z</time>
      </trkpt>
      <trkpt lat="59.8958766" lon="17.8428375">
        <ele>30.8995</ele>
        <time>2014-07-12T10:29:04Z</time>
      </trkpt>
      <trkpt lat="59.8959434" lon="17.8428264">
        <ele>30.8995</ele>
        <time>2014-07-12T10:29:05Z</time>
      </trkpt>
      <trkpt lat="59.8960085" lon="17.8428227">
        <ele>30.8995</ele>
        <time>2014-07-12T10:29:06Z</time>
      </trkpt>
      <trkpt lat="59.8960742" lon="17.8428271">
        <ele>30.8995</ele>
        <time>2014-07-12T10:29:07Z</time>
      </trkpt>
      <trkpt lat="59.8961404" lon="17.8428355">
        <ele>30.4188</ele>
        <time>2014-07-12T10:29:08Z</time>
      </trkpt>
      <trkpt lat="59.8962069" lon="17.8428506">
        <ele>30.4188</ele>
        <time>2014-07-12T10:29:09Z</time>
      </trkpt>
      <trkpt lat="59.8962726" lon="17.8428719">
        <ele>30.4188</ele>
        <time>2014-07-12T10:29:10Z</time>
      </trkpt>
      <trkpt lat="59.8963371" lon="17.8428967">
        <ele>30.4188</ele>
        <time>2014-07-12T10:29:11Z</time>
      </trkpt>
      <trkpt lat="59.8964001" lon="17.8429193">
        <ele>30.4188</ele>
        <time>2014-07-12T10:29:12Z</time>
      </trkpt>
      <trkpt lat="59.8964611" lon="17.8429396">
        <ele>30.8995</ele>
        <time>2014-07-12T10:29:13Z</time>
      </trkpt>
      <trkpt lat="59.8965182" lon="17.8429542">
        <ele>30.8995</ele>
        <time>2014-07-12T10:29:14Z</time>
      </trkpt>
      <trkpt lat="59.8965708" lon="17.8429644">
        <ele>30.8995</ele>
        <time>2014-07-12T10:29:15Z</time>
      </trkpt>
      <trkpt lat="59.8966196" lon="17.8429666">
        <ele>31.3801</ele>
        <time>2014-07-12T10:29:16Z</time>
      </trkpt>
      <trkpt lat="59.8966663" lon="17.8429659">
        <ele>31.3801</ele>
        <time>2014-07-12T10:29:17Z</time>
      </trkpt>
      <trkpt lat="59.8967129" lon="17.8429635">
        <ele>31.8607</ele>
        <time>2014-07-12T10:29:18Z</time>
      </trkpt>
      <trkpt lat="59.8967595" lon="17.842958">
        <ele>31.8607</ele>
        <time>2014-07-12T10:29:19Z</time>
      </trkpt>
      <trkpt lat="59.8968062" lon="17.8429416">
        <ele>32.3416</ele>
        <time>2014-07-12T10:29:20Z</time>
      </trkpt>
      <trkpt lat="59.8968531" lon="17.842917">
        <ele>32.8223</ele>
        <time>2014-07-12T10:29:21Z</time>
      </trkpt>
      <trkpt lat="59.8969019" lon="17.8428946">
        <ele>32.8223</ele>
        <time>2014-07-12T10:29:22Z</time>
      </trkpt>
      <trkpt lat="59.8969533" lon="17.8428794">
        <ele>32.3416</ele>
        <time>2014-07-12T10:29:23Z</time>
      </trkpt>
      <trkpt lat="59.8970036" lon="17.8428634">
        <ele>32.8223</ele>
        <time>2014-07-12T10:29:24Z</time>
      </trkpt>
      <trkpt lat="59.8970528" lon="17.8428298">
        <ele>33.3029</ele>
        <time>2014-07-12T10:29:25Z</time>
      </trkpt>
      <trkpt lat="59.8971015" lon="17.8427909">
        <ele>34.2642</ele>
        <time>2014-07-12T10:29:26Z</time>
      </trkpt>
      <trkpt lat="59.8971479" lon="17.8427496">
        <ele>34.7449</ele>
        <time>2014-07-12T10:29:27Z</time>
      </trkpt>
      <trkpt lat="59.8971941" lon="17.8427088">
        <ele>35.2255</ele>
        <time>2014-07-12T10:29:28Z</time>
      </trkpt>
      <trkpt lat="59.8972371" lon="17.8426689">
        <ele>35.2255</ele>
        <time>2014-07-12T10:29:29Z</time>
      </trkpt>
      <trkpt lat="59.8972806" lon="17.8426315">
        <ele>35.7061</ele>
        <time>2014-07-12T10:29:30Z</time>
      </trkpt>
      <trkpt lat="59.8973263" lon="17.8425931">
        <ele>36.1868</ele>
        <time>2014-07-12T10:29:31Z</time>
      </trkpt>
      <trkpt lat="59.8973743" lon="17.8425562">
        <ele>36.1868</ele>
        <time>2014-07-12T10:29:32Z</time>
      </trkpt>
      <trkpt lat="59.8974239" lon="17.8425196">
        <ele>36.1868</ele>
        <time>2014-07-12T10:29:33Z</time>
      </trkpt>
      <trkpt lat="59.8974803" lon="17.8424864">
        <ele>36.1868</ele>
        <time>2014-07-12T10:29:34Z</time>
      </trkpt>
      <trkpt lat="59.8975378" lon="17.8424518">
        <ele>36.1868</ele>
        <time>2014-07-12T10:29:35Z</time>
      </trkpt>
      <trkpt lat="59.897594" lon="17.8424241">
        <ele>36.1868</ele>
        <time>2014-07-12T10:29:36Z</time>
      </trkpt>
      <trkpt lat="59.8976515" lon="17.8424098">
        <ele>36.6675</ele>
        <time>2014-07-12T10:29:37Z</time>
      </trkpt>
      <trkpt lat="59.897712" lon="17.8423974">
        <ele>36.6675</ele>
        <time>2014-07-12T10:29:38Z</time>
      </trkpt>
      <trkpt lat="59.8977746" lon="17.8423858">
        <ele>36.6675</ele>
        <time>2014-07-12T10:29:39Z</time>
      </trkpt>
      <trkpt lat="59.8978369" lon="17.8423761">
        <ele>36.6675</ele>
        <time>2014-07-12T10:29:40Z</time>
      </trkpt>
      <trkpt lat="59.8978965" lon="17.8423699">
        <ele>36.1868</ele>
        <time>2014-07-12T10:29:41Z</time>
      </trkpt>
      <trkpt lat="59.8979571" lon="17.8423692">
        <ele>36.1868</ele>
        <time>2014-07-12T10:29:42Z</time>
      </trkpt>
      <trkpt lat="59.8980209" lon="17.8423751">
        <ele>36.1868</ele>
        <time>2014-07-12T10:29:43Z</time>
      </trkpt>
      <trkpt lat="59.8980856" lon="17.8423824">
        <ele>35.7061</ele>
        <time>2014-07-12T10:29:44Z</time>
      </trkpt>
      <trkpt lat="59.8981493" lon="17.8423813">
        <ele>35.7061</ele>
        <time>2014-07-12T10:29:45Z</time>
      </trkpt>
      <trkpt lat="59.898212" lon="17.8423731">
        <ele>35.7061</ele>
        <time>2014-07-12T10:29:46Z</time>
      </trkpt>
      <trkpt lat="59.8982741" lon="17.8423642">
        <ele>36.1868</ele>
        <time>2014-07-12T10:29:47Z</time>
      </trkpt>
      <trkpt lat="59.8983362" lon="17.8423514">
        <ele>36.1868</ele>
        <time>2014-07-12T10:29:48Z</time>
      </trkpt>
      <trkpt lat="59.8983969" lon="17.8423329">
        <ele>36.1868</ele>
        <time>2014-07-12T10:29:49Z</time>
      </trkpt>
      <trkpt lat="59.8984553" lon="17.8423061">
        <ele>36.6675</ele>
        <time>2014-07-12T10:29:50Z</time>
      </trkpt>
      <trkpt lat="59.8985155" lon="17.8422807">
        <ele>36.6675</ele>
        <time>2014-07-12T10:29:51Z</time>
      </trkpt>
      <trkpt lat="59.8985746" lon="17.8422497">
        <ele>36.6675</ele>
        <time>2014-07-12T10:29:52Z</time>
      </trkpt>
      <trkpt lat="59.8986343" lon="17.8422192">
        <ele>37.1481</ele>
        <time>2014-07-12T10:29:53Z</time>
      </trkpt>
      <trkpt lat="59.8986927" lon="17.8421881">
        <ele>37.1481</ele>
        <time>2014-07-12T10:29:54Z</time>
      </trkpt>
      <trkpt lat="59.8987495" lon="17.8421556">
        <ele>37.6287</ele>
        <time>2014-07-12T10:29:55Z</time>
      </trkpt>
      <trkpt lat="59.898803" lon="17.8421247">
        <ele>38.1094</ele>
        <time>2014-07-12T10:29:56Z</time>
      </trkpt>
      <trkpt lat="59.8988552" lon="17.8420969">
        <ele>38.5901</ele>
        <time>2014-07-12T10:29:57Z</time>
      </trkpt>
      <trkpt lat="59.8989061" lon="17.8420682">
        <ele>38.5901</ele>
        <time>2014-07-12T10:29:58Z</time>
      </trkpt>
      <trkpt lat="59.8989564" lon="17.8420426">
        <ele>39.0707</ele>
        <time>2014-07-12T10:29:59Z</time>
      </trkpt>
      <trkpt lat="59.899004" lon="17.8420099">
        <ele>38.5901</ele>
        <time>2014-07-12T10:30:00Z</time>
      </trkpt>
      <trkpt lat="59.8990459" lon="17.841985">
        <ele>38.1094</ele>
        <time>2014-07-12T10:30:01Z</time>
      </trkpt>
      <trkpt lat="59.8990899" lon="17.8419555">
        <ele>38.5901</ele>
        <time>2014-07-12T10:30:02Z</time>
      </trkpt>
      <trkpt lat="59.8991356" lon="17.8419173">
        <ele>39.0707</ele>
        <time>2014-07-12T10:30:03Z</time>
      </trkpt>
      <trkpt lat="59.8991806" lon="17.8418745">
        <ele>39.5513</ele>
        <time>2014-07-12T10:30:04Z</time>
      </trkpt>
      <trkpt lat="59.8992238" lon="17.8418275">
        <ele>39.5513</ele>
        <time>2014-07-12T10:30:05Z</time>
      </trkpt>
      <trkpt lat="59.8992742" lon="17.8417699">
        <ele>39.5513</ele>
        <time>2014-07-12T10:30:06Z</time>
      </trkpt>
      <trkpt lat="59.8993267" lon="17.8417098">
        <ele>39.5513</ele>
        <time>2014-07-12T10:30:07Z</time>
      </trkpt>
      <trkpt lat="59.8993817" lon="17.8416545">
        <ele>39.5513</ele>
        <time>2014-07-12T10:30:08Z</time>
      </trkpt>
      <trkpt lat="59.8994375" lon="17.8416053">
        <ele>39.0707</ele>
        <time>2014-07-12T10:30:09Z</time>
      </trkpt>
      <trkpt lat="59.8994976" lon="17.8415676">
        <ele>39.0707</ele>
        <time>2014-07-12T10:30:10Z</time>
      </trkpt>
      <trkpt lat="59.8995591" lon="17.841538">
        <ele>38.5901</ele>
        <time>2014-07-12T10:30:11Z</time>
      </trkpt>
      <trkpt lat="59.8996267" lon="17.8415148">
        <ele>38.1094</ele>
        <time>2014-07-12T10:30:12Z</time>
      </trkpt>
      <trkpt lat="59.8996985" lon="17.841498">
        <ele>38.1094</ele>
        <time>2014-07-12T10:30:13Z</time>
      </trkpt>
      <trkpt lat="59.899777" lon="17.841481">
        <ele>37.1481</ele>
        <time>2014-07-12T10:30:14Z</time>
      </trkpt>
      <trkpt lat="59.8998603" lon="17.8414681">
        <ele>37.1481</ele>
        <time>2014-07-12T10:30:15Z</time>
      </trkpt>
      <trkpt lat="59.8999498" lon="17.8414539">
        <ele>36.6675</ele>
        <time>2014-07-12T10:30:16Z</time>
      </trkpt>
      <trkpt lat="59.9000412" lon="17.8414428">
        <ele>36.1868</ele>
        <time>2014-07-12T10:30:17Z</time>
      </trkpt>
      <trkpt lat="59.9001354" lon="17.8414342">
        <ele>35.7061</ele>
        <time>2014-07-12T10:30:18Z</time>
      </trkpt>
      <trkpt lat="59.9002323" lon="17.8414259">
        <ele>35.2255</ele>
        <time>2014-07-12T10:30:19Z</time>
      </trkpt>
      <trkpt lat="59.9003323" lon="17.8414271">
        <ele>34.2642</ele>
        <time>2014-07-12T10:30:20Z</time>
      </trkpt>
      <trkpt lat="59.9004348" lon="17.8414271">
        <ele>33.7834</ele>
        <time>2014-07-12T10:30:21Z</time>
      </trkpt>
      <trkpt lat="59.9005384" lon="17.8414345">
        <ele>33.3029</ele>
        <time>2014-07-12T10:30:22Z</time>
      </trkpt>
      <trkpt lat="59.900644" lon="17.8414467">
        <ele>33.3029</ele>
        <time>2014-07-12T10:30:23Z</time>
      </trkpt>
      <trkpt lat="59.90075" lon="17.8414611">
        <ele>32.8223</ele>
        <time>2014-07-12T10:30:24Z</time>
      </trkpt>
      <trkpt lat="59.9008564" lon="17.8414737">
        <ele>32.3416</ele>
        <time>2014-07-12T10:30:25Z</time>
      </trkpt>
      <trkpt lat="59.9009631" lon="17.8414857">
        <ele>32.3416</ele>
        <time>2014-07-12T10:30:26Z</time>
      </trkpt>
      <trkpt lat="59.9010697" lon="17.8414995">
        <ele>31.8607</ele>
        <time>2014-07-12T10:30:27Z</time>
      </trkpt>
      <trkpt lat="59.9011755" lon="17.8415137">
        <ele>31.8607</ele>
        <time>2014-07-12T10:30:28Z</time>
      </trkpt>
      <trkpt lat="59.9012807" lon="17.8415338">
        <ele>31.8607</ele>
        <time>2014-07-12T10:30:29Z</time>
      </trkpt>
      <trkpt lat="59.9013848" lon="17.8415531">
        <ele>31.8607</ele>
        <time>2014-07-12T10:30:30Z</time>
      </trkpt>
      <trkpt lat="59.9014867" lon="17.8415666">
        <ele>31.3801</ele>
        <time>2014-07-12T10:30:31Z</time>
      </trkpt>
      <trkpt lat="59.9015879" lon="17.8415873">
        <ele>31.3801</ele>
        <time>2014-07-12T10:30:32Z</time>
      </trkpt>
      <trkpt lat="59.9016878" lon="17.8416129">
        <ele>31.8607</ele>
        <time>2014-07-12T10:30:33Z</time>
      </trkpt>
      <trkpt lat="59.9017842" lon="17.8416286">
        <ele>31.8607</ele>
        <time>2014-07-12T10:30:34Z</time>
      </trkpt>
      <trkpt lat="59.9018769" lon="17.8416406">
        <ele>31.8607</ele>
        <time>2014-07-12T10:30:35Z</time>
      </trkpt>
      <trkpt lat="59.901967" lon="17.8416556">
        <ele>32.3416</ele>
        <time>2014-07-12T10:30:36Z</time>
      </trkpt>
      <trkpt lat="59.9020546" lon="17.8416684">
        <ele>32.3416</ele>
        <time>2014-07-12T10:30:37Z</time>
      </trkpt>
      <trkpt lat="59.902141" lon="17.8416721">
        <ele>32.3416</ele>
        <time>2014-07-12T10:30:38Z</time>
      </trkpt>
      <trkpt lat="59.9022287" lon="17.8416631">
        <ele>31.8607</ele>
        <time>2014-07-12T10:30:39Z</time>
      </trkpt>
      <trkpt lat="59.9023189" lon="17.8416396">
        <ele>30.8995</ele>
        <time>2014-07-12T10:30:40Z</time>
      </trkpt>
      <trkpt lat="59.9024129" lon="17.8416037">
        <ele>30.4188</ele>
        <time>2014-07-12T10:30:41Z</time>
      </trkpt>
      <trkpt lat="59.9025097" lon="17.8415592">
        <ele>29.9381</ele>
        <time>2014-07-12T10:30:42Z</time>
      </trkpt>
      <trkpt lat="59.9026079" lon="17.841514">
        <ele>29.4575</ele>
        <time>2014-07-12T10:30:43Z</time>
      </trkpt>
      <trkpt lat="59.9027062" lon="17.8414689">
        <ele>28.9769</ele>
        <time>2014-07-12T10:30:44Z</time>
      </trkpt>
      <trkpt lat="59.9028029" lon="17.8414271">
        <ele>28.9769</ele>
        <time>2014-07-12T10:30:45Z</time>
      </trkpt>
      <trkpt lat="59.9028983" lon="17.8413881">
        <ele>28.4962</ele>
        <time>2014-07-12T10:30:46Z</time>
      </trkpt>
      <trkpt lat="59.9029911" lon="17.841352">
        <ele>28.4962</ele>
        <time>2014-07-12T10:30:47Z</time>
      </trkpt>
      <trkpt lat="59.9030809" lon="17.841327">
        <ele>28.4962</ele>
        <time>2014-07-12T10:30:48Z</time>
      </trkpt>
      <trkpt lat="59.9031686" lon="17.8413214">
        <ele>28.4962</ele>
        <time>2014-07-12T10:30:49Z</time>
      </trkpt>
      <trkpt lat="59.9032518" lon="17.8413453">
        <ele>28.4962</ele>
        <time>2014-07-12T10:30:50Z</time>
      </trkpt>
      <trkpt lat="59.9033292" lon="17.8413969">
        <ele>28.4962</ele>
        <time>2014-07-12T10:30:51Z</time>
      </trkpt>
      <trkpt lat="59.9034014" lon="17.8414694">
        <ele>28.0155</ele>
        <time>2014-07-12T10:30:52Z</time>
      </trkpt>
      <trkpt lat="59.9034681" lon="17.8415582">
        <ele>27.5349</ele>
        <time>2014-07-12T10:30:53Z</time>
      </trkpt>
      <trkpt lat="59.9035325" lon="17.8416561">
        <ele>27.0543</ele>
        <time>2014-07-12T10:30:54Z</time>
      </trkpt>
      <trkpt lat="59.9035957" lon="17.8417593">
        <ele>27.0543</ele>
        <time>2014-07-12T10:30:55Z</time>
      </trkpt>
      <trkpt lat="59.9036635" lon="17.8418727">
        <ele>26.5736</ele>
        <time>2014-07-12T10:30:56Z</time>
      </trkpt>
      <trkpt lat="59.9037333" lon="17.8419651">
        <ele>26.0929</ele>
        <time>2014-07-12T10:30:57Z</time>
      </trkpt>
      <trkpt lat="59.903812" lon="17.8420347">
        <ele>26.0929</ele>
        <time>2014-07-12T10:30:58Z</time>
      </trkpt>
      <trkpt lat="59.9038925" lon="17.8420854">
        <ele>25.6123</ele>
        <time>2014-07-12T10:30:59Z</time>
      </trkpt>
      <trkpt lat="59.9039777" lon="17.8421147">
        <ele>25.6123</ele>
        <time>2014-07-12T10:31:00Z</time>
      </trkpt>
      <trkpt lat="59.9040629" lon="17.8421285">
        <ele>25.6123</ele>
        <time>2014-07-12T10:31:01Z</time>
      </trkpt>
      <trkpt lat="59.9041489" lon="17.8421145">
        <ele>25.1317</ele>
        <time>2014-07-12T10:31:02Z</time>
      </trkpt>
      <trkpt lat="59.9042358" lon="17.8420793">
        <ele>25.1317</ele>
        <time>2014-07-12T10:31:03Z</time>
      </trkpt>
      <trkpt lat="59.9043148" lon="17.842043">
        <ele>25.1317</ele>
        <time>2014-07-12T10:31:04Z</time>
      </trkpt>
      <trkpt lat="59.9044147" lon="17.841959">
        <ele>25.1317</ele>
        <time>2014-07-12T10:31:05Z</time>
      </trkpt>
      <trkpt lat="59.9044996" lon="17.8418748">
        <ele>25.1317</ele>
        <time>2014-07-12T10:31:06Z</time>
      </trkpt>
      <trkpt lat="59.9045783" lon="17.8418072">
        <ele>25.6123</ele>
        <time>2014-07-12T10:31:07Z</time>
      </trkpt>
      <trkpt lat="59.9046591" lon="17.8417385">
        <ele>25.1317</ele>
        <time>2014-07-12T10:31:08Z</time>
      </trkpt>
      <trkpt lat="59.9047415" lon="17.8416844">
        <ele>24.651</ele>
        <time>2014-07-12T10:31:09Z</time>
      </trkpt>
      <trkpt lat="59.9048341" lon="17.8416224">
        <ele>24.1703</ele>
        <time>2014-07-12T10:31:10Z</time>
      </trkpt>
      <trkpt lat="59.9049284" lon="17.8415737">
        <ele>24.1703</ele>
        <time>2014-07-12T10:31:11Z</time>
      </trkpt>
      <trkpt lat="59.9050215" lon="17.8415323">
        <ele>23.6896</ele>
        <time>2014-07-12T10:31:12Z</time>
      </trkpt>
      <trkpt lat="59.9051163" lon="17.8414956">
        <ele>22.2476</ele>
        <time>2014-07-12T10:31:13Z</time>
      </trkpt>
      <trkpt lat="59.9052196" lon="17.8414619">
        <ele>21.767</ele>
        <time>2014-07-12T10:31:14Z</time>
      </trkpt>
      <trkpt lat="59.9053252" lon="17.8414267">
        <ele>20.8057</ele>
        <time>2014-07-12T10:31:15Z</time>
      </trkpt>
      <trkpt lat="59.9054326" lon="17.8413887">
        <ele>20.325</ele>
        <time>2014-07-12T10:31:16Z</time>
      </trkpt>
      <trkpt lat="59.9055412" lon="17.8413505">
        <ele>19.3638</ele>
        <time>2014-07-12T10:31:17Z</time>
      </trkpt>
      <trkpt lat="59.9056491" lon="17.8413062">
        <ele>18.8831</ele>
        <time>2014-07-12T10:31:18Z</time>
      </trkpt>
      <trkpt lat="59.9057541" lon="17.8412535">
        <ele>18.4023</ele>
        <time>2014-07-12T10:31:19Z</time>
      </trkpt>
      <trkpt lat="59.9058531" lon="17.8411863">
        <ele>17.9218</ele>
        <time>2014-07-12T10:31:20Z</time>
      </trkpt>
      <trkpt lat="59.9059454" lon="17.8410992">
        <ele>17.4412</ele>
        <time>2014-07-12T10:31:21Z</time>
      </trkpt>
      <trkpt lat="59.9060297" lon="17.8409962">
        <ele>17.4412</ele>
        <time>2014-07-12T10:31:22Z</time>
      </trkpt>
      <trkpt lat="59.9061074" lon="17.8408801">
        <ele>17.4412</ele>
        <time>2014-07-12T10:31:23Z</time>
      </trkpt>
      <trkpt lat="59.9061799" lon="17.840758">
        <ele>17.4412</ele>
        <time>2014-07-12T10:31:24Z</time>
      </trkpt>
      <trkpt lat="59.9062509" lon="17.8406423">
        <ele>16.9604</ele>
        <time>2014-07-12T10:31:25Z</time>
      </trkpt>
      <trkpt lat="59.9063215" lon="17.8405403">
        <ele>17.4412</ele>
        <time>2014-07-12T10:31:26Z</time>
      </trkpt>
      <trkpt lat="59.9063919" lon="17.8404469">
        <ele>16.9604</ele>
        <time>2014-07-12T10:31:27Z</time>
      </trkpt>
      <trkpt lat="59.9064647" lon="17.8403637">
        <ele>16.9604</ele>
        <time>2014-07-12T10:31:28Z</time>
      </trkpt>
      <trkpt lat="59.9065391" lon="17.8402895">
        <ele>16.9604</ele>
        <time>2014-07-12T10:31:29Z</time>
      </trkpt>
      <trkpt lat="59.9066073" lon="17.8402242">
        <ele>16.9604</ele>
        <time>2014-07-12T10:31:30Z</time>
      </trkpt>
      <trkpt lat="59.9066769" lon="17.8401594">
        <ele>16.9604</ele>
        <time>2014-07-12T10:31:31Z</time>
      </trkpt>
      <trkpt lat="59.9067481" lon="17.840098">
        <ele>17.4412</ele>
        <time>2014-07-12T10:31:32Z</time>
      </trkpt>
      <trkpt lat="59.9068202" lon="17.8400407">
        <ele>17.4412</ele>
        <time>2014-07-12T10:31:33Z</time>
      </trkpt>
      <trkpt lat="59.9068923" lon="17.8399855">
        <ele>17.9218</ele>
        <time>2014-07-12T10:31:34Z</time>
      </trkpt>
      <trkpt lat="59.9069639" lon="17.8399332">
        <ele>18.4023</ele>
        <time>2014-07-12T10:31:35Z</time>
      </trkpt>
      <trkpt lat="59.9070363" lon="17.8398802">
        <ele>18.8831</ele>
        <time>2014-07-12T10:31:36Z</time>
      </trkpt>
      <trkpt lat="59.9071068" lon="17.8398291">
        <ele>19.8444</ele>
        <time>2014-07-12T10:31:37Z</time>
      </trkpt>
      <trkpt lat="59.907175" lon="17.8397788">
        <ele>20.325</ele>
        <time>2014-07-12T10:31:38Z</time>
      </trkpt>
      <trkpt lat="59.907242" lon="17.839725">
        <ele>20.8057</ele>
        <time>2014-07-12T10:31:39Z</time>
      </trkpt>
      <trkpt lat="59.9073067" lon="17.8396737">
        <ele>21.2864</ele>
        <time>2014-07-12T10:31:40Z</time>
      </trkpt>
      <trkpt lat="59.907371" lon="17.8396228">
        <ele>21.2864</ele>
        <time>2014-07-12T10:31:41Z</time>
      </trkpt>
      <trkpt lat="59.9074324" lon="17.8395722">
        <ele>21.2864</ele>
        <time>2014-07-12T10:31:42Z</time>
      </trkpt>
      <trkpt lat="59.9074901" lon="17.8395162">
        <ele>21.767</ele>
        <time>2014-07-12T10:31:43Z</time>
      </trkpt>
      <trkpt lat="59.9075461" lon="17.8394587">
        <ele>22.2476</ele>
        <time>2014-07-12T10:31:44Z</time>
      </trkpt>
      <trkpt lat="59.9076003" lon="17.8393979">
        <ele>22.2476</ele>
        <time>2014-07-12T10:31:45Z</time>
      </trkpt>
      <trkpt lat="59.9076543" lon="17.8393383">
        <ele>22.2476</ele>
        <time>2014-07-12T10:31:46Z</time>
      </trkpt>
      <trkpt lat="59.9077105" lon="17.8392706">
        <ele>21.767</ele>
        <time>2014-07-12T10:31:47Z</time>
      </trkpt>
      <trkpt lat="59.907768" lon="17.8391981">
        <ele>21.2864</ele>
        <time>2014-07-12T10:31:48Z</time>
      </trkpt>
      <trkpt lat="59.9078282" lon="17.8391225">
        <ele>20.8057</ele>
        <time>2014-07-12T10:31:49Z</time>
      </trkpt>
      <trkpt lat="59.9078915" lon="17.8390477">
        <ele>20.325</ele>
        <time>2014-07-12T10:31:50Z</time>
      </trkpt>
      <trkpt lat="59.9079574" lon="17.8389723">
        <ele>19.8444</ele>
        <time>2014-07-12T10:31:51Z</time>
      </trkpt>
      <trkpt lat="59.908027" lon="17.8389027">
        <ele>19.3638</ele>
        <time>2014-07-12T10:31:52Z</time>
      </trkpt>
      <trkpt lat="59.9080986" lon="17.8388371">
        <ele>19.3638</ele>
        <time>2014-07-12T10:31:53Z</time>
      </trkpt>
      <trkpt lat="59.9081734" lon="17.8387864">
        <ele>18.8831</ele>
        <time>2014-07-12T10:31:54Z</time>
      </trkpt>
      <trkpt lat="59.9082505" lon="17.8387527">
        <ele>18.8831</ele>
        <time>2014-07-12T10:31:55Z</time>
      </trkpt>
      <trkpt lat="59.9083292" lon="17.8387357">
        <ele>18.4023</ele>
        <time>2014-07-12T10:31:56Z</time>
      </trkpt>
      <trkpt lat="59.908409" lon="17.8387339">
        <ele>18.4023</ele>
        <time>2014-07-12T10:31:57Z</time>
      </trkpt>
      <trkpt lat="59.9084878" lon="17.8387452">
        <ele>17.9218</ele>
        <time>2014-07-12T10:31:58Z</time>
      </trkpt>
      <trkpt lat="59.9085674" lon="17.8387789">
        <ele>17.9218</ele>
        <time>2014-07-12T10:31:59Z</time>
      </trkpt>
      <trkpt lat="59.9086468" lon="17.8388377">
        <ele>16.9604</ele>
        <time>2014-07-12T10:32:00Z</time>
      </trkpt>
      <trkpt lat="59.908725" lon="17.8389178">
        <ele>16.4797</ele>
        <time>2014-07-12T10:32:01Z</time>
      </trkpt>
      <trkpt lat="59.908801" lon="17.8390184">
        <ele>15.999</ele>
        <time>2014-07-12T10:32:02Z</time>
      </trkpt>
      <trkpt lat="59.9088742" lon="17.839137">
        <ele>15.0377</ele>
        <time>2014-07-12T10:32:03Z</time>
      </trkpt>
      <trkpt lat="59.9089416" lon="17.8392748">
        <ele>14.557</ele>
        <time>2014-07-12T10:32:04Z</time>
      </trkpt>
      <trkpt lat="59.9090038" lon="17.8394271">
        <ele>14.0764</ele>
        <time>2014-07-12T10:32:05Z</time>
      </trkpt>
      <trkpt lat="59.9090644" lon="17.839588">
        <ele>13.5958</ele>
        <time>2014-07-12T10:32:06Z</time>
      </trkpt>
      <trkpt lat="59.9091243" lon="17.8397545">
        <ele>12.6344</ele>
        <time>2014-07-12T10:32:07Z</time>
      </trkpt>
      <trkpt lat="59.9091844" lon="17.8399233">
        <ele>12.1538</ele>
        <time>2014-07-12T10:32:08Z</time>
      </trkpt>
      <trkpt lat="59.9092447" lon="17.8400917">
        <ele>11.6732</ele>
        <time>2014-07-12T10:32:09Z</time>
      </trkpt>
      <trkpt lat="59.9093056" lon="17.8402609">
        <ele>11.6732</ele>
        <time>2014-07-12T10:32:10Z</time>
      </trkpt>
      <trkpt lat="59.9093653" lon="17.8404269">
        <ele>11.6732</ele>
        <time>2014-07-12T10:32:11Z</time>
      </trkpt>
      <trkpt lat="59.9094244" lon="17.840589">
        <ele>11.6732</ele>
        <time>2014-07-12T10:32:12Z</time>
      </trkpt>
      <trkpt lat="59.9094802" lon="17.8407486">
        <ele>11.6732</ele>
        <time>2014-07-12T10:32:13Z</time>
      </trkpt>
      <trkpt lat="59.9095293" lon="17.8409081">
        <ele>11.6732</ele>
        <time>2014-07-12T10:32:14Z</time>
      </trkpt>
      <trkpt lat="59.9095713" lon="17.8410711">
        <ele>11.6732</ele>
        <time>2014-07-12T10:32:15Z</time>
      </trkpt>
      <trkpt lat="59.9096021" lon="17.8412397">
        <ele>11.6732</ele>
        <time>2014-07-12T10:32:16Z</time>
      </trkpt>
      <trkpt lat="59.9096236" lon="17.841411">
        <ele>11.6732</ele>
        <time>2014-07-12T10:32:17Z</time>
      </trkpt>
      <trkpt lat="59.9096365" lon="17.8415811">
        <ele>12.1538</ele>
        <time>2014-07-12T10:32:18Z</time>
      </trkpt>
      <trkpt lat="59.9096408" lon="17.8417471">
        <ele>12.6344</ele>
        <time>2014-07-12T10:32:19Z</time>
      </trkpt>
      <trkpt lat="59.9096377" lon="17.8419062">
        <ele>13.1151</ele>
        <time>2014-07-12T10:32:20Z</time>
      </trkpt>
      <trkpt lat="59.9096299" lon="17.8420575">
        <ele>13.5958</ele>
        <time>2014-07-12T10:32:21Z</time>
      </trkpt>
      <trkpt lat="59.9096199" lon="17.8422">
        <ele>14.0764</ele>
        <time>2014-07-12T10:32:22Z</time>
      </trkpt>
      <trkpt lat="59.9096091" lon="17.8423337">
        <ele>14.0764</ele>
        <time>2014-07-12T10:32:23Z</time>
      </trkpt>
      <trkpt lat="59.9095988" lon="17.8424612">
        <ele>14.557</ele>
        <time>2014-07-12T10:32:24Z</time>
      </trkpt>
      <trkpt lat="59.9095905" lon="17.8425842">
        <ele>15.0377</ele>
        <time>2014-07-12T10:32:25Z</time>
      </trkpt>
      <trkpt lat="59.9095864" lon="17.8427049">
        <ele>15.0377</ele>
        <time>2014-07-12T10:32:26Z</time>
      </trkpt>
      <trkpt lat="59.9095906" lon="17.8428243">
        <ele>15.5184</ele>
        <time>2014-07-12T10:32:27Z</time>
      </trkpt>
      <trkpt lat="59.909606" lon="17.8429407">
        <ele>15.5184</ele>
        <time>2014-07-12T10:32:28Z</time>
      </trkpt>
      <trkpt lat="59.9096346" lon="17.8430463">
        <ele>15.5184</ele>
        <time>2014-07-12T10:32:29Z</time>
      </trkpt>
      <trkpt lat="59.909676" lon="17.8431344">
        <ele>15.999</ele>
        <time>2014-07-12T10:32:30Z</time>
      </trkpt>
      <trkpt lat="59.9097232" lon="17.8432022">
        <ele>15.999</ele>
        <time>2014-07-12T10:32:31Z</time>
      </trkpt>
      <trkpt lat="59.9097723" lon="17.8432375">
        <ele>15.999</ele>
        <time>2014-07-12T10:32:32Z</time>
      </trkpt>
      <trkpt lat="59.9098238" lon="17.8432625">
        <ele>15.999</ele>
        <time>2014-07-12T10:32:33Z</time>
      </trkpt>
      <trkpt lat="59.9098771" lon="17.8432957">
        <ele>15.999</ele>
        <time>2014-07-12T10:32:34Z</time>
      </trkpt>
      <trkpt lat="59.909932" lon="17.8433386">
        <ele>15.999</ele>
        <time>2014-07-12T10:32:35Z</time>
      </trkpt>
      <trkpt lat="59.9099889" lon="17.8433925">
        <ele>15.5184</ele>
        <time>2014-07-12T10:32:36Z</time>
      </trkpt>
      <trkpt lat="59.9100434" lon="17.8434515">
        <ele>15.5184</ele>
        <time>2014-07-12T10:32:37Z</time>
      </trkpt>
      <trkpt lat="59.9100946" lon="17.8435163">
        <ele>15.0377</ele>
        <time>2014-07-12T10:32:38Z</time>
      </trkpt>
      <trkpt lat="59.9101469" lon="17.8435804">
        <ele>14.557</ele>
        <time>2014-07-12T10:32:39Z</time>
      </trkpt>
      <trkpt lat="59.9102032" lon="17.8436396">
        <ele>14.0764</ele>
        <time>2014-07-12T10:32:40Z</time>
      </trkpt>
      <trkpt lat="59.910262" lon="17.8436897">
        <ele>13.5958</ele>
        <time>2014-07-12T10:32:41Z</time>
      </trkpt>
      <trkpt lat="59.9103278" lon="17.8437379">
        <ele>13.5958</ele>
        <time>2014-07-12T10:32:42Z</time>
      </trkpt>
      <trkpt lat="59.9103919" lon="17.8437873">
        <ele>13.1151</ele>
        <time>2014-07-12T10:32:43Z</time>
      </trkpt>
      <trkpt lat="59.9104583" lon="17.8438384">
        <ele>12.6344</ele>
        <time>2014-07-12T10:32:44Z</time>
      </trkpt>
      <trkpt lat="59.9105267" lon="17.8438928">
        <ele>12.1538</ele>
        <time>2014-07-12T10:32:45Z</time>
      </trkpt>
      <trkpt lat="59.9105945" lon="17.8439473">
        <ele>11.6732</ele>
        <time>2014-07-12T10:32:46Z</time>
      </trkpt>
      <trkpt lat="59.9106649" lon="17.8440044">
        <ele>11.1925</ele>
        <time>2014-07-12T10:32:47Z</time>
      </trkpt>
      <trkpt lat="59.9107353" lon="17.8440617">
        <ele>10.7118</ele>
        <time>2014-07-12T10:32:48Z</time>
      </trkpt>
      <trkpt lat="59.9108058" lon="17.844126">
        <ele>10.2312</ele>
        <time>2014-07-12T10:32:49Z</time>
      </trkpt>
      <trkpt lat="59.9108768" lon="17.8441912">
        <ele>9.75061</ele>
        <time>2014-07-12T10:32:50Z</time>
      </trkpt>
      <trkpt lat="59.9109507" lon="17.8442466">
        <ele>9.2699</ele>
        <time>2014-07-12T10:32:51Z</time>
      </trkpt>
      <trkpt lat="59.9110264" lon="17.8442876">
        <ele>9.2699</ele>
        <time>2014-07-12T10:32:52Z</time>
      </trkpt>
      <trkpt lat="59.9111022" lon="17.8443149">
        <ele>9.2699</ele>
        <time>2014-07-12T10:32:53Z</time>
      </trkpt>
      <trkpt lat="59.9111787" lon="17.8443302">
        <ele>9.2699</ele>
        <time>2014-07-12T10:32:54Z</time>
      </trkpt>
      <trkpt lat="59.9112525" lon="17.8443405">
        <ele>9.75061</ele>
        <time>2014-07-12T10:32:55Z</time>
      </trkpt>
      <trkpt lat="59.9113244" lon="17.8443464">
        <ele>9.75061</ele>
        <time>2014-07-12T10:32:56Z</time>
      </trkpt>
      <trkpt lat="59.9113948" lon="17.8443482">
        <ele>9.75061</ele>
        <time>2014-07-12T10:32:57Z</time>
      </trkpt>
      <trkpt lat="59.9114637" lon="17.8443472">
        <ele>9.75061</ele>
        <time>2014-07-12T10:32:58Z</time>
      </trkpt>
      <trkpt lat="59.9115316" lon="17.8443435">
        <ele>9.2699</ele>
        <time>2014-07-12T10:32:59Z</time>
      </trkpt>
      <trkpt lat="59.9115989" lon="17.8443369">
        <ele>9.2699</ele>
        <time>2014-07-12T10:33:00Z</time>
      </trkpt>
      <trkpt lat="59.9116661" lon="17.844327">
        <ele>8.78918</ele>
        <time>2014-07-12T10:33:01Z</time>
      </trkpt>
      <trkpt lat="59.9117324" lon="17.844312">
        <ele>8.78918</ele>
        <time>2014-07-12T10:33:02Z</time>
      </trkpt>
      <trkpt lat="59.9117973" lon="17.8442897">
        <ele>8.78918</ele>
        <time>2014-07-12T10:33:03Z</time>
      </trkpt>
      <trkpt lat="59.9118595" lon="17.8442584">
        <ele>8.78918</ele>
        <time>2014-07-12T10:33:04Z</time>
      </trkpt>
      <trkpt lat="59.9119175" lon="17.8442234">
        <ele>8.30859</ele>
        <time>2014-07-12T10:33:05Z</time>
      </trkpt>
      <trkpt lat="59.9119763" lon="17.8441866">
        <ele>8.30859</ele>
        <time>2014-07-12T10:33:06Z</time>
      </trkpt>
      <trkpt lat="59.9120307" lon="17.8441487">
        <ele>8.78918</ele>
        <time>2014-07-12T10:33:07Z</time>
      </trkpt>
      <trkpt lat="59.9120827" lon="17.8441125">
        <ele>9.2699</ele>
        <time>2014-07-12T10:33:08Z</time>
      </trkpt>
      <trkpt lat="59.9121308" lon="17.8440747">
        <ele>9.2699</ele>
        <time>2014-07-12T10:33:09Z</time>
      </trkpt>
      <trkpt lat="59.9121768" lon="17.8440327">
        <ele>9.75061</ele>
        <time>2014-07-12T10:33:10Z</time>
      </trkpt>
      <trkpt lat="59.9122221" lon="17.843989">
        <ele>9.75061</ele>
        <time>2014-07-12T10:33:11Z</time>
      </trkpt>
      <trkpt lat="59.9122667" lon="17.8439437">
        <ele>10.2312</ele>
        <time>2014-07-12T10:33:12Z</time>
      </trkpt>
      <trkpt lat="59.9123099" lon="17.8438934">
        <ele>10.2312</ele>
        <time>2014-07-12T10:33:13Z</time>
      </trkpt>
      <trkpt lat="59.9123543" lon="17.8438409">
        <ele>10.2312</ele>
        <time>2014-07-12T10:33:14Z</time>
      </trkpt>
      <trkpt lat="59.9124013" lon="17.8437889">
        <ele>10.2312</ele>
        <time>2014-07-12T10:33:15Z</time>
      </trkpt>
      <trkpt lat="59.9124491" lon="17.8437379">
        <ele>10.2312</ele>
        <time>2014-07-12T10:33:16Z</time>
      </trkpt>
      <trkpt lat="59.9124978" lon="17.8436852">
        <ele>10.2312</ele>
        <time>2014-07-12T10:33:17Z</time>
      </trkpt>
      <trkpt lat="59.912548" lon="17.8436353">
        <ele>10.2312</ele>
        <time>2014-07-12T10:33:18Z</time>
      </trkpt>
      <trkpt lat="59.9125987" lon="17.8435881">
        <ele>10.2312</ele>
        <time>2014-07-12T10:33:19Z</time>
      </trkpt>
      <trkpt lat="59.9126489" lon="17.8435413">
        <ele>10.2312</ele>
        <time>2014-07-12T10:33:20Z</time>
      </trkpt>
      <trkpt lat="59.9127014" lon="17.8435022">
        <ele>10.2312</ele>
        <time>2014-07-12T10:33:21Z</time>
      </trkpt>
      <trkpt lat="59.912756" lon="17.8434684">
        <ele>10.2312</ele>
        <time>2014-07-12T10:33:22Z</time>
      </trkpt>
      <trkpt lat="59.9128126" lon="17.8434355">
        <ele>10.2312</ele>
        <time>2014-07-12T10:33:23Z</time>
      </trkpt>
      <trkpt lat="59.9128726" lon="17.843407">
        <ele>10.2312</ele>
        <time>2014-07-12T10:33:24Z</time>
      </trkpt>
      <trkpt lat="59.9129347" lon="17.8433824">
        <ele>9.75061</ele>
        <time>2014-07-12T10:33:25Z</time>
      </trkpt>
      <trkpt lat="59.9129991" lon="17.8433609">
        <ele>9.75061</ele>
        <time>2014-07-12T10:33:26Z</time>
      </trkpt>
      <trkpt lat="59.9130649" lon="17.8433428">
        <ele>9.75061</ele>
        <time>2014-07-12T10:33:27Z</time>
      </trkpt>
      <trkpt lat="59.9131318" lon="17.8433272">
        <ele>9.75061</ele>
        <time>2014-07-12T10:33:28Z</time>
      </trkpt>
      <trkpt lat="59.9131994" lon="17.8433116">
        <ele>9.2699</ele>
        <time>2014-07-12T10:33:29Z</time>
      </trkpt>
      <trkpt lat="59.913267" lon="17.8432935">
        <ele>9.2699</ele>
        <time>2014-07-12T10:33:30Z</time>
      </trkpt>
      <trkpt lat="59.9133347" lon="17.8432722">
        <ele>9.2699</ele>
        <time>2014-07-12T10:33:31Z</time>
      </trkpt>
      <trkpt lat="59.9134026" lon="17.843248">
        <ele>9.2699</ele>
        <time>2014-07-12T10:33:32Z</time>
      </trkpt>
      <trkpt lat="59.9134714" lon="17.8432199">
        <ele>9.2699</ele>
        <time>2014-07-12T10:33:33Z</time>
      </trkpt>
      <trkpt lat="59.9135403" lon="17.843188">
        <ele>9.2699</ele>
        <time>2014-07-12T10:33:34Z</time>
      </trkpt>
      <trkpt lat="59.9136089" lon="17.8431514">
        <ele>9.2699</ele>
        <time>2014-07-12T10:33:35Z</time>
      </trkpt>
      <trkpt lat="59.913676" lon="17.8431065">
        <ele>9.2699</ele>
        <time>2014-07-12T10:33:36Z</time>
      </trkpt>
      <trkpt lat="59.9137414" lon="17.8430556">
        <ele>9.75061</ele>
        <time>2014-07-12T10:33:37Z</time>
      </trkpt>
      <trkpt lat="59.9138063" lon="17.8430019">
        <ele>9.75061</ele>
        <time>2014-07-12T10:33:38Z</time>
      </trkpt>
      <trkpt lat="59.9138719" lon="17.8429465">
        <ele>9.75061</ele>
        <time>2014-07-12T10:33:39Z</time>
      </trkpt>
      <trkpt lat="59.9139376" lon="17.8428872">
        <ele>9.75061</ele>
        <time>2014-07-12T10:33:40Z</time>
      </trkpt>
      <trkpt lat="59.9140016" lon="17.8428258">
        <ele>9.75061</ele>
        <time>2014-07-12T10:33:41Z</time>
      </trkpt>
      <trkpt lat="59.9140639" lon="17.8427644">
        <ele>9.75061</ele>
        <time>2014-07-12T10:33:42Z</time>
      </trkpt>
      <trkpt lat="59.9141248" lon="17.8427015">
        <ele>9.75061</ele>
        <time>2014-07-12T10:33:43Z</time>
      </trkpt>
      <trkpt lat="59.9141853" lon="17.8426362">
        <ele>9.75061</ele>
        <time>2014-07-12T10:33:44Z</time>
      </trkpt>
      <trkpt lat="59.9142459" lon="17.8425699">
        <ele>9.75061</ele>
        <time>2014-07-12T10:33:45Z</time>
      </trkpt>
      <trkpt lat="59.9143064" lon="17.8425014">
        <ele>9.75061</ele>
        <time>2014-07-12T10:33:46Z</time>
      </trkpt>
      <trkpt lat="59.9143664" lon="17.842429">
        <ele>9.75061</ele>
        <time>2014-07-12T10:33:47Z</time>
      </trkpt>
      <trkpt lat="59.9144262" lon="17.8423555">
        <ele>9.75061</ele>
        <time>2014-07-12T10:33:48Z</time>
      </trkpt>
      <trkpt lat="59.9144857" lon="17.8422807">
        <ele>9.75061</ele>
        <time>2014-07-12T10:33:49Z</time>
      </trkpt>
      <trkpt lat="59.914546" lon="17.8422073">
        <ele>9.75061</ele>
        <time>2014-07-12T10:33:50Z</time>
      </trkpt>
      <trkpt lat="59.914608" lon="17.8421392">
        <ele>10.2312</ele>
        <time>2014-07-12T10:33:51Z</time>
      </trkpt>
      <trkpt lat="59.9146713" lon="17.8420784">
        <ele>10.2312</ele>
        <time>2014-07-12T10:33:52Z</time>
      </trkpt>
      <trkpt lat="59.9147363" lon="17.8420283">
        <ele>10.2312</ele>
        <time>2014-07-12T10:33:53Z</time>
      </trkpt>
      <trkpt lat="59.9148028" lon="17.8419857">
        <ele>10.2312</ele>
        <time>2014-07-12T10:33:54Z</time>
      </trkpt>
      <trkpt lat="59.9148705" lon="17.8419488">
        <ele>10.2312</ele>
        <time>2014-07-12T10:33:55Z</time>
      </trkpt>
      <trkpt lat="59.914938" lon="17.8419162">
        <ele>10.2312</ele>
        <time>2014-07-12T10:33:56Z</time>
      </trkpt>
      <trkpt lat="59.9150047" lon="17.8418843">
        <ele>10.2312</ele>
        <time>2014-07-12T10:33:57Z</time>
      </trkpt>
      <trkpt lat="59.9150716" lon="17.8418597">
        <ele>10.2312</ele>
        <time>2014-07-12T10:33:58Z</time>
      </trkpt>
      <trkpt lat="59.9151388" lon="17.8418456">
        <ele>10.2312</ele>
        <time>2014-07-12T10:33:59Z</time>
      </trkpt>
      <trkpt lat="59.9152058" lon="17.8418408">
        <ele>10.2312</ele>
        <time>2014-07-12T10:34:00Z</time>
      </trkpt>
      <trkpt lat="59.9152726" lon="17.8418424">
        <ele>10.2312</ele>
        <time>2014-07-12T10:34:01Z</time>
      </trkpt>
      <trkpt lat="59.9153389" lon="17.8418525">
        <ele>10.2312</ele>
        <time>2014-07-12T10:34:02Z</time>
      </trkpt>
      <trkpt lat="59.9154046" lon="17.8418642">
        <ele>10.2312</ele>
        <time>2014-07-12T10:34:03Z</time>
      </trkpt>
      <trkpt lat="59.915469" lon="17.841869">
        <ele>10.2312</ele>
        <time>2014-07-12T10:34:04Z</time>
      </trkpt>
      <trkpt lat="59.9155332" lon="17.8418738">
        <ele>10.7118</ele>
        <time>2014-07-12T10:34:05Z</time>
      </trkpt>
      <trkpt lat="59.9155981" lon="17.8418814">
        <ele>10.7118</ele>
        <time>2014-07-12T10:34:06Z</time>
      </trkpt>
      <trkpt lat="59.9156627" lon="17.8418854">
        <ele>10.7118</ele>
        <time>2014-07-12T10:34:07Z</time>
      </trkpt>
      <trkpt lat="59.9157278" lon="17.8418914">
        <ele>10.7118</ele>
        <time>2014-07-12T10:34:08Z</time>
      </trkpt>
      <trkpt lat="59.9157927" lon="17.8418948">
        <ele>10.7118</ele>
        <time>2014-07-12T10:34:09Z</time>
      </trkpt>
      <trkpt lat="59.915857" lon="17.8418975">
        <ele>10.7118</ele>
        <time>2014-07-12T10:34:10Z</time>
      </trkpt>
      <trkpt lat="59.9159212" lon="17.8419033">
        <ele>11.1925</ele>
        <time>2014-07-12T10:34:11Z</time>
      </trkpt>
      <trkpt lat="59.9159852" lon="17.8419151">
        <ele>11.1925</ele>
        <time>2014-07-12T10:34:12Z</time>
      </trkpt>
      <trkpt lat="59.9160486" lon="17.8419377">
        <ele>11.1925</ele>
        <time>2014-07-12T10:34:13Z</time>
      </trkpt>
      <trkpt lat="59.9161099" lon="17.8419717">
        <ele>11.1925</ele>
        <time>2014-07-12T10:34:14Z</time>
      </trkpt>
      <trkpt lat="59.9161683" lon="17.8420217">
        <ele>11.6732</ele>
        <time>2014-07-12T10:34:15Z</time>
      </trkpt>
      <trkpt lat="59.9162227" lon="17.842085">
        <ele>11.6732</ele>
        <time>2014-07-12T10:34:16Z</time>
      </trkpt>
      <trkpt lat="59.9162746" lon="17.8421555">
        <ele>12.1538</ele>
        <time>2014-07-12T10:34:17Z</time>
      </trkpt>
      <trkpt lat="59.9163254" lon="17.8422278">
        <ele>12.1538</ele>
        <time>2014-07-12T10:34:18Z</time>
      </trkpt>
      <trkpt lat="59.9163739" lon="17.842299">
        <ele>12.6344</ele>
        <time>2014-07-12T10:34:19Z</time>
      </trkpt>
      <trkpt lat="59.91642" lon="17.8423694">
        <ele>13.1151</ele>
        <time>2014-07-12T10:34:20Z</time>
      </trkpt>
      <trkpt lat="59.9164649" lon="17.8424388">
        <ele>13.1151</ele>
        <time>2014-07-12T10:34:21Z</time>
      </trkpt>
      <trkpt lat="59.9165082" lon="17.8425072">
        <ele>13.5958</ele>
        <time>2014-07-12T10:34:22Z</time>
      </trkpt>
      <trkpt lat="59.9165505" lon="17.8425744">
        <ele>13.5958</ele>
        <time>2014-07-12T10:34:23Z</time>
      </trkpt>
      <trkpt lat="59.9165916" lon="17.8426398">
        <ele>14.0764</ele>
        <time>2014-07-12T10:34:24Z</time>
      </trkpt>
      <trkpt lat="59.9166312" lon="17.8427033">
        <ele>14.0764</ele>
        <time>2014-07-12T10:34:25Z</time>
      </trkpt>
      <trkpt lat="59.9166675" lon="17.8427616">
        <ele>14.0764</ele>
        <time>2014-07-12T10:34:26Z</time>
      </trkpt>
      <trkpt lat="59.9167007" lon="17.8428171">
        <ele>14.557</ele>
        <time>2014-07-12T10:34:27Z</time>
      </trkpt>
      <trkpt lat="59.9167293" lon="17.8428686">
        <ele>14.557</ele>
        <time>2014-07-12T10:34:28Z</time>
      </trkpt>
      <trkpt lat="59.9167561" lon="17.8429158">
        <ele>14.557</ele>
        <time>2014-07-12T10:34:29Z</time>
      </trkpt>
      <trkpt lat="59.9167821" lon="17.8429636">
        <ele>14.557</ele>
        <time>2014-07-12T10:34:30Z</time>
      </trkpt>
      <trkpt lat="59.9168066" lon="17.843011">
        <ele>15.0377</ele>
        <time>2014-07-12T10:34:31Z</time>
      </trkpt>
      <trkpt lat="59.9168316" lon="17.8430551">
        <ele>15.0377</ele>
        <time>2014-07-12T10:34:32Z</time>
      </trkpt>
      <trkpt lat="59.9168562" lon="17.8430981">
        <ele>15.0377</ele>
        <time>2014-07-12T10:34:33Z</time>
      </trkpt>
      <trkpt lat="59.9168812" lon="17.843139">
        <ele>15.0377</ele>
        <time>2014-07-12T10:34:34Z</time>
      </trkpt>
      <trkpt lat="59.9169065" lon="17.8431771">
        <ele>15.5184</ele>
        <time>2014-07-12T10:34:35Z</time>
      </trkpt>
      <trkpt lat="59.9169308" lon="17.843217">
        <ele>15.5184</ele>
        <time>2014-07-12T10:34:36Z</time>
      </trkpt>
      <trkpt lat="59.9169527" lon="17.8432617">
        <ele>15.5184</ele>
        <time>2014-07-12T10:34:37Z</time>
      </trkpt>
      <trkpt lat="59.9169743" lon="17.8433106">
        <ele>15.5184</ele>
        <time>2014-07-12T10:34:38Z</time>
      </trkpt>
      <trkpt lat="59.9169962" lon="17.8433623">
        <ele>15.5184</ele>
        <time>2014-07-12T10:34:39Z</time>
      </trkpt>
      <trkpt lat="59.9170199" lon="17.8434133">
        <ele>15.5184</ele>
        <time>2014-07-12T10:34:40Z</time>
      </trkpt>
      <trkpt lat="59.9170463" lon="17.8434649">
        <ele>15.0377</ele>
        <time>2014-07-12T10:34:41Z</time>
      </trkpt>
      <trkpt lat="59.9170751" lon="17.8435182">
        <ele>15.0377</ele>
        <time>2014-07-12T10:34:42Z</time>
      </trkpt>
      <trkpt lat="59.9171048" lon="17.8435744">
        <ele>15.5184</ele>
        <time>2014-07-12T10:34:43Z</time>
      </trkpt>
      <trkpt lat="59.9171331" lon="17.8436333">
        <ele>15.5184</ele>
        <time>2014-07-12T10:34:44Z</time>
      </trkpt>
      <trkpt lat="59.9171622" lon="17.8436929">
        <ele>15.5184</ele>
        <time>2014-07-12T10:34:45Z</time>
      </trkpt>
      <trkpt lat="59.9171928" lon="17.843752">
        <ele>15.999</ele>
        <time>2014-07-12T10:34:46Z</time>
      </trkpt>
      <trkpt lat="59.9172224" lon="17.8438111">
        <ele>16.4797</ele>
        <time>2014-07-12T10:34:47Z</time>
      </trkpt>
      <trkpt lat="59.9172504" lon="17.8438695">
        <ele>16.4797</ele>
        <time>2014-07-12T10:34:48Z</time>
      </trkpt>
      <trkpt lat="59.9172779" lon="17.8439286">
        <ele>16.4797</ele>
        <time>2014-07-12T10:34:49Z</time>
      </trkpt>
      <trkpt lat="59.9173021" lon="17.8439906">
        <ele>16.9604</ele>
        <time>2014-07-12T10:34:50Z</time>
      </trkpt>
      <trkpt lat="59.9173255" lon="17.8440535">
        <ele>16.9604</ele>
        <time>2014-07-12T10:34:51Z</time>
      </trkpt>
      <trkpt lat="59.9173482" lon="17.8441154">
        <ele>17.4412</ele>
        <time>2014-07-12T10:34:52Z</time>
      </trkpt>
      <trkpt lat="59.9173688" lon="17.8441752">
        <ele>17.4412</ele>
        <time>2014-07-12T10:34:53Z</time>
      </trkpt>
      <trkpt lat="59.9173873" lon="17.8442354">
        <ele>17.9218</ele>
        <time>2014-07-12T10:34:54Z</time>
      </trkpt>
      <trkpt lat="59.9174058" lon="17.8442959">
        <ele>18.4023</ele>
        <time>2014-07-12T10:34:55Z</time>
      </trkpt>
      <trkpt lat="59.9174239" lon="17.8443571">
        <ele>18.8831</ele>
        <time>2014-07-12T10:34:56Z</time>
      </trkpt>
      <trkpt lat="59.9174365" lon="17.8444212">
        <ele>18.8831</ele>
        <time>2014-07-12T10:34:57Z</time>
      </trkpt>
      <trkpt lat="59.9174483" lon="17.844485">
        <ele>18.8831</ele>
        <time>2014-07-12T10:34:58Z</time>
      </trkpt>
      <trkpt lat="59.9174626" lon="17.8445491">
        <ele>18.8831</ele>
        <time>2014-07-12T10:34:59Z</time>
      </trkpt>
      <trkpt lat="59.9174815" lon="17.8446127">
        <ele>19.3638</ele>
        <time>2014-07-12T10:35:00Z</time>
      </trkpt>
      <trkpt lat="59.9174999" lon="17.8446751">
        <ele>19.3638</ele>
        <time>2014-07-12T10:35:01Z</time>
      </trkpt>
      <trkpt lat="59.9175198" lon="17.8447373">
        <ele>19.3638</ele>
        <time>2014-07-12T10:35:02Z</time>
      </trkpt>
      <trkpt lat="59.9175436" lon="17.8447956">
        <ele>19.3638</ele>
        <time>2014-07-12T10:35:03Z</time>
      </trkpt>
      <trkpt lat="59.9175716" lon="17.8448517">
        <ele>18.8831</ele>
        <time>2014-07-12T10:35:04Z</time>
      </trkpt>
      <trkpt lat="59.9176027" lon="17.8449109">
        <ele>18.8831</ele>
        <time>2014-07-12T10:35:05Z</time>
      </trkpt>
      <trkpt lat="59.9176397" lon="17.8449696">
        <ele>18.4023</ele>
        <time>2014-07-12T10:35:06Z</time>
      </trkpt>
      <trkpt lat="59.9176802" lon="17.8450298">
        <ele>17.9218</ele>
        <time>2014-07-12T10:35:07Z</time>
      </trkpt>
      <trkpt lat="59.9177227" lon="17.8450858">
        <ele>17.4412</ele>
        <time>2014-07-12T10:35:08Z</time>
      </trkpt>
      <trkpt lat="59.9177682" lon="17.8451434">
        <ele>16.9604</ele>
        <time>2014-07-12T10:35:09Z</time>
      </trkpt>
      <trkpt lat="59.9178219" lon="17.8452064">
        <ele>16.9604</ele>
        <time>2014-07-12T10:35:10Z</time>
      </trkpt>
      <trkpt lat="59.9178776" lon="17.8452642">
        <ele>16.9604</ele>
        <time>2014-07-12T10:35:11Z</time>
      </trkpt>
      <trkpt lat="59.9179335" lon="17.8453232">
        <ele>16.9604</ele>
        <time>2014-07-12T10:35:12Z</time>
      </trkpt>
      <trkpt lat="59.9179891" lon="17.8453794">
        <ele>16.9604</ele>
        <time>2014-07-12T10:35:13Z</time>
      </trkpt>
      <trkpt lat="59.9180449" lon="17.8454366">
        <ele>17.4412</ele>
        <time>2014-07-12T10:35:14Z</time>
      </trkpt>
      <trkpt lat="59.9180984" lon="17.8454951">
        <ele>17.4412</ele>
        <time>2014-07-12T10:35:15Z</time>
      </trkpt>
      <trkpt lat="59.9181507" lon="17.8455561">
        <ele>17.4412</ele>
        <time>2014-07-12T10:35:16Z</time>
      </trkpt>
      <trkpt lat="59.9182037" lon="17.8456185">
        <ele>17.4412</ele>
        <time>2014-07-12T10:35:17Z</time>
      </trkpt>
      <trkpt lat="59.9182584" lon="17.8456801">
        <ele>17.9218</ele>
        <time>2014-07-12T10:35:18Z</time>
      </trkpt>
      <trkpt lat="59.9183142" lon="17.8457401">
        <ele>17.9218</ele>
        <time>2014-07-12T10:35:19Z</time>
      </trkpt>
      <trkpt lat="59.9183694" lon="17.8457989">
        <ele>17.9218</ele>
        <time>2014-07-12T10:35:20Z</time>
      </trkpt>
      <trkpt lat="59.9184253" lon="17.8458583">
        <ele>17.9218</ele>
        <time>2014-07-12T10:35:21Z</time>
      </trkpt>
      <trkpt lat="59.9184811" lon="17.8459167">
        <ele>17.9218</ele>
        <time>2014-07-12T10:35:22Z</time>
      </trkpt>
      <trkpt lat="59.9185375" lon="17.8459763">
        <ele>18.4023</ele>
        <time>2014-07-12T10:35:23Z</time>
      </trkpt>
      <trkpt lat="59.9185939" lon="17.8460365">
        <ele>18.4023</ele>
        <time>2014-07-12T10:35:24Z</time>
      </trkpt>
      <trkpt lat="59.9186512" lon="17.8460968">
        <ele>18.4023</ele>
        <time>2014-07-12T10:35:25Z</time>
      </trkpt>
      <trkpt lat="59.918709" lon="17.8461562">
        <ele>18.4023</ele>
        <time>2014-07-12T10:35:26Z</time>
      </trkpt>
      <trkpt lat="59.9187666" lon="17.8462137">
        <ele>18.8831</ele>
        <time>2014-07-12T10:35:27Z</time>
      </trkpt>
      <trkpt lat="59.9188225" lon="17.8462684">
        <ele>18.8831</ele>
        <time>2014-07-12T10:35:28Z</time>
      </trkpt>
      <trkpt lat="59.9188763" lon="17.8463242">
        <ele>18.8831</ele>
        <time>2014-07-12T10:35:29Z</time>
      </trkpt>
      <trkpt lat="59.9189283" lon="17.8463829">
        <ele>18.8831</ele>
        <time>2014-07-12T10:35:30Z</time>
      </trkpt>
      <trkpt lat="59.9189801" lon="17.8464425">
        <ele>18.8831</ele>
        <time>2014-07-12T10:35:31Z</time>
      </trkpt>
      <trkpt lat="59.919032" lon="17.8465019">
        <ele>19.3638</ele>
        <time>2014-07-12T10:35:32Z</time>
      </trkpt>
      <trkpt lat="59.9190848" lon="17.8465628">
        <ele>19.3638</ele>
        <time>2014-07-12T10:35:33Z</time>
      </trkpt>
      <trkpt lat="59.9191379" lon="17.8466258">
        <ele>19.3638</ele>
        <time>2014-07-12T10:35:34Z</time>
      </trkpt>
      <trkpt lat="59.9191893" lon="17.8466911">
        <ele>19.3638</ele>
        <time>2014-07-12T10:35:35Z</time>
      </trkpt>
      <trkpt lat="59.9192414" lon="17.8467576">
        <ele>19.3638</ele>
        <time>2014-07-12T10:35:36Z</time>
      </trkpt>
      <trkpt lat="59.9192929" lon="17.8468233">
        <ele>19.3638</ele>
        <time>2014-07-12T10:35:37Z</time>
      </trkpt>
      <trkpt lat="59.9193432" lon="17.8468891">
        <ele>19.3638</ele>
        <time>2014-07-12T10:35:38Z</time>
      </trkpt>
      <trkpt lat="59.9193919" lon="17.8469583">
        <ele>19.3638</ele>
        <time>2014-07-12T10:35:39Z</time>
      </trkpt>
      <trkpt lat="59.9194393" lon="17.8470311">
        <ele>19.8444</ele>
        <time>2014-07-12T10:35:40Z</time>
      </trkpt>
      <trkpt lat="59.9194864" lon="17.8471041">
        <ele>19.8444</ele>
        <time>2014-07-12T10:35:41Z</time>
      </trkpt>
      <trkpt lat="59.9195326" lon="17.8471785">
        <ele>19.8444</ele>
        <time>2014-07-12T10:35:42Z</time>
      </trkpt>
      <trkpt lat="59.9195781" lon="17.8472526">
        <ele>19.8444</ele>
        <time>2014-07-12T10:35:43Z</time>
      </trkpt>
      <trkpt lat="59.9196229" lon="17.8473257">
        <ele>19.8444</ele>
        <time>2014-07-12T10:35:44Z</time>
      </trkpt>
      <trkpt lat="59.9196685" lon="17.847396">
        <ele>19.8444</ele>
        <time>2014-07-12T10:35:45Z</time>
      </trkpt>
      <trkpt lat="59.919714" lon="17.8474664">
        <ele>20.325</ele>
        <time>2014-07-12T10:35:46Z</time>
      </trkpt>
      <trkpt lat="59.919758" lon="17.8475386">
        <ele>20.325</ele>
        <time>2014-07-12T10:35:47Z</time>
      </trkpt>
      <trkpt lat="59.9198009" lon="17.8476113">
        <ele>20.325</ele>
        <time>2014-07-12T10:35:48Z</time>
      </trkpt>
      <trkpt lat="59.9198446" lon="17.8476821">
        <ele>20.8057</ele>
        <time>2014-07-12T10:35:49Z</time>
      </trkpt>
      <trkpt lat="59.9198871" lon="17.8477535">
        <ele>20.8057</ele>
        <time>2014-07-12T10:35:50Z</time>
      </trkpt>
      <trkpt lat="59.9199304" lon="17.8478224">
        <ele>20.8057</ele>
        <time>2014-07-12T10:35:51Z</time>
      </trkpt>
      <trkpt lat="59.9199737" lon="17.8478893">
        <ele>20.8057</ele>
        <time>2014-07-12T10:35:52Z</time>
      </trkpt>
      <trkpt lat="59.9200185" lon="17.8479536">
        <ele>20.8057</ele>
        <time>2014-07-12T10:35:53Z</time>
      </trkpt>
      <trkpt lat="59.9200632" lon="17.848014">
        <ele>20.8057</ele>
        <time>2014-07-12T10:35:54Z</time>
      </trkpt>
      <trkpt lat="59.9201086" lon="17.8480713">
        <ele>20.8057</ele>
        <time>2014-07-12T10:35:55Z</time>
      </trkpt>
      <trkpt lat="59.9201532" lon="17.8481176">
        <ele>20.8057</ele>
        <time>2014-07-12T10:35:56Z</time>
      </trkpt>
      <trkpt lat="59.9201977" lon="17.8481613">
        <ele>20.8057</ele>
        <time>2014-07-12T10:35:57Z</time>
      </trkpt>
      <trkpt lat="59.9202445" lon="17.8482123">
        <ele>20.8057</ele>
        <time>2014-07-12T10:35:58Z</time>
      </trkpt>
      <trkpt lat="59.9202902" lon="17.8482719">
        <ele>20.8057</ele>
        <time>2014-07-12T10:35:59Z</time>
      </trkpt>
      <trkpt lat="59.9203357" lon="17.8483455">
        <ele>20.325</ele>
        <time>2014-07-12T10:36:00Z</time>
      </trkpt>
      <trkpt lat="59.9203788" lon="17.8484299">
        <ele>20.325</ele>
        <time>2014-07-12T10:36:01Z</time>
      </trkpt>
      <trkpt lat="59.9204206" lon="17.8485233">
        <ele>20.325</ele>
        <time>2014-07-12T10:36:02Z</time>
      </trkpt>
      <trkpt lat="59.9204621" lon="17.8486217">
        <ele>20.325</ele>
        <time>2014-07-12T10:36:03Z</time>
      </trkpt>
      <trkpt lat="59.9205033" lon="17.8487241">
        <ele>20.325</ele>
        <time>2014-07-12T10:36:04Z</time>
      </trkpt>
      <trkpt lat="59.9205439" lon="17.8488295">
        <ele>20.325</ele>
        <time>2014-07-12T10:36:05Z</time>
      </trkpt>
      <trkpt lat="59.9205859" lon="17.8489362">
        <ele>20.325</ele>
        <time>2014-07-12T10:36:06Z</time>
      </trkpt>
      <trkpt lat="59.9206279" lon="17.8490446">
        <ele>20.325</ele>
        <time>2014-07-12T10:36:07Z</time>
      </trkpt>
      <trkpt lat="59.9206689" lon="17.8491522">
        <ele>20.325</ele>
        <time>2014-07-12T10:36:08Z</time>
      </trkpt>
      <trkpt lat="59.9207086" lon="17.8492569">
        <ele>20.325</ele>
        <time>2014-07-12T10:36:09Z</time>
      </trkpt>
      <trkpt lat="59.9207466" lon="17.8493601">
        <ele>20.325</ele>
        <time>2014-07-12T10:36:10Z</time>
      </trkpt>
      <trkpt lat="59.9207832" lon="17.8494635">
        <ele>20.325</ele>
        <time>2014-07-12T10:36:11Z</time>
      </trkpt>
      <trkpt lat="59.9208196" lon="17.8495664">
        <ele>20.325</ele>
        <time>2014-07-12T10:36:12Z</time>
      </trkpt>
      <trkpt lat="59.9208578" lon="17.8496683">
        <ele>20.325</ele>
        <time>2014-07-12T10:36:13Z</time>
      </trkpt>
      <trkpt lat="59.9208961" lon="17.8497681">
        <ele>20.325</ele>
        <time>2014-07-12T10:36:14Z</time>
      </trkpt>
      <trkpt lat="59.9209412" lon="17.8498669">
        <ele>20.325</ele>
        <time>2014-07-12T10:36:15Z</time>
      </trkpt>
      <trkpt lat="59.9209887" lon="17.8499671">
        <ele>20.325</ele>
        <time>2014-07-12T10:36:16Z</time>
      </trkpt>
      <trkpt lat="59.921038" lon="17.8500658">
        <ele>19.8444</ele>
        <time>2014-07-12T10:36:17Z</time>
      </trkpt>
      <trkpt lat="59.9210923" lon="17.850168">
        <ele>19.8444</ele>
        <time>2014-07-12T10:36:18Z</time>
      </trkpt>
      <trkpt lat="59.9211431" lon="17.8502717">
        <ele>19.3638</ele>
        <time>2014-07-12T10:36:19Z</time>
      </trkpt>
      <trkpt lat="59.9211928" lon="17.8503789">
        <ele>18.8831</ele>
        <time>2014-07-12T10:36:20Z</time>
      </trkpt>
      <trkpt lat="59.9212479" lon="17.8504888">
        <ele>18.4023</ele>
        <time>2014-07-12T10:36:21Z</time>
      </trkpt>
      <trkpt lat="59.9213032" lon="17.8506037">
        <ele>18.8831</ele>
        <time>2014-07-12T10:36:22Z</time>
      </trkpt>
      <trkpt lat="59.9213572" lon="17.8507201">
        <ele>19.3638</ele>
        <time>2014-07-12T10:36:23Z</time>
      </trkpt>
      <trkpt lat="59.9214112" lon="17.8508348">
        <ele>19.3638</ele>
        <time>2014-07-12T10:36:24Z</time>
      </trkpt>
      <trkpt lat="59.9214654" lon="17.850949">
        <ele>19.3638</ele>
        <time>2014-07-12T10:36:25Z</time>
      </trkpt>
      <trkpt lat="59.9215189" lon="17.8510628">
        <ele>19.3638</ele>
        <time>2014-07-12T10:36:26Z</time>
      </trkpt>
      <trkpt lat="59.9215725" lon="17.8511761">
        <ele>19.3638</ele>
        <time>2014-07-12T10:36:27Z</time>
      </trkpt>
      <trkpt lat="59.9216244" lon="17.851288">
        <ele>19.3638</ele>
        <time>2014-07-12T10:36:28Z</time>
      </trkpt>
      <trkpt lat="59.921675" lon="17.8513973">
        <ele>19.3638</ele>
        <time>2014-07-12T10:36:29Z</time>
      </trkpt>
      <trkpt lat="59.9217241" lon="17.8515057">
        <ele>19.3638</ele>
        <time>2014-07-12T10:36:30Z</time>
      </trkpt>
      <trkpt lat="59.9217742" lon="17.8516147">
        <ele>19.8444</ele>
        <time>2014-07-12T10:36:31Z</time>
      </trkpt>
      <trkpt lat="59.9218239" lon="17.8517231">
        <ele>19.8444</ele>
        <time>2014-07-12T10:36:32Z</time>
      </trkpt>
      <trkpt lat="59.9218731" lon="17.8518297">
        <ele>19.8444</ele>
        <time>2014-07-12T10:36:33Z</time>
      </trkpt>
      <trkpt lat="59.9219223" lon="17.8519351">
        <ele>19.8444</ele>
        <time>2014-07-12T10:36:34Z</time>
      </trkpt>
      <trkpt lat="59.9219716" lon="17.8520402">
        <ele>19.8444</ele>
        <time>2014-07-12T10:36:35Z</time>
      </trkpt>
      <trkpt lat="59.9220223" lon="17.8521422">
        <ele>20.325</ele>
        <time>2014-07-12T10:36:36Z</time>
      </trkpt>
      <trkpt lat="59.9220744" lon="17.8522388">
        <ele>20.325</ele>
        <time>2014-07-12T10:36:37Z</time>
      </trkpt>
      <trkpt lat="59.9221275" lon="17.8523308">
        <ele>20.325</ele>
        <time>2014-07-12T10:36:38Z</time>
      </trkpt>
      <trkpt lat="59.9221819" lon="17.8524174">
        <ele>20.325</ele>
        <time>2014-07-12T10:36:39Z</time>
      </trkpt>
      <trkpt lat="59.9222378" lon="17.8524986">
        <ele>20.325</ele>
        <time>2014-07-12T10:36:40Z</time>
      </trkpt>
      <trkpt lat="59.9222937" lon="17.8525766">
        <ele>20.325</ele>
        <time>2014-07-12T10:36:41Z</time>
      </trkpt>
      <trkpt lat="59.922354" lon="17.8526503">
        <ele>20.325</ele>
        <time>2014-07-12T10:36:42Z</time>
      </trkpt>
      <trkpt lat="59.9224164" lon="17.8527172">
        <ele>19.8444</ele>
        <time>2014-07-12T10:36:43Z</time>
      </trkpt>
      <trkpt lat="59.9224848" lon="17.8527783">
        <ele>19.3638</ele>
        <time>2014-07-12T10:36:44Z</time>
      </trkpt>
      <trkpt lat="59.9225555" lon="17.8528405">
        <ele>19.3638</ele>
        <time>2014-07-12T10:36:45Z</time>
      </trkpt>
      <trkpt lat="59.9226267" lon="17.8529051">
        <ele>18.8831</ele>
        <time>2014-07-12T10:36:46Z</time>
      </trkpt>
      <trkpt lat="59.9226958" lon="17.8529715">
        <ele>18.4023</ele>
        <time>2014-07-12T10:36:47Z</time>
      </trkpt>
      <trkpt lat="59.9227665" lon="17.8530346">
        <ele>18.4023</ele>
        <time>2014-07-12T10:36:48Z</time>
      </trkpt>
      <trkpt lat="59.9229081" lon="17.8531487">
        <ele>18.4023</ele>
        <time>2014-07-12T10:36:50Z</time>
      </trkpt>
      <trkpt lat="59.92298" lon="17.8532037">
        <ele>18.8831</ele>
        <time>2014-07-12T10:36:51Z</time>
      </trkpt>
      <trkpt lat="59.9230509" lon="17.8532602">
        <ele>18.8831</ele>
        <time>2014-07-12T10:36:52Z</time>
      </trkpt>
      <trkpt lat="59.9231204" lon="17.8533154">
        <ele>18.4023</ele>
        <time>2014-07-12T10:36:53Z</time>
      </trkpt>
      <trkpt lat="59.9231929" lon="17.8533702">
        <ele>18.4023</ele>
        <time>2014-07-12T10:36:54Z</time>
      </trkpt>
      <trkpt lat="59.9232651" lon="17.8534254">
        <ele>18.4023</ele>
        <time>2014-07-12T10:36:55Z</time>
      </trkpt>
      <trkpt lat="59.923338" lon="17.8534813">
        <ele>17.9218</ele>
        <time>2014-07-12T10:36:56Z</time>
      </trkpt>
      <trkpt lat="59.9234105" lon="17.853538">
        <ele>17.9218</ele>
        <time>2014-07-12T10:36:57Z</time>
      </trkpt>
      <trkpt lat="59.9234834" lon="17.8535968">
        <ele>17.9218</ele>
        <time>2014-07-12T10:36:58Z</time>
      </trkpt>
      <trkpt lat="59.9235549" lon="17.8536562">
        <ele>17.9218</ele>
        <time>2014-07-12T10:36:59Z</time>
      </trkpt>
      <trkpt lat="59.9236254" lon="17.853717">
        <ele>17.9218</ele>
        <time>2014-07-12T10:37:00Z</time>
      </trkpt>
      <trkpt lat="59.923696" lon="17.8537796">
        <ele>18.4023</ele>
        <time>2014-07-12T10:37:01Z</time>
      </trkpt>
      <trkpt lat="59.9237669" lon="17.8538417">
        <ele>18.4023</ele>
        <time>2014-07-12T10:37:02Z</time>
      </trkpt>
      <trkpt lat="59.923837" lon="17.8539039">
        <ele>18.4023</ele>
        <time>2014-07-12T10:37:03Z</time>
      </trkpt>
      <trkpt lat="59.9239066" lon="17.8539687">
        <ele>18.4023</ele>
        <time>2014-07-12T10:37:04Z</time>
      </trkpt>
      <trkpt lat="59.9239758" lon="17.854035">
        <ele>17.9218</ele>
        <time>2014-07-12T10:37:05Z</time>
      </trkpt>
      <trkpt lat="59.9240462" lon="17.8541013">
        <ele>18.4023</ele>
        <time>2014-07-12T10:37:06Z</time>
      </trkpt>
      <trkpt lat="59.9241156" lon="17.8541672">
        <ele>18.4023</ele>
        <time>2014-07-12T10:37:07Z</time>
      </trkpt>
      <trkpt lat="59.9241848" lon="17.8542349">
        <ele>18.4023</ele>
        <time>2014-07-12T10:37:08Z</time>
      </trkpt>
      <trkpt lat="59.9242537" lon="17.8543033">
        <ele>18.4023</ele>
        <time>2014-07-12T10:37:09Z</time>
      </trkpt>
      <trkpt lat="59.9243226" lon="17.8543717">
        <ele>18.4023</ele>
        <time>2014-07-12T10:37:10Z</time>
      </trkpt>
      <trkpt lat="59.9243908" lon="17.8544406">
        <ele>17.9218</ele>
        <time>2014-07-12T10:37:11Z</time>
      </trkpt>
      <trkpt lat="59.9244584" lon="17.8545099">
        <ele>17.9218</ele>
        <time>2014-07-12T10:37:12Z</time>
      </trkpt>
      <trkpt lat="59.9245257" lon="17.8545787">
        <ele>17.9218</ele>
        <time>2014-07-12T10:37:13Z</time>
      </trkpt>
      <trkpt lat="59.924593" lon="17.8546474">
        <ele>17.9218</ele>
        <time>2014-07-12T10:37:14Z</time>
      </trkpt>
      <trkpt lat="59.9246601" lon="17.8547158">
        <ele>17.9218</ele>
        <time>2014-07-12T10:37:15Z</time>
      </trkpt>
      <trkpt lat="59.924727" lon="17.8547836">
        <ele>18.4023</ele>
        <time>2014-07-12T10:37:16Z</time>
      </trkpt>
      <trkpt lat="59.9247932" lon="17.8548524">
        <ele>17.9218</ele>
        <time>2014-07-12T10:37:17Z</time>
      </trkpt>
      <trkpt lat="59.9248587" lon="17.8549229">
        <ele>17.9218</ele>
        <time>2014-07-12T10:37:18Z</time>
      </trkpt>
      <trkpt lat="59.924924" lon="17.8549939">
        <ele>18.4023</ele>
        <time>2014-07-12T10:37:19Z</time>
      </trkpt>
      <trkpt lat="59.924989" lon="17.8550668">
        <ele>18.4023</ele>
        <time>2014-07-12T10:37:20Z</time>
      </trkpt>
      <trkpt lat="59.9250545" lon="17.8551403">
        <ele>18.4023</ele>
        <time>2014-07-12T10:37:21Z</time>
      </trkpt>
      <trkpt lat="59.9251195" lon="17.855214">
        <ele>18.4023</ele>
        <time>2014-07-12T10:37:22Z</time>
      </trkpt>
      <trkpt lat="59.9251841" lon="17.8552892">
        <ele>18.4023</ele>
        <time>2014-07-12T10:37:23Z</time>
      </trkpt>
      <trkpt lat="59.9252481" lon="17.8553652">
        <ele>18.4023</ele>
        <time>2014-07-12T10:37:24Z</time>
      </trkpt>
      <trkpt lat="59.9253106" lon="17.8554428">
        <ele>18.4023</ele>
        <time>2014-07-12T10:37:25Z</time>
      </trkpt>
      <trkpt lat="59.9253716" lon="17.8555232">
        <ele>18.8831</ele>
        <time>2014-07-12T10:37:26Z</time>
      </trkpt>
      <trkpt lat="59.9254313" lon="17.8556067">
        <ele>18.8831</ele>
        <time>2014-07-12T10:37:27Z</time>
      </trkpt>
      <trkpt lat="59.9254898" lon="17.855694">
        <ele>18.8831</ele>
        <time>2014-07-12T10:37:28Z</time>
      </trkpt>
      <trkpt lat="59.9255482" lon="17.8557812">
        <ele>18.8831</ele>
        <time>2014-07-12T10:37:29Z</time>
      </trkpt>
      <trkpt lat="59.925608" lon="17.8558659">
        <ele>18.8831</ele>
        <time>2014-07-12T10:37:30Z</time>
      </trkpt>
      <trkpt lat="59.9256691" lon="17.8559491">
        <ele>18.8831</ele>
        <time>2014-07-12T10:37:31Z</time>
      </trkpt>
      <trkpt lat="59.9257305" lon="17.8560324">
        <ele>18.8831</ele>
        <time>2014-07-12T10:37:32Z</time>
      </trkpt>
      <trkpt lat="59.9257919" lon="17.8561178">
        <ele>18.8831</ele>
        <time>2014-07-12T10:37:33Z</time>
      </trkpt>
      <trkpt lat="59.925853" lon="17.8562055">
        <ele>19.3638</ele>
        <time>2014-07-12T10:37:34Z</time>
      </trkpt>
      <trkpt lat="59.9259136" lon="17.8562949">
        <ele>19.3638</ele>
        <time>2014-07-12T10:37:35Z</time>
      </trkpt>
      <trkpt lat="59.9259742" lon="17.856385">
        <ele>19.3638</ele>
        <time>2014-07-12T10:37:36Z</time>
      </trkpt>
      <trkpt lat="59.9260341" lon="17.856476">
        <ele>19.3638</ele>
        <time>2014-07-12T10:37:37Z</time>
      </trkpt>
      <trkpt lat="59.9260934" lon="17.8565681">
        <ele>19.8444</ele>
        <time>2014-07-12T10:37:38Z</time>
      </trkpt>
      <trkpt lat="59.9261524" lon="17.8566592">
        <ele>19.8444</ele>
        <time>2014-07-12T10:37:39Z</time>
      </trkpt>
      <trkpt lat="59.9262095" lon="17.8567481">
        <ele>20.325</ele>
        <time>2014-07-12T10:37:40Z</time>
      </trkpt>
      <trkpt lat="59.9262639" lon="17.8568341">
        <ele>20.325</ele>
        <time>2014-07-12T10:37:41Z</time>
      </trkpt>
      <trkpt lat="59.9263175" lon="17.8569128">
        <ele>20.8057</ele>
        <time>2014-07-12T10:37:42Z</time>
      </trkpt>
      <trkpt lat="59.9263721" lon="17.856984">
        <ele>20.8057</ele>
        <time>2014-07-12T10:37:43Z</time>
      </trkpt>
      <trkpt lat="59.9264281" lon="17.8570529">
        <ele>20.8057</ele>
        <time>2014-07-12T10:37:44Z</time>
      </trkpt>
      <trkpt lat="59.9264851" lon="17.8571223">
        <ele>20.8057</ele>
        <time>2014-07-12T10:37:45Z</time>
      </trkpt>
      <trkpt lat="59.9265441" lon="17.8571906">
        <ele>20.8057</ele>
        <time>2014-07-12T10:37:46Z</time>
      </trkpt>
      <trkpt lat="59.9266052" lon="17.8572599">
        <ele>20.8057</ele>
        <time>2014-07-12T10:37:47Z</time>
      </trkpt>
      <trkpt lat="59.9266673" lon="17.8573314">
        <ele>20.325</ele>
        <time>2014-07-12T10:37:48Z</time>
      </trkpt>
      <trkpt lat="59.9267309" lon="17.8574034">
        <ele>20.325</ele>
        <time>2014-07-12T10:37:49Z</time>
      </trkpt>
      <trkpt lat="59.9267956" lon="17.8574754">
        <ele>20.325</ele>
        <time>2014-07-12T10:37:50Z</time>
      </trkpt>
      <trkpt lat="59.9268616" lon="17.857545">
        <ele>20.325</ele>
        <time>2014-07-12T10:37:51Z</time>
      </trkpt>
      <trkpt lat="59.9269292" lon="17.8576111">
        <ele>20.325</ele>
        <time>2014-07-12T10:37:52Z</time>
      </trkpt>
      <trkpt lat="59.9269978" lon="17.8576729">
        <ele>19.8444</ele>
        <time>2014-07-12T10:37:53Z</time>
      </trkpt>
      <trkpt lat="59.927068" lon="17.8577301">
        <ele>19.8444</ele>
        <time>2014-07-12T10:37:54Z</time>
      </trkpt>
      <trkpt lat="59.9271388" lon="17.8577834">
        <ele>19.8444</ele>
        <time>2014-07-12T10:37:55Z</time>
      </trkpt>
      <trkpt lat="59.9272097" lon="17.8578349">
        <ele>19.8444</ele>
        <time>2014-07-12T10:37:56Z</time>
      </trkpt>
      <trkpt lat="59.9272804" lon="17.8578854">
        <ele>19.3638</ele>
        <time>2014-07-12T10:37:57Z</time>
      </trkpt>
      <trkpt lat="59.9273521" lon="17.8579352">
        <ele>19.3638</ele>
        <time>2014-07-12T10:37:58Z</time>
      </trkpt>
      <trkpt lat="59.9274235" lon="17.8579859">
        <ele>19.3638</ele>
        <time>2014-07-12T10:37:59Z</time>
      </trkpt>
      <trkpt lat="59.9274955" lon="17.8580371">
        <ele>19.3638</ele>
        <time>2014-07-12T10:38:00Z</time>
      </trkpt>
      <trkpt lat="59.9275666" lon="17.8580875">
        <ele>19.3638</ele>
        <time>2014-07-12T10:38:01Z</time>
      </trkpt>
      <trkpt lat="59.927637" lon="17.8581388">
        <ele>19.3638</ele>
        <time>2014-07-12T10:38:02Z</time>
      </trkpt>
      <trkpt lat="59.9277064" lon="17.8581928">
        <ele>19.8444</ele>
        <time>2014-07-12T10:38:03Z</time>
      </trkpt>
      <trkpt lat="59.9277744" lon="17.8582511">
        <ele>19.8444</ele>
        <time>2014-07-12T10:38:04Z</time>
      </trkpt>
      <trkpt lat="59.9278414" lon="17.8583154">
        <ele>19.8444</ele>
        <time>2014-07-12T10:38:05Z</time>
      </trkpt>
      <trkpt lat="59.9279069" lon="17.8583858">
        <ele>19.8444</ele>
        <time>2014-07-12T10:38:06Z</time>
      </trkpt>
      <trkpt lat="59.9279712" lon="17.8584603">
        <ele>20.325</ele>
        <time>2014-07-12T10:38:07Z</time>
      </trkpt>
      <trkpt lat="59.9280349" lon="17.858536">
        <ele>20.325</ele>
        <time>2014-07-12T10:38:08Z</time>
      </trkpt>
      <trkpt lat="59.9280986" lon="17.8586058">
        <ele>20.325</ele>
        <time>2014-07-12T10:38:09Z</time>
      </trkpt>
      <trkpt lat="59.9281621" lon="17.8586701">
        <ele>20.8057</ele>
        <time>2014-07-12T10:38:10Z</time>
      </trkpt>
      <trkpt lat="59.9282256" lon="17.8587319">
        <ele>20.8057</ele>
        <time>2014-07-12T10:38:11Z</time>
      </trkpt>
      <trkpt lat="59.9282887" lon="17.8587956">
        <ele>20.325</ele>
        <time>2014-07-12T10:38:12Z</time>
      </trkpt>
      <trkpt lat="59.9283515" lon="17.8588628">
        <ele>20.325</ele>
        <time>2014-07-12T10:38:13Z</time>
      </trkpt>
      <trkpt lat="59.9284144" lon="17.858931">
        <ele>20.325</ele>
        <time>2014-07-12T10:38:14Z</time>
      </trkpt>
      <trkpt lat="59.9284777" lon="17.8589986">
        <ele>20.325</ele>
        <time>2014-07-12T10:38:15Z</time>
      </trkpt>
      <trkpt lat="59.928541" lon="17.8590659">
        <ele>20.325</ele>
        <time>2014-07-12T10:38:16Z</time>
      </trkpt>
      <trkpt lat="59.928605" lon="17.8591346">
        <ele>20.325</ele>
        <time>2014-07-12T10:38:17Z</time>
      </trkpt>
      <trkpt lat="59.928669" lon="17.8592056">
        <ele>20.325</ele>
        <time>2014-07-12T10:38:18Z</time>
      </trkpt>
      <trkpt lat="59.928734" lon="17.8592771">
        <ele>20.325</ele>
        <time>2014-07-12T10:38:19Z</time>
      </trkpt>
      <trkpt lat="59.9287992" lon="17.8593477">
        <ele>20.325</ele>
        <time>2014-07-12T10:38:20Z</time>
      </trkpt>
      <trkpt lat="59.9288652" lon="17.8594176">
        <ele>20.325</ele>
        <time>2014-07-12T10:38:21Z</time>
      </trkpt>
      <trkpt lat="59.9289324" lon="17.8594855">
        <ele>20.325</ele>
        <time>2014-07-12T10:38:22Z</time>
      </trkpt>
      <trkpt lat="59.929" lon="17.8595516">
        <ele>20.325</ele>
        <time>2014-07-12T10:38:23Z</time>
      </trkpt>
      <trkpt lat="59.9290682" lon="17.8596175">
        <ele>20.325</ele>
        <time>2014-07-12T10:38:24Z</time>
      </trkpt>
      <trkpt lat="59.929137" lon="17.8596829">
        <ele>20.325</ele>
        <time>2014-07-12T10:38:25Z</time>
      </trkpt>
      <trkpt lat="59.9292061" lon="17.859748">
        <ele>20.325</ele>
        <time>2014-07-12T10:38:26Z</time>
      </trkpt>
      <trkpt lat="59.9292746" lon="17.8598118">
        <ele>20.325</ele>
        <time>2014-07-12T10:38:27Z</time>
      </trkpt>
      <trkpt lat="59.9293428" lon="17.8598741">
        <ele>20.325</ele>
        <time>2014-07-12T10:38:28Z</time>
      </trkpt>
      <trkpt lat="59.9294096" lon="17.8599349">
        <ele>20.325</ele>
        <time>2014-07-12T10:38:29Z</time>
      </trkpt>
      <trkpt lat="59.9294747" lon="17.8599933">
        <ele>20.325</ele>
        <time>2014-07-12T10:38:30Z</time>
      </trkpt>
      <trkpt lat="59.9295382" lon="17.860051">
        <ele>20.325</ele>
        <time>2014-07-12T10:38:31Z</time>
      </trkpt>
      <trkpt lat="59.9296002" lon="17.8601076">
        <ele>20.325</ele>
        <time>2014-07-12T10:38:32Z</time>
      </trkpt>
      <trkpt lat="59.9296599" lon="17.8601619">
        <ele>20.325</ele>
        <time>2014-07-12T10:38:33Z</time>
      </trkpt>
      <trkpt lat="59.929718" lon="17.860211">
        <ele>20.325</ele>
        <time>2014-07-12T10:38:34Z</time>
      </trkpt>
      <trkpt lat="59.9297755" lon="17.8602574">
        <ele>20.325</ele>
        <time>2014-07-12T10:38:35Z</time>
      </trkpt>
      <trkpt lat="59.9298329" lon="17.8603045">
        <ele>20.325</ele>
        <time>2014-07-12T10:38:36Z</time>
      </trkpt>
      <trkpt lat="59.9298869" lon="17.8603434">
        <ele>20.325</ele>
        <time>2014-07-12T10:38:37Z</time>
      </trkpt>
      <trkpt lat="59.929941" lon="17.8603835">
        <ele>20.325</ele>
        <time>2014-07-12T10:38:38Z</time>
      </trkpt>
      <trkpt lat="59.9299959" lon="17.8604271">
        <ele>20.325</ele>
        <time>2014-07-12T10:38:39Z</time>
      </trkpt>
      <trkpt lat="59.9300492" lon="17.8604649">
        <ele>20.325</ele>
        <time>2014-07-12T10:38:40Z</time>
      </trkpt>
      <trkpt lat="59.9301031" lon="17.8604993">
        <ele>20.325</ele>
        <time>2014-07-12T10:38:41Z</time>
      </trkpt>
      <trkpt lat="59.9301571" lon="17.8605332">
        <ele>20.325</ele>
        <time>2014-07-12T10:38:42Z</time>
      </trkpt>
      <trkpt lat="59.9302111" lon="17.8605681">
        <ele>20.325</ele>
        <time>2014-07-12T10:38:43Z</time>
      </trkpt>
      <trkpt lat="59.9302644" lon="17.8606">
        <ele>20.8057</ele>
        <time>2014-07-12T10:38:44Z</time>
      </trkpt>
      <trkpt lat="59.930317" lon="17.8606287">
        <ele>20.8057</ele>
        <time>2014-07-12T10:38:45Z</time>
      </trkpt>
      <trkpt lat="59.930369" lon="17.860656">
        <ele>20.8057</ele>
        <time>2014-07-12T10:38:46Z</time>
      </trkpt>
      <trkpt lat="59.9304203" lon="17.8606838">
        <ele>20.8057</ele>
        <time>2014-07-12T10:38:47Z</time>
      </trkpt>
      <trkpt lat="59.930471" lon="17.8607114">
        <ele>21.2864</ele>
        <time>2014-07-12T10:38:48Z</time>
      </trkpt>
      <trkpt lat="59.9305216" lon="17.8607366">
        <ele>21.2864</ele>
        <time>2014-07-12T10:38:49Z</time>
      </trkpt>
      <trkpt lat="59.9305715" lon="17.8607609">
        <ele>21.2864</ele>
        <time>2014-07-12T10:38:50Z</time>
      </trkpt>
      <trkpt lat="59.9306208" lon="17.8607845">
        <ele>21.767</ele>
        <time>2014-07-12T10:38:51Z</time>
      </trkpt>
      <trkpt lat="59.9306694" lon="17.8608064">
        <ele>21.2864</ele>
        <time>2014-07-12T10:38:52Z</time>
      </trkpt>
      <trkpt lat="59.9307181" lon="17.8608267">
        <ele>21.767</ele>
        <time>2014-07-12T10:38:53Z</time>
      </trkpt>
      <trkpt lat="59.9307674" lon="17.8608458">
        <ele>21.767</ele>
        <time>2014-07-12T10:38:54Z</time>
      </trkpt>
      <trkpt lat="59.930817" lon="17.8608643">
        <ele>21.767</ele>
        <time>2014-07-12T10:38:55Z</time>
      </trkpt>
      <trkpt lat="59.9308666" lon="17.8608825">
        <ele>21.767</ele>
        <time>2014-07-12T10:38:56Z</time>
      </trkpt>
      <trkpt lat="59.9309155" lon="17.8609015">
        <ele>21.767</ele>
        <time>2014-07-12T10:38:57Z</time>
      </trkpt>
      <trkpt lat="59.9309645" lon="17.8609202">
        <ele>21.767</ele>
        <time>2014-07-12T10:38:58Z</time>
      </trkpt>
      <trkpt lat="59.9310137" lon="17.8609381">
        <ele>21.767</ele>
        <time>2014-07-12T10:38:59Z</time>
      </trkpt>
      <trkpt lat="59.9310627" lon="17.860957">
        <ele>21.767</ele>
        <time>2014-07-12T10:39:00Z</time>
      </trkpt>
      <trkpt lat="59.9311124" lon="17.8609773">
        <ele>21.767</ele>
        <time>2014-07-12T10:39:01Z</time>
      </trkpt>
      <trkpt lat="59.931163" lon="17.8610007">
        <ele>21.767</ele>
        <time>2014-07-12T10:39:02Z</time>
      </trkpt>
      <trkpt lat="59.9312139" lon="17.8610279">
        <ele>21.767</ele>
        <time>2014-07-12T10:39:03Z</time>
      </trkpt>
      <trkpt lat="59.931264" lon="17.8610549">
        <ele>22.2476</ele>
        <time>2014-07-12T10:39:04Z</time>
      </trkpt>
      <trkpt lat="59.9313137" lon="17.8610824">
        <ele>22.2476</ele>
        <time>2014-07-12T10:39:05Z</time>
      </trkpt>
      <trkpt lat="59.9313631" lon="17.8611142">
        <ele>22.2476</ele>
        <time>2014-07-12T10:39:06Z</time>
      </trkpt>
      <trkpt lat="59.9314134" lon="17.8611497">
        <ele>22.7283</ele>
        <time>2014-07-12T10:39:07Z</time>
      </trkpt>
      <trkpt lat="59.9314644" lon="17.8611864">
        <ele>22.7283</ele>
        <time>2014-07-12T10:39:08Z</time>
      </trkpt>
      <trkpt lat="59.9315152" lon="17.8612238">
        <ele>22.7283</ele>
        <time>2014-07-12T10:39:09Z</time>
      </trkpt>
      <trkpt lat="59.9315641" lon="17.8612607">
        <ele>22.7283</ele>
        <time>2014-07-12T10:39:10Z</time>
      </trkpt>
      <trkpt lat="59.9316133" lon="17.861297">
        <ele>22.7283</ele>
        <time>2014-07-12T10:39:11Z</time>
      </trkpt>
      <trkpt lat="59.931663" lon="17.8613327">
        <ele>22.7283</ele>
        <time>2014-07-12T10:39:12Z</time>
      </trkpt>
      <trkpt lat="59.9317139" lon="17.8613668">
        <ele>22.7283</ele>
        <time>2014-07-12T10:39:13Z</time>
      </trkpt>
      <trkpt lat="59.9317667" lon="17.8613974">
        <ele>22.7283</ele>
        <time>2014-07-12T10:39:14Z</time>
      </trkpt>
      <trkpt lat="59.93182" lon="17.8614264">
        <ele>22.7283</ele>
        <time>2014-07-12T10:39:15Z</time>
      </trkpt>
      <trkpt lat="59.9318742" lon="17.8614534">
        <ele>22.7283</ele>
        <time>2014-07-12T10:39:16Z</time>
      </trkpt>
      <trkpt lat="59.931929" lon="17.8614782">
        <ele>22.7283</ele>
        <time>2014-07-12T10:39:17Z</time>
      </trkpt>
      <trkpt lat="59.9319843" lon="17.8615019">
        <ele>22.7283</ele>
        <time>2014-07-12T10:39:18Z</time>
      </trkpt>
      <trkpt lat="59.9320402" lon="17.8615232">
        <ele>22.7283</ele>
        <time>2014-07-12T10:39:19Z</time>
      </trkpt>
      <trkpt lat="59.9320977" lon="17.8615433">
        <ele>23.209</ele>
        <time>2014-07-12T10:39:20Z</time>
      </trkpt>
      <trkpt lat="59.9321566" lon="17.8615646">
        <ele>23.209</ele>
        <time>2014-07-12T10:39:21Z</time>
      </trkpt>
      <trkpt lat="59.9322165" lon="17.8615855">
        <ele>23.209</ele>
        <time>2014-07-12T10:39:22Z</time>
      </trkpt>
      <trkpt lat="59.932277" lon="17.8616057">
        <ele>23.209</ele>
        <time>2014-07-12T10:39:23Z</time>
      </trkpt>
      <trkpt lat="59.9323352" lon="17.861626">
        <ele>23.209</ele>
        <time>2014-07-12T10:39:24Z</time>
      </trkpt>
      <trkpt lat="59.9323956" lon="17.8616481">
        <ele>23.209</ele>
        <time>2014-07-12T10:39:25Z</time>
      </trkpt>
      <trkpt lat="59.9324556" lon="17.8616698">
        <ele>23.209</ele>
        <time>2014-07-12T10:39:26Z</time>
      </trkpt>
      <trkpt lat="59.9325163" lon="17.8616938">
        <ele>23.209</ele>
        <time>2014-07-12T10:39:27Z</time>
      </trkpt>
      <trkpt lat="59.9325779" lon="17.8617236">
        <ele>23.6896</ele>
        <time>2014-07-12T10:39:28Z</time>
      </trkpt>
      <trkpt lat="59.9326395" lon="17.8617586">
        <ele>23.6896</ele>
        <time>2014-07-12T10:39:29Z</time>
      </trkpt>
      <trkpt lat="59.932702" lon="17.8617973">
        <ele>23.6896</ele>
        <time>2014-07-12T10:39:30Z</time>
      </trkpt>
      <trkpt lat="59.9327589" lon="17.8618299">
        <ele>23.6896</ele>
        <time>2014-07-12T10:39:31Z</time>
      </trkpt>
      <trkpt lat="59.9328151" lon="17.8618657">
        <ele>23.6896</ele>
        <time>2014-07-12T10:39:32Z</time>
      </trkpt>
      <trkpt lat="59.9328709" lon="17.8619142">
        <ele>23.209</ele>
        <time>2014-07-12T10:39:33Z</time>
      </trkpt>
      <trkpt lat="59.9329255" lon="17.8619662">
        <ele>23.6896</ele>
        <time>2014-07-12T10:39:34Z</time>
      </trkpt>
      <trkpt lat="59.9329803" lon="17.8620249">
        <ele>23.6896</ele>
        <time>2014-07-12T10:39:35Z</time>
      </trkpt>
      <trkpt lat="59.9330351" lon="17.862088">
        <ele>23.6896</ele>
        <time>2014-07-12T10:39:36Z</time>
      </trkpt>
      <trkpt lat="59.9330906" lon="17.8621547">
        <ele>24.1703</ele>
        <time>2014-07-12T10:39:37Z</time>
      </trkpt>
      <trkpt lat="59.933146" lon="17.8622232">
        <ele>24.1703</ele>
        <time>2014-07-12T10:39:38Z</time>
      </trkpt>
      <trkpt lat="59.9332002" lon="17.8622968">
        <ele>24.1703</ele>
        <time>2014-07-12T10:39:39Z</time>
      </trkpt>
      <trkpt lat="59.9332528" lon="17.862375">
        <ele>24.1703</ele>
        <time>2014-07-12T10:39:40Z</time>
      </trkpt>
      <trkpt lat="59.9333051" lon="17.862455">
        <ele>24.1703</ele>
        <time>2014-07-12T10:39:41Z</time>
      </trkpt>
      <trkpt lat="59.9333538" lon="17.8625366">
        <ele>24.1703</ele>
        <time>2014-07-12T10:39:42Z</time>
      </trkpt>
      <trkpt lat="59.9333988" lon="17.8626187">
        <ele>23.6896</ele>
        <time>2014-07-12T10:39:43Z</time>
      </trkpt>
      <trkpt lat="59.9334418" lon="17.8627052">
        <ele>23.6896</ele>
        <time>2014-07-12T10:39:44Z</time>
      </trkpt>
      <trkpt lat="59.9334815" lon="17.8627996">
        <ele>23.6896</ele>
        <time>2014-07-12T10:39:45Z</time>
      </trkpt>
      <trkpt lat="59.9335189" lon="17.8628986">
        <ele>23.6896</ele>
        <time>2014-07-12T10:39:46Z</time>
      </trkpt>
      <trkpt lat="59.9335542" lon="17.8630003">
        <ele>23.6896</ele>
        <time>2014-07-12T10:39:47Z</time>
      </trkpt>
      <trkpt lat="59.9335869" lon="17.8631022">
        <ele>23.6896</ele>
        <time>2014-07-12T10:39:48Z</time>
      </trkpt>
      <trkpt lat="59.9336158" lon="17.8632034">
        <ele>23.209</ele>
        <time>2014-07-12T10:39:49Z</time>
      </trkpt>
      <trkpt lat="59.9336435" lon="17.8633061">
        <ele>23.209</ele>
        <time>2014-07-12T10:39:50Z</time>
      </trkpt>
      <trkpt lat="59.9336735" lon="17.8634103">
        <ele>23.209</ele>
        <time>2014-07-12T10:39:51Z</time>
      </trkpt>
      <trkpt lat="59.9337029" lon="17.8635152">
        <ele>23.209</ele>
        <time>2014-07-12T10:39:52Z</time>
      </trkpt>
      <trkpt lat="59.933735" lon="17.8636177">
        <ele>22.7283</ele>
        <time>2014-07-12T10:39:53Z</time>
      </trkpt>
      <trkpt lat="59.9337671" lon="17.8637154">
        <ele>21.767</ele>
        <time>2014-07-12T10:39:54Z</time>
      </trkpt>
      <trkpt lat="59.9338077" lon="17.8638217">
        <ele>21.2864</ele>
        <time>2014-07-12T10:39:55Z</time>
      </trkpt>
      <trkpt lat="59.93385" lon="17.8639093">
        <ele>20.8057</ele>
        <time>2014-07-12T10:39:56Z</time>
      </trkpt>
      <trkpt lat="59.9338894" lon="17.8640025">
        <ele>20.325</ele>
        <time>2014-07-12T10:39:57Z</time>
      </trkpt>
      <trkpt lat="59.9339314" lon="17.8641099">
        <ele>20.8057</ele>
        <time>2014-07-12T10:39:58Z</time>
      </trkpt>
      <trkpt lat="59.9339696" lon="17.8642104">
        <ele>19.8444</ele>
        <time>2014-07-12T10:39:59Z</time>
      </trkpt>
      <trkpt lat="59.9340092" lon="17.86432">
        <ele>19.8444</ele>
        <time>2014-07-12T10:40:00Z</time>
      </trkpt>
      <trkpt lat="59.9340474" lon="17.8644281">
        <ele>19.3638</ele>
        <time>2014-07-12T10:40:01Z</time>
      </trkpt>
      <trkpt lat="59.9340877" lon="17.8645376">
        <ele>18.8831</ele>
        <time>2014-07-12T10:40:02Z</time>
      </trkpt>
      <trkpt lat="59.9341271" lon="17.86465">
        <ele>18.8831</ele>
        <time>2014-07-12T10:40:03Z</time>
      </trkpt>
      <trkpt lat="59.9341676" lon="17.8647654">
        <ele>19.3638</ele>
        <time>2014-07-12T10:40:04Z</time>
      </trkpt>
      <trkpt lat="59.9342016" lon="17.8648743">
        <ele>19.3638</ele>
        <time>2014-07-12T10:40:05Z</time>
      </trkpt>
      <trkpt lat="59.9342363" lon="17.8649775">
        <ele>19.3638</ele>
        <time>2014-07-12T10:40:06Z</time>
      </trkpt>
      <trkpt lat="59.934272" lon="17.8650779">
        <ele>19.8444</ele>
        <time>2014-07-12T10:40:07Z</time>
      </trkpt>
      <trkpt lat="59.9343084" lon="17.8651783">
        <ele>19.3638</ele>
        <time>2014-07-12T10:40:08Z</time>
      </trkpt>
      <trkpt lat="59.9343478" lon="17.8652803">
        <ele>19.8444</ele>
        <time>2014-07-12T10:40:09Z</time>
      </trkpt>
      <trkpt lat="59.9343846" lon="17.8653825">
        <ele>19.3638</ele>
        <time>2014-07-12T10:40:10Z</time>
      </trkpt>
      <trkpt lat="59.9344209" lon="17.8654872">
        <ele>19.3638</ele>
        <time>2014-07-12T10:40:11Z</time>
      </trkpt>
      <trkpt lat="59.934451" lon="17.8655908">
        <ele>18.4023</ele>
        <time>2014-07-12T10:40:12Z</time>
      </trkpt>
      <trkpt lat="59.9344854" lon="17.8656897">
        <ele>18.4023</ele>
        <time>2014-07-12T10:40:13Z</time>
      </trkpt>
      <trkpt lat="59.9345238" lon="17.8657782">
        <ele>18.4023</ele>
        <time>2014-07-12T10:40:14Z</time>
      </trkpt>
      <trkpt lat="59.9345686" lon="17.8658601">
        <ele>18.8831</ele>
        <time>2014-07-12T10:40:15Z</time>
      </trkpt>
      <trkpt lat="59.9346196" lon="17.8659328">
        <ele>18.8831</ele>
        <time>2014-07-12T10:40:16Z</time>
      </trkpt>
      <trkpt lat="59.9346746" lon="17.8659984">
        <ele>18.8831</ele>
        <time>2014-07-12T10:40:17Z</time>
      </trkpt>
      <trkpt lat="59.9347461" lon="17.8660397">
        <ele>19.3638</ele>
        <time>2014-07-12T10:40:18Z</time>
      </trkpt>
      <trkpt lat="59.9348121" lon="17.8660835">
        <ele>19.8444</ele>
        <time>2014-07-12T10:40:19Z</time>
      </trkpt>
      <trkpt lat="59.9348792" lon="17.8661267">
        <ele>20.325</ele>
        <time>2014-07-12T10:40:20Z</time>
      </trkpt>
      <trkpt lat="59.9349403" lon="17.86616">
        <ele>20.325</ele>
        <time>2014-07-12T10:40:21Z</time>
      </trkpt>
      <trkpt lat="59.9350005" lon="17.8661951">
        <ele>20.325</ele>
        <time>2014-07-12T10:40:22Z</time>
      </trkpt>
      <trkpt lat="59.9350632" lon="17.8662326">
        <ele>20.325</ele>
        <time>2014-07-12T10:40:23Z</time>
      </trkpt>
      <trkpt lat="59.9351252" lon="17.8662699">
        <ele>20.325</ele>
        <time>2014-07-12T10:40:24Z</time>
      </trkpt>
      <trkpt lat="59.9351844" lon="17.8663112">
        <ele>20.8057</ele>
        <time>2014-07-12T10:40:25Z</time>
      </trkpt>
      <trkpt lat="59.9352436" lon="17.8663522">
        <ele>20.8057</ele>
        <time>2014-07-12T10:40:26Z</time>
      </trkpt>
      <trkpt lat="59.9353032" lon="17.8663994">
        <ele>21.2864</ele>
        <time>2014-07-12T10:40:27Z</time>
      </trkpt>
      <trkpt lat="59.9353631" lon="17.8664501">
        <ele>21.2864</ele>
        <time>2014-07-12T10:40:28Z</time>
      </trkpt>
      <trkpt lat="59.9354227" lon="17.8665014">
        <ele>21.2864</ele>
        <time>2014-07-12T10:40:29Z</time>
      </trkpt>
      <trkpt lat="59.9354828" lon="17.8665557">
        <ele>21.2864</ele>
        <time>2014-07-12T10:40:30Z</time>
      </trkpt>
      <trkpt lat="59.9355393" lon="17.8666188">
        <ele>21.2864</ele>
        <time>2014-07-12T10:40:31Z</time>
      </trkpt>
      <trkpt lat="59.9355904" lon="17.8666915">
        <ele>21.2864</ele>
        <time>2014-07-12T10:40:32Z</time>
      </trkpt>
      <trkpt lat="59.935638" lon="17.8667719">
        <ele>21.2864</ele>
        <time>2014-07-12T10:40:33Z</time>
      </trkpt>
      <trkpt lat="59.9356828" lon="17.866862">
        <ele>21.2864</ele>
        <time>2014-07-12T10:40:34Z</time>
      </trkpt>
      <trkpt lat="59.9357248" lon="17.866978">
        <ele>21.2864</ele>
        <time>2014-07-12T10:40:35Z</time>
      </trkpt>
      <trkpt lat="59.9357566" lon="17.8670892">
        <ele>21.2864</ele>
        <time>2014-07-12T10:40:36Z</time>
      </trkpt>
      <trkpt lat="59.9357978" lon="17.8672007">
        <ele>21.2864</ele>
        <time>2014-07-12T10:40:37Z</time>
      </trkpt>
      <trkpt lat="59.935824" lon="17.867312">
        <ele>21.2864</ele>
        <time>2014-07-12T10:40:38Z</time>
      </trkpt>
      <trkpt lat="59.9358466" lon="17.8674295">
        <ele>21.2864</ele>
        <time>2014-07-12T10:40:39Z</time>
      </trkpt>
      <trkpt lat="59.9358682" lon="17.8675455">
        <ele>21.2864</ele>
        <time>2014-07-12T10:40:40Z</time>
      </trkpt>
      <trkpt lat="59.9358858" lon="17.8676669">
        <ele>21.2864</ele>
        <time>2014-07-12T10:40:41Z</time>
      </trkpt>
      <trkpt lat="59.9359085" lon="17.867785">
        <ele>21.2864</ele>
        <time>2014-07-12T10:40:42Z</time>
      </trkpt>
      <trkpt lat="59.9359371" lon="17.867891">
        <ele>21.2864</ele>
        <time>2014-07-12T10:40:43Z</time>
      </trkpt>
      <trkpt lat="59.9359661" lon="17.8679887">
        <ele>20.8057</ele>
        <time>2014-07-12T10:40:44Z</time>
      </trkpt>
      <trkpt lat="59.9359951" lon="17.868086">
        <ele>20.325</ele>
        <time>2014-07-12T10:40:45Z</time>
      </trkpt>
      <trkpt lat="59.9360281" lon="17.8681886">
        <ele>20.8057</ele>
        <time>2014-07-12T10:40:46Z</time>
      </trkpt>
      <trkpt lat="59.9360521" lon="17.8682964">
        <ele>20.8057</ele>
        <time>2014-07-12T10:40:47Z</time>
      </trkpt>
      <trkpt lat="59.936076" lon="17.8684062">
        <ele>20.8057</ele>
        <time>2014-07-12T10:40:48Z</time>
      </trkpt>
      <trkpt lat="59.936097" lon="17.8685207">
        <ele>20.8057</ele>
        <time>2014-07-12T10:40:49Z</time>
      </trkpt>
      <trkpt lat="59.9361149" lon="17.868638">
        <ele>20.8057</ele>
        <time>2014-07-12T10:40:50Z</time>
      </trkpt>
      <trkpt lat="59.9361319" lon="17.8687563">
        <ele>20.8057</ele>
        <time>2014-07-12T10:40:51Z</time>
      </trkpt>
      <trkpt lat="59.9361531" lon="17.8688749">
        <ele>20.8057</ele>
        <time>2014-07-12T10:40:52Z</time>
      </trkpt>
      <trkpt lat="59.9361825" lon="17.8689899">
        <ele>20.8057</ele>
        <time>2014-07-12T10:40:53Z</time>
      </trkpt>
      <trkpt lat="59.936221" lon="17.8690956">
        <ele>20.8057</ele>
        <time>2014-07-12T10:40:54Z</time>
      </trkpt>
      <trkpt lat="59.9362661" lon="17.8691899">
        <ele>20.8057</ele>
        <time>2014-07-12T10:40:55Z</time>
      </trkpt>
      <trkpt lat="59.9363209" lon="17.8692739">
        <ele>20.8057</ele>
        <time>2014-07-12T10:40:56Z</time>
      </trkpt>
      <trkpt lat="59.9363788" lon="17.8693485">
        <ele>20.8057</ele>
        <time>2014-07-12T10:40:57Z</time>
      </trkpt>
      <trkpt lat="59.9364376" lon="17.8694166">
        <ele>20.8057</ele>
        <time>2014-07-12T10:40:58Z</time>
      </trkpt>
      <trkpt lat="59.9364975" lon="17.8694767">
        <ele>21.2864</ele>
        <time>2014-07-12T10:40:59Z</time>
      </trkpt>
      <trkpt lat="59.9365573" lon="17.8695313">
        <ele>21.2864</ele>
        <time>2014-07-12T10:41:00Z</time>
      </trkpt>
      <trkpt lat="59.9366172" lon="17.8695877">
        <ele>21.767</ele>
        <time>2014-07-12T10:41:01Z</time>
      </trkpt>
      <trkpt lat="59.9366774" lon="17.8696442">
        <ele>21.767</ele>
        <time>2014-07-12T10:41:02Z</time>
      </trkpt>
      <trkpt lat="59.9367385" lon="17.8696976">
        <ele>21.767</ele>
        <time>2014-07-12T10:41:03Z</time>
      </trkpt>
      <trkpt lat="59.9367991" lon="17.8697514">
        <ele>22.2476</ele>
        <time>2014-07-12T10:41:04Z</time>
      </trkpt>
      <trkpt lat="59.9368585" lon="17.8698093">
        <ele>22.2476</ele>
        <time>2014-07-12T10:41:05Z</time>
      </trkpt>
      <trkpt lat="59.9369165" lon="17.8698704">
        <ele>22.2476</ele>
        <time>2014-07-12T10:41:06Z</time>
      </trkpt>
      <trkpt lat="59.9369742" lon="17.8699327">
        <ele>22.7283</ele>
        <time>2014-07-12T10:41:07Z</time>
      </trkpt>
      <trkpt lat="59.9370301" lon="17.8700001">
        <ele>22.7283</ele>
        <time>2014-07-12T10:41:08Z</time>
      </trkpt>
      <trkpt lat="59.937085" lon="17.8700737">
        <ele>22.7283</ele>
        <time>2014-07-12T10:41:09Z</time>
      </trkpt>
      <trkpt lat="59.9371366" lon="17.8701455">
        <ele>22.7283</ele>
        <time>2014-07-12T10:41:10Z</time>
      </trkpt>
      <trkpt lat="59.9371845" lon="17.8702162">
        <ele>22.7283</ele>
        <time>2014-07-12T10:41:11Z</time>
      </trkpt>
      <trkpt lat="59.9372325" lon="17.8702954">
        <ele>22.7283</ele>
        <time>2014-07-12T10:41:12Z</time>
      </trkpt>
      <trkpt lat="59.9372794" lon="17.8703796">
        <ele>22.7283</ele>
        <time>2014-07-12T10:41:13Z</time>
      </trkpt>
      <trkpt lat="59.9373233" lon="17.8704645">
        <ele>22.7283</ele>
        <time>2014-07-12T10:41:14Z</time>
      </trkpt>
      <trkpt lat="59.9373673" lon="17.8705547">
        <ele>23.209</ele>
        <time>2014-07-12T10:41:15Z</time>
      </trkpt>
      <trkpt lat="59.9374094" lon="17.8706497">
        <ele>23.209</ele>
        <time>2014-07-12T10:41:16Z</time>
      </trkpt>
      <trkpt lat="59.937449" lon="17.8707501">
        <ele>23.209</ele>
        <time>2014-07-12T10:41:17Z</time>
      </trkpt>
      <trkpt lat="59.937486" lon="17.870854">
        <ele>23.209</ele>
        <time>2014-07-12T10:41:18Z</time>
      </trkpt>
      <trkpt lat="59.9375217" lon="17.87096">
        <ele>23.209</ele>
        <time>2014-07-12T10:41:19Z</time>
      </trkpt>
      <trkpt lat="59.9375586" lon="17.8710666">
        <ele>23.209</ele>
        <time>2014-07-12T10:41:20Z</time>
      </trkpt>
      <trkpt lat="59.9375952" lon="17.8711707">
        <ele>23.209</ele>
        <time>2014-07-12T10:41:21Z</time>
      </trkpt>
      <trkpt lat="59.9376397" lon="17.8712724">
        <ele>23.209</ele>
        <time>2014-07-12T10:41:22Z</time>
      </trkpt>
      <trkpt lat="59.9376894" lon="17.8713836">
        <ele>23.209</ele>
        <time>2014-07-12T10:41:23Z</time>
      </trkpt>
      <trkpt lat="59.9377418" lon="17.8714784">
        <ele>22.7283</ele>
        <time>2014-07-12T10:41:24Z</time>
      </trkpt>
      <trkpt lat="59.9378066" lon="17.8715708">
        <ele>22.7283</ele>
        <time>2014-07-12T10:41:25Z</time>
      </trkpt>
      <trkpt lat="59.9378744" lon="17.8716567">
        <ele>22.2476</ele>
        <time>2014-07-12T10:41:26Z</time>
      </trkpt>
      <trkpt lat="59.9379438" lon="17.871736">
        <ele>22.2476</ele>
        <time>2014-07-12T10:41:27Z</time>
      </trkpt>
      <trkpt lat="59.9380134" lon="17.8718126">
        <ele>21.767</ele>
        <time>2014-07-12T10:41:28Z</time>
      </trkpt>
      <trkpt lat="59.9380817" lon="17.8718887">
        <ele>21.767</ele>
        <time>2014-07-12T10:41:29Z</time>
      </trkpt>
      <trkpt lat="59.938148" lon="17.8719624">
        <ele>21.767</ele>
        <time>2014-07-12T10:41:30Z</time>
      </trkpt>
      <trkpt lat="59.9382136" lon="17.8720331">
        <ele>21.767</ele>
        <time>2014-07-12T10:41:31Z</time>
      </trkpt>
      <trkpt lat="59.9382776" lon="17.8721032">
        <ele>21.767</ele>
        <time>2014-07-12T10:41:32Z</time>
      </trkpt>
      <trkpt lat="59.9383427" lon="17.8721732">
        <ele>21.767</ele>
        <time>2014-07-12T10:41:33Z</time>
      </trkpt>
      <trkpt lat="59.9384089" lon="17.8722405">
        <ele>21.767</ele>
        <time>2014-07-12T10:41:34Z</time>
      </trkpt>
      <trkpt lat="59.9384764" lon="17.8723034">
        <ele>21.2864</ele>
        <time>2014-07-12T10:41:35Z</time>
      </trkpt>
      <trkpt lat="59.9385457" lon="17.8723637">
        <ele>21.2864</ele>
        <time>2014-07-12T10:41:36Z</time>
      </trkpt>
      <trkpt lat="59.9386158" lon="17.8724201">
        <ele>21.767</ele>
        <time>2014-07-12T10:41:37Z</time>
      </trkpt>
      <trkpt lat="59.9386862" lon="17.8724726">
        <ele>21.2864</ele>
        <time>2014-07-12T10:41:38Z</time>
      </trkpt>
      <trkpt lat="59.9387571" lon="17.8725233">
        <ele>21.767</ele>
        <time>2014-07-12T10:41:39Z</time>
      </trkpt>
      <trkpt lat="59.9388286" lon="17.8725715">
        <ele>21.767</ele>
        <time>2014-07-12T10:41:40Z</time>
      </trkpt>
      <trkpt lat="59.9389002" lon="17.8726134">
        <ele>21.2864</ele>
        <time>2014-07-12T10:41:41Z</time>
      </trkpt>
      <trkpt lat="59.9389716" lon="17.8726492">
        <ele>21.2864</ele>
        <time>2014-07-12T10:41:42Z</time>
      </trkpt>
      <trkpt lat="59.9390415" lon="17.8726818">
        <ele>21.2864</ele>
        <time>2014-07-12T10:41:43Z</time>
      </trkpt>
      <trkpt lat="59.93911" lon="17.8727149">
        <ele>21.767</ele>
        <time>2014-07-12T10:41:44Z</time>
      </trkpt>
      <trkpt lat="59.9391771" lon="17.8727511">
        <ele>21.767</ele>
        <time>2014-07-12T10:41:45Z</time>
      </trkpt>
      <trkpt lat="59.9392433" lon="17.8727938">
        <ele>21.767</ele>
        <time>2014-07-12T10:41:46Z</time>
      </trkpt>
      <trkpt lat="59.9393078" lon="17.8728463">
        <ele>21.767</ele>
        <time>2014-07-12T10:41:47Z</time>
      </trkpt>
      <trkpt lat="59.9393694" lon="17.87291">
        <ele>21.767</ele>
        <time>2014-07-12T10:41:48Z</time>
      </trkpt>
      <trkpt lat="59.9394285" lon="17.8729823">
        <ele>21.767</ele>
        <time>2014-07-12T10:41:49Z</time>
      </trkpt>
      <trkpt lat="59.9394854" lon="17.8730618">
        <ele>21.767</ele>
        <time>2014-07-12T10:41:50Z</time>
      </trkpt>
      <trkpt lat="59.9395409" lon="17.8731459">
        <ele>21.767</ele>
        <time>2014-07-12T10:41:51Z</time>
      </trkpt>
      <trkpt lat="59.9395954" lon="17.8732319">
        <ele>21.767</ele>
        <time>2014-07-12T10:41:52Z</time>
      </trkpt>
      <trkpt lat="59.9396497" lon="17.87332">
        <ele>21.767</ele>
        <time>2014-07-12T10:41:53Z</time>
      </trkpt>
      <trkpt lat="59.9397045" lon="17.8734081">
        <ele>21.767</ele>
        <time>2014-07-12T10:41:54Z</time>
      </trkpt>
      <trkpt lat="59.939759" lon="17.8734957">
        <ele>21.767</ele>
        <time>2014-07-12T10:41:55Z</time>
      </trkpt>
      <trkpt lat="59.939813" lon="17.873582">
        <ele>21.767</ele>
        <time>2014-07-12T10:41:56Z</time>
      </trkpt>
      <trkpt lat="59.9398674" lon="17.8736668">
        <ele>21.767</ele>
        <time>2014-07-12T10:41:57Z</time>
      </trkpt>
      <trkpt lat="59.9399221" lon="17.8737537">
        <ele>21.767</ele>
        <time>2014-07-12T10:41:58Z</time>
      </trkpt>
      <trkpt lat="59.9399776" lon="17.8738436">
        <ele>21.767</ele>
        <time>2014-07-12T10:41:59Z</time>
      </trkpt>
      <trkpt lat="59.9400346" lon="17.8739332">
        <ele>21.767</ele>
        <time>2014-07-12T10:42:00Z</time>
      </trkpt>
      <trkpt lat="59.9400921" lon="17.8740232">
        <ele>21.767</ele>
        <time>2014-07-12T10:42:01Z</time>
      </trkpt>
      <trkpt lat="59.9401494" lon="17.8741141">
        <ele>21.767</ele>
        <time>2014-07-12T10:42:02Z</time>
      </trkpt>
      <trkpt lat="59.9402053" lon="17.8742027">
        <ele>21.767</ele>
        <time>2014-07-12T10:42:03Z</time>
      </trkpt>
      <trkpt lat="59.9402602" lon="17.8742866">
        <ele>21.767</ele>
        <time>2014-07-12T10:42:04Z</time>
      </trkpt>
      <trkpt lat="59.9403163" lon="17.8743659">
        <ele>21.767</ele>
        <time>2014-07-12T10:42:05Z</time>
      </trkpt>
      <trkpt lat="59.9403739" lon="17.8744409">
        <ele>21.767</ele>
        <time>2014-07-12T10:42:06Z</time>
      </trkpt>
      <trkpt lat="59.9404334" lon="17.874515">
        <ele>21.2864</ele>
        <time>2014-07-12T10:42:07Z</time>
      </trkpt>
      <trkpt lat="59.9404944" lon="17.874591">
        <ele>21.2864</ele>
        <time>2014-07-12T10:42:08Z</time>
      </trkpt>
      <trkpt lat="59.9405565" lon="17.8746654">
        <ele>21.2864</ele>
        <time>2014-07-12T10:42:09Z</time>
      </trkpt>
      <trkpt lat="59.9406211" lon="17.8747348">
        <ele>21.2864</ele>
        <time>2014-07-12T10:42:10Z</time>
      </trkpt>
      <trkpt lat="59.9406876" lon="17.8747963">
        <ele>20.8057</ele>
        <time>2014-07-12T10:42:11Z</time>
      </trkpt>
      <trkpt lat="59.9407537" lon="17.8748512">
        <ele>21.2864</ele>
        <time>2014-07-12T10:42:12Z</time>
      </trkpt>
      <trkpt lat="59.9408188" lon="17.8749035">
        <ele>21.2864</ele>
        <time>2014-07-12T10:42:13Z</time>
      </trkpt>
      <trkpt lat="59.9408837" lon="17.8749543">
        <ele>21.2864</ele>
        <time>2014-07-12T10:42:14Z</time>
      </trkpt>
      <trkpt lat="59.9409478" lon="17.875002">
        <ele>21.2864</ele>
        <time>2014-07-12T10:42:15Z</time>
      </trkpt>
      <trkpt lat="59.9410119" lon="17.8750444">
        <ele>21.2864</ele>
        <time>2014-07-12T10:42:16Z</time>
      </trkpt>
      <trkpt lat="59.9410754" lon="17.8750817">
        <ele>21.767</ele>
        <time>2014-07-12T10:42:17Z</time>
      </trkpt>
      <trkpt lat="59.9411379" lon="17.8751168">
        <ele>21.767</ele>
        <time>2014-07-12T10:42:18Z</time>
      </trkpt>
      <trkpt lat="59.9411996" lon="17.8751478">
        <ele>21.767</ele>
        <time>2014-07-12T10:42:19Z</time>
      </trkpt>
      <trkpt lat="59.9412621" lon="17.8751715">
        <ele>21.767</ele>
        <time>2014-07-12T10:42:20Z</time>
      </trkpt>
      <trkpt lat="59.9413259" lon="17.875191">
        <ele>21.767</ele>
        <time>2014-07-12T10:42:21Z</time>
      </trkpt>
      <trkpt lat="59.9413907" lon="17.8752106">
        <ele>21.767</ele>
        <time>2014-07-12T10:42:22Z</time>
      </trkpt>
      <trkpt lat="59.9414525" lon="17.8752271">
        <ele>21.767</ele>
        <time>2014-07-12T10:42:23Z</time>
      </trkpt>
      <trkpt lat="59.9415165" lon="17.8752437">
        <ele>21.767</ele>
        <time>2014-07-12T10:42:24Z</time>
      </trkpt>
      <trkpt lat="59.9415819" lon="17.8752609">
        <ele>21.767</ele>
        <time>2014-07-12T10:42:25Z</time>
      </trkpt>
      <trkpt lat="59.9416456" lon="17.8752766">
        <ele>21.767</ele>
        <time>2014-07-12T10:42:26Z</time>
      </trkpt>
      <trkpt lat="59.9417109" lon="17.8752972">
        <ele>21.767</ele>
        <time>2014-07-12T10:42:27Z</time>
      </trkpt>
      <trkpt lat="59.9417775" lon="17.8753236">
        <ele>21.767</ele>
        <time>2014-07-12T10:42:28Z</time>
      </trkpt>
      <trkpt lat="59.941844" lon="17.8753561">
        <ele>21.767</ele>
        <time>2014-07-12T10:42:29Z</time>
      </trkpt>
      <trkpt lat="59.9419104" lon="17.8753935">
        <ele>21.767</ele>
        <time>2014-07-12T10:42:30Z</time>
      </trkpt>
      <trkpt lat="59.9419757" lon="17.8754341">
        <ele>21.767</ele>
        <time>2014-07-12T10:42:31Z</time>
      </trkpt>
      <trkpt lat="59.9420397" lon="17.875478">
        <ele>21.767</ele>
        <time>2014-07-12T10:42:32Z</time>
      </trkpt>
      <trkpt lat="59.9421022" lon="17.8755267">
        <ele>21.767</ele>
        <time>2014-07-12T10:42:33Z</time>
      </trkpt>
      <trkpt lat="59.9421647" lon="17.8755817">
        <ele>21.767</ele>
        <time>2014-07-12T10:42:34Z</time>
      </trkpt>
      <trkpt lat="59.9422271" lon="17.8756423">
        <ele>21.767</ele>
        <time>2014-07-12T10:42:35Z</time>
      </trkpt>
      <trkpt lat="59.942289" lon="17.8757086">
        <ele>21.767</ele>
        <time>2014-07-12T10:42:36Z</time>
      </trkpt>
      <trkpt lat="59.9423505" lon="17.8757789">
        <ele>21.2864</ele>
        <time>2014-07-12T10:42:37Z</time>
      </trkpt>
      <trkpt lat="59.9424103" lon="17.8758529">
        <ele>21.2864</ele>
        <time>2014-07-12T10:42:38Z</time>
      </trkpt>
      <trkpt lat="59.9424683" lon="17.8759301">
        <ele>21.2864</ele>
        <time>2014-07-12T10:42:39Z</time>
      </trkpt>
      <trkpt lat="59.9425255" lon="17.8760053">
        <ele>21.2864</ele>
        <time>2014-07-12T10:42:40Z</time>
      </trkpt>
      <trkpt lat="59.9425827" lon="17.8760788">
        <ele>21.2864</ele>
        <time>2014-07-12T10:42:41Z</time>
      </trkpt>
      <trkpt lat="59.9426403" lon="17.8761554">
        <ele>21.2864</ele>
        <time>2014-07-12T10:42:42Z</time>
      </trkpt>
      <trkpt lat="59.9426987" lon="17.8762353">
        <ele>20.8057</ele>
        <time>2014-07-12T10:42:43Z</time>
      </trkpt>
      <trkpt lat="59.9427588" lon="17.8763165">
        <ele>20.8057</ele>
        <time>2014-07-12T10:42:44Z</time>
      </trkpt>
      <trkpt lat="59.9428197" lon="17.8763953">
        <ele>20.8057</ele>
        <time>2014-07-12T10:42:45Z</time>
      </trkpt>
      <trkpt lat="59.9428784" lon="17.8764727">
        <ele>20.325</ele>
        <time>2014-07-12T10:42:46Z</time>
      </trkpt>
      <trkpt lat="59.9429368" lon="17.8765498">
        <ele>20.325</ele>
        <time>2014-07-12T10:42:47Z</time>
      </trkpt>
      <trkpt lat="59.9429945" lon="17.876627">
        <ele>20.325</ele>
        <time>2014-07-12T10:42:48Z</time>
      </trkpt>
      <trkpt lat="59.9430535" lon="17.8767019">
        <ele>20.325</ele>
        <time>2014-07-12T10:42:49Z</time>
      </trkpt>
      <trkpt lat="59.9431126" lon="17.876775">
        <ele>20.325</ele>
        <time>2014-07-12T10:42:50Z</time>
      </trkpt>
      <trkpt lat="59.9431697" lon="17.876849">
        <ele>20.325</ele>
        <time>2014-07-12T10:42:51Z</time>
      </trkpt>
      <trkpt lat="59.943225" lon="17.8769229">
        <ele>20.325</ele>
        <time>2014-07-12T10:42:52Z</time>
      </trkpt>
      <trkpt lat="59.9432794" lon="17.8769945">
        <ele>20.325</ele>
        <time>2014-07-12T10:42:53Z</time>
      </trkpt>
      <trkpt lat="59.9433325" lon="17.8770636">
        <ele>20.325</ele>
        <time>2014-07-12T10:42:54Z</time>
      </trkpt>
      <trkpt lat="59.9433836" lon="17.877131">
        <ele>20.325</ele>
        <time>2014-07-12T10:42:55Z</time>
      </trkpt>
      <trkpt lat="59.9434328" lon="17.8771963">
        <ele>20.325</ele>
        <time>2014-07-12T10:42:56Z</time>
      </trkpt>
      <trkpt lat="59.9434802" lon="17.8772584">
        <ele>20.325</ele>
        <time>2014-07-12T10:42:57Z</time>
      </trkpt>
      <trkpt lat="59.9435259" lon="17.8773175">
        <ele>20.8057</ele>
        <time>2014-07-12T10:42:58Z</time>
      </trkpt>
      <trkpt lat="59.94357" lon="17.8773768">
        <ele>20.8057</ele>
        <time>2014-07-12T10:42:59Z</time>
      </trkpt>
      <trkpt lat="59.943614" lon="17.8774344">
        <ele>20.8057</ele>
        <time>2014-07-12T10:43:00Z</time>
      </trkpt>
      <trkpt lat="59.9436592" lon="17.877488">
        <ele>20.8057</ele>
        <time>2014-07-12T10:43:01Z</time>
      </trkpt>
      <trkpt lat="59.9437021" lon="17.8775485">
        <ele>20.8057</ele>
        <time>2014-07-12T10:43:02Z</time>
      </trkpt>
      <trkpt lat="59.9437403" lon="17.8776209">
        <ele>20.8057</ele>
        <time>2014-07-12T10:43:03Z</time>
      </trkpt>
      <trkpt lat="59.9437677" lon="17.8777105">
        <ele>20.325</ele>
        <time>2014-07-12T10:43:04Z</time>
      </trkpt>
      <trkpt lat="59.9437739" lon="17.8778159">
        <ele>20.325</ele>
        <time>2014-07-12T10:43:05Z</time>
      </trkpt>
      <trkpt lat="59.943763" lon="17.8779239">
        <ele>20.325</ele>
        <time>2014-07-12T10:43:06Z</time>
      </trkpt>
      <trkpt lat="59.9437321" lon="17.8780184">
        <ele>20.325</ele>
        <time>2014-07-12T10:43:07Z</time>
      </trkpt>
      <trkpt lat="59.943687" lon="17.8780991">
        <ele>20.325</ele>
        <time>2014-07-12T10:43:08Z</time>
      </trkpt>
      <trkpt lat="59.943639" lon="17.8781798">
        <ele>19.8444</ele>
        <time>2014-07-12T10:43:09Z</time>
      </trkpt>
      <trkpt lat="59.9435929" lon="17.8782679">
        <ele>19.3638</ele>
        <time>2014-07-12T10:43:10Z</time>
      </trkpt>
      <trkpt lat="59.9435471" lon="17.8783624">
        <ele>18.8831</ele>
        <time>2014-07-12T10:43:11Z</time>
      </trkpt>
      <trkpt lat="59.9435" lon="17.8784643">
        <ele>18.8831</ele>
        <time>2014-07-12T10:43:12Z</time>
      </trkpt>
      <trkpt lat="59.9434508" lon="17.8785711">
        <ele>18.4023</ele>
        <time>2014-07-12T10:43:13Z</time>
      </trkpt>
      <trkpt lat="59.9433994" lon="17.878676">
        <ele>18.4023</ele>
        <time>2014-07-12T10:43:14Z</time>
      </trkpt>
      <trkpt lat="59.9433436" lon="17.8787871">
        <ele>17.9218</ele>
        <time>2014-07-12T10:43:15Z</time>
      </trkpt>
      <trkpt lat="59.9432855" lon="17.8789032">
        <ele>17.9218</ele>
        <time>2014-07-12T10:43:16Z</time>
      </trkpt>
      <trkpt lat="59.9432269" lon="17.8790243">
        <ele>17.4412</ele>
        <time>2014-07-12T10:43:17Z</time>
      </trkpt>
      <trkpt lat="59.943168" lon="17.87915">
        <ele>17.4412</ele>
        <time>2014-07-12T10:43:18Z</time>
      </trkpt>
      <trkpt lat="59.9431079" lon="17.8792746">
        <ele>16.9604</ele>
        <time>2014-07-12T10:43:19Z</time>
      </trkpt>
      <trkpt lat="59.9430473" lon="17.8793945">
        <ele>16.9604</ele>
        <time>2014-07-12T10:43:20Z</time>
      </trkpt>
      <trkpt lat="59.9429876" lon="17.8795115">
        <ele>16.9604</ele>
        <time>2014-07-12T10:43:21Z</time>
      </trkpt>
      <trkpt lat="59.9429298" lon="17.8796271">
        <ele>16.9604</ele>
        <time>2014-07-12T10:43:22Z</time>
      </trkpt>
      <trkpt lat="59.9428743" lon="17.8797413">
        <ele>16.9604</ele>
        <time>2014-07-12T10:43:23Z</time>
      </trkpt>
      <trkpt lat="59.9428204" lon="17.8798546">
        <ele>16.9604</ele>
        <time>2014-07-12T10:43:24Z</time>
      </trkpt>
      <trkpt lat="59.9427677" lon="17.8799661">
        <ele>16.9604</ele>
        <time>2014-07-12T10:43:25Z</time>
      </trkpt>
      <trkpt lat="59.9427153" lon="17.8800764">
        <ele>16.9604</ele>
        <time>2014-07-12T10:43:26Z</time>
      </trkpt>
      <trkpt lat="59.9426634" lon="17.8801873">
        <ele>16.9604</ele>
        <time>2014-07-12T10:43:27Z</time>
      </trkpt>
      <trkpt lat="59.9426128" lon="17.8803006">
        <ele>16.9604</ele>
        <time>2014-07-12T10:43:28Z</time>
      </trkpt>
      <trkpt lat="59.9425643" lon="17.8804148">
        <ele>17.4412</ele>
        <time>2014-07-12T10:43:29Z</time>
      </trkpt>
      <trkpt lat="59.9425174" lon="17.8805296">
        <ele>17.4412</ele>
        <time>2014-07-12T10:43:30Z</time>
      </trkpt>
      <trkpt lat="59.9424728" lon="17.880646">
        <ele>17.4412</ele>
        <time>2014-07-12T10:43:31Z</time>
      </trkpt>
      <trkpt lat="59.9424313" lon="17.8807639">
        <ele>17.4412</ele>
        <time>2014-07-12T10:43:32Z</time>
      </trkpt>
      <trkpt lat="59.9423918" lon="17.8808845">
        <ele>17.9218</ele>
        <time>2014-07-12T10:43:33Z</time>
      </trkpt>
      <trkpt lat="59.9423535" lon="17.881006">
        <ele>17.9218</ele>
        <time>2014-07-12T10:43:34Z</time>
      </trkpt>
      <trkpt lat="59.9423163" lon="17.8811274">
        <ele>17.9218</ele>
        <time>2014-07-12T10:43:35Z</time>
      </trkpt>
      <trkpt lat="59.94228" lon="17.8812501">
        <ele>18.4023</ele>
        <time>2014-07-12T10:43:36Z</time>
      </trkpt>
      <trkpt lat="59.9422433" lon="17.8813725">
        <ele>18.4023</ele>
        <time>2014-07-12T10:43:37Z</time>
      </trkpt>
      <trkpt lat="59.9422054" lon="17.8814935">
        <ele>18.4023</ele>
        <time>2014-07-12T10:43:38Z</time>
      </trkpt>
      <trkpt lat="59.9421657" lon="17.8816107">
        <ele>18.4023</ele>
        <time>2014-07-12T10:43:39Z</time>
      </trkpt>
      <trkpt lat="59.9421236" lon="17.8817237">
        <ele>18.8831</ele>
        <time>2014-07-12T10:43:40Z</time>
      </trkpt>
      <trkpt lat="59.9420793" lon="17.881834">
        <ele>18.8831</ele>
        <time>2014-07-12T10:43:41Z</time>
      </trkpt>
      <trkpt lat="59.9420345" lon="17.8819424">
        <ele>19.3638</ele>
        <time>2014-07-12T10:43:42Z</time>
      </trkpt>
      <trkpt lat="59.9419895" lon="17.8820448">
        <ele>19.3638</ele>
        <time>2014-07-12T10:43:43Z</time>
      </trkpt>
      <trkpt lat="59.941946" lon="17.8821407">
        <ele>19.3638</ele>
        <time>2014-07-12T10:43:44Z</time>
      </trkpt>
      <trkpt lat="59.9419036" lon="17.8822314">
        <ele>19.3638</ele>
        <time>2014-07-12T10:43:45Z</time>
      </trkpt>
      <trkpt lat="59.941861" lon="17.8823172">
        <ele>19.3638</ele>
        <time>2014-07-12T10:43:46Z</time>
      </trkpt>
      <trkpt lat="59.9418185" lon="17.8824024">
        <ele>19.3638</ele>
        <time>2014-07-12T10:43:47Z</time>
      </trkpt>
      <trkpt lat="59.9417792" lon="17.8824841">
        <ele>19.8444</ele>
        <time>2014-07-12T10:43:48Z</time>
      </trkpt>
      <trkpt lat="59.9417414" lon="17.8825611">
        <ele>19.8444</ele>
        <time>2014-07-12T10:43:49Z</time>
      </trkpt>
      <trkpt lat="59.9416949" lon="17.8826369">
        <ele>19.3638</ele>
        <time>2014-07-12T10:43:50Z</time>
      </trkpt>
      <trkpt lat="59.9416445" lon="17.882711">
        <ele>19.3638</ele>
        <time>2014-07-12T10:43:51Z</time>
      </trkpt>
      <trkpt lat="59.9415932" lon="17.8827861">
        <ele>19.3638</ele>
        <time>2014-07-12T10:43:52Z</time>
      </trkpt>
      <trkpt lat="59.9415404" lon="17.8828632">
        <ele>19.3638</ele>
        <time>2014-07-12T10:43:53Z</time>
      </trkpt>
      <trkpt lat="59.9414865" lon="17.8829413">
        <ele>19.3638</ele>
        <time>2014-07-12T10:43:54Z</time>
      </trkpt>
      <trkpt lat="59.9414319" lon="17.8830157">
        <ele>19.3638</ele>
        <time>2014-07-12T10:43:55Z</time>
      </trkpt>
      <trkpt lat="59.9413761" lon="17.8830819">
        <ele>19.3638</ele>
        <time>2014-07-12T10:43:56Z</time>
      </trkpt>
      <trkpt lat="59.9413211" lon="17.8831446">
        <ele>19.3638</ele>
        <time>2014-07-12T10:43:57Z</time>
      </trkpt>
      <trkpt lat="59.9412662" lon="17.8832083">
        <ele>19.3638</ele>
        <time>2014-07-12T10:43:58Z</time>
      </trkpt>
      <trkpt lat="59.9412001" lon="17.8832568">
        <ele>19.3638</ele>
        <time>2014-07-12T10:43:59Z</time>
      </trkpt>
      <trkpt lat="59.9411394" lon="17.883314">
        <ele>19.8444</ele>
        <time>2014-07-12T10:44:00Z</time>
      </trkpt>
      <trkpt lat="59.9410794" lon="17.8833693">
        <ele>19.8444</ele>
        <time>2014-07-12T10:44:01Z</time>
      </trkpt>
      <trkpt lat="59.9410188" lon="17.8834254">
        <ele>19.8444</ele>
        <time>2014-07-12T10:44:02Z</time>
      </trkpt>
      <trkpt lat="59.9409587" lon="17.8834829">
        <ele>19.8444</ele>
        <time>2014-07-12T10:44:03Z</time>
      </trkpt>
      <trkpt lat="59.9408987" lon="17.883538">
        <ele>19.8444</ele>
        <time>2014-07-12T10:44:04Z</time>
      </trkpt>
      <trkpt lat="59.9408381" lon="17.8835893">
        <ele>19.8444</ele>
        <time>2014-07-12T10:44:05Z</time>
      </trkpt>
      <trkpt lat="59.9407772" lon="17.8836387">
        <ele>20.325</ele>
        <time>2014-07-12T10:44:06Z</time>
      </trkpt>
      <trkpt lat="59.9407153" lon="17.8836858">
        <ele>20.325</ele>
        <time>2014-07-12T10:44:07Z</time>
      </trkpt>
      <trkpt lat="59.9406531" lon="17.8837323">
        <ele>20.325</ele>
        <time>2014-07-12T10:44:08Z</time>
      </trkpt>
      <trkpt lat="59.9405904" lon="17.8837725">
        <ele>20.325</ele>
        <time>2014-07-12T10:44:09Z</time>
      </trkpt>
      <trkpt lat="59.940526" lon="17.8838031">
        <ele>20.325</ele>
        <time>2014-07-12T10:44:10Z</time>
      </trkpt>
      <trkpt lat="59.9404592" lon="17.883829">
        <ele>20.325</ele>
        <time>2014-07-12T10:44:11Z</time>
      </trkpt>
      <trkpt lat="59.9403925" lon="17.8838546">
        <ele>20.325</ele>
        <time>2014-07-12T10:44:12Z</time>
      </trkpt>
      <trkpt lat="59.9403277" lon="17.8838769">
        <ele>20.8057</ele>
        <time>2014-07-12T10:44:13Z</time>
      </trkpt>
      <trkpt lat="59.9402657" lon="17.8838915">
        <ele>20.8057</ele>
        <time>2014-07-12T10:44:14Z</time>
      </trkpt>
      <trkpt lat="59.9402058" lon="17.8839009">
        <ele>20.8057</ele>
        <time>2014-07-12T10:44:15Z</time>
      </trkpt>
      <trkpt lat="59.9401469" lon="17.883906">
        <ele>20.8057</ele>
        <time>2014-07-12T10:44:16Z</time>
      </trkpt>
      <trkpt lat="59.9400884" lon="17.8839072">
        <ele>20.8057</ele>
        <time>2014-07-12T10:44:17Z</time>
      </trkpt>
      <trkpt lat="59.9400302" lon="17.8839076">
        <ele>20.8057</ele>
        <time>2014-07-12T10:44:18Z</time>
      </trkpt>
      <trkpt lat="59.939971" lon="17.8839107">
        <ele>20.8057</ele>
        <time>2014-07-12T10:44:19Z</time>
      </trkpt>
      <trkpt lat="59.9399113" lon="17.88392">
        <ele>20.8057</ele>
        <time>2014-07-12T10:44:20Z</time>
      </trkpt>
      <trkpt lat="59.9398523" lon="17.8839339">
        <ele>20.8057</ele>
        <time>2014-07-12T10:44:21Z</time>
      </trkpt>
      <trkpt lat="59.9397937" lon="17.8839516">
        <ele>20.8057</ele>
        <time>2014-07-12T10:44:22Z</time>
      </trkpt>
      <trkpt lat="59.939735" lon="17.8839765">
        <ele>20.8057</ele>
        <time>2014-07-12T10:44:23Z</time>
      </trkpt>
      <trkpt lat="59.9396772" lon="17.8840055">
        <ele>20.8057</ele>
        <time>2014-07-12T10:44:24Z</time>
      </trkpt>
      <trkpt lat="59.939619" lon="17.8840329">
        <ele>21.2864</ele>
        <time>2014-07-12T10:44:25Z</time>
      </trkpt>
      <trkpt lat="59.9395609" lon="17.8840594">
        <ele>21.767</ele>
        <time>2014-07-12T10:44:26Z</time>
      </trkpt>
      <trkpt lat="59.9395053" lon="17.8840847">
        <ele>21.767</ele>
        <time>2014-07-12T10:44:27Z</time>
      </trkpt>
      <trkpt lat="59.9394518" lon="17.8841117">
        <ele>22.2476</ele>
        <time>2014-07-12T10:44:28Z</time>
      </trkpt>
      <trkpt lat="59.9393995" lon="17.8841438">
        <ele>22.2476</ele>
        <time>2014-07-12T10:44:29Z</time>
      </trkpt>
      <trkpt lat="59.9393488" lon="17.8841807">
        <ele>22.7283</ele>
        <time>2014-07-12T10:44:30Z</time>
      </trkpt>
      <trkpt lat="59.9392977" lon="17.8842205">
        <ele>22.7283</ele>
        <time>2014-07-12T10:44:31Z</time>
      </trkpt>
      <trkpt lat="59.9392449" lon="17.8842599">
        <ele>22.7283</ele>
        <time>2014-07-12T10:44:32Z</time>
      </trkpt>
      <trkpt lat="59.939191" lon="17.8842945">
        <ele>22.2476</ele>
        <time>2014-07-12T10:44:33Z</time>
      </trkpt>
      <trkpt lat="59.9391353" lon="17.884322">
        <ele>22.2476</ele>
        <time>2014-07-12T10:44:34Z</time>
      </trkpt>
      <trkpt lat="59.9390751" lon="17.8843344">
        <ele>21.767</ele>
        <time>2014-07-12T10:44:35Z</time>
      </trkpt>
      <trkpt lat="59.9390141" lon="17.8843325">
        <ele>21.767</ele>
        <time>2014-07-12T10:44:36Z</time>
      </trkpt>
      <trkpt lat="59.9389529" lon="17.8843275">
        <ele>21.767</ele>
        <time>2014-07-12T10:44:37Z</time>
      </trkpt>
      <trkpt lat="59.9388902" lon="17.884322">
        <ele>21.767</ele>
        <time>2014-07-12T10:44:38Z</time>
      </trkpt>
      <trkpt lat="59.9388256" lon="17.8843184">
        <ele>21.767</ele>
        <time>2014-07-12T10:44:39Z</time>
      </trkpt>
      <trkpt lat="59.9387585" lon="17.8843161">
        <ele>21.767</ele>
        <time>2014-07-12T10:44:40Z</time>
      </trkpt>
      <trkpt lat="59.9386888" lon="17.8843137">
        <ele>21.767</ele>
        <time>2014-07-12T10:44:41Z</time>
      </trkpt>
      <trkpt lat="59.9386168" lon="17.884313">
        <ele>21.767</ele>
        <time>2014-07-12T10:44:42Z</time>
      </trkpt>
      <trkpt lat="59.9385441" lon="17.8843122">
        <ele>21.767</ele>
        <time>2014-07-12T10:44:43Z</time>
      </trkpt>
      <trkpt lat="59.9384712" lon="17.8843044">
        <ele>21.767</ele>
        <time>2014-07-12T10:44:44Z</time>
      </trkpt>
      <trkpt lat="59.938399" lon="17.884289">
        <ele>21.767</ele>
        <time>2014-07-12T10:44:45Z</time>
      </trkpt>
      <trkpt lat="59.9383273" lon="17.8842728">
        <ele>21.767</ele>
        <time>2014-07-12T10:44:46Z</time>
      </trkpt>
      <trkpt lat="59.9382567" lon="17.8842613">
        <ele>21.2864</ele>
        <time>2014-07-12T10:44:47Z</time>
      </trkpt>
      <trkpt lat="59.9381866" lon="17.8842557">
        <ele>21.2864</ele>
        <time>2014-07-12T10:44:48Z</time>
      </trkpt>
      <trkpt lat="59.9381169" lon="17.8842596">
        <ele>21.2864</ele>
        <time>2014-07-12T10:44:49Z</time>
      </trkpt>
      <trkpt lat="59.9380486" lon="17.88428">
        <ele>21.2864</ele>
        <time>2014-07-12T10:44:50Z</time>
      </trkpt>
      <trkpt lat="59.9379822" lon="17.8843162">
        <ele>21.2864</ele>
        <time>2014-07-12T10:44:51Z</time>
      </trkpt>
      <trkpt lat="59.9379179" lon="17.8843638">
        <ele>21.2864</ele>
        <time>2014-07-12T10:44:52Z</time>
      </trkpt>
      <trkpt lat="59.9378558" lon="17.8844202">
        <ele>21.2864</ele>
        <time>2014-07-12T10:44:53Z</time>
      </trkpt>
      <trkpt lat="59.9377957" lon="17.884485">
        <ele>21.2864</ele>
        <time>2014-07-12T10:44:54Z</time>
      </trkpt>
      <trkpt lat="59.9377365" lon="17.8845566">
        <ele>21.2864</ele>
        <time>2014-07-12T10:44:55Z</time>
      </trkpt>
      <trkpt lat="59.9376772" lon="17.8846302">
        <ele>21.2864</ele>
        <time>2014-07-12T10:44:56Z</time>
      </trkpt>
      <trkpt lat="59.9376178" lon="17.8847017">
        <ele>21.2864</ele>
        <time>2014-07-12T10:44:57Z</time>
      </trkpt>
      <trkpt lat="59.9375574" lon="17.884771">
        <ele>21.2864</ele>
        <time>2014-07-12T10:44:58Z</time>
      </trkpt>
      <trkpt lat="59.9374957" lon="17.8848421">
        <ele>21.2864</ele>
        <time>2014-07-12T10:44:59Z</time>
      </trkpt>
      <trkpt lat="59.9374315" lon="17.8849141">
        <ele>21.2864</ele>
        <time>2014-07-12T10:45:00Z</time>
      </trkpt>
      <trkpt lat="59.937365" lon="17.8849841">
        <ele>21.2864</ele>
        <time>2014-07-12T10:45:01Z</time>
      </trkpt>
      <trkpt lat="59.9372972" lon="17.8850534">
        <ele>21.2864</ele>
        <time>2014-07-12T10:45:02Z</time>
      </trkpt>
      <trkpt lat="59.9372289" lon="17.8851227">
        <ele>21.2864</ele>
        <time>2014-07-12T10:45:03Z</time>
      </trkpt>
      <trkpt lat="59.9371597" lon="17.8851915">
        <ele>21.2864</ele>
        <time>2014-07-12T10:45:04Z</time>
      </trkpt>
      <trkpt lat="59.9370898" lon="17.8852606">
        <ele>21.767</ele>
        <time>2014-07-12T10:45:05Z</time>
      </trkpt>
      <trkpt lat="59.9370193" lon="17.8853291">
        <ele>22.2476</ele>
        <time>2014-07-12T10:45:06Z</time>
      </trkpt>
      <trkpt lat="59.9369489" lon="17.8853956">
        <ele>22.2476</ele>
        <time>2014-07-12T10:45:07Z</time>
      </trkpt>
      <trkpt lat="59.9368807" lon="17.8854597">
        <ele>22.7283</ele>
        <time>2014-07-12T10:45:08Z</time>
      </trkpt>
      <trkpt lat="59.9368147" lon="17.8855227">
        <ele>23.209</ele>
        <time>2014-07-12T10:45:09Z</time>
      </trkpt>
      <trkpt lat="59.9367522" lon="17.8855834">
        <ele>23.209</ele>
        <time>2014-07-12T10:45:10Z</time>
      </trkpt>
      <trkpt lat="59.9366934" lon="17.8856379">
        <ele>23.6896</ele>
        <time>2014-07-12T10:45:11Z</time>
      </trkpt>
      <trkpt lat="59.9366396" lon="17.885686">
        <ele>23.6896</ele>
        <time>2014-07-12T10:45:12Z</time>
      </trkpt>
      <trkpt lat="59.9365908" lon="17.88573">
        <ele>23.6896</ele>
        <time>2014-07-12T10:45:13Z</time>
      </trkpt>
      <trkpt lat="59.9365447" lon="17.8857709">
        <ele>24.1703</ele>
        <time>2014-07-12T10:45:14Z</time>
      </trkpt>
      <trkpt lat="59.9365017" lon="17.8858102">
        <ele>24.651</ele>
        <time>2014-07-12T10:45:15Z</time>
      </trkpt>
      <trkpt lat="59.9364617" lon="17.8858471">
        <ele>25.1317</ele>
        <time>2014-07-12T10:45:16Z</time>
      </trkpt>
      <trkpt lat="59.9364236" lon="17.885881">
        <ele>25.6123</ele>
        <time>2014-07-12T10:45:17Z</time>
      </trkpt>
      <trkpt lat="59.936387" lon="17.8859195">
        <ele>26.0929</ele>
        <time>2014-07-12T10:45:18Z</time>
      </trkpt>
      <trkpt lat="59.9363527" lon="17.8859656">
        <ele>26.5736</ele>
        <time>2014-07-12T10:45:19Z</time>
      </trkpt>
      <trkpt lat="59.9363225" lon="17.8860155">
        <ele>27.0543</ele>
        <time>2014-07-12T10:45:20Z</time>
      </trkpt>
      <trkpt lat="59.936294" lon="17.8860735">
        <ele>27.5349</ele>
        <time>2014-07-12T10:45:21Z</time>
      </trkpt>
      <trkpt lat="59.9362665" lon="17.8861387">
        <ele>27.5349</ele>
        <time>2014-07-12T10:45:22Z</time>
      </trkpt>
      <trkpt lat="59.9362391" lon="17.8862095">
        <ele>27.5349</ele>
        <time>2014-07-12T10:45:23Z</time>
      </trkpt>
      <trkpt lat="59.9362121" lon="17.886285">
        <ele>28.0155</ele>
        <time>2014-07-12T10:45:24Z</time>
      </trkpt>
      <trkpt lat="59.9361838" lon="17.8863644">
        <ele>28.0155</ele>
        <time>2014-07-12T10:45:25Z</time>
      </trkpt>
      <trkpt lat="59.936153" lon="17.8864468">
        <ele>28.0155</ele>
        <time>2014-07-12T10:45:26Z</time>
      </trkpt>
      <trkpt lat="59.93612" lon="17.8865298">
        <ele>28.0155</ele>
        <time>2014-07-12T10:45:27Z</time>
      </trkpt>
      <trkpt lat="59.936084" lon="17.8866112">
        <ele>27.5349</ele>
        <time>2014-07-12T10:45:28Z</time>
      </trkpt>
      <trkpt lat="59.9360432" lon="17.8866873">
        <ele>27.5349</ele>
        <time>2014-07-12T10:45:29Z</time>
      </trkpt>
      <trkpt lat="59.9359977" lon="17.8867588">
        <ele>27.0543</ele>
        <time>2014-07-12T10:45:30Z</time>
      </trkpt>
      <trkpt lat="59.9359465" lon="17.8868236">
        <ele>26.5736</ele>
        <time>2014-07-12T10:45:31Z</time>
      </trkpt>
      <trkpt lat="59.9358899" lon="17.8868727">
        <ele>26.0929</ele>
        <time>2014-07-12T10:45:32Z</time>
      </trkpt>
      <trkpt lat="59.9358319" lon="17.8869036">
        <ele>26.0929</ele>
        <time>2014-07-12T10:45:33Z</time>
      </trkpt>
      <trkpt lat="59.935775" lon="17.8869188">
        <ele>26.0929</ele>
        <time>2014-07-12T10:45:34Z</time>
      </trkpt>
      <trkpt lat="59.935721" lon="17.8869239">
        <ele>26.0929</ele>
        <time>2014-07-12T10:45:35Z</time>
      </trkpt>
      <trkpt lat="59.9356703" lon="17.8869274">
        <ele>25.6123</ele>
        <time>2014-07-12T10:45:36Z</time>
      </trkpt>
      <trkpt lat="59.9356209" lon="17.8869336">
        <ele>25.6123</ele>
        <time>2014-07-12T10:45:37Z</time>
      </trkpt>
      <trkpt lat="59.9355748" lon="17.8869411">
        <ele>25.1317</ele>
        <time>2014-07-12T10:45:38Z</time>
      </trkpt>
      <trkpt lat="59.9355319" lon="17.8869481">
        <ele>25.1317</ele>
        <time>2014-07-12T10:45:39Z</time>
      </trkpt>
      <trkpt lat="59.9354915" lon="17.8869569">
        <ele>25.1317</ele>
        <time>2014-07-12T10:45:40Z</time>
      </trkpt>
      <trkpt lat="59.9354528" lon="17.8869711">
        <ele>25.1317</ele>
        <time>2014-07-12T10:45:41Z</time>
      </trkpt>
      <trkpt lat="59.9354182" lon="17.8869866">
        <ele>24.651</ele>
        <time>2014-07-12T10:45:42Z</time>
      </trkpt>
      <trkpt lat="59.9353886" lon="17.8869963">
        <ele>24.651</ele>
        <time>2014-07-12T10:45:43Z</time>
      </trkpt>
      <trkpt lat="59.9353596" lon="17.8870059">
        <ele>24.651</ele>
        <time>2014-07-12T10:45:44Z</time>
      </trkpt>
      <trkpt lat="59.9353288" lon="17.8870135">
        <ele>24.651</ele>
        <time>2014-07-12T10:45:45Z</time>
      </trkpt>
      <trkpt lat="59.9352956" lon="17.8870127">
        <ele>24.651</ele>
        <time>2014-07-12T10:45:46Z</time>
      </trkpt>
      <trkpt lat="59.9352599" lon="17.8870093">
        <ele>24.651</ele>
        <time>2014-07-12T10:45:47Z</time>
      </trkpt>
      <trkpt lat="59.9352242" lon="17.8870074">
        <ele>24.651</ele>
        <time>2014-07-12T10:45:48Z</time>
      </trkpt>
      <trkpt lat="59.9351881" lon="17.8870042">
        <ele>24.651</ele>
        <time>2014-07-12T10:45:49Z</time>
      </trkpt>
      <trkpt lat="59.9351538" lon="17.8869953">
        <ele>24.1703</ele>
        <time>2014-07-12T10:45:50Z</time>
      </trkpt>
      <trkpt lat="59.9351196" lon="17.8869844">
        <ele>24.1703</ele>
        <time>2014-07-12T10:45:51Z</time>
      </trkpt>
      <trkpt lat="59.9350834" lon="17.8869788">
        <ele>23.6896</ele>
        <time>2014-07-12T10:45:52Z</time>
      </trkpt>
      <trkpt lat="59.9350477" lon="17.8869816">
        <ele>23.209</ele>
        <time>2014-07-12T10:45:53Z</time>
      </trkpt>
      <trkpt lat="59.9350125" lon="17.8869913">
        <ele>23.209</ele>
        <time>2014-07-12T10:45:54Z</time>
      </trkpt>
      <trkpt lat="59.9349773" lon="17.8870012">
        <ele>22.7283</ele>
        <time>2014-07-12T10:45:55Z</time>
      </trkpt>
      <trkpt lat="59.9349467" lon="17.8870078">
        <ele>22.2476</ele>
        <time>2014-07-12T10:45:56Z</time>
      </trkpt>
      <trkpt lat="59.9349187" lon="17.8870181">
        <ele>22.2476</ele>
        <time>2014-07-12T10:45:57Z</time>
      </trkpt>
      <trkpt lat="59.9348913" lon="17.887028">
        <ele>21.767</ele>
        <time>2014-07-12T10:45:58Z</time>
      </trkpt>
      <trkpt lat="59.9348632" lon="17.8870421">
        <ele>21.767</ele>
        <time>2014-07-12T10:45:59Z</time>
      </trkpt>
      <trkpt lat="59.9348352" lon="17.8870641">
        <ele>21.767</ele>
        <time>2014-07-12T10:46:00Z</time>
      </trkpt>
      <trkpt lat="59.9348069" lon="17.8870833">
        <ele>21.2864</ele>
        <time>2014-07-12T10:46:01Z</time>
      </trkpt>
      <trkpt lat="59.9347824" lon="17.8870959">
        <ele>20.8057</ele>
        <time>2014-07-12T10:46:02Z</time>
      </trkpt>
      <trkpt lat="59.9347615" lon="17.8871114">
        <ele>20.8057</ele>
        <time>2014-07-12T10:46:03Z</time>
      </trkpt>
      <trkpt lat="59.9347413" lon="17.8871285">
        <ele>20.8057</ele>
        <time>2014-07-12T10:46:04Z</time>
      </trkpt>
      <trkpt lat="59.9347216" lon="17.8871468">
        <ele>20.8057</ele>
        <time>2014-07-12T10:46:05Z</time>
      </trkpt>
      <trkpt lat="59.9347035" lon="17.8871669">
        <ele>20.325</ele>
        <time>2014-07-12T10:46:06Z</time>
      </trkpt>
      <trkpt lat="59.9346865" lon="17.8871834">
        <ele>19.8444</ele>
        <time>2014-07-12T10:46:07Z</time>
      </trkpt>
      <trkpt lat="59.9346711" lon="17.887195">
        <ele>19.8444</ele>
        <time>2014-07-12T10:46:08Z</time>
      </trkpt>
      <trkpt lat="59.9346633" lon="17.8872161">
        <ele>20.325</ele>
        <time>2014-07-12T10:46:09Z</time>
      </trkpt>
      <trkpt lat="59.9346643" lon="17.8872328">
        <ele>20.325</ele>
        <time>2014-07-12T10:46:10Z</time>
      </trkpt>
      <trkpt lat="59.9346732" lon="17.8872295">
        <ele>20.325</ele>
        <time>2014-07-12T10:46:11Z</time>
      </trkpt>
      <trkpt lat="59.9346877" lon="17.8872131">
        <ele>19.8444</ele>
        <time>2014-07-12T10:46:12Z</time>
      </trkpt>
      <trkpt lat="59.9347064" lon="17.887196">
        <ele>19.8444</ele>
        <time>2014-07-12T10:46:13Z</time>
      </trkpt>
      <trkpt lat="59.9347292" lon="17.8871709">
        <ele>19.3638</ele>
        <time>2014-07-12T10:46:14Z</time>
      </trkpt>
      <trkpt lat="59.9347553" lon="17.8871541">
        <ele>18.8831</ele>
        <time>2014-07-12T10:46:15Z</time>
      </trkpt>
      <trkpt lat="59.9347825" lon="17.8871405">
        <ele>18.4023</ele>
        <time>2014-07-12T10:46:16Z</time>
      </trkpt>
      <trkpt lat="59.9348175" lon="17.8871194">
        <ele>18.4023</ele>
        <time>2014-07-12T10:46:17Z</time>
      </trkpt>
      <trkpt lat="59.9348517" lon="17.8871025">
        <ele>17.9218</ele>
        <time>2014-07-12T10:46:18Z</time>
      </trkpt>
      <trkpt lat="59.9348895" lon="17.8870857">
        <ele>17.9218</ele>
        <time>2014-07-12T10:46:19Z</time>
      </trkpt>
      <trkpt lat="59.9349321" lon="17.8870717">
        <ele>17.9218</ele>
        <time>2014-07-12T10:46:20Z</time>
      </trkpt>
      <trkpt lat="59.9349794" lon="17.8870616">
        <ele>18.4023</ele>
        <time>2014-07-12T10:46:21Z</time>
      </trkpt>
      <trkpt lat="59.9350276" lon="17.8870592">
        <ele>18.8831</ele>
        <time>2014-07-12T10:46:22Z</time>
      </trkpt>
      <trkpt lat="59.9350773" lon="17.8870627">
        <ele>18.8831</ele>
        <time>2014-07-12T10:46:23Z</time>
      </trkpt>
      <trkpt lat="59.9351255" lon="17.8870664">
        <ele>19.3638</ele>
        <time>2014-07-12T10:46:24Z</time>
      </trkpt>
      <trkpt lat="59.935174" lon="17.8870689">
        <ele>19.3638</ele>
        <time>2014-07-12T10:46:25Z</time>
      </trkpt>
      <trkpt lat="59.9352215" lon="17.8870714">
        <ele>20.325</ele>
        <time>2014-07-12T10:46:26Z</time>
      </trkpt>
      <trkpt lat="59.9352684" lon="17.887068">
        <ele>20.8057</ele>
        <time>2014-07-12T10:46:27Z</time>
      </trkpt>
      <trkpt lat="59.9353113" lon="17.8870601">
        <ele>20.325</ele>
        <time>2014-07-12T10:46:28Z</time>
      </trkpt>
      <trkpt lat="59.9353578" lon="17.8870497">
        <ele>20.325</ele>
        <time>2014-07-12T10:46:29Z</time>
      </trkpt>
      <trkpt lat="59.935402" lon="17.8870344">
        <ele>20.325</ele>
        <time>2014-07-12T10:46:30Z</time>
      </trkpt>
      <trkpt lat="59.9354489" lon="17.8870213">
        <ele>20.8057</ele>
        <time>2014-07-12T10:46:31Z</time>
      </trkpt>
      <trkpt lat="59.9354969" lon="17.88701">
        <ele>20.8057</ele>
        <time>2014-07-12T10:46:32Z</time>
      </trkpt>
      <trkpt lat="59.9355543" lon="17.8869991">
        <ele>21.2864</ele>
        <time>2014-07-12T10:46:33Z</time>
      </trkpt>
      <trkpt lat="59.9356087" lon="17.8869922">
        <ele>21.767</ele>
        <time>2014-07-12T10:46:34Z</time>
      </trkpt>
      <trkpt lat="59.935662" lon="17.8869891">
        <ele>22.2476</ele>
        <time>2014-07-12T10:46:35Z</time>
      </trkpt>
      <trkpt lat="59.9357144" lon="17.8869792">
        <ele>22.7283</ele>
        <time>2014-07-12T10:46:36Z</time>
      </trkpt>
      <trkpt lat="59.9357703" lon="17.8869707">
        <ele>23.209</ele>
        <time>2014-07-12T10:46:37Z</time>
      </trkpt>
      <trkpt lat="59.9358224" lon="17.8869623">
        <ele>23.6896</ele>
        <time>2014-07-12T10:46:38Z</time>
      </trkpt>
      <trkpt lat="59.9358727" lon="17.8869395">
        <ele>23.6896</ele>
        <time>2014-07-12T10:46:39Z</time>
      </trkpt>
      <trkpt lat="59.9359231" lon="17.8869069">
        <ele>24.1703</ele>
        <time>2014-07-12T10:46:40Z</time>
      </trkpt>
      <trkpt lat="59.9359706" lon="17.8868632">
        <ele>24.1703</ele>
        <time>2014-07-12T10:46:41Z</time>
      </trkpt>
      <trkpt lat="59.9360132" lon="17.8868073">
        <ele>24.651</ele>
        <time>2014-07-12T10:46:42Z</time>
      </trkpt>
      <trkpt lat="59.9360516" lon="17.8867431">
        <ele>24.651</ele>
        <time>2014-07-12T10:46:43Z</time>
      </trkpt>
      <trkpt lat="59.9360868" lon="17.8866734">
        <ele>24.651</ele>
        <time>2014-07-12T10:46:44Z</time>
      </trkpt>
      <trkpt lat="59.9361213" lon="17.8866001">
        <ele>24.651</ele>
        <time>2014-07-12T10:46:45Z</time>
      </trkpt>
      <trkpt lat="59.9361535" lon="17.8865202">
        <ele>24.651</ele>
        <time>2014-07-12T10:46:46Z</time>
      </trkpt>
      <trkpt lat="59.9361838" lon="17.8864345">
        <ele>25.1317</ele>
        <time>2014-07-12T10:46:47Z</time>
      </trkpt>
      <trkpt lat="59.9362153" lon="17.8863475">
        <ele>25.1317</ele>
        <time>2014-07-12T10:46:48Z</time>
      </trkpt>
      <trkpt lat="59.9362479" lon="17.8862608">
        <ele>25.1317</ele>
        <time>2014-07-12T10:46:49Z</time>
      </trkpt>
      <trkpt lat="59.9362811" lon="17.8861733">
        <ele>24.651</ele>
        <time>2014-07-12T10:46:50Z</time>
      </trkpt>
      <trkpt lat="59.9363181" lon="17.8860868">
        <ele>24.651</ele>
        <time>2014-07-12T10:46:51Z</time>
      </trkpt>
      <trkpt lat="59.9363628" lon="17.8860053">
        <ele>24.651</ele>
        <time>2014-07-12T10:46:52Z</time>
      </trkpt>
      <trkpt lat="59.9364164" lon="17.885934">
        <ele>24.1703</ele>
        <time>2014-07-12T10:46:53Z</time>
      </trkpt>
      <trkpt lat="59.9364798" lon="17.8858706">
        <ele>23.6896</ele>
        <time>2014-07-12T10:46:54Z</time>
      </trkpt>
      <trkpt lat="59.9365514" lon="17.8858077">
        <ele>23.6896</ele>
        <time>2014-07-12T10:46:55Z</time>
      </trkpt>
      <trkpt lat="59.936625" lon="17.8857424">
        <ele>22.7283</ele>
        <time>2014-07-12T10:46:56Z</time>
      </trkpt>
      <trkpt lat="59.9367027" lon="17.8856719">
        <ele>22.2476</ele>
        <time>2014-07-12T10:46:57Z</time>
      </trkpt>
      <trkpt lat="59.9367849" lon="17.8855948">
        <ele>21.767</ele>
        <time>2014-07-12T10:46:58Z</time>
      </trkpt>
      <trkpt lat="59.9368689" lon="17.8855146">
        <ele>20.8057</ele>
        <time>2014-07-12T10:46:59Z</time>
      </trkpt>
      <trkpt lat="59.9369545" lon="17.8854326">
        <ele>20.325</ele>
        <time>2014-07-12T10:47:00Z</time>
      </trkpt>
      <trkpt lat="59.9370404" lon="17.8853466">
        <ele>19.8444</ele>
        <time>2014-07-12T10:47:01Z</time>
      </trkpt>
      <trkpt lat="59.9371265" lon="17.8852609">
        <ele>19.8444</ele>
        <time>2014-07-12T10:47:02Z</time>
      </trkpt>
      <trkpt lat="59.9372123" lon="17.8851772">
        <ele>19.8444</ele>
        <time>2014-07-12T10:47:03Z</time>
      </trkpt>
      <trkpt lat="59.9372961" lon="17.8850945">
        <ele>19.3638</ele>
        <time>2014-07-12T10:47:04Z</time>
      </trkpt>
      <trkpt lat="59.9373773" lon="17.8850141">
        <ele>19.3638</ele>
        <time>2014-07-12T10:47:05Z</time>
      </trkpt>
      <trkpt lat="59.9374565" lon="17.8849356">
        <ele>19.8444</ele>
        <time>2014-07-12T10:47:06Z</time>
      </trkpt>
      <trkpt lat="59.9375336" lon="17.8848581">
        <ele>19.8444</ele>
        <time>2014-07-12T10:47:07Z</time>
      </trkpt>
      <trkpt lat="59.9376077" lon="17.88478">
        <ele>19.8444</ele>
        <time>2014-07-12T10:47:08Z</time>
      </trkpt>
      <trkpt lat="59.9376792" lon="17.884696">
        <ele>19.8444</ele>
        <time>2014-07-12T10:47:09Z</time>
      </trkpt>
      <trkpt lat="59.9377496" lon="17.8846054">
        <ele>19.8444</ele>
        <time>2014-07-12T10:47:10Z</time>
      </trkpt>
      <trkpt lat="59.9378206" lon="17.8845147">
        <ele>19.8444</ele>
        <time>2014-07-12T10:47:11Z</time>
      </trkpt>
      <trkpt lat="59.9378937" lon="17.8844278">
        <ele>19.3638</ele>
        <time>2014-07-12T10:47:12Z</time>
      </trkpt>
      <trkpt lat="59.9379702" lon="17.8843526">
        <ele>19.3638</ele>
        <time>2014-07-12T10:47:13Z</time>
      </trkpt>
      <trkpt lat="59.9380495" lon="17.8842954">
        <ele>19.3638</ele>
        <time>2014-07-12T10:47:14Z</time>
      </trkpt>
      <trkpt lat="59.9381312" lon="17.8842587">
        <ele>19.8444</ele>
        <time>2014-07-12T10:47:15Z</time>
      </trkpt>
      <trkpt lat="59.9382133" lon="17.8842458">
        <ele>19.8444</ele>
        <time>2014-07-12T10:47:16Z</time>
      </trkpt>
      <trkpt lat="59.9382938" lon="17.8842529">
        <ele>19.8444</ele>
        <time>2014-07-12T10:47:17Z</time>
      </trkpt>
      <trkpt lat="59.9383728" lon="17.8842721">
        <ele>19.8444</ele>
        <time>2014-07-12T10:47:18Z</time>
      </trkpt>
      <trkpt lat="59.9384518" lon="17.8842925">
        <ele>19.8444</ele>
        <time>2014-07-12T10:47:19Z</time>
      </trkpt>
      <trkpt lat="59.9385308" lon="17.8843089">
        <ele>19.8444</ele>
        <time>2014-07-12T10:47:20Z</time>
      </trkpt>
      <trkpt lat="59.9386105" lon="17.8843205">
        <ele>19.8444</ele>
        <time>2014-07-12T10:47:21Z</time>
      </trkpt>
      <trkpt lat="59.938691" lon="17.8843273">
        <ele>19.8444</ele>
        <time>2014-07-12T10:47:22Z</time>
      </trkpt>
      <trkpt lat="59.938772" lon="17.8843318">
        <ele>19.8444</ele>
        <time>2014-07-12T10:47:23Z</time>
      </trkpt>
      <trkpt lat="59.938852" lon="17.8843365">
        <ele>19.8444</ele>
        <time>2014-07-12T10:47:24Z</time>
      </trkpt>
      <trkpt lat="59.9389311" lon="17.8843394">
        <ele>19.8444</ele>
        <time>2014-07-12T10:47:25Z</time>
      </trkpt>
      <trkpt lat="59.9390094" lon="17.8843391">
        <ele>19.8444</ele>
        <time>2014-07-12T10:47:26Z</time>
      </trkpt>
      <trkpt lat="59.939086" lon="17.8843365">
        <ele>20.325</ele>
        <time>2014-07-12T10:47:27Z</time>
      </trkpt>
      <trkpt lat="59.9391603" lon="17.8843247">
        <ele>20.325</ele>
        <time>2014-07-12T10:47:28Z</time>
      </trkpt>
      <trkpt lat="59.9392331" lon="17.8842974">
        <ele>20.8057</ele>
        <time>2014-07-12T10:47:29Z</time>
      </trkpt>
      <trkpt lat="59.9393015" lon="17.884256">
        <ele>20.8057</ele>
        <time>2014-07-12T10:47:30Z</time>
      </trkpt>
      <trkpt lat="59.9393682" lon="17.8842091">
        <ele>20.8057</ele>
        <time>2014-07-12T10:47:31Z</time>
      </trkpt>
      <trkpt lat="59.9394352" lon="17.8841639">
        <ele>20.8057</ele>
        <time>2014-07-12T10:47:32Z</time>
      </trkpt>
      <trkpt lat="59.9395061" lon="17.8841205">
        <ele>20.8057</ele>
        <time>2014-07-12T10:47:33Z</time>
      </trkpt>
      <trkpt lat="59.9395819" lon="17.8840789">
        <ele>20.325</ele>
        <time>2014-07-12T10:47:34Z</time>
      </trkpt>
      <trkpt lat="59.9396638" lon="17.8840376">
        <ele>20.325</ele>
        <time>2014-07-12T10:47:35Z</time>
      </trkpt>
      <trkpt lat="59.9397497" lon="17.8839986">
        <ele>19.8444</ele>
        <time>2014-07-12T10:47:36Z</time>
      </trkpt>
      <trkpt lat="59.9398368" lon="17.8839633">
        <ele>19.8444</ele>
        <time>2014-07-12T10:47:37Z</time>
      </trkpt>
      <trkpt lat="59.9399245" lon="17.883933">
        <ele>19.8444</ele>
        <time>2014-07-12T10:47:38Z</time>
      </trkpt>
      <trkpt lat="59.9400124" lon="17.8839153">
        <ele>19.8444</ele>
        <time>2014-07-12T10:47:39Z</time>
      </trkpt>
      <trkpt lat="59.9400998" lon="17.8839096">
        <ele>19.8444</ele>
        <time>2014-07-12T10:47:40Z</time>
      </trkpt>
      <trkpt lat="59.9401853" lon="17.8839044">
        <ele>19.8444</ele>
        <time>2014-07-12T10:47:41Z</time>
      </trkpt>
      <trkpt lat="59.9402693" lon="17.8838941">
        <ele>19.8444</ele>
        <time>2014-07-12T10:47:42Z</time>
      </trkpt>
      <trkpt lat="59.9403525" lon="17.883878">
        <ele>19.3638</ele>
        <time>2014-07-12T10:47:43Z</time>
      </trkpt>
      <trkpt lat="59.9404344" lon="17.8838542">
        <ele>19.3638</ele>
        <time>2014-07-12T10:47:44Z</time>
      </trkpt>
      <trkpt lat="59.9405142" lon="17.8838256">
        <ele>19.3638</ele>
        <time>2014-07-12T10:47:45Z</time>
      </trkpt>
      <trkpt lat="59.9405919" lon="17.8837917">
        <ele>19.3638</ele>
        <time>2014-07-12T10:47:46Z</time>
      </trkpt>
      <trkpt lat="59.9406675" lon="17.8837526">
        <ele>19.3638</ele>
        <time>2014-07-12T10:47:47Z</time>
      </trkpt>
      <trkpt lat="59.9407416" lon="17.8837066">
        <ele>19.3638</ele>
        <time>2014-07-12T10:47:48Z</time>
      </trkpt>
      <trkpt lat="59.9408147" lon="17.8836502">
        <ele>19.3638</ele>
        <time>2014-07-12T10:47:49Z</time>
      </trkpt>
      <trkpt lat="59.9408866" lon="17.8835869">
        <ele>18.8831</ele>
        <time>2014-07-12T10:47:50Z</time>
      </trkpt>
      <trkpt lat="59.9409587" lon="17.8835216">
        <ele>18.8831</ele>
        <time>2014-07-12T10:47:51Z</time>
      </trkpt>
      <trkpt lat="59.9410311" lon="17.8834577">
        <ele>18.8831</ele>
        <time>2014-07-12T10:47:52Z</time>
      </trkpt>
      <trkpt lat="59.9411027" lon="17.8833916">
        <ele>18.8831</ele>
        <time>2014-07-12T10:47:53Z</time>
      </trkpt>
      <trkpt lat="59.9411729" lon="17.8833207">
        <ele>18.8831</ele>
        <time>2014-07-12T10:47:54Z</time>
      </trkpt>
      <trkpt lat="59.9412426" lon="17.8832472">
        <ele>18.8831</ele>
        <time>2014-07-12T10:47:55Z</time>
      </trkpt>
      <trkpt lat="59.9413118" lon="17.8831706">
        <ele>18.8831</ele>
        <time>2014-07-12T10:47:56Z</time>
      </trkpt>
      <trkpt lat="59.9413797" lon="17.8830895">
        <ele>18.8831</ele>
        <time>2014-07-12T10:47:57Z</time>
      </trkpt>
      <trkpt lat="59.9414465" lon="17.8830047">
        <ele>18.8831</ele>
        <time>2014-07-12T10:47:58Z</time>
      </trkpt>
      <trkpt lat="59.9415124" lon="17.8829164">
        <ele>19.3638</ele>
        <time>2014-07-12T10:47:59Z</time>
      </trkpt>
      <trkpt lat="59.9415778" lon="17.8828247">
        <ele>19.3638</ele>
        <time>2014-07-12T10:48:00Z</time>
      </trkpt>
      <trkpt lat="59.9416425" lon="17.8827308">
        <ele>19.3638</ele>
        <time>2014-07-12T10:48:01Z</time>
      </trkpt>
      <trkpt lat="59.941706" lon="17.8826357">
        <ele>19.3638</ele>
        <time>2014-07-12T10:48:02Z</time>
      </trkpt>
      <trkpt lat="59.9417671" lon="17.8825396">
        <ele>19.8444</ele>
        <time>2014-07-12T10:48:03Z</time>
      </trkpt>
      <trkpt lat="59.9418251" lon="17.8824422">
        <ele>19.8444</ele>
        <time>2014-07-12T10:48:04Z</time>
      </trkpt>
      <trkpt lat="59.9418813" lon="17.8823438">
        <ele>19.8444</ele>
        <time>2014-07-12T10:48:05Z</time>
      </trkpt>
      <trkpt lat="59.9419357" lon="17.8822417">
        <ele>19.8444</ele>
        <time>2014-07-12T10:48:06Z</time>
      </trkpt>
      <trkpt lat="59.9419884" lon="17.8821327">
        <ele>19.3638</ele>
        <time>2014-07-12T10:48:07Z</time>
      </trkpt>
      <trkpt lat="59.9420402" lon="17.8820112">
        <ele>19.3638</ele>
        <time>2014-07-12T10:48:08Z</time>
      </trkpt>
      <trkpt lat="59.9420931" lon="17.8818879">
        <ele>18.8831</ele>
        <time>2014-07-12T10:48:09Z</time>
      </trkpt>
      <trkpt lat="59.9421422" lon="17.8817613">
        <ele>18.4023</ele>
        <time>2014-07-12T10:48:10Z</time>
      </trkpt>
      <trkpt lat="59.9421886" lon="17.8816304">
        <ele>18.4023</ele>
        <time>2014-07-12T10:48:11Z</time>
      </trkpt>
      <trkpt lat="59.9422357" lon="17.8814957">
        <ele>17.9218</ele>
        <time>2014-07-12T10:48:12Z</time>
      </trkpt>
      <trkpt lat="59.9422797" lon="17.8813573">
        <ele>17.9218</ele>
        <time>2014-07-12T10:48:13Z</time>
      </trkpt>
      <trkpt lat="59.942326" lon="17.881215">
        <ele>17.9218</ele>
        <time>2014-07-12T10:48:14Z</time>
      </trkpt>
      <trkpt lat="59.9423704" lon="17.8810705">
        <ele>17.9218</ele>
        <time>2014-07-12T10:48:15Z</time>
      </trkpt>
      <trkpt lat="59.942412" lon="17.8809263">
        <ele>17.9218</ele>
        <time>2014-07-12T10:48:16Z</time>
      </trkpt>
      <trkpt lat="59.9424562" lon="17.8807848">
        <ele>17.9218</ele>
        <time>2014-07-12T10:48:17Z</time>
      </trkpt>
      <trkpt lat="59.9425039" lon="17.8806466">
        <ele>17.9218</ele>
        <time>2014-07-12T10:48:18Z</time>
      </trkpt>
      <trkpt lat="59.9425537" lon="17.8805115">
        <ele>17.4412</ele>
        <time>2014-07-12T10:48:19Z</time>
      </trkpt>
      <trkpt lat="59.9426061" lon="17.8803797">
        <ele>17.4412</ele>
        <time>2014-07-12T10:48:20Z</time>
      </trkpt>
      <trkpt lat="59.9426605" lon="17.8802498">
        <ele>17.4412</ele>
        <time>2014-07-12T10:48:21Z</time>
      </trkpt>
      <trkpt lat="59.9427157" lon="17.8801218">
        <ele>17.4412</ele>
        <time>2014-07-12T10:48:22Z</time>
      </trkpt>
      <trkpt lat="59.9427713" lon="17.8799967">
        <ele>17.4412</ele>
        <time>2014-07-12T10:48:23Z</time>
      </trkpt>
      <trkpt lat="59.9428272" lon="17.8798742">
        <ele>17.4412</ele>
        <time>2014-07-12T10:48:24Z</time>
      </trkpt>
      <trkpt lat="59.9428831" lon="17.8797521">
        <ele>17.9218</ele>
        <time>2014-07-12T10:48:25Z</time>
      </trkpt>
      <trkpt lat="59.9429399" lon="17.8796312">
        <ele>17.9218</ele>
        <time>2014-07-12T10:48:26Z</time>
      </trkpt>
      <trkpt lat="59.9429979" lon="17.8795112">
        <ele>17.9218</ele>
        <time>2014-07-12T10:48:27Z</time>
      </trkpt>
      <trkpt lat="59.9430566" lon="17.8793905">
        <ele>17.9218</ele>
        <time>2014-07-12T10:48:28Z</time>
      </trkpt>
      <trkpt lat="59.9431157" lon="17.8792676">
        <ele>17.9218</ele>
        <time>2014-07-12T10:48:29Z</time>
      </trkpt>
      <trkpt lat="59.9431748" lon="17.879144">
        <ele>17.9218</ele>
        <time>2014-07-12T10:48:30Z</time>
      </trkpt>
      <trkpt lat="59.9432339" lon="17.8790222">
        <ele>18.4023</ele>
        <time>2014-07-12T10:48:31Z</time>
      </trkpt>
      <trkpt lat="59.9432919" lon="17.878904">
        <ele>18.4023</ele>
        <time>2014-07-12T10:48:32Z</time>
      </trkpt>
      <trkpt lat="59.9433484" lon="17.8787911">
        <ele>18.8831</ele>
        <time>2014-07-12T10:48:33Z</time>
      </trkpt>
      <trkpt lat="59.9434035" lon="17.8786819">
        <ele>19.3638</ele>
        <time>2014-07-12T10:48:34Z</time>
      </trkpt>
      <trkpt lat="59.9434569" lon="17.8785752">
        <ele>19.3638</ele>
        <time>2014-07-12T10:48:35Z</time>
      </trkpt>
      <trkpt lat="59.9435086" lon="17.878472">
        <ele>19.3638</ele>
        <time>2014-07-12T10:48:36Z</time>
      </trkpt>
      <trkpt lat="59.9435576" lon="17.8783699">
        <ele>19.8444</ele>
        <time>2014-07-12T10:48:37Z</time>
      </trkpt>
      <trkpt lat="59.9436038" lon="17.8782727">
        <ele>19.8444</ele>
        <time>2014-07-12T10:48:38Z</time>
      </trkpt>
      <trkpt lat="59.9436466" lon="17.8781823">
        <ele>19.8444</ele>
        <time>2014-07-12T10:48:39Z</time>
      </trkpt>
      <trkpt lat="59.9436856" lon="17.8780958">
        <ele>19.8444</ele>
        <time>2014-07-12T10:48:40Z</time>
      </trkpt>
      <trkpt lat="59.9437228" lon="17.8780114">
        <ele>19.8444</ele>
        <time>2014-07-12T10:48:41Z</time>
      </trkpt>
      <trkpt lat="59.9437592" lon="17.8779262">
        <ele>19.8444</ele>
        <time>2014-07-12T10:48:42Z</time>
      </trkpt>
      <trkpt lat="59.9437984" lon="17.8778487">
        <ele>20.325</ele>
        <time>2014-07-12T10:48:43Z</time>
      </trkpt>
      <trkpt lat="59.9438422" lon="17.8777857">
        <ele>20.325</ele>
        <time>2014-07-12T10:48:44Z</time>
      </trkpt>
      <trkpt lat="59.9438911" lon="17.877749">
        <ele>20.325</ele>
        <time>2014-07-12T10:48:45Z</time>
      </trkpt>
      <trkpt lat="59.9439433" lon="17.8777385">
        <ele>19.8444</ele>
        <time>2014-07-12T10:48:46Z</time>
      </trkpt>
      <trkpt lat="59.9439959" lon="17.8777521">
        <ele>19.8444</ele>
        <time>2014-07-12T10:48:47Z</time>
      </trkpt>
      <trkpt lat="59.9440491" lon="17.8777846">
        <ele>19.8444</ele>
        <time>2014-07-12T10:48:48Z</time>
      </trkpt>
      <trkpt lat="59.9441041" lon="17.8778225">
        <ele>19.3638</ele>
        <time>2014-07-12T10:48:49Z</time>
      </trkpt>
      <trkpt lat="59.9441625" lon="17.8778557">
        <ele>19.3638</ele>
        <time>2014-07-12T10:48:50Z</time>
      </trkpt>
      <trkpt lat="59.9442228" lon="17.8778824">
        <ele>19.3638</ele>
        <time>2014-07-12T10:48:51Z</time>
      </trkpt>
      <trkpt lat="59.9442836" lon="17.8779096">
        <ele>18.8831</ele>
        <time>2014-07-12T10:48:52Z</time>
      </trkpt>
      <trkpt lat="59.9443443" lon="17.8779399">
        <ele>18.8831</ele>
        <time>2014-07-12T10:48:53Z</time>
      </trkpt>
      <trkpt lat="59.944405" lon="17.877969">
        <ele>18.8831</ele>
        <time>2014-07-12T10:48:54Z</time>
      </trkpt>
      <trkpt lat="59.9444657" lon="17.8779969">
        <ele>18.4023</ele>
        <time>2014-07-12T10:48:55Z</time>
      </trkpt>
      <trkpt lat="59.944526" lon="17.8780249">
        <ele>18.4023</ele>
        <time>2014-07-12T10:48:56Z</time>
      </trkpt>
      <trkpt lat="59.9445857" lon="17.8780534">
        <ele>18.4023</ele>
        <time>2014-07-12T10:48:57Z</time>
      </trkpt>
      <trkpt lat="59.9446458" lon="17.8780821">
        <ele>18.4023</ele>
        <time>2014-07-12T10:48:58Z</time>
      </trkpt>
      <trkpt lat="59.9447075" lon="17.8781105">
        <ele>17.9218</ele>
        <time>2014-07-12T10:48:59Z</time>
      </trkpt>
      <trkpt lat="59.9447706" lon="17.8781394">
        <ele>17.9218</ele>
        <time>2014-07-12T10:49:00Z</time>
      </trkpt>
      <trkpt lat="59.9448339" lon="17.8781692">
        <ele>17.9218</ele>
        <time>2014-07-12T10:49:01Z</time>
      </trkpt>
      <trkpt lat="59.9448977" lon="17.8781999">
        <ele>17.9218</ele>
        <time>2014-07-12T10:49:02Z</time>
      </trkpt>
      <trkpt lat="59.9449623" lon="17.8782307">
        <ele>17.9218</ele>
        <time>2014-07-12T10:49:03Z</time>
      </trkpt>
      <trkpt lat="59.9450275" lon="17.8782613">
        <ele>17.9218</ele>
        <time>2014-07-12T10:49:04Z</time>
      </trkpt>
      <trkpt lat="59.9450932" lon="17.8782917">
        <ele>17.9218</ele>
        <time>2014-07-12T10:49:05Z</time>
      </trkpt>
      <trkpt lat="59.9451592" lon="17.8783249">
        <ele>17.9218</ele>
        <time>2014-07-12T10:49:06Z</time>
      </trkpt>
      <trkpt lat="59.9452256" lon="17.878358">
        <ele>17.9218</ele>
        <time>2014-07-12T10:49:07Z</time>
      </trkpt>
      <trkpt lat="59.9452924" lon="17.8783887">
        <ele>17.9218</ele>
        <time>2014-07-12T10:49:08Z</time>
      </trkpt>
      <trkpt lat="59.9453591" lon="17.8784188">
        <ele>17.9218</ele>
        <time>2014-07-12T10:49:09Z</time>
      </trkpt>
      <trkpt lat="59.9454256" lon="17.8784504">
        <ele>18.4023</ele>
        <time>2014-07-12T10:49:10Z</time>
      </trkpt>
      <trkpt lat="59.9454922" lon="17.8784825">
        <ele>18.4023</ele>
        <time>2014-07-12T10:49:11Z</time>
      </trkpt>
      <trkpt lat="59.9455585" lon="17.8785136">
        <ele>18.4023</ele>
        <time>2014-07-12T10:49:12Z</time>
      </trkpt>
      <trkpt lat="59.9456249" lon="17.8785439">
        <ele>18.4023</ele>
        <time>2014-07-12T10:49:13Z</time>
      </trkpt>
      <trkpt lat="59.9456911" lon="17.8785745">
        <ele>18.8831</ele>
        <time>2014-07-12T10:49:14Z</time>
      </trkpt>
      <trkpt lat="59.9457571" lon="17.878605">
        <ele>18.8831</ele>
        <time>2014-07-12T10:49:15Z</time>
      </trkpt>
      <trkpt lat="59.9458234" lon="17.8786352">
        <ele>18.8831</ele>
        <time>2014-07-12T10:49:16Z</time>
      </trkpt>
      <trkpt lat="59.9458899" lon="17.8786663">
        <ele>18.8831</ele>
        <time>2014-07-12T10:49:17Z</time>
      </trkpt>
      <trkpt lat="59.9459564" lon="17.8786964">
        <ele>18.8831</ele>
        <time>2014-07-12T10:49:18Z</time>
      </trkpt>
      <trkpt lat="59.9460236" lon="17.8787263">
        <ele>18.8831</ele>
        <time>2014-07-12T10:49:19Z</time>
      </trkpt>
      <trkpt lat="59.946091" lon="17.8787575">
        <ele>19.3638</ele>
        <time>2014-07-12T10:49:20Z</time>
      </trkpt>
      <trkpt lat="59.9461585" lon="17.8787887">
        <ele>19.3638</ele>
        <time>2014-07-12T10:49:21Z</time>
      </trkpt>
      <trkpt lat="59.9462261" lon="17.8788207">
        <ele>19.3638</ele>
        <time>2014-07-12T10:49:22Z</time>
      </trkpt>
      <trkpt lat="59.9462937" lon="17.878855">
        <ele>19.3638</ele>
        <time>2014-07-12T10:49:23Z</time>
      </trkpt>
      <trkpt lat="59.9463621" lon="17.8788906">
        <ele>19.3638</ele>
        <time>2014-07-12T10:49:24Z</time>
      </trkpt>
      <trkpt lat="59.9464314" lon="17.8789274">
        <ele>19.3638</ele>
        <time>2014-07-12T10:49:25Z</time>
      </trkpt>
      <trkpt lat="59.9465014" lon="17.8789676">
        <ele>19.3638</ele>
        <time>2014-07-12T10:49:26Z</time>
      </trkpt>
      <trkpt lat="59.9465723" lon="17.8790108">
        <ele>18.8831</ele>
        <time>2014-07-12T10:49:27Z</time>
      </trkpt>
      <trkpt lat="59.9466438" lon="17.8790549">
        <ele>18.8831</ele>
        <time>2014-07-12T10:49:28Z</time>
      </trkpt>
      <trkpt lat="59.946716" lon="17.8791005">
        <ele>18.8831</ele>
        <time>2014-07-12T10:49:29Z</time>
      </trkpt>
      <trkpt lat="59.9467882" lon="17.879147">
        <ele>18.8831</ele>
        <time>2014-07-12T10:49:30Z</time>
      </trkpt>
      <trkpt lat="59.9468604" lon="17.8791925">
        <ele>18.8831</ele>
        <time>2014-07-12T10:49:31Z</time>
      </trkpt>
      <trkpt lat="59.9469319" lon="17.8792361">
        <ele>18.8831</ele>
        <time>2014-07-12T10:49:32Z</time>
      </trkpt>
      <trkpt lat="59.9470009" lon="17.8792781">
        <ele>18.8831</ele>
        <time>2014-07-12T10:49:33Z</time>
      </trkpt>
      <trkpt lat="59.947068" lon="17.879319">
        <ele>19.3638</ele>
        <time>2014-07-12T10:49:34Z</time>
      </trkpt>
      <trkpt lat="59.9471349" lon="17.8793582">
        <ele>19.3638</ele>
        <time>2014-07-12T10:49:35Z</time>
      </trkpt>
      <trkpt lat="59.9472032" lon="17.8793987">
        <ele>19.3638</ele>
        <time>2014-07-12T10:49:36Z</time>
      </trkpt>
      <trkpt lat="59.9472746" lon="17.8794364">
        <ele>19.3638</ele>
        <time>2014-07-12T10:49:37Z</time>
      </trkpt>
      <trkpt lat="59.9473489" lon="17.8794675">
        <ele>19.3638</ele>
        <time>2014-07-12T10:49:38Z</time>
      </trkpt>
      <trkpt lat="59.9474255" lon="17.8794925">
        <ele>19.3638</ele>
        <time>2014-07-12T10:49:39Z</time>
      </trkpt>
      <trkpt lat="59.9475032" lon="17.8795139">
        <ele>18.8831</ele>
        <time>2014-07-12T10:49:40Z</time>
      </trkpt>
      <trkpt lat="59.9475819" lon="17.8795333">
        <ele>18.8831</ele>
        <time>2014-07-12T10:49:41Z</time>
      </trkpt>
      <trkpt lat="59.9476601" lon="17.8795494">
        <ele>18.8831</ele>
        <time>2014-07-12T10:49:42Z</time>
      </trkpt>
      <trkpt lat="59.9477394" lon="17.8795654">
        <ele>18.8831</ele>
        <time>2014-07-12T10:49:43Z</time>
      </trkpt>
      <trkpt lat="59.9478185" lon="17.8795833">
        <ele>18.8831</ele>
        <time>2014-07-12T10:49:44Z</time>
      </trkpt>
      <trkpt lat="59.947898" lon="17.8796001">
        <ele>18.8831</ele>
        <time>2014-07-12T10:49:45Z</time>
      </trkpt>
      <trkpt lat="59.9479755" lon="17.879621">
        <ele>18.8831</ele>
        <time>2014-07-12T10:49:46Z</time>
      </trkpt>
      <trkpt lat="59.9480543" lon="17.8796453">
        <ele>18.8831</ele>
        <time>2014-07-12T10:49:47Z</time>
      </trkpt>
      <trkpt lat="59.9481321" lon="17.8796672">
        <ele>18.8831</ele>
        <time>2014-07-12T10:49:48Z</time>
      </trkpt>
      <trkpt lat="59.948208" lon="17.879695">
        <ele>18.8831</ele>
        <time>2014-07-12T10:49:49Z</time>
      </trkpt>
      <trkpt lat="59.9482818" lon="17.8797298">
        <ele>18.8831</ele>
        <time>2014-07-12T10:49:50Z</time>
      </trkpt>
      <trkpt lat="59.9483553" lon="17.8797664">
        <ele>18.8831</ele>
        <time>2014-07-12T10:49:51Z</time>
      </trkpt>
      <trkpt lat="59.9484284" lon="17.8798051">
        <ele>18.8831</ele>
        <time>2014-07-12T10:49:52Z</time>
      </trkpt>
      <trkpt lat="59.9485021" lon="17.8798479">
        <ele>18.8831</ele>
        <time>2014-07-12T10:49:53Z</time>
      </trkpt>
      <trkpt lat="59.9485765" lon="17.879892">
        <ele>18.4023</ele>
        <time>2014-07-12T10:49:54Z</time>
      </trkpt>
      <trkpt lat="59.948651" lon="17.8799394">
        <ele>18.4023</ele>
        <time>2014-07-12T10:49:55Z</time>
      </trkpt>
      <trkpt lat="59.9487251" lon="17.8799899">
        <ele>18.4023</ele>
        <time>2014-07-12T10:49:56Z</time>
      </trkpt>
      <trkpt lat="59.9487988" lon="17.8800422">
        <ele>18.4023</ele>
        <time>2014-07-12T10:49:57Z</time>
      </trkpt>
      <trkpt lat="59.9488716" lon="17.8800964">
        <ele>18.4023</ele>
        <time>2014-07-12T10:49:58Z</time>
      </trkpt>
      <trkpt lat="59.9489431" lon="17.8801525">
        <ele>18.4023</ele>
        <time>2014-07-12T10:49:59Z</time>
      </trkpt>
      <trkpt lat="59.9490133" lon="17.8802107">
        <ele>17.9218</ele>
        <time>2014-07-12T10:50:00Z</time>
      </trkpt>
      <trkpt lat="59.9490837" lon="17.8802696">
        <ele>17.9218</ele>
        <time>2014-07-12T10:50:01Z</time>
      </trkpt>
      <trkpt lat="59.9491551" lon="17.8803275">
        <ele>18.4023</ele>
        <time>2014-07-12T10:50:02Z</time>
      </trkpt>
      <trkpt lat="59.9492254" lon="17.8803821">
        <ele>18.4023</ele>
        <time>2014-07-12T10:50:03Z</time>
      </trkpt>
      <trkpt lat="59.9492965" lon="17.8804333">
        <ele>18.4023</ele>
        <time>2014-07-12T10:50:04Z</time>
      </trkpt>
      <trkpt lat="59.9493687" lon="17.8804807">
        <ele>17.9218</ele>
        <time>2014-07-12T10:50:05Z</time>
      </trkpt>
      <trkpt lat="59.9494412" lon="17.8805239">
        <ele>17.9218</ele>
        <time>2014-07-12T10:50:06Z</time>
      </trkpt>
      <trkpt lat="59.9495155" lon="17.8805561">
        <ele>17.9218</ele>
        <time>2014-07-12T10:50:07Z</time>
      </trkpt>
      <trkpt lat="59.9495908" lon="17.8805725">
        <ele>18.4023</ele>
        <time>2014-07-12T10:50:08Z</time>
      </trkpt>
      <trkpt lat="59.9496664" lon="17.8805747">
        <ele>18.4023</ele>
        <time>2014-07-12T10:50:09Z</time>
      </trkpt>
      <trkpt lat="59.949741" lon="17.8805606">
        <ele>18.4023</ele>
        <time>2014-07-12T10:50:10Z</time>
      </trkpt>
      <trkpt lat="59.9498146" lon="17.8805264">
        <ele>18.4023</ele>
        <time>2014-07-12T10:50:11Z</time>
      </trkpt>
      <trkpt lat="59.9498856" lon="17.8804757">
        <ele>18.4023</ele>
        <time>2014-07-12T10:50:12Z</time>
      </trkpt>
      <trkpt lat="59.9499517" lon="17.8804082">
        <ele>18.4023</ele>
        <time>2014-07-12T10:50:13Z</time>
      </trkpt>
      <trkpt lat="59.950014" lon="17.8803295">
        <ele>18.8831</ele>
        <time>2014-07-12T10:50:14Z</time>
      </trkpt>
      <trkpt lat="59.9500729" lon="17.8802449">
        <ele>18.8831</ele>
        <time>2014-07-12T10:50:15Z</time>
      </trkpt>
      <trkpt lat="59.9501253" lon="17.8801541">
        <ele>18.8831</ele>
        <time>2014-07-12T10:50:16Z</time>
      </trkpt>
      <trkpt lat="59.9501705" lon="17.880056">
        <ele>19.3638</ele>
        <time>2014-07-12T10:50:17Z</time>
      </trkpt>
      <trkpt lat="59.9502118" lon="17.8799583">
        <ele>19.3638</ele>
        <time>2014-07-12T10:50:18Z</time>
      </trkpt>
      <trkpt lat="59.9502501" lon="17.879862">
        <ele>19.3638</ele>
        <time>2014-07-12T10:50:19Z</time>
      </trkpt>
      <trkpt lat="59.9502859" lon="17.8797664">
        <ele>19.3638</ele>
        <time>2014-07-12T10:50:20Z</time>
      </trkpt>
      <trkpt lat="59.9503207" lon="17.8796714">
        <ele>19.3638</ele>
        <time>2014-07-12T10:50:21Z</time>
      </trkpt>
      <trkpt lat="59.9503541" lon="17.8795755">
        <ele>19.3638</ele>
        <time>2014-07-12T10:50:22Z</time>
      </trkpt>
      <trkpt lat="59.9503866" lon="17.8794781">
        <ele>18.8831</ele>
        <time>2014-07-12T10:50:23Z</time>
      </trkpt>
      <trkpt lat="59.9504195" lon="17.87938">
        <ele>18.8831</ele>
        <time>2014-07-12T10:50:24Z</time>
      </trkpt>
      <trkpt lat="59.9504513" lon="17.879279">
        <ele>18.8831</ele>
        <time>2014-07-12T10:50:25Z</time>
      </trkpt>
      <trkpt lat="59.9504831" lon="17.8791769">
        <ele>18.8831</ele>
        <time>2014-07-12T10:50:26Z</time>
      </trkpt>
      <trkpt lat="59.9505152" lon="17.8790751">
        <ele>18.4023</ele>
        <time>2014-07-12T10:50:27Z</time>
      </trkpt>
      <trkpt lat="59.9505481" lon="17.8789746">
        <ele>18.4023</ele>
        <time>2014-07-12T10:50:28Z</time>
      </trkpt>
      <trkpt lat="59.9505836" lon="17.8788786">
        <ele>18.4023</ele>
        <time>2014-07-12T10:50:29Z</time>
      </trkpt>
      <trkpt lat="59.9506226" lon="17.8787889">
        <ele>18.4023</ele>
        <time>2014-07-12T10:50:30Z</time>
      </trkpt>
      <trkpt lat="59.9506639" lon="17.8787035">
        <ele>18.4023</ele>
        <time>2014-07-12T10:50:31Z</time>
      </trkpt>
      <trkpt lat="59.9507056" lon="17.8786201">
        <ele>18.4023</ele>
        <time>2014-07-12T10:50:32Z</time>
      </trkpt>
      <trkpt lat="59.9507476" lon="17.878539">
        <ele>18.4023</ele>
        <time>2014-07-12T10:50:33Z</time>
      </trkpt>
      <trkpt lat="59.9507904" lon="17.8784615">
        <ele>18.4023</ele>
        <time>2014-07-12T10:50:34Z</time>
      </trkpt>
      <trkpt lat="59.950833" lon="17.8783876">
        <ele>18.4023</ele>
        <time>2014-07-12T10:50:35Z</time>
      </trkpt>
      <trkpt lat="59.9508773" lon="17.8783203">
        <ele>18.4023</ele>
        <time>2014-07-12T10:50:36Z</time>
      </trkpt>
      <trkpt lat="59.9509241" lon="17.878264">
        <ele>18.4023</ele>
        <time>2014-07-12T10:50:37Z</time>
      </trkpt>
      <trkpt lat="59.9509716" lon="17.8782141">
        <ele>18.4023</ele>
        <time>2014-07-12T10:50:38Z</time>
      </trkpt>
      <trkpt lat="59.95102" lon="17.8781715">
        <ele>18.4023</ele>
        <time>2014-07-12T10:50:39Z</time>
      </trkpt>
      <trkpt lat="59.9510702" lon="17.8781385">
        <ele>17.9218</ele>
        <time>2014-07-12T10:50:40Z</time>
      </trkpt>
      <trkpt lat="59.9511215" lon="17.8781069">
        <ele>17.9218</ele>
        <time>2014-07-12T10:50:41Z</time>
      </trkpt>
      <trkpt lat="59.9511731" lon="17.8780731">
        <ele>17.9218</ele>
        <time>2014-07-12T10:50:42Z</time>
      </trkpt>
      <trkpt lat="59.9512215" lon="17.878037">
        <ele>17.9218</ele>
        <time>2014-07-12T10:50:43Z</time>
      </trkpt>
      <trkpt lat="59.951264" lon="17.8779944">
        <ele>17.9218</ele>
        <time>2014-07-12T10:50:44Z</time>
      </trkpt>
      <trkpt lat="59.9513013" lon="17.8779399">
        <ele>17.9218</ele>
        <time>2014-07-12T10:50:45Z</time>
      </trkpt>
      <trkpt lat="59.951335" lon="17.8778708">
        <ele>17.9218</ele>
        <time>2014-07-12T10:50:46Z</time>
      </trkpt>
      <trkpt lat="59.9513637" lon="17.8777851">
        <ele>18.4023</ele>
        <time>2014-07-12T10:50:47Z</time>
      </trkpt>
      <trkpt lat="59.9513856" lon="17.8776859">
        <ele>18.4023</ele>
        <time>2014-07-12T10:50:48Z</time>
      </trkpt>
      <trkpt lat="59.9513992" lon="17.8775765">
        <ele>18.4023</ele>
        <time>2014-07-12T10:50:49Z</time>
      </trkpt>
      <trkpt lat="59.9514067" lon="17.877459">
        <ele>18.4023</ele>
        <time>2014-07-12T10:50:50Z</time>
      </trkpt>
      <trkpt lat="59.9514095" lon="17.8773367">
        <ele>18.4023</ele>
        <time>2014-07-12T10:50:51Z</time>
      </trkpt>
      <trkpt lat="59.951409" lon="17.8772154">
        <ele>18.4023</ele>
        <time>2014-07-12T10:50:52Z</time>
      </trkpt>
      <trkpt lat="59.9514078" lon="17.8770946">
        <ele>18.4023</ele>
        <time>2014-07-12T10:50:53Z</time>
      </trkpt>
      <trkpt lat="59.9514065" lon="17.8769735">
        <ele>18.4023</ele>
        <time>2014-07-12T10:50:54Z</time>
      </trkpt>
      <trkpt lat="59.9514065" lon="17.8768487">
        <ele>18.4023</ele>
        <time>2014-07-12T10:50:55Z</time>
      </trkpt>
      <trkpt lat="59.9514059" lon="17.8767206">
        <ele>18.4023</ele>
        <time>2014-07-12T10:50:56Z</time>
      </trkpt>
      <trkpt lat="59.9514031" lon="17.8765884">
        <ele>18.4023</ele>
        <time>2014-07-12T10:50:57Z</time>
      </trkpt>
      <trkpt lat="59.9513992" lon="17.8764529">
        <ele>18.4023</ele>
        <time>2014-07-12T10:50:58Z</time>
      </trkpt>
      <trkpt lat="59.9513976" lon="17.8763155">
        <ele>18.4023</ele>
        <time>2014-07-12T10:50:59Z</time>
      </trkpt>
      <trkpt lat="59.9513996" lon="17.8761753">
        <ele>18.4023</ele>
        <time>2014-07-12T10:51:00Z</time>
      </trkpt>
      <trkpt lat="59.9514032" lon="17.8760326">
        <ele>18.4023</ele>
        <time>2014-07-12T10:51:01Z</time>
      </trkpt>
      <trkpt lat="59.9514075" lon="17.8758867">
        <ele>18.4023</ele>
        <time>2014-07-12T10:51:02Z</time>
      </trkpt>
      <trkpt lat="59.951413" lon="17.8757396">
        <ele>18.4023</ele>
        <time>2014-07-12T10:51:03Z</time>
      </trkpt>
      <trkpt lat="59.9514185" lon="17.8755925">
        <ele>18.8831</ele>
        <time>2014-07-12T10:51:04Z</time>
      </trkpt>
      <trkpt lat="59.9514244" lon="17.8754439">
        <ele>18.8831</ele>
        <time>2014-07-12T10:51:05Z</time>
      </trkpt>
      <trkpt lat="59.9514313" lon="17.8752936">
        <ele>18.8831</ele>
        <time>2014-07-12T10:51:06Z</time>
      </trkpt>
      <trkpt lat="59.9514391" lon="17.8751443">
        <ele>18.8831</ele>
        <time>2014-07-12T10:51:07Z</time>
      </trkpt>
      <trkpt lat="59.9514483" lon="17.8749967">
        <ele>18.8831</ele>
        <time>2014-07-12T10:51:08Z</time>
      </trkpt>
      <trkpt lat="59.9514581" lon="17.874848">
        <ele>18.4023</ele>
        <time>2014-07-12T10:51:09Z</time>
      </trkpt>
      <trkpt lat="59.9514679" lon="17.8746973">
        <ele>18.8831</ele>
        <time>2014-07-12T10:51:10Z</time>
      </trkpt>
      <trkpt lat="59.951478" lon="17.8745454">
        <ele>18.8831</ele>
        <time>2014-07-12T10:51:11Z</time>
      </trkpt>
      <trkpt lat="59.9514894" lon="17.8743919">
        <ele>18.8831</ele>
        <time>2014-07-12T10:51:12Z</time>
      </trkpt>
      <trkpt lat="59.9515028" lon="17.8742372">
        <ele>18.4023</ele>
        <time>2014-07-12T10:51:13Z</time>
      </trkpt>
      <trkpt lat="59.9515162" lon="17.8740626">
        <ele>18.4023</ele>
        <time>2014-07-12T10:51:14Z</time>
      </trkpt>
      <trkpt lat="59.9515319" lon="17.873894">
        <ele>18.4023</ele>
        <time>2014-07-12T10:51:15Z</time>
      </trkpt>
      <trkpt lat="59.9515471" lon="17.8737235">
        <ele>18.4023</ele>
        <time>2014-07-12T10:51:16Z</time>
      </trkpt>
      <trkpt lat="59.9515624" lon="17.8735501">
        <ele>18.4023</ele>
        <time>2014-07-12T10:51:17Z</time>
      </trkpt>
      <trkpt lat="59.9515801" lon="17.8733776">
        <ele>18.4023</ele>
        <time>2014-07-12T10:51:18Z</time>
      </trkpt>
      <trkpt lat="59.9515965" lon="17.8732045">
        <ele>18.4023</ele>
        <time>2014-07-12T10:51:19Z</time>
      </trkpt>
      <trkpt lat="59.9516115" lon="17.873035">
        <ele>18.4023</ele>
        <time>2014-07-12T10:51:20Z</time>
      </trkpt>
      <trkpt lat="59.9516256" lon="17.8728661">
        <ele>18.4023</ele>
        <time>2014-07-12T10:51:21Z</time>
      </trkpt>
      <trkpt lat="59.9516379" lon="17.8726977">
        <ele>17.9218</ele>
        <time>2014-07-12T10:51:22Z</time>
      </trkpt>
      <trkpt lat="59.9516492" lon="17.8725295">
        <ele>17.9218</ele>
        <time>2014-07-12T10:51:23Z</time>
      </trkpt>
      <trkpt lat="59.951659" lon="17.8723618">
        <ele>17.9218</ele>
        <time>2014-07-12T10:51:24Z</time>
      </trkpt>
      <trkpt lat="59.9516665" lon="17.8721955">
        <ele>18.4023</ele>
        <time>2014-07-12T10:51:25Z</time>
      </trkpt>
      <trkpt lat="59.951672" lon="17.8720292">
        <ele>18.4023</ele>
        <time>2014-07-12T10:51:26Z</time>
      </trkpt>
      <trkpt lat="59.9516744" lon="17.8718597">
        <ele>18.4023</ele>
        <time>2014-07-12T10:51:27Z</time>
      </trkpt>
      <trkpt lat="59.9516744" lon="17.8716856">
        <ele>18.4023</ele>
        <time>2014-07-12T10:51:28Z</time>
      </trkpt>
      <trkpt lat="59.9516732" lon="17.8715068">
        <ele>18.4023</ele>
        <time>2014-07-12T10:51:29Z</time>
      </trkpt>
      <trkpt lat="59.9516722" lon="17.8713258">
        <ele>18.4023</ele>
        <time>2014-07-12T10:51:30Z</time>
      </trkpt>
      <trkpt lat="59.9516766" lon="17.8711473">
        <ele>18.4023</ele>
        <time>2014-07-12T10:51:31Z</time>
      </trkpt>
      <trkpt lat="59.9516949" lon="17.8709759">
        <ele>18.8831</ele>
        <time>2014-07-12T10:51:32Z</time>
      </trkpt>
      <trkpt lat="59.9517344" lon="17.8708245">
        <ele>18.8831</ele>
        <time>2014-07-12T10:51:33Z</time>
      </trkpt>
      <trkpt lat="59.9518089" lon="17.87073">
        <ele>18.8831</ele>
        <time>2014-07-12T10:51:34Z</time>
      </trkpt>
      <trkpt lat="59.9518875" lon="17.8706666">
        <ele>19.3638</ele>
        <time>2014-07-12T10:51:35Z</time>
      </trkpt>
      <trkpt lat="59.9519675" lon="17.8706289">
        <ele>19.3638</ele>
        <time>2014-07-12T10:51:36Z</time>
      </trkpt>
      <trkpt lat="59.9520451" lon="17.8705807">
        <ele>19.3638</ele>
        <time>2014-07-12T10:51:37Z</time>
      </trkpt>
      <trkpt lat="59.9521143" lon="17.8704982">
        <ele>19.8444</ele>
        <time>2014-07-12T10:51:38Z</time>
      </trkpt>
      <trkpt lat="59.9521739" lon="17.8703865">
        <ele>19.8444</ele>
        <time>2014-07-12T10:51:39Z</time>
      </trkpt>
      <trkpt lat="59.9522248" lon="17.870256">
        <ele>19.8444</ele>
        <time>2014-07-12T10:51:40Z</time>
      </trkpt>
      <trkpt lat="59.9522673" lon="17.8701135">
        <ele>19.8444</ele>
        <time>2014-07-12T10:51:41Z</time>
      </trkpt>
      <trkpt lat="59.9523034" lon="17.8699642">
        <ele>19.8444</ele>
        <time>2014-07-12T10:51:42Z</time>
      </trkpt>
      <trkpt lat="59.9523331" lon="17.8698105">
        <ele>19.8444</ele>
        <time>2014-07-12T10:51:43Z</time>
      </trkpt>
      <trkpt lat="59.9523554" lon="17.8696524">
        <ele>19.8444</ele>
        <time>2014-07-12T10:51:44Z</time>
      </trkpt>
      <trkpt lat="59.9523682" lon="17.8694913">
        <ele>19.8444</ele>
        <time>2014-07-12T10:51:45Z</time>
      </trkpt>
      <trkpt lat="59.9523706" lon="17.8693309">
        <ele>20.325</ele>
        <time>2014-07-12T10:51:46Z</time>
      </trkpt>
      <trkpt lat="59.9523638" lon="17.8691759">
        <ele>20.325</ele>
        <time>2014-07-12T10:51:47Z</time>
      </trkpt>
      <trkpt lat="59.9523495" lon="17.8690257">
        <ele>20.325</ele>
        <time>2014-07-12T10:51:48Z</time>
      </trkpt>
      <trkpt lat="59.952329" lon="17.8688825">
        <ele>20.325</ele>
        <time>2014-07-12T10:51:49Z</time>
      </trkpt>
      <trkpt lat="59.9523055" lon="17.8687428">
        <ele>20.8057</ele>
        <time>2014-07-12T10:51:50Z</time>
      </trkpt>
      <trkpt lat="59.9522808" lon="17.8686045">
        <ele>20.8057</ele>
        <time>2014-07-12T10:51:51Z</time>
      </trkpt>
      <trkpt lat="59.9522565" lon="17.8684668">
        <ele>20.8057</ele>
        <time>2014-07-12T10:51:52Z</time>
      </trkpt>
      <trkpt lat="59.9522347" lon="17.8683283">
        <ele>21.2864</ele>
        <time>2014-07-12T10:51:53Z</time>
      </trkpt>
      <trkpt lat="59.9522171" lon="17.8681879">
        <ele>21.2864</ele>
        <time>2014-07-12T10:51:54Z</time>
      </trkpt>
      <trkpt lat="59.9522035" lon="17.8680459">
        <ele>21.2864</ele>
        <time>2014-07-12T10:51:55Z</time>
      </trkpt>
      <trkpt lat="59.9521939" lon="17.8679026">
        <ele>21.767</ele>
        <time>2014-07-12T10:51:56Z</time>
      </trkpt>
      <trkpt lat="59.9521892" lon="17.8677585">
        <ele>21.767</ele>
        <time>2014-07-12T10:51:57Z</time>
      </trkpt>
      <trkpt lat="59.9521889" lon="17.8676147">
        <ele>22.2476</ele>
        <time>2014-07-12T10:51:58Z</time>
      </trkpt>
      <trkpt lat="59.9521933" lon="17.867471">
        <ele>22.2476</ele>
        <time>2014-07-12T10:51:59Z</time>
      </trkpt>
      <trkpt lat="59.9522014" lon="17.8673269">
        <ele>22.7283</ele>
        <time>2014-07-12T10:52:00Z</time>
      </trkpt>
      <trkpt lat="59.9522114" lon="17.8671824">
        <ele>22.7283</ele>
        <time>2014-07-12T10:52:01Z</time>
      </trkpt>
      <trkpt lat="59.9522229" lon="17.8670382">
        <ele>22.7283</ele>
        <time>2014-07-12T10:52:02Z</time>
      </trkpt>
      <trkpt lat="59.9522369" lon="17.8668946">
        <ele>23.209</ele>
        <time>2014-07-12T10:52:03Z</time>
      </trkpt>
      <trkpt lat="59.9522518" lon="17.8667509">
        <ele>23.209</ele>
        <time>2014-07-12T10:52:04Z</time>
      </trkpt>
      <trkpt lat="59.9522661" lon="17.8666065">
        <ele>23.209</ele>
        <time>2014-07-12T10:52:05Z</time>
      </trkpt>
      <trkpt lat="59.9522808" lon="17.866462">
        <ele>23.209</ele>
        <time>2014-07-12T10:52:06Z</time>
      </trkpt>
      <trkpt lat="59.9522962" lon="17.8663178">
        <ele>23.6896</ele>
        <time>2014-07-12T10:52:07Z</time>
      </trkpt>
      <trkpt lat="59.9523114" lon="17.866173">
        <ele>23.6896</ele>
        <time>2014-07-12T10:52:08Z</time>
      </trkpt>
      <trkpt lat="59.9523259" lon="17.8660259">
        <ele>23.6896</ele>
        <time>2014-07-12T10:52:09Z</time>
      </trkpt>
      <trkpt lat="59.9523407" lon="17.8658752">
        <ele>23.6896</ele>
        <time>2014-07-12T10:52:10Z</time>
      </trkpt>
      <trkpt lat="59.9523558" lon="17.8657209">
        <ele>23.6896</ele>
        <time>2014-07-12T10:52:11Z</time>
      </trkpt>
      <trkpt lat="59.9523713" lon="17.8655652">
        <ele>23.6896</ele>
        <time>2014-07-12T10:52:12Z</time>
      </trkpt>
      <trkpt lat="59.9523868" lon="17.8654108">
        <ele>23.6896</ele>
        <time>2014-07-12T10:52:13Z</time>
      </trkpt>
      <trkpt lat="59.9524021" lon="17.8652578">
        <ele>23.6896</ele>
        <time>2014-07-12T10:52:14Z</time>
      </trkpt>
      <trkpt lat="59.9524176" lon="17.8651053">
        <ele>24.1703</ele>
        <time>2014-07-12T10:52:15Z</time>
      </trkpt>
      <trkpt lat="59.9524331" lon="17.8649524">
        <ele>23.6896</ele>
        <time>2014-07-12T10:52:16Z</time>
      </trkpt>
      <trkpt lat="59.9524487" lon="17.8647977">
        <ele>23.6896</ele>
        <time>2014-07-12T10:52:17Z</time>
      </trkpt>
      <trkpt lat="59.9524646" lon="17.8646417">
        <ele>23.6896</ele>
        <time>2014-07-12T10:52:18Z</time>
      </trkpt>
      <trkpt lat="59.9524808" lon="17.8644833">
        <ele>23.6896</ele>
        <time>2014-07-12T10:52:19Z</time>
      </trkpt>
      <trkpt lat="59.952497" lon="17.8643217">
        <ele>23.209</ele>
        <time>2014-07-12T10:52:20Z</time>
      </trkpt>
      <trkpt lat="59.952514" lon="17.864158">
        <ele>23.209</ele>
        <time>2014-07-12T10:52:21Z</time>
      </trkpt>
      <trkpt lat="59.952532" lon="17.8639931">
        <ele>23.209</ele>
        <time>2014-07-12T10:52:22Z</time>
      </trkpt>
      <trkpt lat="59.9525497" lon="17.8638262">
        <ele>22.7283</ele>
        <time>2014-07-12T10:52:23Z</time>
      </trkpt>
      <trkpt lat="59.9525663" lon="17.8636573">
        <ele>22.7283</ele>
        <time>2014-07-12T10:52:24Z</time>
      </trkpt>
      <trkpt lat="59.9525827" lon="17.8634869">
        <ele>22.7283</ele>
        <time>2014-07-12T10:52:25Z</time>
      </trkpt>
      <trkpt lat="59.9525995" lon="17.8633146">
        <ele>22.7283</ele>
        <time>2014-07-12T10:52:26Z</time>
      </trkpt>
      <trkpt lat="59.952617" lon="17.86314">
        <ele>22.7283</ele>
        <time>2014-07-12T10:52:27Z</time>
      </trkpt>
      <trkpt lat="59.9526347" lon="17.8629624">
        <ele>22.2476</ele>
        <time>2014-07-12T10:52:28Z</time>
      </trkpt>
      <trkpt lat="59.9526527" lon="17.8627826">
        <ele>22.2476</ele>
        <time>2014-07-12T10:52:29Z</time>
      </trkpt>
      <trkpt lat="59.95267" lon="17.8626035">
        <ele>22.2476</ele>
        <time>2014-07-12T10:52:30Z</time>
      </trkpt>
      <trkpt lat="59.9526869" lon="17.8624267">
        <ele>22.2476</ele>
        <time>2014-07-12T10:52:31Z</time>
      </trkpt>
      <trkpt lat="59.9527044" lon="17.8622523">
        <ele>22.2476</ele>
        <time>2014-07-12T10:52:32Z</time>
      </trkpt>
      <trkpt lat="59.9527231" lon="17.8620776">
        <ele>22.2476</ele>
        <time>2014-07-12T10:52:33Z</time>
      </trkpt>
      <trkpt lat="59.9527408" lon="17.8619013">
        <ele>22.2476</ele>
        <time>2014-07-12T10:52:34Z</time>
      </trkpt>
      <trkpt lat="59.9527579" lon="17.8617248">
        <ele>22.2476</ele>
        <time>2014-07-12T10:52:35Z</time>
      </trkpt>
      <trkpt lat="59.952775" lon="17.8615492">
        <ele>22.2476</ele>
        <time>2014-07-12T10:52:36Z</time>
      </trkpt>
      <trkpt lat="59.9527927" lon="17.8613739">
        <ele>22.2476</ele>
        <time>2014-07-12T10:52:37Z</time>
      </trkpt>
      <trkpt lat="59.9528102" lon="17.8611995">
        <ele>22.7283</ele>
        <time>2014-07-12T10:52:38Z</time>
      </trkpt>
      <trkpt lat="59.9528268" lon="17.8610255">
        <ele>22.7283</ele>
        <time>2014-07-12T10:52:39Z</time>
      </trkpt>
      <trkpt lat="59.952843" lon="17.860851">
        <ele>22.7283</ele>
        <time>2014-07-12T10:52:40Z</time>
      </trkpt>
      <trkpt lat="59.9528606" lon="17.8606757">
        <ele>22.7283</ele>
        <time>2014-07-12T10:52:41Z</time>
      </trkpt>
      <trkpt lat="59.9528795" lon="17.860499">
        <ele>22.7283</ele>
        <time>2014-07-12T10:52:42Z</time>
      </trkpt>
      <trkpt lat="59.9528979" lon="17.860321">
        <ele>22.7283</ele>
        <time>2014-07-12T10:52:43Z</time>
      </trkpt>
      <trkpt lat="59.9529157" lon="17.8601418">
        <ele>22.7283</ele>
        <time>2014-07-12T10:52:44Z</time>
      </trkpt>
      <trkpt lat="59.9529334" lon="17.8599615">
        <ele>22.7283</ele>
        <time>2014-07-12T10:52:45Z</time>
      </trkpt>
      <trkpt lat="59.9529512" lon="17.85978">
        <ele>22.7283</ele>
        <time>2014-07-12T10:52:46Z</time>
      </trkpt>
      <trkpt lat="59.9529693" lon="17.8595962">
        <ele>22.7283</ele>
        <time>2014-07-12T10:52:47Z</time>
      </trkpt>
      <trkpt lat="59.9529878" lon="17.8594104">
        <ele>22.7283</ele>
        <time>2014-07-12T10:52:48Z</time>
      </trkpt>
      <trkpt lat="59.9530064" lon="17.8592235">
        <ele>22.7283</ele>
        <time>2014-07-12T10:52:49Z</time>
      </trkpt>
      <trkpt lat="59.9530256" lon="17.8590363">
        <ele>22.7283</ele>
        <time>2014-07-12T10:52:50Z</time>
      </trkpt>
      <trkpt lat="59.9530444" lon="17.8588484">
        <ele>22.7283</ele>
        <time>2014-07-12T10:52:51Z</time>
      </trkpt>
      <trkpt lat="59.9530625" lon="17.8586603">
        <ele>22.7283</ele>
        <time>2014-07-12T10:52:52Z</time>
      </trkpt>
      <trkpt lat="59.9530811" lon="17.8584723">
        <ele>22.7283</ele>
        <time>2014-07-12T10:52:53Z</time>
      </trkpt>
      <trkpt lat="59.9530998" lon="17.8582841">
        <ele>22.7283</ele>
        <time>2014-07-12T10:52:54Z</time>
      </trkpt>
      <trkpt lat="59.9531186" lon="17.8580965">
        <ele>23.209</ele>
        <time>2014-07-12T10:52:55Z</time>
      </trkpt>
      <trkpt lat="59.9531367" lon="17.8579103">
        <ele>23.209</ele>
        <time>2014-07-12T10:52:56Z</time>
      </trkpt>
      <trkpt lat="59.9531547" lon="17.8577262">
        <ele>23.209</ele>
        <time>2014-07-12T10:52:57Z</time>
      </trkpt>
      <trkpt lat="59.9531733" lon="17.8575435">
        <ele>23.209</ele>
        <time>2014-07-12T10:52:58Z</time>
      </trkpt>
      <trkpt lat="59.9531913" lon="17.8573616">
        <ele>23.6896</ele>
        <time>2014-07-12T10:52:59Z</time>
      </trkpt>
      <trkpt lat="59.9532081" lon="17.8571803">
        <ele>23.6896</ele>
        <time>2014-07-12T10:53:00Z</time>
      </trkpt>
      <trkpt lat="59.9532256" lon="17.8570001">
        <ele>23.6896</ele>
        <time>2014-07-12T10:53:01Z</time>
      </trkpt>
      <trkpt lat="59.9532443" lon="17.8568228">
        <ele>23.6896</ele>
        <time>2014-07-12T10:53:02Z</time>
      </trkpt>
      <trkpt lat="59.953263" lon="17.8566471">
        <ele>23.6896</ele>
        <time>2014-07-12T10:53:03Z</time>
      </trkpt>
      <trkpt lat="59.9532815" lon="17.8564725">
        <ele>23.6896</ele>
        <time>2014-07-12T10:53:04Z</time>
      </trkpt>
      <trkpt lat="59.9532994" lon="17.856298">
        <ele>23.6896</ele>
        <time>2014-07-12T10:53:05Z</time>
      </trkpt>
      <trkpt lat="59.9533166" lon="17.8561221">
        <ele>23.6896</ele>
        <time>2014-07-12T10:53:06Z</time>
      </trkpt>
      <trkpt lat="59.953334" lon="17.8559454">
        <ele>23.6896</ele>
        <time>2014-07-12T10:53:07Z</time>
      </trkpt>
      <trkpt lat="59.9533519" lon="17.8557667">
        <ele>23.6896</ele>
        <time>2014-07-12T10:53:08Z</time>
      </trkpt>
      <trkpt lat="59.9533697" lon="17.8555859">
        <ele>23.6896</ele>
        <time>2014-07-12T10:53:09Z</time>
      </trkpt>
      <trkpt lat="59.9533878" lon="17.855404">
        <ele>23.6896</ele>
        <time>2014-07-12T10:53:10Z</time>
      </trkpt>
      <trkpt lat="59.9534058" lon="17.8552211">
        <ele>24.1703</ele>
        <time>2014-07-12T10:53:11Z</time>
      </trkpt>
      <trkpt lat="59.9534235" lon="17.8550379">
        <ele>24.1703</ele>
        <time>2014-07-12T10:53:12Z</time>
      </trkpt>
      <trkpt lat="59.9534416" lon="17.854855">
        <ele>24.1703</ele>
        <time>2014-07-12T10:53:13Z</time>
      </trkpt>
      <trkpt lat="59.9534597" lon="17.8546728">
        <ele>24.1703</ele>
        <time>2014-07-12T10:53:14Z</time>
      </trkpt>
      <trkpt lat="59.9534777" lon="17.8544907">
        <ele>24.1703</ele>
        <time>2014-07-12T10:53:15Z</time>
      </trkpt>
      <trkpt lat="59.953496" lon="17.8543091">
        <ele>24.1703</ele>
        <time>2014-07-12T10:53:16Z</time>
      </trkpt>
      <trkpt lat="59.9535137" lon="17.8541277">
        <ele>24.1703</ele>
        <time>2014-07-12T10:53:17Z</time>
      </trkpt>
      <trkpt lat="59.9535316" lon="17.8539464">
        <ele>24.1703</ele>
        <time>2014-07-12T10:53:18Z</time>
      </trkpt>
      <trkpt lat="59.9535498" lon="17.8537655">
        <ele>24.1703</ele>
        <time>2014-07-12T10:53:19Z</time>
      </trkpt>
      <trkpt lat="59.9535676" lon="17.8535854">
        <ele>24.651</ele>
        <time>2014-07-12T10:53:20Z</time>
      </trkpt>
      <trkpt lat="59.9535853" lon="17.8534067">
        <ele>24.651</ele>
        <time>2014-07-12T10:53:21Z</time>
      </trkpt>
      <trkpt lat="59.9536033" lon="17.853229">
        <ele>24.651</ele>
        <time>2014-07-12T10:53:22Z</time>
      </trkpt>
      <trkpt lat="59.9536215" lon="17.8530514">
        <ele>25.1317</ele>
        <time>2014-07-12T10:53:23Z</time>
      </trkpt>
      <trkpt lat="59.9536397" lon="17.8528745">
        <ele>25.1317</ele>
        <time>2014-07-12T10:53:24Z</time>
      </trkpt>
      <trkpt lat="59.9536568" lon="17.8526984">
        <ele>25.1317</ele>
        <time>2014-07-12T10:53:25Z</time>
      </trkpt>
      <trkpt lat="59.9536736" lon="17.8525253">
        <ele>25.6123</ele>
        <time>2014-07-12T10:53:26Z</time>
      </trkpt>
      <trkpt lat="59.9536907" lon="17.8523535">
        <ele>25.6123</ele>
        <time>2014-07-12T10:53:27Z</time>
      </trkpt>
      <trkpt lat="59.9537075" lon="17.8521824">
        <ele>25.6123</ele>
        <time>2014-07-12T10:53:28Z</time>
      </trkpt>
      <trkpt lat="59.9537239" lon="17.852012">
        <ele>25.6123</ele>
        <time>2014-07-12T10:53:29Z</time>
      </trkpt>
      <trkpt lat="59.9537404" lon="17.8518415">
        <ele>25.6123</ele>
        <time>2014-07-12T10:53:30Z</time>
      </trkpt>
      <trkpt lat="59.9537577" lon="17.8516708">
        <ele>25.6123</ele>
        <time>2014-07-12T10:53:31Z</time>
      </trkpt>
      <trkpt lat="59.9537752" lon="17.8514974">
        <ele>25.1317</ele>
        <time>2014-07-12T10:53:32Z</time>
      </trkpt>
      <trkpt lat="59.9537919" lon="17.8513207">
        <ele>25.1317</ele>
        <time>2014-07-12T10:53:33Z</time>
      </trkpt>
      <trkpt lat="59.9538095" lon="17.8511424">
        <ele>25.1317</ele>
        <time>2014-07-12T10:53:34Z</time>
      </trkpt>
      <trkpt lat="59.953828" lon="17.8509632">
        <ele>24.651</ele>
        <time>2014-07-12T10:53:35Z</time>
      </trkpt>
      <trkpt lat="59.9538463" lon="17.8507818">
        <ele>24.651</ele>
        <time>2014-07-12T10:53:36Z</time>
      </trkpt>
      <trkpt lat="59.9538649" lon="17.850598">
        <ele>24.1703</ele>
        <time>2014-07-12T10:53:37Z</time>
      </trkpt>
      <trkpt lat="59.9538837" lon="17.8504113">
        <ele>24.1703</ele>
        <time>2014-07-12T10:53:38Z</time>
      </trkpt>
      <trkpt lat="59.953903" lon="17.8502219">
        <ele>24.1703</ele>
        <time>2014-07-12T10:53:39Z</time>
      </trkpt>
      <trkpt lat="59.9539214" lon="17.8500326">
        <ele>23.6896</ele>
        <time>2014-07-12T10:53:40Z</time>
      </trkpt>
      <trkpt lat="59.9539386" lon="17.8498448">
        <ele>23.6896</ele>
        <time>2014-07-12T10:53:41Z</time>
      </trkpt>
      <trkpt lat="59.9539556" lon="17.8496597">
        <ele>23.6896</ele>
        <time>2014-07-12T10:53:42Z</time>
      </trkpt>
      <trkpt lat="59.9539727" lon="17.8494768">
        <ele>23.209</ele>
        <time>2014-07-12T10:53:43Z</time>
      </trkpt>
      <trkpt lat="59.9539891" lon="17.8492942">
        <ele>23.209</ele>
        <time>2014-07-12T10:53:44Z</time>
      </trkpt>
      <trkpt lat="59.9540044" lon="17.8491118">
        <ele>23.209</ele>
        <time>2014-07-12T10:53:45Z</time>
      </trkpt>
      <trkpt lat="59.9540197" lon="17.8489285">
        <ele>22.7283</ele>
        <time>2014-07-12T10:53:46Z</time>
      </trkpt>
      <trkpt lat="59.9540337" lon="17.8487413">
        <ele>22.7283</ele>
        <time>2014-07-12T10:53:47Z</time>
      </trkpt>
      <trkpt lat="59.9540467" lon="17.8485507">
        <ele>22.7283</ele>
        <time>2014-07-12T10:53:48Z</time>
      </trkpt>
      <trkpt lat="59.9540595" lon="17.8483576">
        <ele>22.7283</ele>
        <time>2014-07-12T10:53:49Z</time>
      </trkpt>
      <trkpt lat="59.9540714" lon="17.8481639">
        <ele>22.7283</ele>
        <time>2014-07-12T10:53:50Z</time>
      </trkpt>
      <trkpt lat="59.9540821" lon="17.8479712">
        <ele>22.7283</ele>
        <time>2014-07-12T10:53:51Z</time>
      </trkpt>
      <trkpt lat="59.9540917" lon="17.8477795">
        <ele>22.7283</ele>
        <time>2014-07-12T10:53:52Z</time>
      </trkpt>
      <trkpt lat="59.9540992" lon="17.8475882">
        <ele>22.7283</ele>
        <time>2014-07-12T10:53:53Z</time>
      </trkpt>
      <trkpt lat="59.9541053" lon="17.8473978">
        <ele>22.7283</ele>
        <time>2014-07-12T10:53:54Z</time>
      </trkpt>
      <trkpt lat="59.9541115" lon="17.8472087">
        <ele>22.7283</ele>
        <time>2014-07-12T10:53:55Z</time>
      </trkpt>
      <trkpt lat="59.9541172" lon="17.8470201">
        <ele>22.7283</ele>
        <time>2014-07-12T10:53:56Z</time>
      </trkpt>
      <trkpt lat="59.9541218" lon="17.8468305">
        <ele>22.7283</ele>
        <time>2014-07-12T10:53:57Z</time>
      </trkpt>
      <trkpt lat="59.9541258" lon="17.84664">
        <ele>22.7283</ele>
        <time>2014-07-12T10:53:58Z</time>
      </trkpt>
      <trkpt lat="59.9541286" lon="17.8464487">
        <ele>22.7283</ele>
        <time>2014-07-12T10:53:59Z</time>
      </trkpt>
      <trkpt lat="59.9541305" lon="17.846256">
        <ele>22.7283</ele>
        <time>2014-07-12T10:54:00Z</time>
      </trkpt>
      <trkpt lat="59.9541315" lon="17.8460619">
        <ele>22.7283</ele>
        <time>2014-07-12T10:54:01Z</time>
      </trkpt>
      <trkpt lat="59.9541317" lon="17.8458665">
        <ele>22.7283</ele>
        <time>2014-07-12T10:54:02Z</time>
      </trkpt>
      <trkpt lat="59.9541306" lon="17.8456702">
        <ele>22.7283</ele>
        <time>2014-07-12T10:54:03Z</time>
      </trkpt>
      <trkpt lat="59.9541285" lon="17.8454731">
        <ele>22.7283</ele>
        <time>2014-07-12T10:54:04Z</time>
      </trkpt>
      <trkpt lat="59.9541247" lon="17.8452753">
        <ele>22.7283</ele>
        <time>2014-07-12T10:54:05Z</time>
      </trkpt>
      <trkpt lat="59.9541193" lon="17.8450774">
        <ele>22.7283</ele>
        <time>2014-07-12T10:54:06Z</time>
      </trkpt>
      <trkpt lat="59.9541125" lon="17.8448792">
        <ele>22.7283</ele>
        <time>2014-07-12T10:54:07Z</time>
      </trkpt>
      <trkpt lat="59.9541047" lon="17.8446808">
        <ele>22.7283</ele>
        <time>2014-07-12T10:54:08Z</time>
      </trkpt>
      <trkpt lat="59.9540957" lon="17.8444829">
        <ele>22.7283</ele>
        <time>2014-07-12T10:54:09Z</time>
      </trkpt>
      <trkpt lat="59.9540852" lon="17.844286">
        <ele>22.7283</ele>
        <time>2014-07-12T10:54:10Z</time>
      </trkpt>
      <trkpt lat="59.9540738" lon="17.8440897">
        <ele>22.7283</ele>
        <time>2014-07-12T10:54:11Z</time>
      </trkpt>
      <trkpt lat="59.9540618" lon="17.8438939">
        <ele>22.7283</ele>
        <time>2014-07-12T10:54:12Z</time>
      </trkpt>
      <trkpt lat="59.9540489" lon="17.8436992">
        <ele>22.7283</ele>
        <time>2014-07-12T10:54:13Z</time>
      </trkpt>
      <trkpt lat="59.9540353" lon="17.8435057">
        <ele>22.7283</ele>
        <time>2014-07-12T10:54:14Z</time>
      </trkpt>
      <trkpt lat="59.9540213" lon="17.8433154">
        <ele>22.7283</ele>
        <time>2014-07-12T10:54:15Z</time>
      </trkpt>
      <trkpt lat="59.9540067" lon="17.843131">
        <ele>23.209</ele>
        <time>2014-07-12T10:54:16Z</time>
      </trkpt>
      <trkpt lat="59.9539918" lon="17.8429528">
        <ele>23.209</ele>
        <time>2014-07-12T10:54:17Z</time>
      </trkpt>
      <trkpt lat="59.9539768" lon="17.8427805">
        <ele>23.209</ele>
        <time>2014-07-12T10:54:18Z</time>
      </trkpt>
      <trkpt lat="59.953961" lon="17.8426135">
        <ele>23.209</ele>
        <time>2014-07-12T10:54:19Z</time>
      </trkpt>
      <trkpt lat="59.9539447" lon="17.8424523">
        <ele>23.6896</ele>
        <time>2014-07-12T10:54:20Z</time>
      </trkpt>
      <trkpt lat="59.9539287" lon="17.8422989">
        <ele>23.6896</ele>
        <time>2014-07-12T10:54:21Z</time>
      </trkpt>
      <trkpt lat="59.9539132" lon="17.8421472">
        <ele>23.6896</ele>
        <time>2014-07-12T10:54:22Z</time>
      </trkpt>
      <trkpt lat="59.9538966" lon="17.8419983">
        <ele>23.6896</ele>
        <time>2014-07-12T10:54:23Z</time>
      </trkpt>
      <trkpt lat="59.9538797" lon="17.8418553">
        <ele>23.6896</ele>
        <time>2014-07-12T10:54:24Z</time>
      </trkpt>
      <trkpt lat="59.9538634" lon="17.8417122">
        <ele>23.6896</ele>
        <time>2014-07-12T10:54:25Z</time>
      </trkpt>
      <trkpt lat="59.9538472" lon="17.8415675">
        <ele>24.1703</ele>
        <time>2014-07-12T10:54:26Z</time>
      </trkpt>
      <trkpt lat="59.9538297" lon="17.841422">
        <ele>24.1703</ele>
        <time>2014-07-12T10:54:27Z</time>
      </trkpt>
      <trkpt lat="59.9538111" lon="17.8412765">
        <ele>24.1703</ele>
        <time>2014-07-12T10:54:28Z</time>
      </trkpt>
      <trkpt lat="59.9537932" lon="17.8411307">
        <ele>24.1703</ele>
        <time>2014-07-12T10:54:29Z</time>
      </trkpt>
      <trkpt lat="59.9537744" lon="17.8409856">
        <ele>24.1703</ele>
        <time>2014-07-12T10:54:30Z</time>
      </trkpt>
      <trkpt lat="59.9537544" lon="17.8408413">
        <ele>24.1703</ele>
        <time>2014-07-12T10:54:31Z</time>
      </trkpt>
      <trkpt lat="59.9537333" lon="17.8406967">
        <ele>24.1703</ele>
        <time>2014-07-12T10:54:32Z</time>
      </trkpt>
      <trkpt lat="59.9537121" lon="17.8405517">
        <ele>24.651</ele>
        <time>2014-07-12T10:54:33Z</time>
      </trkpt>
      <trkpt lat="59.9536908" lon="17.8404065">
        <ele>24.651</ele>
        <time>2014-07-12T10:54:34Z</time>
      </trkpt>
      <trkpt lat="59.9536682" lon="17.8402621">
        <ele>24.651</ele>
        <time>2014-07-12T10:54:35Z</time>
      </trkpt>
      <trkpt lat="59.9536438" lon="17.8401192">
        <ele>24.651</ele>
        <time>2014-07-12T10:54:36Z</time>
      </trkpt>
      <trkpt lat="59.9536187" lon="17.8399765">
        <ele>24.651</ele>
        <time>2014-07-12T10:54:37Z</time>
      </trkpt>
      <trkpt lat="59.9535931" lon="17.839833">
        <ele>24.651</ele>
        <time>2014-07-12T10:54:38Z</time>
      </trkpt>
      <trkpt lat="59.9535671" lon="17.8396895">
        <ele>24.651</ele>
        <time>2014-07-12T10:54:39Z</time>
      </trkpt>
      <trkpt lat="59.9535401" lon="17.8395467">
        <ele>24.651</ele>
        <time>2014-07-12T10:54:40Z</time>
      </trkpt>
      <trkpt lat="59.9535125" lon="17.8394064">
        <ele>24.651</ele>
        <time>2014-07-12T10:54:41Z</time>
      </trkpt>
      <trkpt lat="59.9534837" lon="17.8392705">
        <ele>24.651</ele>
        <time>2014-07-12T10:54:42Z</time>
      </trkpt>
      <trkpt lat="59.9534525" lon="17.8391406">
        <ele>24.651</ele>
        <time>2014-07-12T10:54:43Z</time>
      </trkpt>
      <trkpt lat="59.9534188" lon="17.8390164">
        <ele>25.1317</ele>
        <time>2014-07-12T10:54:44Z</time>
      </trkpt>
      <trkpt lat="59.9533859" lon="17.8388939">
        <ele>25.1317</ele>
        <time>2014-07-12T10:54:45Z</time>
      </trkpt>
      <trkpt lat="59.9533592" lon="17.8387683">
        <ele>25.1317</ele>
        <time>2014-07-12T10:54:46Z</time>
      </trkpt>
      <trkpt lat="59.9533426" lon="17.8386387">
        <ele>25.1317</ele>
        <time>2014-07-12T10:54:47Z</time>
      </trkpt>
      <trkpt lat="59.9533408" lon="17.8385074">
        <ele>24.651</ele>
        <time>2014-07-12T10:54:48Z</time>
      </trkpt>
      <trkpt lat="59.9533584" lon="17.838381">
        <ele>24.651</ele>
        <time>2014-07-12T10:54:49Z</time>
      </trkpt>
      <trkpt lat="59.9533966" lon="17.8382725">
        <ele>24.651</ele>
        <time>2014-07-12T10:54:50Z</time>
      </trkpt>
      <trkpt lat="59.9534515" lon="17.8381917">
        <ele>24.651</ele>
        <time>2014-07-12T10:54:51Z</time>
      </trkpt>
      <trkpt lat="59.9535153" lon="17.8381316">
        <ele>24.1703</ele>
        <time>2014-07-12T10:54:52Z</time>
      </trkpt>
      <trkpt lat="59.9535825" lon="17.8380803">
        <ele>24.1703</ele>
        <time>2014-07-12T10:54:53Z</time>
      </trkpt>
      <trkpt lat="59.953651" lon="17.8380321">
        <ele>24.1703</ele>
        <time>2014-07-12T10:54:54Z</time>
      </trkpt>
      <trkpt lat="59.9537207" lon="17.837984">
        <ele>23.6896</ele>
        <time>2014-07-12T10:54:55Z</time>
      </trkpt>
      <trkpt lat="59.9537913" lon="17.8379358">
        <ele>23.6896</ele>
        <time>2014-07-12T10:54:56Z</time>
      </trkpt>
      <trkpt lat="59.9538622" lon="17.837886">
        <ele>23.6896</ele>
        <time>2014-07-12T10:54:57Z</time>
      </trkpt>
      <trkpt lat="59.9539326" lon="17.8378341">
        <ele>23.6896</ele>
        <time>2014-07-12T10:54:58Z</time>
      </trkpt>
      <trkpt lat="59.9540028" lon="17.8377824">
        <ele>23.6896</ele>
        <time>2014-07-12T10:54:59Z</time>
      </trkpt>
      <trkpt lat="59.9540733" lon="17.8377326">
        <ele>23.6896</ele>
        <time>2014-07-12T10:55:00Z</time>
      </trkpt>
      <trkpt lat="59.9541441" lon="17.8376845">
        <ele>23.6896</ele>
        <time>2014-07-12T10:55:01Z</time>
      </trkpt>
      <trkpt lat="59.9542145" lon="17.8376352">
        <ele>24.1703</ele>
        <time>2014-07-12T10:55:02Z</time>
      </trkpt>
      <trkpt lat="59.9542848" lon="17.8375835">
        <ele>24.1703</ele>
        <time>2014-07-12T10:55:03Z</time>
      </trkpt>
      <trkpt lat="59.9543555" lon="17.8375311">
        <ele>24.1703</ele>
        <time>2014-07-12T10:55:04Z</time>
      </trkpt>
      <trkpt lat="59.9544268" lon="17.8374783">
        <ele>24.1703</ele>
        <time>2014-07-12T10:55:05Z</time>
      </trkpt>
      <trkpt lat="59.9544984" lon="17.8374258">
        <ele>24.1703</ele>
        <time>2014-07-12T10:55:06Z</time>
      </trkpt>
      <trkpt lat="59.9545705" lon="17.8373748">
        <ele>24.1703</ele>
        <time>2014-07-12T10:55:07Z</time>
      </trkpt>
      <trkpt lat="59.9546431" lon="17.8373234">
        <ele>24.1703</ele>
        <time>2014-07-12T10:55:08Z</time>
      </trkpt>
      <trkpt lat="59.9547156" lon="17.837271">
        <ele>24.1703</ele>
        <time>2014-07-12T10:55:09Z</time>
      </trkpt>
      <trkpt lat="59.9547884" lon="17.8372181">
        <ele>24.651</ele>
        <time>2014-07-12T10:55:10Z</time>
      </trkpt>
      <trkpt lat="59.9548615" lon="17.8371659">
        <ele>24.651</ele>
        <time>2014-07-12T10:55:11Z</time>
      </trkpt>
      <trkpt lat="59.9549351" lon="17.8371147">
        <ele>24.651</ele>
        <time>2014-07-12T10:55:12Z</time>
      </trkpt>
      <trkpt lat="59.9550091" lon="17.8370619">
        <ele>24.651</ele>
        <time>2014-07-12T10:55:13Z</time>
      </trkpt>
      <trkpt lat="59.9550822" lon="17.837007">
        <ele>24.651</ele>
        <time>2014-07-12T10:55:14Z</time>
      </trkpt>
      <trkpt lat="59.9551547" lon="17.8369513">
        <ele>24.651</ele>
        <time>2014-07-12T10:55:15Z</time>
      </trkpt>
      <trkpt lat="59.9552263" lon="17.8368983">
        <ele>24.651</ele>
        <time>2014-07-12T10:55:16Z</time>
      </trkpt>
      <trkpt lat="59.9552962" lon="17.8368469">
        <ele>25.1317</ele>
        <time>2014-07-12T10:55:17Z</time>
      </trkpt>
      <trkpt lat="59.9553644" lon="17.8367977">
        <ele>25.1317</ele>
        <time>2014-07-12T10:55:18Z</time>
      </trkpt>
      <trkpt lat="59.9554324" lon="17.8367516">
        <ele>25.1317</ele>
        <time>2014-07-12T10:55:19Z</time>
      </trkpt>
      <trkpt lat="59.9555006" lon="17.8367055">
        <ele>25.1317</ele>
        <time>2014-07-12T10:55:20Z</time>
      </trkpt>
      <trkpt lat="59.9555684" lon="17.8366589">
        <ele>25.1317</ele>
        <time>2014-07-12T10:55:21Z</time>
      </trkpt>
      <trkpt lat="59.9556355" lon="17.8366108">
        <ele>25.1317</ele>
        <time>2014-07-12T10:55:22Z</time>
      </trkpt>
      <trkpt lat="59.9557018" lon="17.836563">
        <ele>25.6123</ele>
        <time>2014-07-12T10:55:23Z</time>
      </trkpt>
      <trkpt lat="59.9557677" lon="17.8365185">
        <ele>25.6123</ele>
        <time>2014-07-12T10:55:24Z</time>
      </trkpt>
      <trkpt lat="59.9558333" lon="17.836477">
        <ele>25.6123</ele>
        <time>2014-07-12T10:55:25Z</time>
      </trkpt>
      <trkpt lat="59.9558979" lon="17.8364359">
        <ele>26.0929</ele>
        <time>2014-07-12T10:55:26Z</time>
      </trkpt>
      <trkpt lat="59.9559612" lon="17.8363955">
        <ele>26.0929</ele>
        <time>2014-07-12T10:55:27Z</time>
      </trkpt>
      <trkpt lat="59.9560239" lon="17.8363588">
        <ele>26.5736</ele>
        <time>2014-07-12T10:55:28Z</time>
      </trkpt>
      <trkpt lat="59.956086" lon="17.8363277">
        <ele>26.5736</ele>
        <time>2014-07-12T10:55:29Z</time>
      </trkpt>
      <trkpt lat="59.9561488" lon="17.836299">
        <ele>27.0543</ele>
        <time>2014-07-12T10:55:30Z</time>
      </trkpt>
      <trkpt lat="59.956213" lon="17.8362709">
        <ele>27.0543</ele>
        <time>2014-07-12T10:55:31Z</time>
      </trkpt>
      <trkpt lat="59.9562786" lon="17.8362445">
        <ele>27.5349</ele>
        <time>2014-07-12T10:55:32Z</time>
      </trkpt>
      <trkpt lat="59.9563441" lon="17.8362216">
        <ele>27.5349</ele>
        <time>2014-07-12T10:55:33Z</time>
      </trkpt>
      <trkpt lat="59.9564094" lon="17.8362051">
        <ele>28.0155</ele>
        <time>2014-07-12T10:55:34Z</time>
      </trkpt>
      <trkpt lat="59.9564753" lon="17.8361874">
        <ele>28.4962</ele>
        <time>2014-07-12T10:55:35Z</time>
      </trkpt>
      <trkpt lat="59.9565425" lon="17.8361683">
        <ele>28.9769</ele>
        <time>2014-07-12T10:55:36Z</time>
      </trkpt>
      <trkpt lat="59.9566088" lon="17.8361527">
        <ele>29.4575</ele>
        <time>2014-07-12T10:55:37Z</time>
      </trkpt>
      <trkpt lat="59.9566729" lon="17.8361406">
        <ele>29.4575</ele>
        <time>2014-07-12T10:55:38Z</time>
      </trkpt>
      <trkpt lat="59.9567352" lon="17.8361322">
        <ele>29.9381</ele>
        <time>2014-07-12T10:55:39Z</time>
      </trkpt>
      <trkpt lat="59.9567978" lon="17.8361258">
        <ele>29.9381</ele>
        <time>2014-07-12T10:55:40Z</time>
      </trkpt>
      <trkpt lat="59.9568604" lon="17.8361215">
        <ele>29.9381</ele>
        <time>2014-07-12T10:55:41Z</time>
      </trkpt>
      <trkpt lat="59.9569225" lon="17.836117">
        <ele>29.9381</ele>
        <time>2014-07-12T10:55:42Z</time>
      </trkpt>
      <trkpt lat="59.9569848" lon="17.8361129">
        <ele>30.4188</ele>
        <time>2014-07-12T10:55:43Z</time>
      </trkpt>
      <trkpt lat="59.957047" lon="17.8361134">
        <ele>30.4188</ele>
        <time>2014-07-12T10:55:44Z</time>
      </trkpt>
      <trkpt lat="59.9571092" lon="17.8361165">
        <ele>30.4188</ele>
        <time>2014-07-12T10:55:45Z</time>
      </trkpt>
      <trkpt lat="59.9571708" lon="17.8361186">
        <ele>30.8995</ele>
        <time>2014-07-12T10:55:46Z</time>
      </trkpt>
      <trkpt lat="59.957232" lon="17.8361228">
        <ele>30.8995</ele>
        <time>2014-07-12T10:55:47Z</time>
      </trkpt>
      <trkpt lat="59.9572927" lon="17.8361287">
        <ele>30.8995</ele>
        <time>2014-07-12T10:55:48Z</time>
      </trkpt>
      <trkpt lat="59.9573542" lon="17.8361344">
        <ele>30.8995</ele>
        <time>2014-07-12T10:55:49Z</time>
      </trkpt>
      <trkpt lat="59.9574157" lon="17.8361401">
        <ele>30.8995</ele>
        <time>2014-07-12T10:55:50Z</time>
      </trkpt>
      <trkpt lat="59.9574766" lon="17.8361463">
        <ele>30.8995</ele>
        <time>2014-07-12T10:55:51Z</time>
      </trkpt>
      <trkpt lat="59.957537" lon="17.8361529">
        <ele>30.8995</ele>
        <time>2014-07-12T10:55:52Z</time>
      </trkpt>
      <trkpt lat="59.9575976" lon="17.8361605">
        <ele>30.8995</ele>
        <time>2014-07-12T10:55:53Z</time>
      </trkpt>
      <trkpt lat="59.9576574" lon="17.8361709">
        <ele>30.8995</ele>
        <time>2014-07-12T10:55:54Z</time>
      </trkpt>
      <trkpt lat="59.9577171" lon="17.8361818">
        <ele>30.8995</ele>
        <time>2014-07-12T10:55:55Z</time>
      </trkpt>
      <trkpt lat="59.957779" lon="17.8361935">
        <ele>30.8995</ele>
        <time>2014-07-12T10:55:56Z</time>
      </trkpt>
      <trkpt lat="59.9578415" lon="17.8362072">
        <ele>30.8995</ele>
        <time>2014-07-12T10:55:57Z</time>
      </trkpt>
      <trkpt lat="59.9579054" lon="17.8362236">
        <ele>30.8995</ele>
        <time>2014-07-12T10:55:58Z</time>
      </trkpt>
      <trkpt lat="59.9579738" lon="17.8362385">
        <ele>30.4188</ele>
        <time>2014-07-12T10:55:59Z</time>
      </trkpt>
      <trkpt lat="59.9580447" lon="17.836252">
        <ele>30.4188</ele>
        <time>2014-07-12T10:56:00Z</time>
      </trkpt>
      <trkpt lat="59.9581152" lon="17.8362652">
        <ele>29.9381</ele>
        <time>2014-07-12T10:56:01Z</time>
      </trkpt>
      <trkpt lat="59.9581872" lon="17.8362777">
        <ele>29.9381</ele>
        <time>2014-07-12T10:56:02Z</time>
      </trkpt>
      <trkpt lat="59.9582577" lon="17.8362862">
        <ele>29.4575</ele>
        <time>2014-07-12T10:56:03Z</time>
      </trkpt>
      <trkpt lat="59.9583272" lon="17.8362867">
        <ele>29.4575</ele>
        <time>2014-07-12T10:56:04Z</time>
      </trkpt>
      <trkpt lat="59.9584012" lon="17.8362858">
        <ele>28.9769</ele>
        <time>2014-07-12T10:56:05Z</time>
      </trkpt>
      <trkpt lat="59.9584802" lon="17.8362942">
        <ele>28.9769</ele>
        <time>2014-07-12T10:56:06Z</time>
      </trkpt>
      <trkpt lat="59.9585591" lon="17.8363082">
        <ele>28.4962</ele>
        <time>2014-07-12T10:56:07Z</time>
      </trkpt>
      <trkpt lat="59.9586327" lon="17.8363212">
        <ele>28.4962</ele>
        <time>2014-07-12T10:56:08Z</time>
      </trkpt>
      <trkpt lat="59.9587051" lon="17.836334">
        <ele>28.4962</ele>
        <time>2014-07-12T10:56:09Z</time>
      </trkpt>
      <trkpt lat="59.9587772" lon="17.8363475">
        <ele>28.4962</ele>
        <time>2014-07-12T10:56:10Z</time>
      </trkpt>
      <trkpt lat="59.9588501" lon="17.836362">
        <ele>28.0155</ele>
        <time>2014-07-12T10:56:11Z</time>
      </trkpt>
      <trkpt lat="59.9589231" lon="17.8363754">
        <ele>28.0155</ele>
        <time>2014-07-12T10:56:12Z</time>
      </trkpt>
      <trkpt lat="59.9589952" lon="17.8363894">
        <ele>28.0155</ele>
        <time>2014-07-12T10:56:13Z</time>
      </trkpt>
      <trkpt lat="59.9590661" lon="17.8364046">
        <ele>28.0155</ele>
        <time>2014-07-12T10:56:14Z</time>
      </trkpt>
      <trkpt lat="59.959136" lon="17.8364176">
        <ele>28.0155</ele>
        <time>2014-07-12T10:56:15Z</time>
      </trkpt>
      <trkpt lat="59.9592045" lon="17.8364298">
        <ele>28.0155</ele>
        <time>2014-07-12T10:56:16Z</time>
      </trkpt>
      <trkpt lat="59.9592732" lon="17.8364439">
        <ele>28.0155</ele>
        <time>2014-07-12T10:56:17Z</time>
      </trkpt>
      <trkpt lat="59.9593433" lon="17.8364573">
        <ele>28.0155</ele>
        <time>2014-07-12T10:56:18Z</time>
      </trkpt>
      <trkpt lat="59.9594147" lon="17.8364699">
        <ele>28.0155</ele>
        <time>2014-07-12T10:56:19Z</time>
      </trkpt>
      <trkpt lat="59.9594853" lon="17.8364846">
        <ele>28.0155</ele>
        <time>2014-07-12T10:56:20Z</time>
      </trkpt>
      <trkpt lat="59.9595553" lon="17.8364988">
        <ele>28.0155</ele>
        <time>2014-07-12T10:56:21Z</time>
      </trkpt>
      <trkpt lat="59.9596267" lon="17.8365112">
        <ele>28.0155</ele>
        <time>2014-07-12T10:56:22Z</time>
      </trkpt>
      <trkpt lat="59.9596976" lon="17.8365222">
        <ele>27.5349</ele>
        <time>2014-07-12T10:56:23Z</time>
      </trkpt>
      <trkpt lat="59.9597679" lon="17.836535">
        <ele>28.0155</ele>
        <time>2014-07-12T10:56:24Z</time>
      </trkpt>
      <trkpt lat="59.9598379" lon="17.836547">
        <ele>28.0155</ele>
        <time>2014-07-12T10:56:25Z</time>
      </trkpt>
      <trkpt lat="59.9599069" lon="17.8365574">
        <ele>28.0155</ele>
        <time>2014-07-12T10:56:26Z</time>
      </trkpt>
      <trkpt lat="59.9599778" lon="17.8365688">
        <ele>28.0155</ele>
        <time>2014-07-12T10:56:27Z</time>
      </trkpt>
      <trkpt lat="59.9600474" lon="17.8365822">
        <ele>28.0155</ele>
        <time>2014-07-12T10:56:28Z</time>
      </trkpt>
      <trkpt lat="59.9601174" lon="17.8365957">
        <ele>28.0155</ele>
        <time>2014-07-12T10:56:29Z</time>
      </trkpt>
      <trkpt lat="59.9601878" lon="17.8366069">
        <ele>28.4962</ele>
        <time>2014-07-12T10:56:30Z</time>
      </trkpt>
      <trkpt lat="59.9602582" lon="17.8366162">
        <ele>28.0155</ele>
        <time>2014-07-12T10:56:31Z</time>
      </trkpt>
      <trkpt lat="59.9603297" lon="17.83663">
        <ele>28.4962</ele>
        <time>2014-07-12T10:56:32Z</time>
      </trkpt>
      <trkpt lat="59.9603992" lon="17.8366465">
        <ele>28.4962</ele>
        <time>2014-07-12T10:56:33Z</time>
      </trkpt>
      <trkpt lat="59.9604479" lon="17.8366681">
        <ele>28.4962</ele>
        <time>2014-07-12T10:56:34Z</time>
      </trkpt>
      <trkpt lat="59.9605171" lon="17.836691">
        <ele>28.4962</ele>
        <time>2014-07-12T10:56:35Z</time>
      </trkpt>
      <trkpt lat="59.9605845" lon="17.8367081">
        <ele>28.4962</ele>
        <time>2014-07-12T10:56:36Z</time>
      </trkpt>
      <trkpt lat="59.9606524" lon="17.8367366">
        <ele>28.4962</ele>
        <time>2014-07-12T10:56:37Z</time>
      </trkpt>
      <trkpt lat="59.9607198" lon="17.836774">
        <ele>28.9769</ele>
        <time>2014-07-12T10:56:38Z</time>
      </trkpt>
      <trkpt lat="59.9607867" lon="17.8368049">
        <ele>28.4962</ele>
        <time>2014-07-12T10:56:39Z</time>
      </trkpt>
      <trkpt lat="59.9608544" lon="17.8368298">
        <ele>28.4962</ele>
        <time>2014-07-12T10:56:40Z</time>
      </trkpt>
      <trkpt lat="59.9609202" lon="17.8368633">
        <ele>28.0155</ele>
        <time>2014-07-12T10:56:41Z</time>
      </trkpt>
      <trkpt lat="59.9609849" lon="17.8368991">
        <ele>28.0155</ele>
        <time>2014-07-12T10:56:42Z</time>
      </trkpt>
      <trkpt lat="59.961047" lon="17.8369431">
        <ele>28.0155</ele>
        <time>2014-07-12T10:56:43Z</time>
      </trkpt>
      <trkpt lat="59.9611055" lon="17.8369863">
        <ele>27.5349</ele>
        <time>2014-07-12T10:56:44Z</time>
      </trkpt>
      <trkpt lat="59.9611624" lon="17.8370307">
        <ele>27.5349</ele>
        <time>2014-07-12T10:56:45Z</time>
      </trkpt>
      <trkpt lat="59.9612218" lon="17.837081">
        <ele>27.5349</ele>
        <time>2014-07-12T10:56:46Z</time>
      </trkpt>
      <trkpt lat="59.9612798" lon="17.8371309">
        <ele>27.5349</ele>
        <time>2014-07-12T10:56:47Z</time>
      </trkpt>
      <trkpt lat="59.9613397" lon="17.837181">
        <ele>28.0155</ele>
        <time>2014-07-12T10:56:48Z</time>
      </trkpt>
      <trkpt lat="59.9613977" lon="17.8372333">
        <ele>28.0155</ele>
        <time>2014-07-12T10:56:49Z</time>
      </trkpt>
      <trkpt lat="59.9614568" lon="17.8372888">
        <ele>28.0155</ele>
        <time>2014-07-12T10:56:50Z</time>
      </trkpt>
      <trkpt lat="59.961518" lon="17.8373446">
        <ele>28.0155</ele>
        <time>2014-07-12T10:56:51Z</time>
      </trkpt>
      <trkpt lat="59.9615806" lon="17.8374015">
        <ele>28.0155</ele>
        <time>2014-07-12T10:56:52Z</time>
      </trkpt>
      <trkpt lat="59.9616439" lon="17.8374619">
        <ele>28.0155</ele>
        <time>2014-07-12T10:56:53Z</time>
      </trkpt>
      <trkpt lat="59.9617089" lon="17.8375254">
        <ele>27.5349</ele>
        <time>2014-07-12T10:56:54Z</time>
      </trkpt>
      <trkpt lat="59.9617765" lon="17.8375887">
        <ele>27.5349</ele>
        <time>2014-07-12T10:56:55Z</time>
      </trkpt>
      <trkpt lat="59.9618474" lon="17.8376532">
        <ele>27.0543</ele>
        <time>2014-07-12T10:56:56Z</time>
      </trkpt>
      <trkpt lat="59.9619213" lon="17.8377217">
        <ele>27.0543</ele>
        <time>2014-07-12T10:56:57Z</time>
      </trkpt>
      <trkpt lat="59.9619981" lon="17.8377912">
        <ele>27.0543</ele>
        <time>2014-07-12T10:56:58Z</time>
      </trkpt>
      <trkpt lat="59.9620767" lon="17.8378623">
        <ele>26.5736</ele>
        <time>2014-07-12T10:56:59Z</time>
      </trkpt>
      <trkpt lat="59.962158" lon="17.8379353">
        <ele>26.0929</ele>
        <time>2014-07-12T10:57:00Z</time>
      </trkpt>
      <trkpt lat="59.9622415" lon="17.8380039">
        <ele>26.0929</ele>
        <time>2014-07-12T10:57:01Z</time>
      </trkpt>
      <trkpt lat="59.9623276" lon="17.8380666">
        <ele>25.6123</ele>
        <time>2014-07-12T10:57:02Z</time>
      </trkpt>
      <trkpt lat="59.9624152" lon="17.8381308">
        <ele>25.6123</ele>
        <time>2014-07-12T10:57:03Z</time>
      </trkpt>
      <trkpt lat="59.9625026" lon="17.8381949">
        <ele>25.6123</ele>
        <time>2014-07-12T10:57:04Z</time>
      </trkpt>
      <trkpt lat="59.9625897" lon="17.8382512">
        <ele>25.6123</ele>
        <time>2014-07-12T10:57:05Z</time>
      </trkpt>
      <trkpt lat="59.9626747" lon="17.838301">
        <ele>25.6123</ele>
        <time>2014-07-12T10:57:06Z</time>
      </trkpt>
      <trkpt lat="59.9627567" lon="17.8383449">
        <ele>25.6123</ele>
        <time>2014-07-12T10:57:07Z</time>
      </trkpt>
      <trkpt lat="59.9628361" lon="17.8383826">
        <ele>25.6123</ele>
        <time>2014-07-12T10:57:08Z</time>
      </trkpt>
      <trkpt lat="59.9629135" lon="17.8384158">
        <ele>25.6123</ele>
        <time>2014-07-12T10:57:09Z</time>
      </trkpt>
      <trkpt lat="59.9629907" lon="17.8384451">
        <ele>25.6123</ele>
        <time>2014-07-12T10:57:10Z</time>
      </trkpt>
      <trkpt lat="59.9630682" lon="17.8384723">
        <ele>25.6123</ele>
        <time>2014-07-12T10:57:11Z</time>
      </trkpt>
      <trkpt lat="59.9631435" lon="17.8384974">
        <ele>26.0929</ele>
        <time>2014-07-12T10:57:12Z</time>
      </trkpt>
      <trkpt lat="59.9632195" lon="17.8385191">
        <ele>26.0929</ele>
        <time>2014-07-12T10:57:13Z</time>
      </trkpt>
      <trkpt lat="59.9632935" lon="17.8385359">
        <ele>26.0929</ele>
        <time>2014-07-12T10:57:14Z</time>
      </trkpt>
      <trkpt lat="59.9633679" lon="17.8385505">
        <ele>25.6123</ele>
        <time>2014-07-12T10:57:15Z</time>
      </trkpt>
      <trkpt lat="59.9634423" lon="17.8385629">
        <ele>25.6123</ele>
        <time>2014-07-12T10:57:16Z</time>
      </trkpt>
      <trkpt lat="59.963515" lon="17.8385737">
        <ele>25.1317</ele>
        <time>2014-07-12T10:57:17Z</time>
      </trkpt>
      <trkpt lat="59.9635894" lon="17.8385868">
        <ele>25.1317</ele>
        <time>2014-07-12T10:57:18Z</time>
      </trkpt>
      <trkpt lat="59.9636646" lon="17.838592">
        <ele>25.1317</ele>
        <time>2014-07-12T10:57:19Z</time>
      </trkpt>
      <trkpt lat="59.9637356" lon="17.838597">
        <ele>25.1317</ele>
        <time>2014-07-12T10:57:20Z</time>
      </trkpt>
      <trkpt lat="59.963806" lon="17.8386116">
        <ele>24.651</ele>
        <time>2014-07-12T10:57:21Z</time>
      </trkpt>
      <trkpt lat="59.9638745" lon="17.8386263">
        <ele>24.651</ele>
        <time>2014-07-12T10:57:22Z</time>
      </trkpt>
      <trkpt lat="59.9639449" lon="17.8386396">
        <ele>24.651</ele>
        <time>2014-07-12T10:57:23Z</time>
      </trkpt>
      <trkpt lat="59.9640147" lon="17.8386512">
        <ele>24.651</ele>
        <time>2014-07-12T10:57:24Z</time>
      </trkpt>
      <trkpt lat="59.9640859" lon="17.8386623">
        <ele>24.651</ele>
        <time>2014-07-12T10:57:25Z</time>
      </trkpt>
      <trkpt lat="59.9641565" lon="17.8386759">
        <ele>24.651</ele>
        <time>2014-07-12T10:57:26Z</time>
      </trkpt>
      <trkpt lat="59.964228" lon="17.838691">
        <ele>25.1317</ele>
        <time>2014-07-12T10:57:27Z</time>
      </trkpt>
      <trkpt lat="59.9642955" lon="17.8387067">
        <ele>25.1317</ele>
        <time>2014-07-12T10:57:28Z</time>
      </trkpt>
      <trkpt lat="59.9643607" lon="17.8387201">
        <ele>25.1317</ele>
        <time>2014-07-12T10:57:29Z</time>
      </trkpt>
      <trkpt lat="59.9644255" lon="17.8387323">
        <ele>25.1317</ele>
        <time>2014-07-12T10:57:30Z</time>
      </trkpt>
      <trkpt lat="59.9644907" lon="17.838746">
        <ele>24.651</ele>
        <time>2014-07-12T10:57:31Z</time>
      </trkpt>
      <trkpt lat="59.9645566" lon="17.838761">
        <ele>25.1317</ele>
        <time>2014-07-12T10:57:32Z</time>
      </trkpt>
      <trkpt lat="59.964624" lon="17.8387748">
        <ele>25.1317</ele>
        <time>2014-07-12T10:57:33Z</time>
      </trkpt>
      <trkpt lat="59.9647587" lon="17.8388015">
        <ele>25.1317</ele>
        <time>2014-07-12T10:57:35Z</time>
      </trkpt>
      <trkpt lat="59.9648268" lon="17.8388128">
        <ele>25.1317</ele>
        <time>2014-07-12T10:57:36Z</time>
      </trkpt>
      <trkpt lat="59.9648957" lon="17.8388235">
        <ele>25.1317</ele>
        <time>2014-07-12T10:57:37Z</time>
      </trkpt>
      <trkpt lat="59.9649652" lon="17.8388328">
        <ele>25.1317</ele>
        <time>2014-07-12T10:57:38Z</time>
      </trkpt>
      <trkpt lat="59.9650341" lon="17.8388421">
        <ele>25.6123</ele>
        <time>2014-07-12T10:57:39Z</time>
      </trkpt>
      <trkpt lat="59.9651042" lon="17.8388511">
        <ele>25.6123</ele>
        <time>2014-07-12T10:57:40Z</time>
      </trkpt>
      <trkpt lat="59.9651746" lon="17.8388623">
        <ele>25.6123</ele>
        <time>2014-07-12T10:57:41Z</time>
      </trkpt>
      <trkpt lat="59.9652456" lon="17.838878">
        <ele>25.6123</ele>
        <time>2014-07-12T10:57:42Z</time>
      </trkpt>
      <trkpt lat="59.9653165" lon="17.8388973">
        <ele>25.6123</ele>
        <time>2014-07-12T10:57:43Z</time>
      </trkpt>
      <trkpt lat="59.9653868" lon="17.8389158">
        <ele>25.6123</ele>
        <time>2014-07-12T10:57:44Z</time>
      </trkpt>
      <trkpt lat="59.9654568" lon="17.8389314">
        <ele>25.6123</ele>
        <time>2014-07-12T10:57:45Z</time>
      </trkpt>
      <trkpt lat="59.9655272" lon="17.8389448">
        <ele>25.6123</ele>
        <time>2014-07-12T10:57:46Z</time>
      </trkpt>
      <trkpt lat="59.9655982" lon="17.8389605">
        <ele>25.6123</ele>
        <time>2014-07-12T10:57:47Z</time>
      </trkpt>
      <trkpt lat="59.9656694" lon="17.8389801">
        <ele>25.6123</ele>
        <time>2014-07-12T10:57:48Z</time>
      </trkpt>
      <trkpt lat="59.9657428" lon="17.8389977">
        <ele>26.0929</ele>
        <time>2014-07-12T10:57:49Z</time>
      </trkpt>
      <trkpt lat="59.9658159" lon="17.8390126">
        <ele>26.0929</ele>
        <time>2014-07-12T10:57:50Z</time>
      </trkpt>
      <trkpt lat="59.9658889" lon="17.8390257">
        <ele>26.0929</ele>
        <time>2014-07-12T10:57:51Z</time>
      </trkpt>
      <trkpt lat="59.9659613" lon="17.8390364">
        <ele>26.0929</ele>
        <time>2014-07-12T10:57:52Z</time>
      </trkpt>
      <trkpt lat="59.9660334" lon="17.8390482">
        <ele>26.0929</ele>
        <time>2014-07-12T10:57:53Z</time>
      </trkpt>
      <trkpt lat="59.9661055" lon="17.8390607">
        <ele>26.0929</ele>
        <time>2014-07-12T10:57:54Z</time>
      </trkpt>
      <trkpt lat="59.9661759" lon="17.8390728">
        <ele>26.0929</ele>
        <time>2014-07-12T10:57:55Z</time>
      </trkpt>
      <trkpt lat="59.9662442" lon="17.8390869">
        <ele>26.0929</ele>
        <time>2014-07-12T10:57:56Z</time>
      </trkpt>
      <trkpt lat="59.9663128" lon="17.8391032">
        <ele>26.0929</ele>
        <time>2014-07-12T10:57:57Z</time>
      </trkpt>
      <trkpt lat="59.9663825" lon="17.8391214">
        <ele>26.0929</ele>
        <time>2014-07-12T10:57:58Z</time>
      </trkpt>
      <trkpt lat="59.9664526" lon="17.8391381">
        <ele>26.0929</ele>
        <time>2014-07-12T10:57:59Z</time>
      </trkpt>
      <trkpt lat="59.9665224" lon="17.8391526">
        <ele>26.0929</ele>
        <time>2014-07-12T10:58:00Z</time>
      </trkpt>
      <trkpt lat="59.9665923" lon="17.8391671">
        <ele>26.0929</ele>
        <time>2014-07-12T10:58:01Z</time>
      </trkpt>
      <trkpt lat="59.9666623" lon="17.8391836">
        <ele>26.5736</ele>
        <time>2014-07-12T10:58:02Z</time>
      </trkpt>
      <trkpt lat="59.9667323" lon="17.8392028">
        <ele>26.5736</ele>
        <time>2014-07-12T10:58:03Z</time>
      </trkpt>
      <trkpt lat="59.9668017" lon="17.8392234">
        <ele>26.5736</ele>
        <time>2014-07-12T10:58:04Z</time>
      </trkpt>
      <trkpt lat="59.9668689" lon="17.8392457">
        <ele>27.0543</ele>
        <time>2014-07-12T10:58:05Z</time>
      </trkpt>
      <trkpt lat="59.9669349" lon="17.8392703">
        <ele>27.0543</ele>
        <time>2014-07-12T10:58:06Z</time>
      </trkpt>
      <trkpt lat="59.9669984" lon="17.839299">
        <ele>27.5349</ele>
        <time>2014-07-12T10:58:07Z</time>
      </trkpt>
      <trkpt lat="59.9670597" lon="17.8393298">
        <ele>28.0155</ele>
        <time>2014-07-12T10:58:08Z</time>
      </trkpt>
      <trkpt lat="59.9671201" lon="17.8393582">
        <ele>28.0155</ele>
        <time>2014-07-12T10:58:09Z</time>
      </trkpt>
      <trkpt lat="59.9671789" lon="17.839386">
        <ele>28.4962</ele>
        <time>2014-07-12T10:58:10Z</time>
      </trkpt>
      <trkpt lat="59.9672367" lon="17.839413">
        <ele>28.4962</ele>
        <time>2014-07-12T10:58:11Z</time>
      </trkpt>
      <trkpt lat="59.9672938" lon="17.8394437">
        <ele>28.9769</ele>
        <time>2014-07-12T10:58:12Z</time>
      </trkpt>
      <trkpt lat="59.9673492" lon="17.8394744">
        <ele>28.9769</ele>
        <time>2014-07-12T10:58:13Z</time>
      </trkpt>
      <trkpt lat="59.9674036" lon="17.8395064">
        <ele>29.4575</ele>
        <time>2014-07-12T10:58:14Z</time>
      </trkpt>
      <trkpt lat="59.9674584" lon="17.83954">
        <ele>29.4575</ele>
        <time>2014-07-12T10:58:15Z</time>
      </trkpt>
      <trkpt lat="59.9675122" lon="17.8395683">
        <ele>29.4575</ele>
        <time>2014-07-12T10:58:16Z</time>
      </trkpt>
      <trkpt lat="59.9675683" lon="17.8395961">
        <ele>29.9381</ele>
        <time>2014-07-12T10:58:17Z</time>
      </trkpt>
      <trkpt lat="59.967623" lon="17.8396267">
        <ele>29.9381</ele>
        <time>2014-07-12T10:58:18Z</time>
      </trkpt>
      <trkpt lat="59.9676756" lon="17.8396592">
        <ele>29.4575</ele>
        <time>2014-07-12T10:58:19Z</time>
      </trkpt>
      <trkpt lat="59.9677294" lon="17.8396908">
        <ele>29.4575</ele>
        <time>2014-07-12T10:58:20Z</time>
      </trkpt>
      <trkpt lat="59.9677849" lon="17.8397206">
        <ele>29.4575</ele>
        <time>2014-07-12T10:58:21Z</time>
      </trkpt>
      <trkpt lat="59.967842" lon="17.8397528">
        <ele>29.4575</ele>
        <time>2014-07-12T10:58:22Z</time>
      </trkpt>
      <trkpt lat="59.9679024" lon="17.8397851">
        <ele>29.4575</ele>
        <time>2014-07-12T10:58:23Z</time>
      </trkpt>
      <trkpt lat="59.9679647" lon="17.8398182">
        <ele>29.4575</ele>
        <time>2014-07-12T10:58:24Z</time>
      </trkpt>
      <trkpt lat="59.9680278" lon="17.8398544">
        <ele>28.9769</ele>
        <time>2014-07-12T10:58:25Z</time>
      </trkpt>
      <trkpt lat="59.9680925" lon="17.8398941">
        <ele>28.9769</ele>
        <time>2014-07-12T10:58:26Z</time>
      </trkpt>
      <trkpt lat="59.9681572" lon="17.8399388">
        <ele>28.4962</ele>
        <time>2014-07-12T10:58:27Z</time>
      </trkpt>
      <trkpt lat="59.9682242" lon="17.8399838">
        <ele>28.4962</ele>
        <time>2014-07-12T10:58:28Z</time>
      </trkpt>
      <trkpt lat="59.9682952" lon="17.8400259">
        <ele>28.4962</ele>
        <time>2014-07-12T10:58:29Z</time>
      </trkpt>
      <trkpt lat="59.9683676" lon="17.840068">
        <ele>28.0155</ele>
        <time>2014-07-12T10:58:30Z</time>
      </trkpt>
      <trkpt lat="59.9684412" lon="17.8401109">
        <ele>28.0155</ele>
        <time>2014-07-12T10:58:31Z</time>
      </trkpt>
      <trkpt lat="59.9685163" lon="17.8401539">
        <ele>28.0155</ele>
        <time>2014-07-12T10:58:32Z</time>
      </trkpt>
      <trkpt lat="59.9685919" lon="17.8401949">
        <ele>28.0155</ele>
        <time>2014-07-12T10:58:33Z</time>
      </trkpt>
      <trkpt lat="59.968666" lon="17.8402378">
        <ele>28.0155</ele>
        <time>2014-07-12T10:58:34Z</time>
      </trkpt>
      <trkpt lat="59.96874" lon="17.8402798">
        <ele>28.0155</ele>
        <time>2014-07-12T10:58:35Z</time>
      </trkpt>
      <trkpt lat="59.9688131" lon="17.8403218">
        <ele>28.0155</ele>
        <time>2014-07-12T10:58:36Z</time>
      </trkpt>
      <trkpt lat="59.9688856" lon="17.8403652">
        <ele>28.4962</ele>
        <time>2014-07-12T10:58:37Z</time>
      </trkpt>
      <trkpt lat="59.9689566" lon="17.8404057">
        <ele>28.4962</ele>
        <time>2014-07-12T10:58:38Z</time>
      </trkpt>
      <trkpt lat="59.9690255" lon="17.8404439">
        <ele>28.4962</ele>
        <time>2014-07-12T10:58:39Z</time>
      </trkpt>
      <trkpt lat="59.9690932" lon="17.8404788">
        <ele>28.9769</ele>
        <time>2014-07-12T10:58:40Z</time>
      </trkpt>
      <trkpt lat="59.9691606" lon="17.8405078">
        <ele>29.4575</ele>
        <time>2014-07-12T10:58:41Z</time>
      </trkpt>
      <trkpt lat="59.9692269" lon="17.8405336">
        <ele>29.4575</ele>
        <time>2014-07-12T10:58:42Z</time>
      </trkpt>
      <trkpt lat="59.9692928" lon="17.8405573">
        <ele>29.9381</ele>
        <time>2014-07-12T10:58:43Z</time>
      </trkpt>
      <trkpt lat="59.9693582" lon="17.840579">
        <ele>29.9381</ele>
        <time>2014-07-12T10:58:44Z</time>
      </trkpt>
      <trkpt lat="59.9694243" lon="17.8405968">
        <ele>29.9381</ele>
        <time>2014-07-12T10:58:45Z</time>
      </trkpt>
      <trkpt lat="59.969491" lon="17.8406144">
        <ele>29.9381</ele>
        <time>2014-07-12T10:58:46Z</time>
      </trkpt>
      <trkpt lat="59.9695594" lon="17.8406302">
        <ele>29.4575</ele>
        <time>2014-07-12T10:58:47Z</time>
      </trkpt>
      <trkpt lat="59.9696294" lon="17.8406444">
        <ele>29.4575</ele>
        <time>2014-07-12T10:58:48Z</time>
      </trkpt>
      <trkpt lat="59.9697013" lon="17.8406574">
        <ele>29.4575</ele>
        <time>2014-07-12T10:58:49Z</time>
      </trkpt>
      <trkpt lat="59.9697749" lon="17.8406693">
        <ele>29.4575</ele>
        <time>2014-07-12T10:58:50Z</time>
      </trkpt>
      <trkpt lat="59.9698493" lon="17.8406817">
        <ele>29.4575</ele>
        <time>2014-07-12T10:58:51Z</time>
      </trkpt>
      <trkpt lat="59.9699237" lon="17.8406953">
        <ele>29.4575</ele>
        <time>2014-07-12T10:58:52Z</time>
      </trkpt>
      <trkpt lat="59.9699972" lon="17.8407097">
        <ele>29.4575</ele>
        <time>2014-07-12T10:58:53Z</time>
      </trkpt>
      <trkpt lat="59.9700701" lon="17.8407227">
        <ele>29.4575</ele>
        <time>2014-07-12T10:58:54Z</time>
      </trkpt>
      <trkpt lat="59.9701439" lon="17.8407366">
        <ele>29.4575</ele>
        <time>2014-07-12T10:58:55Z</time>
      </trkpt>
      <trkpt lat="59.970217" lon="17.8407518">
        <ele>29.4575</ele>
        <time>2014-07-12T10:58:56Z</time>
      </trkpt>
      <trkpt lat="59.9702893" lon="17.8407651">
        <ele>29.4575</ele>
        <time>2014-07-12T10:58:57Z</time>
      </trkpt>
      <trkpt lat="59.9703618" lon="17.8407771">
        <ele>29.4575</ele>
        <time>2014-07-12T10:58:58Z</time>
      </trkpt>
      <trkpt lat="59.9704349" lon="17.8407893">
        <ele>29.4575</ele>
        <time>2014-07-12T10:58:59Z</time>
      </trkpt>
      <trkpt lat="59.9705085" lon="17.840802">
        <ele>29.4575</ele>
        <time>2014-07-12T10:59:00Z</time>
      </trkpt>
      <trkpt lat="59.9705832" lon="17.8408159">
        <ele>28.9769</ele>
        <time>2014-07-12T10:59:01Z</time>
      </trkpt>
      <trkpt lat="59.9706599" lon="17.8408299">
        <ele>28.9769</ele>
        <time>2014-07-12T10:59:02Z</time>
      </trkpt>
      <trkpt lat="59.9707386" lon="17.8408452">
        <ele>28.4962</ele>
        <time>2014-07-12T10:59:03Z</time>
      </trkpt>
      <trkpt lat="59.9708194" lon="17.8408613">
        <ele>28.4962</ele>
        <time>2014-07-12T10:59:04Z</time>
      </trkpt>
      <trkpt lat="59.9709023" lon="17.8408787">
        <ele>28.0155</ele>
        <time>2014-07-12T10:59:05Z</time>
      </trkpt>
      <trkpt lat="59.970987" lon="17.8408958">
        <ele>27.5349</ele>
        <time>2014-07-12T10:59:06Z</time>
      </trkpt>
      <trkpt lat="59.9710732" lon="17.8409118">
        <ele>27.0543</ele>
        <time>2014-07-12T10:59:07Z</time>
      </trkpt>
      <trkpt lat="59.9711605" lon="17.8409284">
        <ele>27.0543</ele>
        <time>2014-07-12T10:59:08Z</time>
      </trkpt>
      <trkpt lat="59.9712468" lon="17.8409501">
        <ele>27.0543</ele>
        <time>2014-07-12T10:59:09Z</time>
      </trkpt>
      <trkpt lat="59.9713326" lon="17.840976">
        <ele>26.5736</ele>
        <time>2014-07-12T10:59:10Z</time>
      </trkpt>
      <trkpt lat="59.9714178" lon="17.8410061">
        <ele>26.5736</ele>
        <time>2014-07-12T10:59:11Z</time>
      </trkpt>
      <trkpt lat="59.9715026" lon="17.8410421">
        <ele>26.5736</ele>
        <time>2014-07-12T10:59:12Z</time>
      </trkpt>
      <trkpt lat="59.9715859" lon="17.8410832">
        <ele>27.0543</ele>
        <time>2014-07-12T10:59:13Z</time>
      </trkpt>
      <trkpt lat="59.9716669" lon="17.8411303">
        <ele>27.0543</ele>
        <time>2014-07-12T10:59:14Z</time>
      </trkpt>
      <trkpt lat="59.9717456" lon="17.8411866">
        <ele>27.5349</ele>
        <time>2014-07-12T10:59:15Z</time>
      </trkpt>
      <trkpt lat="59.9718212" lon="17.8412505">
        <ele>28.0155</ele>
        <time>2014-07-12T10:59:16Z</time>
      </trkpt>
      <trkpt lat="59.971893" lon="17.8413215">
        <ele>28.0155</ele>
        <time>2014-07-12T10:59:17Z</time>
      </trkpt>
      <trkpt lat="59.9719622" lon="17.8413976">
        <ele>28.0155</ele>
        <time>2014-07-12T10:59:18Z</time>
      </trkpt>
      <trkpt lat="59.9720299" lon="17.8414772">
        <ele>28.4962</ele>
        <time>2014-07-12T10:59:19Z</time>
      </trkpt>
      <trkpt lat="59.9720957" lon="17.8415595">
        <ele>28.4962</ele>
        <time>2014-07-12T10:59:20Z</time>
      </trkpt>
      <trkpt lat="59.9721598" lon="17.8416448">
        <ele>28.9769</ele>
        <time>2014-07-12T10:59:21Z</time>
      </trkpt>
      <trkpt lat="59.972223" lon="17.8417328">
        <ele>28.9769</ele>
        <time>2014-07-12T10:59:22Z</time>
      </trkpt>
      <trkpt lat="59.9722853" lon="17.8418229">
        <ele>28.9769</ele>
        <time>2014-07-12T10:59:23Z</time>
      </trkpt>
      <trkpt lat="59.9723474" lon="17.8419136">
        <ele>29.4575</ele>
        <time>2014-07-12T10:59:24Z</time>
      </trkpt>
      <trkpt lat="59.9724097" lon="17.842003">
        <ele>29.4575</ele>
        <time>2014-07-12T10:59:25Z</time>
      </trkpt>
      <trkpt lat="59.9724733" lon="17.8420912">
        <ele>29.4575</ele>
        <time>2014-07-12T10:59:26Z</time>
      </trkpt>
      <trkpt lat="59.972538" lon="17.8421765">
        <ele>29.4575</ele>
        <time>2014-07-12T10:59:27Z</time>
      </trkpt>
      <trkpt lat="59.9726034" lon="17.8422594">
        <ele>29.4575</ele>
        <time>2014-07-12T10:59:28Z</time>
      </trkpt>
      <trkpt lat="59.9726701" lon="17.8423414">
        <ele>29.4575</ele>
        <time>2014-07-12T10:59:29Z</time>
      </trkpt>
      <trkpt lat="59.9727377" lon="17.8424217">
        <ele>29.4575</ele>
        <time>2014-07-12T10:59:30Z</time>
      </trkpt>
      <trkpt lat="59.9728064" lon="17.8424993">
        <ele>29.4575</ele>
        <time>2014-07-12T10:59:31Z</time>
      </trkpt>
      <trkpt lat="59.9728748" lon="17.8425746">
        <ele>29.4575</ele>
        <time>2014-07-12T10:59:32Z</time>
      </trkpt>
      <trkpt lat="59.9729432" lon="17.842651">
        <ele>29.4575</ele>
        <time>2014-07-12T10:59:33Z</time>
      </trkpt>
      <trkpt lat="59.9730111" lon="17.8427289">
        <ele>29.4575</ele>
        <time>2014-07-12T10:59:34Z</time>
      </trkpt>
      <trkpt lat="59.9730798" lon="17.8428066">
        <ele>29.4575</ele>
        <time>2014-07-12T10:59:35Z</time>
      </trkpt>
      <trkpt lat="59.9731489" lon="17.8428851">
        <ele>29.4575</ele>
        <time>2014-07-12T10:59:36Z</time>
      </trkpt>
      <trkpt lat="59.9732192" lon="17.842964">
        <ele>29.4575</ele>
        <time>2014-07-12T10:59:37Z</time>
      </trkpt>
      <trkpt lat="59.9732903" lon="17.8430431">
        <ele>29.4575</ele>
        <time>2014-07-12T10:59:38Z</time>
      </trkpt>
      <trkpt lat="59.9733623" lon="17.8431231">
        <ele>28.9769</ele>
        <time>2014-07-12T10:59:39Z</time>
      </trkpt>
      <trkpt lat="59.9734353" lon="17.843203">
        <ele>28.9769</ele>
        <time>2014-07-12T10:59:40Z</time>
      </trkpt>
      <trkpt lat="59.9735099" lon="17.8432838">
        <ele>28.9769</ele>
        <time>2014-07-12T10:59:41Z</time>
      </trkpt>
      <trkpt lat="59.973587" lon="17.8433649">
        <ele>28.4962</ele>
        <time>2014-07-12T10:59:42Z</time>
      </trkpt>
      <trkpt lat="59.9736651" lon="17.8434442">
        <ele>28.0155</ele>
        <time>2014-07-12T10:59:43Z</time>
      </trkpt>
      <trkpt lat="59.9737477" lon="17.8435167">
        <ele>28.0155</ele>
        <time>2014-07-12T10:59:44Z</time>
      </trkpt>
      <trkpt lat="59.9738322" lon="17.8435795">
        <ele>28.0155</ele>
        <time>2014-07-12T10:59:45Z</time>
      </trkpt>
      <trkpt lat="59.9739128" lon="17.8436343">
        <ele>28.0155</ele>
        <time>2014-07-12T10:59:46Z</time>
      </trkpt>
      <trkpt lat="59.9739927" lon="17.843681">
        <ele>28.0155</ele>
        <time>2014-07-12T10:59:47Z</time>
      </trkpt>
      <trkpt lat="59.9740741" lon="17.8437217">
        <ele>28.0155</ele>
        <time>2014-07-12T10:59:48Z</time>
      </trkpt>
      <trkpt lat="59.9741538" lon="17.843764">
        <ele>28.0155</ele>
        <time>2014-07-12T10:59:49Z</time>
      </trkpt>
      <trkpt lat="59.9742335" lon="17.8438059">
        <ele>28.0155</ele>
        <time>2014-07-12T10:59:50Z</time>
      </trkpt>
      <trkpt lat="59.9743142" lon="17.8438453">
        <ele>28.0155</ele>
        <time>2014-07-12T10:59:51Z</time>
      </trkpt>
      <trkpt lat="59.9743934" lon="17.8438856">
        <ele>28.0155</ele>
        <time>2014-07-12T10:59:52Z</time>
      </trkpt>
      <trkpt lat="59.9744718" lon="17.8439279">
        <ele>28.0155</ele>
        <time>2014-07-12T10:59:53Z</time>
      </trkpt>
      <trkpt lat="59.9745496" lon="17.8439711">
        <ele>28.0155</ele>
        <time>2014-07-12T10:59:54Z</time>
      </trkpt>
      <trkpt lat="59.9746252" lon="17.8440172">
        <ele>28.0155</ele>
        <time>2014-07-12T10:59:55Z</time>
      </trkpt>
      <trkpt lat="59.9747032" lon="17.8440667">
        <ele>28.0155</ele>
        <time>2014-07-12T10:59:56Z</time>
      </trkpt>
      <trkpt lat="59.9747826" lon="17.8441201">
        <ele>28.4962</ele>
        <time>2014-07-12T10:59:57Z</time>
      </trkpt>
      <trkpt lat="59.9748568" lon="17.8441834">
        <ele>28.4962</ele>
        <time>2014-07-12T10:59:58Z</time>
      </trkpt>
      <trkpt lat="59.9749286" lon="17.8442525">
        <ele>28.4962</ele>
        <time>2014-07-12T10:59:59Z</time>
      </trkpt>
      <trkpt lat="59.9749962" lon="17.8443281">
        <ele>28.0155</ele>
        <time>2014-07-12T11:00:00Z</time>
      </trkpt>
      <trkpt lat="59.9750637" lon="17.8444079">
        <ele>28.0155</ele>
        <time>2014-07-12T11:00:01Z</time>
      </trkpt>
      <trkpt lat="59.9751296" lon="17.8444896">
        <ele>28.0155</ele>
        <time>2014-07-12T11:00:02Z</time>
      </trkpt>
      <trkpt lat="59.975195" lon="17.84457">
        <ele>28.4962</ele>
        <time>2014-07-12T11:00:03Z</time>
      </trkpt>
      <trkpt lat="59.9752592" lon="17.8446522">
        <ele>28.4962</ele>
        <time>2014-07-12T11:00:04Z</time>
      </trkpt>
      <trkpt lat="59.9753234" lon="17.8447341">
        <ele>28.4962</ele>
        <time>2014-07-12T11:00:05Z</time>
      </trkpt>
      <trkpt lat="59.9753892" lon="17.8448113">
        <ele>28.0155</ele>
        <time>2014-07-12T11:00:06Z</time>
      </trkpt>
      <trkpt lat="59.9754586" lon="17.8448831">
        <ele>28.4962</ele>
        <time>2014-07-12T11:00:07Z</time>
      </trkpt>
      <trkpt lat="59.975528" lon="17.8449543">
        <ele>28.4962</ele>
        <time>2014-07-12T11:00:08Z</time>
      </trkpt>
      <trkpt lat="59.9755992" lon="17.8450189">
        <ele>28.4962</ele>
        <time>2014-07-12T11:00:09Z</time>
      </trkpt>
      <trkpt lat="59.9756715" lon="17.8450765">
        <ele>28.4962</ele>
        <time>2014-07-12T11:00:10Z</time>
      </trkpt>
      <trkpt lat="59.9757441" lon="17.8451292">
        <ele>28.0155</ele>
        <time>2014-07-12T11:00:11Z</time>
      </trkpt>
      <trkpt lat="59.9758171" lon="17.8451807">
        <ele>28.0155</ele>
        <time>2014-07-12T11:00:12Z</time>
      </trkpt>
      <trkpt lat="59.9758891" lon="17.8452335">
        <ele>28.0155</ele>
        <time>2014-07-12T11:00:13Z</time>
      </trkpt>
      <trkpt lat="59.9759605" lon="17.8452859">
        <ele>28.0155</ele>
        <time>2014-07-12T11:00:14Z</time>
      </trkpt>
      <trkpt lat="59.9760311" lon="17.8453361">
        <ele>28.0155</ele>
        <time>2014-07-12T11:00:15Z</time>
      </trkpt>
      <trkpt lat="59.976101" lon="17.8453852">
        <ele>28.0155</ele>
        <time>2014-07-12T11:00:16Z</time>
      </trkpt>
      <trkpt lat="59.9761709" lon="17.845435">
        <ele>28.0155</ele>
        <time>2014-07-12T11:00:17Z</time>
      </trkpt>
      <trkpt lat="59.9762417" lon="17.8454863">
        <ele>28.0155</ele>
        <time>2014-07-12T11:00:18Z</time>
      </trkpt>
      <trkpt lat="59.9763133" lon="17.8455377">
        <ele>28.0155</ele>
        <time>2014-07-12T11:00:19Z</time>
      </trkpt>
      <trkpt lat="59.976386" lon="17.8455892">
        <ele>28.0155</ele>
        <time>2014-07-12T11:00:20Z</time>
      </trkpt>
      <trkpt lat="59.9764594" lon="17.8456421">
        <ele>28.0155</ele>
        <time>2014-07-12T11:00:21Z</time>
      </trkpt>
      <trkpt lat="59.9765335" lon="17.8456955">
        <ele>28.0155</ele>
        <time>2014-07-12T11:00:22Z</time>
      </trkpt>
      <trkpt lat="59.9766076" lon="17.84575">
        <ele>27.5349</ele>
        <time>2014-07-12T11:00:23Z</time>
      </trkpt>
      <trkpt lat="59.9766817" lon="17.8458044">
        <ele>27.5349</ele>
        <time>2014-07-12T11:00:24Z</time>
      </trkpt>
      <trkpt lat="59.9767553" lon="17.8458586">
        <ele>27.5349</ele>
        <time>2014-07-12T11:00:25Z</time>
      </trkpt>
      <trkpt lat="59.9768286" lon="17.8459136">
        <ele>27.5349</ele>
        <time>2014-07-12T11:00:26Z</time>
      </trkpt>
      <trkpt lat="59.9769008" lon="17.8459701">
        <ele>27.5349</ele>
        <time>2014-07-12T11:00:27Z</time>
      </trkpt>
      <trkpt lat="59.9769719" lon="17.8460276">
        <ele>27.5349</ele>
        <time>2014-07-12T11:00:28Z</time>
      </trkpt>
      <trkpt lat="59.9770451" lon="17.8460821">
        <ele>27.5349</ele>
        <time>2014-07-12T11:00:29Z</time>
      </trkpt>
      <trkpt lat="59.9771179" lon="17.8461336">
        <ele>27.5349</ele>
        <time>2014-07-12T11:00:30Z</time>
      </trkpt>
      <trkpt lat="59.9771898" lon="17.8461856">
        <ele>27.5349</ele>
        <time>2014-07-12T11:00:31Z</time>
      </trkpt>
      <trkpt lat="59.9772611" lon="17.8462384">
        <ele>27.0543</ele>
        <time>2014-07-12T11:00:32Z</time>
      </trkpt>
      <trkpt lat="59.9773328" lon="17.8462898">
        <ele>27.0543</ele>
        <time>2014-07-12T11:00:33Z</time>
      </trkpt>
      <trkpt lat="59.9774057" lon="17.8463392">
        <ele>27.0543</ele>
        <time>2014-07-12T11:00:34Z</time>
      </trkpt>
      <trkpt lat="59.9774804" lon="17.8463862">
        <ele>26.5736</ele>
        <time>2014-07-12T11:00:35Z</time>
      </trkpt>
      <trkpt lat="59.977557" lon="17.8464307">
        <ele>26.5736</ele>
        <time>2014-07-12T11:00:36Z</time>
      </trkpt>
      <trkpt lat="59.9776349" lon="17.8464724">
        <ele>26.5736</ele>
        <time>2014-07-12T11:00:37Z</time>
      </trkpt>
      <trkpt lat="59.9777129" lon="17.8465088">
        <ele>26.5736</ele>
        <time>2014-07-12T11:00:38Z</time>
      </trkpt>
      <trkpt lat="59.9777917" lon="17.8465418">
        <ele>26.5736</ele>
        <time>2014-07-12T11:00:39Z</time>
      </trkpt>
      <trkpt lat="59.9778706" lon="17.8465723">
        <ele>26.5736</ele>
        <time>2014-07-12T11:00:40Z</time>
      </trkpt>
      <trkpt lat="59.9779494" lon="17.8465995">
        <ele>26.5736</ele>
        <time>2014-07-12T11:00:41Z</time>
      </trkpt>
      <trkpt lat="59.9780286" lon="17.8466217">
        <ele>26.5736</ele>
        <time>2014-07-12T11:00:42Z</time>
      </trkpt>
      <trkpt lat="59.9781078" lon="17.8466382">
        <ele>26.5736</ele>
        <time>2014-07-12T11:00:43Z</time>
      </trkpt>
      <trkpt lat="59.978188" lon="17.8466482">
        <ele>26.5736</ele>
        <time>2014-07-12T11:00:44Z</time>
      </trkpt>
      <trkpt lat="59.9782689" lon="17.8466535">
        <ele>26.5736</ele>
        <time>2014-07-12T11:00:45Z</time>
      </trkpt>
      <trkpt lat="59.9783502" lon="17.8466552">
        <ele>26.5736</ele>
        <time>2014-07-12T11:00:46Z</time>
      </trkpt>
      <trkpt lat="59.9784313" lon="17.8466528">
        <ele>26.5736</ele>
        <time>2014-07-12T11:00:47Z</time>
      </trkpt>
      <trkpt lat="59.9785122" lon="17.8466461">
        <ele>26.5736</ele>
        <time>2014-07-12T11:00:48Z</time>
      </trkpt>
      <trkpt lat="59.9785925" lon="17.8466348">
        <ele>27.0543</ele>
        <time>2014-07-12T11:00:49Z</time>
      </trkpt>
      <trkpt lat="59.9786725" lon="17.8466186">
        <ele>27.0543</ele>
        <time>2014-07-12T11:00:50Z</time>
      </trkpt>
      <trkpt lat="59.9787526" lon="17.8465989">
        <ele>27.0543</ele>
        <time>2014-07-12T11:00:51Z</time>
      </trkpt>
      <trkpt lat="59.9788325" lon="17.8465777">
        <ele>27.0543</ele>
        <time>2014-07-12T11:00:52Z</time>
      </trkpt>
      <trkpt lat="59.9789124" lon="17.8465571">
        <ele>27.0543</ele>
        <time>2014-07-12T11:00:53Z</time>
      </trkpt>
      <trkpt lat="59.978992" lon="17.8465357">
        <ele>27.0543</ele>
        <time>2014-07-12T11:00:54Z</time>
      </trkpt>
      <trkpt lat="59.9790697" lon="17.8465133">
        <ele>27.5349</ele>
        <time>2014-07-12T11:00:55Z</time>
      </trkpt>
      <trkpt lat="59.9791465" lon="17.8464908">
        <ele>27.5349</ele>
        <time>2014-07-12T11:00:56Z</time>
      </trkpt>
      <trkpt lat="59.979222" lon="17.8464693">
        <ele>28.0155</ele>
        <time>2014-07-12T11:00:57Z</time>
      </trkpt>
      <trkpt lat="59.979295" lon="17.8464493">
        <ele>28.4962</ele>
        <time>2014-07-12T11:00:58Z</time>
      </trkpt>
      <trkpt lat="59.9793666" lon="17.8464316">
        <ele>28.4962</ele>
        <time>2014-07-12T11:00:59Z</time>
      </trkpt>
      <trkpt lat="59.9794365" lon="17.8464157">
        <ele>28.4962</ele>
        <time>2014-07-12T11:01:00Z</time>
      </trkpt>
      <trkpt lat="59.9795059" lon="17.8464042">
        <ele>28.4962</ele>
        <time>2014-07-12T11:01:01Z</time>
      </trkpt>
      <trkpt lat="59.9795739" lon="17.8463975">
        <ele>28.4962</ele>
        <time>2014-07-12T11:01:02Z</time>
      </trkpt>
      <trkpt lat="59.9796417" lon="17.8463963">
        <ele>28.9769</ele>
        <time>2014-07-12T11:01:03Z</time>
      </trkpt>
      <trkpt lat="59.9797079" lon="17.8463998">
        <ele>28.9769</ele>
        <time>2014-07-12T11:01:04Z</time>
      </trkpt>
      <trkpt lat="59.9797738" lon="17.8464083">
        <ele>28.9769</ele>
        <time>2014-07-12T11:01:05Z</time>
      </trkpt>
      <trkpt lat="59.9798403" lon="17.8464207">
        <ele>28.9769</ele>
        <time>2014-07-12T11:01:06Z</time>
      </trkpt>
      <trkpt lat="59.9799067" lon="17.8464383">
        <ele>28.9769</ele>
        <time>2014-07-12T11:01:07Z</time>
      </trkpt>
      <trkpt lat="59.9799742" lon="17.8464618">
        <ele>28.9769</ele>
        <time>2014-07-12T11:01:08Z</time>
      </trkpt>
      <trkpt lat="59.9800441" lon="17.8464922">
        <ele>28.9769</ele>
        <time>2014-07-12T11:01:09Z</time>
      </trkpt>
      <trkpt lat="59.9801152" lon="17.8465295">
        <ele>28.9769</ele>
        <time>2014-07-12T11:01:10Z</time>
      </trkpt>
      <trkpt lat="59.9801874" lon="17.8465729">
        <ele>28.9769</ele>
        <time>2014-07-12T11:01:11Z</time>
      </trkpt>
      <trkpt lat="59.9802607" lon="17.8466233">
        <ele>28.4962</ele>
        <time>2014-07-12T11:01:12Z</time>
      </trkpt>
      <trkpt lat="59.9803352" lon="17.8466828">
        <ele>28.4962</ele>
        <time>2014-07-12T11:01:13Z</time>
      </trkpt>
      <trkpt lat="59.9804093" lon="17.8467517">
        <ele>28.4962</ele>
        <time>2014-07-12T11:01:14Z</time>
      </trkpt>
      <trkpt lat="59.9804829" lon="17.84683">
        <ele>28.0155</ele>
        <time>2014-07-12T11:01:15Z</time>
      </trkpt>
      <trkpt lat="59.9805549" lon="17.8469161">
        <ele>28.0155</ele>
        <time>2014-07-12T11:01:16Z</time>
      </trkpt>
      <trkpt lat="59.9806253" lon="17.8470076">
        <ele>28.0155</ele>
        <time>2014-07-12T11:01:17Z</time>
      </trkpt>
      <trkpt lat="59.9806946" lon="17.847105">
        <ele>27.5349</ele>
        <time>2014-07-12T11:01:18Z</time>
      </trkpt>
      <trkpt lat="59.9807621" lon="17.8472085">
        <ele>27.5349</ele>
        <time>2014-07-12T11:01:19Z</time>
      </trkpt>
      <trkpt lat="59.9808267" lon="17.8473196">
        <ele>27.0543</ele>
        <time>2014-07-12T11:01:20Z</time>
      </trkpt>
      <trkpt lat="59.9808879" lon="17.8474397">
        <ele>27.0543</ele>
        <time>2014-07-12T11:01:21Z</time>
      </trkpt>
      <trkpt lat="59.9809473" lon="17.8475671">
        <ele>27.0543</ele>
        <time>2014-07-12T11:01:22Z</time>
      </trkpt>
      <trkpt lat="59.9810058" lon="17.8476971">
        <ele>26.5736</ele>
        <time>2014-07-12T11:01:23Z</time>
      </trkpt>
      <trkpt lat="59.9810628" lon="17.8478278">
        <ele>26.5736</ele>
        <time>2014-07-12T11:01:24Z</time>
      </trkpt>
      <trkpt lat="59.9811184" lon="17.8479587">
        <ele>26.0929</ele>
        <time>2014-07-12T11:01:25Z</time>
      </trkpt>
      <trkpt lat="59.9811732" lon="17.8480898">
        <ele>26.0929</ele>
        <time>2014-07-12T11:01:26Z</time>
      </trkpt>
      <trkpt lat="59.9812275" lon="17.8482225">
        <ele>26.0929</ele>
        <time>2014-07-12T11:01:27Z</time>
      </trkpt>
      <trkpt lat="59.981282" lon="17.8483558">
        <ele>26.0929</ele>
        <time>2014-07-12T11:01:28Z</time>
      </trkpt>
      <trkpt lat="59.9813369" lon="17.8484881">
        <ele>26.0929</ele>
        <time>2014-07-12T11:01:29Z</time>
      </trkpt>
      <trkpt lat="59.981391" lon="17.8486187">
        <ele>26.0929</ele>
        <time>2014-07-12T11:01:30Z</time>
      </trkpt>
      <trkpt lat="59.9814457" lon="17.8487435">
        <ele>25.6123</ele>
        <time>2014-07-12T11:01:31Z</time>
      </trkpt>
      <trkpt lat="59.9815009" lon="17.8488595">
        <ele>25.6123</ele>
        <time>2014-07-12T11:01:32Z</time>
      </trkpt>
      <trkpt lat="59.9815563" lon="17.848969">
        <ele>25.6123</ele>
        <time>2014-07-12T11:01:33Z</time>
      </trkpt>
      <trkpt lat="59.9816127" lon="17.8490636">
        <ele>25.6123</ele>
        <time>2014-07-12T11:01:34Z</time>
      </trkpt>
      <trkpt lat="59.9816716" lon="17.8491507">
        <ele>26.0929</ele>
        <time>2014-07-12T11:01:35Z</time>
      </trkpt>
      <trkpt lat="59.9817307" lon="17.8492335">
        <ele>26.0929</ele>
        <time>2014-07-12T11:01:36Z</time>
      </trkpt>
      <trkpt lat="59.9817888" lon="17.8493056">
        <ele>26.0929</ele>
        <time>2014-07-12T11:01:37Z</time>
      </trkpt>
      <trkpt lat="59.9818473" lon="17.8493702">
        <ele>26.0929</ele>
        <time>2014-07-12T11:01:38Z</time>
      </trkpt>
      <trkpt lat="59.9819053" lon="17.8494319">
        <ele>26.0929</ele>
        <time>2014-07-12T11:01:39Z</time>
      </trkpt>
      <trkpt lat="59.9819616" lon="17.8494972">
        <ele>26.0929</ele>
        <time>2014-07-12T11:01:40Z</time>
      </trkpt>
      <trkpt lat="59.9820188" lon="17.8495654">
        <ele>26.0929</ele>
        <time>2014-07-12T11:01:41Z</time>
      </trkpt>
      <trkpt lat="59.982076" lon="17.8496369">
        <ele>25.6123</ele>
        <time>2014-07-12T11:01:42Z</time>
      </trkpt>
      <trkpt lat="59.9821338" lon="17.8497106">
        <ele>26.0929</ele>
        <time>2014-07-12T11:01:43Z</time>
      </trkpt>
      <trkpt lat="59.9821903" lon="17.8497904">
        <ele>26.0929</ele>
        <time>2014-07-12T11:01:44Z</time>
      </trkpt>
      <trkpt lat="59.9822416" lon="17.8498816">
        <ele>25.6123</ele>
        <time>2014-07-12T11:01:45Z</time>
      </trkpt>
      <trkpt lat="59.9822919" lon="17.8499791">
        <ele>25.6123</ele>
        <time>2014-07-12T11:01:46Z</time>
      </trkpt>
      <trkpt lat="59.9823413" lon="17.8500805">
        <ele>25.6123</ele>
        <time>2014-07-12T11:01:47Z</time>
      </trkpt>
      <trkpt lat="59.9823881" lon="17.8501813">
        <ele>25.6123</ele>
        <time>2014-07-12T11:01:48Z</time>
      </trkpt>
      <trkpt lat="59.9824326" lon="17.8502805">
        <ele>25.6123</ele>
        <time>2014-07-12T11:01:49Z</time>
      </trkpt>
      <trkpt lat="59.9824782" lon="17.8503778">
        <ele>25.6123</ele>
        <time>2014-07-12T11:01:50Z</time>
      </trkpt>
      <trkpt lat="59.9825195" lon="17.8504732">
        <ele>25.6123</ele>
        <time>2014-07-12T11:01:51Z</time>
      </trkpt>
      <trkpt lat="59.9825588" lon="17.8505644">
        <ele>25.6123</ele>
        <time>2014-07-12T11:01:52Z</time>
      </trkpt>
      <trkpt lat="59.9826006" lon="17.8506503">
        <ele>26.0929</ele>
        <time>2014-07-12T11:01:53Z</time>
      </trkpt>
      <trkpt lat="59.9826383" lon="17.8507307">
        <ele>26.0929</ele>
        <time>2014-07-12T11:01:54Z</time>
      </trkpt>
      <trkpt lat="59.9826728" lon="17.8508061">
        <ele>26.0929</ele>
        <time>2014-07-12T11:01:55Z</time>
      </trkpt>
      <trkpt lat="59.9827072" lon="17.8508765">
        <ele>26.0929</ele>
        <time>2014-07-12T11:01:56Z</time>
      </trkpt>
      <trkpt lat="59.9827446" lon="17.8509485">
        <ele>26.0929</ele>
        <time>2014-07-12T11:01:57Z</time>
      </trkpt>
      <trkpt lat="59.9827774" lon="17.8510244">
        <ele>25.6123</ele>
        <time>2014-07-12T11:01:58Z</time>
      </trkpt>
      <trkpt lat="59.9828137" lon="17.8511014">
        <ele>25.6123</ele>
        <time>2014-07-12T11:01:59Z</time>
      </trkpt>
      <trkpt lat="59.9828479" lon="17.8511766">
        <ele>25.6123</ele>
        <time>2014-07-12T11:02:00Z</time>
      </trkpt>
      <trkpt lat="59.9828865" lon="17.8512501">
        <ele>25.6123</ele>
        <time>2014-07-12T11:02:01Z</time>
      </trkpt>
      <trkpt lat="59.9829294" lon="17.8513171">
        <ele>26.0929</ele>
        <time>2014-07-12T11:02:02Z</time>
      </trkpt>
      <trkpt lat="59.9829745" lon="17.8513842">
        <ele>26.5736</ele>
        <time>2014-07-12T11:02:03Z</time>
      </trkpt>
      <trkpt lat="59.983016" lon="17.8514521">
        <ele>26.0929</ele>
        <time>2014-07-12T11:02:04Z</time>
      </trkpt>
      <trkpt lat="59.9830656" lon="17.8515188">
        <ele>26.5736</ele>
        <time>2014-07-12T11:02:05Z</time>
      </trkpt>
      <trkpt lat="59.9831152" lon="17.8515856">
        <ele>27.0543</ele>
        <time>2014-07-12T11:02:06Z</time>
      </trkpt>
      <trkpt lat="59.9831665" lon="17.8516497">
        <ele>27.5349</ele>
        <time>2014-07-12T11:02:07Z</time>
      </trkpt>
      <trkpt lat="59.9832173" lon="17.8517128">
        <ele>27.5349</ele>
        <time>2014-07-12T11:02:08Z</time>
      </trkpt>
      <trkpt lat="59.9832661" lon="17.8517734">
        <ele>27.0543</ele>
        <time>2014-07-12T11:02:09Z</time>
      </trkpt>
      <trkpt lat="59.9833143" lon="17.85184">
        <ele>27.0543</ele>
        <time>2014-07-12T11:02:10Z</time>
      </trkpt>
      <trkpt lat="59.9833718" lon="17.8519081">
        <ele>27.5349</ele>
        <time>2014-07-12T11:02:11Z</time>
      </trkpt>
      <trkpt lat="59.9834308" lon="17.8519764">
        <ele>28.0155</ele>
        <time>2014-07-12T11:02:12Z</time>
      </trkpt>
      <trkpt lat="59.983494" lon="17.8520442">
        <ele>28.4962</ele>
        <time>2014-07-12T11:02:13Z</time>
      </trkpt>
      <trkpt lat="59.9835556" lon="17.8521178">
        <ele>28.0155</ele>
        <time>2014-07-12T11:02:14Z</time>
      </trkpt>
      <trkpt lat="59.9836182" lon="17.852194">
        <ele>27.5349</ele>
        <time>2014-07-12T11:02:15Z</time>
      </trkpt>
      <trkpt lat="59.9836913" lon="17.8522778">
        <ele>28.4962</ele>
        <time>2014-07-12T11:02:16Z</time>
      </trkpt>
      <trkpt lat="59.9837612" lon="17.8523649">
        <ele>28.4962</ele>
        <time>2014-07-12T11:02:17Z</time>
      </trkpt>
      <trkpt lat="59.9838287" lon="17.8524514">
        <ele>28.0155</ele>
        <time>2014-07-12T11:02:18Z</time>
      </trkpt>
      <trkpt lat="59.9838986" lon="17.8525333">
        <ele>28.0155</ele>
        <time>2014-07-12T11:02:19Z</time>
      </trkpt>
      <trkpt lat="59.9839709" lon="17.8526119">
        <ele>28.0155</ele>
        <time>2014-07-12T11:02:20Z</time>
      </trkpt>
      <trkpt lat="59.9840411" lon="17.8526887">
        <ele>27.5349</ele>
        <time>2014-07-12T11:02:21Z</time>
      </trkpt>
      <trkpt lat="59.9841188" lon="17.8527658">
        <ele>28.0155</ele>
        <time>2014-07-12T11:02:22Z</time>
      </trkpt>
      <trkpt lat="59.9841895" lon="17.8528395">
        <ele>27.5349</ele>
        <time>2014-07-12T11:02:23Z</time>
      </trkpt>
      <trkpt lat="59.9842675" lon="17.8529079">
        <ele>27.5349</ele>
        <time>2014-07-12T11:02:24Z</time>
      </trkpt>
      <trkpt lat="59.9843446" lon="17.8529689">
        <ele>27.5349</ele>
        <time>2014-07-12T11:02:25Z</time>
      </trkpt>
      <trkpt lat="59.9844316" lon="17.8530278">
        <ele>27.0543</ele>
        <time>2014-07-12T11:02:26Z</time>
      </trkpt>
      <trkpt lat="59.9845097" lon="17.8530677">
        <ele>26.5736</ele>
        <time>2014-07-12T11:02:27Z</time>
      </trkpt>
      <trkpt lat="59.9845967" lon="17.8530937">
        <ele>26.5736</ele>
        <time>2014-07-12T11:02:28Z</time>
      </trkpt>
      <trkpt lat="59.9846876" lon="17.8531176">
        <ele>26.5736</ele>
        <time>2014-07-12T11:02:29Z</time>
      </trkpt>
      <trkpt lat="59.9847783" lon="17.8531286">
        <ele>26.5736</ele>
        <time>2014-07-12T11:02:30Z</time>
      </trkpt>
      <trkpt lat="59.9848694" lon="17.853126">
        <ele>26.5736</ele>
        <time>2014-07-12T11:02:31Z</time>
      </trkpt>
      <trkpt lat="59.9849594" lon="17.853116">
        <ele>26.0929</ele>
        <time>2014-07-12T11:02:32Z</time>
      </trkpt>
      <trkpt lat="59.9850494" lon="17.8530964">
        <ele>26.0929</ele>
        <time>2014-07-12T11:02:33Z</time>
      </trkpt>
      <trkpt lat="59.9851391" lon="17.8530772">
        <ele>26.5736</ele>
        <time>2014-07-12T11:02:34Z</time>
      </trkpt>
      <trkpt lat="59.9852256" lon="17.8530632">
        <ele>26.5736</ele>
        <time>2014-07-12T11:02:35Z</time>
      </trkpt>
      <trkpt lat="59.9853105" lon="17.8530555">
        <ele>26.5736</ele>
        <time>2014-07-12T11:02:36Z</time>
      </trkpt>
      <trkpt lat="59.9853931" lon="17.853055">
        <ele>26.5736</ele>
        <time>2014-07-12T11:02:37Z</time>
      </trkpt>
      <trkpt lat="59.985473" lon="17.8530636">
        <ele>27.0543</ele>
        <time>2014-07-12T11:02:38Z</time>
      </trkpt>
      <trkpt lat="59.9855512" lon="17.8530809">
        <ele>27.0543</ele>
        <time>2014-07-12T11:02:39Z</time>
      </trkpt>
      <trkpt lat="59.9856297" lon="17.8531067">
        <ele>27.0543</ele>
        <time>2014-07-12T11:02:40Z</time>
      </trkpt>
      <trkpt lat="59.9857092" lon="17.8531388">
        <ele>27.0543</ele>
        <time>2014-07-12T11:02:41Z</time>
      </trkpt>
      <trkpt lat="59.9857886" lon="17.8531781">
        <ele>27.0543</ele>
        <time>2014-07-12T11:02:42Z</time>
      </trkpt>
      <trkpt lat="59.9858694" lon="17.8532253">
        <ele>26.5736</ele>
        <time>2014-07-12T11:02:43Z</time>
      </trkpt>
      <trkpt lat="59.9859515" lon="17.8532796">
        <ele>26.0929</ele>
        <time>2014-07-12T11:02:44Z</time>
      </trkpt>
      <trkpt lat="59.9860363" lon="17.8533346">
        <ele>26.0929</ele>
        <time>2014-07-12T11:02:45Z</time>
      </trkpt>
      <trkpt lat="59.9861227" lon="17.8533897">
        <ele>25.6123</ele>
        <time>2014-07-12T11:02:46Z</time>
      </trkpt>
      <trkpt lat="59.9862099" lon="17.8534466">
        <ele>25.6123</ele>
        <time>2014-07-12T11:02:47Z</time>
      </trkpt>
      <trkpt lat="59.986298" lon="17.8535047">
        <ele>25.1317</ele>
        <time>2014-07-12T11:02:48Z</time>
      </trkpt>
      <trkpt lat="59.9863866" lon="17.853563">
        <ele>25.1317</ele>
        <time>2014-07-12T11:02:49Z</time>
      </trkpt>
      <trkpt lat="59.9864755" lon="17.8536205">
        <ele>25.1317</ele>
        <time>2014-07-12T11:02:50Z</time>
      </trkpt>
      <trkpt lat="59.9865644" lon="17.8536776">
        <ele>25.1317</ele>
        <time>2014-07-12T11:02:51Z</time>
      </trkpt>
      <trkpt lat="59.9866525" lon="17.8537357">
        <ele>25.1317</ele>
        <time>2014-07-12T11:02:52Z</time>
      </trkpt>
      <trkpt lat="59.9867393" lon="17.8537981">
        <ele>25.1317</ele>
        <time>2014-07-12T11:02:53Z</time>
      </trkpt>
      <trkpt lat="59.9868233" lon="17.8538706">
        <ele>25.6123</ele>
        <time>2014-07-12T11:02:54Z</time>
      </trkpt>
      <trkpt lat="59.9869031" lon="17.8539562">
        <ele>25.6123</ele>
        <time>2014-07-12T11:02:55Z</time>
      </trkpt>
      <trkpt lat="59.9869776" lon="17.854053">
        <ele>26.0929</ele>
        <time>2014-07-12T11:02:56Z</time>
      </trkpt>
      <trkpt lat="59.9870453" lon="17.8541602">
        <ele>26.0929</ele>
        <time>2014-07-12T11:02:57Z</time>
      </trkpt>
      <trkpt lat="59.9871082" lon="17.8542731">
        <ele>26.0929</ele>
        <time>2014-07-12T11:02:58Z</time>
      </trkpt>
      <trkpt lat="59.9871693" lon="17.8543875">
        <ele>26.5736</ele>
        <time>2014-07-12T11:02:59Z</time>
      </trkpt>
      <trkpt lat="59.9872278" lon="17.854499">
        <ele>26.5736</ele>
        <time>2014-07-12T11:03:00Z</time>
      </trkpt>
      <trkpt lat="59.9872836" lon="17.8546089">
        <ele>26.0929</ele>
        <time>2014-07-12T11:03:01Z</time>
      </trkpt>
      <trkpt lat="59.987339" lon="17.8547167">
        <ele>26.5736</ele>
        <time>2014-07-12T11:03:02Z</time>
      </trkpt>
      <trkpt lat="59.9873935" lon="17.8548211">
        <ele>26.5736</ele>
        <time>2014-07-12T11:03:03Z</time>
      </trkpt>
      <trkpt lat="59.9874479" lon="17.8549214">
        <ele>26.5736</ele>
        <time>2014-07-12T11:03:04Z</time>
      </trkpt>
      <trkpt lat="59.9875029" lon="17.8550202">
        <ele>26.5736</ele>
        <time>2014-07-12T11:03:05Z</time>
      </trkpt>
      <trkpt lat="59.9875583" lon="17.8551186">
        <ele>26.5736</ele>
        <time>2014-07-12T11:03:06Z</time>
      </trkpt>
      <trkpt lat="59.9876151" lon="17.8552176">
        <ele>26.0929</ele>
        <time>2014-07-12T11:03:07Z</time>
      </trkpt>
      <trkpt lat="59.9876728" lon="17.8553194">
        <ele>26.0929</ele>
        <time>2014-07-12T11:03:08Z</time>
      </trkpt>
      <trkpt lat="59.9877307" lon="17.8554222">
        <ele>26.0929</ele>
        <time>2014-07-12T11:03:09Z</time>
      </trkpt>
      <trkpt lat="59.9877895" lon="17.8555243">
        <ele>26.0929</ele>
        <time>2014-07-12T11:03:10Z</time>
      </trkpt>
      <trkpt lat="59.9878482" lon="17.8556257">
        <ele>26.0929</ele>
        <time>2014-07-12T11:03:11Z</time>
      </trkpt>
      <trkpt lat="59.9879071" lon="17.8557253">
        <ele>26.0929</ele>
        <time>2014-07-12T11:03:12Z</time>
      </trkpt>
      <trkpt lat="59.9879655" lon="17.8558242">
        <ele>26.0929</ele>
        <time>2014-07-12T11:03:13Z</time>
      </trkpt>
      <trkpt lat="59.9880238" lon="17.8559219">
        <ele>26.0929</ele>
        <time>2014-07-12T11:03:14Z</time>
      </trkpt>
      <trkpt lat="59.9880809" lon="17.8560169">
        <ele>26.0929</ele>
        <time>2014-07-12T11:03:15Z</time>
      </trkpt>
      <trkpt lat="59.988137" lon="17.8561112">
        <ele>26.0929</ele>
        <time>2014-07-12T11:03:16Z</time>
      </trkpt>
      <trkpt lat="59.9881929" lon="17.8562044">
        <ele>26.0929</ele>
        <time>2014-07-12T11:03:17Z</time>
      </trkpt>
      <trkpt lat="59.9882489" lon="17.8562955">
        <ele>26.0929</ele>
        <time>2014-07-12T11:03:18Z</time>
      </trkpt>
      <trkpt lat="59.9883041" lon="17.8563852">
        <ele>26.5736</ele>
        <time>2014-07-12T11:03:19Z</time>
      </trkpt>
      <trkpt lat="59.9883582" lon="17.8564751">
        <ele>26.5736</ele>
        <time>2014-07-12T11:03:20Z</time>
      </trkpt>
      <trkpt lat="59.9884106" lon="17.8565644">
        <ele>26.5736</ele>
        <time>2014-07-12T11:03:21Z</time>
      </trkpt>
      <trkpt lat="59.9884631" lon="17.8566518">
        <ele>27.0543</ele>
        <time>2014-07-12T11:03:22Z</time>
      </trkpt>
      <trkpt lat="59.9885156" lon="17.8567373">
        <ele>27.0543</ele>
        <time>2014-07-12T11:03:23Z</time>
      </trkpt>
      <trkpt lat="59.9885691" lon="17.8568219">
        <ele>27.0543</ele>
        <time>2014-07-12T11:03:24Z</time>
      </trkpt>
      <trkpt lat="59.988623" lon="17.8569066">
        <ele>27.5349</ele>
        <time>2014-07-12T11:03:25Z</time>
      </trkpt>
      <trkpt lat="59.988676" lon="17.8569914">
        <ele>27.5349</ele>
        <time>2014-07-12T11:03:26Z</time>
      </trkpt>
      <trkpt lat="59.9887283" lon="17.857073">
        <ele>27.5349</ele>
        <time>2014-07-12T11:03:27Z</time>
      </trkpt>
      <trkpt lat="59.9887777" lon="17.8571379">
        <ele>28.0155</ele>
        <time>2014-07-12T11:03:28Z</time>
      </trkpt>
      <trkpt lat="59.9888274" lon="17.8571986">
        <ele>28.0155</ele>
        <time>2014-07-12T11:03:29Z</time>
      </trkpt>
      <trkpt lat="59.9888777" lon="17.8572666">
        <ele>28.0155</ele>
        <time>2014-07-12T11:03:30Z</time>
      </trkpt>
      <trkpt lat="59.9889284" lon="17.8573353">
        <ele>27.5349</ele>
        <time>2014-07-12T11:03:31Z</time>
      </trkpt>
      <trkpt lat="59.9889799" lon="17.857406">
        <ele>27.5349</ele>
        <time>2014-07-12T11:03:32Z</time>
      </trkpt>
      <trkpt lat="59.9890306" lon="17.8574804">
        <ele>27.5349</ele>
        <time>2014-07-12T11:03:33Z</time>
      </trkpt>
      <trkpt lat="59.9890787" lon="17.8575638">
        <ele>27.5349</ele>
        <time>2014-07-12T11:03:34Z</time>
      </trkpt>
      <trkpt lat="59.989123" lon="17.8576574">
        <ele>27.5349</ele>
        <time>2014-07-12T11:03:35Z</time>
      </trkpt>
      <trkpt lat="59.9891647" lon="17.8577584">
        <ele>27.5349</ele>
        <time>2014-07-12T11:03:36Z</time>
      </trkpt>
      <trkpt lat="59.9892033" lon="17.8578657">
        <ele>27.5349</ele>
        <time>2014-07-12T11:03:37Z</time>
      </trkpt>
      <trkpt lat="59.9892388" lon="17.8579786">
        <ele>27.5349</ele>
        <time>2014-07-12T11:03:38Z</time>
      </trkpt>
      <trkpt lat="59.9892729" lon="17.8580963">
        <ele>27.5349</ele>
        <time>2014-07-12T11:03:39Z</time>
      </trkpt>
      <trkpt lat="59.9893061" lon="17.8582172">
        <ele>27.5349</ele>
        <time>2014-07-12T11:03:40Z</time>
      </trkpt>
      <trkpt lat="59.9893401" lon="17.8583391">
        <ele>27.5349</ele>
        <time>2014-07-12T11:03:41Z</time>
      </trkpt>
      <trkpt lat="59.9893745" lon="17.8584628">
        <ele>27.5349</ele>
        <time>2014-07-12T11:03:42Z</time>
      </trkpt>
      <trkpt lat="59.9894086" lon="17.8585897">
        <ele>27.5349</ele>
        <time>2014-07-12T11:03:43Z</time>
      </trkpt>
      <trkpt lat="59.9894422" lon="17.8587212">
        <ele>27.0543</ele>
        <time>2014-07-12T11:03:44Z</time>
      </trkpt>
      <trkpt lat="59.9894781" lon="17.858852">
        <ele>27.0543</ele>
        <time>2014-07-12T11:03:45Z</time>
      </trkpt>
      <trkpt lat="59.9895181" lon="17.8589788">
        <ele>27.0543</ele>
        <time>2014-07-12T11:03:46Z</time>
      </trkpt>
      <trkpt lat="59.9895613" lon="17.8591027">
        <ele>27.0543</ele>
        <time>2014-07-12T11:03:47Z</time>
      </trkpt>
      <trkpt lat="59.9896093" lon="17.8592209">
        <ele>26.5736</ele>
        <time>2014-07-12T11:03:48Z</time>
      </trkpt>
      <trkpt lat="59.9896626" lon="17.8593296">
        <ele>26.5736</ele>
        <time>2014-07-12T11:03:49Z</time>
      </trkpt>
      <trkpt lat="59.9897189" lon="17.8594309">
        <ele>26.5736</ele>
        <time>2014-07-12T11:03:50Z</time>
      </trkpt>
      <trkpt lat="59.9897765" lon="17.8595279">
        <ele>26.5736</ele>
        <time>2014-07-12T11:03:51Z</time>
      </trkpt>
      <trkpt lat="59.989834" lon="17.8596222">
        <ele>26.0929</ele>
        <time>2014-07-12T11:03:52Z</time>
      </trkpt>
      <trkpt lat="59.9898919" lon="17.8597137">
        <ele>25.6123</ele>
        <time>2014-07-12T11:03:53Z</time>
      </trkpt>
      <trkpt lat="59.989951" lon="17.8598014">
        <ele>25.6123</ele>
        <time>2014-07-12T11:03:54Z</time>
      </trkpt>
      <trkpt lat="59.990012" lon="17.859885">
        <ele>25.1317</ele>
        <time>2014-07-12T11:03:55Z</time>
      </trkpt>
      <trkpt lat="59.9900736" lon="17.8599671">
        <ele>25.1317</ele>
        <time>2014-07-12T11:03:56Z</time>
      </trkpt>
      <trkpt lat="59.9901354" lon="17.8600479">
        <ele>24.651</ele>
        <time>2014-07-12T11:03:57Z</time>
      </trkpt>
      <trkpt lat="59.9901997" lon="17.8601188">
        <ele>24.651</ele>
        <time>2014-07-12T11:03:58Z</time>
      </trkpt>
      <trkpt lat="59.990267" lon="17.8601789">
        <ele>24.651</ele>
        <time>2014-07-12T11:03:59Z</time>
      </trkpt>
      <trkpt lat="59.9903357" lon="17.8602344">
        <ele>24.1703</ele>
        <time>2014-07-12T11:04:00Z</time>
      </trkpt>
      <trkpt lat="59.9904059" lon="17.8602853">
        <ele>23.6896</ele>
        <time>2014-07-12T11:04:01Z</time>
      </trkpt>
      <trkpt lat="59.9904773" lon="17.8603314">
        <ele>23.6896</ele>
        <time>2014-07-12T11:04:02Z</time>
      </trkpt>
      <trkpt lat="59.9905488" lon="17.8603791">
        <ele>23.209</ele>
        <time>2014-07-12T11:04:03Z</time>
      </trkpt>
      <trkpt lat="59.9906202" lon="17.8604299">
        <ele>22.7283</ele>
        <time>2014-07-12T11:04:04Z</time>
      </trkpt>
      <trkpt lat="59.9906918" lon="17.8604797">
        <ele>22.7283</ele>
        <time>2014-07-12T11:04:05Z</time>
      </trkpt>
      <trkpt lat="59.9907643" lon="17.8605306">
        <ele>22.2476</ele>
        <time>2014-07-12T11:04:06Z</time>
      </trkpt>
      <trkpt lat="59.9908367" lon="17.8605862">
        <ele>21.767</ele>
        <time>2014-07-12T11:04:07Z</time>
      </trkpt>
      <trkpt lat="59.9909103" lon="17.8606422">
        <ele>21.767</ele>
        <time>2014-07-12T11:04:08Z</time>
      </trkpt>
      <trkpt lat="59.9909839" lon="17.8606996">
        <ele>21.2864</ele>
        <time>2014-07-12T11:04:09Z</time>
      </trkpt>
      <trkpt lat="59.991057" lon="17.8607625">
        <ele>21.2864</ele>
        <time>2014-07-12T11:04:10Z</time>
      </trkpt>
      <trkpt lat="59.99113" lon="17.8608282">
        <ele>20.8057</ele>
        <time>2014-07-12T11:04:11Z</time>
      </trkpt>
      <trkpt lat="59.9912029" lon="17.8608948">
        <ele>20.8057</ele>
        <time>2014-07-12T11:04:12Z</time>
      </trkpt>
      <trkpt lat="59.991275" lon="17.860963">
        <ele>20.8057</ele>
        <time>2014-07-12T11:04:13Z</time>
      </trkpt>
      <trkpt lat="59.9913455" lon="17.8610333">
        <ele>20.325</ele>
        <time>2014-07-12T11:04:14Z</time>
      </trkpt>
      <trkpt lat="59.9914145" lon="17.8611058">
        <ele>20.325</ele>
        <time>2014-07-12T11:04:15Z</time>
      </trkpt>
      <trkpt lat="59.9914818" lon="17.8611812">
        <ele>20.325</ele>
        <time>2014-07-12T11:04:16Z</time>
      </trkpt>
      <trkpt lat="59.9915469" lon="17.8612598">
        <ele>20.325</ele>
        <time>2014-07-12T11:04:17Z</time>
      </trkpt>
      <trkpt lat="59.9916111" lon="17.8613411">
        <ele>20.325</ele>
        <time>2014-07-12T11:04:18Z</time>
      </trkpt>
      <trkpt lat="59.9916749" lon="17.861425">
        <ele>19.8444</ele>
        <time>2014-07-12T11:04:19Z</time>
      </trkpt>
      <trkpt lat="59.9917391" lon="17.8615093">
        <ele>19.8444</ele>
        <time>2014-07-12T11:04:20Z</time>
      </trkpt>
      <trkpt lat="59.9918043" lon="17.8615917">
        <ele>19.8444</ele>
        <time>2014-07-12T11:04:21Z</time>
      </trkpt>
      <trkpt lat="59.9918693" lon="17.8616742">
        <ele>19.8444</ele>
        <time>2014-07-12T11:04:22Z</time>
      </trkpt>
      <trkpt lat="59.991934" lon="17.8617578">
        <ele>19.8444</ele>
        <time>2014-07-12T11:04:23Z</time>
      </trkpt>
      <trkpt lat="59.991999" lon="17.8618398">
        <ele>19.8444</ele>
        <time>2014-07-12T11:04:24Z</time>
      </trkpt>
      <trkpt lat="59.9920639" lon="17.8619218">
        <ele>19.8444</ele>
        <time>2014-07-12T11:04:25Z</time>
      </trkpt>
      <trkpt lat="59.9921281" lon="17.862003">
        <ele>19.8444</ele>
        <time>2014-07-12T11:04:26Z</time>
      </trkpt>
      <trkpt lat="59.9921913" lon="17.8620816">
        <ele>19.8444</ele>
        <time>2014-07-12T11:04:27Z</time>
      </trkpt>
      <trkpt lat="59.9922526" lon="17.8621584">
        <ele>19.8444</ele>
        <time>2014-07-12T11:04:28Z</time>
      </trkpt>
      <trkpt lat="59.992311" lon="17.8622372">
        <ele>19.8444</ele>
        <time>2014-07-12T11:04:29Z</time>
      </trkpt>
      <trkpt lat="59.9923685" lon="17.8623188">
        <ele>19.8444</ele>
        <time>2014-07-12T11:04:30Z</time>
      </trkpt>
      <trkpt lat="59.9924274" lon="17.8623996">
        <ele>19.8444</ele>
        <time>2014-07-12T11:04:31Z</time>
      </trkpt>
      <trkpt lat="59.9924883" lon="17.862478">
        <ele>19.8444</ele>
        <time>2014-07-12T11:04:32Z</time>
      </trkpt>
      <trkpt lat="59.9925502" lon="17.8625552">
        <ele>19.8444</ele>
        <time>2014-07-12T11:04:33Z</time>
      </trkpt>
      <trkpt lat="59.9926114" lon="17.8626319">
        <ele>19.8444</ele>
        <time>2014-07-12T11:04:34Z</time>
      </trkpt>
      <trkpt lat="59.9926716" lon="17.8627102">
        <ele>19.8444</ele>
        <time>2014-07-12T11:04:35Z</time>
      </trkpt>
      <trkpt lat="59.9927317" lon="17.8627888">
        <ele>19.8444</ele>
        <time>2014-07-12T11:04:36Z</time>
      </trkpt>
      <trkpt lat="59.9927927" lon="17.8628654">
        <ele>19.8444</ele>
        <time>2014-07-12T11:04:37Z</time>
      </trkpt>
      <trkpt lat="59.992854" lon="17.8629418">
        <ele>19.8444</ele>
        <time>2014-07-12T11:04:38Z</time>
      </trkpt>
      <trkpt lat="59.9929155" lon="17.8630191">
        <ele>19.3638</ele>
        <time>2014-07-12T11:04:39Z</time>
      </trkpt>
      <trkpt lat="59.9929766" lon="17.8630971">
        <ele>19.3638</ele>
        <time>2014-07-12T11:04:40Z</time>
      </trkpt>
      <trkpt lat="59.9930374" lon="17.8631767">
        <ele>19.3638</ele>
        <time>2014-07-12T11:04:41Z</time>
      </trkpt>
      <trkpt lat="59.9930985" lon="17.8632562">
        <ele>19.3638</ele>
        <time>2014-07-12T11:04:42Z</time>
      </trkpt>
      <trkpt lat="59.9931606" lon="17.8633346">
        <ele>19.3638</ele>
        <time>2014-07-12T11:04:43Z</time>
      </trkpt>
      <trkpt lat="59.9932228" lon="17.8634125">
        <ele>19.3638</ele>
        <time>2014-07-12T11:04:44Z</time>
      </trkpt>
      <trkpt lat="59.9932844" lon="17.8634907">
        <ele>19.3638</ele>
        <time>2014-07-12T11:04:45Z</time>
      </trkpt>
      <trkpt lat="59.993345" lon="17.86357">
        <ele>19.3638</ele>
        <time>2014-07-12T11:04:46Z</time>
      </trkpt>
      <trkpt lat="59.9934047" lon="17.8636487">
        <ele>19.8444</ele>
        <time>2014-07-12T11:04:47Z</time>
      </trkpt>
      <trkpt lat="59.9934637" lon="17.8637262">
        <ele>19.8444</ele>
        <time>2014-07-12T11:04:48Z</time>
      </trkpt>
      <trkpt lat="59.9935226" lon="17.8638025">
        <ele>19.8444</ele>
        <time>2014-07-12T11:04:49Z</time>
      </trkpt>
      <trkpt lat="59.9935812" lon="17.8638775">
        <ele>19.8444</ele>
        <time>2014-07-12T11:04:50Z</time>
      </trkpt>
      <trkpt lat="59.9936401" lon="17.8639502">
        <ele>19.8444</ele>
        <time>2014-07-12T11:04:51Z</time>
      </trkpt>
      <trkpt lat="59.9936987" lon="17.8640217">
        <ele>19.8444</ele>
        <time>2014-07-12T11:04:52Z</time>
      </trkpt>
      <trkpt lat="59.9937566" lon="17.8640958">
        <ele>19.8444</ele>
        <time>2014-07-12T11:04:53Z</time>
      </trkpt>
      <trkpt lat="59.9938142" lon="17.8641709">
        <ele>19.8444</ele>
        <time>2014-07-12T11:04:54Z</time>
      </trkpt>
      <trkpt lat="59.9938718" lon="17.8642437">
        <ele>19.8444</ele>
        <time>2014-07-12T11:04:55Z</time>
      </trkpt>
      <trkpt lat="59.9939295" lon="17.8643121">
        <ele>19.8444</ele>
        <time>2014-07-12T11:04:56Z</time>
      </trkpt>
      <trkpt lat="59.9939874" lon="17.8643763">
        <ele>19.8444</ele>
        <time>2014-07-12T11:04:57Z</time>
      </trkpt>
      <trkpt lat="59.9940449" lon="17.8644371">
        <ele>20.325</ele>
        <time>2014-07-12T11:04:58Z</time>
      </trkpt>
      <trkpt lat="59.9941023" lon="17.8644935">
        <ele>20.325</ele>
        <time>2014-07-12T11:04:59Z</time>
      </trkpt>
      <trkpt lat="59.9941595" lon="17.8645459">
        <ele>20.325</ele>
        <time>2014-07-12T11:05:00Z</time>
      </trkpt>
      <trkpt lat="59.9942166" lon="17.8645956">
        <ele>20.325</ele>
        <time>2014-07-12T11:05:01Z</time>
      </trkpt>
      <trkpt lat="59.9942736" lon="17.8646416">
        <ele>20.8057</ele>
        <time>2014-07-12T11:05:02Z</time>
      </trkpt>
      <trkpt lat="59.9943309" lon="17.8646845">
        <ele>20.8057</ele>
        <time>2014-07-12T11:05:03Z</time>
      </trkpt>
      <trkpt lat="59.9943881" lon="17.8647267">
        <ele>20.8057</ele>
        <time>2014-07-12T11:05:04Z</time>
      </trkpt>
      <trkpt lat="59.994444" lon="17.8647654">
        <ele>20.8057</ele>
        <time>2014-07-12T11:05:05Z</time>
      </trkpt>
      <trkpt lat="59.9945" lon="17.8648013">
        <ele>21.2864</ele>
        <time>2014-07-12T11:05:06Z</time>
      </trkpt>
      <trkpt lat="59.994557" lon="17.8648368">
        <ele>21.2864</ele>
        <time>2014-07-12T11:05:07Z</time>
      </trkpt>
      <trkpt lat="59.994615" lon="17.864868">
        <ele>21.2864</ele>
        <time>2014-07-12T11:05:08Z</time>
      </trkpt>
      <trkpt lat="59.994674" lon="17.8648954">
        <ele>21.767</ele>
        <time>2014-07-12T11:05:09Z</time>
      </trkpt>
      <trkpt lat="59.9947328" lon="17.8649221">
        <ele>21.767</ele>
        <time>2014-07-12T11:05:10Z</time>
      </trkpt>
      <trkpt lat="59.9947918" lon="17.8649474">
        <ele>21.767</ele>
        <time>2014-07-12T11:05:11Z</time>
      </trkpt>
      <trkpt lat="59.9948519" lon="17.8649702">
        <ele>22.2476</ele>
        <time>2014-07-12T11:05:12Z</time>
      </trkpt>
      <trkpt lat="59.9949132" lon="17.8649928">
        <ele>22.2476</ele>
        <time>2014-07-12T11:05:13Z</time>
      </trkpt>
      <trkpt lat="59.9949747" lon="17.8650135">
        <ele>22.2476</ele>
        <time>2014-07-12T11:05:14Z</time>
      </trkpt>
      <trkpt lat="59.995032" lon="17.8650334">
        <ele>22.7283</ele>
        <time>2014-07-12T11:05:15Z</time>
      </trkpt>
      <trkpt lat="59.9950866" lon="17.8650506">
        <ele>22.7283</ele>
        <time>2014-07-12T11:05:16Z</time>
      </trkpt>
      <trkpt lat="59.9951395" lon="17.865067">
        <ele>23.209</ele>
        <time>2014-07-12T11:05:17Z</time>
      </trkpt>
      <trkpt lat="59.9951912" lon="17.8650871">
        <ele>23.209</ele>
        <time>2014-07-12T11:05:18Z</time>
      </trkpt>
      <trkpt lat="59.9952415" lon="17.8651085">
        <ele>23.209</ele>
        <time>2014-07-12T11:05:19Z</time>
      </trkpt>
      <trkpt lat="59.9952917" lon="17.8651292">
        <ele>23.6896</ele>
        <time>2014-07-12T11:05:20Z</time>
      </trkpt>
      <trkpt lat="59.9953435" lon="17.8651477">
        <ele>23.6896</ele>
        <time>2014-07-12T11:05:21Z</time>
      </trkpt>
      <trkpt lat="59.9953961" lon="17.8651624">
        <ele>24.1703</ele>
        <time>2014-07-12T11:05:22Z</time>
      </trkpt>
      <trkpt lat="59.9954487" lon="17.8651744">
        <ele>24.1703</ele>
        <time>2014-07-12T11:05:23Z</time>
      </trkpt>
      <trkpt lat="59.9955014" lon="17.8651876">
        <ele>24.651</ele>
        <time>2014-07-12T11:05:24Z</time>
      </trkpt>
      <trkpt lat="59.9955543" lon="17.8652016">
        <ele>24.651</ele>
        <time>2014-07-12T11:05:25Z</time>
      </trkpt>
      <trkpt lat="59.9956076" lon="17.8652135">
        <ele>25.1317</ele>
        <time>2014-07-12T11:05:26Z</time>
      </trkpt>
      <trkpt lat="59.9956611" lon="17.8652252">
        <ele>25.6123</ele>
        <time>2014-07-12T11:05:27Z</time>
      </trkpt>
      <trkpt lat="59.9957137" lon="17.865238">
        <ele>25.6123</ele>
        <time>2014-07-12T11:05:28Z</time>
      </trkpt>
      <trkpt lat="59.9957665" lon="17.8652514">
        <ele>26.0929</ele>
        <time>2014-07-12T11:05:29Z</time>
      </trkpt>
      <trkpt lat="59.9958202" lon="17.8652639">
        <ele>26.0929</ele>
        <time>2014-07-12T11:05:30Z</time>
      </trkpt>
      <trkpt lat="59.9958736" lon="17.8652783">
        <ele>26.0929</ele>
        <time>2014-07-12T11:05:31Z</time>
      </trkpt>
      <trkpt lat="59.9959278" lon="17.8652948">
        <ele>26.0929</ele>
        <time>2014-07-12T11:05:32Z</time>
      </trkpt>
      <trkpt lat="59.9959817" lon="17.8653114">
        <ele>26.5736</ele>
        <time>2014-07-12T11:05:33Z</time>
      </trkpt>
      <trkpt lat="59.9960317" lon="17.8653272">
        <ele>26.5736</ele>
        <time>2014-07-12T11:05:34Z</time>
      </trkpt>
      <trkpt lat="59.996081" lon="17.8653415">
        <ele>26.5736</ele>
        <time>2014-07-12T11:05:35Z</time>
      </trkpt>
      <trkpt lat="59.9961314" lon="17.8653544">
        <ele>26.5736</ele>
        <time>2014-07-12T11:05:36Z</time>
      </trkpt>
      <trkpt lat="59.9961816" lon="17.8653663">
        <ele>27.0543</ele>
        <time>2014-07-12T11:05:37Z</time>
      </trkpt>
      <trkpt lat="59.9962305" lon="17.8653777">
        <ele>27.5349</ele>
        <time>2014-07-12T11:05:38Z</time>
      </trkpt>
      <trkpt lat="59.9962785" lon="17.8653893">
        <ele>27.5349</ele>
        <time>2014-07-12T11:05:39Z</time>
      </trkpt>
      <trkpt lat="59.9963257" lon="17.8654006">
        <ele>28.0155</ele>
        <time>2014-07-12T11:05:40Z</time>
      </trkpt>
      <trkpt lat="59.9963718" lon="17.8654124">
        <ele>28.0155</ele>
        <time>2014-07-12T11:05:41Z</time>
      </trkpt>
      <trkpt lat="59.9964166" lon="17.8654239">
        <ele>28.4962</ele>
        <time>2014-07-12T11:05:42Z</time>
      </trkpt>
      <trkpt lat="59.9964604" lon="17.8654359">
        <ele>28.4962</ele>
        <time>2014-07-12T11:05:43Z</time>
      </trkpt>
      <trkpt lat="59.9965038" lon="17.8654488">
        <ele>28.9769</ele>
        <time>2014-07-12T11:05:44Z</time>
      </trkpt>
      <trkpt lat="59.9965463" lon="17.8654648">
        <ele>28.9769</ele>
        <time>2014-07-12T11:05:45Z</time>
      </trkpt>
      <trkpt lat="59.9965883" lon="17.8654807">
        <ele>29.4575</ele>
        <time>2014-07-12T11:05:46Z</time>
      </trkpt>
      <trkpt lat="59.9966306" lon="17.8654903">
        <ele>29.4575</ele>
        <time>2014-07-12T11:05:47Z</time>
      </trkpt>
      <trkpt lat="59.9966728" lon="17.8654975">
        <ele>29.9381</ele>
        <time>2014-07-12T11:05:48Z</time>
      </trkpt>
      <trkpt lat="59.9967158" lon="17.8655058">
        <ele>29.9381</ele>
        <time>2014-07-12T11:05:49Z</time>
      </trkpt>
      <trkpt lat="59.9967594" lon="17.8655132">
        <ele>29.9381</ele>
        <time>2014-07-12T11:05:50Z</time>
      </trkpt>
      <trkpt lat="59.9968033" lon="17.8655188">
        <ele>29.9381</ele>
        <time>2014-07-12T11:05:51Z</time>
      </trkpt>
      <trkpt lat="59.9968452" lon="17.8655228">
        <ele>29.9381</ele>
        <time>2014-07-12T11:05:52Z</time>
      </trkpt>
      <trkpt lat="59.9968854" lon="17.8655214">
        <ele>29.9381</ele>
        <time>2014-07-12T11:05:53Z</time>
      </trkpt>
      <trkpt lat="59.9969217" lon="17.8655175">
        <ele>29.9381</ele>
        <time>2014-07-12T11:05:54Z</time>
      </trkpt>
      <trkpt lat="59.9969498" lon="17.8655237">
        <ele>29.9381</ele>
        <time>2014-07-12T11:05:55Z</time>
      </trkpt>
      <trkpt lat="59.9969644" lon="17.8655333">
        <ele>29.9381</ele>
        <time>2014-07-12T11:05:56Z</time>
      </trkpt>
      <trkpt lat="59.9969691" lon="17.8655333">
        <ele>29.9381</ele>
        <time>2014-07-12T11:05:57Z</time>
      </trkpt>
      <trkpt lat="59.9969695" lon="17.8655313">
        <ele>29.9381</ele>
        <time>2014-07-12T11:05:58Z</time>
      </trkpt>
      <trkpt lat="59.9969694" lon="17.8655317">
        <ele>30.4188</ele>
        <time>2014-07-12T11:05:59Z</time>
      </trkpt>
      <trkpt lat="59.9970177" lon="17.8654869">
        <ele>30.8995</ele>
        <time>2014-07-12T11:06:41Z</time>
      </trkpt>
      <trkpt lat="59.9970492" lon="17.8654766">
        <ele>30.8995</ele>
        <time>2014-07-12T11:06:42Z</time>
      </trkpt>
      <trkpt lat="59.9970892" lon="17.8654676">
        <ele>30.8995</ele>
        <time>2014-07-12T11:06:43Z</time>
      </trkpt>
      <trkpt lat="59.9971317" lon="17.8654618">
        <ele>30.8995</ele>
        <time>2014-07-12T11:06:44Z</time>
      </trkpt>
      <trkpt lat="59.9971762" lon="17.8654462">
        <ele>30.8995</ele>
        <time>2014-07-12T11:06:45Z</time>
      </trkpt>
      <trkpt lat="59.9972259" lon="17.8654199">
        <ele>30.4188</ele>
        <time>2014-07-12T11:06:46Z</time>
      </trkpt>
      <trkpt lat="59.9972788" lon="17.8653846">
        <ele>29.9381</ele>
        <time>2014-07-12T11:06:47Z</time>
      </trkpt>
      <trkpt lat="59.9973353" lon="17.8653404">
        <ele>29.9381</ele>
        <time>2014-07-12T11:06:48Z</time>
      </trkpt>
      <trkpt lat="59.9973938" lon="17.8652919">
        <ele>29.4575</ele>
        <time>2014-07-12T11:06:49Z</time>
      </trkpt>
      <trkpt lat="59.9974553" lon="17.8652371">
        <ele>28.9769</ele>
        <time>2014-07-12T11:06:50Z</time>
      </trkpt>
      <trkpt lat="59.997519" lon="17.8651748">
        <ele>28.9769</ele>
        <time>2014-07-12T11:06:51Z</time>
      </trkpt>
      <trkpt lat="59.9975838" lon="17.8651027">
        <ele>28.4962</ele>
        <time>2014-07-12T11:06:52Z</time>
      </trkpt>
      <trkpt lat="59.9976482" lon="17.8650235">
        <ele>28.0155</ele>
        <time>2014-07-12T11:06:53Z</time>
      </trkpt>
      <trkpt lat="59.997716" lon="17.8649375">
        <ele>28.0155</ele>
        <time>2014-07-12T11:06:54Z</time>
      </trkpt>
      <trkpt lat="59.9977842" lon="17.864846">
        <ele>27.5349</ele>
        <time>2014-07-12T11:06:55Z</time>
      </trkpt>
      <trkpt lat="59.9978526" lon="17.8647474">
        <ele>27.5349</ele>
        <time>2014-07-12T11:06:56Z</time>
      </trkpt>
      <trkpt lat="59.9979225" lon="17.8646438">
        <ele>27.5349</ele>
        <time>2014-07-12T11:06:57Z</time>
      </trkpt>
      <trkpt lat="59.9979941" lon="17.8645381">
        <ele>27.0543</ele>
        <time>2014-07-12T11:06:58Z</time>
      </trkpt>
      <trkpt lat="59.9980661" lon="17.8644304">
        <ele>27.0543</ele>
        <time>2014-07-12T11:06:59Z</time>
      </trkpt>
      <trkpt lat="59.9981373" lon="17.8643221">
        <ele>27.0543</ele>
        <time>2014-07-12T11:07:00Z</time>
      </trkpt>
      <trkpt lat="59.9982081" lon="17.8642145">
        <ele>27.0543</ele>
        <time>2014-07-12T11:07:01Z</time>
      </trkpt>
      <trkpt lat="59.9982774" lon="17.8641078">
        <ele>27.0543</ele>
        <time>2014-07-12T11:07:02Z</time>
      </trkpt>
      <trkpt lat="59.998346" lon="17.8640014">
        <ele>27.0543</ele>
        <time>2014-07-12T11:07:03Z</time>
      </trkpt>
      <trkpt lat="59.9984147" lon="17.8638951">
        <ele>27.0543</ele>
        <time>2014-07-12T11:07:04Z</time>
      </trkpt>
      <trkpt lat="59.9984833" lon="17.8637891">
        <ele>27.0543</ele>
        <time>2014-07-12T11:07:05Z</time>
      </trkpt>
      <trkpt lat="59.9985516" lon="17.8636839">
        <ele>27.0543</ele>
        <time>2014-07-12T11:07:06Z</time>
      </trkpt>
      <trkpt lat="59.9986184" lon="17.8635803">
        <ele>27.0543</ele>
        <time>2014-07-12T11:07:07Z</time>
      </trkpt>
      <trkpt lat="59.998684" lon="17.8634795">
        <ele>27.0543</ele>
        <time>2014-07-12T11:07:08Z</time>
      </trkpt>
      <trkpt lat="59.9987484" lon="17.863382">
        <ele>27.0543</ele>
        <time>2014-07-12T11:07:09Z</time>
      </trkpt>
      <trkpt lat="59.9988125" lon="17.8632865">
        <ele>27.0543</ele>
        <time>2014-07-12T11:07:10Z</time>
      </trkpt>
      <trkpt lat="59.9988767" lon="17.863194">
        <ele>27.0543</ele>
        <time>2014-07-12T11:07:11Z</time>
      </trkpt>
      <trkpt lat="59.9989404" lon="17.8631022">
        <ele>27.0543</ele>
        <time>2014-07-12T11:07:12Z</time>
      </trkpt>
      <trkpt lat="59.9990031" lon="17.863009">
        <ele>27.0543</ele>
        <time>2014-07-12T11:07:13Z</time>
      </trkpt>
      <trkpt lat="59.9990649" lon="17.8629136">
        <ele>27.0543</ele>
        <time>2014-07-12T11:07:14Z</time>
      </trkpt>
      <trkpt lat="59.9991263" lon="17.8628147">
        <ele>27.0543</ele>
        <time>2014-07-12T11:07:15Z</time>
      </trkpt>
      <trkpt lat="59.9991871" lon="17.8627122">
        <ele>27.0543</ele>
        <time>2014-07-12T11:07:16Z</time>
      </trkpt>
      <trkpt lat="59.999247" lon="17.8626068">
        <ele>26.5736</ele>
        <time>2014-07-12T11:07:17Z</time>
      </trkpt>
      <trkpt lat="59.9993048" lon="17.8624957">
        <ele>26.5736</ele>
        <time>2014-07-12T11:07:18Z</time>
      </trkpt>
      <trkpt lat="59.99936" lon="17.862378">
        <ele>26.5736</ele>
        <time>2014-07-12T11:07:19Z</time>
      </trkpt>
      <trkpt lat="59.999414" lon="17.8622552">
        <ele>26.5736</ele>
        <time>2014-07-12T11:07:20Z</time>
      </trkpt>
      <trkpt lat="59.9994689" lon="17.8621299">
        <ele>26.0929</ele>
        <time>2014-07-12T11:07:21Z</time>
      </trkpt>
      <trkpt lat="59.999526" lon="17.8620039">
        <ele>26.0929</ele>
        <time>2014-07-12T11:07:22Z</time>
      </trkpt>
      <trkpt lat="59.9995865" lon="17.8618814">
        <ele>25.6123</ele>
        <time>2014-07-12T11:07:23Z</time>
      </trkpt>
      <trkpt lat="59.9996513" lon="17.8617656">
        <ele>25.6123</ele>
        <time>2014-07-12T11:07:24Z</time>
      </trkpt>
      <trkpt lat="59.9997195" lon="17.8616583">
        <ele>25.6123</ele>
        <time>2014-07-12T11:07:25Z</time>
      </trkpt>
      <trkpt lat="59.9997916" lon="17.8615622">
        <ele>25.6123</ele>
        <time>2014-07-12T11:07:26Z</time>
      </trkpt>
      <trkpt lat="59.9998681" lon="17.8614783">
        <ele>25.6123</ele>
        <time>2014-07-12T11:07:27Z</time>
      </trkpt>
      <trkpt lat="59.9999464" lon="17.8614057">
        <ele>26.0929</ele>
        <time>2014-07-12T11:07:28Z</time>
      </trkpt>
      <trkpt lat="60.0000246" lon="17.8613436">
        <ele>26.0929</ele>
        <time>2014-07-12T11:07:29Z</time>
      </trkpt>
      <trkpt lat="60.0001029" lon="17.8612912">
        <ele>26.5736</ele>
        <time>2014-07-12T11:07:30Z</time>
      </trkpt>
      <trkpt lat="60.0001807" lon="17.8612467">
        <ele>26.5736</ele>
        <time>2014-07-12T11:07:31Z</time>
      </trkpt>
      <trkpt lat="60.0002583" lon="17.8612089">
        <ele>27.0543</ele>
        <time>2014-07-12T11:07:32Z</time>
      </trkpt>
      <trkpt lat="60.0003345" lon="17.8611755">
        <ele>27.0543</ele>
        <time>2014-07-12T11:07:33Z</time>
      </trkpt>
      <trkpt lat="60.0004087" lon="17.8611426">
        <ele>27.0543</ele>
        <time>2014-07-12T11:07:34Z</time>
      </trkpt>
      <trkpt lat="60.000481" lon="17.861107">
        <ele>27.5349</ele>
        <time>2014-07-12T11:07:35Z</time>
      </trkpt>
      <trkpt lat="60.0005514" lon="17.8610664">
        <ele>27.5349</ele>
        <time>2014-07-12T11:07:36Z</time>
      </trkpt>
      <trkpt lat="60.0006206" lon="17.8610229">
        <ele>28.0155</ele>
        <time>2014-07-12T11:07:37Z</time>
      </trkpt>
      <trkpt lat="60.0006909" lon="17.8609818">
        <ele>28.0155</ele>
        <time>2014-07-12T11:07:38Z</time>
      </trkpt>
      <trkpt lat="60.0007643" lon="17.8609462">
        <ele>27.5349</ele>
        <time>2014-07-12T11:07:39Z</time>
      </trkpt>
      <trkpt lat="60.0008415" lon="17.8609173">
        <ele>27.0543</ele>
        <time>2014-07-12T11:07:40Z</time>
      </trkpt>
      <trkpt lat="60.0009218" lon="17.8608951">
        <ele>27.0543</ele>
        <time>2014-07-12T11:07:41Z</time>
      </trkpt>
      <trkpt lat="60.0010033" lon="17.8608805">
        <ele>27.0543</ele>
        <time>2014-07-12T11:07:42Z</time>
      </trkpt>
      <trkpt lat="60.0010855" lon="17.8608728">
        <ele>26.5736</ele>
        <time>2014-07-12T11:07:43Z</time>
      </trkpt>
      <trkpt lat="60.0011674" lon="17.8608701">
        <ele>26.5736</ele>
        <time>2014-07-12T11:07:44Z</time>
      </trkpt>
      <trkpt lat="60.0012481" lon="17.860869">
        <ele>26.5736</ele>
        <time>2014-07-12T11:07:45Z</time>
      </trkpt>
      <trkpt lat="60.0013281" lon="17.860867">
        <ele>27.0543</ele>
        <time>2014-07-12T11:07:46Z</time>
      </trkpt>
      <trkpt lat="60.0014073" lon="17.8608656">
        <ele>27.0543</ele>
        <time>2014-07-12T11:07:47Z</time>
      </trkpt>
      <trkpt lat="60.0014861" lon="17.8608639">
        <ele>27.0543</ele>
        <time>2014-07-12T11:07:48Z</time>
      </trkpt>
      <trkpt lat="60.0015643" lon="17.8608594">
        <ele>27.0543</ele>
        <time>2014-07-12T11:07:49Z</time>
      </trkpt>
      <trkpt lat="60.0016428" lon="17.8608504">
        <ele>27.0543</ele>
        <time>2014-07-12T11:07:50Z</time>
      </trkpt>
      <trkpt lat="60.0017211" lon="17.8608383">
        <ele>27.0543</ele>
        <time>2014-07-12T11:07:51Z</time>
      </trkpt>
      <trkpt lat="60.001799" lon="17.8608243">
        <ele>27.0543</ele>
        <time>2014-07-12T11:07:52Z</time>
      </trkpt>
      <trkpt lat="60.0018763" lon="17.8608072">
        <ele>27.0543</ele>
        <time>2014-07-12T11:07:53Z</time>
      </trkpt>
      <trkpt lat="60.0019528" lon="17.8607856">
        <ele>27.0543</ele>
        <time>2014-07-12T11:07:54Z</time>
      </trkpt>
      <trkpt lat="60.0020288" lon="17.8607612">
        <ele>27.0543</ele>
        <time>2014-07-12T11:07:55Z</time>
      </trkpt>
      <trkpt lat="60.0021046" lon="17.8607348">
        <ele>27.0543</ele>
        <time>2014-07-12T11:07:56Z</time>
      </trkpt>
      <trkpt lat="60.0021802" lon="17.8607074">
        <ele>27.0543</ele>
        <time>2014-07-12T11:07:57Z</time>
      </trkpt>
      <trkpt lat="60.0022549" lon="17.8606769">
        <ele>27.0543</ele>
        <time>2014-07-12T11:07:58Z</time>
      </trkpt>
      <trkpt lat="60.0023288" lon="17.860642">
        <ele>27.0543</ele>
        <time>2014-07-12T11:07:59Z</time>
      </trkpt>
      <trkpt lat="60.0024024" lon="17.8606044">
        <ele>27.0543</ele>
        <time>2014-07-12T11:08:00Z</time>
      </trkpt>
      <trkpt lat="60.002476" lon="17.860567">
        <ele>27.0543</ele>
        <time>2014-07-12T11:08:01Z</time>
      </trkpt>
      <trkpt lat="60.0025502" lon="17.8605289">
        <ele>27.0543</ele>
        <time>2014-07-12T11:08:02Z</time>
      </trkpt>
      <trkpt lat="60.0026247" lon="17.8604898">
        <ele>27.0543</ele>
        <time>2014-07-12T11:08:03Z</time>
      </trkpt>
      <trkpt lat="60.0026993" lon="17.8604498">
        <ele>27.0543</ele>
        <time>2014-07-12T11:08:04Z</time>
      </trkpt>
      <trkpt lat="60.0027739" lon="17.8604084">
        <ele>27.0543</ele>
        <time>2014-07-12T11:08:05Z</time>
      </trkpt>
      <trkpt lat="60.0028478" lon="17.8603671">
        <ele>27.0543</ele>
        <time>2014-07-12T11:08:06Z</time>
      </trkpt>
      <trkpt lat="60.0029215" lon="17.8603278">
        <ele>27.0543</ele>
        <time>2014-07-12T11:08:07Z</time>
      </trkpt>
      <trkpt lat="60.002995" lon="17.8602904">
        <ele>27.0543</ele>
        <time>2014-07-12T11:08:08Z</time>
      </trkpt>
      <trkpt lat="60.0030686" lon="17.860254">
        <ele>27.0543</ele>
        <time>2014-07-12T11:08:09Z</time>
      </trkpt>
      <trkpt lat="60.0031427" lon="17.8602163">
        <ele>27.0543</ele>
        <time>2014-07-12T11:08:10Z</time>
      </trkpt>
      <trkpt lat="60.0032177" lon="17.8601764">
        <ele>26.5736</ele>
        <time>2014-07-12T11:08:11Z</time>
      </trkpt>
      <trkpt lat="60.0032929" lon="17.8601351">
        <ele>26.5736</ele>
        <time>2014-07-12T11:08:12Z</time>
      </trkpt>
      <trkpt lat="60.0033686" lon="17.8600932">
        <ele>26.5736</ele>
        <time>2014-07-12T11:08:13Z</time>
      </trkpt>
      <trkpt lat="60.0034442" lon="17.8600528">
        <ele>26.5736</ele>
        <time>2014-07-12T11:08:14Z</time>
      </trkpt>
      <trkpt lat="60.0035189" lon="17.8600108">
        <ele>26.5736</ele>
        <time>2014-07-12T11:08:15Z</time>
      </trkpt>
      <trkpt lat="60.0035923" lon="17.8599672">
        <ele>26.5736</ele>
        <time>2014-07-12T11:08:16Z</time>
      </trkpt>
      <trkpt lat="60.0036643" lon="17.8599298">
        <ele>26.5736</ele>
        <time>2014-07-12T11:08:17Z</time>
      </trkpt>
      <trkpt lat="60.0037353" lon="17.8599004">
        <ele>26.5736</ele>
        <time>2014-07-12T11:08:18Z</time>
      </trkpt>
      <trkpt lat="60.0038037" lon="17.8598677">
        <ele>26.5736</ele>
        <time>2014-07-12T11:08:19Z</time>
      </trkpt>
      <trkpt lat="60.0038687" lon="17.8598278">
        <ele>26.5736</ele>
        <time>2014-07-12T11:08:20Z</time>
      </trkpt>
      <trkpt lat="60.0039315" lon="17.8597895">
        <ele>26.5736</ele>
        <time>2014-07-12T11:08:21Z</time>
      </trkpt>
      <trkpt lat="60.0039933" lon="17.8597537">
        <ele>26.5736</ele>
        <time>2014-07-12T11:08:22Z</time>
      </trkpt>
      <trkpt lat="60.0040559" lon="17.8597172">
        <ele>26.5736</ele>
        <time>2014-07-12T11:08:23Z</time>
      </trkpt>
      <trkpt lat="60.0041198" lon="17.8596808">
        <ele>26.5736</ele>
        <time>2014-07-12T11:08:24Z</time>
      </trkpt>
      <trkpt lat="60.0041845" lon="17.8596423">
        <ele>26.0929</ele>
        <time>2014-07-12T11:08:25Z</time>
      </trkpt>
      <trkpt lat="60.0042491" lon="17.8596004">
        <ele>25.6123</ele>
        <time>2014-07-12T11:08:26Z</time>
      </trkpt>
      <trkpt lat="60.0043138" lon="17.8595575">
        <ele>25.6123</ele>
        <time>2014-07-12T11:08:27Z</time>
      </trkpt>
      <trkpt lat="60.004379" lon="17.8595146">
        <ele>25.6123</ele>
        <time>2014-07-12T11:08:28Z</time>
      </trkpt>
      <trkpt lat="60.0044439" lon="17.8594721">
        <ele>25.1317</ele>
        <time>2014-07-12T11:08:29Z</time>
      </trkpt>
      <trkpt lat="60.004508" lon="17.8594306">
        <ele>25.1317</ele>
        <time>2014-07-12T11:08:30Z</time>
      </trkpt>
      <trkpt lat="60.0045713" lon="17.8593911">
        <ele>25.1317</ele>
        <time>2014-07-12T11:08:31Z</time>
      </trkpt>
      <trkpt lat="60.0046343" lon="17.8593534">
        <ele>25.1317</ele>
        <time>2014-07-12T11:08:32Z</time>
      </trkpt>
      <trkpt lat="60.0046977" lon="17.8593167">
        <ele>25.1317</ele>
        <time>2014-07-12T11:08:33Z</time>
      </trkpt>
      <trkpt lat="60.004761" lon="17.8592809">
        <ele>25.1317</ele>
        <time>2014-07-12T11:08:34Z</time>
      </trkpt>
      <trkpt lat="60.0048245" lon="17.8592463">
        <ele>25.1317</ele>
        <time>2014-07-12T11:08:35Z</time>
      </trkpt>
      <trkpt lat="60.0048882" lon="17.8592121">
        <ele>25.1317</ele>
        <time>2014-07-12T11:08:36Z</time>
      </trkpt>
      <trkpt lat="60.0049521" lon="17.8591789">
        <ele>25.1317</ele>
        <time>2014-07-12T11:08:37Z</time>
      </trkpt>
      <trkpt lat="60.0050159" lon="17.8591482">
        <ele>25.6123</ele>
        <time>2014-07-12T11:08:38Z</time>
      </trkpt>
      <trkpt lat="60.0050796" lon="17.8591196">
        <ele>25.6123</ele>
        <time>2014-07-12T11:08:39Z</time>
      </trkpt>
      <trkpt lat="60.005143" lon="17.8590922">
        <ele>25.6123</ele>
        <time>2014-07-12T11:08:40Z</time>
      </trkpt>
      <trkpt lat="60.005206" lon="17.8590664">
        <ele>25.6123</ele>
        <time>2014-07-12T11:08:41Z</time>
      </trkpt>
      <trkpt lat="60.0052691" lon="17.8590426">
        <ele>25.6123</ele>
        <time>2014-07-12T11:08:42Z</time>
      </trkpt>
      <trkpt lat="60.0053324" lon="17.8590182">
        <ele>25.6123</ele>
        <time>2014-07-12T11:08:43Z</time>
      </trkpt>
      <trkpt lat="60.0053965" lon="17.8589916">
        <ele>25.6123</ele>
        <time>2014-07-12T11:08:44Z</time>
      </trkpt>
      <trkpt lat="60.0054617" lon="17.8589634">
        <ele>25.6123</ele>
        <time>2014-07-12T11:08:45Z</time>
      </trkpt>
      <trkpt lat="60.0055282" lon="17.8589357">
        <ele>25.1317</ele>
        <time>2014-07-12T11:08:46Z</time>
      </trkpt>
      <trkpt lat="60.0055978" lon="17.8589077">
        <ele>25.1317</ele>
        <time>2014-07-12T11:08:47Z</time>
      </trkpt>
      <trkpt lat="60.0056695" lon="17.8588785">
        <ele>25.1317</ele>
        <time>2014-07-12T11:08:48Z</time>
      </trkpt>
      <trkpt lat="60.0057422" lon="17.8588503">
        <ele>25.1317</ele>
        <time>2014-07-12T11:08:49Z</time>
      </trkpt>
      <trkpt lat="60.0058159" lon="17.8588224">
        <ele>25.1317</ele>
        <time>2014-07-12T11:08:50Z</time>
      </trkpt>
      <trkpt lat="60.0058898" lon="17.8587934">
        <ele>25.1317</ele>
        <time>2014-07-12T11:08:51Z</time>
      </trkpt>
      <trkpt lat="60.0059638" lon="17.8587634">
        <ele>25.1317</ele>
        <time>2014-07-12T11:08:52Z</time>
      </trkpt>
      <trkpt lat="60.0060384" lon="17.8587337">
        <ele>24.651</ele>
        <time>2014-07-12T11:08:53Z</time>
      </trkpt>
      <trkpt lat="60.0061141" lon="17.8587048">
        <ele>24.651</ele>
        <time>2014-07-12T11:08:54Z</time>
      </trkpt>
      <trkpt lat="60.0061908" lon="17.8586764">
        <ele>24.651</ele>
        <time>2014-07-12T11:08:55Z</time>
      </trkpt>
      <trkpt lat="60.0062681" lon="17.8586514">
        <ele>24.651</ele>
        <time>2014-07-12T11:08:56Z</time>
      </trkpt>
      <trkpt lat="60.0063453" lon="17.8586255">
        <ele>24.651</ele>
        <time>2014-07-12T11:08:57Z</time>
      </trkpt>
      <trkpt lat="60.0064225" lon="17.8585957">
        <ele>24.651</ele>
        <time>2014-07-12T11:08:58Z</time>
      </trkpt>
      <trkpt lat="60.0065002" lon="17.858565">
        <ele>24.1703</ele>
        <time>2014-07-12T11:08:59Z</time>
      </trkpt>
      <trkpt lat="60.006578" lon="17.8585332">
        <ele>24.1703</ele>
        <time>2014-07-12T11:09:00Z</time>
      </trkpt>
      <trkpt lat="60.0066554" lon="17.8585032">
        <ele>24.1703</ele>
        <time>2014-07-12T11:09:01Z</time>
      </trkpt>
      <trkpt lat="60.0067329" lon="17.858478">
        <ele>24.1703</ele>
        <time>2014-07-12T11:09:02Z</time>
      </trkpt>
      <trkpt lat="60.0068089" lon="17.8584548">
        <ele>24.651</ele>
        <time>2014-07-12T11:09:03Z</time>
      </trkpt>
      <trkpt lat="60.0068826" lon="17.8584293">
        <ele>24.651</ele>
        <time>2014-07-12T11:09:04Z</time>
      </trkpt>
      <trkpt lat="60.0069546" lon="17.8584044">
        <ele>24.651</ele>
        <time>2014-07-12T11:09:05Z</time>
      </trkpt>
      <trkpt lat="60.0070263" lon="17.8583858">
        <ele>24.651</ele>
        <time>2014-07-12T11:09:06Z</time>
      </trkpt>
      <trkpt lat="60.0070987" lon="17.8583745">
        <ele>24.1703</ele>
        <time>2014-07-12T11:09:07Z</time>
      </trkpt>
      <trkpt lat="60.0071718" lon="17.8583679">
        <ele>24.1703</ele>
        <time>2014-07-12T11:09:08Z</time>
      </trkpt>
      <trkpt lat="60.0072453" lon="17.8583619">
        <ele>24.1703</ele>
        <time>2014-07-12T11:09:09Z</time>
      </trkpt>
      <trkpt lat="60.0073188" lon="17.8583557">
        <ele>24.1703</ele>
        <time>2014-07-12T11:09:10Z</time>
      </trkpt>
      <trkpt lat="60.0073924" lon="17.85835">
        <ele>24.1703</ele>
        <time>2014-07-12T11:09:11Z</time>
      </trkpt>
      <trkpt lat="60.0074665" lon="17.8583439">
        <ele>24.1703</ele>
        <time>2014-07-12T11:09:12Z</time>
      </trkpt>
      <trkpt lat="60.0075416" lon="17.8583354">
        <ele>24.1703</ele>
        <time>2014-07-12T11:09:13Z</time>
      </trkpt>
      <trkpt lat="60.0076172" lon="17.8583237">
        <ele>24.1703</ele>
        <time>2014-07-12T11:09:14Z</time>
      </trkpt>
      <trkpt lat="60.0076927" lon="17.8583095">
        <ele>24.1703</ele>
        <time>2014-07-12T11:09:15Z</time>
      </trkpt>
      <trkpt lat="60.007768" lon="17.8582924">
        <ele>24.1703</ele>
        <time>2014-07-12T11:09:16Z</time>
      </trkpt>
      <trkpt lat="60.0078431" lon="17.8582734">
        <ele>24.1703</ele>
        <time>2014-07-12T11:09:17Z</time>
      </trkpt>
      <trkpt lat="60.0079175" lon="17.8582551">
        <ele>24.1703</ele>
        <time>2014-07-12T11:09:18Z</time>
      </trkpt>
      <trkpt lat="60.0079913" lon="17.858239">
        <ele>24.1703</ele>
        <time>2014-07-12T11:09:19Z</time>
      </trkpt>
      <trkpt lat="60.0080647" lon="17.8582215">
        <ele>24.1703</ele>
        <time>2014-07-12T11:09:20Z</time>
      </trkpt>
      <trkpt lat="60.0081372" lon="17.8582002">
        <ele>24.1703</ele>
        <time>2014-07-12T11:09:21Z</time>
      </trkpt>
      <trkpt lat="60.0082099" lon="17.8581765">
        <ele>24.651</ele>
        <time>2014-07-12T11:09:22Z</time>
      </trkpt>
      <trkpt lat="60.0082834" lon="17.8581541">
        <ele>24.651</ele>
        <time>2014-07-12T11:09:23Z</time>
      </trkpt>
      <trkpt lat="60.0083575" lon="17.8581356">
        <ele>24.651</ele>
        <time>2014-07-12T11:09:24Z</time>
      </trkpt>
      <trkpt lat="60.0084316" lon="17.858119">
        <ele>24.651</ele>
        <time>2014-07-12T11:09:25Z</time>
      </trkpt>
      <trkpt lat="60.0085046" lon="17.8580994">
        <ele>24.651</ele>
        <time>2014-07-12T11:09:26Z</time>
      </trkpt>
      <trkpt lat="60.0085762" lon="17.8580775">
        <ele>24.651</ele>
        <time>2014-07-12T11:09:27Z</time>
      </trkpt>
      <trkpt lat="60.0086471" lon="17.8580545">
        <ele>25.1317</ele>
        <time>2014-07-12T11:09:28Z</time>
      </trkpt>
      <trkpt lat="60.0087175" lon="17.8580289">
        <ele>25.1317</ele>
        <time>2014-07-12T11:09:29Z</time>
      </trkpt>
      <trkpt lat="60.008788" lon="17.8580041">
        <ele>25.1317</ele>
        <time>2014-07-12T11:09:30Z</time>
      </trkpt>
      <trkpt lat="60.0088588" lon="17.8579808">
        <ele>25.1317</ele>
        <time>2014-07-12T11:09:31Z</time>
      </trkpt>
      <trkpt lat="60.0089299" lon="17.8579568">
        <ele>25.6123</ele>
        <time>2014-07-12T11:09:32Z</time>
      </trkpt>
      <trkpt lat="60.0090013" lon="17.8579309">
        <ele>25.6123</ele>
        <time>2014-07-12T11:09:33Z</time>
      </trkpt>
      <trkpt lat="60.0090723" lon="17.8579025">
        <ele>25.6123</ele>
        <time>2014-07-12T11:09:34Z</time>
      </trkpt>
      <trkpt lat="60.0091431" lon="17.8578727">
        <ele>25.6123</ele>
        <time>2014-07-12T11:09:35Z</time>
      </trkpt>
      <trkpt lat="60.0092148" lon="17.8578432">
        <ele>25.6123</ele>
        <time>2014-07-12T11:09:36Z</time>
      </trkpt>
      <trkpt lat="60.0092872" lon="17.8578143">
        <ele>25.6123</ele>
        <time>2014-07-12T11:09:37Z</time>
      </trkpt>
      <trkpt lat="60.0093605" lon="17.8577858">
        <ele>25.6123</ele>
        <time>2014-07-12T11:09:38Z</time>
      </trkpt>
      <trkpt lat="60.0094348" lon="17.8577567">
        <ele>25.6123</ele>
        <time>2014-07-12T11:09:39Z</time>
      </trkpt>
      <trkpt lat="60.0095097" lon="17.8577263">
        <ele>25.6123</ele>
        <time>2014-07-12T11:09:40Z</time>
      </trkpt>
      <trkpt lat="60.0095857" lon="17.8576972">
        <ele>25.6123</ele>
        <time>2014-07-12T11:09:41Z</time>
      </trkpt>
      <trkpt lat="60.0096625" lon="17.857671">
        <ele>26.0929</ele>
        <time>2014-07-12T11:09:42Z</time>
      </trkpt>
      <trkpt lat="60.0097395" lon="17.8576476">
        <ele>26.0929</ele>
        <time>2014-07-12T11:09:43Z</time>
      </trkpt>
      <trkpt lat="60.0098161" lon="17.8576277">
        <ele>26.0929</ele>
        <time>2014-07-12T11:09:44Z</time>
      </trkpt>
      <trkpt lat="60.0098918" lon="17.8576138">
        <ele>26.0929</ele>
        <time>2014-07-12T11:09:45Z</time>
      </trkpt>
      <trkpt lat="60.0099664" lon="17.8576056">
        <ele>26.0929</ele>
        <time>2014-07-12T11:09:46Z</time>
      </trkpt>
      <trkpt lat="60.0100403" lon="17.8576015">
        <ele>26.5736</ele>
        <time>2014-07-12T11:09:47Z</time>
      </trkpt>
      <trkpt lat="60.0101141" lon="17.857603">
        <ele>26.5736</ele>
        <time>2014-07-12T11:09:48Z</time>
      </trkpt>
      <trkpt lat="60.0101876" lon="17.8576087">
        <ele>26.5736</ele>
        <time>2014-07-12T11:09:49Z</time>
      </trkpt>
      <trkpt lat="60.0102601" lon="17.8576158">
        <ele>26.5736</ele>
        <time>2014-07-12T11:09:50Z</time>
      </trkpt>
      <trkpt lat="60.0103312" lon="17.8576249">
        <ele>27.0543</ele>
        <time>2014-07-12T11:09:51Z</time>
      </trkpt>
      <trkpt lat="60.010401" lon="17.8576367">
        <ele>27.0543</ele>
        <time>2014-07-12T11:09:52Z</time>
      </trkpt>
      <trkpt lat="60.0104699" lon="17.8576505">
        <ele>27.0543</ele>
        <time>2014-07-12T11:09:53Z</time>
      </trkpt>
      <trkpt lat="60.0105382" lon="17.8576656">
        <ele>27.5349</ele>
        <time>2014-07-12T11:09:54Z</time>
      </trkpt>
      <trkpt lat="60.0106055" lon="17.8576828">
        <ele>27.5349</ele>
        <time>2014-07-12T11:09:55Z</time>
      </trkpt>
      <trkpt lat="60.0106721" lon="17.8577034">
        <ele>27.5349</ele>
        <time>2014-07-12T11:09:56Z</time>
      </trkpt>
      <trkpt lat="60.0107382" lon="17.8577251">
        <ele>28.0155</ele>
        <time>2014-07-12T11:09:57Z</time>
      </trkpt>
      <trkpt lat="60.0108021" lon="17.8577481">
        <ele>28.0155</ele>
        <time>2014-07-12T11:09:58Z</time>
      </trkpt>
      <trkpt lat="60.0108648" lon="17.8577719">
        <ele>28.4962</ele>
        <time>2014-07-12T11:09:59Z</time>
      </trkpt>
      <trkpt lat="60.0109276" lon="17.8577935">
        <ele>28.4962</ele>
        <time>2014-07-12T11:10:00Z</time>
      </trkpt>
      <trkpt lat="60.01099" lon="17.8578134">
        <ele>28.9769</ele>
        <time>2014-07-12T11:10:01Z</time>
      </trkpt>
      <trkpt lat="60.0110538" lon="17.857828">
        <ele>28.9769</ele>
        <time>2014-07-12T11:10:02Z</time>
      </trkpt>
      <trkpt lat="60.0111178" lon="17.8578361">
        <ele>28.9769</ele>
        <time>2014-07-12T11:10:03Z</time>
      </trkpt>
      <trkpt lat="60.0111822" lon="17.8578428">
        <ele>28.9769</ele>
        <time>2014-07-12T11:10:04Z</time>
      </trkpt>
      <trkpt lat="60.0112464" lon="17.857847">
        <ele>29.4575</ele>
        <time>2014-07-12T11:10:05Z</time>
      </trkpt>
      <trkpt lat="60.0113112" lon="17.8578455">
        <ele>29.4575</ele>
        <time>2014-07-12T11:10:06Z</time>
      </trkpt>
      <trkpt lat="60.0113775" lon="17.8578398">
        <ele>29.4575</ele>
        <time>2014-07-12T11:10:07Z</time>
      </trkpt>
      <trkpt lat="60.0114444" lon="17.857832">
        <ele>28.9769</ele>
        <time>2014-07-12T11:10:08Z</time>
      </trkpt>
      <trkpt lat="60.0115122" lon="17.8578211">
        <ele>28.9769</ele>
        <time>2014-07-12T11:10:09Z</time>
      </trkpt>
      <trkpt lat="60.0115814" lon="17.8578062">
        <ele>28.9769</ele>
        <time>2014-07-12T11:10:10Z</time>
      </trkpt>
      <trkpt lat="60.0116516" lon="17.8577879">
        <ele>28.9769</ele>
        <time>2014-07-12T11:10:11Z</time>
      </trkpt>
      <trkpt lat="60.0117213" lon="17.8577667">
        <ele>28.9769</ele>
        <time>2014-07-12T11:10:12Z</time>
      </trkpt>
      <trkpt lat="60.0117904" lon="17.8577453">
        <ele>29.4575</ele>
        <time>2014-07-12T11:10:13Z</time>
      </trkpt>
      <trkpt lat="60.0118587" lon="17.8577257">
        <ele>29.4575</ele>
        <time>2014-07-12T11:10:14Z</time>
      </trkpt>
      <trkpt lat="60.0119255" lon="17.8577088">
        <ele>29.4575</ele>
        <time>2014-07-12T11:10:15Z</time>
      </trkpt>
      <trkpt lat="60.0119918" lon="17.857694">
        <ele>29.4575</ele>
        <time>2014-07-12T11:10:16Z</time>
      </trkpt>
      <trkpt lat="60.0120585" lon="17.8576797">
        <ele>29.4575</ele>
        <time>2014-07-12T11:10:17Z</time>
      </trkpt>
      <trkpt lat="60.0121259" lon="17.8576676">
        <ele>29.9381</ele>
        <time>2014-07-12T11:10:18Z</time>
      </trkpt>
      <trkpt lat="60.0121939" lon="17.8576578">
        <ele>29.9381</ele>
        <time>2014-07-12T11:10:19Z</time>
      </trkpt>
      <trkpt lat="60.0122623" lon="17.8576502">
        <ele>29.9381</ele>
        <time>2014-07-12T11:10:20Z</time>
      </trkpt>
      <trkpt lat="60.0123312" lon="17.8576479">
        <ele>29.9381</ele>
        <time>2014-07-12T11:10:21Z</time>
      </trkpt>
      <trkpt lat="60.012401" lon="17.8576521">
        <ele>29.9381</ele>
        <time>2014-07-12T11:10:22Z</time>
      </trkpt>
      <trkpt lat="60.01247" lon="17.8576636">
        <ele>29.9381</ele>
        <time>2014-07-12T11:10:23Z</time>
      </trkpt>
      <trkpt lat="60.0125389" lon="17.8576811">
        <ele>29.4575</ele>
        <time>2014-07-12T11:10:24Z</time>
      </trkpt>
      <trkpt lat="60.0126088" lon="17.8577019">
        <ele>29.4575</ele>
        <time>2014-07-12T11:10:25Z</time>
      </trkpt>
      <trkpt lat="60.0126792" lon="17.8577243">
        <ele>29.4575</ele>
        <time>2014-07-12T11:10:26Z</time>
      </trkpt>
      <trkpt lat="60.0127456" lon="17.8577327">
        <ele>29.4575</ele>
        <time>2014-07-12T11:10:27Z</time>
      </trkpt>
      <trkpt lat="60.0128145" lon="17.8577279">
        <ele>29.4575</ele>
        <time>2014-07-12T11:10:28Z</time>
      </trkpt>
      <trkpt lat="60.0128917" lon="17.8577206">
        <ele>29.4575</ele>
        <time>2014-07-12T11:10:29Z</time>
      </trkpt>
      <trkpt lat="60.0129705" lon="17.857716">
        <ele>28.9769</ele>
        <time>2014-07-12T11:10:30Z</time>
      </trkpt>
      <trkpt lat="60.0130479" lon="17.8577134">
        <ele>28.9769</ele>
        <time>2014-07-12T11:10:31Z</time>
      </trkpt>
      <trkpt lat="60.0131242" lon="17.8577026">
        <ele>28.9769</ele>
        <time>2014-07-12T11:10:32Z</time>
      </trkpt>
      <trkpt lat="60.0132004" lon="17.8576847">
        <ele>28.4962</ele>
        <time>2014-07-12T11:10:33Z</time>
      </trkpt>
      <trkpt lat="60.0132766" lon="17.8576606">
        <ele>28.4962</ele>
        <time>2014-07-12T11:10:34Z</time>
      </trkpt>
      <trkpt lat="60.0133522" lon="17.8576315">
        <ele>28.4962</ele>
        <time>2014-07-12T11:10:35Z</time>
      </trkpt>
      <trkpt lat="60.0134263" lon="17.8575935">
        <ele>28.0155</ele>
        <time>2014-07-12T11:10:36Z</time>
      </trkpt>
      <trkpt lat="60.0134983" lon="17.8575445">
        <ele>28.0155</ele>
        <time>2014-07-12T11:10:37Z</time>
      </trkpt>
      <trkpt lat="60.0135687" lon="17.8574875">
        <ele>28.0155</ele>
        <time>2014-07-12T11:10:38Z</time>
      </trkpt>
      <trkpt lat="60.0136389" lon="17.8574249">
        <ele>28.0155</ele>
        <time>2014-07-12T11:10:39Z</time>
      </trkpt>
      <trkpt lat="60.0137091" lon="17.8573612">
        <ele>28.0155</ele>
        <time>2014-07-12T11:10:40Z</time>
      </trkpt>
      <trkpt lat="60.0137793" lon="17.8572993">
        <ele>28.0155</ele>
        <time>2014-07-12T11:10:41Z</time>
      </trkpt>
      <trkpt lat="60.0138494" lon="17.8572415">
        <ele>28.0155</ele>
        <time>2014-07-12T11:10:42Z</time>
      </trkpt>
      <trkpt lat="60.0139199" lon="17.85719">
        <ele>28.0155</ele>
        <time>2014-07-12T11:10:43Z</time>
      </trkpt>
      <trkpt lat="60.0139908" lon="17.8571432">
        <ele>28.0155</ele>
        <time>2014-07-12T11:10:44Z</time>
      </trkpt>
      <trkpt lat="60.0140609" lon="17.8571006">
        <ele>28.4962</ele>
        <time>2014-07-12T11:10:45Z</time>
      </trkpt>
      <trkpt lat="60.01413" lon="17.8570636">
        <ele>28.4962</ele>
        <time>2014-07-12T11:10:46Z</time>
      </trkpt>
      <trkpt lat="60.0141981" lon="17.8570305">
        <ele>28.4962</ele>
        <time>2014-07-12T11:10:47Z</time>
      </trkpt>
      <trkpt lat="60.0142653" lon="17.8569981">
        <ele>28.4962</ele>
        <time>2014-07-12T11:10:48Z</time>
      </trkpt>
      <trkpt lat="60.0143313" lon="17.8569674">
        <ele>28.4962</ele>
        <time>2014-07-12T11:10:49Z</time>
      </trkpt>
      <trkpt lat="60.0143966" lon="17.8569394">
        <ele>28.4962</ele>
        <time>2014-07-12T11:10:50Z</time>
      </trkpt>
      <trkpt lat="60.0144621" lon="17.8569139">
        <ele>28.4962</ele>
        <time>2014-07-12T11:10:51Z</time>
      </trkpt>
      <trkpt lat="60.0145275" lon="17.8568916">
        <ele>28.4962</ele>
        <time>2014-07-12T11:10:52Z</time>
      </trkpt>
      <trkpt lat="60.0145928" lon="17.8568712">
        <ele>28.9769</ele>
        <time>2014-07-12T11:10:53Z</time>
      </trkpt>
      <trkpt lat="60.0146574" lon="17.8568486">
        <ele>28.9769</ele>
        <time>2014-07-12T11:10:54Z</time>
      </trkpt>
      <trkpt lat="60.0147206" lon="17.8568235">
        <ele>28.9769</ele>
        <time>2014-07-12T11:10:55Z</time>
      </trkpt>
      <trkpt lat="60.0147829" lon="17.8568007">
        <ele>28.9769</ele>
        <time>2014-07-12T11:10:56Z</time>
      </trkpt>
      <trkpt lat="60.014844" lon="17.8567795">
        <ele>28.9769</ele>
        <time>2014-07-12T11:10:57Z</time>
      </trkpt>
      <trkpt lat="60.014904" lon="17.8567541">
        <ele>29.4575</ele>
        <time>2014-07-12T11:10:58Z</time>
      </trkpt>
      <trkpt lat="60.0149621" lon="17.8567231">
        <ele>29.4575</ele>
        <time>2014-07-12T11:10:59Z</time>
      </trkpt>
      <trkpt lat="60.0150181" lon="17.8566865">
        <ele>29.4575</ele>
        <time>2014-07-12T11:11:00Z</time>
      </trkpt>
      <trkpt lat="60.0150722" lon="17.8566421">
        <ele>29.9381</ele>
        <time>2014-07-12T11:11:01Z</time>
      </trkpt>
      <trkpt lat="60.0151244" lon="17.8565934">
        <ele>29.9381</ele>
        <time>2014-07-12T11:11:02Z</time>
      </trkpt>
      <trkpt lat="60.0151751" lon="17.856542">
        <ele>29.9381</ele>
        <time>2014-07-12T11:11:03Z</time>
      </trkpt>
      <trkpt lat="60.0152247" lon="17.8564879">
        <ele>30.4188</ele>
        <time>2014-07-12T11:11:04Z</time>
      </trkpt>
      <trkpt lat="60.0152728" lon="17.8564277">
        <ele>30.4188</ele>
        <time>2014-07-12T11:11:05Z</time>
      </trkpt>
      <trkpt lat="60.0153171" lon="17.8563553">
        <ele>29.9381</ele>
        <time>2014-07-12T11:11:06Z</time>
      </trkpt>
      <trkpt lat="60.0153579" lon="17.8562687">
        <ele>29.9381</ele>
        <time>2014-07-12T11:11:07Z</time>
      </trkpt>
      <trkpt lat="60.0153988" lon="17.8561766">
        <ele>29.9381</ele>
        <time>2014-07-12T11:11:08Z</time>
      </trkpt>
      <trkpt lat="60.0154418" lon="17.8560842">
        <ele>29.9381</ele>
        <time>2014-07-12T11:11:09Z</time>
      </trkpt>
      <trkpt lat="60.0154852" lon="17.8559921">
        <ele>29.9381</ele>
        <time>2014-07-12T11:11:10Z</time>
      </trkpt>
      <trkpt lat="60.0155292" lon="17.8559058">
        <ele>29.4575</ele>
        <time>2014-07-12T11:11:11Z</time>
      </trkpt>
      <trkpt lat="60.0155732" lon="17.8558179">
        <ele>29.4575</ele>
        <time>2014-07-12T11:11:12Z</time>
      </trkpt>
      <trkpt lat="60.0156179" lon="17.8557323">
        <ele>29.4575</ele>
        <time>2014-07-12T11:11:13Z</time>
      </trkpt>
      <trkpt lat="60.0156645" lon="17.8556531">
        <ele>28.9769</ele>
        <time>2014-07-12T11:11:14Z</time>
      </trkpt>
      <trkpt lat="60.0157136" lon="17.8555766">
        <ele>28.9769</ele>
        <time>2014-07-12T11:11:15Z</time>
      </trkpt>
      <trkpt lat="60.0157644" lon="17.8555009">
        <ele>28.9769</ele>
        <time>2014-07-12T11:11:16Z</time>
      </trkpt>
      <trkpt lat="60.0158169" lon="17.8554232">
        <ele>28.4962</ele>
        <time>2014-07-12T11:11:17Z</time>
      </trkpt>
      <trkpt lat="60.0158721" lon="17.8553498">
        <ele>28.4962</ele>
        <time>2014-07-12T11:11:18Z</time>
      </trkpt>
      <trkpt lat="60.0159291" lon="17.8552736">
        <ele>28.0155</ele>
        <time>2014-07-12T11:11:19Z</time>
      </trkpt>
      <trkpt lat="60.0159874" lon="17.8551907">
        <ele>27.5349</ele>
        <time>2014-07-12T11:11:20Z</time>
      </trkpt>
      <trkpt lat="60.0160462" lon="17.8550954">
        <ele>27.5349</ele>
        <time>2014-07-12T11:11:21Z</time>
      </trkpt>
      <trkpt lat="60.0161049" lon="17.8549906">
        <ele>27.0543</ele>
        <time>2014-07-12T11:11:22Z</time>
      </trkpt>
      <trkpt lat="60.0161599" lon="17.8548693">
        <ele>26.5736</ele>
        <time>2014-07-12T11:11:23Z</time>
      </trkpt>
      <trkpt lat="60.0162098" lon="17.8547316">
        <ele>26.0929</ele>
        <time>2014-07-12T11:11:24Z</time>
      </trkpt>
      <trkpt lat="60.0162555" lon="17.8545826">
        <ele>25.6123</ele>
        <time>2014-07-12T11:11:25Z</time>
      </trkpt>
      <trkpt lat="60.0162949" lon="17.8544225">
        <ele>25.1317</ele>
        <time>2014-07-12T11:11:26Z</time>
      </trkpt>
      <trkpt lat="60.0163313" lon="17.8542549">
        <ele>24.651</ele>
        <time>2014-07-12T11:11:27Z</time>
      </trkpt>
      <trkpt lat="60.0163686" lon="17.8540822">
        <ele>24.1703</ele>
        <time>2014-07-12T11:11:28Z</time>
      </trkpt>
      <trkpt lat="60.0164067" lon="17.8539074">
        <ele>24.1703</ele>
        <time>2014-07-12T11:11:29Z</time>
      </trkpt>
      <trkpt lat="60.016445" lon="17.8537299">
        <ele>24.1703</ele>
        <time>2014-07-12T11:11:30Z</time>
      </trkpt>
      <trkpt lat="60.0164834" lon="17.8535513">
        <ele>23.6896</ele>
        <time>2014-07-12T11:11:31Z</time>
      </trkpt>
      <trkpt lat="60.016522" lon="17.8533731">
        <ele>23.6896</ele>
        <time>2014-07-12T11:11:32Z</time>
      </trkpt>
      <trkpt lat="60.0165613" lon="17.8531968">
        <ele>23.6896</ele>
        <time>2014-07-12T11:11:33Z</time>
      </trkpt>
      <trkpt lat="60.016602" lon="17.8530223">
        <ele>23.209</ele>
        <time>2014-07-12T11:11:34Z</time>
      </trkpt>
      <trkpt lat="60.016644" lon="17.8528485">
        <ele>23.209</ele>
        <time>2014-07-12T11:11:35Z</time>
      </trkpt>
      <trkpt lat="60.0166871" lon="17.852675">
        <ele>23.209</ele>
        <time>2014-07-12T11:11:36Z</time>
      </trkpt>
      <trkpt lat="60.016731" lon="17.8525027">
        <ele>23.209</ele>
        <time>2014-07-12T11:11:37Z</time>
      </trkpt>
      <trkpt lat="60.0167745" lon="17.8523313">
        <ele>22.7283</ele>
        <time>2014-07-12T11:11:38Z</time>
      </trkpt>
      <trkpt lat="60.0168148" lon="17.8521601">
        <ele>23.209</ele>
        <time>2014-07-12T11:11:39Z</time>
      </trkpt>
      <trkpt lat="60.0168492" lon="17.8519873">
        <ele>23.209</ele>
        <time>2014-07-12T11:11:40Z</time>
      </trkpt>
      <trkpt lat="60.0168777" lon="17.8518122">
        <ele>23.209</ele>
        <time>2014-07-12T11:11:41Z</time>
      </trkpt>
      <trkpt lat="60.0169013" lon="17.8516346">
        <ele>23.209</ele>
        <time>2014-07-12T11:11:42Z</time>
      </trkpt>
      <trkpt lat="60.0169212" lon="17.8514561">
        <ele>23.209</ele>
        <time>2014-07-12T11:11:43Z</time>
      </trkpt>
      <trkpt lat="60.0169383" lon="17.8512761">
        <ele>23.209</ele>
        <time>2014-07-12T11:11:44Z</time>
      </trkpt>
      <trkpt lat="60.0169538" lon="17.8510948">
        <ele>23.209</ele>
        <time>2014-07-12T11:11:45Z</time>
      </trkpt>
      <trkpt lat="60.0169684" lon="17.8509141">
        <ele>23.209</ele>
        <time>2014-07-12T11:11:46Z</time>
      </trkpt>
      <trkpt lat="60.0169819" lon="17.8507361">
        <ele>23.6896</ele>
        <time>2014-07-12T11:11:47Z</time>
      </trkpt>
      <trkpt lat="60.0169944" lon="17.8505605">
        <ele>23.6896</ele>
        <time>2014-07-12T11:11:48Z</time>
      </trkpt>
      <trkpt lat="60.0170072" lon="17.8503861">
        <ele>23.6896</ele>
        <time>2014-07-12T11:11:49Z</time>
      </trkpt>
      <trkpt lat="60.0170201" lon="17.850214">
        <ele>24.1703</ele>
        <time>2014-07-12T11:11:50Z</time>
      </trkpt>
      <trkpt lat="60.0170331" lon="17.8500453">
        <ele>24.651</ele>
        <time>2014-07-12T11:11:51Z</time>
      </trkpt>
      <trkpt lat="60.0170464" lon="17.8498806">
        <ele>24.651</ele>
        <time>2014-07-12T11:11:52Z</time>
      </trkpt>
      <trkpt lat="60.0170606" lon="17.8497206">
        <ele>25.1317</ele>
        <time>2014-07-12T11:11:53Z</time>
      </trkpt>
      <trkpt lat="60.0170745" lon="17.8495619">
        <ele>25.6123</ele>
        <time>2014-07-12T11:11:54Z</time>
      </trkpt>
      <trkpt lat="60.0170875" lon="17.849405">
        <ele>25.6123</ele>
        <time>2014-07-12T11:11:55Z</time>
      </trkpt>
      <trkpt lat="60.0170977" lon="17.8492508">
        <ele>26.0929</ele>
        <time>2014-07-12T11:11:56Z</time>
      </trkpt>
      <trkpt lat="60.017104" lon="17.8490978">
        <ele>26.0929</ele>
        <time>2014-07-12T11:11:57Z</time>
      </trkpt>
      <trkpt lat="60.017108" lon="17.848945">
        <ele>26.5736</ele>
        <time>2014-07-12T11:11:58Z</time>
      </trkpt>
      <trkpt lat="60.0171104" lon="17.8487943">
        <ele>26.5736</ele>
        <time>2014-07-12T11:11:59Z</time>
      </trkpt>
      <trkpt lat="60.017115" lon="17.8486451">
        <ele>27.0543</ele>
        <time>2014-07-12T11:12:00Z</time>
      </trkpt>
      <trkpt lat="60.0171246" lon="17.8484924">
        <ele>27.0543</ele>
        <time>2014-07-12T11:12:01Z</time>
      </trkpt>
      <trkpt lat="60.0171388" lon="17.8483385">
        <ele>27.0543</ele>
        <time>2014-07-12T11:12:02Z</time>
      </trkpt>
      <trkpt lat="60.0171578" lon="17.8481859">
        <ele>27.0543</ele>
        <time>2014-07-12T11:12:03Z</time>
      </trkpt>
      <trkpt lat="60.0171802" lon="17.8480293">
        <ele>26.5736</ele>
        <time>2014-07-12T11:12:04Z</time>
      </trkpt>
      <trkpt lat="60.0172052" lon="17.8478705">
        <ele>26.5736</ele>
        <time>2014-07-12T11:12:05Z</time>
      </trkpt>
      <trkpt lat="60.017231" lon="17.8477118">
        <ele>26.0929</ele>
        <time>2014-07-12T11:12:06Z</time>
      </trkpt>
      <trkpt lat="60.0172573" lon="17.8475548">
        <ele>26.0929</ele>
        <time>2014-07-12T11:12:07Z</time>
      </trkpt>
      <trkpt lat="60.017285" lon="17.8474008">
        <ele>26.0929</ele>
        <time>2014-07-12T11:12:08Z</time>
      </trkpt>
      <trkpt lat="60.017316" lon="17.8472517">
        <ele>25.6123</ele>
        <time>2014-07-12T11:12:09Z</time>
      </trkpt>
      <trkpt lat="60.0173527" lon="17.8471087">
        <ele>25.6123</ele>
        <time>2014-07-12T11:12:10Z</time>
      </trkpt>
      <trkpt lat="60.017395" lon="17.8469743">
        <ele>25.6123</ele>
        <time>2014-07-12T11:12:11Z</time>
      </trkpt>
      <trkpt lat="60.0174419" lon="17.8468491">
        <ele>25.6123</ele>
        <time>2014-07-12T11:12:12Z</time>
      </trkpt>
      <trkpt lat="60.0174936" lon="17.8467351">
        <ele>25.1317</ele>
        <time>2014-07-12T11:12:13Z</time>
      </trkpt>
      <trkpt lat="60.0175475" lon="17.8466298">
        <ele>25.1317</ele>
        <time>2014-07-12T11:12:14Z</time>
      </trkpt>
      <trkpt lat="60.0176019" lon="17.8465284">
        <ele>25.1317</ele>
        <time>2014-07-12T11:12:15Z</time>
      </trkpt>
      <trkpt lat="60.0176566" lon="17.8464299">
        <ele>25.1317</ele>
        <time>2014-07-12T11:12:16Z</time>
      </trkpt>
      <trkpt lat="60.0177097" lon="17.8463304">
        <ele>25.1317</ele>
        <time>2014-07-12T11:12:17Z</time>
      </trkpt>
      <trkpt lat="60.0177609" lon="17.8462261">
        <ele>25.1317</ele>
        <time>2014-07-12T11:12:18Z</time>
      </trkpt>
      <trkpt lat="60.0178099" lon="17.8461172">
        <ele>25.1317</ele>
        <time>2014-07-12T11:12:19Z</time>
      </trkpt>
      <trkpt lat="60.0178553" lon="17.8460017">
        <ele>25.1317</ele>
        <time>2014-07-12T11:12:20Z</time>
      </trkpt>
      <trkpt lat="60.0178977" lon="17.8458793">
        <ele>25.1317</ele>
        <time>2014-07-12T11:12:21Z</time>
      </trkpt>
      <trkpt lat="60.017936" lon="17.8457508">
        <ele>25.1317</ele>
        <time>2014-07-12T11:12:22Z</time>
      </trkpt>
      <trkpt lat="60.017967" lon="17.8456235">
        <ele>25.1317</ele>
        <time>2014-07-12T11:12:23Z</time>
      </trkpt>
      <trkpt lat="60.017992" lon="17.8454957">
        <ele>25.1317</ele>
        <time>2014-07-12T11:12:24Z</time>
      </trkpt>
      <trkpt lat="60.0180189" lon="17.8453638">
        <ele>25.1317</ele>
        <time>2014-07-12T11:12:25Z</time>
      </trkpt>
      <trkpt lat="60.0180462" lon="17.845232">
        <ele>25.1317</ele>
        <time>2014-07-12T11:12:26Z</time>
      </trkpt>
      <trkpt lat="60.0180724" lon="17.8451009">
        <ele>25.1317</ele>
        <time>2014-07-12T11:12:27Z</time>
      </trkpt>
      <trkpt lat="60.0181" lon="17.8449692">
        <ele>25.1317</ele>
        <time>2014-07-12T11:12:28Z</time>
      </trkpt>
      <trkpt lat="60.0181282" lon="17.8448358">
        <ele>25.1317</ele>
        <time>2014-07-12T11:12:29Z</time>
      </trkpt>
      <trkpt lat="60.0181558" lon="17.8446989">
        <ele>25.1317</ele>
        <time>2014-07-12T11:12:30Z</time>
      </trkpt>
      <trkpt lat="60.0181835" lon="17.8445584">
        <ele>25.1317</ele>
        <time>2014-07-12T11:12:31Z</time>
      </trkpt>
      <trkpt lat="60.0182121" lon="17.8444155">
        <ele>25.1317</ele>
        <time>2014-07-12T11:12:32Z</time>
      </trkpt>
      <trkpt lat="60.0182416" lon="17.8442718">
        <ele>25.1317</ele>
        <time>2014-07-12T11:12:33Z</time>
      </trkpt>
      <trkpt lat="60.0182722" lon="17.8441273">
        <ele>25.1317</ele>
        <time>2014-07-12T11:12:34Z</time>
      </trkpt>
      <trkpt lat="60.0183041" lon="17.8439825">
        <ele>25.1317</ele>
        <time>2014-07-12T11:12:35Z</time>
      </trkpt>
      <trkpt lat="60.0183365" lon="17.843838">
        <ele>25.1317</ele>
        <time>2014-07-12T11:12:36Z</time>
      </trkpt>
      <trkpt lat="60.0183701" lon="17.843693">
        <ele>25.1317</ele>
        <time>2014-07-12T11:12:37Z</time>
      </trkpt>
      <trkpt lat="60.0184048" lon="17.8435469">
        <ele>25.1317</ele>
        <time>2014-07-12T11:12:38Z</time>
      </trkpt>
      <trkpt lat="60.0184395" lon="17.8433997">
        <ele>25.1317</ele>
        <time>2014-07-12T11:12:39Z</time>
      </trkpt>
      <trkpt lat="60.0184751" lon="17.8432516">
        <ele>25.1317</ele>
        <time>2014-07-12T11:12:40Z</time>
      </trkpt>
      <trkpt lat="60.0185118" lon="17.8431029">
        <ele>25.1317</ele>
        <time>2014-07-12T11:12:41Z</time>
      </trkpt>
      <trkpt lat="60.0185496" lon="17.8429537">
        <ele>25.1317</ele>
        <time>2014-07-12T11:12:42Z</time>
      </trkpt>
      <trkpt lat="60.0185877" lon="17.8428033">
        <ele>25.1317</ele>
        <time>2014-07-12T11:12:43Z</time>
      </trkpt>
      <trkpt lat="60.0186263" lon="17.8426507">
        <ele>25.1317</ele>
        <time>2014-07-12T11:12:44Z</time>
      </trkpt>
      <trkpt lat="60.0186654" lon="17.8424973">
        <ele>25.1317</ele>
        <time>2014-07-12T11:12:45Z</time>
      </trkpt>
      <trkpt lat="60.0187043" lon="17.8423425">
        <ele>25.1317</ele>
        <time>2014-07-12T11:12:46Z</time>
      </trkpt>
      <trkpt lat="60.0187429" lon="17.8421886">
        <ele>25.1317</ele>
        <time>2014-07-12T11:12:47Z</time>
      </trkpt>
      <trkpt lat="60.0187805" lon="17.8420384">
        <ele>25.1317</ele>
        <time>2014-07-12T11:12:48Z</time>
      </trkpt>
      <trkpt lat="60.0188171" lon="17.8418913">
        <ele>25.1317</ele>
        <time>2014-07-12T11:12:49Z</time>
      </trkpt>
      <trkpt lat="60.0188534" lon="17.8417474">
        <ele>25.1317</ele>
        <time>2014-07-12T11:12:50Z</time>
      </trkpt>
      <trkpt lat="60.0188885" lon="17.8416062">
        <ele>25.1317</ele>
        <time>2014-07-12T11:12:51Z</time>
      </trkpt>
      <trkpt lat="60.0189231" lon="17.8414682">
        <ele>25.1317</ele>
        <time>2014-07-12T11:12:52Z</time>
      </trkpt>
      <trkpt lat="60.0189576" lon="17.8413344">
        <ele>25.1317</ele>
        <time>2014-07-12T11:12:53Z</time>
      </trkpt>
      <trkpt lat="60.0189912" lon="17.8412043">
        <ele>25.1317</ele>
        <time>2014-07-12T11:12:54Z</time>
      </trkpt>
      <trkpt lat="60.0190238" lon="17.8410755">
        <ele>25.1317</ele>
        <time>2014-07-12T11:12:55Z</time>
      </trkpt>
      <trkpt lat="60.019056" lon="17.8409445">
        <ele>25.1317</ele>
        <time>2014-07-12T11:12:56Z</time>
      </trkpt>
      <trkpt lat="60.0190873" lon="17.8408134">
        <ele>25.1317</ele>
        <time>2014-07-12T11:12:57Z</time>
      </trkpt>
      <trkpt lat="60.0191185" lon="17.8406822">
        <ele>25.1317</ele>
        <time>2014-07-12T11:12:58Z</time>
      </trkpt>
      <trkpt lat="60.0191495" lon="17.8405505">
        <ele>25.1317</ele>
        <time>2014-07-12T11:12:59Z</time>
      </trkpt>
      <trkpt lat="60.0191806" lon="17.8404195">
        <ele>25.1317</ele>
        <time>2014-07-12T11:13:00Z</time>
      </trkpt>
      <trkpt lat="60.0192113" lon="17.8402891">
        <ele>25.6123</ele>
        <time>2014-07-12T11:13:01Z</time>
      </trkpt>
      <trkpt lat="60.0192446" lon="17.8401652">
        <ele>25.6123</ele>
        <time>2014-07-12T11:13:02Z</time>
      </trkpt>
      <trkpt lat="60.0192731" lon="17.840024">
        <ele>26.0929</ele>
        <time>2014-07-12T11:13:03Z</time>
      </trkpt>
      <trkpt lat="60.0193004" lon="17.8398902">
        <ele>26.0929</ele>
        <time>2014-07-12T11:13:04Z</time>
      </trkpt>
      <trkpt lat="60.0193289" lon="17.8397479">
        <ele>26.0929</ele>
        <time>2014-07-12T11:13:05Z</time>
      </trkpt>
      <trkpt lat="60.0193464" lon="17.8395658">
        <ele>26.5736</ele>
        <time>2014-07-12T11:13:06Z</time>
      </trkpt>
      <trkpt lat="60.0193708" lon="17.8394179">
        <ele>26.5736</ele>
        <time>2014-07-12T11:13:07Z</time>
      </trkpt>
      <trkpt lat="60.0193957" lon="17.8392798">
        <ele>26.5736</ele>
        <time>2014-07-12T11:13:08Z</time>
      </trkpt>
      <trkpt lat="60.0194185" lon="17.8391483">
        <ele>26.0929</ele>
        <time>2014-07-12T11:13:09Z</time>
      </trkpt>
      <trkpt lat="60.0194408" lon="17.8390179">
        <ele>26.0929</ele>
        <time>2014-07-12T11:13:10Z</time>
      </trkpt>
      <trkpt lat="60.0194579" lon="17.8388827">
        <ele>26.0929</ele>
        <time>2014-07-12T11:13:11Z</time>
      </trkpt>
      <trkpt lat="60.0194678" lon="17.8387376">
        <ele>26.0929</ele>
        <time>2014-07-12T11:13:12Z</time>
      </trkpt>
      <trkpt lat="60.019475" lon="17.8385972">
        <ele>26.0929</ele>
        <time>2014-07-12T11:13:13Z</time>
      </trkpt>
      <trkpt lat="60.0194813" lon="17.8384554">
        <ele>26.0929</ele>
        <time>2014-07-12T11:13:14Z</time>
      </trkpt>
      <trkpt lat="60.0194874" lon="17.8383113">
        <ele>26.0929</ele>
        <time>2014-07-12T11:13:15Z</time>
      </trkpt>
      <trkpt lat="60.0194926" lon="17.8381673">
        <ele>26.5736</ele>
        <time>2014-07-12T11:13:16Z</time>
      </trkpt>
      <trkpt lat="60.0194973" lon="17.8380241">
        <ele>26.5736</ele>
        <time>2014-07-12T11:13:17Z</time>
      </trkpt>
      <trkpt lat="60.0195014" lon="17.8378813">
        <ele>27.0543</ele>
        <time>2014-07-12T11:13:18Z</time>
      </trkpt>
      <trkpt lat="60.019499" lon="17.8377472">
        <ele>27.0543</ele>
        <time>2014-07-12T11:13:19Z</time>
      </trkpt>
      <trkpt lat="60.0194989" lon="17.837609">
        <ele>27.0543</ele>
        <time>2014-07-12T11:13:20Z</time>
      </trkpt>
      <trkpt lat="60.0194999" lon="17.8374683">
        <ele>27.0543</ele>
        <time>2014-07-12T11:13:21Z</time>
      </trkpt>
      <trkpt lat="60.0195065" lon="17.8373333">
        <ele>27.0543</ele>
        <time>2014-07-12T11:13:22Z</time>
      </trkpt>
      <trkpt lat="60.0195118" lon="17.8371987">
        <ele>27.5349</ele>
        <time>2014-07-12T11:13:23Z</time>
      </trkpt>
      <trkpt lat="60.0195159" lon="17.8370635">
        <ele>27.5349</ele>
        <time>2014-07-12T11:13:24Z</time>
      </trkpt>
      <trkpt lat="60.0195196" lon="17.8369297">
        <ele>27.5349</ele>
        <time>2014-07-12T11:13:25Z</time>
      </trkpt>
      <trkpt lat="60.0195259" lon="17.8367946">
        <ele>28.0155</ele>
        <time>2014-07-12T11:13:26Z</time>
      </trkpt>
      <trkpt lat="60.0195289" lon="17.8366665">
        <ele>28.0155</ele>
        <time>2014-07-12T11:13:27Z</time>
      </trkpt>
      <trkpt lat="60.0195289" lon="17.8365209">
        <ele>27.5349</ele>
        <time>2014-07-12T11:13:28Z</time>
      </trkpt>
      <trkpt lat="60.0195285" lon="17.8363784">
        <ele>27.5349</ele>
        <time>2014-07-12T11:13:29Z</time>
      </trkpt>
      <trkpt lat="60.0195154" lon="17.8362232">
        <ele>27.0543</ele>
        <time>2014-07-12T11:13:30Z</time>
      </trkpt>
      <trkpt lat="60.0195149" lon="17.8360664">
        <ele>27.0543</ele>
        <time>2014-07-12T11:13:31Z</time>
      </trkpt>
      <trkpt lat="60.019514" lon="17.8359128">
        <ele>27.0543</ele>
        <time>2014-07-12T11:13:32Z</time>
      </trkpt>
      <trkpt lat="60.0195111" lon="17.8357558">
        <ele>26.5736</ele>
        <time>2014-07-12T11:13:33Z</time>
      </trkpt>
      <trkpt lat="60.0195083" lon="17.8355954">
        <ele>26.5736</ele>
        <time>2014-07-12T11:13:34Z</time>
      </trkpt>
      <trkpt lat="60.0195065" lon="17.8354321">
        <ele>26.5736</ele>
        <time>2014-07-12T11:13:35Z</time>
      </trkpt>
      <trkpt lat="60.0195047" lon="17.8352668">
        <ele>26.5736</ele>
        <time>2014-07-12T11:13:36Z</time>
      </trkpt>
      <trkpt lat="60.0195025" lon="17.8351031">
        <ele>26.5736</ele>
        <time>2014-07-12T11:13:37Z</time>
      </trkpt>
      <trkpt lat="60.0194988" lon="17.8349437">
        <ele>27.0543</ele>
        <time>2014-07-12T11:13:38Z</time>
      </trkpt>
      <trkpt lat="60.0194938" lon="17.8347883">
        <ele>27.0543</ele>
        <time>2014-07-12T11:13:39Z</time>
      </trkpt>
      <trkpt lat="60.0194885" lon="17.834635">
        <ele>27.0543</ele>
        <time>2014-07-12T11:13:40Z</time>
      </trkpt>
      <trkpt lat="60.0194836" lon="17.8344828">
        <ele>27.5349</ele>
        <time>2014-07-12T11:13:41Z</time>
      </trkpt>
      <trkpt lat="60.0194782" lon="17.8343335">
        <ele>28.0155</ele>
        <time>2014-07-12T11:13:42Z</time>
      </trkpt>
      <trkpt lat="60.0194583" lon="17.8341926">
        <ele>28.0155</ele>
        <time>2014-07-12T11:13:43Z</time>
      </trkpt>
      <trkpt lat="60.0194486" lon="17.8340446">
        <ele>28.4962</ele>
        <time>2014-07-12T11:13:44Z</time>
      </trkpt>
      <trkpt lat="60.0194392" lon="17.8338998">
        <ele>28.4962</ele>
        <time>2014-07-12T11:13:45Z</time>
      </trkpt>
      <trkpt lat="60.019429" lon="17.8337635">
        <ele>28.4962</ele>
        <time>2014-07-12T11:13:46Z</time>
      </trkpt>
      <trkpt lat="60.019416" lon="17.8336446">
        <ele>28.9769</ele>
        <time>2014-07-12T11:13:47Z</time>
      </trkpt>
      <trkpt lat="60.0194039" lon="17.8335274">
        <ele>29.4575</ele>
        <time>2014-07-12T11:13:48Z</time>
      </trkpt>
      <trkpt lat="60.0193932" lon="17.8334054">
        <ele>29.9381</ele>
        <time>2014-07-12T11:13:49Z</time>
      </trkpt>
      <trkpt lat="60.0193802" lon="17.8332833">
        <ele>29.9381</ele>
        <time>2014-07-12T11:13:50Z</time>
      </trkpt>
      <trkpt lat="60.0193611" lon="17.8331747">
        <ele>30.8995</ele>
        <time>2014-07-12T11:13:51Z</time>
      </trkpt>
      <trkpt lat="60.0193471" lon="17.8330606">
        <ele>31.3801</ele>
        <time>2014-07-12T11:13:52Z</time>
      </trkpt>
      <trkpt lat="60.0193331" lon="17.8329468">
        <ele>31.8607</ele>
        <time>2014-07-12T11:13:53Z</time>
      </trkpt>
      <trkpt lat="60.0193226" lon="17.8328314">
        <ele>31.8607</ele>
        <time>2014-07-12T11:13:54Z</time>
      </trkpt>
      <trkpt lat="60.0193173" lon="17.8327145">
        <ele>31.8607</ele>
        <time>2014-07-12T11:13:55Z</time>
      </trkpt>
      <trkpt lat="60.0193155" lon="17.8325907">
        <ele>31.3801</ele>
        <time>2014-07-12T11:13:56Z</time>
      </trkpt>
      <trkpt lat="60.0193161" lon="17.8324545">
        <ele>31.3801</ele>
        <time>2014-07-12T11:13:57Z</time>
      </trkpt>
      <trkpt lat="60.0193148" lon="17.8323234">
        <ele>31.3801</ele>
        <time>2014-07-12T11:13:58Z</time>
      </trkpt>
      <trkpt lat="60.0193155" lon="17.8321984">
        <ele>30.8995</ele>
        <time>2014-07-12T11:13:59Z</time>
      </trkpt>
      <trkpt lat="60.0193213" lon="17.8320728">
        <ele>30.8995</ele>
        <time>2014-07-12T11:14:00Z</time>
      </trkpt>
      <trkpt lat="60.0193243" lon="17.8319451">
        <ele>31.3801</ele>
        <time>2014-07-12T11:14:01Z</time>
      </trkpt>
      <trkpt lat="60.0193293" lon="17.8318134">
        <ele>31.3801</ele>
        <time>2014-07-12T11:14:02Z</time>
      </trkpt>
      <trkpt lat="60.0193318" lon="17.8316792">
        <ele>31.3801</ele>
        <time>2014-07-12T11:14:03Z</time>
      </trkpt>
      <trkpt lat="60.0193325" lon="17.8315455">
        <ele>31.3801</ele>
        <time>2014-07-12T11:14:04Z</time>
      </trkpt>
      <trkpt lat="60.0193298" lon="17.8314237">
        <ele>31.3801</ele>
        <time>2014-07-12T11:14:05Z</time>
      </trkpt>
      <trkpt lat="60.0193284" lon="17.8312949">
        <ele>31.3801</ele>
        <time>2014-07-12T11:14:06Z</time>
      </trkpt>
      <trkpt lat="60.0193287" lon="17.8311727">
        <ele>30.8995</ele>
        <time>2014-07-12T11:14:07Z</time>
      </trkpt>
      <trkpt lat="60.0193309" lon="17.8310553">
        <ele>30.8995</ele>
        <time>2014-07-12T11:14:08Z</time>
      </trkpt>
      <trkpt lat="60.0193279" lon="17.8309307">
        <ele>31.3801</ele>
        <time>2014-07-12T11:14:09Z</time>
      </trkpt>
      <trkpt lat="60.0193249" lon="17.8308064">
        <ele>31.3801</ele>
        <time>2014-07-12T11:14:10Z</time>
      </trkpt>
      <trkpt lat="60.0193262" lon="17.8306779">
        <ele>31.3801</ele>
        <time>2014-07-12T11:14:11Z</time>
      </trkpt>
      <trkpt lat="60.0193315" lon="17.830548">
        <ele>31.3801</ele>
        <time>2014-07-12T11:14:12Z</time>
      </trkpt>
      <trkpt lat="60.0193414" lon="17.8304188">
        <ele>31.3801</ele>
        <time>2014-07-12T11:14:13Z</time>
      </trkpt>
      <trkpt lat="60.0193581" lon="17.8302987">
        <ele>31.3801</ele>
        <time>2014-07-12T11:14:14Z</time>
      </trkpt>
      <trkpt lat="60.0193801" lon="17.8301822">
        <ele>31.3801</ele>
        <time>2014-07-12T11:14:15Z</time>
      </trkpt>
      <trkpt lat="60.0194067" lon="17.8300655">
        <ele>30.8995</ele>
        <time>2014-07-12T11:14:16Z</time>
      </trkpt>
      <trkpt lat="60.0194393" lon="17.829953">
        <ele>30.8995</ele>
        <time>2014-07-12T11:14:17Z</time>
      </trkpt>
      <trkpt lat="60.0194751" lon="17.8298461">
        <ele>30.4188</ele>
        <time>2014-07-12T11:14:18Z</time>
      </trkpt>
      <trkpt lat="60.0195139" lon="17.8297363">
        <ele>30.4188</ele>
        <time>2014-07-12T11:14:19Z</time>
      </trkpt>
      <trkpt lat="60.0195539" lon="17.8296248">
        <ele>30.4188</ele>
        <time>2014-07-12T11:14:20Z</time>
      </trkpt>
      <trkpt lat="60.0195947" lon="17.8295127">
        <ele>30.4188</ele>
        <time>2014-07-12T11:14:21Z</time>
      </trkpt>
      <trkpt lat="60.0196377" lon="17.8293993">
        <ele>29.9381</ele>
        <time>2014-07-12T11:14:22Z</time>
      </trkpt>
      <trkpt lat="60.0196837" lon="17.8292865">
        <ele>29.9381</ele>
        <time>2014-07-12T11:14:23Z</time>
      </trkpt>
      <trkpt lat="60.0197303" lon="17.8291747">
        <ele>29.4575</ele>
        <time>2014-07-12T11:14:24Z</time>
      </trkpt>
      <trkpt lat="60.0197773" lon="17.8290649">
        <ele>28.9769</ele>
        <time>2014-07-12T11:14:25Z</time>
      </trkpt>
      <trkpt lat="60.0198246" lon="17.8289524">
        <ele>28.4962</ele>
        <time>2014-07-12T11:14:26Z</time>
      </trkpt>
      <trkpt lat="60.0198721" lon="17.8288381">
        <ele>28.4962</ele>
        <time>2014-07-12T11:14:27Z</time>
      </trkpt>
      <trkpt lat="60.0199215" lon="17.8287229">
        <ele>28.0155</ele>
        <time>2014-07-12T11:14:28Z</time>
      </trkpt>
      <trkpt lat="60.0199726" lon="17.8286095">
        <ele>28.0155</ele>
        <time>2014-07-12T11:14:29Z</time>
      </trkpt>
      <trkpt lat="60.020024" lon="17.8284941">
        <ele>27.5349</ele>
        <time>2014-07-12T11:14:30Z</time>
      </trkpt>
      <trkpt lat="60.0200729" lon="17.8283655">
        <ele>27.5349</ele>
        <time>2014-07-12T11:14:31Z</time>
      </trkpt>
      <trkpt lat="60.0201174" lon="17.8282246">
        <ele>28.0155</ele>
        <time>2014-07-12T11:14:32Z</time>
      </trkpt>
      <trkpt lat="60.0201534" lon="17.8280822">
        <ele>28.0155</ele>
        <time>2014-07-12T11:14:33Z</time>
      </trkpt>
      <trkpt lat="60.0201822" lon="17.8279307">
        <ele>27.5349</ele>
        <time>2014-07-12T11:14:34Z</time>
      </trkpt>
      <trkpt lat="60.0202097" lon="17.8277874">
        <ele>27.0543</ele>
        <time>2014-07-12T11:14:35Z</time>
      </trkpt>
      <trkpt lat="60.0202323" lon="17.8276399">
        <ele>27.0543</ele>
        <time>2014-07-12T11:14:36Z</time>
      </trkpt>
      <trkpt lat="60.0202558" lon="17.827491">
        <ele>26.5736</ele>
        <time>2014-07-12T11:14:37Z</time>
      </trkpt>
      <trkpt lat="60.0202883" lon="17.8273497">
        <ele>26.0929</ele>
        <time>2014-07-12T11:14:38Z</time>
      </trkpt>
      <trkpt lat="60.020328" lon="17.8272191">
        <ele>25.6123</ele>
        <time>2014-07-12T11:14:39Z</time>
      </trkpt>
      <trkpt lat="60.0203567" lon="17.8270991">
        <ele>25.1317</ele>
        <time>2014-07-12T11:14:40Z</time>
      </trkpt>
      <trkpt lat="60.0204" lon="17.8269539">
        <ele>25.6123</ele>
        <time>2014-07-12T11:14:41Z</time>
      </trkpt>
      <trkpt lat="60.020437" lon="17.8268192">
        <ele>25.6123</ele>
        <time>2014-07-12T11:14:42Z</time>
      </trkpt>
      <trkpt lat="60.0204712" lon="17.8266862">
        <ele>26.0929</ele>
        <time>2014-07-12T11:14:43Z</time>
      </trkpt>
      <trkpt lat="60.0205027" lon="17.8265494">
        <ele>25.6123</ele>
        <time>2014-07-12T11:14:44Z</time>
      </trkpt>
      <trkpt lat="60.0205311" lon="17.8264067">
        <ele>25.6123</ele>
        <time>2014-07-12T11:14:45Z</time>
      </trkpt>
      <trkpt lat="60.0205546" lon="17.8262743">
        <ele>25.1317</ele>
        <time>2014-07-12T11:14:46Z</time>
      </trkpt>
      <trkpt lat="60.0205741" lon="17.8261304">
        <ele>25.1317</ele>
        <time>2014-07-12T11:14:47Z</time>
      </trkpt>
      <trkpt lat="60.0205938" lon="17.8260019">
        <ele>24.1703</ele>
        <time>2014-07-12T11:14:48Z</time>
      </trkpt>
      <trkpt lat="60.0206073" lon="17.8258659">
        <ele>23.6896</ele>
        <time>2014-07-12T11:14:49Z</time>
      </trkpt>
      <trkpt lat="60.0206192" lon="17.8257153">
        <ele>23.6896</ele>
        <time>2014-07-12T11:14:50Z</time>
      </trkpt>
      <trkpt lat="60.0206312" lon="17.8255718">
        <ele>23.209</ele>
        <time>2014-07-12T11:14:51Z</time>
      </trkpt>
      <trkpt lat="60.0206456" lon="17.8254269">
        <ele>23.209</ele>
        <time>2014-07-12T11:14:52Z</time>
      </trkpt>
      <trkpt lat="60.0206579" lon="17.8252886">
        <ele>23.209</ele>
        <time>2014-07-12T11:14:53Z</time>
      </trkpt>
      <trkpt lat="60.0206683" lon="17.8251518">
        <ele>23.209</ele>
        <time>2014-07-12T11:14:54Z</time>
      </trkpt>
      <trkpt lat="60.0206856" lon="17.8250195">
        <ele>23.6896</ele>
        <time>2014-07-12T11:14:55Z</time>
      </trkpt>
      <trkpt lat="60.0207043" lon="17.8248872">
        <ele>24.1703</ele>
        <time>2014-07-12T11:14:56Z</time>
      </trkpt>
      <trkpt lat="60.020712" lon="17.8246975">
        <ele>24.651</ele>
        <time>2014-07-12T11:14:57Z</time>
      </trkpt>
      <trkpt lat="60.0207281" lon="17.8245502">
        <ele>25.1317</ele>
        <time>2014-07-12T11:14:58Z</time>
      </trkpt>
      <trkpt lat="60.0207384" lon="17.8243963">
        <ele>25.6123</ele>
        <time>2014-07-12T11:14:59Z</time>
      </trkpt>
      <trkpt lat="60.0207406" lon="17.8242561">
        <ele>26.0929</ele>
        <time>2014-07-12T11:15:00Z</time>
      </trkpt>
      <trkpt lat="60.0207493" lon="17.8241298">
        <ele>26.5736</ele>
        <time>2014-07-12T11:15:01Z</time>
      </trkpt>
      <trkpt lat="60.0207522" lon="17.8239951">
        <ele>27.0543</ele>
        <time>2014-07-12T11:15:02Z</time>
      </trkpt>
      <trkpt lat="60.0207472" lon="17.8238697">
        <ele>27.0543</ele>
        <time>2014-07-12T11:15:03Z</time>
      </trkpt>
      <trkpt lat="60.0207486" lon="17.8237112">
        <ele>28.0155</ele>
        <time>2014-07-12T11:15:04Z</time>
      </trkpt>
      <trkpt lat="60.020741" lon="17.8236123">
        <ele>28.4962</ele>
        <time>2014-07-12T11:15:05Z</time>
      </trkpt>
      <trkpt lat="60.020725" lon="17.8235087">
        <ele>28.9769</ele>
        <time>2014-07-12T11:15:06Z</time>
      </trkpt>
      <trkpt lat="60.0207124" lon="17.8234051">
        <ele>29.4575</ele>
        <time>2014-07-12T11:15:07Z</time>
      </trkpt>
      <trkpt lat="60.0207063" lon="17.8232917">
        <ele>29.4575</ele>
        <time>2014-07-12T11:15:08Z</time>
      </trkpt>
      <trkpt lat="60.0207027" lon="17.8231822">
        <ele>29.4575</ele>
        <time>2014-07-12T11:15:09Z</time>
      </trkpt>
      <trkpt lat="60.0206929" lon="17.8230585">
        <ele>29.4575</ele>
        <time>2014-07-12T11:15:10Z</time>
      </trkpt>
      <trkpt lat="60.0206857" lon="17.8229239">
        <ele>29.9381</ele>
        <time>2014-07-12T11:15:11Z</time>
      </trkpt>
      <trkpt lat="60.020675" lon="17.8227896">
        <ele>29.9381</ele>
        <time>2014-07-12T11:15:12Z</time>
      </trkpt>
      <trkpt lat="60.0206602" lon="17.8226551">
        <ele>29.9381</ele>
        <time>2014-07-12T11:15:13Z</time>
      </trkpt>
      <trkpt lat="60.0206446" lon="17.8225207">
        <ele>30.4188</ele>
        <time>2014-07-12T11:15:14Z</time>
      </trkpt>
      <trkpt lat="60.0206328" lon="17.8223841">
        <ele>30.4188</ele>
        <time>2014-07-12T11:15:15Z</time>
      </trkpt>
      <trkpt lat="60.0206272" lon="17.8222587">
        <ele>30.4188</ele>
        <time>2014-07-12T11:15:16Z</time>
      </trkpt>
      <trkpt lat="60.0206266" lon="17.8221376">
        <ele>29.9381</ele>
        <time>2014-07-12T11:15:17Z</time>
      </trkpt>
      <trkpt lat="60.0206348" lon="17.8220157">
        <ele>29.9381</ele>
        <time>2014-07-12T11:15:18Z</time>
      </trkpt>
      <trkpt lat="60.0206473" lon="17.8218944">
        <ele>29.4575</ele>
        <time>2014-07-12T11:15:19Z</time>
      </trkpt>
      <trkpt lat="60.0206597" lon="17.8217759">
        <ele>29.4575</ele>
        <time>2014-07-12T11:15:20Z</time>
      </trkpt>
      <trkpt lat="60.0206757" lon="17.8216495">
        <ele>29.4575</ele>
        <time>2014-07-12T11:15:21Z</time>
      </trkpt>
      <trkpt lat="60.0206944" lon="17.8215211">
        <ele>29.9381</ele>
        <time>2014-07-12T11:15:22Z</time>
      </trkpt>
      <trkpt lat="60.020712" lon="17.8213935">
        <ele>29.9381</ele>
        <time>2014-07-12T11:15:23Z</time>
      </trkpt>
      <trkpt lat="60.0207281" lon="17.8212539">
        <ele>29.9381</ele>
        <time>2014-07-12T11:15:24Z</time>
      </trkpt>
      <trkpt lat="60.0207385" lon="17.8211128">
        <ele>29.9381</ele>
        <time>2014-07-12T11:15:25Z</time>
      </trkpt>
      <trkpt lat="60.0207409" lon="17.8209845">
        <ele>29.9381</ele>
        <time>2014-07-12T11:15:26Z</time>
      </trkpt>
      <trkpt lat="60.0207385" lon="17.8208671">
        <ele>29.9381</ele>
        <time>2014-07-12T11:15:27Z</time>
      </trkpt>
      <trkpt lat="60.0207368" lon="17.8207352">
        <ele>30.8995</ele>
        <time>2014-07-12T11:15:28Z</time>
      </trkpt>
      <trkpt lat="60.020738" lon="17.8205954">
        <ele>31.3801</ele>
        <time>2014-07-12T11:15:29Z</time>
      </trkpt>
      <trkpt lat="60.0207414" lon="17.8204581">
        <ele>31.8607</ele>
        <time>2014-07-12T11:15:30Z</time>
      </trkpt>
      <trkpt lat="60.0207514" lon="17.8203233">
        <ele>32.3416</ele>
        <time>2014-07-12T11:15:31Z</time>
      </trkpt>
      <trkpt lat="60.0207664" lon="17.8201934">
        <ele>32.8223</ele>
        <time>2014-07-12T11:15:32Z</time>
      </trkpt>
      <trkpt lat="60.020784" lon="17.8200665">
        <ele>33.3029</ele>
        <time>2014-07-12T11:15:33Z</time>
      </trkpt>
      <trkpt lat="60.0208042" lon="17.8199426">
        <ele>33.3029</ele>
        <time>2014-07-12T11:15:34Z</time>
      </trkpt>
      <trkpt lat="60.020825" lon="17.8198245">
        <ele>33.3029</ele>
        <time>2014-07-12T11:15:35Z</time>
      </trkpt>
      <trkpt lat="60.0208456" lon="17.8197137">
        <ele>33.7834</ele>
        <time>2014-07-12T11:15:36Z</time>
      </trkpt>
      <trkpt lat="60.0208674" lon="17.8196099">
        <ele>34.2642</ele>
        <time>2014-07-12T11:15:37Z</time>
      </trkpt>
      <trkpt lat="60.0208896" lon="17.8195127">
        <ele>34.2642</ele>
        <time>2014-07-12T11:15:38Z</time>
      </trkpt>
      <trkpt lat="60.0209088" lon="17.8194162">
        <ele>34.2642</ele>
        <time>2014-07-12T11:15:39Z</time>
      </trkpt>
      <trkpt lat="60.0209287" lon="17.8193112">
        <ele>34.2642</ele>
        <time>2014-07-12T11:15:40Z</time>
      </trkpt>
      <trkpt lat="60.0209523" lon="17.8191981">
        <ele>34.2642</ele>
        <time>2014-07-12T11:15:41Z</time>
      </trkpt>
      <trkpt lat="60.0209788" lon="17.8190792">
        <ele>34.2642</ele>
        <time>2014-07-12T11:15:42Z</time>
      </trkpt>
      <trkpt lat="60.0210064" lon="17.8189543">
        <ele>34.2642</ele>
        <time>2014-07-12T11:15:43Z</time>
      </trkpt>
      <trkpt lat="60.0210343" lon="17.8188357">
        <ele>34.2642</ele>
        <time>2014-07-12T11:15:44Z</time>
      </trkpt>
      <trkpt lat="60.0210617" lon="17.8187165">
        <ele>34.2642</ele>
        <time>2014-07-12T11:15:45Z</time>
      </trkpt>
      <trkpt lat="60.0210855" lon="17.8186011">
        <ele>34.2642</ele>
        <time>2014-07-12T11:15:46Z</time>
      </trkpt>
      <trkpt lat="60.0211003" lon="17.8184875">
        <ele>34.7449</ele>
        <time>2014-07-12T11:15:47Z</time>
      </trkpt>
      <trkpt lat="60.0211074" lon="17.8183818">
        <ele>34.7449</ele>
        <time>2014-07-12T11:15:48Z</time>
      </trkpt>
      <trkpt lat="60.021106" lon="17.8182742">
        <ele>35.2255</ele>
        <time>2014-07-12T11:15:49Z</time>
      </trkpt>
      <trkpt lat="60.0211" lon="17.8181576">
        <ele>35.7061</ele>
        <time>2014-07-12T11:15:50Z</time>
      </trkpt>
      <trkpt lat="60.0210955" lon="17.8180385">
        <ele>36.1868</ele>
        <time>2014-07-12T11:15:51Z</time>
      </trkpt>
      <trkpt lat="60.0210865" lon="17.8179137">
        <ele>36.6675</ele>
        <time>2014-07-12T11:15:52Z</time>
      </trkpt>
      <trkpt lat="60.021072" lon="17.8177881">
        <ele>37.1481</ele>
        <time>2014-07-12T11:15:53Z</time>
      </trkpt>
      <trkpt lat="60.0210561" lon="17.8176635">
        <ele>37.6287</ele>
        <time>2014-07-12T11:15:54Z</time>
      </trkpt>
      <trkpt lat="60.0210369" lon="17.8175423">
        <ele>38.1094</ele>
        <time>2014-07-12T11:15:55Z</time>
      </trkpt>
      <trkpt lat="60.0210149" lon="17.8174256">
        <ele>38.5901</ele>
        <time>2014-07-12T11:15:56Z</time>
      </trkpt>
      <trkpt lat="60.0209959" lon="17.8173056">
        <ele>39.0707</ele>
        <time>2014-07-12T11:15:57Z</time>
      </trkpt>
      <trkpt lat="60.0209788" lon="17.8171832">
        <ele>39.0707</ele>
        <time>2014-07-12T11:15:58Z</time>
      </trkpt>
      <trkpt lat="60.0209627" lon="17.817059">
        <ele>39.0707</ele>
        <time>2014-07-12T11:15:59Z</time>
      </trkpt>
      <trkpt lat="60.0209476" lon="17.816931">
        <ele>39.0707</ele>
        <time>2014-07-12T11:16:00Z</time>
      </trkpt>
      <trkpt lat="60.0209379" lon="17.8167935">
        <ele>38.5901</ele>
        <time>2014-07-12T11:16:01Z</time>
      </trkpt>
      <trkpt lat="60.0209372" lon="17.816646">
        <ele>38.1094</ele>
        <time>2014-07-12T11:16:02Z</time>
      </trkpt>
      <trkpt lat="60.0209409" lon="17.8164932">
        <ele>37.6287</ele>
        <time>2014-07-12T11:16:03Z</time>
      </trkpt>
      <trkpt lat="60.0209472" lon="17.8163343">
        <ele>37.1481</ele>
        <time>2014-07-12T11:16:04Z</time>
      </trkpt>
      <trkpt lat="60.0209545" lon="17.8161813">
        <ele>37.1481</ele>
        <time>2014-07-12T11:16:05Z</time>
      </trkpt>
      <trkpt lat="60.0209652" lon="17.8160354">
        <ele>36.1868</ele>
        <time>2014-07-12T11:16:06Z</time>
      </trkpt>
      <trkpt lat="60.020977" lon="17.8158617">
        <ele>36.1868</ele>
        <time>2014-07-12T11:16:07Z</time>
      </trkpt>
      <trkpt lat="60.0209854" lon="17.8157163">
        <ele>36.1868</ele>
        <time>2014-07-12T11:16:08Z</time>
      </trkpt>
      <trkpt lat="60.0209959" lon="17.8155799">
        <ele>36.1868</ele>
        <time>2014-07-12T11:16:09Z</time>
      </trkpt>
      <trkpt lat="60.0210021" lon="17.8154572">
        <ele>36.1868</ele>
        <time>2014-07-12T11:16:10Z</time>
      </trkpt>
      <trkpt lat="60.0210016" lon="17.8153434">
        <ele>36.6675</ele>
        <time>2014-07-12T11:16:11Z</time>
      </trkpt>
      <trkpt lat="60.0209976" lon="17.8152348">
        <ele>37.1481</ele>
        <time>2014-07-12T11:16:12Z</time>
      </trkpt>
      <trkpt lat="60.0209881" lon="17.8151387">
        <ele>37.6287</ele>
        <time>2014-07-12T11:16:13Z</time>
      </trkpt>
      <trkpt lat="60.0209831" lon="17.8150377">
        <ele>37.1481</ele>
        <time>2014-07-12T11:16:14Z</time>
      </trkpt>
      <trkpt lat="60.0209778" lon="17.8149357">
        <ele>37.6287</ele>
        <time>2014-07-12T11:16:15Z</time>
      </trkpt>
      <trkpt lat="60.0209704" lon="17.8148307">
        <ele>38.1094</ele>
        <time>2014-07-12T11:16:16Z</time>
      </trkpt>
      <trkpt lat="60.0209612" lon="17.8147244">
        <ele>38.1094</ele>
        <time>2014-07-12T11:16:17Z</time>
      </trkpt>
      <trkpt lat="60.0209525" lon="17.8146134">
        <ele>38.5901</ele>
        <time>2014-07-12T11:16:18Z</time>
      </trkpt>
      <trkpt lat="60.0209437" lon="17.8144978">
        <ele>38.5901</ele>
        <time>2014-07-12T11:16:19Z</time>
      </trkpt>
      <trkpt lat="60.020941" lon="17.8143713">
        <ele>39.0707</ele>
        <time>2014-07-12T11:16:20Z</time>
      </trkpt>
      <trkpt lat="60.0209353" lon="17.814199">
        <ele>39.5513</ele>
        <time>2014-07-12T11:16:21Z</time>
      </trkpt>
      <trkpt lat="60.0209275" lon="17.8140451">
        <ele>40.0321</ele>
        <time>2014-07-12T11:16:22Z</time>
      </trkpt>
      <trkpt lat="60.0209118" lon="17.8139115">
        <ele>40.5128</ele>
        <time>2014-07-12T11:16:23Z</time>
      </trkpt>
      <trkpt lat="60.0208936" lon="17.8137797">
        <ele>40.5128</ele>
        <time>2014-07-12T11:16:24Z</time>
      </trkpt>
      <trkpt lat="60.0208678" lon="17.8137037">
        <ele>40.9934</ele>
        <time>2014-07-12T11:16:25Z</time>
      </trkpt>
      <trkpt lat="60.0208436" lon="17.8136046">
        <ele>41.474</ele>
        <time>2014-07-12T11:16:26Z</time>
      </trkpt>
      <trkpt lat="60.020817" lon="17.813505">
        <ele>40.9934</ele>
        <time>2014-07-12T11:16:27Z</time>
      </trkpt>
      <trkpt lat="60.020781" lon="17.813409">
        <ele>40.5128</ele>
        <time>2014-07-12T11:16:28Z</time>
      </trkpt>
      <trkpt lat="60.0207512" lon="17.8133102">
        <ele>40.9934</ele>
        <time>2014-07-12T11:16:29Z</time>
      </trkpt>
      <trkpt lat="60.020711" lon="17.8132147">
        <ele>41.474</ele>
        <time>2014-07-12T11:16:30Z</time>
      </trkpt>
      <trkpt lat="60.0206763" lon="17.8131096">
        <ele>41.474</ele>
        <time>2014-07-12T11:16:31Z</time>
      </trkpt>
      <trkpt lat="60.0206369" lon="17.8130105">
        <ele>41.474</ele>
        <time>2014-07-12T11:16:32Z</time>
      </trkpt>
      <trkpt lat="60.0205971" lon="17.8129138">
        <ele>41.474</ele>
        <time>2014-07-12T11:16:33Z</time>
      </trkpt>
      <trkpt lat="60.0205528" lon="17.8128259">
        <ele>41.474</ele>
        <time>2014-07-12T11:16:34Z</time>
      </trkpt>
      <trkpt lat="60.0205095" lon="17.8127399">
        <ele>41.9547</ele>
        <time>2014-07-12T11:16:35Z</time>
      </trkpt>
      <trkpt lat="60.0204691" lon="17.8126496">
        <ele>41.9547</ele>
        <time>2014-07-12T11:16:36Z</time>
      </trkpt>
      <trkpt lat="60.0204311" lon="17.8125553">
        <ele>41.9547</ele>
        <time>2014-07-12T11:16:37Z</time>
      </trkpt>
      <trkpt lat="60.0203948" lon="17.8124603">
        <ele>42.4354</ele>
        <time>2014-07-12T11:16:38Z</time>
      </trkpt>
      <trkpt lat="60.0203609" lon="17.8123647">
        <ele>42.4354</ele>
        <time>2014-07-12T11:16:39Z</time>
      </trkpt>
      <trkpt lat="60.0203297" lon="17.8122718">
        <ele>42.916</ele>
        <time>2014-07-12T11:16:40Z</time>
      </trkpt>
      <trkpt lat="60.0202998" lon="17.812182">
        <ele>42.4354</ele>
        <time>2014-07-12T11:16:41Z</time>
      </trkpt>
      <trkpt lat="60.020265" lon="17.8120985">
        <ele>42.4354</ele>
        <time>2014-07-12T11:16:42Z</time>
      </trkpt>
      <trkpt lat="60.0202251" lon="17.8120193">
        <ele>42.916</ele>
        <time>2014-07-12T11:16:43Z</time>
      </trkpt>
      <trkpt lat="60.0201826" lon="17.8119421">
        <ele>42.916</ele>
        <time>2014-07-12T11:16:44Z</time>
      </trkpt>
      <trkpt lat="60.0201371" lon="17.8118686">
        <ele>42.916</ele>
        <time>2014-07-12T11:16:45Z</time>
      </trkpt>
      <trkpt lat="60.02009" lon="17.8117965">
        <ele>42.916</ele>
        <time>2014-07-12T11:16:46Z</time>
      </trkpt>
      <trkpt lat="60.0200441" lon="17.8117183">
        <ele>42.916</ele>
        <time>2014-07-12T11:16:47Z</time>
      </trkpt>
      <trkpt lat="60.0199978" lon="17.8116351">
        <ele>42.4354</ele>
        <time>2014-07-12T11:16:48Z</time>
      </trkpt>
      <trkpt lat="60.0199511" lon="17.8115368">
        <ele>42.4354</ele>
        <time>2014-07-12T11:16:49Z</time>
      </trkpt>
      <trkpt lat="60.0198988" lon="17.8114473">
        <ele>42.4354</ele>
        <time>2014-07-12T11:16:50Z</time>
      </trkpt>
      <trkpt lat="60.0198576" lon="17.811338">
        <ele>42.4354</ele>
        <time>2014-07-12T11:16:51Z</time>
      </trkpt>
      <trkpt lat="60.0198159" lon="17.811223">
        <ele>41.9547</ele>
        <time>2014-07-12T11:16:52Z</time>
      </trkpt>
      <trkpt lat="60.0197805" lon="17.8110971">
        <ele>41.9547</ele>
        <time>2014-07-12T11:16:53Z</time>
      </trkpt>
      <trkpt lat="60.0197559" lon="17.8109555">
        <ele>41.9547</ele>
        <time>2014-07-12T11:16:54Z</time>
      </trkpt>
      <trkpt lat="60.0197382" lon="17.8108125">
        <ele>41.9547</ele>
        <time>2014-07-12T11:16:55Z</time>
      </trkpt>
      <trkpt lat="60.0197279" lon="17.8106667">
        <ele>41.9547</ele>
        <time>2014-07-12T11:16:56Z</time>
      </trkpt>
      <trkpt lat="60.0197191" lon="17.8105272">
        <ele>41.9547</ele>
        <time>2014-07-12T11:16:57Z</time>
      </trkpt>
      <trkpt lat="60.0197071" lon="17.8103828">
        <ele>41.9547</ele>
        <time>2014-07-12T11:16:58Z</time>
      </trkpt>
      <trkpt lat="60.0196941" lon="17.810243">
        <ele>42.4354</ele>
        <time>2014-07-12T11:16:59Z</time>
      </trkpt>
      <trkpt lat="60.0196843" lon="17.8100989">
        <ele>42.4354</ele>
        <time>2014-07-12T11:17:00Z</time>
      </trkpt>
      <trkpt lat="60.0196724" lon="17.8099763">
        <ele>42.4354</ele>
        <time>2014-07-12T11:17:01Z</time>
      </trkpt>
      <trkpt lat="60.0196557" lon="17.8098491">
        <ele>42.916</ele>
        <time>2014-07-12T11:17:02Z</time>
      </trkpt>
      <trkpt lat="60.0196398" lon="17.8097187">
        <ele>42.916</ele>
        <time>2014-07-12T11:17:03Z</time>
      </trkpt>
      <trkpt lat="60.019622" lon="17.8095909">
        <ele>42.916</ele>
        <time>2014-07-12T11:17:04Z</time>
      </trkpt>
      <trkpt lat="60.0196081" lon="17.8094571">
        <ele>42.916</ele>
        <time>2014-07-12T11:17:05Z</time>
      </trkpt>
      <trkpt lat="60.0195979" lon="17.8093193">
        <ele>43.3966</ele>
        <time>2014-07-12T11:17:06Z</time>
      </trkpt>
      <trkpt lat="60.0195942" lon="17.8091811">
        <ele>43.3966</ele>
        <time>2014-07-12T11:17:07Z</time>
      </trkpt>
      <trkpt lat="60.0195955" lon="17.8090469">
        <ele>43.3966</ele>
        <time>2014-07-12T11:17:08Z</time>
      </trkpt>
      <trkpt lat="60.0196025" lon="17.8089133">
        <ele>43.8773</ele>
        <time>2014-07-12T11:17:09Z</time>
      </trkpt>
      <trkpt lat="60.0196142" lon="17.8087903">
        <ele>43.8773</ele>
        <time>2014-07-12T11:17:10Z</time>
      </trkpt>
      <trkpt lat="60.0196267" lon="17.8086696">
        <ele>44.358</ele>
        <time>2014-07-12T11:17:11Z</time>
      </trkpt>
      <trkpt lat="60.0196418" lon="17.8085525">
        <ele>44.358</ele>
        <time>2014-07-12T11:17:12Z</time>
      </trkpt>
      <trkpt lat="60.0196613" lon="17.8084361">
        <ele>44.8386</ele>
        <time>2014-07-12T11:17:13Z</time>
      </trkpt>
      <trkpt lat="60.0196848" lon="17.8083248">
        <ele>45.3192</ele>
        <time>2014-07-12T11:17:14Z</time>
      </trkpt>
      <trkpt lat="60.0197106" lon="17.8082235">
        <ele>45.3192</ele>
        <time>2014-07-12T11:17:15Z</time>
      </trkpt>
      <trkpt lat="60.0197386" lon="17.8081254">
        <ele>45.3192</ele>
        <time>2014-07-12T11:17:16Z</time>
      </trkpt>
      <trkpt lat="60.0197707" lon="17.8080278">
        <ele>45.3192</ele>
        <time>2014-07-12T11:17:17Z</time>
      </trkpt>
      <trkpt lat="60.0198079" lon="17.8079326">
        <ele>45.3192</ele>
        <time>2014-07-12T11:17:18Z</time>
      </trkpt>
      <trkpt lat="60.0198449" lon="17.8078218">
        <ele>45.3192</ele>
        <time>2014-07-12T11:17:19Z</time>
      </trkpt>
      <trkpt lat="60.0198787" lon="17.8077076">
        <ele>45.3192</ele>
        <time>2014-07-12T11:17:20Z</time>
      </trkpt>
      <trkpt lat="60.0199139" lon="17.8075963">
        <ele>44.8386</ele>
        <time>2014-07-12T11:17:21Z</time>
      </trkpt>
      <trkpt lat="60.0199531" lon="17.807485">
        <ele>45.3192</ele>
        <time>2014-07-12T11:17:22Z</time>
      </trkpt>
      <trkpt lat="60.0199925" lon="17.807374">
        <ele>45.3192</ele>
        <time>2014-07-12T11:17:23Z</time>
      </trkpt>
      <trkpt lat="60.0200303" lon="17.8072619">
        <ele>45.3192</ele>
        <time>2014-07-12T11:17:24Z</time>
      </trkpt>
      <trkpt lat="60.0200638" lon="17.8071445">
        <ele>45.7999</ele>
        <time>2014-07-12T11:17:25Z</time>
      </trkpt>
      <trkpt lat="60.0200916" lon="17.8070228">
        <ele>45.7999</ele>
        <time>2014-07-12T11:17:26Z</time>
      </trkpt>
      <trkpt lat="60.0201153" lon="17.8068966">
        <ele>46.2806</ele>
        <time>2014-07-12T11:17:27Z</time>
      </trkpt>
      <trkpt lat="60.0201359" lon="17.8067667">
        <ele>46.2806</ele>
        <time>2014-07-12T11:17:28Z</time>
      </trkpt>
      <trkpt lat="60.0201542" lon="17.8066343">
        <ele>46.2806</ele>
        <time>2014-07-12T11:17:29Z</time>
      </trkpt>
      <trkpt lat="60.0201715" lon="17.8064984">
        <ele>46.2806</ele>
        <time>2014-07-12T11:17:30Z</time>
      </trkpt>
      <trkpt lat="60.0201868" lon="17.8063579">
        <ele>46.2806</ele>
        <time>2014-07-12T11:17:31Z</time>
      </trkpt>
      <trkpt lat="60.0202001" lon="17.8062132">
        <ele>46.2806</ele>
        <time>2014-07-12T11:17:32Z</time>
      </trkpt>
      <trkpt lat="60.0202111" lon="17.8060643">
        <ele>46.2806</ele>
        <time>2014-07-12T11:17:33Z</time>
      </trkpt>
      <trkpt lat="60.0202199" lon="17.8059137">
        <ele>46.2806</ele>
        <time>2014-07-12T11:17:34Z</time>
      </trkpt>
      <trkpt lat="60.0202286" lon="17.805762">
        <ele>46.2806</ele>
        <time>2014-07-12T11:17:35Z</time>
      </trkpt>
      <trkpt lat="60.0202379" lon="17.8056099">
        <ele>46.7612</ele>
        <time>2014-07-12T11:17:36Z</time>
      </trkpt>
      <trkpt lat="60.0202492" lon="17.8054585">
        <ele>46.7612</ele>
        <time>2014-07-12T11:17:37Z</time>
      </trkpt>
      <trkpt lat="60.0202624" lon="17.8053089">
        <ele>46.7612</ele>
        <time>2014-07-12T11:17:38Z</time>
      </trkpt>
      <trkpt lat="60.020278" lon="17.8051612">
        <ele>47.2418</ele>
        <time>2014-07-12T11:17:39Z</time>
      </trkpt>
      <trkpt lat="60.0202945" lon="17.8050135">
        <ele>47.2418</ele>
        <time>2014-07-12T11:17:40Z</time>
      </trkpt>
      <trkpt lat="60.0203109" lon="17.8048686">
        <ele>47.2418</ele>
        <time>2014-07-12T11:17:41Z</time>
      </trkpt>
      <trkpt lat="60.0203288" lon="17.8047205">
        <ele>46.7612</ele>
        <time>2014-07-12T11:17:42Z</time>
      </trkpt>
      <trkpt lat="60.0203484" lon="17.8045677">
        <ele>46.7612</ele>
        <time>2014-07-12T11:17:43Z</time>
      </trkpt>
      <trkpt lat="60.0203658" lon="17.8044081">
        <ele>46.2806</ele>
        <time>2014-07-12T11:17:44Z</time>
      </trkpt>
      <trkpt lat="60.020381" lon="17.8042458">
        <ele>45.7999</ele>
        <time>2014-07-12T11:17:45Z</time>
      </trkpt>
      <trkpt lat="60.0203975" lon="17.8040806">
        <ele>45.7999</ele>
        <time>2014-07-12T11:17:46Z</time>
      </trkpt>
      <trkpt lat="60.0204156" lon="17.8039148">
        <ele>45.7999</ele>
        <time>2014-07-12T11:17:47Z</time>
      </trkpt>
      <trkpt lat="60.0204355" lon="17.8037528">
        <ele>45.7999</ele>
        <time>2014-07-12T11:17:48Z</time>
      </trkpt>
      <trkpt lat="60.0204587" lon="17.8035984">
        <ele>45.7999</ele>
        <time>2014-07-12T11:17:49Z</time>
      </trkpt>
      <trkpt lat="60.0204877" lon="17.8034337">
        <ele>46.2806</ele>
        <time>2014-07-12T11:17:50Z</time>
      </trkpt>
      <trkpt lat="60.0205202" lon="17.8032877">
        <ele>46.2806</ele>
        <time>2014-07-12T11:17:51Z</time>
      </trkpt>
      <trkpt lat="60.0205549" lon="17.8031519">
        <ele>46.2806</ele>
        <time>2014-07-12T11:17:52Z</time>
      </trkpt>
      <trkpt lat="60.0205896" lon="17.8030212">
        <ele>46.2806</ele>
        <time>2014-07-12T11:17:53Z</time>
      </trkpt>
      <trkpt lat="60.0206224" lon="17.8028919">
        <ele>46.2806</ele>
        <time>2014-07-12T11:17:54Z</time>
      </trkpt>
      <trkpt lat="60.0206519" lon="17.8027596">
        <ele>46.2806</ele>
        <time>2014-07-12T11:17:55Z</time>
      </trkpt>
      <trkpt lat="60.0206781" lon="17.8026254">
        <ele>46.7612</ele>
        <time>2014-07-12T11:17:56Z</time>
      </trkpt>
      <trkpt lat="60.0207015" lon="17.8024928">
        <ele>46.7612</ele>
        <time>2014-07-12T11:17:57Z</time>
      </trkpt>
      <trkpt lat="60.0207237" lon="17.80236">
        <ele>46.7612</ele>
        <time>2014-07-12T11:17:58Z</time>
      </trkpt>
      <trkpt lat="60.0207445" lon="17.8022283">
        <ele>46.7612</ele>
        <time>2014-07-12T11:17:59Z</time>
      </trkpt>
      <trkpt lat="60.0207649" lon="17.8020934">
        <ele>46.7612</ele>
        <time>2014-07-12T11:18:00Z</time>
      </trkpt>
      <trkpt lat="60.0207867" lon="17.8019557">
        <ele>46.2806</ele>
        <time>2014-07-12T11:18:01Z</time>
      </trkpt>
      <trkpt lat="60.0208108" lon="17.8018103">
        <ele>45.7999</ele>
        <time>2014-07-12T11:18:02Z</time>
      </trkpt>
      <trkpt lat="60.020833" lon="17.801655">
        <ele>45.3192</ele>
        <time>2014-07-12T11:18:03Z</time>
      </trkpt>
      <trkpt lat="60.0208472" lon="17.8014874">
        <ele>44.8386</ele>
        <time>2014-07-12T11:18:04Z</time>
      </trkpt>
      <trkpt lat="60.0208514" lon="17.8013088">
        <ele>44.358</ele>
        <time>2014-07-12T11:18:05Z</time>
      </trkpt>
      <trkpt lat="60.0208432" lon="17.8011244">
        <ele>43.3966</ele>
        <time>2014-07-12T11:18:06Z</time>
      </trkpt>
      <trkpt lat="60.0208251" lon="17.8009429">
        <ele>42.916</ele>
        <time>2014-07-12T11:18:07Z</time>
      </trkpt>
      <trkpt lat="60.0207994" lon="17.8007649">
        <ele>42.4354</ele>
        <time>2014-07-12T11:18:08Z</time>
      </trkpt>
      <trkpt lat="60.0207695" lon="17.8005922">
        <ele>42.916</ele>
        <time>2014-07-12T11:18:09Z</time>
      </trkpt>
      <trkpt lat="60.0207405" lon="17.8004273">
        <ele>42.916</ele>
        <time>2014-07-12T11:18:10Z</time>
      </trkpt>
      <trkpt lat="60.0207134" lon="17.8002693">
        <ele>42.916</ele>
        <time>2014-07-12T11:18:11Z</time>
      </trkpt>
      <trkpt lat="60.0206881" lon="17.8001165">
        <ele>43.3966</ele>
        <time>2014-07-12T11:18:12Z</time>
      </trkpt>
      <trkpt lat="60.0206636" lon="17.7999682">
        <ele>43.3966</ele>
        <time>2014-07-12T11:18:13Z</time>
      </trkpt>
      <trkpt lat="60.0206405" lon="17.7998232">
        <ele>43.8773</ele>
        <time>2014-07-12T11:18:14Z</time>
      </trkpt>
      <trkpt lat="60.0206223" lon="17.7996785">
        <ele>43.8773</ele>
        <time>2014-07-12T11:18:15Z</time>
      </trkpt>
      <trkpt lat="60.0206093" lon="17.7995347">
        <ele>44.358</ele>
        <time>2014-07-12T11:18:16Z</time>
      </trkpt>
      <trkpt lat="60.0206054" lon="17.7993894">
        <ele>44.358</ele>
        <time>2014-07-12T11:18:17Z</time>
      </trkpt>
      <trkpt lat="60.0206214" lon="17.7992428">
        <ele>44.358</ele>
        <time>2014-07-12T11:18:18Z</time>
      </trkpt>
      <trkpt lat="60.0206598" lon="17.7991042">
        <ele>44.358</ele>
        <time>2014-07-12T11:18:19Z</time>
      </trkpt>
      <trkpt lat="60.0207155" lon="17.7989836">
        <ele>43.8773</ele>
        <time>2014-07-12T11:18:20Z</time>
      </trkpt>
      <trkpt lat="60.0207802" lon="17.7988752">
        <ele>43.8773</ele>
        <time>2014-07-12T11:18:21Z</time>
      </trkpt>
      <trkpt lat="60.0208491" lon="17.7987789">
        <ele>43.3966</ele>
        <time>2014-07-12T11:18:22Z</time>
      </trkpt>
      <trkpt lat="60.0209211" lon="17.7986893">
        <ele>43.3966</ele>
        <time>2014-07-12T11:18:23Z</time>
      </trkpt>
      <trkpt lat="60.020995" lon="17.7986096">
        <ele>42.916</ele>
        <time>2014-07-12T11:18:24Z</time>
      </trkpt>
      <trkpt lat="60.02107" lon="17.7985388">
        <ele>42.4354</ele>
        <time>2014-07-12T11:18:25Z</time>
      </trkpt>
      <trkpt lat="60.0211457" lon="17.7984743">
        <ele>41.9547</ele>
        <time>2014-07-12T11:18:26Z</time>
      </trkpt>
      <trkpt lat="60.0212207" lon="17.798405">
        <ele>41.474</ele>
        <time>2014-07-12T11:18:27Z</time>
      </trkpt>
      <trkpt lat="60.0212942" lon="17.7983172">
        <ele>41.474</ele>
        <time>2014-07-12T11:18:28Z</time>
      </trkpt>
      <trkpt lat="60.0213641" lon="17.7982109">
        <ele>40.9934</ele>
        <time>2014-07-12T11:18:29Z</time>
      </trkpt>
      <trkpt lat="60.021428" lon="17.798092">
        <ele>40.9934</ele>
        <time>2014-07-12T11:18:30Z</time>
      </trkpt>
      <trkpt lat="60.0214855" lon="17.7979713">
        <ele>40.9934</ele>
        <time>2014-07-12T11:18:31Z</time>
      </trkpt>
      <trkpt lat="60.0215362" lon="17.7978484">
        <ele>40.5128</ele>
        <time>2014-07-12T11:18:32Z</time>
      </trkpt>
      <trkpt lat="60.0215828" lon="17.79772">
        <ele>40.5128</ele>
        <time>2014-07-12T11:18:33Z</time>
      </trkpt>
      <trkpt lat="60.0216248" lon="17.7976002">
        <ele>40.5128</ele>
        <time>2014-07-12T11:18:34Z</time>
      </trkpt>
      <trkpt lat="60.0216642" lon="17.7974826">
        <ele>40.9934</ele>
        <time>2014-07-12T11:18:35Z</time>
      </trkpt>
      <trkpt lat="60.0217" lon="17.7973662">
        <ele>41.474</ele>
        <time>2014-07-12T11:18:36Z</time>
      </trkpt>
      <trkpt lat="60.021728" lon="17.7972456">
        <ele>41.9547</ele>
        <time>2014-07-12T11:18:37Z</time>
      </trkpt>
      <trkpt lat="60.0217421" lon="17.7971097">
        <ele>41.474</ele>
        <time>2014-07-12T11:18:38Z</time>
      </trkpt>
      <trkpt lat="60.0217377" lon="17.796958">
        <ele>40.9934</ele>
        <time>2014-07-12T11:18:39Z</time>
      </trkpt>
      <trkpt lat="60.0217165" lon="17.7967978">
        <ele>40.5128</ele>
        <time>2014-07-12T11:18:40Z</time>
      </trkpt>
      <trkpt lat="60.0216693" lon="17.7966037">
        <ele>39.5513</ele>
        <time>2014-07-12T11:18:41Z</time>
      </trkpt>
      <trkpt lat="60.0216238" lon="17.7964288">
        <ele>39.0707</ele>
        <time>2014-07-12T11:18:42Z</time>
      </trkpt>
      <trkpt lat="60.0215807" lon="17.7962562">
        <ele>39.0707</ele>
        <time>2014-07-12T11:18:43Z</time>
      </trkpt>
      <trkpt lat="60.0215428" lon="17.7960847">
        <ele>39.0707</ele>
        <time>2014-07-12T11:18:44Z</time>
      </trkpt>
      <trkpt lat="60.0215112" lon="17.7959125">
        <ele>39.5513</ele>
        <time>2014-07-12T11:18:45Z</time>
      </trkpt>
      <trkpt lat="60.0214816" lon="17.7957494">
        <ele>39.5513</ele>
        <time>2014-07-12T11:18:46Z</time>
      </trkpt>
      <trkpt lat="60.0214559" lon="17.7955962">
        <ele>40.0321</ele>
        <time>2014-07-12T11:18:47Z</time>
      </trkpt>
      <trkpt lat="60.0214308" lon="17.7954536">
        <ele>40.5128</ele>
        <time>2014-07-12T11:18:48Z</time>
      </trkpt>
      <trkpt lat="60.0214032" lon="17.7953227">
        <ele>40.9934</ele>
        <time>2014-07-12T11:18:49Z</time>
      </trkpt>
      <trkpt lat="60.0213735" lon="17.7952056">
        <ele>41.474</ele>
        <time>2014-07-12T11:18:50Z</time>
      </trkpt>
      <trkpt lat="60.0213396" lon="17.7951025">
        <ele>41.9547</ele>
        <time>2014-07-12T11:18:51Z</time>
      </trkpt>
      <trkpt lat="60.0213057" lon="17.7950166">
        <ele>42.4354</ele>
        <time>2014-07-12T11:18:52Z</time>
      </trkpt>
      <trkpt lat="60.0212684" lon="17.794932">
        <ele>42.916</ele>
        <time>2014-07-12T11:18:53Z</time>
      </trkpt>
      <trkpt lat="60.021229" lon="17.7948607">
        <ele>43.3966</ele>
        <time>2014-07-12T11:18:54Z</time>
      </trkpt>
      <trkpt lat="60.0211863" lon="17.794805">
        <ele>43.3966</ele>
        <time>2014-07-12T11:18:55Z</time>
      </trkpt>
      <trkpt lat="60.0211421" lon="17.794741">
        <ele>43.3966</ele>
        <time>2014-07-12T11:18:56Z</time>
      </trkpt>
      <trkpt lat="60.0211003" lon="17.7946739">
        <ele>43.3966</ele>
        <time>2014-07-12T11:18:57Z</time>
      </trkpt>
      <trkpt lat="60.0210568" lon="17.7946052">
        <ele>43.3966</ele>
        <time>2014-07-12T11:18:58Z</time>
      </trkpt>
      <trkpt lat="60.0210128" lon="17.7945325">
        <ele>43.3966</ele>
        <time>2014-07-12T11:18:59Z</time>
      </trkpt>
      <trkpt lat="60.0209659" lon="17.794461">
        <ele>43.3966</ele>
        <time>2014-07-12T11:19:00Z</time>
      </trkpt>
      <trkpt lat="60.0209187" lon="17.7943886">
        <ele>43.3966</ele>
        <time>2014-07-12T11:19:01Z</time>
      </trkpt>
      <trkpt lat="60.0208717" lon="17.7943168">
        <ele>43.3966</ele>
        <time>2014-07-12T11:19:02Z</time>
      </trkpt>
      <trkpt lat="60.0208255" lon="17.7942409">
        <ele>43.8773</ele>
        <time>2014-07-12T11:19:03Z</time>
      </trkpt>
      <trkpt lat="60.0207787" lon="17.7941577">
        <ele>43.8773</ele>
        <time>2014-07-12T11:19:04Z</time>
      </trkpt>
      <trkpt lat="60.0207339" lon="17.7940712">
        <ele>43.3966</ele>
        <time>2014-07-12T11:19:05Z</time>
      </trkpt>
      <trkpt lat="60.0206852" lon="17.7939811">
        <ele>43.8773</ele>
        <time>2014-07-12T11:19:06Z</time>
      </trkpt>
      <trkpt lat="60.0206379" lon="17.7938796">
        <ele>43.8773</ele>
        <time>2014-07-12T11:19:07Z</time>
      </trkpt>
      <trkpt lat="60.0205914" lon="17.7937654">
        <ele>43.8773</ele>
        <time>2014-07-12T11:19:08Z</time>
      </trkpt>
      <trkpt lat="60.0205463" lon="17.7936495">
        <ele>43.8773</ele>
        <time>2014-07-12T11:19:09Z</time>
      </trkpt>
      <trkpt lat="60.0205053" lon="17.7935361">
        <ele>43.8773</ele>
        <time>2014-07-12T11:19:10Z</time>
      </trkpt>
      <trkpt lat="60.0204634" lon="17.7934279">
        <ele>44.358</ele>
        <time>2014-07-12T11:19:11Z</time>
      </trkpt>
      <trkpt lat="60.0204192" lon="17.7933266">
        <ele>44.8386</ele>
        <time>2014-07-12T11:19:12Z</time>
      </trkpt>
      <trkpt lat="60.0203773" lon="17.7932263">
        <ele>44.8386</ele>
        <time>2014-07-12T11:19:13Z</time>
      </trkpt>
      <trkpt lat="60.0203337" lon="17.7931324">
        <ele>45.3192</ele>
        <time>2014-07-12T11:19:14Z</time>
      </trkpt>
      <trkpt lat="60.0202915" lon="17.7930391">
        <ele>45.7999</ele>
        <time>2014-07-12T11:19:15Z</time>
      </trkpt>
      <trkpt lat="60.0202493" lon="17.7929497">
        <ele>45.7999</ele>
        <time>2014-07-12T11:19:16Z</time>
      </trkpt>
      <trkpt lat="60.0202058" lon="17.7928658">
        <ele>45.7999</ele>
        <time>2014-07-12T11:19:17Z</time>
      </trkpt>
      <trkpt lat="60.0201605" lon="17.792785">
        <ele>46.2806</ele>
        <time>2014-07-12T11:19:18Z</time>
      </trkpt>
      <trkpt lat="60.0201177" lon="17.7927014">
        <ele>46.2806</ele>
        <time>2014-07-12T11:19:19Z</time>
      </trkpt>
      <trkpt lat="60.0200763" lon="17.7926152">
        <ele>46.2806</ele>
        <time>2014-07-12T11:19:20Z</time>
      </trkpt>
      <trkpt lat="60.0200355" lon="17.7925275">
        <ele>46.2806</ele>
        <time>2014-07-12T11:19:21Z</time>
      </trkpt>
      <trkpt lat="60.0199933" lon="17.7924399">
        <ele>46.7612</ele>
        <time>2014-07-12T11:19:22Z</time>
      </trkpt>
      <trkpt lat="60.0199515" lon="17.7923504">
        <ele>46.7612</ele>
        <time>2014-07-12T11:19:23Z</time>
      </trkpt>
      <trkpt lat="60.0199117" lon="17.7922571">
        <ele>46.7612</ele>
        <time>2014-07-12T11:19:24Z</time>
      </trkpt>
      <trkpt lat="60.019874" lon="17.7921567">
        <ele>46.7612</ele>
        <time>2014-07-12T11:19:25Z</time>
      </trkpt>
      <trkpt lat="60.0198382" lon="17.7920487">
        <ele>46.7612</ele>
        <time>2014-07-12T11:19:26Z</time>
      </trkpt>
      <trkpt lat="60.0198048" lon="17.7919328">
        <ele>46.7612</ele>
        <time>2014-07-12T11:19:27Z</time>
      </trkpt>
      <trkpt lat="60.0197734" lon="17.7918121">
        <ele>46.7612</ele>
        <time>2014-07-12T11:19:28Z</time>
      </trkpt>
      <trkpt lat="60.0197439" lon="17.7916882">
        <ele>46.2806</ele>
        <time>2014-07-12T11:19:29Z</time>
      </trkpt>
      <trkpt lat="60.0197158" lon="17.7915603">
        <ele>45.7999</ele>
        <time>2014-07-12T11:19:30Z</time>
      </trkpt>
      <trkpt lat="60.0196848" lon="17.7914273">
        <ele>45.7999</ele>
        <time>2014-07-12T11:19:31Z</time>
      </trkpt>
      <trkpt lat="60.0196509" lon="17.7912836">
        <ele>45.3192</ele>
        <time>2014-07-12T11:19:32Z</time>
      </trkpt>
      <trkpt lat="60.01961" lon="17.7911367">
        <ele>44.8386</ele>
        <time>2014-07-12T11:19:33Z</time>
      </trkpt>
      <trkpt lat="60.0195642" lon="17.7909875">
        <ele>44.8386</ele>
        <time>2014-07-12T11:19:34Z</time>
      </trkpt>
      <trkpt lat="60.0195139" lon="17.7908394">
        <ele>44.358</ele>
        <time>2014-07-12T11:19:35Z</time>
      </trkpt>
      <trkpt lat="60.0194502" lon="17.7906818">
        <ele>44.358</ele>
        <time>2014-07-12T11:19:36Z</time>
      </trkpt>
      <trkpt lat="60.0193857" lon="17.7905431">
        <ele>44.358</ele>
        <time>2014-07-12T11:19:37Z</time>
      </trkpt>
      <trkpt lat="60.0193217" lon="17.7904165">
        <ele>43.8773</ele>
        <time>2014-07-12T11:19:38Z</time>
      </trkpt>
      <trkpt lat="60.0192554" lon="17.7903038">
        <ele>43.8773</ele>
        <time>2014-07-12T11:19:39Z</time>
      </trkpt>
      <trkpt lat="60.019191" lon="17.7902027">
        <ele>43.8773</ele>
        <time>2014-07-12T11:19:40Z</time>
      </trkpt>
      <trkpt lat="60.0191257" lon="17.7901162">
        <ele>43.8773</ele>
        <time>2014-07-12T11:19:41Z</time>
      </trkpt>
      <trkpt lat="60.019054" lon="17.790049">
        <ele>44.358</ele>
        <time>2014-07-12T11:19:42Z</time>
      </trkpt>
      <trkpt lat="60.0189895" lon="17.7899852">
        <ele>44.358</ele>
        <time>2014-07-12T11:19:43Z</time>
      </trkpt>
      <trkpt lat="60.0189271" lon="17.7899266">
        <ele>43.8773</ele>
        <time>2014-07-12T11:19:44Z</time>
      </trkpt>
      <trkpt lat="60.0188638" lon="17.7898622">
        <ele>43.8773</ele>
        <time>2014-07-12T11:19:45Z</time>
      </trkpt>
      <trkpt lat="60.0188052" lon="17.7897872">
        <ele>43.8773</ele>
        <time>2014-07-12T11:19:46Z</time>
      </trkpt>
      <trkpt lat="60.0187473" lon="17.7897034">
        <ele>44.358</ele>
        <time>2014-07-12T11:19:47Z</time>
      </trkpt>
      <trkpt lat="60.0186876" lon="17.7896122">
        <ele>44.358</ele>
        <time>2014-07-12T11:19:48Z</time>
      </trkpt>
      <trkpt lat="60.0186274" lon="17.789511">
        <ele>43.8773</ele>
        <time>2014-07-12T11:19:49Z</time>
      </trkpt>
      <trkpt lat="60.0185701" lon="17.7894013">
        <ele>43.8773</ele>
        <time>2014-07-12T11:19:50Z</time>
      </trkpt>
      <trkpt lat="60.0185151" lon="17.7892812">
        <ele>43.8773</ele>
        <time>2014-07-12T11:19:51Z</time>
      </trkpt>
      <trkpt lat="60.0184666" lon="17.789148">
        <ele>43.8773</ele>
        <time>2014-07-12T11:19:52Z</time>
      </trkpt>
      <trkpt lat="60.0184214" lon="17.7890051">
        <ele>43.3966</ele>
        <time>2014-07-12T11:19:53Z</time>
      </trkpt>
      <trkpt lat="60.0183818" lon="17.7888529">
        <ele>43.3966</ele>
        <time>2014-07-12T11:19:54Z</time>
      </trkpt>
      <trkpt lat="60.0183525" lon="17.7886889">
        <ele>42.916</ele>
        <time>2014-07-12T11:19:55Z</time>
      </trkpt>
      <trkpt lat="60.0183293" lon="17.7885177">
        <ele>42.916</ele>
        <time>2014-07-12T11:19:56Z</time>
      </trkpt>
      <trkpt lat="60.0183136" lon="17.788341">
        <ele>42.916</ele>
        <time>2014-07-12T11:19:57Z</time>
      </trkpt>
      <trkpt lat="60.0183064" lon="17.7881364">
        <ele>42.4354</ele>
        <time>2014-07-12T11:19:58Z</time>
      </trkpt>
      <trkpt lat="60.0183139" lon="17.7879006">
        <ele>42.916</ele>
        <time>2014-07-12T11:19:59Z</time>
      </trkpt>
      <trkpt lat="60.0183075" lon="17.787669">
        <ele>42.916</ele>
        <time>2014-07-12T11:20:00Z</time>
      </trkpt>
      <trkpt lat="60.0183065" lon="17.7874755">
        <ele>43.3966</ele>
        <time>2014-07-12T11:20:01Z</time>
      </trkpt>
      <trkpt lat="60.0183196" lon="17.7873039">
        <ele>43.3966</ele>
        <time>2014-07-12T11:20:02Z</time>
      </trkpt>
      <trkpt lat="60.0183157" lon="17.7871303">
        <ele>43.3966</ele>
        <time>2014-07-12T11:20:03Z</time>
      </trkpt>
      <trkpt lat="60.018312" lon="17.7869662">
        <ele>43.8773</ele>
        <time>2014-07-12T11:20:04Z</time>
      </trkpt>
      <trkpt lat="60.0183074" lon="17.7868029">
        <ele>44.358</ele>
        <time>2014-07-12T11:20:05Z</time>
      </trkpt>
      <trkpt lat="60.0183003" lon="17.7866463">
        <ele>44.8386</ele>
        <time>2014-07-12T11:20:06Z</time>
      </trkpt>
      <trkpt lat="60.0182902" lon="17.7864773">
        <ele>44.8386</ele>
        <time>2014-07-12T11:20:07Z</time>
      </trkpt>
      <trkpt lat="60.0182818" lon="17.786325">
        <ele>44.8386</ele>
        <time>2014-07-12T11:20:08Z</time>
      </trkpt>
      <trkpt lat="60.0182747" lon="17.7861709">
        <ele>45.3192</ele>
        <time>2014-07-12T11:20:09Z</time>
      </trkpt>
      <trkpt lat="60.0182645" lon="17.7860289">
        <ele>44.8386</ele>
        <time>2014-07-12T11:20:10Z</time>
      </trkpt>
      <trkpt lat="60.0182533" lon="17.7858963">
        <ele>44.8386</ele>
        <time>2014-07-12T11:20:11Z</time>
      </trkpt>
      <trkpt lat="60.0182451" lon="17.785758">
        <ele>44.8386</ele>
        <time>2014-07-12T11:20:12Z</time>
      </trkpt>
      <trkpt lat="60.0182451" lon="17.7856255">
        <ele>44.8386</ele>
        <time>2014-07-12T11:20:13Z</time>
      </trkpt>
      <trkpt lat="60.0182441" lon="17.7854924">
        <ele>44.8386</ele>
        <time>2014-07-12T11:20:14Z</time>
      </trkpt>
      <trkpt lat="60.0182476" lon="17.7853562">
        <ele>44.358</ele>
        <time>2014-07-12T11:20:15Z</time>
      </trkpt>
      <trkpt lat="60.0182565" lon="17.7852174">
        <ele>44.358</ele>
        <time>2014-07-12T11:20:16Z</time>
      </trkpt>
      <trkpt lat="60.0182671" lon="17.7850791">
        <ele>44.358</ele>
        <time>2014-07-12T11:20:17Z</time>
      </trkpt>
      <trkpt lat="60.018279" lon="17.7849409">
        <ele>43.8773</ele>
        <time>2014-07-12T11:20:18Z</time>
      </trkpt>
      <trkpt lat="60.0182903" lon="17.784802">
        <ele>43.3966</ele>
        <time>2014-07-12T11:20:19Z</time>
      </trkpt>
      <trkpt lat="60.0182997" lon="17.7846579">
        <ele>43.8773</ele>
        <time>2014-07-12T11:20:20Z</time>
      </trkpt>
      <trkpt lat="60.0183064" lon="17.7845135">
        <ele>43.3966</ele>
        <time>2014-07-12T11:20:21Z</time>
      </trkpt>
      <trkpt lat="60.0183132" lon="17.7843687">
        <ele>43.3966</ele>
        <time>2014-07-12T11:20:22Z</time>
      </trkpt>
      <trkpt lat="60.0183117" lon="17.7842283">
        <ele>43.3966</ele>
        <time>2014-07-12T11:20:23Z</time>
      </trkpt>
      <trkpt lat="60.0183048" lon="17.7840887">
        <ele>42.916</ele>
        <time>2014-07-12T11:20:24Z</time>
      </trkpt>
      <trkpt lat="60.0182937" lon="17.7839494">
        <ele>42.916</ele>
        <time>2014-07-12T11:20:25Z</time>
      </trkpt>
      <trkpt lat="60.0182787" lon="17.7838186">
        <ele>42.916</ele>
        <time>2014-07-12T11:20:26Z</time>
      </trkpt>
      <trkpt lat="60.0182673" lon="17.7837023">
        <ele>42.916</ele>
        <time>2014-07-12T11:20:27Z</time>
      </trkpt>
      <trkpt lat="60.0182644" lon="17.7835866">
        <ele>42.4354</ele>
        <time>2014-07-12T11:20:28Z</time>
      </trkpt>
      <trkpt lat="60.0182629" lon="17.7834723">
        <ele>42.916</ele>
        <time>2014-07-12T11:20:29Z</time>
      </trkpt>
      <trkpt lat="60.0182609" lon="17.7833619">
        <ele>42.916</ele>
        <time>2014-07-12T11:20:30Z</time>
      </trkpt>
      <trkpt lat="60.0182623" lon="17.7832549">
        <ele>42.4354</ele>
        <time>2014-07-12T11:20:31Z</time>
      </trkpt>
      <trkpt lat="60.0182717" lon="17.7831391">
        <ele>42.4354</ele>
        <time>2014-07-12T11:20:32Z</time>
      </trkpt>
      <trkpt lat="60.0182851" lon="17.7830493">
        <ele>41.9547</ele>
        <time>2014-07-12T11:20:33Z</time>
      </trkpt>
      <trkpt lat="60.0182929" lon="17.7829392">
        <ele>41.9547</ele>
        <time>2014-07-12T11:20:34Z</time>
      </trkpt>
      <trkpt lat="60.0183054" lon="17.7828317">
        <ele>41.9547</ele>
        <time>2014-07-12T11:20:35Z</time>
      </trkpt>
      <trkpt lat="60.0183167" lon="17.7827224">
        <ele>41.9547</ele>
        <time>2014-07-12T11:20:36Z</time>
      </trkpt>
      <trkpt lat="60.0183303" lon="17.7826222">
        <ele>41.9547</ele>
        <time>2014-07-12T11:20:37Z</time>
      </trkpt>
      <trkpt lat="60.0183473" lon="17.7825215">
        <ele>41.9547</ele>
        <time>2014-07-12T11:20:38Z</time>
      </trkpt>
      <trkpt lat="60.0183608" lon="17.7824217">
        <ele>41.474</ele>
        <time>2014-07-12T11:20:39Z</time>
      </trkpt>
      <trkpt lat="60.0183767" lon="17.7823207">
        <ele>41.9547</ele>
        <time>2014-07-12T11:20:40Z</time>
      </trkpt>
      <trkpt lat="60.0183882" lon="17.7822273">
        <ele>41.474</ele>
        <time>2014-07-12T11:20:41Z</time>
      </trkpt>
      <trkpt lat="60.018401" lon="17.7821335">
        <ele>41.9547</ele>
        <time>2014-07-12T11:20:42Z</time>
      </trkpt>
      <trkpt lat="60.0184152" lon="17.7820335">
        <ele>41.9547</ele>
        <time>2014-07-12T11:20:43Z</time>
      </trkpt>
      <trkpt lat="60.0184312" lon="17.7819415">
        <ele>42.4354</ele>
        <time>2014-07-12T11:20:44Z</time>
      </trkpt>
      <trkpt lat="60.0184473" lon="17.7818523">
        <ele>42.4354</ele>
        <time>2014-07-12T11:20:45Z</time>
      </trkpt>
      <trkpt lat="60.0184665" lon="17.7817625">
        <ele>42.916</ele>
        <time>2014-07-12T11:20:46Z</time>
      </trkpt>
      <trkpt lat="60.0184887" lon="17.7816726">
        <ele>42.916</ele>
        <time>2014-07-12T11:20:47Z</time>
      </trkpt>
      <trkpt lat="60.0185149" lon="17.7815866">
        <ele>42.916</ele>
        <time>2014-07-12T11:20:48Z</time>
      </trkpt>
      <trkpt lat="60.0185467" lon="17.7815085">
        <ele>42.916</ele>
        <time>2014-07-12T11:20:49Z</time>
      </trkpt>
      <trkpt lat="60.0185846" lon="17.7814374">
        <ele>43.3966</ele>
        <time>2014-07-12T11:20:50Z</time>
      </trkpt>
      <trkpt lat="60.0186256" lon="17.7813717">
        <ele>43.3966</ele>
        <time>2014-07-12T11:20:51Z</time>
      </trkpt>
      <trkpt lat="60.018672" lon="17.7813059">
        <ele>43.8773</ele>
        <time>2014-07-12T11:20:52Z</time>
      </trkpt>
      <trkpt lat="60.0187195" lon="17.7812399">
        <ele>43.8773</ele>
        <time>2014-07-12T11:20:53Z</time>
      </trkpt>
      <trkpt lat="60.01877" lon="17.781171">
        <ele>43.8773</ele>
        <time>2014-07-12T11:20:54Z</time>
      </trkpt>
      <trkpt lat="60.0188223" lon="17.7810993">
        <ele>43.8773</ele>
        <time>2014-07-12T11:20:55Z</time>
      </trkpt>
      <trkpt lat="60.0188736" lon="17.7810234">
        <ele>43.8773</ele>
        <time>2014-07-12T11:20:56Z</time>
      </trkpt>
      <trkpt lat="60.0189236" lon="17.7809382">
        <ele>43.8773</ele>
        <time>2014-07-12T11:20:57Z</time>
      </trkpt>
      <trkpt lat="60.0189731" lon="17.7808526">
        <ele>44.358</ele>
        <time>2014-07-12T11:20:58Z</time>
      </trkpt>
      <trkpt lat="60.019019" lon="17.7807639">
        <ele>44.358</ele>
        <time>2014-07-12T11:20:59Z</time>
      </trkpt>
      <trkpt lat="60.0190595" lon="17.7806651">
        <ele>44.8386</ele>
        <time>2014-07-12T11:21:00Z</time>
      </trkpt>
      <trkpt lat="60.0191" lon="17.7805652">
        <ele>44.8386</ele>
        <time>2014-07-12T11:21:01Z</time>
      </trkpt>
      <trkpt lat="60.0191429" lon="17.7804699">
        <ele>44.8386</ele>
        <time>2014-07-12T11:21:02Z</time>
      </trkpt>
      <trkpt lat="60.0191891" lon="17.7803833">
        <ele>44.8386</ele>
        <time>2014-07-12T11:21:03Z</time>
      </trkpt>
      <trkpt lat="60.0192414" lon="17.7803126">
        <ele>44.8386</ele>
        <time>2014-07-12T11:21:04Z</time>
      </trkpt>
      <trkpt lat="60.019301" lon="17.7802593">
        <ele>45.3192</ele>
        <time>2014-07-12T11:21:05Z</time>
      </trkpt>
      <trkpt lat="60.0193605" lon="17.7802237">
        <ele>45.3192</ele>
        <time>2014-07-12T11:21:06Z</time>
      </trkpt>
      <trkpt lat="60.0194211" lon="17.7801976">
        <ele>45.3192</ele>
        <time>2014-07-12T11:21:07Z</time>
      </trkpt>
      <trkpt lat="60.0194812" lon="17.7801764">
        <ele>45.7999</ele>
        <time>2014-07-12T11:21:08Z</time>
      </trkpt>
      <trkpt lat="60.0195408" lon="17.7801533">
        <ele>45.7999</ele>
        <time>2014-07-12T11:21:09Z</time>
      </trkpt>
      <trkpt lat="60.0195996" lon="17.7801196">
        <ele>45.7999</ele>
        <time>2014-07-12T11:21:10Z</time>
      </trkpt>
      <trkpt lat="60.0196568" lon="17.7800731">
        <ele>45.7999</ele>
        <time>2014-07-12T11:21:11Z</time>
      </trkpt>
      <trkpt lat="60.0197121" lon="17.780015">
        <ele>45.7999</ele>
        <time>2014-07-12T11:21:12Z</time>
      </trkpt>
      <trkpt lat="60.0197634" lon="17.7799399">
        <ele>45.7999</ele>
        <time>2014-07-12T11:21:13Z</time>
      </trkpt>
      <trkpt lat="60.0198053" lon="17.779848">
        <ele>45.7999</ele>
        <time>2014-07-12T11:21:14Z</time>
      </trkpt>
      <trkpt lat="60.0198437" lon="17.7797358">
        <ele>45.7999</ele>
        <time>2014-07-12T11:21:15Z</time>
      </trkpt>
      <trkpt lat="60.0198815" lon="17.7796173">
        <ele>45.7999</ele>
        <time>2014-07-12T11:21:16Z</time>
      </trkpt>
      <trkpt lat="60.0199159" lon="17.7795001">
        <ele>45.7999</ele>
        <time>2014-07-12T11:21:17Z</time>
      </trkpt>
      <trkpt lat="60.0199511" lon="17.779383">
        <ele>45.7999</ele>
        <time>2014-07-12T11:21:18Z</time>
      </trkpt>
      <trkpt lat="60.0199879" lon="17.779267">
        <ele>45.3192</ele>
        <time>2014-07-12T11:21:19Z</time>
      </trkpt>
      <trkpt lat="60.0200251" lon="17.7791492">
        <ele>45.3192</ele>
        <time>2014-07-12T11:21:20Z</time>
      </trkpt>
      <trkpt lat="60.020062" lon="17.7790313">
        <ele>45.3192</ele>
        <time>2014-07-12T11:21:21Z</time>
      </trkpt>
      <trkpt lat="60.0200972" lon="17.7789099">
        <ele>45.3192</ele>
        <time>2014-07-12T11:21:22Z</time>
      </trkpt>
      <trkpt lat="60.0201303" lon="17.7787879">
        <ele>45.3192</ele>
        <time>2014-07-12T11:21:23Z</time>
      </trkpt>
      <trkpt lat="60.020163" lon="17.7786667">
        <ele>45.3192</ele>
        <time>2014-07-12T11:21:24Z</time>
      </trkpt>
      <trkpt lat="60.0201977" lon="17.7785491">
        <ele>45.3192</ele>
        <time>2014-07-12T11:21:25Z</time>
      </trkpt>
      <trkpt lat="60.0202324" lon="17.7784345">
        <ele>45.3192</ele>
        <time>2014-07-12T11:21:26Z</time>
      </trkpt>
      <trkpt lat="60.0202653" lon="17.7783215">
        <ele>45.3192</ele>
        <time>2014-07-12T11:21:27Z</time>
      </trkpt>
      <trkpt lat="60.0202956" lon="17.7782093">
        <ele>45.3192</ele>
        <time>2014-07-12T11:21:28Z</time>
      </trkpt>
      <trkpt lat="60.020322" lon="17.7780932">
        <ele>45.3192</ele>
        <time>2014-07-12T11:21:29Z</time>
      </trkpt>
      <trkpt lat="60.0203463" lon="17.7779698">
        <ele>44.8386</ele>
        <time>2014-07-12T11:21:30Z</time>
      </trkpt>
      <trkpt lat="60.0203757" lon="17.777834">
        <ele>44.358</ele>
        <time>2014-07-12T11:21:31Z</time>
      </trkpt>
      <trkpt lat="60.0204085" lon="17.7776865">
        <ele>43.8773</ele>
        <time>2014-07-12T11:21:32Z</time>
      </trkpt>
      <trkpt lat="60.020434" lon="17.7775258">
        <ele>43.3966</ele>
        <time>2014-07-12T11:21:33Z</time>
      </trkpt>
      <trkpt lat="60.0204463" lon="17.7773501">
        <ele>42.916</ele>
        <time>2014-07-12T11:21:34Z</time>
      </trkpt>
      <trkpt lat="60.0204452" lon="17.7771704">
        <ele>42.4354</ele>
        <time>2014-07-12T11:21:35Z</time>
      </trkpt>
      <trkpt lat="60.020429" lon="17.7770007">
        <ele>42.4354</ele>
        <time>2014-07-12T11:21:36Z</time>
      </trkpt>
      <trkpt lat="60.0204053" lon="17.7768347">
        <ele>42.916</ele>
        <time>2014-07-12T11:21:37Z</time>
      </trkpt>
      <trkpt lat="60.0203762" lon="17.7766835">
        <ele>43.3966</ele>
        <time>2014-07-12T11:21:38Z</time>
      </trkpt>
      <trkpt lat="60.0203487" lon="17.7765379">
        <ele>43.3966</ele>
        <time>2014-07-12T11:21:39Z</time>
      </trkpt>
      <trkpt lat="60.0203207" lon="17.7763967">
        <ele>43.8773</ele>
        <time>2014-07-12T11:21:40Z</time>
      </trkpt>
      <trkpt lat="60.0202936" lon="17.7762536">
        <ele>43.3966</ele>
        <time>2014-07-12T11:21:41Z</time>
      </trkpt>
      <trkpt lat="60.0202649" lon="17.7761044">
        <ele>43.3966</ele>
        <time>2014-07-12T11:21:42Z</time>
      </trkpt>
      <trkpt lat="60.0202365" lon="17.7759465">
        <ele>43.3966</ele>
        <time>2014-07-12T11:21:43Z</time>
      </trkpt>
      <trkpt lat="60.0202036" lon="17.775787">
        <ele>42.916</ele>
        <time>2014-07-12T11:21:44Z</time>
      </trkpt>
      <trkpt lat="60.0201674" lon="17.7756263">
        <ele>42.4354</ele>
        <time>2014-07-12T11:21:45Z</time>
      </trkpt>
      <trkpt lat="60.0201329" lon="17.7754651">
        <ele>42.4354</ele>
        <time>2014-07-12T11:21:46Z</time>
      </trkpt>
      <trkpt lat="60.020107" lon="17.7753068">
        <ele>41.9547</ele>
        <time>2014-07-12T11:21:47Z</time>
      </trkpt>
      <trkpt lat="60.0201158" lon="17.7751189">
        <ele>41.9547</ele>
        <time>2014-07-12T11:21:48Z</time>
      </trkpt>
      <trkpt lat="60.0201531" lon="17.7749772">
        <ele>41.9547</ele>
        <time>2014-07-12T11:21:49Z</time>
      </trkpt>
      <trkpt lat="60.020213" lon="17.7748617">
        <ele>41.9547</ele>
        <time>2014-07-12T11:21:50Z</time>
      </trkpt>
      <trkpt lat="60.02029" lon="17.7747791">
        <ele>42.4354</ele>
        <time>2014-07-12T11:21:51Z</time>
      </trkpt>
      <trkpt lat="60.0203691" lon="17.774736">
        <ele>42.4354</ele>
        <time>2014-07-12T11:21:52Z</time>
      </trkpt>
      <trkpt lat="60.0204477" lon="17.7747078">
        <ele>42.916</ele>
        <time>2014-07-12T11:21:53Z</time>
      </trkpt>
      <trkpt lat="60.0205253" lon="17.7746898">
        <ele>42.4354</ele>
        <time>2014-07-12T11:21:54Z</time>
      </trkpt>
      <trkpt lat="60.0206032" lon="17.7746671">
        <ele>42.916</ele>
        <time>2014-07-12T11:21:55Z</time>
      </trkpt>
      <trkpt lat="60.0206762" lon="17.7746307">
        <ele>42.4354</ele>
        <time>2014-07-12T11:21:56Z</time>
      </trkpt>
      <trkpt lat="60.0207481" lon="17.7745728">
        <ele>42.4354</ele>
        <time>2014-07-12T11:21:57Z</time>
      </trkpt>
      <trkpt lat="60.0208116" lon="17.7744928">
        <ele>42.4354</ele>
        <time>2014-07-12T11:21:58Z</time>
      </trkpt>
      <trkpt lat="60.0208664" lon="17.7743833">
        <ele>42.4354</ele>
        <time>2014-07-12T11:21:59Z</time>
      </trkpt>
      <trkpt lat="60.0209136" lon="17.7742607">
        <ele>41.9547</ele>
        <time>2014-07-12T11:22:00Z</time>
      </trkpt>
      <trkpt lat="60.020957" lon="17.7741402">
        <ele>41.474</ele>
        <time>2014-07-12T11:22:01Z</time>
      </trkpt>
      <trkpt lat="60.0209986" lon="17.7740211">
        <ele>41.474</ele>
        <time>2014-07-12T11:22:02Z</time>
      </trkpt>
      <trkpt lat="60.0210404" lon="17.773909">
        <ele>40.9934</ele>
        <time>2014-07-12T11:22:03Z</time>
      </trkpt>
      <trkpt lat="60.0210794" lon="17.7738002">
        <ele>40.5128</ele>
        <time>2014-07-12T11:22:04Z</time>
      </trkpt>
      <trkpt lat="60.0211191" lon="17.7736852">
        <ele>40.0321</ele>
        <time>2014-07-12T11:22:05Z</time>
      </trkpt>
      <trkpt lat="60.0211587" lon="17.7735728">
        <ele>39.5513</ele>
        <time>2014-07-12T11:22:06Z</time>
      </trkpt>
      <trkpt lat="60.0211987" lon="17.7734609">
        <ele>39.0707</ele>
        <time>2014-07-12T11:22:07Z</time>
      </trkpt>
      <trkpt lat="60.0212394" lon="17.7733433">
        <ele>39.0707</ele>
        <time>2014-07-12T11:22:08Z</time>
      </trkpt>
      <trkpt lat="60.0212837" lon="17.7732291">
        <ele>39.0707</ele>
        <time>2014-07-12T11:22:09Z</time>
      </trkpt>
      <trkpt lat="60.0213308" lon="17.7731218">
        <ele>38.5901</ele>
        <time>2014-07-12T11:22:10Z</time>
      </trkpt>
      <trkpt lat="60.0213806" lon="17.7730211">
        <ele>38.5901</ele>
        <time>2014-07-12T11:22:11Z</time>
      </trkpt>
      <trkpt lat="60.0214336" lon="17.7729302">
        <ele>38.5901</ele>
        <time>2014-07-12T11:22:12Z</time>
      </trkpt>
      <trkpt lat="60.021488" lon="17.7728479">
        <ele>38.5901</ele>
        <time>2014-07-12T11:22:13Z</time>
      </trkpt>
      <trkpt lat="60.0215439" lon="17.7727691">
        <ele>38.5901</ele>
        <time>2014-07-12T11:22:14Z</time>
      </trkpt>
      <trkpt lat="60.0215963" lon="17.7726903">
        <ele>38.5901</ele>
        <time>2014-07-12T11:22:15Z</time>
      </trkpt>
      <trkpt lat="60.0216456" lon="17.7726046">
        <ele>39.0707</ele>
        <time>2014-07-12T11:22:16Z</time>
      </trkpt>
      <trkpt lat="60.0216912" lon="17.7725146">
        <ele>39.0707</ele>
        <time>2014-07-12T11:22:17Z</time>
      </trkpt>
      <trkpt lat="60.0217341" lon="17.7724193">
        <ele>38.5901</ele>
        <time>2014-07-12T11:22:18Z</time>
      </trkpt>
      <trkpt lat="60.0217746" lon="17.772317">
        <ele>38.5901</ele>
        <time>2014-07-12T11:22:19Z</time>
      </trkpt>
      <trkpt lat="60.0218103" lon="17.7722096">
        <ele>38.5901</ele>
        <time>2014-07-12T11:22:20Z</time>
      </trkpt>
      <trkpt lat="60.0218416" lon="17.7720945">
        <ele>38.5901</ele>
        <time>2014-07-12T11:22:21Z</time>
      </trkpt>
      <trkpt lat="60.0218686" lon="17.7719776">
        <ele>38.5901</ele>
        <time>2014-07-12T11:22:22Z</time>
      </trkpt>
      <trkpt lat="60.021896" lon="17.7718593">
        <ele>39.0707</ele>
        <time>2014-07-12T11:22:23Z</time>
      </trkpt>
      <trkpt lat="60.0219246" lon="17.7717439">
        <ele>39.0707</ele>
        <time>2014-07-12T11:22:24Z</time>
      </trkpt>
      <trkpt lat="60.0219519" lon="17.7716298">
        <ele>39.0707</ele>
        <time>2014-07-12T11:22:25Z</time>
      </trkpt>
      <trkpt lat="60.0219756" lon="17.7715127">
        <ele>39.0707</ele>
        <time>2014-07-12T11:22:26Z</time>
      </trkpt>
      <trkpt lat="60.0219982" lon="17.7713922">
        <ele>39.5513</ele>
        <time>2014-07-12T11:22:27Z</time>
      </trkpt>
      <trkpt lat="60.0220216" lon="17.7712772">
        <ele>40.0321</ele>
        <time>2014-07-12T11:22:28Z</time>
      </trkpt>
      <trkpt lat="60.0220447" lon="17.7711679">
        <ele>40.5128</ele>
        <time>2014-07-12T11:22:29Z</time>
      </trkpt>
      <trkpt lat="60.0220666" lon="17.771056">
        <ele>40.5128</ele>
        <time>2014-07-12T11:22:30Z</time>
      </trkpt>
      <trkpt lat="60.0220853" lon="17.7709457">
        <ele>40.5128</ele>
        <time>2014-07-12T11:22:31Z</time>
      </trkpt>
      <trkpt lat="60.0220998" lon="17.7708275">
        <ele>40.5128</ele>
        <time>2014-07-12T11:22:32Z</time>
      </trkpt>
      <trkpt lat="60.0221126" lon="17.7707042">
        <ele>41.474</ele>
        <time>2014-07-12T11:22:33Z</time>
      </trkpt>
      <trkpt lat="60.02212" lon="17.7705835">
        <ele>41.9547</ele>
        <time>2014-07-12T11:22:34Z</time>
      </trkpt>
      <trkpt lat="60.0221235" lon="17.7704639">
        <ele>41.9547</ele>
        <time>2014-07-12T11:22:35Z</time>
      </trkpt>
      <trkpt lat="60.0221262" lon="17.770342">
        <ele>42.4354</ele>
        <time>2014-07-12T11:22:36Z</time>
      </trkpt>
      <trkpt lat="60.022124" lon="17.7702232">
        <ele>41.9547</ele>
        <time>2014-07-12T11:22:37Z</time>
      </trkpt>
      <trkpt lat="60.022119" lon="17.77011">
        <ele>42.4354</ele>
        <time>2014-07-12T11:22:38Z</time>
      </trkpt>
      <trkpt lat="60.0221169" lon="17.7699946">
        <ele>42.4354</ele>
        <time>2014-07-12T11:22:39Z</time>
      </trkpt>
      <trkpt lat="60.0221174" lon="17.7698696">
        <ele>42.916</ele>
        <time>2014-07-12T11:22:40Z</time>
      </trkpt>
      <trkpt lat="60.0221148" lon="17.7697393">
        <ele>43.8773</ele>
        <time>2014-07-12T11:22:41Z</time>
      </trkpt>
      <trkpt lat="60.0221123" lon="17.7696067">
        <ele>44.8386</ele>
        <time>2014-07-12T11:22:42Z</time>
      </trkpt>
      <trkpt lat="60.0221116" lon="17.7694813">
        <ele>45.7999</ele>
        <time>2014-07-12T11:22:43Z</time>
      </trkpt>
      <trkpt lat="60.0221076" lon="17.7693616">
        <ele>46.7612</ele>
        <time>2014-07-12T11:22:44Z</time>
      </trkpt>
      <trkpt lat="60.0220998" lon="17.7692514">
        <ele>46.7612</ele>
        <time>2014-07-12T11:22:45Z</time>
      </trkpt>
      <trkpt lat="60.0220986" lon="17.7691386">
        <ele>47.2418</ele>
        <time>2014-07-12T11:22:46Z</time>
      </trkpt>
      <trkpt lat="60.0221018" lon="17.7690174">
        <ele>47.7225</ele>
        <time>2014-07-12T11:22:47Z</time>
      </trkpt>
      <trkpt lat="60.0221089" lon="17.7688895">
        <ele>47.7225</ele>
        <time>2014-07-12T11:22:48Z</time>
      </trkpt>
      <trkpt lat="60.0221159" lon="17.768761">
        <ele>48.2034</ele>
        <time>2014-07-12T11:22:49Z</time>
      </trkpt>
      <trkpt lat="60.0221315" lon="17.7686435">
        <ele>48.2034</ele>
        <time>2014-07-12T11:22:50Z</time>
      </trkpt>
      <trkpt lat="60.0221531" lon="17.7685364">
        <ele>47.7225</ele>
        <time>2014-07-12T11:22:51Z</time>
      </trkpt>
      <trkpt lat="60.0221785" lon="17.7684295">
        <ele>47.7225</ele>
        <time>2014-07-12T11:22:52Z</time>
      </trkpt>
      <trkpt lat="60.022207" lon="17.7683143">
        <ele>48.2034</ele>
        <time>2014-07-12T11:22:53Z</time>
      </trkpt>
      <trkpt lat="60.0222417" lon="17.7682011">
        <ele>48.684</ele>
        <time>2014-07-12T11:22:54Z</time>
      </trkpt>
      <trkpt lat="60.022279" lon="17.7680919">
        <ele>49.6453</ele>
        <time>2014-07-12T11:22:55Z</time>
      </trkpt>
      <trkpt lat="60.0223149" lon="17.7679868">
        <ele>49.1646</ele>
        <time>2014-07-12T11:22:56Z</time>
      </trkpt>
      <trkpt lat="60.0223519" lon="17.7678847">
        <ele>49.1646</ele>
        <time>2014-07-12T11:22:57Z</time>
      </trkpt>
      <trkpt lat="60.0223874" lon="17.7677779">
        <ele>48.684</ele>
        <time>2014-07-12T11:22:58Z</time>
      </trkpt>
      <trkpt lat="60.0224233" lon="17.7676672">
        <ele>48.684</ele>
        <time>2014-07-12T11:22:59Z</time>
      </trkpt>
      <trkpt lat="60.0224597" lon="17.7675579">
        <ele>48.2034</ele>
        <time>2014-07-12T11:23:00Z</time>
      </trkpt>
      <trkpt lat="60.0224948" lon="17.7674491">
        <ele>48.2034</ele>
        <time>2014-07-12T11:23:01Z</time>
      </trkpt>
      <trkpt lat="60.0225327" lon="17.7673304">
        <ele>47.7225</ele>
        <time>2014-07-12T11:23:02Z</time>
      </trkpt>
      <trkpt lat="60.0225706" lon="17.767219">
        <ele>47.7225</ele>
        <time>2014-07-12T11:23:03Z</time>
      </trkpt>
      <trkpt lat="60.0226017" lon="17.7671031">
        <ele>47.7225</ele>
        <time>2014-07-12T11:23:04Z</time>
      </trkpt>
      <trkpt lat="60.0226267" lon="17.7669897">
        <ele>47.2418</ele>
        <time>2014-07-12T11:23:05Z</time>
      </trkpt>
      <trkpt lat="60.022645" lon="17.7668654">
        <ele>46.7612</ele>
        <time>2014-07-12T11:23:06Z</time>
      </trkpt>
      <trkpt lat="60.0226645" lon="17.766746">
        <ele>46.7612</ele>
        <time>2014-07-12T11:23:07Z</time>
      </trkpt>
      <trkpt lat="60.022686" lon="17.7666152">
        <ele>46.7612</ele>
        <time>2014-07-12T11:23:08Z</time>
      </trkpt>
      <trkpt lat="60.0227084" lon="17.7664948">
        <ele>46.2806</ele>
        <time>2014-07-12T11:23:09Z</time>
      </trkpt>
      <trkpt lat="60.0227253" lon="17.7663742">
        <ele>46.2806</ele>
        <time>2014-07-12T11:23:10Z</time>
      </trkpt>
      <trkpt lat="60.0227416" lon="17.7662514">
        <ele>46.2806</ele>
        <time>2014-07-12T11:23:11Z</time>
      </trkpt>
      <trkpt lat="60.0227608" lon="17.7661308">
        <ele>45.7999</ele>
        <time>2014-07-12T11:23:12Z</time>
      </trkpt>
      <trkpt lat="60.0227803" lon="17.7660107">
        <ele>45.3192</ele>
        <time>2014-07-12T11:23:13Z</time>
      </trkpt>
      <trkpt lat="60.0228018" lon="17.7658879">
        <ele>45.3192</ele>
        <time>2014-07-12T11:23:14Z</time>
      </trkpt>
      <trkpt lat="60.0228228" lon="17.7657648">
        <ele>45.3192</ele>
        <time>2014-07-12T11:23:15Z</time>
      </trkpt>
      <trkpt lat="60.0228375" lon="17.7656552">
        <ele>44.8386</ele>
        <time>2014-07-12T11:23:16Z</time>
      </trkpt>
      <trkpt lat="60.022855" lon="17.7655432">
        <ele>43.8773</ele>
        <time>2014-07-12T11:23:17Z</time>
      </trkpt>
      <trkpt lat="60.0228768" lon="17.7654342">
        <ele>43.8773</ele>
        <time>2014-07-12T11:23:18Z</time>
      </trkpt>
      <trkpt lat="60.022899" lon="17.7653279">
        <ele>43.8773</ele>
        <time>2014-07-12T11:23:19Z</time>
      </trkpt>
      <trkpt lat="60.0229196" lon="17.7652223">
        <ele>43.8773</ele>
        <time>2014-07-12T11:23:20Z</time>
      </trkpt>
      <trkpt lat="60.0229395" lon="17.7651191">
        <ele>43.3966</ele>
        <time>2014-07-12T11:23:21Z</time>
      </trkpt>
      <trkpt lat="60.0229654" lon="17.7650092">
        <ele>43.3966</ele>
        <time>2014-07-12T11:23:22Z</time>
      </trkpt>
      <trkpt lat="60.0229933" lon="17.7649077">
        <ele>43.3966</ele>
        <time>2014-07-12T11:23:23Z</time>
      </trkpt>
      <trkpt lat="60.0230235" lon="17.7648084">
        <ele>43.3966</ele>
        <time>2014-07-12T11:23:24Z</time>
      </trkpt>
      <trkpt lat="60.0230549" lon="17.7647038">
        <ele>42.916</ele>
        <time>2014-07-12T11:23:25Z</time>
      </trkpt>
      <trkpt lat="60.0230841" lon="17.7645959">
        <ele>42.4354</ele>
        <time>2014-07-12T11:23:26Z</time>
      </trkpt>
      <trkpt lat="60.0231109" lon="17.7644561">
        <ele>43.3966</ele>
        <time>2014-07-12T11:23:27Z</time>
      </trkpt>
      <trkpt lat="60.0231389" lon="17.7643307">
        <ele>43.3966</ele>
        <time>2014-07-12T11:23:28Z</time>
      </trkpt>
      <trkpt lat="60.0231664" lon="17.7642141">
        <ele>43.3966</ele>
        <time>2014-07-12T11:23:29Z</time>
      </trkpt>
      <trkpt lat="60.0231912" lon="17.7640941">
        <ele>43.3966</ele>
        <time>2014-07-12T11:23:30Z</time>
      </trkpt>
      <trkpt lat="60.0232149" lon="17.7639764">
        <ele>43.8773</ele>
        <time>2014-07-12T11:23:31Z</time>
      </trkpt>
      <trkpt lat="60.0232347" lon="17.7638504">
        <ele>43.8773</ele>
        <time>2014-07-12T11:23:32Z</time>
      </trkpt>
      <trkpt lat="60.0232544" lon="17.7637236">
        <ele>44.358</ele>
        <time>2014-07-12T11:23:33Z</time>
      </trkpt>
      <trkpt lat="60.0232736" lon="17.7635982">
        <ele>44.8386</ele>
        <time>2014-07-12T11:23:34Z</time>
      </trkpt>
      <trkpt lat="60.0232922" lon="17.7634687">
        <ele>44.8386</ele>
        <time>2014-07-12T11:23:35Z</time>
      </trkpt>
      <trkpt lat="60.02331" lon="17.7633485">
        <ele>44.8386</ele>
        <time>2014-07-12T11:23:36Z</time>
      </trkpt>
      <trkpt lat="60.0233243" lon="17.7632335">
        <ele>45.3192</ele>
        <time>2014-07-12T11:23:37Z</time>
      </trkpt>
      <trkpt lat="60.0233347" lon="17.7631135">
        <ele>45.3192</ele>
        <time>2014-07-12T11:23:38Z</time>
      </trkpt>
      <trkpt lat="60.0233451" lon="17.7629923">
        <ele>45.3192</ele>
        <time>2014-07-12T11:23:39Z</time>
      </trkpt>
      <trkpt lat="60.0233569" lon="17.7628775">
        <ele>45.3192</ele>
        <time>2014-07-12T11:23:40Z</time>
      </trkpt>
      <trkpt lat="60.0233658" lon="17.7627594">
        <ele>45.3192</ele>
        <time>2014-07-12T11:23:41Z</time>
      </trkpt>
      <trkpt lat="60.0233679" lon="17.7626269">
        <ele>45.7999</ele>
        <time>2014-07-12T11:23:42Z</time>
      </trkpt>
      <trkpt lat="60.0233668" lon="17.7624835">
        <ele>46.2806</ele>
        <time>2014-07-12T11:23:43Z</time>
      </trkpt>
      <trkpt lat="60.0233689" lon="17.7623475">
        <ele>46.7612</ele>
        <time>2014-07-12T11:23:44Z</time>
      </trkpt>
      <trkpt lat="60.0233679" lon="17.7622193">
        <ele>46.7612</ele>
        <time>2014-07-12T11:23:45Z</time>
      </trkpt>
      <trkpt lat="60.02336" lon="17.7620882">
        <ele>46.7612</ele>
        <time>2014-07-12T11:23:46Z</time>
      </trkpt>
      <trkpt lat="60.0233534" lon="17.7619561">
        <ele>47.2418</ele>
        <time>2014-07-12T11:23:47Z</time>
      </trkpt>
      <trkpt lat="60.0233451" lon="17.7618207">
        <ele>47.2418</ele>
        <time>2014-07-12T11:23:48Z</time>
      </trkpt>
      <trkpt lat="60.023334" lon="17.7616856">
        <ele>47.7225</ele>
        <time>2014-07-12T11:23:49Z</time>
      </trkpt>
      <trkpt lat="60.0233281" lon="17.7615588">
        <ele>48.2034</ele>
        <time>2014-07-12T11:23:50Z</time>
      </trkpt>
      <trkpt lat="60.0233231" lon="17.7614248">
        <ele>48.2034</ele>
        <time>2014-07-12T11:23:51Z</time>
      </trkpt>
      <trkpt lat="60.0233181" lon="17.7612932">
        <ele>48.684</ele>
        <time>2014-07-12T11:23:52Z</time>
      </trkpt>
      <trkpt lat="60.0233109" lon="17.7611563">
        <ele>48.684</ele>
        <time>2014-07-12T11:23:53Z</time>
      </trkpt>
      <trkpt lat="60.0232994" lon="17.7610154">
        <ele>49.1646</ele>
        <time>2014-07-12T11:23:54Z</time>
      </trkpt>
      <trkpt lat="60.0232902" lon="17.7608821">
        <ele>49.6453</ele>
        <time>2014-07-12T11:23:55Z</time>
      </trkpt>
      <trkpt lat="60.0232827" lon="17.7607621">
        <ele>49.1646</ele>
        <time>2014-07-12T11:23:56Z</time>
      </trkpt>
      <trkpt lat="60.0232739" lon="17.7606483">
        <ele>49.1646</ele>
        <time>2014-07-12T11:23:57Z</time>
      </trkpt>
      <trkpt lat="60.0232648" lon="17.7605342">
        <ele>49.1646</ele>
        <time>2014-07-12T11:23:58Z</time>
      </trkpt>
      <trkpt lat="60.0232543" lon="17.7604213">
        <ele>49.1646</ele>
        <time>2014-07-12T11:23:59Z</time>
      </trkpt>
      <trkpt lat="60.0232433" lon="17.7603084">
        <ele>48.684</ele>
        <time>2014-07-12T11:24:00Z</time>
      </trkpt>
      <trkpt lat="60.0232307" lon="17.7601907">
        <ele>48.684</ele>
        <time>2014-07-12T11:24:01Z</time>
      </trkpt>
      <trkpt lat="60.0232205" lon="17.7600735">
        <ele>48.684</ele>
        <time>2014-07-12T11:24:02Z</time>
      </trkpt>
      <trkpt lat="60.023215" lon="17.7599531">
        <ele>48.2034</ele>
        <time>2014-07-12T11:24:03Z</time>
      </trkpt>
      <trkpt lat="60.0232169" lon="17.7598272">
        <ele>47.7225</ele>
        <time>2014-07-12T11:24:04Z</time>
      </trkpt>
      <trkpt lat="60.0232264" lon="17.7596945">
        <ele>47.7225</ele>
        <time>2014-07-12T11:24:05Z</time>
      </trkpt>
      <trkpt lat="60.0232442" lon="17.7595615">
        <ele>47.2418</ele>
        <time>2014-07-12T11:24:06Z</time>
      </trkpt>
      <trkpt lat="60.0232688" lon="17.7594309">
        <ele>46.7612</ele>
        <time>2014-07-12T11:24:07Z</time>
      </trkpt>
      <trkpt lat="60.0232962" lon="17.7593037">
        <ele>46.2806</ele>
        <time>2014-07-12T11:24:08Z</time>
      </trkpt>
      <trkpt lat="60.0233213" lon="17.7591753">
        <ele>46.2806</ele>
        <time>2014-07-12T11:24:09Z</time>
      </trkpt>
      <trkpt lat="60.0233451" lon="17.7590458">
        <ele>45.3192</ele>
        <time>2014-07-12T11:24:10Z</time>
      </trkpt>
      <trkpt lat="60.0233664" lon="17.7589072">
        <ele>45.3192</ele>
        <time>2014-07-12T11:24:11Z</time>
      </trkpt>
      <trkpt lat="60.0233861" lon="17.7587627">
        <ele>44.8386</ele>
        <time>2014-07-12T11:24:12Z</time>
      </trkpt>
      <trkpt lat="60.0234066" lon="17.7586155">
        <ele>44.358</ele>
        <time>2014-07-12T11:24:13Z</time>
      </trkpt>
      <trkpt lat="60.0234305" lon="17.7584723">
        <ele>43.8773</ele>
        <time>2014-07-12T11:24:14Z</time>
      </trkpt>
      <trkpt lat="60.0234548" lon="17.7583265">
        <ele>43.3966</ele>
        <time>2014-07-12T11:24:15Z</time>
      </trkpt>
      <trkpt lat="60.0234798" lon="17.7581772">
        <ele>43.3966</ele>
        <time>2014-07-12T11:24:16Z</time>
      </trkpt>
      <trkpt lat="60.0235094" lon="17.7580297">
        <ele>42.916</ele>
        <time>2014-07-12T11:24:17Z</time>
      </trkpt>
      <trkpt lat="60.0235382" lon="17.7578846">
        <ele>42.916</ele>
        <time>2014-07-12T11:24:18Z</time>
      </trkpt>
      <trkpt lat="60.0235699" lon="17.757739">
        <ele>42.4354</ele>
        <time>2014-07-12T11:24:19Z</time>
      </trkpt>
      <trkpt lat="60.0236013" lon="17.7575951">
        <ele>42.4354</ele>
        <time>2014-07-12T11:24:20Z</time>
      </trkpt>
      <trkpt lat="60.0236331" lon="17.7574541">
        <ele>41.9547</ele>
        <time>2014-07-12T11:24:21Z</time>
      </trkpt>
      <trkpt lat="60.0236657" lon="17.7573157">
        <ele>41.9547</ele>
        <time>2014-07-12T11:24:22Z</time>
      </trkpt>
      <trkpt lat="60.0236988" lon="17.7571785">
        <ele>41.474</ele>
        <time>2014-07-12T11:24:23Z</time>
      </trkpt>
      <trkpt lat="60.0237313" lon="17.7570412">
        <ele>41.474</ele>
        <time>2014-07-12T11:24:24Z</time>
      </trkpt>
      <trkpt lat="60.0237617" lon="17.7569018">
        <ele>40.9934</ele>
        <time>2014-07-12T11:24:25Z</time>
      </trkpt>
      <trkpt lat="60.0237917" lon="17.7567655">
        <ele>40.9934</ele>
        <time>2014-07-12T11:24:26Z</time>
      </trkpt>
      <trkpt lat="60.0238206" lon="17.7566298">
        <ele>40.5128</ele>
        <time>2014-07-12T11:24:27Z</time>
      </trkpt>
      <trkpt lat="60.0238468" lon="17.7564914">
        <ele>40.5128</ele>
        <time>2014-07-12T11:24:28Z</time>
      </trkpt>
      <trkpt lat="60.0238698" lon="17.7563537">
        <ele>40.5128</ele>
        <time>2014-07-12T11:24:29Z</time>
      </trkpt>
      <trkpt lat="60.0238919" lon="17.7562164">
        <ele>40.5128</ele>
        <time>2014-07-12T11:24:30Z</time>
      </trkpt>
      <trkpt lat="60.0239158" lon="17.7560855">
        <ele>40.5128</ele>
        <time>2014-07-12T11:24:31Z</time>
      </trkpt>
      <trkpt lat="60.0239386" lon="17.7559491">
        <ele>40.5128</ele>
        <time>2014-07-12T11:24:32Z</time>
      </trkpt>
      <trkpt lat="60.0239597" lon="17.7558119">
        <ele>40.5128</ele>
        <time>2014-07-12T11:24:33Z</time>
      </trkpt>
      <trkpt lat="60.023981" lon="17.7556754">
        <ele>40.5128</ele>
        <time>2014-07-12T11:24:34Z</time>
      </trkpt>
      <trkpt lat="60.0240028" lon="17.755537">
        <ele>40.0321</ele>
        <time>2014-07-12T11:24:35Z</time>
      </trkpt>
      <trkpt lat="60.024024" lon="17.7553997">
        <ele>40.0321</ele>
        <time>2014-07-12T11:24:36Z</time>
      </trkpt>
      <trkpt lat="60.0240459" lon="17.7552629">
        <ele>40.0321</ele>
        <time>2014-07-12T11:24:37Z</time>
      </trkpt>
      <trkpt lat="60.0240688" lon="17.7551247">
        <ele>40.0321</ele>
        <time>2014-07-12T11:24:38Z</time>
      </trkpt>
      <trkpt lat="60.0240914" lon="17.7549854">
        <ele>40.0321</ele>
        <time>2014-07-12T11:24:39Z</time>
      </trkpt>
      <trkpt lat="60.0241138" lon="17.7548444">
        <ele>40.0321</ele>
        <time>2014-07-12T11:24:40Z</time>
      </trkpt>
      <trkpt lat="60.0241361" lon="17.7547056">
        <ele>40.0321</ele>
        <time>2014-07-12T11:24:41Z</time>
      </trkpt>
      <trkpt lat="60.0241593" lon="17.7545678">
        <ele>40.0321</ele>
        <time>2014-07-12T11:24:42Z</time>
      </trkpt>
      <trkpt lat="60.0241832" lon="17.7544315">
        <ele>39.5513</ele>
        <time>2014-07-12T11:24:43Z</time>
      </trkpt>
      <trkpt lat="60.024207" lon="17.7542963">
        <ele>39.5513</ele>
        <time>2014-07-12T11:24:44Z</time>
      </trkpt>
      <trkpt lat="60.0242303" lon="17.7541601">
        <ele>39.5513</ele>
        <time>2014-07-12T11:24:45Z</time>
      </trkpt>
      <trkpt lat="60.0242531" lon="17.7540228">
        <ele>39.5513</ele>
        <time>2014-07-12T11:24:46Z</time>
      </trkpt>
      <trkpt lat="60.0242752" lon="17.7538841">
        <ele>39.5513</ele>
        <time>2014-07-12T11:24:47Z</time>
      </trkpt>
      <trkpt lat="60.0242951" lon="17.7537453">
        <ele>39.0707</ele>
        <time>2014-07-12T11:24:48Z</time>
      </trkpt>
      <trkpt lat="60.0243152" lon="17.7536058">
        <ele>39.0707</ele>
        <time>2014-07-12T11:24:49Z</time>
      </trkpt>
      <trkpt lat="60.0243365" lon="17.7534688">
        <ele>39.0707</ele>
        <time>2014-07-12T11:24:50Z</time>
      </trkpt>
      <trkpt lat="60.0243578" lon="17.7533328">
        <ele>38.5901</ele>
        <time>2014-07-12T11:24:51Z</time>
      </trkpt>
      <trkpt lat="60.0243789" lon="17.7531976">
        <ele>38.5901</ele>
        <time>2014-07-12T11:24:52Z</time>
      </trkpt>
      <trkpt lat="60.0243985" lon="17.7530619">
        <ele>38.5901</ele>
        <time>2014-07-12T11:24:53Z</time>
      </trkpt>
      <trkpt lat="60.0244137" lon="17.7529271">
        <ele>38.5901</ele>
        <time>2014-07-12T11:24:54Z</time>
      </trkpt>
      <trkpt lat="60.0244288" lon="17.7527859">
        <ele>38.5901</ele>
        <time>2014-07-12T11:24:55Z</time>
      </trkpt>
      <trkpt lat="60.0244433" lon="17.7526372">
        <ele>38.5901</ele>
        <time>2014-07-12T11:24:56Z</time>
      </trkpt>
      <trkpt lat="60.0244526" lon="17.752491">
        <ele>38.5901</ele>
        <time>2014-07-12T11:24:57Z</time>
      </trkpt>
      <trkpt lat="60.0244578" lon="17.7523487">
        <ele>38.1094</ele>
        <time>2014-07-12T11:24:58Z</time>
      </trkpt>
      <trkpt lat="60.0244613" lon="17.7522066">
        <ele>38.1094</ele>
        <time>2014-07-12T11:24:59Z</time>
      </trkpt>
      <trkpt lat="60.0244634" lon="17.7520581">
        <ele>38.1094</ele>
        <time>2014-07-12T11:25:00Z</time>
      </trkpt>
      <trkpt lat="60.0244624" lon="17.7519122">
        <ele>38.1094</ele>
        <time>2014-07-12T11:25:01Z</time>
      </trkpt>
      <trkpt lat="60.0244602" lon="17.7517656">
        <ele>38.1094</ele>
        <time>2014-07-12T11:25:02Z</time>
      </trkpt>
      <trkpt lat="60.0244563" lon="17.7516213">
        <ele>38.1094</ele>
        <time>2014-07-12T11:25:03Z</time>
      </trkpt>
      <trkpt lat="60.0244534" lon="17.7514767">
        <ele>38.1094</ele>
        <time>2014-07-12T11:25:04Z</time>
      </trkpt>
      <trkpt lat="60.0244489" lon="17.7513337">
        <ele>38.1094</ele>
        <time>2014-07-12T11:25:05Z</time>
      </trkpt>
      <trkpt lat="60.0244438" lon="17.7511927">
        <ele>38.1094</ele>
        <time>2014-07-12T11:25:06Z</time>
      </trkpt>
      <trkpt lat="60.0244391" lon="17.7510473">
        <ele>38.1094</ele>
        <time>2014-07-12T11:25:07Z</time>
      </trkpt>
      <trkpt lat="60.0244346" lon="17.7508948">
        <ele>38.1094</ele>
        <time>2014-07-12T11:25:08Z</time>
      </trkpt>
      <trkpt lat="60.0244299" lon="17.7507407">
        <ele>38.1094</ele>
        <time>2014-07-12T11:25:09Z</time>
      </trkpt>
      <trkpt lat="60.0244249" lon="17.7505884">
        <ele>38.5901</ele>
        <time>2014-07-12T11:25:10Z</time>
      </trkpt>
      <trkpt lat="60.0244249" lon="17.7504375">
        <ele>38.1094</ele>
        <time>2014-07-12T11:25:11Z</time>
      </trkpt>
      <trkpt lat="60.0244283" lon="17.7502859">
        <ele>38.1094</ele>
        <time>2014-07-12T11:25:12Z</time>
      </trkpt>
      <trkpt lat="60.0244355" lon="17.7501316">
        <ele>38.1094</ele>
        <time>2014-07-12T11:25:13Z</time>
      </trkpt>
      <trkpt lat="60.0244493" lon="17.7499865">
        <ele>38.1094</ele>
        <time>2014-07-12T11:25:14Z</time>
      </trkpt>
      <trkpt lat="60.0244655" lon="17.7498414">
        <ele>37.6287</ele>
        <time>2014-07-12T11:25:15Z</time>
      </trkpt>
      <trkpt lat="60.0244825" lon="17.7496995">
        <ele>37.6287</ele>
        <time>2014-07-12T11:25:16Z</time>
      </trkpt>
      <trkpt lat="60.0244987" lon="17.7495638">
        <ele>37.1481</ele>
        <time>2014-07-12T11:25:17Z</time>
      </trkpt>
      <trkpt lat="60.0245153" lon="17.7494342">
        <ele>37.1481</ele>
        <time>2014-07-12T11:25:18Z</time>
      </trkpt>
      <trkpt lat="60.0245319" lon="17.7493079">
        <ele>36.6675</ele>
        <time>2014-07-12T11:25:19Z</time>
      </trkpt>
      <trkpt lat="60.0245488" lon="17.7491806">
        <ele>37.1481</ele>
        <time>2014-07-12T11:25:20Z</time>
      </trkpt>
      <trkpt lat="60.0245645" lon="17.7490559">
        <ele>37.1481</ele>
        <time>2014-07-12T11:25:21Z</time>
      </trkpt>
      <trkpt lat="60.024579" lon="17.7489383">
        <ele>37.1481</ele>
        <time>2014-07-12T11:25:22Z</time>
      </trkpt>
      <trkpt lat="60.0245929" lon="17.748828">
        <ele>37.1481</ele>
        <time>2014-07-12T11:25:23Z</time>
      </trkpt>
      <trkpt lat="60.0246054" lon="17.7487246">
        <ele>37.6287</ele>
        <time>2014-07-12T11:25:24Z</time>
      </trkpt>
      <trkpt lat="60.0246168" lon="17.7486306">
        <ele>37.6287</ele>
        <time>2014-07-12T11:25:25Z</time>
      </trkpt>
      <trkpt lat="60.0246271" lon="17.7485458">
        <ele>37.6287</ele>
        <time>2014-07-12T11:25:26Z</time>
      </trkpt>
      <trkpt lat="60.0246396" lon="17.7484743">
        <ele>37.6287</ele>
        <time>2014-07-12T11:25:27Z</time>
      </trkpt>
      <trkpt lat="60.0246545" lon="17.7484125">
        <ele>38.1094</ele>
        <time>2014-07-12T11:25:28Z</time>
      </trkpt>
      <trkpt lat="60.0246644" lon="17.7483536">
        <ele>38.1094</ele>
        <time>2014-07-12T11:25:29Z</time>
      </trkpt>
      <trkpt lat="60.0246666" lon="17.7482879">
        <ele>38.1094</ele>
        <time>2014-07-12T11:25:30Z</time>
      </trkpt>
      <trkpt lat="60.0246585" lon="17.7482138">
        <ele>38.1094</ele>
        <time>2014-07-12T11:25:31Z</time>
      </trkpt>
      <trkpt lat="60.0246371" lon="17.748138">
        <ele>38.1094</ele>
        <time>2014-07-12T11:25:32Z</time>
      </trkpt>
      <trkpt lat="60.0246044" lon="17.7480755">
        <ele>38.1094</ele>
        <time>2014-07-12T11:25:33Z</time>
      </trkpt>
      <trkpt lat="60.0245622" lon="17.7480332">
        <ele>38.5901</ele>
        <time>2014-07-12T11:25:34Z</time>
      </trkpt>
      <trkpt lat="60.0245163" lon="17.7479952">
        <ele>38.5901</ele>
        <time>2014-07-12T11:25:35Z</time>
      </trkpt>
      <trkpt lat="60.0244679" lon="17.7479579">
        <ele>38.5901</ele>
        <time>2014-07-12T11:25:36Z</time>
      </trkpt>
      <trkpt lat="60.0244183" lon="17.7479182">
        <ele>38.5901</ele>
        <time>2014-07-12T11:25:37Z</time>
      </trkpt>
      <trkpt lat="60.0243676" lon="17.7478787">
        <ele>38.5901</ele>
        <time>2014-07-12T11:25:38Z</time>
      </trkpt>
      <trkpt lat="60.0243149" lon="17.747843">
        <ele>39.0707</ele>
        <time>2014-07-12T11:25:39Z</time>
      </trkpt>
      <trkpt lat="60.0242617" lon="17.7478086">
        <ele>39.0707</ele>
        <time>2014-07-12T11:25:40Z</time>
      </trkpt>
      <trkpt lat="60.0242069" lon="17.7477741">
        <ele>39.0707</ele>
        <time>2014-07-12T11:25:41Z</time>
      </trkpt>
      <trkpt lat="60.0241514" lon="17.7477429">
        <ele>39.0707</ele>
        <time>2014-07-12T11:25:42Z</time>
      </trkpt>
      <trkpt lat="60.024094" lon="17.7477165">
        <ele>39.0707</ele>
        <time>2014-07-12T11:25:43Z</time>
      </trkpt>
      <trkpt lat="60.0240382" lon="17.7476897">
        <ele>39.5513</ele>
        <time>2014-07-12T11:25:44Z</time>
      </trkpt>
      <trkpt lat="60.0239833" lon="17.7476647">
        <ele>39.5513</ele>
        <time>2014-07-12T11:25:45Z</time>
      </trkpt>
      <trkpt lat="60.0239314" lon="17.7476369">
        <ele>39.0707</ele>
        <time>2014-07-12T11:25:46Z</time>
      </trkpt>
      <trkpt lat="60.023879" lon="17.7476101">
        <ele>39.0707</ele>
        <time>2014-07-12T11:25:47Z</time>
      </trkpt>
      <trkpt lat="60.0238276" lon="17.7475819">
        <ele>39.0707</ele>
        <time>2014-07-12T11:25:48Z</time>
      </trkpt>
      <trkpt lat="60.0237755" lon="17.7475521">
        <ele>39.5513</ele>
        <time>2014-07-12T11:25:49Z</time>
      </trkpt>
      <trkpt lat="60.0237222" lon="17.7475201">
        <ele>39.5513</ele>
        <time>2014-07-12T11:25:50Z</time>
      </trkpt>
      <trkpt lat="60.0236704" lon="17.7474824">
        <ele>39.5513</ele>
        <time>2014-07-12T11:25:51Z</time>
      </trkpt>
      <trkpt lat="60.0236158" lon="17.7474468">
        <ele>40.0321</ele>
        <time>2014-07-12T11:25:52Z</time>
      </trkpt>
      <trkpt lat="60.0235562" lon="17.7474177">
        <ele>40.5128</ele>
        <time>2014-07-12T11:25:53Z</time>
      </trkpt>
      <trkpt lat="60.0234958" lon="17.7473882">
        <ele>40.5128</ele>
        <time>2014-07-12T11:25:54Z</time>
      </trkpt>
      <trkpt lat="60.023436" lon="17.7473544">
        <ele>40.9934</ele>
        <time>2014-07-12T11:25:55Z</time>
      </trkpt>
      <trkpt lat="60.0233745" lon="17.7473217">
        <ele>41.474</ele>
        <time>2014-07-12T11:25:56Z</time>
      </trkpt>
      <trkpt lat="60.023313" lon="17.7472883">
        <ele>41.9547</ele>
        <time>2014-07-12T11:25:57Z</time>
      </trkpt>
      <trkpt lat="60.0232547" lon="17.7472517">
        <ele>41.9547</ele>
        <time>2014-07-12T11:25:58Z</time>
      </trkpt>
      <trkpt lat="60.023195" lon="17.7472165">
        <ele>41.9547</ele>
        <time>2014-07-12T11:25:59Z</time>
      </trkpt>
      <trkpt lat="60.0231356" lon="17.74718">
        <ele>41.9547</ele>
        <time>2014-07-12T11:26:00Z</time>
      </trkpt>
      <trkpt lat="60.0230793" lon="17.7471405">
        <ele>41.9547</ele>
        <time>2014-07-12T11:26:01Z</time>
      </trkpt>
      <trkpt lat="60.0230216" lon="17.747107">
        <ele>41.9547</ele>
        <time>2014-07-12T11:26:02Z</time>
      </trkpt>
      <trkpt lat="60.0229612" lon="17.7470815">
        <ele>42.4354</ele>
        <time>2014-07-12T11:26:03Z</time>
      </trkpt>
      <trkpt lat="60.0229057" lon="17.7470507">
        <ele>42.4354</ele>
        <time>2014-07-12T11:26:04Z</time>
      </trkpt>
      <trkpt lat="60.0228564" lon="17.7470016">
        <ele>42.4354</ele>
        <time>2014-07-12T11:26:05Z</time>
      </trkpt>
      <trkpt lat="60.0228166" lon="17.7469236">
        <ele>42.4354</ele>
        <time>2014-07-12T11:26:06Z</time>
      </trkpt>
      <trkpt lat="60.0227935" lon="17.7468173">
        <ele>41.9547</ele>
        <time>2014-07-12T11:26:07Z</time>
      </trkpt>
      <trkpt lat="60.0227894" lon="17.746695">
        <ele>41.9547</ele>
        <time>2014-07-12T11:26:08Z</time>
      </trkpt>
      <trkpt lat="60.0227991" lon="17.7465696">
        <ele>41.474</ele>
        <time>2014-07-12T11:26:09Z</time>
      </trkpt>
      <trkpt lat="60.022815" lon="17.7464416">
        <ele>40.9934</ele>
        <time>2014-07-12T11:26:10Z</time>
      </trkpt>
      <trkpt lat="60.0228306" lon="17.746309">
        <ele>40.5128</ele>
        <time>2014-07-12T11:26:11Z</time>
      </trkpt>
      <trkpt lat="60.022843" lon="17.7461708">
        <ele>40.0321</ele>
        <time>2014-07-12T11:26:12Z</time>
      </trkpt>
      <trkpt lat="60.0228522" lon="17.7460284">
        <ele>39.5513</ele>
        <time>2014-07-12T11:26:13Z</time>
      </trkpt>
      <trkpt lat="60.0228586" lon="17.7458834">
        <ele>39.5513</ele>
        <time>2014-07-12T11:26:14Z</time>
      </trkpt>
      <trkpt lat="60.0228628" lon="17.7457335">
        <ele>39.0707</ele>
        <time>2014-07-12T11:26:15Z</time>
      </trkpt>
      <trkpt lat="60.0228649" lon="17.7455817">
        <ele>38.5901</ele>
        <time>2014-07-12T11:26:16Z</time>
      </trkpt>
      <trkpt lat="60.0228653" lon="17.7454264">
        <ele>38.5901</ele>
        <time>2014-07-12T11:26:17Z</time>
      </trkpt>
      <trkpt lat="60.0228636" lon="17.7452691">
        <ele>38.1094</ele>
        <time>2014-07-12T11:26:18Z</time>
      </trkpt>
      <trkpt lat="60.0228602" lon="17.7451104">
        <ele>37.6287</ele>
        <time>2014-07-12T11:26:19Z</time>
      </trkpt>
      <trkpt lat="60.0228548" lon="17.7449507">
        <ele>37.6287</ele>
        <time>2014-07-12T11:26:20Z</time>
      </trkpt>
      <trkpt lat="60.0228476" lon="17.7447908">
        <ele>37.1481</ele>
        <time>2014-07-12T11:26:21Z</time>
      </trkpt>
      <trkpt lat="60.0228405" lon="17.7446303">
        <ele>36.6675</ele>
        <time>2014-07-12T11:26:22Z</time>
      </trkpt>
      <trkpt lat="60.0228343" lon="17.74447">
        <ele>36.6675</ele>
        <time>2014-07-12T11:26:23Z</time>
      </trkpt>
      <trkpt lat="60.0228277" lon="17.74431">
        <ele>36.1868</ele>
        <time>2014-07-12T11:26:24Z</time>
      </trkpt>
      <trkpt lat="60.0228218" lon="17.7441511">
        <ele>36.1868</ele>
        <time>2014-07-12T11:26:25Z</time>
      </trkpt>
      <trkpt lat="60.0228176" lon="17.7439925">
        <ele>36.1868</ele>
        <time>2014-07-12T11:26:26Z</time>
      </trkpt>
      <trkpt lat="60.0228146" lon="17.7438335">
        <ele>36.1868</ele>
        <time>2014-07-12T11:26:27Z</time>
      </trkpt>
      <trkpt lat="60.0228131" lon="17.7436751">
        <ele>35.7061</ele>
        <time>2014-07-12T11:26:28Z</time>
      </trkpt>
      <trkpt lat="60.022813" lon="17.7435189">
        <ele>35.7061</ele>
        <time>2014-07-12T11:26:29Z</time>
      </trkpt>
      <trkpt lat="60.022815" lon="17.7433641">
        <ele>35.7061</ele>
        <time>2014-07-12T11:26:30Z</time>
      </trkpt>
      <trkpt lat="60.0228171" lon="17.7432086">
        <ele>35.7061</ele>
        <time>2014-07-12T11:26:31Z</time>
      </trkpt>
      <trkpt lat="60.0228176" lon="17.7430551">
        <ele>35.7061</ele>
        <time>2014-07-12T11:26:32Z</time>
      </trkpt>
      <trkpt lat="60.0228167" lon="17.7429031">
        <ele>35.2255</ele>
        <time>2014-07-12T11:26:33Z</time>
      </trkpt>
      <trkpt lat="60.0228151" lon="17.7427525">
        <ele>35.2255</ele>
        <time>2014-07-12T11:26:34Z</time>
      </trkpt>
      <trkpt lat="60.0228126" lon="17.7425987">
        <ele>35.2255</ele>
        <time>2014-07-12T11:26:35Z</time>
      </trkpt>
      <trkpt lat="60.0228063" lon="17.7424505">
        <ele>35.2255</ele>
        <time>2014-07-12T11:26:36Z</time>
      </trkpt>
      <trkpt lat="60.022796" lon="17.7423048">
        <ele>34.7449</ele>
        <time>2014-07-12T11:26:37Z</time>
      </trkpt>
      <trkpt lat="60.0227811" lon="17.742162">
        <ele>34.7449</ele>
        <time>2014-07-12T11:26:38Z</time>
      </trkpt>
      <trkpt lat="60.0227621" lon="17.7420237">
        <ele>34.7449</ele>
        <time>2014-07-12T11:26:39Z</time>
      </trkpt>
      <trkpt lat="60.0227374" lon="17.741892">
        <ele>34.7449</ele>
        <time>2014-07-12T11:26:40Z</time>
      </trkpt>
      <trkpt lat="60.0227054" lon="17.7417652">
        <ele>34.2642</ele>
        <time>2014-07-12T11:26:41Z</time>
      </trkpt>
      <trkpt lat="60.0226728" lon="17.7416349">
        <ele>34.2642</ele>
        <time>2014-07-12T11:26:42Z</time>
      </trkpt>
      <trkpt lat="60.0226487" lon="17.741493">
        <ele>33.7834</ele>
        <time>2014-07-12T11:26:43Z</time>
      </trkpt>
      <trkpt lat="60.0226368" lon="17.7413423">
        <ele>33.7834</ele>
        <time>2014-07-12T11:26:44Z</time>
      </trkpt>
      <trkpt lat="60.0226353" lon="17.7411851">
        <ele>33.3029</ele>
        <time>2014-07-12T11:26:45Z</time>
      </trkpt>
      <trkpt lat="60.02264" lon="17.7410228">
        <ele>33.3029</ele>
        <time>2014-07-12T11:26:46Z</time>
      </trkpt>
      <trkpt lat="60.0226478" lon="17.7408574">
        <ele>32.8223</ele>
        <time>2014-07-12T11:26:47Z</time>
      </trkpt>
      <trkpt lat="60.0226581" lon="17.7406916">
        <ele>32.3416</ele>
        <time>2014-07-12T11:26:48Z</time>
      </trkpt>
      <trkpt lat="60.0226699" lon="17.7405246">
        <ele>31.8607</ele>
        <time>2014-07-12T11:26:49Z</time>
      </trkpt>
      <trkpt lat="60.0226825" lon="17.7403556">
        <ele>31.8607</ele>
        <time>2014-07-12T11:26:50Z</time>
      </trkpt>
      <trkpt lat="60.022697" lon="17.7401861">
        <ele>31.3801</ele>
        <time>2014-07-12T11:26:51Z</time>
      </trkpt>
      <trkpt lat="60.0227121" lon="17.7400156">
        <ele>30.8995</ele>
        <time>2014-07-12T11:26:52Z</time>
      </trkpt>
      <trkpt lat="60.0227261" lon="17.7398434">
        <ele>30.4188</ele>
        <time>2014-07-12T11:26:53Z</time>
      </trkpt>
      <trkpt lat="60.0227391" lon="17.7396697">
        <ele>30.4188</ele>
        <time>2014-07-12T11:26:54Z</time>
      </trkpt>
      <trkpt lat="60.0227524" lon="17.7394952">
        <ele>29.9381</ele>
        <time>2014-07-12T11:26:55Z</time>
      </trkpt>
      <trkpt lat="60.0227659" lon="17.7393173">
        <ele>29.4575</ele>
        <time>2014-07-12T11:26:56Z</time>
      </trkpt>
      <trkpt lat="60.0227805" lon="17.73914">
        <ele>29.4575</ele>
        <time>2014-07-12T11:26:57Z</time>
      </trkpt>
      <trkpt lat="60.0227949" lon="17.7389638">
        <ele>29.4575</ele>
        <time>2014-07-12T11:26:58Z</time>
      </trkpt>
      <trkpt lat="60.0228075" lon="17.7387879">
        <ele>28.9769</ele>
        <time>2014-07-12T11:26:59Z</time>
      </trkpt>
      <trkpt lat="60.0228203" lon="17.7386126">
        <ele>28.9769</ele>
        <time>2014-07-12T11:27:00Z</time>
      </trkpt>
      <trkpt lat="60.0228355" lon="17.738439">
        <ele>28.4962</ele>
        <time>2014-07-12T11:27:01Z</time>
      </trkpt>
      <trkpt lat="60.0228513" lon="17.7382655">
        <ele>28.0155</ele>
        <time>2014-07-12T11:27:02Z</time>
      </trkpt>
      <trkpt lat="60.0228649" lon="17.738091">
        <ele>28.0155</ele>
        <time>2014-07-12T11:27:03Z</time>
      </trkpt>
      <trkpt lat="60.0228783" lon="17.7379156">
        <ele>27.5349</ele>
        <time>2014-07-12T11:27:04Z</time>
      </trkpt>
      <trkpt lat="60.0228929" lon="17.7377397">
        <ele>27.5349</ele>
        <time>2014-07-12T11:27:05Z</time>
      </trkpt>
      <trkpt lat="60.0229084" lon="17.7375637">
        <ele>27.0543</ele>
        <time>2014-07-12T11:27:06Z</time>
      </trkpt>
      <trkpt lat="60.0229238" lon="17.7373879">
        <ele>26.5736</ele>
        <time>2014-07-12T11:27:07Z</time>
      </trkpt>
      <trkpt lat="60.0229377" lon="17.7372123">
        <ele>26.5736</ele>
        <time>2014-07-12T11:27:08Z</time>
      </trkpt>
      <trkpt lat="60.0229504" lon="17.7370373">
        <ele>26.5736</ele>
        <time>2014-07-12T11:27:09Z</time>
      </trkpt>
      <trkpt lat="60.0229636" lon="17.7368656">
        <ele>26.0929</ele>
        <time>2014-07-12T11:27:10Z</time>
      </trkpt>
      <trkpt lat="60.0229782" lon="17.7366985">
        <ele>26.0929</ele>
        <time>2014-07-12T11:27:11Z</time>
      </trkpt>
      <trkpt lat="60.0229929" lon="17.7365349">
        <ele>26.0929</ele>
        <time>2014-07-12T11:27:12Z</time>
      </trkpt>
      <trkpt lat="60.0230064" lon="17.7363738">
        <ele>26.0929</ele>
        <time>2014-07-12T11:27:13Z</time>
      </trkpt>
      <trkpt lat="60.0230182" lon="17.7362147">
        <ele>26.0929</ele>
        <time>2014-07-12T11:27:14Z</time>
      </trkpt>
      <trkpt lat="60.0230312" lon="17.7360586">
        <ele>26.0929</ele>
        <time>2014-07-12T11:27:15Z</time>
      </trkpt>
      <trkpt lat="60.0230466" lon="17.7359028">
        <ele>26.0929</ele>
        <time>2014-07-12T11:27:16Z</time>
      </trkpt>
      <trkpt lat="60.0230623" lon="17.7357457">
        <ele>26.0929</ele>
        <time>2014-07-12T11:27:17Z</time>
      </trkpt>
      <trkpt lat="60.0230778" lon="17.7355861">
        <ele>26.0929</ele>
        <time>2014-07-12T11:27:18Z</time>
      </trkpt>
      <trkpt lat="60.0230922" lon="17.7354236">
        <ele>26.0929</ele>
        <time>2014-07-12T11:27:19Z</time>
      </trkpt>
      <trkpt lat="60.0231059" lon="17.7352595">
        <ele>26.0929</ele>
        <time>2014-07-12T11:27:20Z</time>
      </trkpt>
      <trkpt lat="60.0231206" lon="17.7350947">
        <ele>26.0929</ele>
        <time>2014-07-12T11:27:21Z</time>
      </trkpt>
      <trkpt lat="60.0231363" lon="17.7349304">
        <ele>26.5736</ele>
        <time>2014-07-12T11:27:22Z</time>
      </trkpt>
      <trkpt lat="60.0231508" lon="17.7347756">
        <ele>26.0929</ele>
        <time>2014-07-12T11:27:23Z</time>
      </trkpt>
      <trkpt lat="60.0231669" lon="17.7346265">
        <ele>26.5736</ele>
        <time>2014-07-12T11:27:24Z</time>
      </trkpt>
      <trkpt lat="60.0231874" lon="17.7344813">
        <ele>26.5736</ele>
        <time>2014-07-12T11:27:25Z</time>
      </trkpt>
      <trkpt lat="60.0232083" lon="17.7343383">
        <ele>26.5736</ele>
        <time>2014-07-12T11:27:26Z</time>
      </trkpt>
      <trkpt lat="60.0232286" lon="17.7341969">
        <ele>26.5736</ele>
        <time>2014-07-12T11:27:27Z</time>
      </trkpt>
      <trkpt lat="60.0232487" lon="17.7340556">
        <ele>26.5736</ele>
        <time>2014-07-12T11:27:28Z</time>
      </trkpt>
      <trkpt lat="60.0232682" lon="17.7339145">
        <ele>26.5736</ele>
        <time>2014-07-12T11:27:29Z</time>
      </trkpt>
      <trkpt lat="60.023287" lon="17.7337741">
        <ele>26.5736</ele>
        <time>2014-07-12T11:27:30Z</time>
      </trkpt>
      <trkpt lat="60.0233052" lon="17.7336335">
        <ele>26.5736</ele>
        <time>2014-07-12T11:27:31Z</time>
      </trkpt>
      <trkpt lat="60.0233214" lon="17.7334939">
        <ele>26.5736</ele>
        <time>2014-07-12T11:27:32Z</time>
      </trkpt>
      <trkpt lat="60.0233352" lon="17.7333557">
        <ele>26.5736</ele>
        <time>2014-07-12T11:27:33Z</time>
      </trkpt>
      <trkpt lat="60.0233456" lon="17.7332245">
        <ele>26.5736</ele>
        <time>2014-07-12T11:27:34Z</time>
      </trkpt>
      <trkpt lat="60.0233533" lon="17.7330952">
        <ele>26.5736</ele>
        <time>2014-07-12T11:27:35Z</time>
      </trkpt>
      <trkpt lat="60.0233564" lon="17.7329559">
        <ele>27.0543</ele>
        <time>2014-07-12T11:27:36Z</time>
      </trkpt>
      <trkpt lat="60.0233533" lon="17.732819">
        <ele>27.0543</ele>
        <time>2014-07-12T11:27:37Z</time>
      </trkpt>
      <trkpt lat="60.0233471" lon="17.732691">
        <ele>27.0543</ele>
        <time>2014-07-12T11:27:38Z</time>
      </trkpt>
      <trkpt lat="60.0233359" lon="17.7325612">
        <ele>27.0543</ele>
        <time>2014-07-12T11:27:39Z</time>
      </trkpt>
      <trkpt lat="60.0233197" lon="17.7324312">
        <ele>27.0543</ele>
        <time>2014-07-12T11:27:40Z</time>
      </trkpt>
      <trkpt lat="60.0232983" lon="17.7323032">
        <ele>27.0543</ele>
        <time>2014-07-12T11:27:41Z</time>
      </trkpt>
      <trkpt lat="60.0232716" lon="17.7321797">
        <ele>27.5349</ele>
        <time>2014-07-12T11:27:42Z</time>
      </trkpt>
      <trkpt lat="60.0232419" lon="17.7320606">
        <ele>27.5349</ele>
        <time>2014-07-12T11:27:43Z</time>
      </trkpt>
      <trkpt lat="60.0232086" lon="17.7319478">
        <ele>27.5349</ele>
        <time>2014-07-12T11:27:44Z</time>
      </trkpt>
      <trkpt lat="60.0231714" lon="17.7318414">
        <ele>27.5349</ele>
        <time>2014-07-12T11:27:45Z</time>
      </trkpt>
      <trkpt lat="60.023131" lon="17.7317395">
        <ele>27.5349</ele>
        <time>2014-07-12T11:27:46Z</time>
      </trkpt>
      <trkpt lat="60.0230877" lon="17.7316417">
        <ele>27.0543</ele>
        <time>2014-07-12T11:27:47Z</time>
      </trkpt>
      <trkpt lat="60.0230435" lon="17.7315447">
        <ele>27.0543</ele>
        <time>2014-07-12T11:27:48Z</time>
      </trkpt>
      <trkpt lat="60.0229984" lon="17.7314454">
        <ele>26.5736</ele>
        <time>2014-07-12T11:27:49Z</time>
      </trkpt>
      <trkpt lat="60.0229514" lon="17.7313448">
        <ele>26.0929</ele>
        <time>2014-07-12T11:27:50Z</time>
      </trkpt>
      <trkpt lat="60.0229042" lon="17.7312402">
        <ele>26.0929</ele>
        <time>2014-07-12T11:27:51Z</time>
      </trkpt>
      <trkpt lat="60.0228556" lon="17.7311331">
        <ele>25.6123</ele>
        <time>2014-07-12T11:27:52Z</time>
      </trkpt>
      <trkpt lat="60.0228051" lon="17.7310253">
        <ele>25.1317</ele>
        <time>2014-07-12T11:27:53Z</time>
      </trkpt>
      <trkpt lat="60.0227525" lon="17.7309149">
        <ele>24.651</ele>
        <time>2014-07-12T11:27:54Z</time>
      </trkpt>
      <trkpt lat="60.0227001" lon="17.7307973">
        <ele>24.1703</ele>
        <time>2014-07-12T11:27:55Z</time>
      </trkpt>
      <trkpt lat="60.0226487" lon="17.7306708">
        <ele>23.6896</ele>
        <time>2014-07-12T11:27:56Z</time>
      </trkpt>
      <trkpt lat="60.0226003" lon="17.7305341">
        <ele>23.209</ele>
        <time>2014-07-12T11:27:57Z</time>
      </trkpt>
      <trkpt lat="60.0225545" lon="17.7303902">
        <ele>22.7283</ele>
        <time>2014-07-12T11:27:58Z</time>
      </trkpt>
      <trkpt lat="60.0225122" lon="17.7302399">
        <ele>22.2476</ele>
        <time>2014-07-12T11:27:59Z</time>
      </trkpt>
      <trkpt lat="60.0224765" lon="17.7300861">
        <ele>21.767</ele>
        <time>2014-07-12T11:28:00Z</time>
      </trkpt>
      <trkpt lat="60.0224448" lon="17.7299373">
        <ele>21.767</ele>
        <time>2014-07-12T11:28:01Z</time>
      </trkpt>
      <trkpt lat="60.0224154" lon="17.7297856">
        <ele>21.767</ele>
        <time>2014-07-12T11:28:02Z</time>
      </trkpt>
      <trkpt lat="60.0223919" lon="17.7296248">
        <ele>21.767</ele>
        <time>2014-07-12T11:28:03Z</time>
      </trkpt>
      <trkpt lat="60.0223757" lon="17.7294656">
        <ele>21.767</ele>
        <time>2014-07-12T11:28:04Z</time>
      </trkpt>
      <trkpt lat="60.0223615" lon="17.7293107">
        <ele>22.2476</ele>
        <time>2014-07-12T11:28:05Z</time>
      </trkpt>
      <trkpt lat="60.0223544" lon="17.7291561">
        <ele>22.7283</ele>
        <time>2014-07-12T11:28:06Z</time>
      </trkpt>
      <trkpt lat="60.0223619" lon="17.7290029">
        <ele>22.7283</ele>
        <time>2014-07-12T11:28:07Z</time>
      </trkpt>
      <trkpt lat="60.0223703" lon="17.7288567">
        <ele>23.209</ele>
        <time>2014-07-12T11:28:08Z</time>
      </trkpt>
      <trkpt lat="60.0223806" lon="17.7287183">
        <ele>23.6896</ele>
        <time>2014-07-12T11:28:09Z</time>
      </trkpt>
      <trkpt lat="60.0223922" lon="17.7285859">
        <ele>23.6896</ele>
        <time>2014-07-12T11:28:10Z</time>
      </trkpt>
      <trkpt lat="60.0224028" lon="17.7284615">
        <ele>24.1703</ele>
        <time>2014-07-12T11:28:11Z</time>
      </trkpt>
      <trkpt lat="60.0224111" lon="17.7283413">
        <ele>24.651</ele>
        <time>2014-07-12T11:28:12Z</time>
      </trkpt>
      <trkpt lat="60.0224188" lon="17.7282244">
        <ele>25.1317</ele>
        <time>2014-07-12T11:28:13Z</time>
      </trkpt>
      <trkpt lat="60.0224261" lon="17.7281133">
        <ele>25.6123</ele>
        <time>2014-07-12T11:28:14Z</time>
      </trkpt>
      <trkpt lat="60.0224338" lon="17.7280074">
        <ele>26.0929</ele>
        <time>2014-07-12T11:28:15Z</time>
      </trkpt>
      <trkpt lat="60.0224401" lon="17.7279028">
        <ele>26.5736</ele>
        <time>2014-07-12T11:28:16Z</time>
      </trkpt>
      <trkpt lat="60.0224449" lon="17.7278005">
        <ele>26.5736</ele>
        <time>2014-07-12T11:28:17Z</time>
      </trkpt>
      <trkpt lat="60.0224497" lon="17.727699">
        <ele>27.0543</ele>
        <time>2014-07-12T11:28:18Z</time>
      </trkpt>
      <trkpt lat="60.0224546" lon="17.7275968">
        <ele>27.0543</ele>
        <time>2014-07-12T11:28:19Z</time>
      </trkpt>
      <trkpt lat="60.0224583" lon="17.7274937">
        <ele>27.5349</ele>
        <time>2014-07-12T11:28:20Z</time>
      </trkpt>
      <trkpt lat="60.0224598" lon="17.7273853">
        <ele>27.5349</ele>
        <time>2014-07-12T11:28:21Z</time>
      </trkpt>
      <trkpt lat="60.0224592" lon="17.7272748">
        <ele>27.5349</ele>
        <time>2014-07-12T11:28:22Z</time>
      </trkpt>
      <trkpt lat="60.0224568" lon="17.7271645">
        <ele>27.5349</ele>
        <time>2014-07-12T11:28:23Z</time>
      </trkpt>
      <trkpt lat="60.0224535" lon="17.7270517">
        <ele>27.5349</ele>
        <time>2014-07-12T11:28:24Z</time>
      </trkpt>
      <trkpt lat="60.0224498" lon="17.7269351">
        <ele>27.5349</ele>
        <time>2014-07-12T11:28:25Z</time>
      </trkpt>
      <trkpt lat="60.0224466" lon="17.7268147">
        <ele>27.5349</ele>
        <time>2014-07-12T11:28:26Z</time>
      </trkpt>
      <trkpt lat="60.0224437" lon="17.7266916">
        <ele>27.5349</ele>
        <time>2014-07-12T11:28:27Z</time>
      </trkpt>
      <trkpt lat="60.02244" lon="17.7265663">
        <ele>27.5349</ele>
        <time>2014-07-12T11:28:28Z</time>
      </trkpt>
      <trkpt lat="60.0224344" lon="17.7264384">
        <ele>27.5349</ele>
        <time>2014-07-12T11:28:29Z</time>
      </trkpt>
      <trkpt lat="60.0224271" lon="17.7263107">
        <ele>27.5349</ele>
        <time>2014-07-12T11:28:30Z</time>
      </trkpt>
      <trkpt lat="60.0224156" lon="17.7261755">
        <ele>27.5349</ele>
        <time>2014-07-12T11:28:31Z</time>
      </trkpt>
      <trkpt lat="60.0224045" lon="17.7260379">
        <ele>27.5349</ele>
        <time>2014-07-12T11:28:32Z</time>
      </trkpt>
      <trkpt lat="60.0223965" lon="17.7259016">
        <ele>27.5349</ele>
        <time>2014-07-12T11:28:33Z</time>
      </trkpt>
      <trkpt lat="60.0223884" lon="17.7257639">
        <ele>27.5349</ele>
        <time>2014-07-12T11:28:34Z</time>
      </trkpt>
      <trkpt lat="60.0223811" lon="17.7256234">
        <ele>27.5349</ele>
        <time>2014-07-12T11:28:35Z</time>
      </trkpt>
      <trkpt lat="60.022371" lon="17.725482">
        <ele>27.5349</ele>
        <time>2014-07-12T11:28:36Z</time>
      </trkpt>
      <trkpt lat="60.0223583" lon="17.7253421">
        <ele>27.5349</ele>
        <time>2014-07-12T11:28:37Z</time>
      </trkpt>
      <trkpt lat="60.0223451" lon="17.7252011">
        <ele>27.5349</ele>
        <time>2014-07-12T11:28:38Z</time>
      </trkpt>
      <trkpt lat="60.0223316" lon="17.7250613">
        <ele>27.5349</ele>
        <time>2014-07-12T11:28:39Z</time>
      </trkpt>
      <trkpt lat="60.0223171" lon="17.7249236">
        <ele>28.0155</ele>
        <time>2014-07-12T11:28:40Z</time>
      </trkpt>
      <trkpt lat="60.0223024" lon="17.7247864">
        <ele>27.5349</ele>
        <time>2014-07-12T11:28:41Z</time>
      </trkpt>
      <trkpt lat="60.0222876" lon="17.7246494">
        <ele>27.5349</ele>
        <time>2014-07-12T11:28:42Z</time>
      </trkpt>
      <trkpt lat="60.0222718" lon="17.7245123">
        <ele>27.5349</ele>
        <time>2014-07-12T11:28:43Z</time>
      </trkpt>
      <trkpt lat="60.0222557" lon="17.7243722">
        <ele>28.0155</ele>
        <time>2014-07-12T11:28:44Z</time>
      </trkpt>
      <trkpt lat="60.0222413" lon="17.7242371">
        <ele>28.0155</ele>
        <time>2014-07-12T11:28:45Z</time>
      </trkpt>
      <trkpt lat="60.0222271" lon="17.7241042">
        <ele>28.4962</ele>
        <time>2014-07-12T11:28:46Z</time>
      </trkpt>
      <trkpt lat="60.022214" lon="17.7239715">
        <ele>28.4962</ele>
        <time>2014-07-12T11:28:47Z</time>
      </trkpt>
      <trkpt lat="60.0222017" lon="17.7238377">
        <ele>28.4962</ele>
        <time>2014-07-12T11:28:48Z</time>
      </trkpt>
      <trkpt lat="60.0221889" lon="17.7237042">
        <ele>28.4962</ele>
        <time>2014-07-12T11:28:49Z</time>
      </trkpt>
      <trkpt lat="60.0221767" lon="17.7235729">
        <ele>28.4962</ele>
        <time>2014-07-12T11:28:50Z</time>
      </trkpt>
      <trkpt lat="60.0221656" lon="17.7234434">
        <ele>28.9769</ele>
        <time>2014-07-12T11:28:51Z</time>
      </trkpt>
      <trkpt lat="60.0221545" lon="17.7233171">
        <ele>28.9769</ele>
        <time>2014-07-12T11:28:52Z</time>
      </trkpt>
      <trkpt lat="60.0221423" lon="17.7231954">
        <ele>29.4575</ele>
        <time>2014-07-12T11:28:53Z</time>
      </trkpt>
      <trkpt lat="60.0221303" lon="17.723078">
        <ele>29.4575</ele>
        <time>2014-07-12T11:28:54Z</time>
      </trkpt>
      <trkpt lat="60.0221182" lon="17.7229636">
        <ele>29.4575</ele>
        <time>2014-07-12T11:28:55Z</time>
      </trkpt>
      <trkpt lat="60.022107" lon="17.7228516">
        <ele>29.9381</ele>
        <time>2014-07-12T11:28:56Z</time>
      </trkpt>
      <trkpt lat="60.0220956" lon="17.7227407">
        <ele>29.9381</ele>
        <time>2014-07-12T11:28:57Z</time>
      </trkpt>
      <trkpt lat="60.0220835" lon="17.722632">
        <ele>30.4188</ele>
        <time>2014-07-12T11:28:58Z</time>
      </trkpt>
      <trkpt lat="60.0220692" lon="17.7225247">
        <ele>30.4188</ele>
        <time>2014-07-12T11:28:59Z</time>
      </trkpt>
      <trkpt lat="60.0220519" lon="17.7224206">
        <ele>30.4188</ele>
        <time>2014-07-12T11:29:00Z</time>
      </trkpt>
      <trkpt lat="60.0220298" lon="17.7223168">
        <ele>30.4188</ele>
        <time>2014-07-12T11:29:01Z</time>
      </trkpt>
      <trkpt lat="60.022003" lon="17.722213">
        <ele>30.4188</ele>
        <time>2014-07-12T11:29:02Z</time>
      </trkpt>
      <trkpt lat="60.0219716" lon="17.7221097">
        <ele>30.4188</ele>
        <time>2014-07-12T11:29:03Z</time>
      </trkpt>
      <trkpt lat="60.0219348" lon="17.7220101">
        <ele>30.4188</ele>
        <time>2014-07-12T11:29:04Z</time>
      </trkpt>
      <trkpt lat="60.0218926" lon="17.7219171">
        <ele>30.4188</ele>
        <time>2014-07-12T11:29:05Z</time>
      </trkpt>
      <trkpt lat="60.0218454" lon="17.7218326">
        <ele>30.4188</ele>
        <time>2014-07-12T11:29:06Z</time>
      </trkpt>
      <trkpt lat="60.0217945" lon="17.7217571">
        <ele>30.4188</ele>
        <time>2014-07-12T11:29:07Z</time>
      </trkpt>
      <trkpt lat="60.0217392" lon="17.7216968">
        <ele>30.4188</ele>
        <time>2014-07-12T11:29:08Z</time>
      </trkpt>
      <trkpt lat="60.0216793" lon="17.7216535">
        <ele>30.4188</ele>
        <time>2014-07-12T11:29:09Z</time>
      </trkpt>
      <trkpt lat="60.0216166" lon="17.7216212">
        <ele>30.4188</ele>
        <time>2014-07-12T11:29:10Z</time>
      </trkpt>
      <trkpt lat="60.0215523" lon="17.7215938">
        <ele>30.4188</ele>
        <time>2014-07-12T11:29:11Z</time>
      </trkpt>
      <trkpt lat="60.021487" lon="17.7215691">
        <ele>30.4188</ele>
        <time>2014-07-12T11:29:12Z</time>
      </trkpt>
      <trkpt lat="60.0214212" lon="17.7215476">
        <ele>30.4188</ele>
        <time>2014-07-12T11:29:13Z</time>
      </trkpt>
      <trkpt lat="60.0213559" lon="17.7215317">
        <ele>30.4188</ele>
        <time>2014-07-12T11:29:14Z</time>
      </trkpt>
      <trkpt lat="60.0212908" lon="17.7215197">
        <ele>30.8995</ele>
        <time>2014-07-12T11:29:15Z</time>
      </trkpt>
      <trkpt lat="60.0212259" lon="17.7215073">
        <ele>30.8995</ele>
        <time>2014-07-12T11:29:16Z</time>
      </trkpt>
      <trkpt lat="60.0211617" lon="17.7214883">
        <ele>30.8995</ele>
        <time>2014-07-12T11:29:17Z</time>
      </trkpt>
      <trkpt lat="60.0210975" lon="17.7214669">
        <ele>30.8995</ele>
        <time>2014-07-12T11:29:18Z</time>
      </trkpt>
      <trkpt lat="60.0210332" lon="17.7214509">
        <ele>30.8995</ele>
        <time>2014-07-12T11:29:19Z</time>
      </trkpt>
      <trkpt lat="60.0209691" lon="17.7214372">
        <ele>30.8995</ele>
        <time>2014-07-12T11:29:20Z</time>
      </trkpt>
      <trkpt lat="60.0209054" lon="17.7214229">
        <ele>30.8995</ele>
        <time>2014-07-12T11:29:21Z</time>
      </trkpt>
      <trkpt lat="60.0208426" lon="17.7214088">
        <ele>30.8995</ele>
        <time>2014-07-12T11:29:22Z</time>
      </trkpt>
      <trkpt lat="60.0207804" lon="17.7213943">
        <ele>30.8995</ele>
        <time>2014-07-12T11:29:23Z</time>
      </trkpt>
      <trkpt lat="60.0207184" lon="17.7213782">
        <ele>30.8995</ele>
        <time>2014-07-12T11:29:24Z</time>
      </trkpt>
      <trkpt lat="60.0206565" lon="17.7213622">
        <ele>30.8995</ele>
        <time>2014-07-12T11:29:25Z</time>
      </trkpt>
      <trkpt lat="60.0205944" lon="17.7213468">
        <ele>30.8995</ele>
        <time>2014-07-12T11:29:26Z</time>
      </trkpt>
      <trkpt lat="60.0205311" lon="17.7213327">
        <ele>30.8995</ele>
        <time>2014-07-12T11:29:27Z</time>
      </trkpt>
      <trkpt lat="60.0204649" lon="17.7213199">
        <ele>31.3801</ele>
        <time>2014-07-12T11:29:28Z</time>
      </trkpt>
      <trkpt lat="60.0203995" lon="17.7213027">
        <ele>30.8995</ele>
        <time>2014-07-12T11:29:29Z</time>
      </trkpt>
      <trkpt lat="60.0203319" lon="17.7212872">
        <ele>30.8995</ele>
        <time>2014-07-12T11:29:30Z</time>
      </trkpt>
      <trkpt lat="60.0202623" lon="17.7212737">
        <ele>30.4188</ele>
        <time>2014-07-12T11:29:31Z</time>
      </trkpt>
      <trkpt lat="60.020193" lon="17.7212562">
        <ele>30.4188</ele>
        <time>2014-07-12T11:29:32Z</time>
      </trkpt>
      <trkpt lat="60.0201239" lon="17.7212384">
        <ele>29.9381</ele>
        <time>2014-07-12T11:29:33Z</time>
      </trkpt>
      <trkpt lat="60.0200535" lon="17.7212228">
        <ele>29.9381</ele>
        <time>2014-07-12T11:29:34Z</time>
      </trkpt>
      <trkpt lat="60.0199811" lon="17.7212057">
        <ele>29.4575</ele>
        <time>2014-07-12T11:29:35Z</time>
      </trkpt>
      <trkpt lat="60.0199074" lon="17.7211845">
        <ele>29.4575</ele>
        <time>2014-07-12T11:29:36Z</time>
      </trkpt>
      <trkpt lat="60.0198339" lon="17.7211622">
        <ele>29.4575</ele>
        <time>2014-07-12T11:29:37Z</time>
      </trkpt>
      <trkpt lat="60.0197615" lon="17.7211395">
        <ele>28.9769</ele>
        <time>2014-07-12T11:29:38Z</time>
      </trkpt>
      <trkpt lat="60.019689" lon="17.7211167">
        <ele>28.9769</ele>
        <time>2014-07-12T11:29:39Z</time>
      </trkpt>
      <trkpt lat="60.0196155" lon="17.7210963">
        <ele>28.9769</ele>
        <time>2014-07-12T11:29:40Z</time>
      </trkpt>
      <trkpt lat="60.0195416" lon="17.721077">
        <ele>28.9769</ele>
        <time>2014-07-12T11:29:41Z</time>
      </trkpt>
      <trkpt lat="60.019466" lon="17.7210581">
        <ele>28.9769</ele>
        <time>2014-07-12T11:29:42Z</time>
      </trkpt>
      <trkpt lat="60.0193899" lon="17.7210375">
        <ele>28.4962</ele>
        <time>2014-07-12T11:29:43Z</time>
      </trkpt>
      <trkpt lat="60.0193139" lon="17.7210189">
        <ele>28.4962</ele>
        <time>2014-07-12T11:29:44Z</time>
      </trkpt>
      <trkpt lat="60.0192391" lon="17.7209997">
        <ele>28.4962</ele>
        <time>2014-07-12T11:29:45Z</time>
      </trkpt>
      <trkpt lat="60.0191646" lon="17.7209764">
        <ele>28.4962</ele>
        <time>2014-07-12T11:29:46Z</time>
      </trkpt>
      <trkpt lat="60.0190902" lon="17.7209525">
        <ele>28.4962</ele>
        <time>2014-07-12T11:29:47Z</time>
      </trkpt>
      <trkpt lat="60.019016" lon="17.7209304">
        <ele>28.4962</ele>
        <time>2014-07-12T11:29:48Z</time>
      </trkpt>
      <trkpt lat="60.0189418" lon="17.7209088">
        <ele>28.4962</ele>
        <time>2014-07-12T11:29:49Z</time>
      </trkpt>
      <trkpt lat="60.0188677" lon="17.7208881">
        <ele>28.4962</ele>
        <time>2014-07-12T11:29:50Z</time>
      </trkpt>
      <trkpt lat="60.0187934" lon="17.7208686">
        <ele>28.4962</ele>
        <time>2014-07-12T11:29:51Z</time>
      </trkpt>
      <trkpt lat="60.0187187" lon="17.7208484">
        <ele>28.4962</ele>
        <time>2014-07-12T11:29:52Z</time>
      </trkpt>
      <trkpt lat="60.0186427" lon="17.7208267">
        <ele>28.4962</ele>
        <time>2014-07-12T11:29:53Z</time>
      </trkpt>
      <trkpt lat="60.0185655" lon="17.7208054">
        <ele>28.4962</ele>
        <time>2014-07-12T11:29:54Z</time>
      </trkpt>
      <trkpt lat="60.0184872" lon="17.7207848">
        <ele>28.4962</ele>
        <time>2014-07-12T11:29:55Z</time>
      </trkpt>
      <trkpt lat="60.0184075" lon="17.7207636">
        <ele>28.4962</ele>
        <time>2014-07-12T11:29:56Z</time>
      </trkpt>
      <trkpt lat="60.0183271" lon="17.720742">
        <ele>28.4962</ele>
        <time>2014-07-12T11:29:57Z</time>
      </trkpt>
      <trkpt lat="60.0182464" lon="17.7207197">
        <ele>28.4962</ele>
        <time>2014-07-12T11:29:58Z</time>
      </trkpt>
      <trkpt lat="60.0181676" lon="17.7206992">
        <ele>28.4962</ele>
        <time>2014-07-12T11:29:59Z</time>
      </trkpt>
      <trkpt lat="60.018091" lon="17.7206814">
        <ele>28.9769</ele>
        <time>2014-07-12T11:30:00Z</time>
      </trkpt>
      <trkpt lat="60.0180158" lon="17.7206617">
        <ele>28.9769</ele>
        <time>2014-07-12T11:30:01Z</time>
      </trkpt>
      <trkpt lat="60.0179416" lon="17.720642">
        <ele>28.9769</ele>
        <time>2014-07-12T11:30:02Z</time>
      </trkpt>
      <trkpt lat="60.0178683" lon="17.7206251">
        <ele>29.4575</ele>
        <time>2014-07-12T11:30:03Z</time>
      </trkpt>
      <trkpt lat="60.0177962" lon="17.720611">
        <ele>29.4575</ele>
        <time>2014-07-12T11:30:04Z</time>
      </trkpt>
      <trkpt lat="60.0177247" lon="17.7205968">
        <ele>29.4575</ele>
        <time>2014-07-12T11:30:05Z</time>
      </trkpt>
      <trkpt lat="60.017653" lon="17.7205827">
        <ele>29.4575</ele>
        <time>2014-07-12T11:30:06Z</time>
      </trkpt>
      <trkpt lat="60.0175806" lon="17.7205703">
        <ele>29.4575</ele>
        <time>2014-07-12T11:30:07Z</time>
      </trkpt>
      <trkpt lat="60.0175076" lon="17.7205599">
        <ele>29.4575</ele>
        <time>2014-07-12T11:30:08Z</time>
      </trkpt>
      <trkpt lat="60.0174346" lon="17.7205532">
        <ele>29.4575</ele>
        <time>2014-07-12T11:30:09Z</time>
      </trkpt>
      <trkpt lat="60.0173615" lon="17.7205507">
        <ele>29.9381</ele>
        <time>2014-07-12T11:30:10Z</time>
      </trkpt>
      <trkpt lat="60.0172905" lon="17.7205529">
        <ele>29.9381</ele>
        <time>2014-07-12T11:30:11Z</time>
      </trkpt>
      <trkpt lat="60.0172237" lon="17.7205626">
        <ele>29.9381</ele>
        <time>2014-07-12T11:30:12Z</time>
      </trkpt>
      <trkpt lat="60.0171607" lon="17.7205753">
        <ele>30.4188</ele>
        <time>2014-07-12T11:30:13Z</time>
      </trkpt>
      <trkpt lat="60.0171006" lon="17.7205826">
        <ele>30.4188</ele>
        <time>2014-07-12T11:30:14Z</time>
      </trkpt>
      <trkpt lat="60.0170419" lon="17.7205823">
        <ele>30.4188</ele>
        <time>2014-07-12T11:30:15Z</time>
      </trkpt>
      <trkpt lat="60.0169839" lon="17.7205615">
        <ele>30.4188</ele>
        <time>2014-07-12T11:30:16Z</time>
      </trkpt>
      <trkpt lat="60.016931" lon="17.7205003">
        <ele>30.4188</ele>
        <time>2014-07-12T11:30:17Z</time>
      </trkpt>
      <trkpt lat="60.0168921" lon="17.720394">
        <ele>29.9381</ele>
        <time>2014-07-12T11:30:18Z</time>
      </trkpt>
      <trkpt lat="60.0168768" lon="17.7202551">
        <ele>29.9381</ele>
        <time>2014-07-12T11:30:19Z</time>
      </trkpt>
      <trkpt lat="60.0168824" lon="17.7201019">
        <ele>28.9769</ele>
        <time>2014-07-12T11:30:20Z</time>
      </trkpt>
      <trkpt lat="60.0168946" lon="17.7199436">
        <ele>28.4962</ele>
        <time>2014-07-12T11:30:21Z</time>
      </trkpt>
      <trkpt lat="60.0169057" lon="17.7197795">
        <ele>28.0155</ele>
        <time>2014-07-12T11:30:22Z</time>
      </trkpt>
      <trkpt lat="60.0169153" lon="17.7196083">
        <ele>27.5349</ele>
        <time>2014-07-12T11:30:23Z</time>
      </trkpt>
      <trkpt lat="60.0169237" lon="17.7194306">
        <ele>27.0543</ele>
        <time>2014-07-12T11:30:24Z</time>
      </trkpt>
      <trkpt lat="60.0169314" lon="17.7192458">
        <ele>26.5736</ele>
        <time>2014-07-12T11:30:25Z</time>
      </trkpt>
      <trkpt lat="60.0169382" lon="17.7190554">
        <ele>25.6123</ele>
        <time>2014-07-12T11:30:26Z</time>
      </trkpt>
      <trkpt lat="60.0169456" lon="17.7188607">
        <ele>25.1317</ele>
        <time>2014-07-12T11:30:27Z</time>
      </trkpt>
      <trkpt lat="60.0169544" lon="17.7186614">
        <ele>24.651</ele>
        <time>2014-07-12T11:30:28Z</time>
      </trkpt>
      <trkpt lat="60.0169637" lon="17.7184597">
        <ele>24.1703</ele>
        <time>2014-07-12T11:30:29Z</time>
      </trkpt>
      <trkpt lat="60.0169734" lon="17.7182543">
        <ele>23.209</ele>
        <time>2014-07-12T11:30:30Z</time>
      </trkpt>
      <trkpt lat="60.016984" lon="17.718045">
        <ele>22.7283</ele>
        <time>2014-07-12T11:30:31Z</time>
      </trkpt>
      <trkpt lat="60.016998" lon="17.717831">
        <ele>22.2476</ele>
        <time>2014-07-12T11:30:32Z</time>
      </trkpt>
      <trkpt lat="60.0170179" lon="17.7176165">
        <ele>21.767</ele>
        <time>2014-07-12T11:30:33Z</time>
      </trkpt>
      <trkpt lat="60.0170433" lon="17.7174027">
        <ele>20.8057</ele>
        <time>2014-07-12T11:30:34Z</time>
      </trkpt>
      <trkpt lat="60.0170728" lon="17.717191">
        <ele>20.325</ele>
        <time>2014-07-12T11:30:35Z</time>
      </trkpt>
      <trkpt lat="60.0171056" lon="17.7169816">
        <ele>20.325</ele>
        <time>2014-07-12T11:30:36Z</time>
      </trkpt>
      <trkpt lat="60.0171427" lon="17.7167772">
        <ele>19.8444</ele>
        <time>2014-07-12T11:30:37Z</time>
      </trkpt>
      <trkpt lat="60.0171828" lon="17.7165778">
        <ele>19.8444</ele>
        <time>2014-07-12T11:30:38Z</time>
      </trkpt>
      <trkpt lat="60.0172261" lon="17.7163846">
        <ele>19.3638</ele>
        <time>2014-07-12T11:30:39Z</time>
      </trkpt>
      <trkpt lat="60.0172709" lon="17.7161976">
        <ele>19.3638</ele>
        <time>2014-07-12T11:30:40Z</time>
      </trkpt>
      <trkpt lat="60.017316" lon="17.7160157">
        <ele>19.3638</ele>
        <time>2014-07-12T11:30:41Z</time>
      </trkpt>
      <trkpt lat="60.01736" lon="17.7158351">
        <ele>19.3638</ele>
        <time>2014-07-12T11:30:42Z</time>
      </trkpt>
      <trkpt lat="60.0174033" lon="17.7156559">
        <ele>19.3638</ele>
        <time>2014-07-12T11:30:43Z</time>
      </trkpt>
      <trkpt lat="60.0174458" lon="17.715479">
        <ele>19.3638</ele>
        <time>2014-07-12T11:30:44Z</time>
      </trkpt>
      <trkpt lat="60.0174863" lon="17.7153052">
        <ele>19.8444</ele>
        <time>2014-07-12T11:30:45Z</time>
      </trkpt>
      <trkpt lat="60.0175243" lon="17.7151354">
        <ele>19.8444</ele>
        <time>2014-07-12T11:30:46Z</time>
      </trkpt>
      <trkpt lat="60.0175604" lon="17.7149679">
        <ele>20.325</ele>
        <time>2014-07-12T11:30:47Z</time>
      </trkpt>
      <trkpt lat="60.0175944" lon="17.7147986">
        <ele>20.325</ele>
        <time>2014-07-12T11:30:48Z</time>
      </trkpt>
      <trkpt lat="60.0176242" lon="17.7146283">
        <ele>20.8057</ele>
        <time>2014-07-12T11:30:49Z</time>
      </trkpt>
      <trkpt lat="60.01765" lon="17.714458">
        <ele>20.8057</ele>
        <time>2014-07-12T11:30:50Z</time>
      </trkpt>
      <trkpt lat="60.0176719" lon="17.7142876">
        <ele>21.2864</ele>
        <time>2014-07-12T11:30:51Z</time>
      </trkpt>
      <trkpt lat="60.0176915" lon="17.7141175">
        <ele>21.2864</ele>
        <time>2014-07-12T11:30:52Z</time>
      </trkpt>
      <trkpt lat="60.0177091" lon="17.7139494">
        <ele>21.767</ele>
        <time>2014-07-12T11:30:53Z</time>
      </trkpt>
      <trkpt lat="60.0177232" lon="17.7137817">
        <ele>21.767</ele>
        <time>2014-07-12T11:30:54Z</time>
      </trkpt>
      <trkpt lat="60.017736" lon="17.7136121">
        <ele>21.767</ele>
        <time>2014-07-12T11:30:55Z</time>
      </trkpt>
      <trkpt lat="60.0177491" lon="17.7134419">
        <ele>22.2476</ele>
        <time>2014-07-12T11:30:56Z</time>
      </trkpt>
      <trkpt lat="60.0177619" lon="17.713272">
        <ele>22.2476</ele>
        <time>2014-07-12T11:30:57Z</time>
      </trkpt>
      <trkpt lat="60.0177735" lon="17.7131032">
        <ele>22.7283</ele>
        <time>2014-07-12T11:30:58Z</time>
      </trkpt>
      <trkpt lat="60.0177847" lon="17.7129348">
        <ele>22.7283</ele>
        <time>2014-07-12T11:30:59Z</time>
      </trkpt>
      <trkpt lat="60.0177951" lon="17.712766">
        <ele>23.209</ele>
        <time>2014-07-12T11:31:00Z</time>
      </trkpt>
      <trkpt lat="60.017806" lon="17.7125981">
        <ele>23.209</ele>
        <time>2014-07-12T11:31:01Z</time>
      </trkpt>
      <trkpt lat="60.0178169" lon="17.7124316">
        <ele>23.6896</ele>
        <time>2014-07-12T11:31:02Z</time>
      </trkpt>
      <trkpt lat="60.0178272" lon="17.7122656">
        <ele>23.6896</ele>
        <time>2014-07-12T11:31:03Z</time>
      </trkpt>
      <trkpt lat="60.0178381" lon="17.7121">
        <ele>24.1703</ele>
        <time>2014-07-12T11:31:04Z</time>
      </trkpt>
      <trkpt lat="60.0178495" lon="17.711935">
        <ele>24.1703</ele>
        <time>2014-07-12T11:31:05Z</time>
      </trkpt>
      <trkpt lat="60.0178602" lon="17.7117698">
        <ele>24.651</ele>
        <time>2014-07-12T11:31:06Z</time>
      </trkpt>
      <trkpt lat="60.0178693" lon="17.7116059">
        <ele>24.651</ele>
        <time>2014-07-12T11:31:07Z</time>
      </trkpt>
      <trkpt lat="60.0178788" lon="17.7114435">
        <ele>25.1317</ele>
        <time>2014-07-12T11:31:08Z</time>
      </trkpt>
      <trkpt lat="60.0178899" lon="17.7112824">
        <ele>25.1317</ele>
        <time>2014-07-12T11:31:09Z</time>
      </trkpt>
      <trkpt lat="60.0179016" lon="17.7111223">
        <ele>25.1317</ele>
        <time>2014-07-12T11:31:10Z</time>
      </trkpt>
      <trkpt lat="60.0179127" lon="17.7109615">
        <ele>25.6123</ele>
        <time>2014-07-12T11:31:11Z</time>
      </trkpt>
      <trkpt lat="60.0179236" lon="17.7107995">
        <ele>25.6123</ele>
        <time>2014-07-12T11:31:12Z</time>
      </trkpt>
      <trkpt lat="60.0179334" lon="17.7106373">
        <ele>25.6123</ele>
        <time>2014-07-12T11:31:13Z</time>
      </trkpt>
      <trkpt lat="60.0179431" lon="17.7104745">
        <ele>25.6123</ele>
        <time>2014-07-12T11:31:14Z</time>
      </trkpt>
      <trkpt lat="60.0179536" lon="17.7103105">
        <ele>25.6123</ele>
        <time>2014-07-12T11:31:15Z</time>
      </trkpt>
      <trkpt lat="60.0179644" lon="17.7101462">
        <ele>26.0929</ele>
        <time>2014-07-12T11:31:16Z</time>
      </trkpt>
      <trkpt lat="60.0179749" lon="17.7099812">
        <ele>26.0929</ele>
        <time>2014-07-12T11:31:17Z</time>
      </trkpt>
      <trkpt lat="60.0179852" lon="17.7098159">
        <ele>26.0929</ele>
        <time>2014-07-12T11:31:18Z</time>
      </trkpt>
      <trkpt lat="60.0179956" lon="17.7096511">
        <ele>26.0929</ele>
        <time>2014-07-12T11:31:19Z</time>
      </trkpt>
      <trkpt lat="60.0180054" lon="17.7094868">
        <ele>26.0929</ele>
        <time>2014-07-12T11:31:20Z</time>
      </trkpt>
      <trkpt lat="60.0180153" lon="17.7093246">
        <ele>26.5736</ele>
        <time>2014-07-12T11:31:21Z</time>
      </trkpt>
      <trkpt lat="60.0180257" lon="17.7091647">
        <ele>26.5736</ele>
        <time>2014-07-12T11:31:22Z</time>
      </trkpt>
      <trkpt lat="60.0180374" lon="17.7090063">
        <ele>26.5736</ele>
        <time>2014-07-12T11:31:23Z</time>
      </trkpt>
      <trkpt lat="60.0180492" lon="17.7088473">
        <ele>26.5736</ele>
        <time>2014-07-12T11:31:24Z</time>
      </trkpt>
      <trkpt lat="60.0180599" lon="17.7086871">
        <ele>26.5736</ele>
        <time>2014-07-12T11:31:25Z</time>
      </trkpt>
      <trkpt lat="60.0180698" lon="17.7085265">
        <ele>26.5736</ele>
        <time>2014-07-12T11:31:26Z</time>
      </trkpt>
      <trkpt lat="60.0180799" lon="17.7083663">
        <ele>27.0543</ele>
        <time>2014-07-12T11:31:27Z</time>
      </trkpt>
      <trkpt lat="60.01809" lon="17.708206">
        <ele>27.0543</ele>
        <time>2014-07-12T11:31:28Z</time>
      </trkpt>
      <trkpt lat="60.0181" lon="17.7080463">
        <ele>27.0543</ele>
        <time>2014-07-12T11:31:29Z</time>
      </trkpt>
      <trkpt lat="60.0181095" lon="17.7078877">
        <ele>27.0543</ele>
        <time>2014-07-12T11:31:30Z</time>
      </trkpt>
      <trkpt lat="60.018119" lon="17.7077293">
        <ele>27.0543</ele>
        <time>2014-07-12T11:31:31Z</time>
      </trkpt>
      <trkpt lat="60.0181292" lon="17.7075714">
        <ele>27.0543</ele>
        <time>2014-07-12T11:31:32Z</time>
      </trkpt>
      <trkpt lat="60.018141" lon="17.7074146">
        <ele>27.0543</ele>
        <time>2014-07-12T11:31:33Z</time>
      </trkpt>
      <trkpt lat="60.0181546" lon="17.7072579">
        <ele>27.0543</ele>
        <time>2014-07-12T11:31:34Z</time>
      </trkpt>
      <trkpt lat="60.0181703" lon="17.7071002">
        <ele>27.0543</ele>
        <time>2014-07-12T11:31:35Z</time>
      </trkpt>
      <trkpt lat="60.0181872" lon="17.7069414">
        <ele>27.0543</ele>
        <time>2014-07-12T11:31:36Z</time>
      </trkpt>
      <trkpt lat="60.0182049" lon="17.7067827">
        <ele>27.0543</ele>
        <time>2014-07-12T11:31:37Z</time>
      </trkpt>
      <trkpt lat="60.0182256" lon="17.7066239">
        <ele>27.0543</ele>
        <time>2014-07-12T11:31:38Z</time>
      </trkpt>
      <trkpt lat="60.0182484" lon="17.7064658">
        <ele>27.0543</ele>
        <time>2014-07-12T11:31:39Z</time>
      </trkpt>
      <trkpt lat="60.0182722" lon="17.706309">
        <ele>27.0543</ele>
        <time>2014-07-12T11:31:40Z</time>
      </trkpt>
      <trkpt lat="60.0182984" lon="17.7061545">
        <ele>27.0543</ele>
        <time>2014-07-12T11:31:41Z</time>
      </trkpt>
      <trkpt lat="60.0183276" lon="17.7060016">
        <ele>27.0543</ele>
        <time>2014-07-12T11:31:42Z</time>
      </trkpt>
      <trkpt lat="60.0183599" lon="17.7058479">
        <ele>26.5736</ele>
        <time>2014-07-12T11:31:43Z</time>
      </trkpt>
      <trkpt lat="60.0183944" lon="17.705693">
        <ele>26.5736</ele>
        <time>2014-07-12T11:31:44Z</time>
      </trkpt>
      <trkpt lat="60.0184312" lon="17.7055382">
        <ele>26.0929</ele>
        <time>2014-07-12T11:31:45Z</time>
      </trkpt>
      <trkpt lat="60.0184712" lon="17.7053842">
        <ele>26.0929</ele>
        <time>2014-07-12T11:31:46Z</time>
      </trkpt>
      <trkpt lat="60.0185142" lon="17.70523">
        <ele>25.6123</ele>
        <time>2014-07-12T11:31:47Z</time>
      </trkpt>
      <trkpt lat="60.01856" lon="17.705076">
        <ele>25.6123</ele>
        <time>2014-07-12T11:31:48Z</time>
      </trkpt>
      <trkpt lat="60.0186074" lon="17.7049231">
        <ele>25.1317</ele>
        <time>2014-07-12T11:31:49Z</time>
      </trkpt>
      <trkpt lat="60.0186565" lon="17.7047724">
        <ele>25.1317</ele>
        <time>2014-07-12T11:31:50Z</time>
      </trkpt>
      <trkpt lat="60.0187084" lon="17.7046269">
        <ele>25.1317</ele>
        <time>2014-07-12T11:31:51Z</time>
      </trkpt>
      <trkpt lat="60.0187628" lon="17.7044856">
        <ele>25.1317</ele>
        <time>2014-07-12T11:31:52Z</time>
      </trkpt>
      <trkpt lat="60.0188186" lon="17.7043475">
        <ele>25.1317</ele>
        <time>2014-07-12T11:31:53Z</time>
      </trkpt>
      <trkpt lat="60.0188762" lon="17.704214">
        <ele>25.1317</ele>
        <time>2014-07-12T11:31:54Z</time>
      </trkpt>
      <trkpt lat="60.0189347" lon="17.7040849">
        <ele>25.1317</ele>
        <time>2014-07-12T11:31:55Z</time>
      </trkpt>
      <trkpt lat="60.0189939" lon="17.7039606">
        <ele>25.1317</ele>
        <time>2014-07-12T11:31:56Z</time>
      </trkpt>
      <trkpt lat="60.019055" lon="17.7038431">
        <ele>25.1317</ele>
        <time>2014-07-12T11:31:57Z</time>
      </trkpt>
      <trkpt lat="60.0191179" lon="17.7037301">
        <ele>25.1317</ele>
        <time>2014-07-12T11:31:58Z</time>
      </trkpt>
      <trkpt lat="60.0191803" lon="17.7036183">
        <ele>25.1317</ele>
        <time>2014-07-12T11:31:59Z</time>
      </trkpt>
      <trkpt lat="60.0192428" lon="17.7035099">
        <ele>25.1317</ele>
        <time>2014-07-12T11:32:00Z</time>
      </trkpt>
      <trkpt lat="60.019306" lon="17.7034055">
        <ele>25.1317</ele>
        <time>2014-07-12T11:32:01Z</time>
      </trkpt>
      <trkpt lat="60.0193688" lon="17.7033033">
        <ele>25.6123</ele>
        <time>2014-07-12T11:32:02Z</time>
      </trkpt>
      <trkpt lat="60.0194309" lon="17.7032024">
        <ele>25.6123</ele>
        <time>2014-07-12T11:32:03Z</time>
      </trkpt>
      <trkpt lat="60.0194924" lon="17.7031035">
        <ele>25.6123</ele>
        <time>2014-07-12T11:32:04Z</time>
      </trkpt>
      <trkpt lat="60.0195537" lon="17.7030053">
        <ele>25.6123</ele>
        <time>2014-07-12T11:32:05Z</time>
      </trkpt>
      <trkpt lat="60.0196142" lon="17.7029061">
        <ele>26.0929</ele>
        <time>2014-07-12T11:32:06Z</time>
      </trkpt>
      <trkpt lat="60.0196735" lon="17.7028052">
        <ele>26.0929</ele>
        <time>2014-07-12T11:32:07Z</time>
      </trkpt>
      <trkpt lat="60.0197328" lon="17.7027021">
        <ele>26.0929</ele>
        <time>2014-07-12T11:32:08Z</time>
      </trkpt>
      <trkpt lat="60.0197915" lon="17.7025963">
        <ele>26.5736</ele>
        <time>2014-07-12T11:32:09Z</time>
      </trkpt>
      <trkpt lat="60.019849" lon="17.7024877">
        <ele>26.5736</ele>
        <time>2014-07-12T11:32:10Z</time>
      </trkpt>
      <trkpt lat="60.0199048" lon="17.7023781">
        <ele>26.5736</ele>
        <time>2014-07-12T11:32:11Z</time>
      </trkpt>
      <trkpt lat="60.0199591" lon="17.7022669">
        <ele>27.0543</ele>
        <time>2014-07-12T11:32:12Z</time>
      </trkpt>
      <trkpt lat="60.0200118" lon="17.7021538">
        <ele>27.0543</ele>
        <time>2014-07-12T11:32:13Z</time>
      </trkpt>
      <trkpt lat="60.0200635" lon="17.7020395">
        <ele>27.0543</ele>
        <time>2014-07-12T11:32:14Z</time>
      </trkpt>
      <trkpt lat="60.0201142" lon="17.7019234">
        <ele>27.0543</ele>
        <time>2014-07-12T11:32:15Z</time>
      </trkpt>
      <trkpt lat="60.0201629" lon="17.7018044">
        <ele>27.0543</ele>
        <time>2014-07-12T11:32:16Z</time>
      </trkpt>
      <trkpt lat="60.0202104" lon="17.7016824">
        <ele>27.5349</ele>
        <time>2014-07-12T11:32:17Z</time>
      </trkpt>
      <trkpt lat="60.020257" lon="17.7015578">
        <ele>27.5349</ele>
        <time>2014-07-12T11:32:18Z</time>
      </trkpt>
      <trkpt lat="60.0203018" lon="17.7014309">
        <ele>27.5349</ele>
        <time>2014-07-12T11:32:19Z</time>
      </trkpt>
      <trkpt lat="60.0203443" lon="17.7013024">
        <ele>27.5349</ele>
        <time>2014-07-12T11:32:20Z</time>
      </trkpt>
      <trkpt lat="60.0203846" lon="17.7011726">
        <ele>28.0155</ele>
        <time>2014-07-12T11:32:21Z</time>
      </trkpt>
      <trkpt lat="60.0204231" lon="17.7010405">
        <ele>28.0155</ele>
        <time>2014-07-12T11:32:22Z</time>
      </trkpt>
      <trkpt lat="60.0204607" lon="17.7009061">
        <ele>28.0155</ele>
        <time>2014-07-12T11:32:23Z</time>
      </trkpt>
      <trkpt lat="60.0204976" lon="17.7007714">
        <ele>28.0155</ele>
        <time>2014-07-12T11:32:24Z</time>
      </trkpt>
      <trkpt lat="60.0205334" lon="17.7006365">
        <ele>28.0155</ele>
        <time>2014-07-12T11:32:25Z</time>
      </trkpt>
      <trkpt lat="60.0205684" lon="17.700501">
        <ele>28.0155</ele>
        <time>2014-07-12T11:32:26Z</time>
      </trkpt>
      <trkpt lat="60.0206037" lon="17.7003663">
        <ele>28.4962</ele>
        <time>2014-07-12T11:32:27Z</time>
      </trkpt>
      <trkpt lat="60.0206396" lon="17.700232">
        <ele>28.4962</ele>
        <time>2014-07-12T11:32:28Z</time>
      </trkpt>
      <trkpt lat="60.0206758" lon="17.7000981">
        <ele>28.4962</ele>
        <time>2014-07-12T11:32:29Z</time>
      </trkpt>
      <trkpt lat="60.0207119" lon="17.6999643">
        <ele>28.4962</ele>
        <time>2014-07-12T11:32:30Z</time>
      </trkpt>
      <trkpt lat="60.0207476" lon="17.6998315">
        <ele>28.9769</ele>
        <time>2014-07-12T11:32:31Z</time>
      </trkpt>
      <trkpt lat="60.0207823" lon="17.6997004">
        <ele>28.9769</ele>
        <time>2014-07-12T11:32:32Z</time>
      </trkpt>
      <trkpt lat="60.0208156" lon="17.6995694">
        <ele>28.9769</ele>
        <time>2014-07-12T11:32:33Z</time>
      </trkpt>
      <trkpt lat="60.0208497" lon="17.6994383">
        <ele>28.9769</ele>
        <time>2014-07-12T11:32:34Z</time>
      </trkpt>
      <trkpt lat="60.0208845" lon="17.6993079">
        <ele>29.4575</ele>
        <time>2014-07-12T11:32:35Z</time>
      </trkpt>
      <trkpt lat="60.0209197" lon="17.6991776">
        <ele>29.4575</ele>
        <time>2014-07-12T11:32:36Z</time>
      </trkpt>
      <trkpt lat="60.0209543" lon="17.6990474">
        <ele>29.4575</ele>
        <time>2014-07-12T11:32:37Z</time>
      </trkpt>
      <trkpt lat="60.0209886" lon="17.6989164">
        <ele>29.4575</ele>
        <time>2014-07-12T11:32:38Z</time>
      </trkpt>
      <trkpt lat="60.0210233" lon="17.6987846">
        <ele>29.4575</ele>
        <time>2014-07-12T11:32:39Z</time>
      </trkpt>
      <trkpt lat="60.0210586" lon="17.6986525">
        <ele>29.4575</ele>
        <time>2014-07-12T11:32:40Z</time>
      </trkpt>
      <trkpt lat="60.0210912" lon="17.6985165">
        <ele>29.4575</ele>
        <time>2014-07-12T11:32:41Z</time>
      </trkpt>
      <trkpt lat="60.0211239" lon="17.6983803">
        <ele>29.4575</ele>
        <time>2014-07-12T11:32:42Z</time>
      </trkpt>
      <trkpt lat="60.0211602" lon="17.6982451">
        <ele>28.9769</ele>
        <time>2014-07-12T11:32:43Z</time>
      </trkpt>
      <trkpt lat="60.0211968" lon="17.6981058">
        <ele>28.9769</ele>
        <time>2014-07-12T11:32:44Z</time>
      </trkpt>
      <trkpt lat="60.0212269" lon="17.6979674">
        <ele>28.9769</ele>
        <time>2014-07-12T11:32:45Z</time>
      </trkpt>
      <trkpt lat="60.0212578" lon="17.6978268">
        <ele>28.9769</ele>
        <time>2014-07-12T11:32:46Z</time>
      </trkpt>
      <trkpt lat="60.0212956" lon="17.6976814">
        <ele>28.4962</ele>
        <time>2014-07-12T11:32:47Z</time>
      </trkpt>
      <trkpt lat="60.0213357" lon="17.6975379">
        <ele>28.0155</ele>
        <time>2014-07-12T11:32:48Z</time>
      </trkpt>
      <trkpt lat="60.0213759" lon="17.6973935">
        <ele>27.5349</ele>
        <time>2014-07-12T11:32:49Z</time>
      </trkpt>
      <trkpt lat="60.0214159" lon="17.6972469">
        <ele>27.5349</ele>
        <time>2014-07-12T11:32:50Z</time>
      </trkpt>
      <trkpt lat="60.0214559" lon="17.6970995">
        <ele>27.0543</ele>
        <time>2014-07-12T11:32:51Z</time>
      </trkpt>
      <trkpt lat="60.0214957" lon="17.6969514">
        <ele>26.5736</ele>
        <time>2014-07-12T11:32:52Z</time>
      </trkpt>
      <trkpt lat="60.0215351" lon="17.6968028">
        <ele>26.5736</ele>
        <time>2014-07-12T11:32:53Z</time>
      </trkpt>
      <trkpt lat="60.0215749" lon="17.6966536">
        <ele>26.0929</ele>
        <time>2014-07-12T11:32:54Z</time>
      </trkpt>
      <trkpt lat="60.0216155" lon="17.6965052">
        <ele>26.0929</ele>
        <time>2014-07-12T11:32:55Z</time>
      </trkpt>
      <trkpt lat="60.0216579" lon="17.6963603">
        <ele>25.6123</ele>
        <time>2014-07-12T11:32:56Z</time>
      </trkpt>
      <trkpt lat="60.0217005" lon="17.6962142">
        <ele>25.6123</ele>
        <time>2014-07-12T11:32:57Z</time>
      </trkpt>
      <trkpt lat="60.0217421" lon="17.6960637">
        <ele>25.1317</ele>
        <time>2014-07-12T11:32:58Z</time>
      </trkpt>
      <trkpt lat="60.0217833" lon="17.6959091">
        <ele>25.1317</ele>
        <time>2014-07-12T11:32:59Z</time>
      </trkpt>
      <trkpt lat="60.0218245" lon="17.6957524">
        <ele>25.1317</ele>
        <time>2014-07-12T11:33:00Z</time>
      </trkpt>
      <trkpt lat="60.0218651" lon="17.6955953">
        <ele>25.1317</ele>
        <time>2014-07-12T11:33:01Z</time>
      </trkpt>
      <trkpt lat="60.0219049" lon="17.6954396">
        <ele>25.1317</ele>
        <time>2014-07-12T11:33:02Z</time>
      </trkpt>
      <trkpt lat="60.0219433" lon="17.695286">
        <ele>25.1317</ele>
        <time>2014-07-12T11:33:03Z</time>
      </trkpt>
      <trkpt lat="60.0219806" lon="17.6951327">
        <ele>25.1317</ele>
        <time>2014-07-12T11:33:04Z</time>
      </trkpt>
      <trkpt lat="60.0220159" lon="17.694978">
        <ele>25.1317</ele>
        <time>2014-07-12T11:33:05Z</time>
      </trkpt>
      <trkpt lat="60.0220495" lon="17.6948213">
        <ele>25.6123</ele>
        <time>2014-07-12T11:33:06Z</time>
      </trkpt>
      <trkpt lat="60.0220818" lon="17.694664">
        <ele>25.6123</ele>
        <time>2014-07-12T11:33:07Z</time>
      </trkpt>
      <trkpt lat="60.0221125" lon="17.6945059">
        <ele>25.6123</ele>
        <time>2014-07-12T11:33:08Z</time>
      </trkpt>
      <trkpt lat="60.0221411" lon="17.694347">
        <ele>25.6123</ele>
        <time>2014-07-12T11:33:09Z</time>
      </trkpt>
      <trkpt lat="60.0221687" lon="17.6941874">
        <ele>25.6123</ele>
        <time>2014-07-12T11:33:10Z</time>
      </trkpt>
      <trkpt lat="60.022195" lon="17.6940277">
        <ele>25.6123</ele>
        <time>2014-07-12T11:33:11Z</time>
      </trkpt>
      <trkpt lat="60.0222189" lon="17.6938677">
        <ele>26.0929</ele>
        <time>2014-07-12T11:33:12Z</time>
      </trkpt>
      <trkpt lat="60.0222413" lon="17.6937073">
        <ele>26.0929</ele>
        <time>2014-07-12T11:33:13Z</time>
      </trkpt>
      <trkpt lat="60.022263" lon="17.693547">
        <ele>26.0929</ele>
        <time>2014-07-12T11:33:14Z</time>
      </trkpt>
      <trkpt lat="60.0222831" lon="17.693386">
        <ele>26.0929</ele>
        <time>2014-07-12T11:33:15Z</time>
      </trkpt>
      <trkpt lat="60.0223007" lon="17.6932239">
        <ele>26.0929</ele>
        <time>2014-07-12T11:33:16Z</time>
      </trkpt>
      <trkpt lat="60.0223162" lon="17.6930598">
        <ele>26.5736</ele>
        <time>2014-07-12T11:33:17Z</time>
      </trkpt>
      <trkpt lat="60.0223304" lon="17.6928966">
        <ele>26.5736</ele>
        <time>2014-07-12T11:33:18Z</time>
      </trkpt>
      <trkpt lat="60.0223437" lon="17.6927329">
        <ele>26.5736</ele>
        <time>2014-07-12T11:33:19Z</time>
      </trkpt>
      <trkpt lat="60.0223557" lon="17.6925693">
        <ele>26.5736</ele>
        <time>2014-07-12T11:33:20Z</time>
      </trkpt>
      <trkpt lat="60.0223661" lon="17.6924056">
        <ele>26.5736</ele>
        <time>2014-07-12T11:33:21Z</time>
      </trkpt>
      <trkpt lat="60.0223754" lon="17.6922416">
        <ele>27.0543</ele>
        <time>2014-07-12T11:33:22Z</time>
      </trkpt>
      <trkpt lat="60.0223846" lon="17.6920771">
        <ele>27.0543</ele>
        <time>2014-07-12T11:33:23Z</time>
      </trkpt>
      <trkpt lat="60.0223931" lon="17.6919113">
        <ele>27.0543</ele>
        <time>2014-07-12T11:33:24Z</time>
      </trkpt>
      <trkpt lat="60.0223971" lon="17.6917523">
        <ele>27.0543</ele>
        <time>2014-07-12T11:33:25Z</time>
      </trkpt>
      <trkpt lat="60.0224028" lon="17.6915943">
        <ele>27.0543</ele>
        <time>2014-07-12T11:33:26Z</time>
      </trkpt>
      <trkpt lat="60.0224119" lon="17.6914332">
        <ele>27.5349</ele>
        <time>2014-07-12T11:33:27Z</time>
      </trkpt>
      <trkpt lat="60.0224194" lon="17.6912742">
        <ele>27.5349</ele>
        <time>2014-07-12T11:33:28Z</time>
      </trkpt>
      <trkpt lat="60.0224267" lon="17.6911144">
        <ele>27.5349</ele>
        <time>2014-07-12T11:33:29Z</time>
      </trkpt>
      <trkpt lat="60.0224344" lon="17.6909546">
        <ele>27.5349</ele>
        <time>2014-07-12T11:33:30Z</time>
      </trkpt>
      <trkpt lat="60.0224425" lon="17.6907953">
        <ele>27.5349</ele>
        <time>2014-07-12T11:33:31Z</time>
      </trkpt>
      <trkpt lat="60.0224494" lon="17.6906374">
        <ele>27.5349</ele>
        <time>2014-07-12T11:33:32Z</time>
      </trkpt>
      <trkpt lat="60.022456" lon="17.6904804">
        <ele>28.0155</ele>
        <time>2014-07-12T11:33:33Z</time>
      </trkpt>
      <trkpt lat="60.0224634" lon="17.6903236">
        <ele>28.0155</ele>
        <time>2014-07-12T11:33:34Z</time>
      </trkpt>
      <trkpt lat="60.0224701" lon="17.6901667">
        <ele>28.0155</ele>
        <time>2014-07-12T11:33:35Z</time>
      </trkpt>
      <trkpt lat="60.022476" lon="17.6900096">
        <ele>28.0155</ele>
        <time>2014-07-12T11:33:36Z</time>
      </trkpt>
      <trkpt lat="60.0224826" lon="17.6898528">
        <ele>28.0155</ele>
        <time>2014-07-12T11:33:37Z</time>
      </trkpt>
      <trkpt lat="60.0224903" lon="17.6896963">
        <ele>28.0155</ele>
        <time>2014-07-12T11:33:38Z</time>
      </trkpt>
      <trkpt lat="60.022498" lon="17.6895395">
        <ele>28.0155</ele>
        <time>2014-07-12T11:33:39Z</time>
      </trkpt>
      <trkpt lat="60.0225054" lon="17.6893825">
        <ele>28.0155</ele>
        <time>2014-07-12T11:33:40Z</time>
      </trkpt>
      <trkpt lat="60.0225124" lon="17.689225">
        <ele>28.0155</ele>
        <time>2014-07-12T11:33:41Z</time>
      </trkpt>
      <trkpt lat="60.0225189" lon="17.6890675">
        <ele>28.0155</ele>
        <time>2014-07-12T11:33:42Z</time>
      </trkpt>
      <trkpt lat="60.0225257" lon="17.6889105">
        <ele>28.0155</ele>
        <time>2014-07-12T11:33:43Z</time>
      </trkpt>
      <trkpt lat="60.0225319" lon="17.6887561">
        <ele>28.0155</ele>
        <time>2014-07-12T11:33:44Z</time>
      </trkpt>
      <trkpt lat="60.0225385" lon="17.6886038">
        <ele>28.0155</ele>
        <time>2014-07-12T11:33:45Z</time>
      </trkpt>
      <trkpt lat="60.0225464" lon="17.6884525">
        <ele>28.4962</ele>
        <time>2014-07-12T11:33:46Z</time>
      </trkpt>
      <trkpt lat="60.0225551" lon="17.6882996">
        <ele>28.4962</ele>
        <time>2014-07-12T11:33:47Z</time>
      </trkpt>
      <trkpt lat="60.0225629" lon="17.6881442">
        <ele>28.4962</ele>
        <time>2014-07-12T11:33:48Z</time>
      </trkpt>
      <trkpt lat="60.02257" lon="17.6879862">
        <ele>28.4962</ele>
        <time>2014-07-12T11:33:49Z</time>
      </trkpt>
      <trkpt lat="60.0225769" lon="17.6878267">
        <ele>28.4962</ele>
        <time>2014-07-12T11:33:50Z</time>
      </trkpt>
      <trkpt lat="60.0225839" lon="17.6876657">
        <ele>28.4962</ele>
        <time>2014-07-12T11:33:51Z</time>
      </trkpt>
      <trkpt lat="60.0225914" lon="17.6875032">
        <ele>28.4962</ele>
        <time>2014-07-12T11:33:52Z</time>
      </trkpt>
      <trkpt lat="60.0225996" lon="17.6873395">
        <ele>28.4962</ele>
        <time>2014-07-12T11:33:53Z</time>
      </trkpt>
      <trkpt lat="60.0226073" lon="17.6871753">
        <ele>28.4962</ele>
        <time>2014-07-12T11:33:54Z</time>
      </trkpt>
      <trkpt lat="60.0226148" lon="17.6870114">
        <ele>28.4962</ele>
        <time>2014-07-12T11:33:55Z</time>
      </trkpt>
      <trkpt lat="60.0226228" lon="17.6868474">
        <ele>28.4962</ele>
        <time>2014-07-12T11:33:56Z</time>
      </trkpt>
      <trkpt lat="60.0226303" lon="17.6866831">
        <ele>28.4962</ele>
        <time>2014-07-12T11:33:57Z</time>
      </trkpt>
      <trkpt lat="60.0226375" lon="17.6865179">
        <ele>28.4962</ele>
        <time>2014-07-12T11:33:58Z</time>
      </trkpt>
      <trkpt lat="60.0226448" lon="17.6863519">
        <ele>28.4962</ele>
        <time>2014-07-12T11:33:59Z</time>
      </trkpt>
      <trkpt lat="60.0226526" lon="17.6861848">
        <ele>28.0155</ele>
        <time>2014-07-12T11:34:00Z</time>
      </trkpt>
      <trkpt lat="60.0226613" lon="17.6860169">
        <ele>28.0155</ele>
        <time>2014-07-12T11:34:01Z</time>
      </trkpt>
      <trkpt lat="60.0226701" lon="17.6858481">
        <ele>28.0155</ele>
        <time>2014-07-12T11:34:02Z</time>
      </trkpt>
      <trkpt lat="60.0226779" lon="17.6856781">
        <ele>28.0155</ele>
        <time>2014-07-12T11:34:03Z</time>
      </trkpt>
      <trkpt lat="60.0226851" lon="17.6855078">
        <ele>28.0155</ele>
        <time>2014-07-12T11:34:04Z</time>
      </trkpt>
      <trkpt lat="60.0226927" lon="17.6853374">
        <ele>28.0155</ele>
        <time>2014-07-12T11:34:05Z</time>
      </trkpt>
      <trkpt lat="60.022699" lon="17.6851662">
        <ele>28.0155</ele>
        <time>2014-07-12T11:34:06Z</time>
      </trkpt>
      <trkpt lat="60.0227044" lon="17.6849938">
        <ele>28.0155</ele>
        <time>2014-07-12T11:34:07Z</time>
      </trkpt>
      <trkpt lat="60.0227098" lon="17.6848203">
        <ele>27.5349</ele>
        <time>2014-07-12T11:34:08Z</time>
      </trkpt>
      <trkpt lat="60.0227139" lon="17.684646">
        <ele>27.5349</ele>
        <time>2014-07-12T11:34:09Z</time>
      </trkpt>
      <trkpt lat="60.0227167" lon="17.6844712">
        <ele>27.5349</ele>
        <time>2014-07-12T11:34:10Z</time>
      </trkpt>
      <trkpt lat="60.0227196" lon="17.6842957">
        <ele>27.5349</ele>
        <time>2014-07-12T11:34:11Z</time>
      </trkpt>
      <trkpt lat="60.0227208" lon="17.6841197">
        <ele>27.5349</ele>
        <time>2014-07-12T11:34:12Z</time>
      </trkpt>
      <trkpt lat="60.0227194" lon="17.6839433">
        <ele>27.5349</ele>
        <time>2014-07-12T11:34:13Z</time>
      </trkpt>
      <trkpt lat="60.0227167" lon="17.6837675">
        <ele>27.5349</ele>
        <time>2014-07-12T11:34:14Z</time>
      </trkpt>
      <trkpt lat="60.0227144" lon="17.6835925">
        <ele>27.5349</ele>
        <time>2014-07-12T11:34:15Z</time>
      </trkpt>
      <trkpt lat="60.0227124" lon="17.6834174">
        <ele>27.5349</ele>
        <time>2014-07-12T11:34:16Z</time>
      </trkpt>
      <trkpt lat="60.022709" lon="17.6832419">
        <ele>27.5349</ele>
        <time>2014-07-12T11:34:17Z</time>
      </trkpt>
      <trkpt lat="60.0227054" lon="17.6830657">
        <ele>27.0543</ele>
        <time>2014-07-12T11:34:18Z</time>
      </trkpt>
      <trkpt lat="60.0227012" lon="17.6828882">
        <ele>27.0543</ele>
        <time>2014-07-12T11:34:19Z</time>
      </trkpt>
      <trkpt lat="60.0226955" lon="17.6827094">
        <ele>27.0543</ele>
        <time>2014-07-12T11:34:20Z</time>
      </trkpt>
      <trkpt lat="60.022688" lon="17.6825285">
        <ele>27.0543</ele>
        <time>2014-07-12T11:34:21Z</time>
      </trkpt>
      <trkpt lat="60.022679" lon="17.6823454">
        <ele>27.0543</ele>
        <time>2014-07-12T11:34:22Z</time>
      </trkpt>
      <trkpt lat="60.0226686" lon="17.6821617">
        <ele>26.5736</ele>
        <time>2014-07-12T11:34:23Z</time>
      </trkpt>
      <trkpt lat="60.0226564" lon="17.6819795">
        <ele>26.5736</ele>
        <time>2014-07-12T11:34:24Z</time>
      </trkpt>
      <trkpt lat="60.0226425" lon="17.6817998">
        <ele>26.5736</ele>
        <time>2014-07-12T11:34:25Z</time>
      </trkpt>
      <trkpt lat="60.0226261" lon="17.6816324">
        <ele>26.5736</ele>
        <time>2014-07-12T11:34:26Z</time>
      </trkpt>
      <trkpt lat="60.0226074" lon="17.6814733">
        <ele>26.5736</ele>
        <time>2014-07-12T11:34:27Z</time>
      </trkpt>
      <trkpt lat="60.0225927" lon="17.6813061">
        <ele>26.5736</ele>
        <time>2014-07-12T11:34:28Z</time>
      </trkpt>
      <trkpt lat="60.0225805" lon="17.6811304">
        <ele>26.5736</ele>
        <time>2014-07-12T11:34:29Z</time>
      </trkpt>
      <trkpt lat="60.0225663" lon="17.6809553">
        <ele>26.5736</ele>
        <time>2014-07-12T11:34:30Z</time>
      </trkpt>
      <trkpt lat="60.0225494" lon="17.6807786">
        <ele>26.0929</ele>
        <time>2014-07-12T11:34:31Z</time>
      </trkpt>
      <trkpt lat="60.0225308" lon="17.6806007">
        <ele>26.0929</ele>
        <time>2014-07-12T11:34:32Z</time>
      </trkpt>
      <trkpt lat="60.0225107" lon="17.6804225">
        <ele>26.0929</ele>
        <time>2014-07-12T11:34:33Z</time>
      </trkpt>
      <trkpt lat="60.0224897" lon="17.680244">
        <ele>26.0929</ele>
        <time>2014-07-12T11:34:34Z</time>
      </trkpt>
      <trkpt lat="60.0224672" lon="17.680065">
        <ele>25.6123</ele>
        <time>2014-07-12T11:34:35Z</time>
      </trkpt>
      <trkpt lat="60.0224433" lon="17.6798856">
        <ele>25.6123</ele>
        <time>2014-07-12T11:34:36Z</time>
      </trkpt>
      <trkpt lat="60.0224184" lon="17.6797061">
        <ele>25.6123</ele>
        <time>2014-07-12T11:34:37Z</time>
      </trkpt>
      <trkpt lat="60.0223928" lon="17.6795278">
        <ele>25.1317</ele>
        <time>2014-07-12T11:34:38Z</time>
      </trkpt>
      <trkpt lat="60.022366" lon="17.6793511">
        <ele>25.1317</ele>
        <time>2014-07-12T11:34:39Z</time>
      </trkpt>
      <trkpt lat="60.0223394" lon="17.6791761">
        <ele>25.1317</ele>
        <time>2014-07-12T11:34:40Z</time>
      </trkpt>
      <trkpt lat="60.0223123" lon="17.6790003">
        <ele>24.651</ele>
        <time>2014-07-12T11:34:41Z</time>
      </trkpt>
      <trkpt lat="60.0222847" lon="17.6788228">
        <ele>24.651</ele>
        <time>2014-07-12T11:34:42Z</time>
      </trkpt>
      <trkpt lat="60.0222561" lon="17.6786441">
        <ele>24.651</ele>
        <time>2014-07-12T11:34:43Z</time>
      </trkpt>
      <trkpt lat="60.0222267" lon="17.6784653">
        <ele>24.1703</ele>
        <time>2014-07-12T11:34:44Z</time>
      </trkpt>
      <trkpt lat="60.0221977" lon="17.6782872">
        <ele>24.1703</ele>
        <time>2014-07-12T11:34:45Z</time>
      </trkpt>
      <trkpt lat="60.022169" lon="17.6781105">
        <ele>24.1703</ele>
        <time>2014-07-12T11:34:46Z</time>
      </trkpt>
      <trkpt lat="60.0221398" lon="17.6779345">
        <ele>24.1703</ele>
        <time>2014-07-12T11:34:47Z</time>
      </trkpt>
      <trkpt lat="60.0221108" lon="17.6777593">
        <ele>23.6896</ele>
        <time>2014-07-12T11:34:48Z</time>
      </trkpt>
      <trkpt lat="60.022083" lon="17.6775837">
        <ele>23.6896</ele>
        <time>2014-07-12T11:34:49Z</time>
      </trkpt>
      <trkpt lat="60.0220552" lon="17.6774079">
        <ele>23.6896</ele>
        <time>2014-07-12T11:34:50Z</time>
      </trkpt>
      <trkpt lat="60.0220281" lon="17.6772335">
        <ele>23.6896</ele>
        <time>2014-07-12T11:34:51Z</time>
      </trkpt>
      <trkpt lat="60.0220009" lon="17.6770604">
        <ele>23.6896</ele>
        <time>2014-07-12T11:34:52Z</time>
      </trkpt>
      <trkpt lat="60.0219745" lon="17.6768878">
        <ele>23.6896</ele>
        <time>2014-07-12T11:34:53Z</time>
      </trkpt>
      <trkpt lat="60.0219506" lon="17.6767143">
        <ele>23.6896</ele>
        <time>2014-07-12T11:34:54Z</time>
      </trkpt>
      <trkpt lat="60.0219288" lon="17.6765399">
        <ele>23.6896</ele>
        <time>2014-07-12T11:34:55Z</time>
      </trkpt>
      <trkpt lat="60.0219082" lon="17.6763646">
        <ele>23.6896</ele>
        <time>2014-07-12T11:34:56Z</time>
      </trkpt>
      <trkpt lat="60.0218888" lon="17.6761877">
        <ele>23.6896</ele>
        <time>2014-07-12T11:34:57Z</time>
      </trkpt>
      <trkpt lat="60.0218711" lon="17.6760096">
        <ele>23.6896</ele>
        <time>2014-07-12T11:34:58Z</time>
      </trkpt>
      <trkpt lat="60.0218547" lon="17.6758314">
        <ele>23.6896</ele>
        <time>2014-07-12T11:34:59Z</time>
      </trkpt>
      <trkpt lat="60.0218404" lon="17.6756532">
        <ele>23.6896</ele>
        <time>2014-07-12T11:35:00Z</time>
      </trkpt>
      <trkpt lat="60.0218294" lon="17.6754749">
        <ele>23.6896</ele>
        <time>2014-07-12T11:35:01Z</time>
      </trkpt>
      <trkpt lat="60.0218195" lon="17.6752972">
        <ele>23.6896</ele>
        <time>2014-07-12T11:35:02Z</time>
      </trkpt>
      <trkpt lat="60.0218102" lon="17.6751195">
        <ele>23.6896</ele>
        <time>2014-07-12T11:35:03Z</time>
      </trkpt>
      <trkpt lat="60.0218045" lon="17.6749414">
        <ele>23.6896</ele>
        <time>2014-07-12T11:35:04Z</time>
      </trkpt>
      <trkpt lat="60.0218014" lon="17.6747634">
        <ele>23.6896</ele>
        <time>2014-07-12T11:35:05Z</time>
      </trkpt>
      <trkpt lat="60.0217996" lon="17.6745854">
        <ele>23.6896</ele>
        <time>2014-07-12T11:35:06Z</time>
      </trkpt>
      <trkpt lat="60.0218003" lon="17.6744067">
        <ele>23.6896</ele>
        <time>2014-07-12T11:35:07Z</time>
      </trkpt>
      <trkpt lat="60.0218023" lon="17.6742275">
        <ele>23.6896</ele>
        <time>2014-07-12T11:35:08Z</time>
      </trkpt>
      <trkpt lat="60.021804" lon="17.6740488">
        <ele>23.6896</ele>
        <time>2014-07-12T11:35:09Z</time>
      </trkpt>
      <trkpt lat="60.0218055" lon="17.673872">
        <ele>23.6896</ele>
        <time>2014-07-12T11:35:10Z</time>
      </trkpt>
      <trkpt lat="60.0218069" lon="17.6736979">
        <ele>23.6896</ele>
        <time>2014-07-12T11:35:11Z</time>
      </trkpt>
      <trkpt lat="60.0218071" lon="17.6735261">
        <ele>23.6896</ele>
        <time>2014-07-12T11:35:12Z</time>
      </trkpt>
      <trkpt lat="60.0218061" lon="17.673355">
        <ele>23.6896</ele>
        <time>2014-07-12T11:35:13Z</time>
      </trkpt>
      <trkpt lat="60.021805" lon="17.6731827">
        <ele>23.6896</ele>
        <time>2014-07-12T11:35:14Z</time>
      </trkpt>
      <trkpt lat="60.021804" lon="17.6730091">
        <ele>23.6896</ele>
        <time>2014-07-12T11:35:15Z</time>
      </trkpt>
      <trkpt lat="60.0218023" lon="17.6728328">
        <ele>23.6896</ele>
        <time>2014-07-12T11:35:16Z</time>
      </trkpt>
      <trkpt lat="60.0217991" lon="17.6726543">
        <ele>23.6896</ele>
        <time>2014-07-12T11:35:17Z</time>
      </trkpt>
      <trkpt lat="60.021794" lon="17.6724755">
        <ele>23.6896</ele>
        <time>2014-07-12T11:35:18Z</time>
      </trkpt>
      <trkpt lat="60.021786" lon="17.6722969">
        <ele>23.6896</ele>
        <time>2014-07-12T11:35:19Z</time>
      </trkpt>
      <trkpt lat="60.021776" lon="17.6721192">
        <ele>23.209</ele>
        <time>2014-07-12T11:35:20Z</time>
      </trkpt>
      <trkpt lat="60.0217636" lon="17.6719418">
        <ele>23.209</ele>
        <time>2014-07-12T11:35:21Z</time>
      </trkpt>
      <trkpt lat="60.0217494" lon="17.6717662">
        <ele>23.209</ele>
        <time>2014-07-12T11:35:22Z</time>
      </trkpt>
      <trkpt lat="60.0217354" lon="17.671593">
        <ele>23.209</ele>
        <time>2014-07-12T11:35:23Z</time>
      </trkpt>
      <trkpt lat="60.0217206" lon="17.6714213">
        <ele>23.209</ele>
        <time>2014-07-12T11:35:24Z</time>
      </trkpt>
      <trkpt lat="60.0217025" lon="17.671251">
        <ele>23.209</ele>
        <time>2014-07-12T11:35:25Z</time>
      </trkpt>
      <trkpt lat="60.0216821" lon="17.6710826">
        <ele>23.209</ele>
        <time>2014-07-12T11:35:26Z</time>
      </trkpt>
      <trkpt lat="60.0216599" lon="17.6709144">
        <ele>23.209</ele>
        <time>2014-07-12T11:35:27Z</time>
      </trkpt>
      <trkpt lat="60.0216367" lon="17.6707452">
        <ele>23.209</ele>
        <time>2014-07-12T11:35:28Z</time>
      </trkpt>
      <trkpt lat="60.0216113" lon="17.6705764">
        <ele>23.209</ele>
        <time>2014-07-12T11:35:29Z</time>
      </trkpt>
      <trkpt lat="60.0215836" lon="17.6704035">
        <ele>23.209</ele>
        <time>2014-07-12T11:35:30Z</time>
      </trkpt>
      <trkpt lat="60.0215549" lon="17.6702342">
        <ele>23.209</ele>
        <time>2014-07-12T11:35:31Z</time>
      </trkpt>
      <trkpt lat="60.0215237" lon="17.6700674">
        <ele>23.209</ele>
        <time>2014-07-12T11:35:32Z</time>
      </trkpt>
      <trkpt lat="60.0214928" lon="17.6699031">
        <ele>23.6896</ele>
        <time>2014-07-12T11:35:33Z</time>
      </trkpt>
      <trkpt lat="60.0214605" lon="17.6697416">
        <ele>23.6896</ele>
        <time>2014-07-12T11:35:34Z</time>
      </trkpt>
      <trkpt lat="60.0214256" lon="17.6695818">
        <ele>23.6896</ele>
        <time>2014-07-12T11:35:35Z</time>
      </trkpt>
      <trkpt lat="60.021389" lon="17.669423">
        <ele>23.6896</ele>
        <time>2014-07-12T11:35:36Z</time>
      </trkpt>
      <trkpt lat="60.0213512" lon="17.6692663">
        <ele>23.6896</ele>
        <time>2014-07-12T11:35:37Z</time>
      </trkpt>
      <trkpt lat="60.0213118" lon="17.6691122">
        <ele>23.6896</ele>
        <time>2014-07-12T11:35:38Z</time>
      </trkpt>
      <trkpt lat="60.0212714" lon="17.6689598">
        <ele>23.6896</ele>
        <time>2014-07-12T11:35:39Z</time>
      </trkpt>
      <trkpt lat="60.0212311" lon="17.6688086">
        <ele>23.6896</ele>
        <time>2014-07-12T11:35:40Z</time>
      </trkpt>
      <trkpt lat="60.0211896" lon="17.6686605">
        <ele>23.6896</ele>
        <time>2014-07-12T11:35:41Z</time>
      </trkpt>
      <trkpt lat="60.0211456" lon="17.6685165">
        <ele>24.1703</ele>
        <time>2014-07-12T11:35:42Z</time>
      </trkpt>
      <trkpt lat="60.0211004" lon="17.6683757">
        <ele>24.1703</ele>
        <time>2014-07-12T11:35:43Z</time>
      </trkpt>
      <trkpt lat="60.0210543" lon="17.6682357">
        <ele>24.1703</ele>
        <time>2014-07-12T11:35:44Z</time>
      </trkpt>
      <trkpt lat="60.0210073" lon="17.6680968">
        <ele>24.1703</ele>
        <time>2014-07-12T11:35:45Z</time>
      </trkpt>
      <trkpt lat="60.0209595" lon="17.66796">
        <ele>24.1703</ele>
        <time>2014-07-12T11:35:46Z</time>
      </trkpt>
      <trkpt lat="60.0209115" lon="17.6678247">
        <ele>24.1703</ele>
        <time>2014-07-12T11:35:47Z</time>
      </trkpt>
      <trkpt lat="60.0208633" lon="17.6676905">
        <ele>24.1703</ele>
        <time>2014-07-12T11:35:48Z</time>
      </trkpt>
      <trkpt lat="60.0208147" lon="17.6675586">
        <ele>24.651</ele>
        <time>2014-07-12T11:35:49Z</time>
      </trkpt>
      <trkpt lat="60.0207658" lon="17.6674286">
        <ele>24.651</ele>
        <time>2014-07-12T11:35:50Z</time>
      </trkpt>
      <trkpt lat="60.0207171" lon="17.6672986">
        <ele>24.651</ele>
        <time>2014-07-12T11:35:51Z</time>
      </trkpt>
      <trkpt lat="60.0206688" lon="17.6671681">
        <ele>24.651</ele>
        <time>2014-07-12T11:35:52Z</time>
      </trkpt>
      <trkpt lat="60.0206203" lon="17.667036">
        <ele>24.651</ele>
        <time>2014-07-12T11:35:53Z</time>
      </trkpt>
      <trkpt lat="60.0205722" lon="17.6669024">
        <ele>24.651</ele>
        <time>2014-07-12T11:35:54Z</time>
      </trkpt>
      <trkpt lat="60.0205245" lon="17.6667693">
        <ele>24.651</ele>
        <time>2014-07-12T11:35:55Z</time>
      </trkpt>
      <trkpt lat="60.0204768" lon="17.666637">
        <ele>25.1317</ele>
        <time>2014-07-12T11:35:56Z</time>
      </trkpt>
      <trkpt lat="60.020429" lon="17.666504">
        <ele>25.1317</ele>
        <time>2014-07-12T11:35:57Z</time>
      </trkpt>
      <trkpt lat="60.0203809" lon="17.6663698">
        <ele>25.1317</ele>
        <time>2014-07-12T11:35:58Z</time>
      </trkpt>
      <trkpt lat="60.0203322" lon="17.6662346">
        <ele>25.1317</ele>
        <time>2014-07-12T11:35:59Z</time>
      </trkpt>
      <trkpt lat="60.0202831" lon="17.6660994">
        <ele>25.1317</ele>
        <time>2014-07-12T11:36:00Z</time>
      </trkpt>
      <trkpt lat="60.0202339" lon="17.6659641">
        <ele>25.1317</ele>
        <time>2014-07-12T11:36:01Z</time>
      </trkpt>
      <trkpt lat="60.0201852" lon="17.6658289">
        <ele>25.1317</ele>
        <time>2014-07-12T11:36:02Z</time>
      </trkpt>
      <trkpt lat="60.0201371" lon="17.6656943">
        <ele>25.1317</ele>
        <time>2014-07-12T11:36:03Z</time>
      </trkpt>
      <trkpt lat="60.0200893" lon="17.6655612">
        <ele>25.1317</ele>
        <time>2014-07-12T11:36:04Z</time>
      </trkpt>
      <trkpt lat="60.0200413" lon="17.6654289">
        <ele>25.6123</ele>
        <time>2014-07-12T11:36:05Z</time>
      </trkpt>
      <trkpt lat="60.0199936" lon="17.665295">
        <ele>25.6123</ele>
        <time>2014-07-12T11:36:06Z</time>
      </trkpt>
      <trkpt lat="60.0198992" lon="17.6650205">
        <ele>25.6123</ele>
        <time>2014-07-12T11:36:07Z</time>
      </trkpt>
      <trkpt lat="60.0198537" lon="17.6648799">
        <ele>25.6123</ele>
        <time>2014-07-12T11:36:08Z</time>
      </trkpt>
      <trkpt lat="60.0198092" lon="17.6647376">
        <ele>25.6123</ele>
        <time>2014-07-12T11:36:09Z</time>
      </trkpt>
      <trkpt lat="60.0197662" lon="17.664594">
        <ele>26.0929</ele>
        <time>2014-07-12T11:36:10Z</time>
      </trkpt>
      <trkpt lat="60.0197243" lon="17.6644486">
        <ele>26.0929</ele>
        <time>2014-07-12T11:36:11Z</time>
      </trkpt>
      <trkpt lat="60.0196838" lon="17.6643013">
        <ele>26.0929</ele>
        <time>2014-07-12T11:36:12Z</time>
      </trkpt>
      <trkpt lat="60.0196449" lon="17.6641523">
        <ele>26.0929</ele>
        <time>2014-07-12T11:36:13Z</time>
      </trkpt>
      <trkpt lat="60.0196076" lon="17.664003">
        <ele>26.0929</ele>
        <time>2014-07-12T11:36:14Z</time>
      </trkpt>
      <trkpt lat="60.0195718" lon="17.6638523">
        <ele>26.0929</ele>
        <time>2014-07-12T11:36:15Z</time>
      </trkpt>
      <trkpt lat="60.0195378" lon="17.6636998">
        <ele>26.0929</ele>
        <time>2014-07-12T11:36:16Z</time>
      </trkpt>
      <trkpt lat="60.0195055" lon="17.663546">
        <ele>26.0929</ele>
        <time>2014-07-12T11:36:17Z</time>
      </trkpt>
      <trkpt lat="60.019474" lon="17.6633921">
        <ele>26.0929</ele>
        <time>2014-07-12T11:36:18Z</time>
      </trkpt>
      <trkpt lat="60.0194435" lon="17.6632375">
        <ele>26.5736</ele>
        <time>2014-07-12T11:36:19Z</time>
      </trkpt>
      <trkpt lat="60.0194152" lon="17.6630811">
        <ele>26.5736</ele>
        <time>2014-07-12T11:36:20Z</time>
      </trkpt>
      <trkpt lat="60.0193883" lon="17.662923">
        <ele>26.5736</ele>
        <time>2014-07-12T11:36:21Z</time>
      </trkpt>
      <trkpt lat="60.0193621" lon="17.6627638">
        <ele>26.5736</ele>
        <time>2014-07-12T11:36:22Z</time>
      </trkpt>
      <trkpt lat="60.0193372" lon="17.6626044">
        <ele>26.5736</ele>
        <time>2014-07-12T11:36:23Z</time>
      </trkpt>
      <trkpt lat="60.0193134" lon="17.6624464">
        <ele>26.5736</ele>
        <time>2014-07-12T11:36:24Z</time>
      </trkpt>
      <trkpt lat="60.0192912" lon="17.6622878">
        <ele>26.5736</ele>
        <time>2014-07-12T11:36:25Z</time>
      </trkpt>
      <trkpt lat="60.0192714" lon="17.6621267">
        <ele>26.5736</ele>
        <time>2014-07-12T11:36:26Z</time>
      </trkpt>
      <trkpt lat="60.0192538" lon="17.6619634">
        <ele>26.5736</ele>
        <time>2014-07-12T11:36:27Z</time>
      </trkpt>
      <trkpt lat="60.0192379" lon="17.661798">
        <ele>26.5736</ele>
        <time>2014-07-12T11:36:28Z</time>
      </trkpt>
      <trkpt lat="60.0192233" lon="17.6616315">
        <ele>26.5736</ele>
        <time>2014-07-12T11:36:29Z</time>
      </trkpt>
      <trkpt lat="60.0192091" lon="17.6614641">
        <ele>26.5736</ele>
        <time>2014-07-12T11:36:30Z</time>
      </trkpt>
      <trkpt lat="60.0191953" lon="17.6612964">
        <ele>26.5736</ele>
        <time>2014-07-12T11:36:31Z</time>
      </trkpt>
      <trkpt lat="60.0191821" lon="17.6611289">
        <ele>26.5736</ele>
        <time>2014-07-12T11:36:32Z</time>
      </trkpt>
      <trkpt lat="60.0191687" lon="17.6609611">
        <ele>26.5736</ele>
        <time>2014-07-12T11:36:33Z</time>
      </trkpt>
      <trkpt lat="60.0191554" lon="17.6607933">
        <ele>26.5736</ele>
        <time>2014-07-12T11:36:34Z</time>
      </trkpt>
      <trkpt lat="60.0191431" lon="17.6606251">
        <ele>26.5736</ele>
        <time>2014-07-12T11:36:35Z</time>
      </trkpt>
      <trkpt lat="60.0191316" lon="17.6604565">
        <ele>26.5736</ele>
        <time>2014-07-12T11:36:36Z</time>
      </trkpt>
      <trkpt lat="60.0191192" lon="17.6602875">
        <ele>27.0543</ele>
        <time>2014-07-12T11:36:37Z</time>
      </trkpt>
      <trkpt lat="60.019106" lon="17.6601181">
        <ele>27.0543</ele>
        <time>2014-07-12T11:36:38Z</time>
      </trkpt>
      <trkpt lat="60.0190921" lon="17.6599475">
        <ele>27.0543</ele>
        <time>2014-07-12T11:36:39Z</time>
      </trkpt>
      <trkpt lat="60.0190786" lon="17.6597756">
        <ele>27.0543</ele>
        <time>2014-07-12T11:36:40Z</time>
      </trkpt>
      <trkpt lat="60.0190662" lon="17.659603">
        <ele>27.0543</ele>
        <time>2014-07-12T11:36:41Z</time>
      </trkpt>
      <trkpt lat="60.0190534" lon="17.6594304">
        <ele>27.0543</ele>
        <time>2014-07-12T11:36:42Z</time>
      </trkpt>
      <trkpt lat="60.0190403" lon="17.6592578">
        <ele>27.0543</ele>
        <time>2014-07-12T11:36:43Z</time>
      </trkpt>
      <trkpt lat="60.0190275" lon="17.6590866">
        <ele>27.0543</ele>
        <time>2014-07-12T11:36:44Z</time>
      </trkpt>
      <trkpt lat="60.0190145" lon="17.6589181">
        <ele>27.0543</ele>
        <time>2014-07-12T11:36:45Z</time>
      </trkpt>
      <trkpt lat="60.0190016" lon="17.6587499">
        <ele>27.0543</ele>
        <time>2014-07-12T11:36:46Z</time>
      </trkpt>
      <trkpt lat="60.0189884" lon="17.6585806">
        <ele>26.5736</ele>
        <time>2014-07-12T11:36:47Z</time>
      </trkpt>
      <trkpt lat="60.018975" lon="17.65841">
        <ele>26.5736</ele>
        <time>2014-07-12T11:36:48Z</time>
      </trkpt>
      <trkpt lat="60.0189613" lon="17.6582381">
        <ele>26.5736</ele>
        <time>2014-07-12T11:36:49Z</time>
      </trkpt>
      <trkpt lat="60.0189477" lon="17.6580645">
        <ele>26.5736</ele>
        <time>2014-07-12T11:36:50Z</time>
      </trkpt>
      <trkpt lat="60.018934" lon="17.6578895">
        <ele>26.5736</ele>
        <time>2014-07-12T11:36:51Z</time>
      </trkpt>
      <trkpt lat="60.01892" lon="17.6577154">
        <ele>26.5736</ele>
        <time>2014-07-12T11:36:52Z</time>
      </trkpt>
      <trkpt lat="60.0189066" lon="17.6575438">
        <ele>26.5736</ele>
        <time>2014-07-12T11:36:53Z</time>
      </trkpt>
      <trkpt lat="60.0188927" lon="17.6573856">
        <ele>26.5736</ele>
        <time>2014-07-12T11:36:54Z</time>
      </trkpt>
      <trkpt lat="60.0188796" lon="17.6572263">
        <ele>26.5736</ele>
        <time>2014-07-12T11:36:55Z</time>
      </trkpt>
      <trkpt lat="60.0188668" lon="17.6570544">
        <ele>26.5736</ele>
        <time>2014-07-12T11:36:56Z</time>
      </trkpt>
      <trkpt lat="60.0188544" lon="17.656884">
        <ele>26.5736</ele>
        <time>2014-07-12T11:36:57Z</time>
      </trkpt>
      <trkpt lat="60.0188426" lon="17.6567125">
        <ele>26.5736</ele>
        <time>2014-07-12T11:36:58Z</time>
      </trkpt>
      <trkpt lat="60.0188306" lon="17.6565385">
        <ele>26.5736</ele>
        <time>2014-07-12T11:36:59Z</time>
      </trkpt>
      <trkpt lat="60.018818" lon="17.6563634">
        <ele>26.5736</ele>
        <time>2014-07-12T11:37:00Z</time>
      </trkpt>
      <trkpt lat="60.0188052" lon="17.6561876">
        <ele>26.0929</ele>
        <time>2014-07-12T11:37:01Z</time>
      </trkpt>
      <trkpt lat="60.0187919" lon="17.6560111">
        <ele>26.0929</ele>
        <time>2014-07-12T11:37:02Z</time>
      </trkpt>
      <trkpt lat="60.0187786" lon="17.655835">
        <ele>26.0929</ele>
        <time>2014-07-12T11:37:03Z</time>
      </trkpt>
      <trkpt lat="60.0187649" lon="17.6556585">
        <ele>26.0929</ele>
        <time>2014-07-12T11:37:04Z</time>
      </trkpt>
      <trkpt lat="60.0187514" lon="17.6554821">
        <ele>26.0929</ele>
        <time>2014-07-12T11:37:05Z</time>
      </trkpt>
      <trkpt lat="60.0187382" lon="17.6553068">
        <ele>26.0929</ele>
        <time>2014-07-12T11:37:06Z</time>
      </trkpt>
      <trkpt lat="60.0187252" lon="17.6551312">
        <ele>26.0929</ele>
        <time>2014-07-12T11:37:07Z</time>
      </trkpt>
      <trkpt lat="60.0187119" lon="17.6549538">
        <ele>26.0929</ele>
        <time>2014-07-12T11:37:08Z</time>
      </trkpt>
      <trkpt lat="60.0186984" lon="17.6547751">
        <ele>26.0929</ele>
        <time>2014-07-12T11:37:09Z</time>
      </trkpt>
      <trkpt lat="60.0186844" lon="17.6545956">
        <ele>26.0929</ele>
        <time>2014-07-12T11:37:10Z</time>
      </trkpt>
      <trkpt lat="60.0186701" lon="17.6544167">
        <ele>25.6123</ele>
        <time>2014-07-12T11:37:11Z</time>
      </trkpt>
      <trkpt lat="60.0186559" lon="17.6542391">
        <ele>25.6123</ele>
        <time>2014-07-12T11:37:12Z</time>
      </trkpt>
      <trkpt lat="60.018642" lon="17.6540641">
        <ele>25.6123</ele>
        <time>2014-07-12T11:37:13Z</time>
      </trkpt>
      <trkpt lat="60.0186287" lon="17.6538909">
        <ele>25.6123</ele>
        <time>2014-07-12T11:37:14Z</time>
      </trkpt>
      <trkpt lat="60.0186162" lon="17.6537172">
        <ele>25.6123</ele>
        <time>2014-07-12T11:37:15Z</time>
      </trkpt>
      <trkpt lat="60.0186027" lon="17.6535426">
        <ele>25.6123</ele>
        <time>2014-07-12T11:37:16Z</time>
      </trkpt>
      <trkpt lat="60.0185882" lon="17.6533678">
        <ele>25.6123</ele>
        <time>2014-07-12T11:37:17Z</time>
      </trkpt>
      <trkpt lat="60.0185742" lon="17.6531923">
        <ele>25.6123</ele>
        <time>2014-07-12T11:37:18Z</time>
      </trkpt>
      <trkpt lat="60.0185608" lon="17.6530167">
        <ele>25.6123</ele>
        <time>2014-07-12T11:37:19Z</time>
      </trkpt>
      <trkpt lat="60.0185473" lon="17.6528402">
        <ele>26.0929</ele>
        <time>2014-07-12T11:37:20Z</time>
      </trkpt>
      <trkpt lat="60.0185338" lon="17.6526651">
        <ele>26.0929</ele>
        <time>2014-07-12T11:37:21Z</time>
      </trkpt>
      <trkpt lat="60.0185206" lon="17.6524939">
        <ele>26.0929</ele>
        <time>2014-07-12T11:37:22Z</time>
      </trkpt>
      <trkpt lat="60.0185075" lon="17.6523261">
        <ele>26.5736</ele>
        <time>2014-07-12T11:37:23Z</time>
      </trkpt>
      <trkpt lat="60.0184956" lon="17.6521598">
        <ele>26.5736</ele>
        <time>2014-07-12T11:37:24Z</time>
      </trkpt>
      <trkpt lat="60.0184846" lon="17.65199">
        <ele>26.5736</ele>
        <time>2014-07-12T11:37:25Z</time>
      </trkpt>
      <trkpt lat="60.0184722" lon="17.6518151">
        <ele>26.5736</ele>
        <time>2014-07-12T11:37:26Z</time>
      </trkpt>
      <trkpt lat="60.0184595" lon="17.6516353">
        <ele>26.5736</ele>
        <time>2014-07-12T11:37:27Z</time>
      </trkpt>
      <trkpt lat="60.0184474" lon="17.6514573">
        <ele>27.0543</ele>
        <time>2014-07-12T11:37:28Z</time>
      </trkpt>
      <trkpt lat="60.0184323" lon="17.6512869">
        <ele>27.0543</ele>
        <time>2014-07-12T11:37:29Z</time>
      </trkpt>
      <trkpt lat="60.0184181" lon="17.6511189">
        <ele>27.0543</ele>
        <time>2014-07-12T11:37:30Z</time>
      </trkpt>
      <trkpt lat="60.0184103" lon="17.6509505">
        <ele>27.0543</ele>
        <time>2014-07-12T11:37:31Z</time>
      </trkpt>
      <trkpt lat="60.0184049" lon="17.6507809">
        <ele>27.5349</ele>
        <time>2014-07-12T11:37:32Z</time>
      </trkpt>
      <trkpt lat="60.0183991" lon="17.6506118">
        <ele>27.5349</ele>
        <time>2014-07-12T11:37:33Z</time>
      </trkpt>
      <trkpt lat="60.0183925" lon="17.6504419">
        <ele>27.5349</ele>
        <time>2014-07-12T11:37:34Z</time>
      </trkpt>
      <trkpt lat="60.0183857" lon="17.6502716">
        <ele>27.5349</ele>
        <time>2014-07-12T11:37:35Z</time>
      </trkpt>
      <trkpt lat="60.0183801" lon="17.6501007">
        <ele>27.5349</ele>
        <time>2014-07-12T11:37:36Z</time>
      </trkpt>
      <trkpt lat="60.0183757" lon="17.6499287">
        <ele>28.0155</ele>
        <time>2014-07-12T11:37:37Z</time>
      </trkpt>
      <trkpt lat="60.0183711" lon="17.6497563">
        <ele>28.0155</ele>
        <time>2014-07-12T11:37:38Z</time>
      </trkpt>
      <trkpt lat="60.0183673" lon="17.649583">
        <ele>28.0155</ele>
        <time>2014-07-12T11:37:39Z</time>
      </trkpt>
      <trkpt lat="60.0183642" lon="17.6494081">
        <ele>28.0155</ele>
        <time>2014-07-12T11:37:40Z</time>
      </trkpt>
      <trkpt lat="60.0183614" lon="17.649232">
        <ele>28.0155</ele>
        <time>2014-07-12T11:37:41Z</time>
      </trkpt>
      <trkpt lat="60.0183591" lon="17.6490546">
        <ele>28.0155</ele>
        <time>2014-07-12T11:37:42Z</time>
      </trkpt>
      <trkpt lat="60.0183562" lon="17.6488761">
        <ele>28.0155</ele>
        <time>2014-07-12T11:37:43Z</time>
      </trkpt>
      <trkpt lat="60.0183546" lon="17.6486963">
        <ele>28.0155</ele>
        <time>2014-07-12T11:37:44Z</time>
      </trkpt>
      <trkpt lat="60.0183552" lon="17.6485154">
        <ele>28.0155</ele>
        <time>2014-07-12T11:37:45Z</time>
      </trkpt>
      <trkpt lat="60.0183561" lon="17.6483342">
        <ele>28.0155</ele>
        <time>2014-07-12T11:37:46Z</time>
      </trkpt>
      <trkpt lat="60.0183557" lon="17.6481534">
        <ele>28.0155</ele>
        <time>2014-07-12T11:37:47Z</time>
      </trkpt>
      <trkpt lat="60.0183539" lon="17.6479747">
        <ele>28.0155</ele>
        <time>2014-07-12T11:37:48Z</time>
      </trkpt>
      <trkpt lat="60.0183518" lon="17.6477977">
        <ele>28.0155</ele>
        <time>2014-07-12T11:37:49Z</time>
      </trkpt>
      <trkpt lat="60.01835" lon="17.6476215">
        <ele>28.0155</ele>
        <time>2014-07-12T11:37:50Z</time>
      </trkpt>
      <trkpt lat="60.0183497" lon="17.6474459">
        <ele>28.0155</ele>
        <time>2014-07-12T11:37:51Z</time>
      </trkpt>
      <trkpt lat="60.0183499" lon="17.6472699">
        <ele>28.0155</ele>
        <time>2014-07-12T11:37:52Z</time>
      </trkpt>
      <trkpt lat="60.0183498" lon="17.6470952">
        <ele>28.0155</ele>
        <time>2014-07-12T11:37:53Z</time>
      </trkpt>
      <trkpt lat="60.0183483" lon="17.6469228">
        <ele>28.4962</ele>
        <time>2014-07-12T11:37:54Z</time>
      </trkpt>
      <trkpt lat="60.0183469" lon="17.6467502">
        <ele>28.4962</ele>
        <time>2014-07-12T11:37:55Z</time>
      </trkpt>
      <trkpt lat="60.0183462" lon="17.6465761">
        <ele>28.4962</ele>
        <time>2014-07-12T11:37:56Z</time>
      </trkpt>
      <trkpt lat="60.0183459" lon="17.6464015">
        <ele>28.4962</ele>
        <time>2014-07-12T11:37:57Z</time>
      </trkpt>
      <trkpt lat="60.0183457" lon="17.6462258">
        <ele>28.4962</ele>
        <time>2014-07-12T11:37:58Z</time>
      </trkpt>
      <trkpt lat="60.0183447" lon="17.6460493">
        <ele>28.4962</ele>
        <time>2014-07-12T11:37:59Z</time>
      </trkpt>
      <trkpt lat="60.0183437" lon="17.6458727">
        <ele>28.4962</ele>
        <time>2014-07-12T11:38:00Z</time>
      </trkpt>
      <trkpt lat="60.0183415" lon="17.6456966">
        <ele>28.4962</ele>
        <time>2014-07-12T11:38:01Z</time>
      </trkpt>
      <trkpt lat="60.0183385" lon="17.6455231">
        <ele>28.4962</ele>
        <time>2014-07-12T11:38:02Z</time>
      </trkpt>
      <trkpt lat="60.0183359" lon="17.645351">
        <ele>28.4962</ele>
        <time>2014-07-12T11:38:03Z</time>
      </trkpt>
      <trkpt lat="60.0183352" lon="17.6451801">
        <ele>28.4962</ele>
        <time>2014-07-12T11:38:04Z</time>
      </trkpt>
      <trkpt lat="60.0183363" lon="17.6450098">
        <ele>28.9769</ele>
        <time>2014-07-12T11:38:05Z</time>
      </trkpt>
      <trkpt lat="60.0183369" lon="17.6448404">
        <ele>28.9769</ele>
        <time>2014-07-12T11:38:06Z</time>
      </trkpt>
      <trkpt lat="60.0183369" lon="17.6446724">
        <ele>28.9769</ele>
        <time>2014-07-12T11:38:07Z</time>
      </trkpt>
      <trkpt lat="60.0183368" lon="17.6445051">
        <ele>28.9769</ele>
        <time>2014-07-12T11:38:08Z</time>
      </trkpt>
      <trkpt lat="60.0183376" lon="17.6443377">
        <ele>29.4575</ele>
        <time>2014-07-12T11:38:09Z</time>
      </trkpt>
      <trkpt lat="60.0183401" lon="17.6441689">
        <ele>29.4575</ele>
        <time>2014-07-12T11:38:10Z</time>
      </trkpt>
      <trkpt lat="60.0183426" lon="17.6439997">
        <ele>29.4575</ele>
        <time>2014-07-12T11:38:11Z</time>
      </trkpt>
      <trkpt lat="60.0183443" lon="17.6438331">
        <ele>29.9381</ele>
        <time>2014-07-12T11:38:12Z</time>
      </trkpt>
      <trkpt lat="60.0183463" lon="17.6436692">
        <ele>29.9381</ele>
        <time>2014-07-12T11:38:13Z</time>
      </trkpt>
      <trkpt lat="60.0183492" lon="17.6435069">
        <ele>29.9381</ele>
        <time>2014-07-12T11:38:14Z</time>
      </trkpt>
      <trkpt lat="60.0183515" lon="17.6433456">
        <ele>29.9381</ele>
        <time>2014-07-12T11:38:15Z</time>
      </trkpt>
      <trkpt lat="60.0183525" lon="17.6431842">
        <ele>29.9381</ele>
        <time>2014-07-12T11:38:16Z</time>
      </trkpt>
      <trkpt lat="60.0183513" lon="17.6430231">
        <ele>30.4188</ele>
        <time>2014-07-12T11:38:17Z</time>
      </trkpt>
      <trkpt lat="60.0183478" lon="17.642861">
        <ele>30.4188</ele>
        <time>2014-07-12T11:38:18Z</time>
      </trkpt>
      <trkpt lat="60.0183421" lon="17.6426978">
        <ele>29.9381</ele>
        <time>2014-07-12T11:38:19Z</time>
      </trkpt>
      <trkpt lat="60.018335" lon="17.6425331">
        <ele>29.9381</ele>
        <time>2014-07-12T11:38:20Z</time>
      </trkpt>
      <trkpt lat="60.0183281" lon="17.6423677">
        <ele>29.9381</ele>
        <time>2014-07-12T11:38:21Z</time>
      </trkpt>
      <trkpt lat="60.0183183" lon="17.6422015">
        <ele>29.4575</ele>
        <time>2014-07-12T11:38:22Z</time>
      </trkpt>
      <trkpt lat="60.0183036" lon="17.6420343">
        <ele>29.4575</ele>
        <time>2014-07-12T11:38:23Z</time>
      </trkpt>
      <trkpt lat="60.0182858" lon="17.6418663">
        <ele>29.4575</ele>
        <time>2014-07-12T11:38:24Z</time>
      </trkpt>
      <trkpt lat="60.018266" lon="17.6416963">
        <ele>28.9769</ele>
        <time>2014-07-12T11:38:25Z</time>
      </trkpt>
      <trkpt lat="60.0182458" lon="17.6415219">
        <ele>28.9769</ele>
        <time>2014-07-12T11:38:26Z</time>
      </trkpt>
      <trkpt lat="60.018227" lon="17.6413448">
        <ele>28.9769</ele>
        <time>2014-07-12T11:38:27Z</time>
      </trkpt>
      <trkpt lat="60.0182111" lon="17.6411658">
        <ele>28.9769</ele>
        <time>2014-07-12T11:38:28Z</time>
      </trkpt>
      <trkpt lat="60.0181974" lon="17.6409856">
        <ele>28.9769</ele>
        <time>2014-07-12T11:38:29Z</time>
      </trkpt>
      <trkpt lat="60.0181841" lon="17.6408053">
        <ele>28.4962</ele>
        <time>2014-07-12T11:38:30Z</time>
      </trkpt>
      <trkpt lat="60.0181708" lon="17.6406256">
        <ele>28.4962</ele>
        <time>2014-07-12T11:38:31Z</time>
      </trkpt>
      <trkpt lat="60.018156" lon="17.6404477">
        <ele>28.4962</ele>
        <time>2014-07-12T11:38:32Z</time>
      </trkpt>
      <trkpt lat="60.0181401" lon="17.6402725">
        <ele>28.4962</ele>
        <time>2014-07-12T11:38:33Z</time>
      </trkpt>
      <trkpt lat="60.018124" lon="17.6400993">
        <ele>28.4962</ele>
        <time>2014-07-12T11:38:34Z</time>
      </trkpt>
      <trkpt lat="60.0181075" lon="17.6399276">
        <ele>28.4962</ele>
        <time>2014-07-12T11:38:35Z</time>
      </trkpt>
      <trkpt lat="60.0180909" lon="17.6397561">
        <ele>28.4962</ele>
        <time>2014-07-12T11:38:36Z</time>
      </trkpt>
      <trkpt lat="60.0180742" lon="17.6395847">
        <ele>28.4962</ele>
        <time>2014-07-12T11:38:37Z</time>
      </trkpt>
      <trkpt lat="60.0180576" lon="17.6394131">
        <ele>28.4962</ele>
        <time>2014-07-12T11:38:38Z</time>
      </trkpt>
      <trkpt lat="60.0180415" lon="17.6392406">
        <ele>28.4962</ele>
        <time>2014-07-12T11:38:39Z</time>
      </trkpt>
      <trkpt lat="60.0180259" lon="17.6390682">
        <ele>28.4962</ele>
        <time>2014-07-12T11:38:40Z</time>
      </trkpt>
      <trkpt lat="60.0180097" lon="17.6388964">
        <ele>28.4962</ele>
        <time>2014-07-12T11:38:41Z</time>
      </trkpt>
      <trkpt lat="60.0179925" lon="17.6387251">
        <ele>28.4962</ele>
        <time>2014-07-12T11:38:42Z</time>
      </trkpt>
      <trkpt lat="60.0179733" lon="17.6385553">
        <ele>28.9769</ele>
        <time>2014-07-12T11:38:43Z</time>
      </trkpt>
      <trkpt lat="60.0179509" lon="17.6383874">
        <ele>28.9769</ele>
        <time>2014-07-12T11:38:44Z</time>
      </trkpt>
      <trkpt lat="60.0179258" lon="17.6382191">
        <ele>28.9769</ele>
        <time>2014-07-12T11:38:45Z</time>
      </trkpt>
      <trkpt lat="60.0178982" lon="17.6380507">
        <ele>28.9769</ele>
        <time>2014-07-12T11:38:46Z</time>
      </trkpt>
      <trkpt lat="60.0178666" lon="17.6378838">
        <ele>28.9769</ele>
        <time>2014-07-12T11:38:47Z</time>
      </trkpt>
      <trkpt lat="60.0178308" lon="17.6377185">
        <ele>28.9769</ele>
        <time>2014-07-12T11:38:48Z</time>
      </trkpt>
      <trkpt lat="60.017792" lon="17.637555">
        <ele>28.9769</ele>
        <time>2014-07-12T11:38:49Z</time>
      </trkpt>
      <trkpt lat="60.0177511" lon="17.6373942">
        <ele>29.4575</ele>
        <time>2014-07-12T11:38:50Z</time>
      </trkpt>
      <trkpt lat="60.0177077" lon="17.6372348">
        <ele>29.4575</ele>
        <time>2014-07-12T11:38:51Z</time>
      </trkpt>
      <trkpt lat="60.0176633" lon="17.6370778">
        <ele>29.4575</ele>
        <time>2014-07-12T11:38:52Z</time>
      </trkpt>
      <trkpt lat="60.0176177" lon="17.6369225">
        <ele>29.4575</ele>
        <time>2014-07-12T11:38:53Z</time>
      </trkpt>
      <trkpt lat="60.0175718" lon="17.6367687">
        <ele>29.4575</ele>
        <time>2014-07-12T11:38:54Z</time>
      </trkpt>
      <trkpt lat="60.0175264" lon="17.6366158">
        <ele>29.4575</ele>
        <time>2014-07-12T11:38:55Z</time>
      </trkpt>
      <trkpt lat="60.0174816" lon="17.6364637">
        <ele>29.4575</ele>
        <time>2014-07-12T11:38:56Z</time>
      </trkpt>
      <trkpt lat="60.0174366" lon="17.6363121">
        <ele>29.4575</ele>
        <time>2014-07-12T11:38:57Z</time>
      </trkpt>
      <trkpt lat="60.0173917" lon="17.63616">
        <ele>29.9381</ele>
        <time>2014-07-12T11:38:58Z</time>
      </trkpt>
      <trkpt lat="60.0173477" lon="17.6360067">
        <ele>29.9381</ele>
        <time>2014-07-12T11:38:59Z</time>
      </trkpt>
      <trkpt lat="60.0173041" lon="17.6358531">
        <ele>29.9381</ele>
        <time>2014-07-12T11:39:00Z</time>
      </trkpt>
      <trkpt lat="60.0172605" lon="17.6357001">
        <ele>29.9381</ele>
        <time>2014-07-12T11:39:01Z</time>
      </trkpt>
      <trkpt lat="60.0172165" lon="17.6355481">
        <ele>29.9381</ele>
        <time>2014-07-12T11:39:02Z</time>
      </trkpt>
      <trkpt lat="60.017173" lon="17.6353962">
        <ele>30.4188</ele>
        <time>2014-07-12T11:39:03Z</time>
      </trkpt>
      <trkpt lat="60.0171299" lon="17.6352441">
        <ele>30.4188</ele>
        <time>2014-07-12T11:39:04Z</time>
      </trkpt>
      <trkpt lat="60.0170865" lon="17.6350924">
        <ele>30.4188</ele>
        <time>2014-07-12T11:39:05Z</time>
      </trkpt>
      <trkpt lat="60.0170426" lon="17.6349411">
        <ele>30.4188</ele>
        <time>2014-07-12T11:39:06Z</time>
      </trkpt>
      <trkpt lat="60.0169984" lon="17.6347894">
        <ele>30.4188</ele>
        <time>2014-07-12T11:39:07Z</time>
      </trkpt>
      <trkpt lat="60.0169549" lon="17.6346358">
        <ele>30.4188</ele>
        <time>2014-07-12T11:39:08Z</time>
      </trkpt>
      <trkpt lat="60.0169114" lon="17.6344804">
        <ele>30.4188</ele>
        <time>2014-07-12T11:39:09Z</time>
      </trkpt>
      <trkpt lat="60.0168673" lon="17.6343258">
        <ele>30.4188</ele>
        <time>2014-07-12T11:39:10Z</time>
      </trkpt>
      <trkpt lat="60.0168217" lon="17.6341724">
        <ele>30.4188</ele>
        <time>2014-07-12T11:39:11Z</time>
      </trkpt>
      <trkpt lat="60.016774" lon="17.6340206">
        <ele>30.4188</ele>
        <time>2014-07-12T11:39:12Z</time>
      </trkpt>
      <trkpt lat="60.0167232" lon="17.6338717">
        <ele>30.4188</ele>
        <time>2014-07-12T11:39:13Z</time>
      </trkpt>
      <trkpt lat="60.016669" lon="17.633728">
        <ele>30.4188</ele>
        <time>2014-07-12T11:39:14Z</time>
      </trkpt>
      <trkpt lat="60.0166116" lon="17.6335908">
        <ele>30.8995</ele>
        <time>2014-07-12T11:39:15Z</time>
      </trkpt>
      <trkpt lat="60.0165519" lon="17.6334586">
        <ele>30.8995</ele>
        <time>2014-07-12T11:39:16Z</time>
      </trkpt>
      <trkpt lat="60.0164908" lon="17.6333301">
        <ele>30.8995</ele>
        <time>2014-07-12T11:39:17Z</time>
      </trkpt>
      <trkpt lat="60.0164284" lon="17.6332048">
        <ele>31.3801</ele>
        <time>2014-07-12T11:39:18Z</time>
      </trkpt>
      <trkpt lat="60.0163647" lon="17.6330835">
        <ele>31.3801</ele>
        <time>2014-07-12T11:39:19Z</time>
      </trkpt>
      <trkpt lat="60.0163008" lon="17.6329644">
        <ele>31.3801</ele>
        <time>2014-07-12T11:39:20Z</time>
      </trkpt>
      <trkpt lat="60.0162376" lon="17.6328448">
        <ele>31.3801</ele>
        <time>2014-07-12T11:39:21Z</time>
      </trkpt>
      <trkpt lat="60.0161748" lon="17.6327256">
        <ele>31.3801</ele>
        <time>2014-07-12T11:39:22Z</time>
      </trkpt>
      <trkpt lat="60.0161112" lon="17.6326083">
        <ele>31.8607</ele>
        <time>2014-07-12T11:39:23Z</time>
      </trkpt>
      <trkpt lat="60.0160475" lon="17.6324914">
        <ele>31.8607</ele>
        <time>2014-07-12T11:39:24Z</time>
      </trkpt>
      <trkpt lat="60.0159845" lon="17.6323724">
        <ele>31.8607</ele>
        <time>2014-07-12T11:39:25Z</time>
      </trkpt>
      <trkpt lat="60.015922" lon="17.632252">
        <ele>31.8607</ele>
        <time>2014-07-12T11:39:26Z</time>
      </trkpt>
      <trkpt lat="60.0158603" lon="17.6321292">
        <ele>31.8607</ele>
        <time>2014-07-12T11:39:27Z</time>
      </trkpt>
      <trkpt lat="60.0158004" lon="17.632003">
        <ele>31.8607</ele>
        <time>2014-07-12T11:39:28Z</time>
      </trkpt>
      <trkpt lat="60.015742" lon="17.631875">
        <ele>32.3416</ele>
        <time>2014-07-12T11:39:29Z</time>
      </trkpt>
      <trkpt lat="60.0156846" lon="17.6317458">
        <ele>32.3416</ele>
        <time>2014-07-12T11:39:30Z</time>
      </trkpt>
      <trkpt lat="60.0156275" lon="17.6316145">
        <ele>32.3416</ele>
        <time>2014-07-12T11:39:31Z</time>
      </trkpt>
      <trkpt lat="60.0155707" lon="17.6314814">
        <ele>32.3416</ele>
        <time>2014-07-12T11:39:32Z</time>
      </trkpt>
      <trkpt lat="60.0155142" lon="17.631348">
        <ele>32.3416</ele>
        <time>2014-07-12T11:39:33Z</time>
      </trkpt>
      <trkpt lat="60.0154584" lon="17.631213">
        <ele>32.3416</ele>
        <time>2014-07-12T11:39:34Z</time>
      </trkpt>
      <trkpt lat="60.0154025" lon="17.6310765">
        <ele>32.3416</ele>
        <time>2014-07-12T11:39:35Z</time>
      </trkpt>
      <trkpt lat="60.0153454" lon="17.6309415">
        <ele>32.3416</ele>
        <time>2014-07-12T11:39:36Z</time>
      </trkpt>
      <trkpt lat="60.0152868" lon="17.630808">
        <ele>32.3416</ele>
        <time>2014-07-12T11:39:37Z</time>
      </trkpt>
      <trkpt lat="60.0152269" lon="17.6306759">
        <ele>32.3416</ele>
        <time>2014-07-12T11:39:38Z</time>
      </trkpt>
      <trkpt lat="60.0151647" lon="17.6305475">
        <ele>32.3416</ele>
        <time>2014-07-12T11:39:39Z</time>
      </trkpt>
      <trkpt lat="60.0151003" lon="17.6304234">
        <ele>32.3416</ele>
        <time>2014-07-12T11:39:40Z</time>
      </trkpt>
      <trkpt lat="60.0150349" lon="17.6303014">
        <ele>32.3416</ele>
        <time>2014-07-12T11:39:41Z</time>
      </trkpt>
      <trkpt lat="60.0149683" lon="17.6301825">
        <ele>32.3416</ele>
        <time>2014-07-12T11:39:42Z</time>
      </trkpt>
      <trkpt lat="60.0149003" lon="17.6300667">
        <ele>32.3416</ele>
        <time>2014-07-12T11:39:43Z</time>
      </trkpt>
      <trkpt lat="60.014831" lon="17.6299541">
        <ele>32.3416</ele>
        <time>2014-07-12T11:39:44Z</time>
      </trkpt>
      <trkpt lat="60.0147615" lon="17.6298449">
        <ele>32.8223</ele>
        <time>2014-07-12T11:39:45Z</time>
      </trkpt>
      <trkpt lat="60.0146928" lon="17.6297403">
        <ele>32.8223</ele>
        <time>2014-07-12T11:39:46Z</time>
      </trkpt>
      <trkpt lat="60.0146249" lon="17.6296401">
        <ele>32.8223</ele>
        <time>2014-07-12T11:39:47Z</time>
      </trkpt>
      <trkpt lat="60.0145574" lon="17.6295412">
        <ele>32.8223</ele>
        <time>2014-07-12T11:39:48Z</time>
      </trkpt>
      <trkpt lat="60.0144902" lon="17.6294423">
        <ele>32.8223</ele>
        <time>2014-07-12T11:39:49Z</time>
      </trkpt>
      <trkpt lat="60.0144229" lon="17.6293443">
        <ele>32.8223</ele>
        <time>2014-07-12T11:39:50Z</time>
      </trkpt>
      <trkpt lat="60.0143544" lon="17.629249">
        <ele>32.8223</ele>
        <time>2014-07-12T11:39:51Z</time>
      </trkpt>
      <trkpt lat="60.0142846" lon="17.6291561">
        <ele>32.8223</ele>
        <time>2014-07-12T11:39:52Z</time>
      </trkpt>
      <trkpt lat="60.0142146" lon="17.6290627">
        <ele>32.8223</ele>
        <time>2014-07-12T11:39:53Z</time>
      </trkpt>
      <trkpt lat="60.0141445" lon="17.6289685">
        <ele>32.8223</ele>
        <time>2014-07-12T11:39:54Z</time>
      </trkpt>
      <trkpt lat="60.0140742" lon="17.6288743">
        <ele>32.8223</ele>
        <time>2014-07-12T11:39:55Z</time>
      </trkpt>
      <trkpt lat="60.0140039" lon="17.62878">
        <ele>32.8223</ele>
        <time>2014-07-12T11:39:56Z</time>
      </trkpt>
      <trkpt lat="60.0139312" lon="17.628687">
        <ele>32.8223</ele>
        <time>2014-07-12T11:39:57Z</time>
      </trkpt>
      <trkpt lat="60.0138608" lon="17.6285918">
        <ele>32.8223</ele>
        <time>2014-07-12T11:39:58Z</time>
      </trkpt>
      <trkpt lat="60.0137923" lon="17.6284928">
        <ele>32.8223</ele>
        <time>2014-07-12T11:39:59Z</time>
      </trkpt>
      <trkpt lat="60.013725" lon="17.6283924">
        <ele>32.8223</ele>
        <time>2014-07-12T11:40:00Z</time>
      </trkpt>
      <trkpt lat="60.0136579" lon="17.628293">
        <ele>32.8223</ele>
        <time>2014-07-12T11:40:01Z</time>
      </trkpt>
      <trkpt lat="60.0135909" lon="17.628193">
        <ele>32.8223</ele>
        <time>2014-07-12T11:40:02Z</time>
      </trkpt>
      <trkpt lat="60.0135241" lon="17.6280915">
        <ele>32.8223</ele>
        <time>2014-07-12T11:40:03Z</time>
      </trkpt>
      <trkpt lat="60.0134578" lon="17.6279885">
        <ele>32.8223</ele>
        <time>2014-07-12T11:40:04Z</time>
      </trkpt>
      <trkpt lat="60.013392" lon="17.6278843">
        <ele>32.8223</ele>
        <time>2014-07-12T11:40:05Z</time>
      </trkpt>
      <trkpt lat="60.0133265" lon="17.6277786">
        <ele>32.8223</ele>
        <time>2014-07-12T11:40:06Z</time>
      </trkpt>
      <trkpt lat="60.0132613" lon="17.6276715">
        <ele>32.8223</ele>
        <time>2014-07-12T11:40:07Z</time>
      </trkpt>
      <trkpt lat="60.0131962" lon="17.6275626">
        <ele>32.8223</ele>
        <time>2014-07-12T11:40:08Z</time>
      </trkpt>
      <trkpt lat="60.0131315" lon="17.6274515">
        <ele>32.8223</ele>
        <time>2014-07-12T11:40:09Z</time>
      </trkpt>
      <trkpt lat="60.0130672" lon="17.6273378">
        <ele>33.3029</ele>
        <time>2014-07-12T11:40:10Z</time>
      </trkpt>
      <trkpt lat="60.0130035" lon="17.6272207">
        <ele>32.8223</ele>
        <time>2014-07-12T11:40:11Z</time>
      </trkpt>
      <trkpt lat="60.0129404" lon="17.6270996">
        <ele>32.8223</ele>
        <time>2014-07-12T11:40:12Z</time>
      </trkpt>
      <trkpt lat="60.0128776" lon="17.6269762">
        <ele>32.8223</ele>
        <time>2014-07-12T11:40:13Z</time>
      </trkpt>
      <trkpt lat="60.0128144" lon="17.6268514">
        <ele>32.8223</ele>
        <time>2014-07-12T11:40:14Z</time>
      </trkpt>
      <trkpt lat="60.0127514" lon="17.6267243">
        <ele>32.8223</ele>
        <time>2014-07-12T11:40:15Z</time>
      </trkpt>
      <trkpt lat="60.0126895" lon="17.6265945">
        <ele>32.8223</ele>
        <time>2014-07-12T11:40:16Z</time>
      </trkpt>
      <trkpt lat="60.0126283" lon="17.6264621">
        <ele>32.8223</ele>
        <time>2014-07-12T11:40:17Z</time>
      </trkpt>
      <trkpt lat="60.0125673" lon="17.626327">
        <ele>32.8223</ele>
        <time>2014-07-12T11:40:18Z</time>
      </trkpt>
      <trkpt lat="60.0125068" lon="17.6261893">
        <ele>32.8223</ele>
        <time>2014-07-12T11:40:19Z</time>
      </trkpt>
      <trkpt lat="60.0124477" lon="17.626048">
        <ele>32.8223</ele>
        <time>2014-07-12T11:40:20Z</time>
      </trkpt>
      <trkpt lat="60.0123896" lon="17.6259035">
        <ele>32.3416</ele>
        <time>2014-07-12T11:40:21Z</time>
      </trkpt>
      <trkpt lat="60.0123317" lon="17.6257568">
        <ele>32.8223</ele>
        <time>2014-07-12T11:40:22Z</time>
      </trkpt>
      <trkpt lat="60.0122768" lon="17.6256235">
        <ele>32.3416</ele>
        <time>2014-07-12T11:40:23Z</time>
      </trkpt>
      <trkpt lat="60.0122234" lon="17.6254945">
        <ele>32.8223</ele>
        <time>2014-07-12T11:40:24Z</time>
      </trkpt>
      <trkpt lat="60.0121694" lon="17.6253547">
        <ele>32.8223</ele>
        <time>2014-07-12T11:40:25Z</time>
      </trkpt>
      <trkpt lat="60.0121156" lon="17.6252138">
        <ele>32.8223</ele>
        <time>2014-07-12T11:40:26Z</time>
      </trkpt>
      <trkpt lat="60.0120616" lon="17.6250738">
        <ele>32.8223</ele>
        <time>2014-07-12T11:40:27Z</time>
      </trkpt>
      <trkpt lat="60.012007" lon="17.624933">
        <ele>32.8223</ele>
        <time>2014-07-12T11:40:28Z</time>
      </trkpt>
      <trkpt lat="60.0119526" lon="17.6247912">
        <ele>32.8223</ele>
        <time>2014-07-12T11:40:29Z</time>
      </trkpt>
      <trkpt lat="60.0118986" lon="17.6246473">
        <ele>32.8223</ele>
        <time>2014-07-12T11:40:30Z</time>
      </trkpt>
      <trkpt lat="60.0118433" lon="17.6245049">
        <ele>32.8223</ele>
        <time>2014-07-12T11:40:31Z</time>
      </trkpt>
      <trkpt lat="60.0117887" lon="17.6243638">
        <ele>32.3416</ele>
        <time>2014-07-12T11:40:32Z</time>
      </trkpt>
      <trkpt lat="60.0117319" lon="17.6242214">
        <ele>32.3416</ele>
        <time>2014-07-12T11:40:33Z</time>
      </trkpt>
      <trkpt lat="60.0116725" lon="17.6240816">
        <ele>32.3416</ele>
        <time>2014-07-12T11:40:34Z</time>
      </trkpt>
      <trkpt lat="60.0116115" lon="17.6239469">
        <ele>32.3416</ele>
        <time>2014-07-12T11:40:35Z</time>
      </trkpt>
      <trkpt lat="60.01155" lon="17.6238154">
        <ele>32.3416</ele>
        <time>2014-07-12T11:40:36Z</time>
      </trkpt>
      <trkpt lat="60.0114873" lon="17.623689">
        <ele>32.3416</ele>
        <time>2014-07-12T11:40:37Z</time>
      </trkpt>
      <trkpt lat="60.0114235" lon="17.6235667">
        <ele>32.8223</ele>
        <time>2014-07-12T11:40:38Z</time>
      </trkpt>
      <trkpt lat="60.0113583" lon="17.6234496">
        <ele>32.8223</ele>
        <time>2014-07-12T11:40:39Z</time>
      </trkpt>
      <trkpt lat="60.011292" lon="17.6233378">
        <ele>32.8223</ele>
        <time>2014-07-12T11:40:40Z</time>
      </trkpt>
      <trkpt lat="60.0112246" lon="17.6232308">
        <ele>32.8223</ele>
        <time>2014-07-12T11:40:41Z</time>
      </trkpt>
      <trkpt lat="60.0111563" lon="17.6231282">
        <ele>33.3029</ele>
        <time>2014-07-12T11:40:42Z</time>
      </trkpt>
      <trkpt lat="60.0110874" lon="17.6230305">
        <ele>33.3029</ele>
        <time>2014-07-12T11:40:43Z</time>
      </trkpt>
      <trkpt lat="60.0110184" lon="17.6229368">
        <ele>33.3029</ele>
        <time>2014-07-12T11:40:44Z</time>
      </trkpt>
      <trkpt lat="60.0109489" lon="17.6228482">
        <ele>33.3029</ele>
        <time>2014-07-12T11:40:45Z</time>
      </trkpt>
      <trkpt lat="60.0108795" lon="17.6227633">
        <ele>33.7834</ele>
        <time>2014-07-12T11:40:46Z</time>
      </trkpt>
      <trkpt lat="60.0108103" lon="17.6226819">
        <ele>33.7834</ele>
        <time>2014-07-12T11:40:47Z</time>
      </trkpt>
      <trkpt lat="60.0107409" lon="17.6226041">
        <ele>33.7834</ele>
        <time>2014-07-12T11:40:48Z</time>
      </trkpt>
      <trkpt lat="60.0106714" lon="17.6225294">
        <ele>34.2642</ele>
        <time>2014-07-12T11:40:49Z</time>
      </trkpt>
      <trkpt lat="60.0106024" lon="17.6224574">
        <ele>34.2642</ele>
        <time>2014-07-12T11:40:50Z</time>
      </trkpt>
      <trkpt lat="60.0105332" lon="17.6223872">
        <ele>34.2642</ele>
        <time>2014-07-12T11:40:51Z</time>
      </trkpt>
      <trkpt lat="60.0104636" lon="17.6223187">
        <ele>34.2642</ele>
        <time>2014-07-12T11:40:52Z</time>
      </trkpt>
      <trkpt lat="60.0103939" lon="17.6222493">
        <ele>34.7449</ele>
        <time>2014-07-12T11:40:53Z</time>
      </trkpt>
      <trkpt lat="60.0103249" lon="17.6221788">
        <ele>34.7449</ele>
        <time>2014-07-12T11:40:54Z</time>
      </trkpt>
      <trkpt lat="60.0102568" lon="17.6221067">
        <ele>34.7449</ele>
        <time>2014-07-12T11:40:55Z</time>
      </trkpt>
      <trkpt lat="60.0101892" lon="17.6220339">
        <ele>34.7449</ele>
        <time>2014-07-12T11:40:56Z</time>
      </trkpt>
      <trkpt lat="60.0101214" lon="17.6219629">
        <ele>34.7449</ele>
        <time>2014-07-12T11:40:57Z</time>
      </trkpt>
      <trkpt lat="60.0100543" lon="17.6218899">
        <ele>34.7449</ele>
        <time>2014-07-12T11:40:58Z</time>
      </trkpt>
      <trkpt lat="60.0099881" lon="17.6218133">
        <ele>35.2255</ele>
        <time>2014-07-12T11:40:59Z</time>
      </trkpt>
      <trkpt lat="60.0099222" lon="17.621735">
        <ele>35.2255</ele>
        <time>2014-07-12T11:41:00Z</time>
      </trkpt>
      <trkpt lat="60.0098566" lon="17.6216536">
        <ele>35.2255</ele>
        <time>2014-07-12T11:41:01Z</time>
      </trkpt>
      <trkpt lat="60.0097924" lon="17.6215698">
        <ele>35.2255</ele>
        <time>2014-07-12T11:41:02Z</time>
      </trkpt>
      <trkpt lat="60.0097285" lon="17.6214856">
        <ele>35.2255</ele>
        <time>2014-07-12T11:41:03Z</time>
      </trkpt>
      <trkpt lat="60.0096649" lon="17.6213999">
        <ele>35.2255</ele>
        <time>2014-07-12T11:41:04Z</time>
      </trkpt>
      <trkpt lat="60.0096023" lon="17.6213121">
        <ele>35.7061</ele>
        <time>2014-07-12T11:41:05Z</time>
      </trkpt>
      <trkpt lat="60.0095404" lon="17.6212219">
        <ele>35.7061</ele>
        <time>2014-07-12T11:41:06Z</time>
      </trkpt>
      <trkpt lat="60.0094791" lon="17.6211299">
        <ele>35.7061</ele>
        <time>2014-07-12T11:41:07Z</time>
      </trkpt>
      <trkpt lat="60.0094183" lon="17.6210361">
        <ele>35.7061</ele>
        <time>2014-07-12T11:41:08Z</time>
      </trkpt>
      <trkpt lat="60.0093586" lon="17.6209378">
        <ele>36.1868</ele>
        <time>2014-07-12T11:41:09Z</time>
      </trkpt>
      <trkpt lat="60.0092997" lon="17.6208366">
        <ele>36.1868</ele>
        <time>2014-07-12T11:41:10Z</time>
      </trkpt>
      <trkpt lat="60.009241" lon="17.6207337">
        <ele>36.1868</ele>
        <time>2014-07-12T11:41:11Z</time>
      </trkpt>
      <trkpt lat="60.0091831" lon="17.6206291">
        <ele>36.1868</ele>
        <time>2014-07-12T11:41:12Z</time>
      </trkpt>
      <trkpt lat="60.0091266" lon="17.6205223">
        <ele>36.1868</ele>
        <time>2014-07-12T11:41:13Z</time>
      </trkpt>
      <trkpt lat="60.0090712" lon="17.6204135">
        <ele>36.6675</ele>
        <time>2014-07-12T11:41:14Z</time>
      </trkpt>
      <trkpt lat="60.0090169" lon="17.6203035">
        <ele>36.6675</ele>
        <time>2014-07-12T11:41:15Z</time>
      </trkpt>
      <trkpt lat="60.0089639" lon="17.6201913">
        <ele>36.6675</ele>
        <time>2014-07-12T11:41:16Z</time>
      </trkpt>
      <trkpt lat="60.0089111" lon="17.6200776">
        <ele>36.6675</ele>
        <time>2014-07-12T11:41:17Z</time>
      </trkpt>
      <trkpt lat="60.0088585" lon="17.6199608">
        <ele>37.1481</ele>
        <time>2014-07-12T11:41:18Z</time>
      </trkpt>
      <trkpt lat="60.0088077" lon="17.6198392">
        <ele>37.1481</ele>
        <time>2014-07-12T11:41:19Z</time>
      </trkpt>
      <trkpt lat="60.0087578" lon="17.6197169">
        <ele>37.1481</ele>
        <time>2014-07-12T11:41:20Z</time>
      </trkpt>
      <trkpt lat="60.008708" lon="17.6195946">
        <ele>37.1481</ele>
        <time>2014-07-12T11:41:21Z</time>
      </trkpt>
      <trkpt lat="60.0086595" lon="17.6194697">
        <ele>37.1481</ele>
        <time>2014-07-12T11:41:22Z</time>
      </trkpt>
      <trkpt lat="60.0086125" lon="17.6193427">
        <ele>37.1481</ele>
        <time>2014-07-12T11:41:23Z</time>
      </trkpt>
      <trkpt lat="60.0085668" lon="17.6192148">
        <ele>37.1481</ele>
        <time>2014-07-12T11:41:24Z</time>
      </trkpt>
      <trkpt lat="60.0085221" lon="17.6190867">
        <ele>37.1481</ele>
        <time>2014-07-12T11:41:25Z</time>
      </trkpt>
      <trkpt lat="60.0084781" lon="17.6189574">
        <ele>37.1481</ele>
        <time>2014-07-12T11:41:26Z</time>
      </trkpt>
      <trkpt lat="60.008435" lon="17.6188267">
        <ele>37.1481</ele>
        <time>2014-07-12T11:41:27Z</time>
      </trkpt>
      <trkpt lat="60.0083932" lon="17.6186932">
        <ele>37.1481</ele>
        <time>2014-07-12T11:41:28Z</time>
      </trkpt>
      <trkpt lat="60.0083523" lon="17.6185562">
        <ele>37.1481</ele>
        <time>2014-07-12T11:41:29Z</time>
      </trkpt>
      <trkpt lat="60.0083124" lon="17.6184165">
        <ele>37.1481</ele>
        <time>2014-07-12T11:41:30Z</time>
      </trkpt>
      <trkpt lat="60.0082736" lon="17.6182729">
        <ele>37.1481</ele>
        <time>2014-07-12T11:41:31Z</time>
      </trkpt>
      <trkpt lat="60.0082357" lon="17.6181259">
        <ele>37.1481</ele>
        <time>2014-07-12T11:41:32Z</time>
      </trkpt>
      <trkpt lat="60.0081979" lon="17.6179763">
        <ele>37.1481</ele>
        <time>2014-07-12T11:41:33Z</time>
      </trkpt>
      <trkpt lat="60.0081616" lon="17.6178254">
        <ele>37.1481</ele>
        <time>2014-07-12T11:41:34Z</time>
      </trkpt>
      <trkpt lat="60.0081279" lon="17.6176723">
        <ele>36.6675</ele>
        <time>2014-07-12T11:41:35Z</time>
      </trkpt>
      <trkpt lat="60.0080962" lon="17.6175178">
        <ele>36.6675</ele>
        <time>2014-07-12T11:41:36Z</time>
      </trkpt>
      <trkpt lat="60.0080648" lon="17.6173624">
        <ele>36.6675</ele>
        <time>2014-07-12T11:41:37Z</time>
      </trkpt>
      <trkpt lat="60.008034" lon="17.6172071">
        <ele>36.6675</ele>
        <time>2014-07-12T11:41:38Z</time>
      </trkpt>
      <trkpt lat="60.0080048" lon="17.6170497">
        <ele>36.6675</ele>
        <time>2014-07-12T11:41:39Z</time>
      </trkpt>
      <trkpt lat="60.0079777" lon="17.6168895">
        <ele>36.6675</ele>
        <time>2014-07-12T11:41:40Z</time>
      </trkpt>
      <trkpt lat="60.0079506" lon="17.6167294">
        <ele>36.6675</ele>
        <time>2014-07-12T11:41:41Z</time>
      </trkpt>
      <trkpt lat="60.0079238" lon="17.6165683">
        <ele>36.6675</ele>
        <time>2014-07-12T11:41:42Z</time>
      </trkpt>
      <trkpt lat="60.0079001" lon="17.6164036">
        <ele>36.6675</ele>
        <time>2014-07-12T11:41:43Z</time>
      </trkpt>
      <trkpt lat="60.0078795" lon="17.6162363">
        <ele>36.1868</ele>
        <time>2014-07-12T11:41:44Z</time>
      </trkpt>
      <trkpt lat="60.0078623" lon="17.6160669">
        <ele>36.1868</ele>
        <time>2014-07-12T11:41:45Z</time>
      </trkpt>
      <trkpt lat="60.0078462" lon="17.615897">
        <ele>36.1868</ele>
        <time>2014-07-12T11:41:46Z</time>
      </trkpt>
      <trkpt lat="60.0078302" lon="17.6157276">
        <ele>36.1868</ele>
        <time>2014-07-12T11:41:47Z</time>
      </trkpt>
      <trkpt lat="60.0078161" lon="17.6155594">
        <ele>36.1868</ele>
        <time>2014-07-12T11:41:48Z</time>
      </trkpt>
      <trkpt lat="60.0078037" lon="17.6153934">
        <ele>36.1868</ele>
        <time>2014-07-12T11:41:49Z</time>
      </trkpt>
      <trkpt lat="60.0077932" lon="17.6152277">
        <ele>36.1868</ele>
        <time>2014-07-12T11:41:50Z</time>
      </trkpt>
      <trkpt lat="60.0077839" lon="17.615061">
        <ele>35.7061</ele>
        <time>2014-07-12T11:41:51Z</time>
      </trkpt>
      <trkpt lat="60.0077751" lon="17.614893">
        <ele>35.7061</ele>
        <time>2014-07-12T11:41:52Z</time>
      </trkpt>
      <trkpt lat="60.007768" lon="17.6147237">
        <ele>35.7061</ele>
        <time>2014-07-12T11:41:53Z</time>
      </trkpt>
      <trkpt lat="60.0077621" lon="17.6145534">
        <ele>35.7061</ele>
        <time>2014-07-12T11:41:54Z</time>
      </trkpt>
      <trkpt lat="60.007757" lon="17.6143828">
        <ele>35.7061</ele>
        <time>2014-07-12T11:41:55Z</time>
      </trkpt>
      <trkpt lat="60.007754" lon="17.6142115">
        <ele>35.2255</ele>
        <time>2014-07-12T11:41:56Z</time>
      </trkpt>
      <trkpt lat="60.0077531" lon="17.6140394">
        <ele>35.2255</ele>
        <time>2014-07-12T11:41:57Z</time>
      </trkpt>
      <trkpt lat="60.0077525" lon="17.6138663">
        <ele>35.2255</ele>
        <time>2014-07-12T11:41:58Z</time>
      </trkpt>
      <trkpt lat="60.0077519" lon="17.6136918">
        <ele>35.2255</ele>
        <time>2014-07-12T11:41:59Z</time>
      </trkpt>
      <trkpt lat="60.0077517" lon="17.6135161">
        <ele>35.2255</ele>
        <time>2014-07-12T11:42:00Z</time>
      </trkpt>
      <trkpt lat="60.0077523" lon="17.6133396">
        <ele>34.7449</ele>
        <time>2014-07-12T11:42:01Z</time>
      </trkpt>
      <trkpt lat="60.007754" lon="17.613162">
        <ele>34.7449</ele>
        <time>2014-07-12T11:42:02Z</time>
      </trkpt>
      <trkpt lat="60.0077556" lon="17.6129841">
        <ele>34.7449</ele>
        <time>2014-07-12T11:42:03Z</time>
      </trkpt>
      <trkpt lat="60.0077576" lon="17.6128065">
        <ele>34.7449</ele>
        <time>2014-07-12T11:42:04Z</time>
      </trkpt>
      <trkpt lat="60.0077607" lon="17.6126304">
        <ele>34.7449</ele>
        <time>2014-07-12T11:42:05Z</time>
      </trkpt>
      <trkpt lat="60.0077653" lon="17.6124553">
        <ele>34.7449</ele>
        <time>2014-07-12T11:42:06Z</time>
      </trkpt>
      <trkpt lat="60.0077702" lon="17.6122813">
        <ele>34.2642</ele>
        <time>2014-07-12T11:42:07Z</time>
      </trkpt>
      <trkpt lat="60.007775" lon="17.6121078">
        <ele>34.2642</ele>
        <time>2014-07-12T11:42:08Z</time>
      </trkpt>
      <trkpt lat="60.00778" lon="17.6119352">
        <ele>34.2642</ele>
        <time>2014-07-12T11:42:09Z</time>
      </trkpt>
      <trkpt lat="60.0077861" lon="17.6117634">
        <ele>34.2642</ele>
        <time>2014-07-12T11:42:10Z</time>
      </trkpt>
      <trkpt lat="60.0077929" lon="17.6115922">
        <ele>34.2642</ele>
        <time>2014-07-12T11:42:11Z</time>
      </trkpt>
      <trkpt lat="60.0078002" lon="17.6114209">
        <ele>33.7834</ele>
        <time>2014-07-12T11:42:12Z</time>
      </trkpt>
      <trkpt lat="60.007808" lon="17.6112494">
        <ele>33.7834</ele>
        <time>2014-07-12T11:42:13Z</time>
      </trkpt>
      <trkpt lat="60.0078162" lon="17.6110779">
        <ele>33.7834</ele>
        <time>2014-07-12T11:42:14Z</time>
      </trkpt>
      <trkpt lat="60.007825" lon="17.6109066">
        <ele>33.7834</ele>
        <time>2014-07-12T11:42:15Z</time>
      </trkpt>
      <trkpt lat="60.0078341" lon="17.6107344">
        <ele>33.7834</ele>
        <time>2014-07-12T11:42:16Z</time>
      </trkpt>
      <trkpt lat="60.0078432" lon="17.6105614">
        <ele>33.3029</ele>
        <time>2014-07-12T11:42:17Z</time>
      </trkpt>
      <trkpt lat="60.0078538" lon="17.6103877">
        <ele>33.3029</ele>
        <time>2014-07-12T11:42:18Z</time>
      </trkpt>
      <trkpt lat="60.0078654" lon="17.610213">
        <ele>33.3029</ele>
        <time>2014-07-12T11:42:19Z</time>
      </trkpt>
      <trkpt lat="60.0078777" lon="17.6100378">
        <ele>33.3029</ele>
        <time>2014-07-12T11:42:20Z</time>
      </trkpt>
      <trkpt lat="60.0078902" lon="17.6098618">
        <ele>33.3029</ele>
        <time>2014-07-12T11:42:21Z</time>
      </trkpt>
      <trkpt lat="60.0079027" lon="17.609685">
        <ele>33.3029</ele>
        <time>2014-07-12T11:42:22Z</time>
      </trkpt>
      <trkpt lat="60.0079155" lon="17.6095067">
        <ele>32.8223</ele>
        <time>2014-07-12T11:42:23Z</time>
      </trkpt>
      <trkpt lat="60.0079291" lon="17.6093271">
        <ele>32.8223</ele>
        <time>2014-07-12T11:42:24Z</time>
      </trkpt>
      <trkpt lat="60.0079441" lon="17.6091468">
        <ele>32.8223</ele>
        <time>2014-07-12T11:42:25Z</time>
      </trkpt>
      <trkpt lat="60.0079598" lon="17.6089665">
        <ele>32.8223</ele>
        <time>2014-07-12T11:42:26Z</time>
      </trkpt>
      <trkpt lat="60.0079757" lon="17.6087862">
        <ele>32.8223</ele>
        <time>2014-07-12T11:42:27Z</time>
      </trkpt>
      <trkpt lat="60.0079919" lon="17.608606">
        <ele>32.8223</ele>
        <time>2014-07-12T11:42:28Z</time>
      </trkpt>
      <trkpt lat="60.0080083" lon="17.6084283">
        <ele>32.8223</ele>
        <time>2014-07-12T11:42:29Z</time>
      </trkpt>
      <trkpt lat="60.0080209" lon="17.60826">
        <ele>32.8223</ele>
        <time>2014-07-12T11:42:30Z</time>
      </trkpt>
      <trkpt lat="60.0080354" lon="17.608099">
        <ele>32.8223</ele>
        <time>2014-07-12T11:42:31Z</time>
      </trkpt>
      <trkpt lat="60.0080544" lon="17.6079331">
        <ele>32.8223</ele>
        <time>2014-07-12T11:42:32Z</time>
      </trkpt>
      <trkpt lat="60.0080719" lon="17.6077695">
        <ele>32.8223</ele>
        <time>2014-07-12T11:42:33Z</time>
      </trkpt>
      <trkpt lat="60.0080903" lon="17.6076052">
        <ele>33.3029</ele>
        <time>2014-07-12T11:42:34Z</time>
      </trkpt>
      <trkpt lat="60.0081097" lon="17.6074409">
        <ele>33.3029</ele>
        <time>2014-07-12T11:42:35Z</time>
      </trkpt>
      <trkpt lat="60.0081286" lon="17.6072764">
        <ele>33.3029</ele>
        <time>2014-07-12T11:42:36Z</time>
      </trkpt>
      <trkpt lat="60.0081483" lon="17.6071108">
        <ele>33.3029</ele>
        <time>2014-07-12T11:42:37Z</time>
      </trkpt>
      <trkpt lat="60.0081689" lon="17.6069432">
        <ele>33.3029</ele>
        <time>2014-07-12T11:42:38Z</time>
      </trkpt>
      <trkpt lat="60.0081902" lon="17.606776">
        <ele>33.3029</ele>
        <time>2014-07-12T11:42:39Z</time>
      </trkpt>
      <trkpt lat="60.008211" lon="17.606608">
        <ele>33.3029</ele>
        <time>2014-07-12T11:42:40Z</time>
      </trkpt>
      <trkpt lat="60.0082316" lon="17.6064392">
        <ele>33.7834</ele>
        <time>2014-07-12T11:42:41Z</time>
      </trkpt>
      <trkpt lat="60.0082539" lon="17.6062712">
        <ele>33.7834</ele>
        <time>2014-07-12T11:42:42Z</time>
      </trkpt>
      <trkpt lat="60.0082772" lon="17.6061039">
        <ele>33.7834</ele>
        <time>2014-07-12T11:42:43Z</time>
      </trkpt>
      <trkpt lat="60.0083005" lon="17.6059368">
        <ele>33.7834</ele>
        <time>2014-07-12T11:42:44Z</time>
      </trkpt>
      <trkpt lat="60.0083243" lon="17.6057705">
        <ele>33.7834</ele>
        <time>2014-07-12T11:42:45Z</time>
      </trkpt>
      <trkpt lat="60.008348" lon="17.6056047">
        <ele>33.7834</ele>
        <time>2014-07-12T11:42:46Z</time>
      </trkpt>
      <trkpt lat="60.0083708" lon="17.6054393">
        <ele>33.7834</ele>
        <time>2014-07-12T11:42:47Z</time>
      </trkpt>
      <trkpt lat="60.0083941" lon="17.6052737">
        <ele>34.2642</ele>
        <time>2014-07-12T11:42:48Z</time>
      </trkpt>
      <trkpt lat="60.0084181" lon="17.605109">
        <ele>34.2642</ele>
        <time>2014-07-12T11:42:49Z</time>
      </trkpt>
      <trkpt lat="60.0084417" lon="17.6049447">
        <ele>34.2642</ele>
        <time>2014-07-12T11:42:50Z</time>
      </trkpt>
      <trkpt lat="60.0084652" lon="17.604781">
        <ele>34.2642</ele>
        <time>2014-07-12T11:42:51Z</time>
      </trkpt>
      <trkpt lat="60.0084889" lon="17.6046193">
        <ele>34.7449</ele>
        <time>2014-07-12T11:42:52Z</time>
      </trkpt>
      <trkpt lat="60.0085117" lon="17.6044591">
        <ele>34.7449</ele>
        <time>2014-07-12T11:42:53Z</time>
      </trkpt>
      <trkpt lat="60.0085341" lon="17.6043009">
        <ele>35.2255</ele>
        <time>2014-07-12T11:42:54Z</time>
      </trkpt>
      <trkpt lat="60.0085569" lon="17.6041455">
        <ele>35.2255</ele>
        <time>2014-07-12T11:42:55Z</time>
      </trkpt>
      <trkpt lat="60.00858" lon="17.603992">
        <ele>35.2255</ele>
        <time>2014-07-12T11:42:56Z</time>
      </trkpt>
      <trkpt lat="60.008603" lon="17.6038393">
        <ele>35.7061</ele>
        <time>2014-07-12T11:42:57Z</time>
      </trkpt>
      <trkpt lat="60.0086253" lon="17.6036864">
        <ele>35.7061</ele>
        <time>2014-07-12T11:42:58Z</time>
      </trkpt>
      <trkpt lat="60.0086476" lon="17.6035336">
        <ele>36.1868</ele>
        <time>2014-07-12T11:42:59Z</time>
      </trkpt>
      <trkpt lat="60.00867" lon="17.6033808">
        <ele>36.1868</ele>
        <time>2014-07-12T11:43:00Z</time>
      </trkpt>
      <trkpt lat="60.0086932" lon="17.603229">
        <ele>36.1868</ele>
        <time>2014-07-12T11:43:01Z</time>
      </trkpt>
      <trkpt lat="60.0087174" lon="17.6030757">
        <ele>36.6675</ele>
        <time>2014-07-12T11:43:02Z</time>
      </trkpt>
      <trkpt lat="60.0087412" lon="17.6029228">
        <ele>37.1481</ele>
        <time>2014-07-12T11:43:03Z</time>
      </trkpt>
      <trkpt lat="60.0087652" lon="17.6027681">
        <ele>37.1481</ele>
        <time>2014-07-12T11:43:04Z</time>
      </trkpt>
      <trkpt lat="60.0087899" lon="17.602613">
        <ele>37.1481</ele>
        <time>2014-07-12T11:43:05Z</time>
      </trkpt>
      <trkpt lat="60.0088148" lon="17.6024572">
        <ele>37.1481</ele>
        <time>2014-07-12T11:43:06Z</time>
      </trkpt>
      <trkpt lat="60.0088392" lon="17.6023008">
        <ele>37.6287</ele>
        <time>2014-07-12T11:43:07Z</time>
      </trkpt>
      <trkpt lat="60.0088627" lon="17.6021419">
        <ele>37.6287</ele>
        <time>2014-07-12T11:43:08Z</time>
      </trkpt>
      <trkpt lat="60.0088864" lon="17.6019838">
        <ele>37.6287</ele>
        <time>2014-07-12T11:43:09Z</time>
      </trkpt>
      <trkpt lat="60.0089107" lon="17.6018284">
        <ele>37.6287</ele>
        <time>2014-07-12T11:43:10Z</time>
      </trkpt>
      <trkpt lat="60.0089351" lon="17.601674">
        <ele>37.6287</ele>
        <time>2014-07-12T11:43:11Z</time>
      </trkpt>
      <trkpt lat="60.0089588" lon="17.6015225">
        <ele>38.1094</ele>
        <time>2014-07-12T11:43:12Z</time>
      </trkpt>
      <trkpt lat="60.0089822" lon="17.6013739">
        <ele>38.1094</ele>
        <time>2014-07-12T11:43:13Z</time>
      </trkpt>
      <trkpt lat="60.0090061" lon="17.6012281">
        <ele>38.1094</ele>
        <time>2014-07-12T11:43:14Z</time>
      </trkpt>
      <trkpt lat="60.0090295" lon="17.6010835">
        <ele>38.1094</ele>
        <time>2014-07-12T11:43:15Z</time>
      </trkpt>
      <trkpt lat="60.0090526" lon="17.6009389">
        <ele>38.1094</ele>
        <time>2014-07-12T11:43:16Z</time>
      </trkpt>
      <trkpt lat="60.0090755" lon="17.6007937">
        <ele>38.1094</ele>
        <time>2014-07-12T11:43:17Z</time>
      </trkpt>
      <trkpt lat="60.0090987" lon="17.6006482">
        <ele>38.1094</ele>
        <time>2014-07-12T11:43:18Z</time>
      </trkpt>
      <trkpt lat="60.0091222" lon="17.6005022">
        <ele>38.1094</ele>
        <time>2014-07-12T11:43:19Z</time>
      </trkpt>
      <trkpt lat="60.0091463" lon="17.6003546">
        <ele>38.1094</ele>
        <time>2014-07-12T11:43:20Z</time>
      </trkpt>
      <trkpt lat="60.0091697" lon="17.6002069">
        <ele>38.1094</ele>
        <time>2014-07-12T11:43:21Z</time>
      </trkpt>
      <trkpt lat="60.0091928" lon="17.6000599">
        <ele>38.1094</ele>
        <time>2014-07-12T11:43:22Z</time>
      </trkpt>
      <trkpt lat="60.0092159" lon="17.5999136">
        <ele>38.1094</ele>
        <time>2014-07-12T11:43:23Z</time>
      </trkpt>
      <trkpt lat="60.0092407" lon="17.5997645">
        <ele>38.5901</ele>
        <time>2014-07-12T11:43:24Z</time>
      </trkpt>
      <trkpt lat="60.0092667" lon="17.5996139">
        <ele>38.5901</ele>
        <time>2014-07-12T11:43:25Z</time>
      </trkpt>
      <trkpt lat="60.0092928" lon="17.5994599">
        <ele>38.5901</ele>
        <time>2014-07-12T11:43:26Z</time>
      </trkpt>
      <trkpt lat="60.0093184" lon="17.5993041">
        <ele>38.5901</ele>
        <time>2014-07-12T11:43:27Z</time>
      </trkpt>
      <trkpt lat="60.0093443" lon="17.5991465">
        <ele>38.5901</ele>
        <time>2014-07-12T11:43:28Z</time>
      </trkpt>
      <trkpt lat="60.0093705" lon="17.598986">
        <ele>38.5901</ele>
        <time>2014-07-12T11:43:29Z</time>
      </trkpt>
      <trkpt lat="60.0093928" lon="17.5988296">
        <ele>38.5901</ele>
        <time>2014-07-12T11:43:30Z</time>
      </trkpt>
      <trkpt lat="60.0094163" lon="17.598674">
        <ele>38.5901</ele>
        <time>2014-07-12T11:43:31Z</time>
      </trkpt>
      <trkpt lat="60.0094427" lon="17.5985141">
        <ele>38.5901</ele>
        <time>2014-07-12T11:43:32Z</time>
      </trkpt>
      <trkpt lat="60.0094694" lon="17.5983556">
        <ele>39.0707</ele>
        <time>2014-07-12T11:43:33Z</time>
      </trkpt>
      <trkpt lat="60.0094956" lon="17.5981976">
        <ele>39.0707</ele>
        <time>2014-07-12T11:43:34Z</time>
      </trkpt>
      <trkpt lat="60.0095229" lon="17.5980387">
        <ele>39.0707</ele>
        <time>2014-07-12T11:43:35Z</time>
      </trkpt>
      <trkpt lat="60.0095508" lon="17.597879">
        <ele>39.0707</ele>
        <time>2014-07-12T11:43:36Z</time>
      </trkpt>
      <trkpt lat="60.0095789" lon="17.5977175">
        <ele>39.0707</ele>
        <time>2014-07-12T11:43:37Z</time>
      </trkpt>
      <trkpt lat="60.0096072" lon="17.5975548">
        <ele>39.0707</ele>
        <time>2014-07-12T11:43:38Z</time>
      </trkpt>
      <trkpt lat="60.0096359" lon="17.5973916">
        <ele>39.0707</ele>
        <time>2014-07-12T11:43:39Z</time>
      </trkpt>
      <trkpt lat="60.0096647" lon="17.5972256">
        <ele>39.0707</ele>
        <time>2014-07-12T11:43:40Z</time>
      </trkpt>
      <trkpt lat="60.0096929" lon="17.5970575">
        <ele>39.0707</ele>
        <time>2014-07-12T11:43:41Z</time>
      </trkpt>
      <trkpt lat="60.0097218" lon="17.5968881">
        <ele>39.0707</ele>
        <time>2014-07-12T11:43:42Z</time>
      </trkpt>
      <trkpt lat="60.0097515" lon="17.596717">
        <ele>39.0707</ele>
        <time>2014-07-12T11:43:43Z</time>
      </trkpt>
      <trkpt lat="60.009782" lon="17.5965437">
        <ele>39.0707</ele>
        <time>2014-07-12T11:43:44Z</time>
      </trkpt>
      <trkpt lat="60.0098126" lon="17.5963691">
        <ele>39.0707</ele>
        <time>2014-07-12T11:43:45Z</time>
      </trkpt>
      <trkpt lat="60.0098432" lon="17.5961941">
        <ele>39.0707</ele>
        <time>2014-07-12T11:43:46Z</time>
      </trkpt>
      <trkpt lat="60.0098743" lon="17.5960189">
        <ele>38.5901</ele>
        <time>2014-07-12T11:43:47Z</time>
      </trkpt>
      <trkpt lat="60.0099053" lon="17.5958438">
        <ele>38.5901</ele>
        <time>2014-07-12T11:43:48Z</time>
      </trkpt>
      <trkpt lat="60.0099357" lon="17.5956708">
        <ele>38.5901</ele>
        <time>2014-07-12T11:43:49Z</time>
      </trkpt>
      <trkpt lat="60.0099664" lon="17.5955009">
        <ele>38.5901</ele>
        <time>2014-07-12T11:43:50Z</time>
      </trkpt>
      <trkpt lat="60.0099971" lon="17.5953324">
        <ele>38.5901</ele>
        <time>2014-07-12T11:43:51Z</time>
      </trkpt>
      <trkpt lat="60.0100275" lon="17.5951636">
        <ele>38.5901</ele>
        <time>2014-07-12T11:43:52Z</time>
      </trkpt>
      <trkpt lat="60.0100581" lon="17.5949952">
        <ele>38.5901</ele>
        <time>2014-07-12T11:43:53Z</time>
      </trkpt>
      <trkpt lat="60.0100885" lon="17.5948274">
        <ele>38.5901</ele>
        <time>2014-07-12T11:43:54Z</time>
      </trkpt>
      <trkpt lat="60.0101191" lon="17.5946585">
        <ele>38.5901</ele>
        <time>2014-07-12T11:43:55Z</time>
      </trkpt>
      <trkpt lat="60.0101498" lon="17.5944897">
        <ele>38.1094</ele>
        <time>2014-07-12T11:43:56Z</time>
      </trkpt>
      <trkpt lat="60.010181" lon="17.5943215">
        <ele>38.1094</ele>
        <time>2014-07-12T11:43:57Z</time>
      </trkpt>
      <trkpt lat="60.0102128" lon="17.5941534">
        <ele>38.1094</ele>
        <time>2014-07-12T11:43:58Z</time>
      </trkpt>
      <trkpt lat="60.0102447" lon="17.5939844">
        <ele>38.1094</ele>
        <time>2014-07-12T11:43:59Z</time>
      </trkpt>
      <trkpt lat="60.0102761" lon="17.5938143">
        <ele>38.1094</ele>
        <time>2014-07-12T11:44:00Z</time>
      </trkpt>
      <trkpt lat="60.0103076" lon="17.5936438">
        <ele>38.1094</ele>
        <time>2014-07-12T11:44:01Z</time>
      </trkpt>
      <trkpt lat="60.0103404" lon="17.5934737">
        <ele>38.1094</ele>
        <time>2014-07-12T11:44:02Z</time>
      </trkpt>
      <trkpt lat="60.0103736" lon="17.593303">
        <ele>37.6287</ele>
        <time>2014-07-12T11:44:03Z</time>
      </trkpt>
      <trkpt lat="60.0104072" lon="17.5931306">
        <ele>37.6287</ele>
        <time>2014-07-12T11:44:04Z</time>
      </trkpt>
      <trkpt lat="60.0104414" lon="17.5929568">
        <ele>37.6287</ele>
        <time>2014-07-12T11:44:05Z</time>
      </trkpt>
      <trkpt lat="60.010476" lon="17.5927817">
        <ele>37.6287</ele>
        <time>2014-07-12T11:44:06Z</time>
      </trkpt>
      <trkpt lat="60.0105114" lon="17.5926056">
        <ele>37.6287</ele>
        <time>2014-07-12T11:44:07Z</time>
      </trkpt>
      <trkpt lat="60.0105479" lon="17.5924311">
        <ele>37.1481</ele>
        <time>2014-07-12T11:44:08Z</time>
      </trkpt>
      <trkpt lat="60.0105844" lon="17.5922586">
        <ele>37.1481</ele>
        <time>2014-07-12T11:44:09Z</time>
      </trkpt>
      <trkpt lat="60.0106212" lon="17.5920897">
        <ele>37.1481</ele>
        <time>2014-07-12T11:44:10Z</time>
      </trkpt>
      <trkpt lat="60.0106595" lon="17.5919248">
        <ele>37.1481</ele>
        <time>2014-07-12T11:44:11Z</time>
      </trkpt>
      <trkpt lat="60.0106985" lon="17.591762">
        <ele>37.1481</ele>
        <time>2014-07-12T11:44:12Z</time>
      </trkpt>
      <trkpt lat="60.0107383" lon="17.5916013">
        <ele>37.1481</ele>
        <time>2014-07-12T11:44:13Z</time>
      </trkpt>
      <trkpt lat="60.0107802" lon="17.5914446">
        <ele>37.1481</ele>
        <time>2014-07-12T11:44:14Z</time>
      </trkpt>
      <trkpt lat="60.0108232" lon="17.5912873">
        <ele>37.1481</ele>
        <time>2014-07-12T11:44:15Z</time>
      </trkpt>
      <trkpt lat="60.0108681" lon="17.5911309">
        <ele>37.1481</ele>
        <time>2014-07-12T11:44:16Z</time>
      </trkpt>
      <trkpt lat="60.0109142" lon="17.5909744">
        <ele>37.1481</ele>
        <time>2014-07-12T11:44:17Z</time>
      </trkpt>
      <trkpt lat="60.0109615" lon="17.5908171">
        <ele>37.1481</ele>
        <time>2014-07-12T11:44:18Z</time>
      </trkpt>
      <trkpt lat="60.0110111" lon="17.5906622">
        <ele>37.1481</ele>
        <time>2014-07-12T11:44:19Z</time>
      </trkpt>
      <trkpt lat="60.0110629" lon="17.59051">
        <ele>37.1481</ele>
        <time>2014-07-12T11:44:20Z</time>
      </trkpt>
      <trkpt lat="60.011116" lon="17.5903616">
        <ele>37.1481</ele>
        <time>2014-07-12T11:44:21Z</time>
      </trkpt>
      <trkpt lat="60.0111703" lon="17.5902166">
        <ele>37.1481</ele>
        <time>2014-07-12T11:44:22Z</time>
      </trkpt>
      <trkpt lat="60.0112255" lon="17.5900769">
        <ele>37.1481</ele>
        <time>2014-07-12T11:44:23Z</time>
      </trkpt>
      <trkpt lat="60.0112818" lon="17.5899415">
        <ele>37.1481</ele>
        <time>2014-07-12T11:44:24Z</time>
      </trkpt>
      <trkpt lat="60.0113386" lon="17.5898094">
        <ele>37.1481</ele>
        <time>2014-07-12T11:44:25Z</time>
      </trkpt>
      <trkpt lat="60.011396" lon="17.5896782">
        <ele>37.1481</ele>
        <time>2014-07-12T11:44:26Z</time>
      </trkpt>
      <trkpt lat="60.0114545" lon="17.5895474">
        <ele>37.6287</ele>
        <time>2014-07-12T11:44:27Z</time>
      </trkpt>
      <trkpt lat="60.0115148" lon="17.5894229">
        <ele>37.6287</ele>
        <time>2014-07-12T11:44:28Z</time>
      </trkpt>
      <trkpt lat="60.0115769" lon="17.5893013">
        <ele>37.6287</ele>
        <time>2014-07-12T11:44:29Z</time>
      </trkpt>
      <trkpt lat="60.01164" lon="17.5891825">
        <ele>37.6287</ele>
        <time>2014-07-12T11:44:30Z</time>
      </trkpt>
      <trkpt lat="60.0117047" lon="17.5890672">
        <ele>37.6287</ele>
        <time>2014-07-12T11:44:31Z</time>
      </trkpt>
      <trkpt lat="60.0117705" lon="17.5889537">
        <ele>37.6287</ele>
        <time>2014-07-12T11:44:32Z</time>
      </trkpt>
      <trkpt lat="60.0118365" lon="17.5888422">
        <ele>37.6287</ele>
        <time>2014-07-12T11:44:33Z</time>
      </trkpt>
      <trkpt lat="60.0119028" lon="17.5887323">
        <ele>37.6287</ele>
        <time>2014-07-12T11:44:34Z</time>
      </trkpt>
      <trkpt lat="60.0119701" lon="17.588623">
        <ele>37.6287</ele>
        <time>2014-07-12T11:44:35Z</time>
      </trkpt>
      <trkpt lat="60.012039" lon="17.5885175">
        <ele>37.6287</ele>
        <time>2014-07-12T11:44:36Z</time>
      </trkpt>
      <trkpt lat="60.0121089" lon="17.5884138">
        <ele>37.6287</ele>
        <time>2014-07-12T11:44:37Z</time>
      </trkpt>
      <trkpt lat="60.0121798" lon="17.588313">
        <ele>37.6287</ele>
        <time>2014-07-12T11:44:38Z</time>
      </trkpt>
      <trkpt lat="60.0122519" lon="17.5882167">
        <ele>37.6287</ele>
        <time>2014-07-12T11:44:39Z</time>
      </trkpt>
      <trkpt lat="60.0123254" lon="17.5881218">
        <ele>38.1094</ele>
        <time>2014-07-12T11:44:40Z</time>
      </trkpt>
      <trkpt lat="60.0124006" lon="17.5880311">
        <ele>38.1094</ele>
        <time>2014-07-12T11:44:41Z</time>
      </trkpt>
      <trkpt lat="60.0124772" lon="17.5879441">
        <ele>38.1094</ele>
        <time>2014-07-12T11:44:42Z</time>
      </trkpt>
      <trkpt lat="60.0125549" lon="17.5878588">
        <ele>38.1094</ele>
        <time>2014-07-12T11:44:43Z</time>
      </trkpt>
      <trkpt lat="60.012633" lon="17.5877732">
        <ele>38.1094</ele>
        <time>2014-07-12T11:44:44Z</time>
      </trkpt>
      <trkpt lat="60.0127124" lon="17.5876907">
        <ele>38.1094</ele>
        <time>2014-07-12T11:44:45Z</time>
      </trkpt>
      <trkpt lat="60.0127931" lon="17.5876141">
        <ele>38.1094</ele>
        <time>2014-07-12T11:44:46Z</time>
      </trkpt>
      <trkpt lat="60.0128743" lon="17.5875406">
        <ele>38.1094</ele>
        <time>2014-07-12T11:44:47Z</time>
      </trkpt>
      <trkpt lat="60.0129563" lon="17.5874696">
        <ele>38.5901</ele>
        <time>2014-07-12T11:44:48Z</time>
      </trkpt>
      <trkpt lat="60.0130393" lon="17.5874011">
        <ele>38.5901</ele>
        <time>2014-07-12T11:44:49Z</time>
      </trkpt>
      <trkpt lat="60.0131236" lon="17.5873356">
        <ele>38.5901</ele>
        <time>2014-07-12T11:44:50Z</time>
      </trkpt>
      <trkpt lat="60.013209" lon="17.5872732">
        <ele>38.5901</ele>
        <time>2014-07-12T11:44:51Z</time>
      </trkpt>
      <trkpt lat="60.0132949" lon="17.5872132">
        <ele>39.0707</ele>
        <time>2014-07-12T11:44:52Z</time>
      </trkpt>
      <trkpt lat="60.0133807" lon="17.5871568">
        <ele>39.0707</ele>
        <time>2014-07-12T11:44:53Z</time>
      </trkpt>
      <trkpt lat="60.013466" lon="17.5871058">
        <ele>39.0707</ele>
        <time>2014-07-12T11:44:54Z</time>
      </trkpt>
      <trkpt lat="60.0135489" lon="17.5870597">
        <ele>39.0707</ele>
        <time>2014-07-12T11:44:55Z</time>
      </trkpt>
      <trkpt lat="60.0136303" lon="17.5870179">
        <ele>39.5513</ele>
        <time>2014-07-12T11:44:56Z</time>
      </trkpt>
      <trkpt lat="60.0137101" lon="17.58698">
        <ele>39.5513</ele>
        <time>2014-07-12T11:44:57Z</time>
      </trkpt>
      <trkpt lat="60.0137889" lon="17.5869439">
        <ele>39.5513</ele>
        <time>2014-07-12T11:44:58Z</time>
      </trkpt>
      <trkpt lat="60.0138676" lon="17.586909">
        <ele>39.5513</ele>
        <time>2014-07-12T11:44:59Z</time>
      </trkpt>
      <trkpt lat="60.0139469" lon="17.586875">
        <ele>39.5513</ele>
        <time>2014-07-12T11:45:00Z</time>
      </trkpt>
      <trkpt lat="60.0140272" lon="17.5868419">
        <ele>39.5513</ele>
        <time>2014-07-12T11:45:01Z</time>
      </trkpt>
      <trkpt lat="60.0141079" lon="17.58681">
        <ele>39.5513</ele>
        <time>2014-07-12T11:45:02Z</time>
      </trkpt>
      <trkpt lat="60.0141886" lon="17.5867794">
        <ele>39.5513</ele>
        <time>2014-07-12T11:45:03Z</time>
      </trkpt>
      <trkpt lat="60.0142689" lon="17.5867481">
        <ele>39.5513</ele>
        <time>2014-07-12T11:45:04Z</time>
      </trkpt>
      <trkpt lat="60.0143489" lon="17.5867179">
        <ele>40.0321</ele>
        <time>2014-07-12T11:45:05Z</time>
      </trkpt>
      <trkpt lat="60.014429" lon="17.5866885">
        <ele>40.0321</ele>
        <time>2014-07-12T11:45:06Z</time>
      </trkpt>
      <trkpt lat="60.0145086" lon="17.586658">
        <ele>40.0321</ele>
        <time>2014-07-12T11:45:07Z</time>
      </trkpt>
      <trkpt lat="60.0145884" lon="17.5866263">
        <ele>40.0321</ele>
        <time>2014-07-12T11:45:08Z</time>
      </trkpt>
      <trkpt lat="60.0146684" lon="17.5865955">
        <ele>39.5513</ele>
        <time>2014-07-12T11:45:09Z</time>
      </trkpt>
      <trkpt lat="60.0147487" lon="17.5865652">
        <ele>40.0321</ele>
        <time>2014-07-12T11:45:10Z</time>
      </trkpt>
      <trkpt lat="60.0148285" lon="17.5865362">
        <ele>39.5513</ele>
        <time>2014-07-12T11:45:11Z</time>
      </trkpt>
      <trkpt lat="60.0149083" lon="17.5865068">
        <ele>39.5513</ele>
        <time>2014-07-12T11:45:12Z</time>
      </trkpt>
      <trkpt lat="60.0149871" lon="17.5864765">
        <ele>39.5513</ele>
        <time>2014-07-12T11:45:13Z</time>
      </trkpt>
      <trkpt lat="60.0150662" lon="17.5864479">
        <ele>39.5513</ele>
        <time>2014-07-12T11:45:14Z</time>
      </trkpt>
      <trkpt lat="60.0151453" lon="17.5864191">
        <ele>39.5513</ele>
        <time>2014-07-12T11:45:15Z</time>
      </trkpt>
      <trkpt lat="60.0152233" lon="17.5863866">
        <ele>39.5513</ele>
        <time>2014-07-12T11:45:16Z</time>
      </trkpt>
      <trkpt lat="60.0153012" lon="17.5863542">
        <ele>39.5513</ele>
        <time>2014-07-12T11:45:17Z</time>
      </trkpt>
      <trkpt lat="60.0153786" lon="17.5863222">
        <ele>39.5513</ele>
        <time>2014-07-12T11:45:18Z</time>
      </trkpt>
      <trkpt lat="60.0154545" lon="17.5862906">
        <ele>39.5513</ele>
        <time>2014-07-12T11:45:19Z</time>
      </trkpt>
      <trkpt lat="60.0155298" lon="17.5862596">
        <ele>40.0321</ele>
        <time>2014-07-12T11:45:20Z</time>
      </trkpt>
      <trkpt lat="60.015604" lon="17.5862296">
        <ele>40.0321</ele>
        <time>2014-07-12T11:45:21Z</time>
      </trkpt>
      <trkpt lat="60.0156773" lon="17.5861993">
        <ele>40.0321</ele>
        <time>2014-07-12T11:45:22Z</time>
      </trkpt>
      <trkpt lat="60.0157498" lon="17.586167">
        <ele>40.0321</ele>
        <time>2014-07-12T11:45:23Z</time>
      </trkpt>
      <trkpt lat="60.0158218" lon="17.5861322">
        <ele>40.0321</ele>
        <time>2014-07-12T11:45:24Z</time>
      </trkpt>
      <trkpt lat="60.0158935" lon="17.5860957">
        <ele>40.0321</ele>
        <time>2014-07-12T11:45:25Z</time>
      </trkpt>
      <trkpt lat="60.0159649" lon="17.5860566">
        <ele>40.0321</ele>
        <time>2014-07-12T11:45:26Z</time>
      </trkpt>
      <trkpt lat="60.0160359" lon="17.586014">
        <ele>40.0321</ele>
        <time>2014-07-12T11:45:27Z</time>
      </trkpt>
      <trkpt lat="60.0161065" lon="17.58597">
        <ele>40.0321</ele>
        <time>2014-07-12T11:45:28Z</time>
      </trkpt>
      <trkpt lat="60.0161767" lon="17.5859249">
        <ele>40.0321</ele>
        <time>2014-07-12T11:45:29Z</time>
      </trkpt>
      <trkpt lat="60.0162469" lon="17.5858777">
        <ele>40.0321</ele>
        <time>2014-07-12T11:45:30Z</time>
      </trkpt>
      <trkpt lat="60.0163172" lon="17.5858277">
        <ele>40.0321</ele>
        <time>2014-07-12T11:45:31Z</time>
      </trkpt>
      <trkpt lat="60.0163875" lon="17.585775">
        <ele>40.0321</ele>
        <time>2014-07-12T11:45:32Z</time>
      </trkpt>
      <trkpt lat="60.016458" lon="17.5857184">
        <ele>40.0321</ele>
        <time>2014-07-12T11:45:33Z</time>
      </trkpt>
      <trkpt lat="60.016529" lon="17.5856588">
        <ele>40.0321</ele>
        <time>2014-07-12T11:45:34Z</time>
      </trkpt>
      <trkpt lat="60.0166002" lon="17.5855951">
        <ele>39.5513</ele>
        <time>2014-07-12T11:45:35Z</time>
      </trkpt>
      <trkpt lat="60.016671" lon="17.5855281">
        <ele>39.5513</ele>
        <time>2014-07-12T11:45:36Z</time>
      </trkpt>
      <trkpt lat="60.016742" lon="17.5854603">
        <ele>39.5513</ele>
        <time>2014-07-12T11:45:37Z</time>
      </trkpt>
      <trkpt lat="60.0168124" lon="17.5853905">
        <ele>39.0707</ele>
        <time>2014-07-12T11:45:38Z</time>
      </trkpt>
      <trkpt lat="60.0168822" lon="17.5853172">
        <ele>39.0707</ele>
        <time>2014-07-12T11:45:39Z</time>
      </trkpt>
      <trkpt lat="60.0169513" lon="17.5852399">
        <ele>39.0707</ele>
        <time>2014-07-12T11:45:40Z</time>
      </trkpt>
      <trkpt lat="60.0170198" lon="17.5851605">
        <ele>38.5901</ele>
        <time>2014-07-12T11:45:41Z</time>
      </trkpt>
      <trkpt lat="60.0170878" lon="17.5850795">
        <ele>38.5901</ele>
        <time>2014-07-12T11:45:42Z</time>
      </trkpt>
      <trkpt lat="60.0171547" lon="17.5849955">
        <ele>38.5901</ele>
        <time>2014-07-12T11:45:43Z</time>
      </trkpt>
      <trkpt lat="60.017221" lon="17.5849096">
        <ele>38.5901</ele>
        <time>2014-07-12T11:45:44Z</time>
      </trkpt>
      <trkpt lat="60.017287" lon="17.5848227">
        <ele>38.1094</ele>
        <time>2014-07-12T11:45:45Z</time>
      </trkpt>
      <trkpt lat="60.0173518" lon="17.584733">
        <ele>38.1094</ele>
        <time>2014-07-12T11:45:46Z</time>
      </trkpt>
      <trkpt lat="60.0174157" lon="17.5846395">
        <ele>38.1094</ele>
        <time>2014-07-12T11:45:47Z</time>
      </trkpt>
      <trkpt lat="60.0174797" lon="17.5845434">
        <ele>38.1094</ele>
        <time>2014-07-12T11:45:48Z</time>
      </trkpt>
      <trkpt lat="60.0175433" lon="17.5844455">
        <ele>37.6287</ele>
        <time>2014-07-12T11:45:49Z</time>
      </trkpt>
      <trkpt lat="60.0176054" lon="17.584344">
        <ele>37.6287</ele>
        <time>2014-07-12T11:45:50Z</time>
      </trkpt>
      <trkpt lat="60.0176657" lon="17.5842389">
        <ele>37.6287</ele>
        <time>2014-07-12T11:45:51Z</time>
      </trkpt>
      <trkpt lat="60.0177261" lon="17.584132">
        <ele>37.1481</ele>
        <time>2014-07-12T11:45:52Z</time>
      </trkpt>
      <trkpt lat="60.0177856" lon="17.5840242">
        <ele>37.1481</ele>
        <time>2014-07-12T11:45:53Z</time>
      </trkpt>
      <trkpt lat="60.0178441" lon="17.5839152">
        <ele>37.1481</ele>
        <time>2014-07-12T11:45:54Z</time>
      </trkpt>
      <trkpt lat="60.0179013" lon="17.5838045">
        <ele>36.6675</ele>
        <time>2014-07-12T11:45:55Z</time>
      </trkpt>
      <trkpt lat="60.0179576" lon="17.5836919">
        <ele>36.6675</ele>
        <time>2014-07-12T11:45:56Z</time>
      </trkpt>
      <trkpt lat="60.0180128" lon="17.5835778">
        <ele>36.1868</ele>
        <time>2014-07-12T11:45:57Z</time>
      </trkpt>
      <trkpt lat="60.0180669" lon="17.5834602">
        <ele>36.1868</ele>
        <time>2014-07-12T11:45:58Z</time>
      </trkpt>
      <trkpt lat="60.0181188" lon="17.5833404">
        <ele>36.1868</ele>
        <time>2014-07-12T11:45:59Z</time>
      </trkpt>
      <trkpt lat="60.0181701" lon="17.5832192">
        <ele>35.7061</ele>
        <time>2014-07-12T11:46:00Z</time>
      </trkpt>
      <trkpt lat="60.0182198" lon="17.5830972">
        <ele>35.2255</ele>
        <time>2014-07-12T11:46:01Z</time>
      </trkpt>
      <trkpt lat="60.0182707" lon="17.5829781">
        <ele>35.2255</ele>
        <time>2014-07-12T11:46:02Z</time>
      </trkpt>
      <trkpt lat="60.0183204" lon="17.5828661">
        <ele>34.7449</ele>
        <time>2014-07-12T11:46:03Z</time>
      </trkpt>
      <trkpt lat="60.0183691" lon="17.5827414">
        <ele>34.2642</ele>
        <time>2014-07-12T11:46:04Z</time>
      </trkpt>
      <trkpt lat="60.0184166" lon="17.5826067">
        <ele>33.7834</ele>
        <time>2014-07-12T11:46:05Z</time>
      </trkpt>
      <trkpt lat="60.0184619" lon="17.5824699">
        <ele>33.3029</ele>
        <time>2014-07-12T11:46:06Z</time>
      </trkpt>
      <trkpt lat="60.0185064" lon="17.5823283">
        <ele>32.8223</ele>
        <time>2014-07-12T11:46:07Z</time>
      </trkpt>
      <trkpt lat="60.0185498" lon="17.5821845">
        <ele>32.3416</ele>
        <time>2014-07-12T11:46:08Z</time>
      </trkpt>
      <trkpt lat="60.018593" lon="17.5820394">
        <ele>32.3416</ele>
        <time>2014-07-12T11:46:09Z</time>
      </trkpt>
      <trkpt lat="60.0186349" lon="17.5818916">
        <ele>32.3416</ele>
        <time>2014-07-12T11:46:10Z</time>
      </trkpt>
      <trkpt lat="60.0186753" lon="17.5817411">
        <ele>32.3416</ele>
        <time>2014-07-12T11:46:11Z</time>
      </trkpt>
      <trkpt lat="60.0187146" lon="17.5815877">
        <ele>31.8607</ele>
        <time>2014-07-12T11:46:12Z</time>
      </trkpt>
      <trkpt lat="60.0187533" lon="17.5814353">
        <ele>31.8607</ele>
        <time>2014-07-12T11:46:13Z</time>
      </trkpt>
      <trkpt lat="60.0187902" lon="17.5812785">
        <ele>31.8607</ele>
        <time>2014-07-12T11:46:14Z</time>
      </trkpt>
      <trkpt lat="60.0188254" lon="17.5811221">
        <ele>31.3801</ele>
        <time>2014-07-12T11:46:15Z</time>
      </trkpt>
      <trkpt lat="60.0188591" lon="17.5809665">
        <ele>31.3801</ele>
        <time>2014-07-12T11:46:16Z</time>
      </trkpt>
      <trkpt lat="60.0188915" lon="17.5808148">
        <ele>31.3801</ele>
        <time>2014-07-12T11:46:17Z</time>
      </trkpt>
      <trkpt lat="60.0189205" lon="17.5806562">
        <ele>31.3801</ele>
        <time>2014-07-12T11:46:18Z</time>
      </trkpt>
      <trkpt lat="60.0189498" lon="17.5805003">
        <ele>31.8607</ele>
        <time>2014-07-12T11:46:19Z</time>
      </trkpt>
      <trkpt lat="60.0189762" lon="17.5803397">
        <ele>31.8607</ele>
        <time>2014-07-12T11:46:20Z</time>
      </trkpt>
      <trkpt lat="60.0190026" lon="17.5801854">
        <ele>31.8607</ele>
        <time>2014-07-12T11:46:21Z</time>
      </trkpt>
      <trkpt lat="60.0190269" lon="17.5800311">
        <ele>31.8607</ele>
        <time>2014-07-12T11:46:22Z</time>
      </trkpt>
      <trkpt lat="60.0190539" lon="17.5798803">
        <ele>32.3416</ele>
        <time>2014-07-12T11:46:23Z</time>
      </trkpt>
      <trkpt lat="60.0190941" lon="17.5797457">
        <ele>32.3416</ele>
        <time>2014-07-12T11:46:24Z</time>
      </trkpt>
      <trkpt lat="60.0191601" lon="17.579643">
        <ele>32.3416</ele>
        <time>2014-07-12T11:46:25Z</time>
      </trkpt>
      <trkpt lat="60.0192357" lon="17.5795768">
        <ele>32.3416</ele>
        <time>2014-07-12T11:46:26Z</time>
      </trkpt>
      <trkpt lat="60.0193145" lon="17.5795284">
        <ele>31.8607</ele>
        <time>2014-07-12T11:46:27Z</time>
      </trkpt>
      <trkpt lat="60.0193947" lon="17.5794783">
        <ele>31.8607</ele>
        <time>2014-07-12T11:46:28Z</time>
      </trkpt>
      <trkpt lat="60.0194749" lon="17.5794142">
        <ele>31.8607</ele>
        <time>2014-07-12T11:46:29Z</time>
      </trkpt>
      <trkpt lat="60.0195502" lon="17.5793254">
        <ele>31.3801</ele>
        <time>2014-07-12T11:46:30Z</time>
      </trkpt>
      <trkpt lat="60.0196183" lon="17.5792113">
        <ele>31.3801</ele>
        <time>2014-07-12T11:46:31Z</time>
      </trkpt>
      <trkpt lat="60.0196799" lon="17.5790746">
        <ele>31.8607</ele>
        <time>2014-07-12T11:46:32Z</time>
      </trkpt>
      <trkpt lat="60.0197346" lon="17.5789297">
        <ele>31.8607</ele>
        <time>2014-07-12T11:46:33Z</time>
      </trkpt>
      <trkpt lat="60.0197822" lon="17.5787773">
        <ele>31.8607</ele>
        <time>2014-07-12T11:46:34Z</time>
      </trkpt>
      <trkpt lat="60.0198251" lon="17.5786143">
        <ele>32.3416</ele>
        <time>2014-07-12T11:46:35Z</time>
      </trkpt>
      <trkpt lat="60.0198635" lon="17.5784516">
        <ele>32.8223</ele>
        <time>2014-07-12T11:46:36Z</time>
      </trkpt>
      <trkpt lat="60.0198987" lon="17.5782993">
        <ele>32.8223</ele>
        <time>2014-07-12T11:46:37Z</time>
      </trkpt>
      <trkpt lat="60.0199308" lon="17.5781391">
        <ele>33.3029</ele>
        <time>2014-07-12T11:46:38Z</time>
      </trkpt>
      <trkpt lat="60.0199625" lon="17.5779665">
        <ele>33.7834</ele>
        <time>2014-07-12T11:46:39Z</time>
      </trkpt>
      <trkpt lat="60.0199828" lon="17.5777897">
        <ele>34.2642</ele>
        <time>2014-07-12T11:46:40Z</time>
      </trkpt>
      <trkpt lat="60.0200039" lon="17.5776102">
        <ele>34.7449</ele>
        <time>2014-07-12T11:46:41Z</time>
      </trkpt>
      <trkpt lat="60.0200303" lon="17.5774302">
        <ele>35.7061</ele>
        <time>2014-07-12T11:46:42Z</time>
      </trkpt>
      <trkpt lat="60.020054" lon="17.5772545">
        <ele>35.7061</ele>
        <time>2014-07-12T11:46:43Z</time>
      </trkpt>
      <trkpt lat="60.0200175" lon="17.5770554">
        <ele>35.2255</ele>
        <time>2014-07-12T11:46:44Z</time>
      </trkpt>
      <trkpt lat="60.0200381" lon="17.5768484">
        <ele>36.6675</ele>
        <time>2014-07-12T11:46:45Z</time>
      </trkpt>
      <trkpt lat="60.0200504" lon="17.5766442">
        <ele>36.6675</ele>
        <time>2014-07-12T11:46:46Z</time>
      </trkpt>
      <trkpt lat="60.0200635" lon="17.5764771">
        <ele>36.1868</ele>
        <time>2014-07-12T11:46:47Z</time>
      </trkpt>
      <trkpt lat="60.0200841" lon="17.5763058">
        <ele>37.1481</ele>
        <time>2014-07-12T11:46:48Z</time>
      </trkpt>
      <trkpt lat="60.0201079" lon="17.5761178">
        <ele>37.6287</ele>
        <time>2014-07-12T11:46:49Z</time>
      </trkpt>
      <trkpt lat="60.0201422" lon="17.5759392">
        <ele>38.1094</ele>
        <time>2014-07-12T11:46:50Z</time>
      </trkpt>
      <trkpt lat="60.0201898" lon="17.5757754">
        <ele>38.5901</ele>
        <time>2014-07-12T11:46:51Z</time>
      </trkpt>
      <trkpt lat="60.0202511" lon="17.5756396">
        <ele>38.1094</ele>
        <time>2014-07-12T11:46:52Z</time>
      </trkpt>
      <trkpt lat="60.0203401" lon="17.5755728">
        <ele>38.1094</ele>
        <time>2014-07-12T11:46:53Z</time>
      </trkpt>
      <trkpt lat="60.0204192" lon="17.5754719">
        <ele>38.5901</ele>
        <time>2014-07-12T11:46:54Z</time>
      </trkpt>
      <trkpt lat="60.0204975" lon="17.5753792">
        <ele>39.0707</ele>
        <time>2014-07-12T11:46:55Z</time>
      </trkpt>
      <trkpt lat="60.0205714" lon="17.5752887">
        <ele>39.0707</ele>
        <time>2014-07-12T11:46:56Z</time>
      </trkpt>
      <trkpt lat="60.0206415" lon="17.5751981">
        <ele>39.5513</ele>
        <time>2014-07-12T11:46:57Z</time>
      </trkpt>
      <trkpt lat="60.0207176" lon="17.575132">
        <ele>39.5513</ele>
        <time>2014-07-12T11:46:58Z</time>
      </trkpt>
      <trkpt lat="60.0207965" lon="17.575074">
        <ele>40.0321</ele>
        <time>2014-07-12T11:46:59Z</time>
      </trkpt>
      <trkpt lat="60.0208761" lon="17.5750227">
        <ele>40.0321</ele>
        <time>2014-07-12T11:47:00Z</time>
      </trkpt>
      <trkpt lat="60.0209582" lon="17.5749773">
        <ele>40.9934</ele>
        <time>2014-07-12T11:47:01Z</time>
      </trkpt>
      <trkpt lat="60.0210418" lon="17.5749446">
        <ele>40.9934</ele>
        <time>2014-07-12T11:47:02Z</time>
      </trkpt>
      <trkpt lat="60.0211221" lon="17.5749186">
        <ele>40.9934</ele>
        <time>2014-07-12T11:47:03Z</time>
      </trkpt>
      <trkpt lat="60.0212025" lon="17.5748991">
        <ele>40.5128</ele>
        <time>2014-07-12T11:47:04Z</time>
      </trkpt>
      <trkpt lat="60.021283" lon="17.5748842">
        <ele>40.9934</ele>
        <time>2014-07-12T11:47:05Z</time>
      </trkpt>
      <trkpt lat="60.0213596" lon="17.574874">
        <ele>40.9934</ele>
        <time>2014-07-12T11:47:06Z</time>
      </trkpt>
      <trkpt lat="60.021428" lon="17.5748571">
        <ele>40.0321</ele>
        <time>2014-07-12T11:47:07Z</time>
      </trkpt>
      <trkpt lat="60.0215034" lon="17.5748311">
        <ele>40.5128</ele>
        <time>2014-07-12T11:47:08Z</time>
      </trkpt>
      <trkpt lat="60.0215787" lon="17.5748002">
        <ele>40.5128</ele>
        <time>2014-07-12T11:47:09Z</time>
      </trkpt>
      <trkpt lat="60.0216569" lon="17.5747639">
        <ele>40.9934</ele>
        <time>2014-07-12T11:47:10Z</time>
      </trkpt>
      <trkpt lat="60.0217315" lon="17.574727">
        <ele>40.5128</ele>
        <time>2014-07-12T11:47:11Z</time>
      </trkpt>
      <trkpt lat="60.0218113" lon="17.5746784">
        <ele>39.5513</ele>
        <time>2014-07-12T11:47:12Z</time>
      </trkpt>
      <trkpt lat="60.0218838" lon="17.5746343">
        <ele>38.5901</ele>
        <time>2014-07-12T11:47:13Z</time>
      </trkpt>
      <trkpt lat="60.0219646" lon="17.5745826">
        <ele>38.5901</ele>
        <time>2014-07-12T11:47:14Z</time>
      </trkpt>
      <trkpt lat="60.0220423" lon="17.574539">
        <ele>38.1094</ele>
        <time>2014-07-12T11:47:15Z</time>
      </trkpt>
      <trkpt lat="60.0221164" lon="17.5745049">
        <ele>37.1481</ele>
        <time>2014-07-12T11:47:16Z</time>
      </trkpt>
      <trkpt lat="60.0221916" lon="17.5744721">
        <ele>36.6675</ele>
        <time>2014-07-12T11:47:17Z</time>
      </trkpt>
      <trkpt lat="60.022271" lon="17.5744443">
        <ele>36.1868</ele>
        <time>2014-07-12T11:47:18Z</time>
      </trkpt>
      <trkpt lat="60.0223482" lon="17.5744109">
        <ele>35.7061</ele>
        <time>2014-07-12T11:47:19Z</time>
      </trkpt>
      <trkpt lat="60.0224179" lon="17.5743832">
        <ele>35.2255</ele>
        <time>2014-07-12T11:47:20Z</time>
      </trkpt>
      <trkpt lat="60.0224981" lon="17.5743593">
        <ele>36.1868</ele>
        <time>2014-07-12T11:47:21Z</time>
      </trkpt>
      <trkpt lat="60.0225753" lon="17.5743391">
        <ele>35.7061</ele>
        <time>2014-07-12T11:47:22Z</time>
      </trkpt>
      <trkpt lat="60.0226535" lon="17.5743147">
        <ele>36.1868</ele>
        <time>2014-07-12T11:47:23Z</time>
      </trkpt>
      <trkpt lat="60.022726" lon="17.5742993">
        <ele>34.7449</ele>
        <time>2014-07-12T11:47:24Z</time>
      </trkpt>
      <trkpt lat="60.0228017" lon="17.5742827">
        <ele>34.7449</ele>
        <time>2014-07-12T11:47:25Z</time>
      </trkpt>
      <trkpt lat="60.0228755" lon="17.5742721">
        <ele>33.7834</ele>
        <time>2014-07-12T11:47:26Z</time>
      </trkpt>
      <trkpt lat="60.0229482" lon="17.5742657">
        <ele>32.8223</ele>
        <time>2014-07-12T11:47:27Z</time>
      </trkpt>
      <trkpt lat="60.0230201" lon="17.5742696">
        <ele>32.3416</ele>
        <time>2014-07-12T11:47:28Z</time>
      </trkpt>
      <trkpt lat="60.0230933" lon="17.5742749">
        <ele>31.3801</ele>
        <time>2014-07-12T11:47:29Z</time>
      </trkpt>
      <trkpt lat="60.0231703" lon="17.5742889">
        <ele>31.3801</ele>
        <time>2014-07-12T11:47:30Z</time>
      </trkpt>
      <trkpt lat="60.0232466" lon="17.574308">
        <ele>31.3801</ele>
        <time>2014-07-12T11:47:31Z</time>
      </trkpt>
      <trkpt lat="60.0233184" lon="17.5743287">
        <ele>30.4188</ele>
        <time>2014-07-12T11:47:32Z</time>
      </trkpt>
      <trkpt lat="60.0233974" lon="17.5743501">
        <ele>30.4188</ele>
        <time>2014-07-12T11:47:33Z</time>
      </trkpt>
      <trkpt lat="60.0234735" lon="17.5743711">
        <ele>29.4575</ele>
        <time>2014-07-12T11:47:34Z</time>
      </trkpt>
      <trkpt lat="60.0235505" lon="17.5743846">
        <ele>29.4575</ele>
        <time>2014-07-12T11:47:35Z</time>
      </trkpt>
      <trkpt lat="60.0236258" lon="17.5743919">
        <ele>29.4575</ele>
        <time>2014-07-12T11:47:36Z</time>
      </trkpt>
      <trkpt lat="60.0236985" lon="17.5744021">
        <ele>29.4575</ele>
        <time>2014-07-12T11:47:37Z</time>
      </trkpt>
      <trkpt lat="60.0237696" lon="17.5744141">
        <ele>29.4575</ele>
        <time>2014-07-12T11:47:38Z</time>
      </trkpt>
      <trkpt lat="60.0238359" lon="17.5744148">
        <ele>28.9769</ele>
        <time>2014-07-12T11:47:39Z</time>
      </trkpt>
      <trkpt lat="60.0239086" lon="17.5744157">
        <ele>28.9769</ele>
        <time>2014-07-12T11:47:40Z</time>
      </trkpt>
      <trkpt lat="60.0239828" lon="17.5744054">
        <ele>29.4575</ele>
        <time>2014-07-12T11:47:41Z</time>
      </trkpt>
      <trkpt lat="60.0240542" lon="17.574393">
        <ele>28.9769</ele>
        <time>2014-07-12T11:47:42Z</time>
      </trkpt>
      <trkpt lat="60.0241366" lon="17.5743799">
        <ele>28.9769</ele>
        <time>2014-07-12T11:47:43Z</time>
      </trkpt>
      <trkpt lat="60.024219" lon="17.5743252">
        <ele>29.9381</ele>
        <time>2014-07-12T11:47:44Z</time>
      </trkpt>
      <trkpt lat="60.0242961" lon="17.574278">
        <ele>29.9381</ele>
        <time>2014-07-12T11:47:45Z</time>
      </trkpt>
      <trkpt lat="60.0243718" lon="17.5742317">
        <ele>29.9381</ele>
        <time>2014-07-12T11:47:46Z</time>
      </trkpt>
      <trkpt lat="60.0244431" lon="17.5741703">
        <ele>29.4575</ele>
        <time>2014-07-12T11:47:47Z</time>
      </trkpt>
      <trkpt lat="60.0245065" lon="17.5740485">
        <ele>29.4575</ele>
        <time>2014-07-12T11:47:48Z</time>
      </trkpt>
      <trkpt lat="60.0245635" lon="17.5739812">
        <ele>28.9769</ele>
        <time>2014-07-12T11:47:49Z</time>
      </trkpt>
      <trkpt lat="60.0246181" lon="17.5739403">
        <ele>28.4962</ele>
        <time>2014-07-12T11:47:50Z</time>
      </trkpt>
      <trkpt lat="60.02468" lon="17.573892">
        <ele>28.0155</ele>
        <time>2014-07-12T11:47:51Z</time>
      </trkpt>
      <trkpt lat="60.0247528" lon="17.5738422">
        <ele>28.0155</ele>
        <time>2014-07-12T11:47:52Z</time>
      </trkpt>
      <trkpt lat="60.0248279" lon="17.5737916">
        <ele>28.0155</ele>
        <time>2014-07-12T11:47:53Z</time>
      </trkpt>
      <trkpt lat="60.0249053" lon="17.5737475">
        <ele>28.0155</ele>
        <time>2014-07-12T11:47:54Z</time>
      </trkpt>
      <trkpt lat="60.0249771" lon="17.5737103">
        <ele>27.5349</ele>
        <time>2014-07-12T11:47:55Z</time>
      </trkpt>
      <trkpt lat="60.0250504" lon="17.5736704">
        <ele>27.5349</ele>
        <time>2014-07-12T11:47:56Z</time>
      </trkpt>
      <trkpt lat="60.0251268" lon="17.573617">
        <ele>28.0155</ele>
        <time>2014-07-12T11:47:57Z</time>
      </trkpt>
      <trkpt lat="60.0251995" lon="17.5735498">
        <ele>28.0155</ele>
        <time>2014-07-12T11:47:58Z</time>
      </trkpt>
      <trkpt lat="60.025269" lon="17.5734658">
        <ele>27.5349</ele>
        <time>2014-07-12T11:47:59Z</time>
      </trkpt>
      <trkpt lat="60.0253384" lon="17.573368">
        <ele>28.0155</ele>
        <time>2014-07-12T11:48:00Z</time>
      </trkpt>
      <trkpt lat="60.0254" lon="17.5732435">
        <ele>27.5349</ele>
        <time>2014-07-12T11:48:01Z</time>
      </trkpt>
      <trkpt lat="60.0254503" lon="17.5730052">
        <ele>27.0543</ele>
        <time>2014-07-12T11:48:02Z</time>
      </trkpt>
      <trkpt lat="60.0254885" lon="17.5728352">
        <ele>27.0543</ele>
        <time>2014-07-12T11:48:03Z</time>
      </trkpt>
      <trkpt lat="60.0255051" lon="17.5726564">
        <ele>27.0543</ele>
        <time>2014-07-12T11:48:04Z</time>
      </trkpt>
      <trkpt lat="60.0255114" lon="17.5724762">
        <ele>27.0543</ele>
        <time>2014-07-12T11:48:05Z</time>
      </trkpt>
      <trkpt lat="60.025521" lon="17.5723092">
        <ele>28.0155</ele>
        <time>2014-07-12T11:48:06Z</time>
      </trkpt>
      <trkpt lat="60.0255361" lon="17.5721567">
        <ele>28.4962</ele>
        <time>2014-07-12T11:48:07Z</time>
      </trkpt>
      <trkpt lat="60.0255471" lon="17.5720113">
        <ele>28.0155</ele>
        <time>2014-07-12T11:48:08Z</time>
      </trkpt>
      <trkpt lat="60.0255581" lon="17.5718794">
        <ele>28.0155</ele>
        <time>2014-07-12T11:48:09Z</time>
      </trkpt>
      <trkpt lat="60.0255739" lon="17.5717236">
        <ele>28.9769</ele>
        <time>2014-07-12T11:48:10Z</time>
      </trkpt>
      <trkpt lat="60.0255917" lon="17.5716111">
        <ele>29.9381</ele>
        <time>2014-07-12T11:48:11Z</time>
      </trkpt>
      <trkpt lat="60.0256049" lon="17.571505">
        <ele>30.4188</ele>
        <time>2014-07-12T11:48:12Z</time>
      </trkpt>
      <trkpt lat="60.0256258" lon="17.5713948">
        <ele>30.8995</ele>
        <time>2014-07-12T11:48:13Z</time>
      </trkpt>
      <trkpt lat="60.025644" lon="17.5712957">
        <ele>31.3801</ele>
        <time>2014-07-12T11:48:14Z</time>
      </trkpt>
      <trkpt lat="60.0256656" lon="17.5712056">
        <ele>31.3801</ele>
        <time>2014-07-12T11:48:15Z</time>
      </trkpt>
      <trkpt lat="60.025685" lon="17.5711055">
        <ele>31.3801</ele>
        <time>2014-07-12T11:48:16Z</time>
      </trkpt>
      <trkpt lat="60.025706" lon="17.5710068">
        <ele>31.8607</ele>
        <time>2014-07-12T11:48:17Z</time>
      </trkpt>
      <trkpt lat="60.0257253" lon="17.5709026">
        <ele>31.8607</ele>
        <time>2014-07-12T11:48:18Z</time>
      </trkpt>
      <trkpt lat="60.025735" lon="17.570795">
        <ele>31.8607</ele>
        <time>2014-07-12T11:48:19Z</time>
      </trkpt>
      <trkpt lat="60.0257355" lon="17.570684">
        <ele>32.3416</ele>
        <time>2014-07-12T11:48:20Z</time>
      </trkpt>
      <trkpt lat="60.0257253" lon="17.5705674">
        <ele>32.3416</ele>
        <time>2014-07-12T11:48:21Z</time>
      </trkpt>
      <trkpt lat="60.0257093" lon="17.5704573">
        <ele>32.3416</ele>
        <time>2014-07-12T11:48:22Z</time>
      </trkpt>
      <trkpt lat="60.02569" lon="17.5703467">
        <ele>33.3029</ele>
        <time>2014-07-12T11:48:23Z</time>
      </trkpt>
      <trkpt lat="60.0256635" lon="17.5702329">
        <ele>33.7834</ele>
        <time>2014-07-12T11:48:24Z</time>
      </trkpt>
      <trkpt lat="60.0256326" lon="17.5701273">
        <ele>33.7834</ele>
        <time>2014-07-12T11:48:25Z</time>
      </trkpt>
      <trkpt lat="60.0255994" lon="17.5700309">
        <ele>33.7834</ele>
        <time>2014-07-12T11:48:26Z</time>
      </trkpt>
      <trkpt lat="60.0255617" lon="17.5699335">
        <ele>33.7834</ele>
        <time>2014-07-12T11:48:27Z</time>
      </trkpt>
      <trkpt lat="60.0255218" lon="17.5698407">
        <ele>34.2642</ele>
        <time>2014-07-12T11:48:28Z</time>
      </trkpt>
      <trkpt lat="60.0254772" lon="17.5697494">
        <ele>34.2642</ele>
        <time>2014-07-12T11:48:29Z</time>
      </trkpt>
      <trkpt lat="60.0254309" lon="17.5696575">
        <ele>34.2642</ele>
        <time>2014-07-12T11:48:30Z</time>
      </trkpt>
      <trkpt lat="60.0253902" lon="17.5695605">
        <ele>34.2642</ele>
        <time>2014-07-12T11:48:31Z</time>
      </trkpt>
      <trkpt lat="60.0253663" lon="17.5694719">
        <ele>33.7834</ele>
        <time>2014-07-12T11:48:32Z</time>
      </trkpt>
      <trkpt lat="60.0253363" lon="17.5693832">
        <ele>33.7834</ele>
        <time>2014-07-12T11:48:33Z</time>
      </trkpt>
      <trkpt lat="60.0253021" lon="17.5692988">
        <ele>33.3029</ele>
        <time>2014-07-12T11:48:34Z</time>
      </trkpt>
      <trkpt lat="60.0252615" lon="17.5691968">
        <ele>33.7834</ele>
        <time>2014-07-12T11:48:35Z</time>
      </trkpt>
      <trkpt lat="60.0252164" lon="17.5690892">
        <ele>34.2642</ele>
        <time>2014-07-12T11:48:36Z</time>
      </trkpt>
      <trkpt lat="60.0251798" lon="17.5689739">
        <ele>34.2642</ele>
        <time>2014-07-12T11:48:37Z</time>
      </trkpt>
      <trkpt lat="60.0251466" lon="17.5688622">
        <ele>34.2642</ele>
        <time>2014-07-12T11:48:38Z</time>
      </trkpt>
      <trkpt lat="60.0251062" lon="17.5687432">
        <ele>34.2642</ele>
        <time>2014-07-12T11:48:39Z</time>
      </trkpt>
      <trkpt lat="60.0250824" lon="17.5686325">
        <ele>34.2642</ele>
        <time>2014-07-12T11:48:40Z</time>
      </trkpt>
      <trkpt lat="60.0250612" lon="17.5685274">
        <ele>33.7834</ele>
        <time>2014-07-12T11:48:41Z</time>
      </trkpt>
      <trkpt lat="60.0250396" lon="17.5684176">
        <ele>33.7834</ele>
        <time>2014-07-12T11:48:42Z</time>
      </trkpt>
      <trkpt lat="60.0250136" lon="17.5683073">
        <ele>34.2642</ele>
        <time>2014-07-12T11:48:43Z</time>
      </trkpt>
      <trkpt lat="60.0249872" lon="17.5682028">
        <ele>34.2642</ele>
        <time>2014-07-12T11:48:44Z</time>
      </trkpt>
      <trkpt lat="60.0249623" lon="17.5680972">
        <ele>34.2642</ele>
        <time>2014-07-12T11:48:45Z</time>
      </trkpt>
      <trkpt lat="60.0249435" lon="17.5679882">
        <ele>34.7449</ele>
        <time>2014-07-12T11:48:46Z</time>
      </trkpt>
      <trkpt lat="60.0249254" lon="17.5678811">
        <ele>34.7449</ele>
        <time>2014-07-12T11:48:47Z</time>
      </trkpt>
      <trkpt lat="60.0249125" lon="17.5677643">
        <ele>35.2255</ele>
        <time>2014-07-12T11:48:48Z</time>
      </trkpt>
      <trkpt lat="60.0249001" lon="17.5676458">
        <ele>35.7061</ele>
        <time>2014-07-12T11:48:49Z</time>
      </trkpt>
      <trkpt lat="60.0248907" lon="17.5675247">
        <ele>36.1868</ele>
        <time>2014-07-12T11:48:50Z</time>
      </trkpt>
      <trkpt lat="60.0248852" lon="17.5674121">
        <ele>36.6675</ele>
        <time>2014-07-12T11:48:51Z</time>
      </trkpt>
      <trkpt lat="60.0248746" lon="17.5672894">
        <ele>37.1481</ele>
        <time>2014-07-12T11:48:52Z</time>
      </trkpt>
      <trkpt lat="60.0248577" lon="17.5671665">
        <ele>37.1481</ele>
        <time>2014-07-12T11:48:53Z</time>
      </trkpt>
      <trkpt lat="60.0247611" lon="17.5669728">
        <ele>36.1868</ele>
        <time>2014-07-12T11:48:54Z</time>
      </trkpt>
      <trkpt lat="60.0247181" lon="17.5667999">
        <ele>36.6675</ele>
        <time>2014-07-12T11:48:55Z</time>
      </trkpt>
      <trkpt lat="60.0246707" lon="17.5666599">
        <ele>36.1868</ele>
        <time>2014-07-12T11:48:56Z</time>
      </trkpt>
      <trkpt lat="60.0246301" lon="17.5665486">
        <ele>35.2255</ele>
        <time>2014-07-12T11:48:57Z</time>
      </trkpt>
      <trkpt lat="60.0246012" lon="17.5664422">
        <ele>34.7449</ele>
        <time>2014-07-12T11:48:58Z</time>
      </trkpt>
      <trkpt lat="60.0245532" lon="17.56634">
        <ele>33.7834</ele>
        <time>2014-07-12T11:48:59Z</time>
      </trkpt>
      <trkpt lat="60.024495" lon="17.5662406">
        <ele>33.7834</ele>
        <time>2014-07-12T11:49:00Z</time>
      </trkpt>
      <trkpt lat="60.0244332" lon="17.5661416">
        <ele>34.2642</ele>
        <time>2014-07-12T11:49:01Z</time>
      </trkpt>
      <trkpt lat="60.0243717" lon="17.5660479">
        <ele>34.7449</ele>
        <time>2014-07-12T11:49:02Z</time>
      </trkpt>
      <trkpt lat="60.0243113" lon="17.5659597">
        <ele>35.2255</ele>
        <time>2014-07-12T11:49:03Z</time>
      </trkpt>
      <trkpt lat="60.0242532" lon="17.5658764">
        <ele>35.7061</ele>
        <time>2014-07-12T11:49:04Z</time>
      </trkpt>
      <trkpt lat="60.0242002" lon="17.5657892">
        <ele>36.1868</ele>
        <time>2014-07-12T11:49:05Z</time>
      </trkpt>
      <trkpt lat="60.0241516" lon="17.5657065">
        <ele>36.6675</ele>
        <time>2014-07-12T11:49:06Z</time>
      </trkpt>
      <trkpt lat="60.0241067" lon="17.5656262">
        <ele>37.1481</ele>
        <time>2014-07-12T11:49:07Z</time>
      </trkpt>
      <trkpt lat="60.0240615" lon="17.5655495">
        <ele>37.6287</ele>
        <time>2014-07-12T11:49:08Z</time>
      </trkpt>
      <trkpt lat="60.024015" lon="17.5654666">
        <ele>37.6287</ele>
        <time>2014-07-12T11:49:09Z</time>
      </trkpt>
      <trkpt lat="60.0239693" lon="17.5653733">
        <ele>37.6287</ele>
        <time>2014-07-12T11:49:10Z</time>
      </trkpt>
      <trkpt lat="60.0239252" lon="17.5652689">
        <ele>37.1481</ele>
        <time>2014-07-12T11:49:11Z</time>
      </trkpt>
      <trkpt lat="60.0238811" lon="17.5651553">
        <ele>36.6675</ele>
        <time>2014-07-12T11:49:12Z</time>
      </trkpt>
      <trkpt lat="60.0238411" lon="17.565028">
        <ele>36.1868</ele>
        <time>2014-07-12T11:49:13Z</time>
      </trkpt>
      <trkpt lat="60.023808" lon="17.564889">
        <ele>35.7061</ele>
        <time>2014-07-12T11:49:14Z</time>
      </trkpt>
      <trkpt lat="60.023775" lon="17.5647278">
        <ele>35.7061</ele>
        <time>2014-07-12T11:49:15Z</time>
      </trkpt>
      <trkpt lat="60.0237546" lon="17.5645612">
        <ele>35.2255</ele>
        <time>2014-07-12T11:49:16Z</time>
      </trkpt>
      <trkpt lat="60.0237429" lon="17.564399">
        <ele>35.2255</ele>
        <time>2014-07-12T11:49:17Z</time>
      </trkpt>
      <trkpt lat="60.0237308" lon="17.5642357">
        <ele>35.2255</ele>
        <time>2014-07-12T11:49:18Z</time>
      </trkpt>
      <trkpt lat="60.0237196" lon="17.5640691">
        <ele>35.7061</ele>
        <time>2014-07-12T11:49:19Z</time>
      </trkpt>
      <trkpt lat="60.0237129" lon="17.5639257">
        <ele>35.7061</ele>
        <time>2014-07-12T11:49:20Z</time>
      </trkpt>
      <trkpt lat="60.0237186" lon="17.5637965">
        <ele>35.2255</ele>
        <time>2014-07-12T11:49:21Z</time>
      </trkpt>
      <trkpt lat="60.0237259" lon="17.5636588">
        <ele>35.2255</ele>
        <time>2014-07-12T11:49:22Z</time>
      </trkpt>
      <trkpt lat="60.0237295" lon="17.5635113">
        <ele>35.2255</ele>
        <time>2014-07-12T11:49:23Z</time>
      </trkpt>
      <trkpt lat="60.0237325" lon="17.5633641">
        <ele>35.2255</ele>
        <time>2014-07-12T11:49:24Z</time>
      </trkpt>
      <trkpt lat="60.0237372" lon="17.5632164">
        <ele>35.2255</ele>
        <time>2014-07-12T11:49:25Z</time>
      </trkpt>
      <trkpt lat="60.0237444" lon="17.5630707">
        <ele>35.7061</ele>
        <time>2014-07-12T11:49:26Z</time>
      </trkpt>
      <trkpt lat="60.0237537" lon="17.5629268">
        <ele>35.7061</ele>
        <time>2014-07-12T11:49:27Z</time>
      </trkpt>
      <trkpt lat="60.023764" lon="17.5627849">
        <ele>35.7061</ele>
        <time>2014-07-12T11:49:28Z</time>
      </trkpt>
      <trkpt lat="60.0237743" lon="17.5626466">
        <ele>36.1868</ele>
        <time>2014-07-12T11:49:29Z</time>
      </trkpt>
      <trkpt lat="60.0237843" lon="17.562513">
        <ele>36.1868</ele>
        <time>2014-07-12T11:49:30Z</time>
      </trkpt>
      <trkpt lat="60.0237962" lon="17.5623845">
        <ele>36.6675</ele>
        <time>2014-07-12T11:49:31Z</time>
      </trkpt>
      <trkpt lat="60.0238057" lon="17.5622529">
        <ele>36.6675</ele>
        <time>2014-07-12T11:49:32Z</time>
      </trkpt>
      <trkpt lat="60.0238148" lon="17.5621134">
        <ele>37.1481</ele>
        <time>2014-07-12T11:49:33Z</time>
      </trkpt>
      <trkpt lat="60.0238299" lon="17.5619785">
        <ele>37.1481</ele>
        <time>2014-07-12T11:49:34Z</time>
      </trkpt>
      <trkpt lat="60.0238454" lon="17.5618438">
        <ele>37.6287</ele>
        <time>2014-07-12T11:49:35Z</time>
      </trkpt>
      <trkpt lat="60.0238533" lon="17.5616819">
        <ele>37.6287</ele>
        <time>2014-07-12T11:49:36Z</time>
      </trkpt>
      <trkpt lat="60.0238701" lon="17.5615456">
        <ele>37.6287</ele>
        <time>2014-07-12T11:49:37Z</time>
      </trkpt>
      <trkpt lat="60.0238875" lon="17.5613987">
        <ele>37.6287</ele>
        <time>2014-07-12T11:49:38Z</time>
      </trkpt>
      <trkpt lat="60.0239009" lon="17.5612405">
        <ele>37.1481</ele>
        <time>2014-07-12T11:49:39Z</time>
      </trkpt>
      <trkpt lat="60.0239184" lon="17.5610885">
        <ele>36.6675</ele>
        <time>2014-07-12T11:49:40Z</time>
      </trkpt>
      <trkpt lat="60.0239339" lon="17.560936">
        <ele>36.6675</ele>
        <time>2014-07-12T11:49:41Z</time>
      </trkpt>
      <trkpt lat="60.0239484" lon="17.5607992">
        <ele>36.6675</ele>
        <time>2014-07-12T11:49:42Z</time>
      </trkpt>
      <trkpt lat="60.0239641" lon="17.5606631">
        <ele>37.1481</ele>
        <time>2014-07-12T11:49:43Z</time>
      </trkpt>
      <trkpt lat="60.0239846" lon="17.5605267">
        <ele>36.6675</ele>
        <time>2014-07-12T11:49:44Z</time>
      </trkpt>
      <trkpt lat="60.0240084" lon="17.5603881">
        <ele>36.6675</ele>
        <time>2014-07-12T11:49:45Z</time>
      </trkpt>
      <trkpt lat="60.0240392" lon="17.5602461">
        <ele>36.6675</ele>
        <time>2014-07-12T11:49:46Z</time>
      </trkpt>
      <trkpt lat="60.0240785" lon="17.5601129">
        <ele>36.6675</ele>
        <time>2014-07-12T11:49:47Z</time>
      </trkpt>
      <trkpt lat="60.0241231" lon="17.5599851">
        <ele>36.6675</ele>
        <time>2014-07-12T11:49:48Z</time>
      </trkpt>
      <trkpt lat="60.0241692" lon="17.5598605">
        <ele>36.6675</ele>
        <time>2014-07-12T11:49:49Z</time>
      </trkpt>
      <trkpt lat="60.0242175" lon="17.5597363">
        <ele>36.6675</ele>
        <time>2014-07-12T11:49:50Z</time>
      </trkpt>
      <trkpt lat="60.0242669" lon="17.5596124">
        <ele>36.6675</ele>
        <time>2014-07-12T11:49:51Z</time>
      </trkpt>
      <trkpt lat="60.0243148" lon="17.5594912">
        <ele>36.6675</ele>
        <time>2014-07-12T11:49:52Z</time>
      </trkpt>
      <trkpt lat="60.0243628" lon="17.5593703">
        <ele>36.6675</ele>
        <time>2014-07-12T11:49:53Z</time>
      </trkpt>
      <trkpt lat="60.0244117" lon="17.5592504">
        <ele>36.6675</ele>
        <time>2014-07-12T11:49:54Z</time>
      </trkpt>
      <trkpt lat="60.024463" lon="17.5591338">
        <ele>36.6675</ele>
        <time>2014-07-12T11:49:55Z</time>
      </trkpt>
      <trkpt lat="60.0245167" lon="17.5590169">
        <ele>36.6675</ele>
        <time>2014-07-12T11:49:56Z</time>
      </trkpt>
      <trkpt lat="60.0245707" lon="17.5588996">
        <ele>37.1481</ele>
        <time>2014-07-12T11:49:57Z</time>
      </trkpt>
      <trkpt lat="60.0246261" lon="17.5587822">
        <ele>37.1481</ele>
        <time>2014-07-12T11:49:58Z</time>
      </trkpt>
      <trkpt lat="60.0246826" lon="17.5586651">
        <ele>37.1481</ele>
        <time>2014-07-12T11:49:59Z</time>
      </trkpt>
      <trkpt lat="60.0247402" lon="17.5585486">
        <ele>37.1481</ele>
        <time>2014-07-12T11:50:00Z</time>
      </trkpt>
      <trkpt lat="60.0248002" lon="17.5584366">
        <ele>36.6675</ele>
        <time>2014-07-12T11:50:01Z</time>
      </trkpt>
      <trkpt lat="60.0248619" lon="17.5583295">
        <ele>36.6675</ele>
        <time>2014-07-12T11:50:02Z</time>
      </trkpt>
      <trkpt lat="60.0249244" lon="17.5582265">
        <ele>36.6675</ele>
        <time>2014-07-12T11:50:03Z</time>
      </trkpt>
      <trkpt lat="60.0249887" lon="17.5581286">
        <ele>36.6675</ele>
        <time>2014-07-12T11:50:04Z</time>
      </trkpt>
      <trkpt lat="60.0250549" lon="17.5580353">
        <ele>36.6675</ele>
        <time>2014-07-12T11:50:05Z</time>
      </trkpt>
      <trkpt lat="60.0251212" lon="17.5579431">
        <ele>36.6675</ele>
        <time>2014-07-12T11:50:06Z</time>
      </trkpt>
      <trkpt lat="60.025187" lon="17.5578496">
        <ele>36.6675</ele>
        <time>2014-07-12T11:50:07Z</time>
      </trkpt>
      <trkpt lat="60.0252532" lon="17.5577572">
        <ele>36.6675</ele>
        <time>2014-07-12T11:50:08Z</time>
      </trkpt>
      <trkpt lat="60.0253195" lon="17.5576674">
        <ele>36.6675</ele>
        <time>2014-07-12T11:50:09Z</time>
      </trkpt>
      <trkpt lat="60.0253841" lon="17.5575779">
        <ele>36.6675</ele>
        <time>2014-07-12T11:50:10Z</time>
      </trkpt>
      <trkpt lat="60.0254469" lon="17.5574918">
        <ele>36.6675</ele>
        <time>2014-07-12T11:50:11Z</time>
      </trkpt>
      <trkpt lat="60.0255148" lon="17.5574069">
        <ele>37.1481</ele>
        <time>2014-07-12T11:50:12Z</time>
      </trkpt>
      <trkpt lat="60.0255809" lon="17.5573291">
        <ele>37.1481</ele>
        <time>2014-07-12T11:50:13Z</time>
      </trkpt>
      <trkpt lat="60.0256456" lon="17.5572534">
        <ele>37.1481</ele>
        <time>2014-07-12T11:50:14Z</time>
      </trkpt>
      <trkpt lat="60.0257122" lon="17.5571743">
        <ele>37.6287</ele>
        <time>2014-07-12T11:50:15Z</time>
      </trkpt>
      <trkpt lat="60.0257765" lon="17.5570992">
        <ele>37.1481</ele>
        <time>2014-07-12T11:50:16Z</time>
      </trkpt>
      <trkpt lat="60.0258388" lon="17.5570099">
        <ele>37.6287</ele>
        <time>2014-07-12T11:50:17Z</time>
      </trkpt>
      <trkpt lat="60.0258998" lon="17.5569151">
        <ele>37.6287</ele>
        <time>2014-07-12T11:50:18Z</time>
      </trkpt>
      <trkpt lat="60.0259588" lon="17.5568158">
        <ele>38.1094</ele>
        <time>2014-07-12T11:50:19Z</time>
      </trkpt>
      <trkpt lat="60.0260128" lon="17.556708">
        <ele>38.1094</ele>
        <time>2014-07-12T11:50:20Z</time>
      </trkpt>
      <trkpt lat="60.0260624" lon="17.5565937">
        <ele>38.1094</ele>
        <time>2014-07-12T11:50:21Z</time>
      </trkpt>
      <trkpt lat="60.0261092" lon="17.556478">
        <ele>38.1094</ele>
        <time>2014-07-12T11:50:22Z</time>
      </trkpt>
      <trkpt lat="60.0261525" lon="17.5563595">
        <ele>38.1094</ele>
        <time>2014-07-12T11:50:23Z</time>
      </trkpt>
      <trkpt lat="60.0261885" lon="17.5562362">
        <ele>38.5901</ele>
        <time>2014-07-12T11:50:24Z</time>
      </trkpt>
      <trkpt lat="60.0262204" lon="17.5561127">
        <ele>38.5901</ele>
        <time>2014-07-12T11:50:25Z</time>
      </trkpt>
      <trkpt lat="60.0262476" lon="17.5559922">
        <ele>38.5901</ele>
        <time>2014-07-12T11:50:26Z</time>
      </trkpt>
      <trkpt lat="60.0262708" lon="17.5558717">
        <ele>38.5901</ele>
        <time>2014-07-12T11:50:27Z</time>
      </trkpt>
      <trkpt lat="60.0262908" lon="17.5557502">
        <ele>38.5901</ele>
        <time>2014-07-12T11:50:28Z</time>
      </trkpt>
      <trkpt lat="60.0263076" lon="17.5556259">
        <ele>38.5901</ele>
        <time>2014-07-12T11:50:29Z</time>
      </trkpt>
      <trkpt lat="60.0263248" lon="17.5555015">
        <ele>38.5901</ele>
        <time>2014-07-12T11:50:30Z</time>
      </trkpt>
      <trkpt lat="60.0263382" lon="17.5553761">
        <ele>38.5901</ele>
        <time>2014-07-12T11:50:31Z</time>
      </trkpt>
      <trkpt lat="60.0263464" lon="17.5552447">
        <ele>38.5901</ele>
        <time>2014-07-12T11:50:32Z</time>
      </trkpt>
      <trkpt lat="60.0263541" lon="17.5551068">
        <ele>38.5901</ele>
        <time>2014-07-12T11:50:33Z</time>
      </trkpt>
      <trkpt lat="60.0263543" lon="17.5549588">
        <ele>38.1094</ele>
        <time>2014-07-12T11:50:34Z</time>
      </trkpt>
      <trkpt lat="60.0263462" lon="17.5548162">
        <ele>38.1094</ele>
        <time>2014-07-12T11:50:35Z</time>
      </trkpt>
      <trkpt lat="60.0263365" lon="17.5546688">
        <ele>37.6287</ele>
        <time>2014-07-12T11:50:36Z</time>
      </trkpt>
      <trkpt lat="60.0263348" lon="17.5545325">
        <ele>37.6287</ele>
        <time>2014-07-12T11:50:37Z</time>
      </trkpt>
      <trkpt lat="60.0263299" lon="17.5543859">
        <ele>37.6287</ele>
        <time>2014-07-12T11:50:38Z</time>
      </trkpt>
      <trkpt lat="60.0263152" lon="17.5542289">
        <ele>37.6287</ele>
        <time>2014-07-12T11:50:39Z</time>
      </trkpt>
      <trkpt lat="60.026284" lon="17.5540315">
        <ele>37.6287</ele>
        <time>2014-07-12T11:50:40Z</time>
      </trkpt>
      <trkpt lat="60.0262789" lon="17.5538818">
        <ele>37.6287</ele>
        <time>2014-07-12T11:50:41Z</time>
      </trkpt>
      <trkpt lat="60.0262651" lon="17.5537415">
        <ele>37.6287</ele>
        <time>2014-07-12T11:50:42Z</time>
      </trkpt>
      <trkpt lat="60.026255" lon="17.5536315">
        <ele>37.6287</ele>
        <time>2014-07-12T11:50:43Z</time>
      </trkpt>
      <trkpt lat="60.0262485" lon="17.5535339">
        <ele>37.1481</ele>
        <time>2014-07-12T11:50:44Z</time>
      </trkpt>
      <trkpt lat="60.0262437" lon="17.5534364">
        <ele>36.6675</ele>
        <time>2014-07-12T11:50:45Z</time>
      </trkpt>
      <trkpt lat="60.0262447" lon="17.5533414">
        <ele>36.6675</ele>
        <time>2014-07-12T11:50:46Z</time>
      </trkpt>
      <trkpt lat="60.0262506" lon="17.5532562">
        <ele>36.1868</ele>
        <time>2014-07-12T11:50:47Z</time>
      </trkpt>
      <trkpt lat="60.0262563" lon="17.5531945">
        <ele>36.1868</ele>
        <time>2014-07-12T11:50:48Z</time>
      </trkpt>
      <trkpt lat="60.0262599" lon="17.5531573">
        <ele>36.1868</ele>
        <time>2014-07-12T11:50:49Z</time>
      </trkpt>
      <trkpt lat="60.0262551" lon="17.5531345">
        <ele>36.1868</ele>
        <time>2014-07-12T11:50:50Z</time>
      </trkpt>
      <trkpt lat="60.0262438" lon="17.5531176">
        <ele>36.1868</ele>
        <time>2014-07-12T11:50:51Z</time>
      </trkpt>
      <trkpt lat="60.0262372" lon="17.5531005">
        <ele>36.1868</ele>
        <time>2014-07-12T11:50:52Z</time>
      </trkpt>
      <trkpt lat="60.0262313" lon="17.5530686">
        <ele>36.1868</ele>
        <time>2014-07-12T11:50:53Z</time>
      </trkpt>
      <trkpt lat="60.02623" lon="17.5530261">
        <ele>36.1868</ele>
        <time>2014-07-12T11:50:54Z</time>
      </trkpt>
      <trkpt lat="60.0262329" lon="17.5529733">
        <ele>36.6675</ele>
        <time>2014-07-12T11:50:55Z</time>
      </trkpt>
      <trkpt lat="60.0262377" lon="17.5529152">
        <ele>36.6675</ele>
        <time>2014-07-12T11:50:56Z</time>
      </trkpt>
      <trkpt lat="60.0262371" lon="17.5528432">
        <ele>36.6675</ele>
        <time>2014-07-12T11:50:57Z</time>
      </trkpt>
      <trkpt lat="60.0262341" lon="17.5527671">
        <ele>36.6675</ele>
        <time>2014-07-12T11:50:58Z</time>
      </trkpt>
      <trkpt lat="60.0262308" lon="17.5526837">
        <ele>36.6675</ele>
        <time>2014-07-12T11:50:59Z</time>
      </trkpt>
      <trkpt lat="60.0262295" lon="17.5525967">
        <ele>36.1868</ele>
        <time>2014-07-12T11:51:00Z</time>
      </trkpt>
      <trkpt lat="60.0262278" lon="17.5525058">
        <ele>36.1868</ele>
        <time>2014-07-12T11:51:01Z</time>
      </trkpt>
      <trkpt lat="60.0262266" lon="17.5524136">
        <ele>36.1868</ele>
        <time>2014-07-12T11:51:02Z</time>
      </trkpt>
      <trkpt lat="60.0262287" lon="17.5523225">
        <ele>36.1868</ele>
        <time>2014-07-12T11:51:03Z</time>
      </trkpt>
      <trkpt lat="60.0262324" lon="17.5522352">
        <ele>36.1868</ele>
        <time>2014-07-12T11:51:04Z</time>
      </trkpt>
      <trkpt lat="60.0262343" lon="17.5521489">
        <ele>35.7061</ele>
        <time>2014-07-12T11:51:05Z</time>
      </trkpt>
      <trkpt lat="60.0262335" lon="17.5520634">
        <ele>35.7061</ele>
        <time>2014-07-12T11:51:06Z</time>
      </trkpt>
      <trkpt lat="60.0262289" lon="17.5519801">
        <ele>35.7061</ele>
        <time>2014-07-12T11:51:07Z</time>
      </trkpt>
      <trkpt lat="60.0262232" lon="17.5519">
        <ele>35.7061</ele>
        <time>2014-07-12T11:51:08Z</time>
      </trkpt>
      <trkpt lat="60.02622" lon="17.5518222">
        <ele>35.7061</ele>
        <time>2014-07-12T11:51:09Z</time>
      </trkpt>
      <trkpt lat="60.0262175" lon="17.5517498">
        <ele>35.7061</ele>
        <time>2014-07-12T11:51:10Z</time>
      </trkpt>
      <trkpt lat="60.0262126" lon="17.5516903">
        <ele>35.7061</ele>
        <time>2014-07-12T11:51:11Z</time>
      </trkpt>
      <trkpt lat="60.0262039" lon="17.5516528">
        <ele>35.7061</ele>
        <time>2014-07-12T11:51:12Z</time>
      </trkpt>
      <trkpt lat="60.0261927" lon="17.5516362">
        <ele>35.7061</ele>
        <time>2014-07-12T11:51:13Z</time>
      </trkpt>
      <trkpt lat="60.026187" lon="17.5516353">
        <ele>35.2255</ele>
        <time>2014-07-12T11:51:14Z</time>
      </trkpt>
      <trkpt lat="60.0261851" lon="17.5516372">
        <ele>35.2255</ele>
        <time>2014-07-12T11:51:15Z</time>
      </trkpt>
      <trkpt lat="60.0261864" lon="17.5516405">
        <ele>35.2255</ele>
        <time>2014-07-12T11:51:16Z</time>
      </trkpt>
      <trkpt lat="60.0261154" lon="17.5517623">
        <ele>40.0321</ele>
        <time>2014-07-12T11:52:34Z</time>
      </trkpt>
      <trkpt lat="60.0260987" lon="17.5517775">
        <ele>40.0321</ele>
        <time>2014-07-12T11:52:35Z</time>
      </trkpt>
      <trkpt lat="60.0260818" lon="17.5517877">
        <ele>39.5513</ele>
        <time>2014-07-12T11:52:36Z</time>
      </trkpt>
      <trkpt lat="60.0260637" lon="17.551793">
        <ele>39.5513</ele>
        <time>2014-07-12T11:52:37Z</time>
      </trkpt>
      <trkpt lat="60.0260445" lon="17.5517916">
        <ele>39.5513</ele>
        <time>2014-07-12T11:52:38Z</time>
      </trkpt>
      <trkpt lat="60.0260207" lon="17.5517823">
        <ele>39.5513</ele>
        <time>2014-07-12T11:52:39Z</time>
      </trkpt>
      <trkpt lat="60.0259934" lon="17.5517594">
        <ele>39.0707</ele>
        <time>2014-07-12T11:52:40Z</time>
      </trkpt>
      <trkpt lat="60.0259657" lon="17.5517227">
        <ele>39.0707</ele>
        <time>2014-07-12T11:52:41Z</time>
      </trkpt>
      <trkpt lat="60.0259376" lon="17.5516726">
        <ele>38.5901</ele>
        <time>2014-07-12T11:52:42Z</time>
      </trkpt>
      <trkpt lat="60.0259059" lon="17.5516113">
        <ele>38.5901</ele>
        <time>2014-07-12T11:52:43Z</time>
      </trkpt>
      <trkpt lat="60.025873" lon="17.5515387">
        <ele>38.1094</ele>
        <time>2014-07-12T11:52:44Z</time>
      </trkpt>
      <trkpt lat="60.0258362" lon="17.5514638">
        <ele>37.6287</ele>
        <time>2014-07-12T11:52:45Z</time>
      </trkpt>
      <trkpt lat="60.0257947" lon="17.5513845">
        <ele>37.1481</ele>
        <time>2014-07-12T11:52:46Z</time>
      </trkpt>
      <trkpt lat="60.0257505" lon="17.5512963">
        <ele>37.1481</ele>
        <time>2014-07-12T11:52:47Z</time>
      </trkpt>
      <trkpt lat="60.0257057" lon="17.5511969">
        <ele>36.6675</ele>
        <time>2014-07-12T11:52:48Z</time>
      </trkpt>
      <trkpt lat="60.0256621" lon="17.5510868">
        <ele>36.1868</ele>
        <time>2014-07-12T11:52:49Z</time>
      </trkpt>
      <trkpt lat="60.0256202" lon="17.5509686">
        <ele>36.1868</ele>
        <time>2014-07-12T11:52:50Z</time>
      </trkpt>
      <trkpt lat="60.0255798" lon="17.5508431">
        <ele>35.7061</ele>
        <time>2014-07-12T11:52:51Z</time>
      </trkpt>
      <trkpt lat="60.0255424" lon="17.5507083">
        <ele>35.7061</ele>
        <time>2014-07-12T11:52:52Z</time>
      </trkpt>
      <trkpt lat="60.0255079" lon="17.5505652">
        <ele>35.7061</ele>
        <time>2014-07-12T11:52:53Z</time>
      </trkpt>
      <trkpt lat="60.0254737" lon="17.5504179">
        <ele>35.2255</ele>
        <time>2014-07-12T11:52:54Z</time>
      </trkpt>
      <trkpt lat="60.0254393" lon="17.5502688">
        <ele>35.2255</ele>
        <time>2014-07-12T11:52:55Z</time>
      </trkpt>
      <trkpt lat="60.025405" lon="17.5501178">
        <ele>35.2255</ele>
        <time>2014-07-12T11:52:56Z</time>
      </trkpt>
      <trkpt lat="60.0253705" lon="17.5499642">
        <ele>34.7449</ele>
        <time>2014-07-12T11:52:57Z</time>
      </trkpt>
      <trkpt lat="60.0253346" lon="17.5498086">
        <ele>34.7449</ele>
        <time>2014-07-12T11:52:58Z</time>
      </trkpt>
      <trkpt lat="60.0252976" lon="17.54965">
        <ele>34.2642</ele>
        <time>2014-07-12T11:52:59Z</time>
      </trkpt>
      <trkpt lat="60.025261" lon="17.5494876">
        <ele>34.2642</ele>
        <time>2014-07-12T11:53:00Z</time>
      </trkpt>
      <trkpt lat="60.0252259" lon="17.5493211">
        <ele>33.7834</ele>
        <time>2014-07-12T11:53:01Z</time>
      </trkpt>
      <trkpt lat="60.0251908" lon="17.5491525">
        <ele>33.7834</ele>
        <time>2014-07-12T11:53:02Z</time>
      </trkpt>
      <trkpt lat="60.0251544" lon="17.5489849">
        <ele>33.3029</ele>
        <time>2014-07-12T11:53:03Z</time>
      </trkpt>
      <trkpt lat="60.0251171" lon="17.5488183">
        <ele>33.3029</ele>
        <time>2014-07-12T11:53:04Z</time>
      </trkpt>
      <trkpt lat="60.025079" lon="17.5486539">
        <ele>33.3029</ele>
        <time>2014-07-12T11:53:05Z</time>
      </trkpt>
      <trkpt lat="60.0250406" lon="17.5484909">
        <ele>32.8223</ele>
        <time>2014-07-12T11:53:06Z</time>
      </trkpt>
      <trkpt lat="60.0250026" lon="17.5483284">
        <ele>32.8223</ele>
        <time>2014-07-12T11:53:07Z</time>
      </trkpt>
      <trkpt lat="60.0249649" lon="17.5481662">
        <ele>32.8223</ele>
        <time>2014-07-12T11:53:08Z</time>
      </trkpt>
      <trkpt lat="60.0249271" lon="17.5480049">
        <ele>32.3416</ele>
        <time>2014-07-12T11:53:09Z</time>
      </trkpt>
      <trkpt lat="60.0248886" lon="17.5478441">
        <ele>32.3416</ele>
        <time>2014-07-12T11:53:10Z</time>
      </trkpt>
      <trkpt lat="60.0248497" lon="17.5476827">
        <ele>32.3416</ele>
        <time>2014-07-12T11:53:11Z</time>
      </trkpt>
      <trkpt lat="60.0248094" lon="17.5475213">
        <ele>31.8607</ele>
        <time>2014-07-12T11:53:12Z</time>
      </trkpt>
      <trkpt lat="60.0247668" lon="17.547361">
        <ele>31.8607</ele>
        <time>2014-07-12T11:53:13Z</time>
      </trkpt>
      <trkpt lat="60.0247223" lon="17.5472017">
        <ele>31.8607</ele>
        <time>2014-07-12T11:53:14Z</time>
      </trkpt>
      <trkpt lat="60.0246765" lon="17.5470431">
        <ele>31.8607</ele>
        <time>2014-07-12T11:53:15Z</time>
      </trkpt>
      <trkpt lat="60.0246308" lon="17.5468841">
        <ele>31.8607</ele>
        <time>2014-07-12T11:53:16Z</time>
      </trkpt>
      <trkpt lat="60.0245852" lon="17.5467251">
        <ele>31.3801</ele>
        <time>2014-07-12T11:53:17Z</time>
      </trkpt>
      <trkpt lat="60.0245389" lon="17.546568">
        <ele>31.3801</ele>
        <time>2014-07-12T11:53:18Z</time>
      </trkpt>
      <trkpt lat="60.0244915" lon="17.5464123">
        <ele>31.3801</ele>
        <time>2014-07-12T11:53:19Z</time>
      </trkpt>
      <trkpt lat="60.0244427" lon="17.5462599">
        <ele>31.3801</ele>
        <time>2014-07-12T11:53:20Z</time>
      </trkpt>
      <trkpt lat="60.0243934" lon="17.5461121">
        <ele>31.3801</ele>
        <time>2014-07-12T11:53:21Z</time>
      </trkpt>
      <trkpt lat="60.0243451" lon="17.5459665">
        <ele>31.3801</ele>
        <time>2014-07-12T11:53:22Z</time>
      </trkpt>
      <trkpt lat="60.0242986" lon="17.5458226">
        <ele>31.3801</ele>
        <time>2014-07-12T11:53:23Z</time>
      </trkpt>
      <trkpt lat="60.0242526" lon="17.5456819">
        <ele>31.3801</ele>
        <time>2014-07-12T11:53:24Z</time>
      </trkpt>
      <trkpt lat="60.0242071" lon="17.5455451">
        <ele>31.3801</ele>
        <time>2014-07-12T11:53:25Z</time>
      </trkpt>
      <trkpt lat="60.0241638" lon="17.5454101">
        <ele>31.8607</ele>
        <time>2014-07-12T11:53:26Z</time>
      </trkpt>
      <trkpt lat="60.0241227" lon="17.5452765">
        <ele>31.3801</ele>
        <time>2014-07-12T11:53:27Z</time>
      </trkpt>
      <trkpt lat="60.0240835" lon="17.5451446">
        <ele>31.8607</ele>
        <time>2014-07-12T11:53:28Z</time>
      </trkpt>
      <trkpt lat="60.0240464" lon="17.545014">
        <ele>31.8607</ele>
        <time>2014-07-12T11:53:29Z</time>
      </trkpt>
      <trkpt lat="60.0240107" lon="17.5448835">
        <ele>31.8607</ele>
        <time>2014-07-12T11:53:30Z</time>
      </trkpt>
      <trkpt lat="60.0239755" lon="17.5447545">
        <ele>31.8607</ele>
        <time>2014-07-12T11:53:31Z</time>
      </trkpt>
      <trkpt lat="60.0239397" lon="17.5446272">
        <ele>31.8607</ele>
        <time>2014-07-12T11:53:32Z</time>
      </trkpt>
      <trkpt lat="60.0239034" lon="17.5445023">
        <ele>31.8607</ele>
        <time>2014-07-12T11:53:33Z</time>
      </trkpt>
      <trkpt lat="60.0238677" lon="17.544379">
        <ele>31.8607</ele>
        <time>2014-07-12T11:53:34Z</time>
      </trkpt>
      <trkpt lat="60.0238335" lon="17.5442571">
        <ele>31.3801</ele>
        <time>2014-07-12T11:53:35Z</time>
      </trkpt>
      <trkpt lat="60.0238003" lon="17.5441345">
        <ele>31.3801</ele>
        <time>2014-07-12T11:53:36Z</time>
      </trkpt>
      <trkpt lat="60.023767" lon="17.5440107">
        <ele>31.3801</ele>
        <time>2014-07-12T11:53:37Z</time>
      </trkpt>
      <trkpt lat="60.0237342" lon="17.5438869">
        <ele>31.3801</ele>
        <time>2014-07-12T11:53:38Z</time>
      </trkpt>
      <trkpt lat="60.0237008" lon="17.5437667">
        <ele>31.3801</ele>
        <time>2014-07-12T11:53:39Z</time>
      </trkpt>
      <trkpt lat="60.0236688" lon="17.543659">
        <ele>31.8607</ele>
        <time>2014-07-12T11:53:40Z</time>
      </trkpt>
      <trkpt lat="60.0236367" lon="17.5435471">
        <ele>31.8607</ele>
        <time>2014-07-12T11:53:41Z</time>
      </trkpt>
      <trkpt lat="60.0236046" lon="17.5434223">
        <ele>31.8607</ele>
        <time>2014-07-12T11:53:42Z</time>
      </trkpt>
      <trkpt lat="60.0235752" lon="17.5432964">
        <ele>31.3801</ele>
        <time>2014-07-12T11:53:43Z</time>
      </trkpt>
      <trkpt lat="60.0235529" lon="17.5431632">
        <ele>31.8607</ele>
        <time>2014-07-12T11:53:44Z</time>
      </trkpt>
      <trkpt lat="60.0235414" lon="17.5430195">
        <ele>31.3801</ele>
        <time>2014-07-12T11:53:45Z</time>
      </trkpt>
      <trkpt lat="60.0235393" lon="17.5428659">
        <ele>30.8995</ele>
        <time>2014-07-12T11:53:46Z</time>
      </trkpt>
      <trkpt lat="60.0235466" lon="17.5427062">
        <ele>30.8995</ele>
        <time>2014-07-12T11:53:47Z</time>
      </trkpt>
      <trkpt lat="60.0235607" lon="17.5425422">
        <ele>30.4188</ele>
        <time>2014-07-12T11:53:48Z</time>
      </trkpt>
      <trkpt lat="60.0235757" lon="17.5423722">
        <ele>30.4188</ele>
        <time>2014-07-12T11:53:49Z</time>
      </trkpt>
      <trkpt lat="60.0235895" lon="17.5422013">
        <ele>29.9381</ele>
        <time>2014-07-12T11:53:50Z</time>
      </trkpt>
      <trkpt lat="60.023601" lon="17.5420332">
        <ele>29.4575</ele>
        <time>2014-07-12T11:53:51Z</time>
      </trkpt>
      <trkpt lat="60.0236067" lon="17.5418631">
        <ele>29.4575</ele>
        <time>2014-07-12T11:53:52Z</time>
      </trkpt>
      <trkpt lat="60.0236085" lon="17.5416693">
        <ele>28.9769</ele>
        <time>2014-07-12T11:53:53Z</time>
      </trkpt>
      <trkpt lat="60.0236037" lon="17.5414953">
        <ele>28.9769</ele>
        <time>2014-07-12T11:53:54Z</time>
      </trkpt>
      <trkpt lat="60.0235916" lon="17.5413268">
        <ele>28.9769</ele>
        <time>2014-07-12T11:53:55Z</time>
      </trkpt>
      <trkpt lat="60.0235775" lon="17.5411614">
        <ele>28.9769</ele>
        <time>2014-07-12T11:53:56Z</time>
      </trkpt>
      <trkpt lat="60.023565" lon="17.5409958">
        <ele>28.9769</ele>
        <time>2014-07-12T11:53:57Z</time>
      </trkpt>
      <trkpt lat="60.023549" lon="17.5407872">
        <ele>28.9769</ele>
        <time>2014-07-12T11:53:58Z</time>
      </trkpt>
      <trkpt lat="60.0235501" lon="17.5406137">
        <ele>28.9769</ele>
        <time>2014-07-12T11:53:59Z</time>
      </trkpt>
      <trkpt lat="60.0235689" lon="17.5404526">
        <ele>28.9769</ele>
        <time>2014-07-12T11:54:00Z</time>
      </trkpt>
      <trkpt lat="60.0235951" lon="17.5402764">
        <ele>28.9769</ele>
        <time>2014-07-12T11:54:01Z</time>
      </trkpt>
      <trkpt lat="60.0236308" lon="17.5401163">
        <ele>28.9769</ele>
        <time>2014-07-12T11:54:02Z</time>
      </trkpt>
      <trkpt lat="60.023677" lon="17.5399772">
        <ele>29.4575</ele>
        <time>2014-07-12T11:54:03Z</time>
      </trkpt>
      <trkpt lat="60.0237233" lon="17.5398391">
        <ele>29.9381</ele>
        <time>2014-07-12T11:54:04Z</time>
      </trkpt>
      <trkpt lat="60.0237724" lon="17.539712">
        <ele>30.4188</ele>
        <time>2014-07-12T11:54:05Z</time>
      </trkpt>
      <trkpt lat="60.0238241" lon="17.5396055">
        <ele>30.4188</ele>
        <time>2014-07-12T11:54:06Z</time>
      </trkpt>
      <trkpt lat="60.0238702" lon="17.5394968">
        <ele>30.8995</ele>
        <time>2014-07-12T11:54:07Z</time>
      </trkpt>
      <trkpt lat="60.0239077" lon="17.5393915">
        <ele>30.4188</ele>
        <time>2014-07-12T11:54:08Z</time>
      </trkpt>
      <trkpt lat="60.0239334" lon="17.5392774">
        <ele>29.9381</ele>
        <time>2014-07-12T11:54:09Z</time>
      </trkpt>
      <trkpt lat="60.0239447" lon="17.5391529">
        <ele>29.9381</ele>
        <time>2014-07-12T11:54:10Z</time>
      </trkpt>
      <trkpt lat="60.0239413" lon="17.5390211">
        <ele>28.9769</ele>
        <time>2014-07-12T11:54:11Z</time>
      </trkpt>
      <trkpt lat="60.0239262" lon="17.5388762">
        <ele>29.4575</ele>
        <time>2014-07-12T11:54:12Z</time>
      </trkpt>
      <trkpt lat="60.0239048" lon="17.5387348">
        <ele>29.4575</ele>
        <time>2014-07-12T11:54:13Z</time>
      </trkpt>
      <trkpt lat="60.0238803" lon="17.5385976">
        <ele>28.9769</ele>
        <time>2014-07-12T11:54:14Z</time>
      </trkpt>
      <trkpt lat="60.0238572" lon="17.5384649">
        <ele>28.9769</ele>
        <time>2014-07-12T11:54:15Z</time>
      </trkpt>
      <trkpt lat="60.023838" lon="17.5383279">
        <ele>28.9769</ele>
        <time>2014-07-12T11:54:16Z</time>
      </trkpt>
      <trkpt lat="60.0238197" lon="17.5381893">
        <ele>28.9769</ele>
        <time>2014-07-12T11:54:17Z</time>
      </trkpt>
      <trkpt lat="60.023801" lon="17.5380563">
        <ele>28.9769</ele>
        <time>2014-07-12T11:54:18Z</time>
      </trkpt>
      <trkpt lat="60.0237811" lon="17.5379282">
        <ele>28.0155</ele>
        <time>2014-07-12T11:54:19Z</time>
      </trkpt>
      <trkpt lat="60.0237645" lon="17.5377997">
        <ele>28.0155</ele>
        <time>2014-07-12T11:54:20Z</time>
      </trkpt>
      <trkpt lat="60.0237506" lon="17.5376752">
        <ele>28.4962</ele>
        <time>2014-07-12T11:54:21Z</time>
      </trkpt>
      <trkpt lat="60.0237351" lon="17.5375571">
        <ele>28.4962</ele>
        <time>2014-07-12T11:54:22Z</time>
      </trkpt>
      <trkpt lat="60.0237202" lon="17.5374433">
        <ele>28.4962</ele>
        <time>2014-07-12T11:54:23Z</time>
      </trkpt>
      <trkpt lat="60.0237085" lon="17.5373359">
        <ele>28.9769</ele>
        <time>2014-07-12T11:54:24Z</time>
      </trkpt>
      <trkpt lat="60.0236994" lon="17.5372368">
        <ele>28.9769</ele>
        <time>2014-07-12T11:54:25Z</time>
      </trkpt>
      <trkpt lat="60.0236886" lon="17.5371495">
        <ele>29.4575</ele>
        <time>2014-07-12T11:54:26Z</time>
      </trkpt>
      <trkpt lat="60.0236704" lon="17.5370769">
        <ele>29.4575</ele>
        <time>2014-07-12T11:54:27Z</time>
      </trkpt>
      <trkpt lat="60.0236425" lon="17.5370197">
        <ele>29.4575</ele>
        <time>2014-07-12T11:54:28Z</time>
      </trkpt>
      <trkpt lat="60.0236062" lon="17.5369801">
        <ele>29.4575</ele>
        <time>2014-07-12T11:54:29Z</time>
      </trkpt>
      <trkpt lat="60.0235637" lon="17.5369589">
        <ele>29.4575</ele>
        <time>2014-07-12T11:54:30Z</time>
      </trkpt>
      <trkpt lat="60.0235179" lon="17.5369481">
        <ele>29.4575</ele>
        <time>2014-07-12T11:54:31Z</time>
      </trkpt>
      <trkpt lat="60.0234695" lon="17.5369401">
        <ele>29.4575</ele>
        <time>2014-07-12T11:54:32Z</time>
      </trkpt>
      <trkpt lat="60.0234186" lon="17.5369336">
        <ele>29.4575</ele>
        <time>2014-07-12T11:54:33Z</time>
      </trkpt>
      <trkpt lat="60.0233649" lon="17.5369314">
        <ele>29.4575</ele>
        <time>2014-07-12T11:54:34Z</time>
      </trkpt>
      <trkpt lat="60.0233089" lon="17.5369294">
        <ele>28.9769</ele>
        <time>2014-07-12T11:54:35Z</time>
      </trkpt>
      <trkpt lat="60.0232508" lon="17.5369233">
        <ele>28.9769</ele>
        <time>2014-07-12T11:54:36Z</time>
      </trkpt>
      <trkpt lat="60.0231907" lon="17.536915">
        <ele>28.9769</ele>
        <time>2014-07-12T11:54:37Z</time>
      </trkpt>
      <trkpt lat="60.0231289" lon="17.5369054">
        <ele>28.9769</ele>
        <time>2014-07-12T11:54:38Z</time>
      </trkpt>
      <trkpt lat="60.0230648" lon="17.5368933">
        <ele>28.9769</ele>
        <time>2014-07-12T11:54:39Z</time>
      </trkpt>
      <trkpt lat="60.0229983" lon="17.5368777">
        <ele>28.4962</ele>
        <time>2014-07-12T11:54:40Z</time>
      </trkpt>
      <trkpt lat="60.0229312" lon="17.5368565">
        <ele>28.4962</ele>
        <time>2014-07-12T11:54:41Z</time>
      </trkpt>
      <trkpt lat="60.0228647" lon="17.5368311">
        <ele>28.4962</ele>
        <time>2014-07-12T11:54:42Z</time>
      </trkpt>
      <trkpt lat="60.0227976" lon="17.5368022">
        <ele>28.4962</ele>
        <time>2014-07-12T11:54:43Z</time>
      </trkpt>
      <trkpt lat="60.0227298" lon="17.5367711">
        <ele>28.4962</ele>
        <time>2014-07-12T11:54:44Z</time>
      </trkpt>
      <trkpt lat="60.0226624" lon="17.5367367">
        <ele>28.4962</ele>
        <time>2014-07-12T11:54:45Z</time>
      </trkpt>
      <trkpt lat="60.0225971" lon="17.5366963">
        <ele>28.4962</ele>
        <time>2014-07-12T11:54:46Z</time>
      </trkpt>
      <trkpt lat="60.0225328" lon="17.5366513">
        <ele>28.4962</ele>
        <time>2014-07-12T11:54:47Z</time>
      </trkpt>
      <trkpt lat="60.0224681" lon="17.5366057">
        <ele>28.9769</ele>
        <time>2014-07-12T11:54:48Z</time>
      </trkpt>
      <trkpt lat="60.0224033" lon="17.5365589">
        <ele>28.9769</ele>
        <time>2014-07-12T11:54:49Z</time>
      </trkpt>
      <trkpt lat="60.0223394" lon="17.5365079">
        <ele>28.9769</ele>
        <time>2014-07-12T11:54:50Z</time>
      </trkpt>
      <trkpt lat="60.0222764" lon="17.5364534">
        <ele>29.4575</ele>
        <time>2014-07-12T11:54:51Z</time>
      </trkpt>
      <trkpt lat="60.0222142" lon="17.536397">
        <ele>29.4575</ele>
        <time>2014-07-12T11:54:52Z</time>
      </trkpt>
      <trkpt lat="60.0221531" lon="17.5363385">
        <ele>29.4575</ele>
        <time>2014-07-12T11:54:53Z</time>
      </trkpt>
      <trkpt lat="60.0220936" lon="17.5362792">
        <ele>29.9381</ele>
        <time>2014-07-12T11:54:54Z</time>
      </trkpt>
      <trkpt lat="60.022035" lon="17.5362214">
        <ele>29.9381</ele>
        <time>2014-07-12T11:54:55Z</time>
      </trkpt>
      <trkpt lat="60.0219773" lon="17.5361642">
        <ele>30.4188</ele>
        <time>2014-07-12T11:54:56Z</time>
      </trkpt>
      <trkpt lat="60.0219211" lon="17.5361053">
        <ele>30.4188</ele>
        <time>2014-07-12T11:54:57Z</time>
      </trkpt>
      <trkpt lat="60.0218656" lon="17.5360463">
        <ele>30.4188</ele>
        <time>2014-07-12T11:54:58Z</time>
      </trkpt>
      <trkpt lat="60.0218101" lon="17.5359881">
        <ele>30.4188</ele>
        <time>2014-07-12T11:54:59Z</time>
      </trkpt>
      <trkpt lat="60.0217543" lon="17.5359296">
        <ele>30.8995</ele>
        <time>2014-07-12T11:55:00Z</time>
      </trkpt>
      <trkpt lat="60.0216994" lon="17.5358705">
        <ele>30.8995</ele>
        <time>2014-07-12T11:55:01Z</time>
      </trkpt>
      <trkpt lat="60.0216445" lon="17.5358104">
        <ele>30.8995</ele>
        <time>2014-07-12T11:55:02Z</time>
      </trkpt>
      <trkpt lat="60.021589" lon="17.5357494">
        <ele>30.8995</ele>
        <time>2014-07-12T11:55:03Z</time>
      </trkpt>
      <trkpt lat="60.021532" lon="17.5356893">
        <ele>30.4188</ele>
        <time>2014-07-12T11:55:04Z</time>
      </trkpt>
      <trkpt lat="60.0214738" lon="17.5356313">
        <ele>30.8995</ele>
        <time>2014-07-12T11:55:05Z</time>
      </trkpt>
      <trkpt lat="60.0214151" lon="17.5355721">
        <ele>30.8995</ele>
        <time>2014-07-12T11:55:06Z</time>
      </trkpt>
      <trkpt lat="60.0213569" lon="17.5355138">
        <ele>30.8995</ele>
        <time>2014-07-12T11:55:07Z</time>
      </trkpt>
      <trkpt lat="60.0212998" lon="17.5354532">
        <ele>30.8995</ele>
        <time>2014-07-12T11:55:08Z</time>
      </trkpt>
      <trkpt lat="60.021242" lon="17.5353911">
        <ele>30.8995</ele>
        <time>2014-07-12T11:55:09Z</time>
      </trkpt>
      <trkpt lat="60.021184" lon="17.5353294">
        <ele>31.3801</ele>
        <time>2014-07-12T11:55:10Z</time>
      </trkpt>
      <trkpt lat="60.0211259" lon="17.5352681">
        <ele>31.3801</ele>
        <time>2014-07-12T11:55:11Z</time>
      </trkpt>
      <trkpt lat="60.021068" lon="17.5352065">
        <ele>31.3801</ele>
        <time>2014-07-12T11:55:12Z</time>
      </trkpt>
      <trkpt lat="60.0210094" lon="17.5351452">
        <ele>31.3801</ele>
        <time>2014-07-12T11:55:13Z</time>
      </trkpt>
      <trkpt lat="60.0209502" lon="17.5350843">
        <ele>31.3801</ele>
        <time>2014-07-12T11:55:14Z</time>
      </trkpt>
      <trkpt lat="60.0208907" lon="17.5350242">
        <ele>31.3801</ele>
        <time>2014-07-12T11:55:15Z</time>
      </trkpt>
      <trkpt lat="60.0208312" lon="17.5349655">
        <ele>31.3801</ele>
        <time>2014-07-12T11:55:16Z</time>
      </trkpt>
      <trkpt lat="60.0207714" lon="17.5349082">
        <ele>31.3801</ele>
        <time>2014-07-12T11:55:17Z</time>
      </trkpt>
      <trkpt lat="60.0207108" lon="17.5348538">
        <ele>31.8607</ele>
        <time>2014-07-12T11:55:18Z</time>
      </trkpt>
      <trkpt lat="60.0206488" lon="17.5348037">
        <ele>31.8607</ele>
        <time>2014-07-12T11:55:19Z</time>
      </trkpt>
      <trkpt lat="60.0205866" lon="17.5347554">
        <ele>31.8607</ele>
        <time>2014-07-12T11:55:20Z</time>
      </trkpt>
      <trkpt lat="60.020524" lon="17.5347088">
        <ele>31.8607</ele>
        <time>2014-07-12T11:55:21Z</time>
      </trkpt>
      <trkpt lat="60.0204609" lon="17.5346669">
        <ele>31.8607</ele>
        <time>2014-07-12T11:55:22Z</time>
      </trkpt>
      <trkpt lat="60.020397" lon="17.5346293">
        <ele>31.8607</ele>
        <time>2014-07-12T11:55:23Z</time>
      </trkpt>
      <trkpt lat="60.0203323" lon="17.534593">
        <ele>31.8607</ele>
        <time>2014-07-12T11:55:24Z</time>
      </trkpt>
      <trkpt lat="60.0202672" lon="17.5345607">
        <ele>31.8607</ele>
        <time>2014-07-12T11:55:25Z</time>
      </trkpt>
      <trkpt lat="60.0202019" lon="17.534533">
        <ele>32.3416</ele>
        <time>2014-07-12T11:55:26Z</time>
      </trkpt>
      <trkpt lat="60.0201376" lon="17.5345091">
        <ele>32.3416</ele>
        <time>2014-07-12T11:55:27Z</time>
      </trkpt>
      <trkpt lat="60.0200748" lon="17.5344882">
        <ele>32.3416</ele>
        <time>2014-07-12T11:55:28Z</time>
      </trkpt>
      <trkpt lat="60.0200112" lon="17.5344689">
        <ele>32.3416</ele>
        <time>2014-07-12T11:55:29Z</time>
      </trkpt>
      <trkpt lat="60.0199472" lon="17.5344539">
        <ele>32.3416</ele>
        <time>2014-07-12T11:55:30Z</time>
      </trkpt>
      <trkpt lat="60.0198826" lon="17.5344434">
        <ele>32.3416</ele>
        <time>2014-07-12T11:55:31Z</time>
      </trkpt>
      <trkpt lat="60.0198179" lon="17.5344361">
        <ele>32.3416</ele>
        <time>2014-07-12T11:55:32Z</time>
      </trkpt>
      <trkpt lat="60.0197531" lon="17.5344325">
        <ele>32.3416</ele>
        <time>2014-07-12T11:55:33Z</time>
      </trkpt>
      <trkpt lat="60.0196877" lon="17.5344307">
        <ele>32.3416</ele>
        <time>2014-07-12T11:55:34Z</time>
      </trkpt>
      <trkpt lat="60.0196221" lon="17.5344314">
        <ele>32.3416</ele>
        <time>2014-07-12T11:55:35Z</time>
      </trkpt>
      <trkpt lat="60.0195563" lon="17.5344347">
        <ele>32.3416</ele>
        <time>2014-07-12T11:55:36Z</time>
      </trkpt>
      <trkpt lat="60.0194903" lon="17.534439">
        <ele>32.3416</ele>
        <time>2014-07-12T11:55:37Z</time>
      </trkpt>
      <trkpt lat="60.0194237" lon="17.5344446">
        <ele>32.3416</ele>
        <time>2014-07-12T11:55:38Z</time>
      </trkpt>
      <trkpt lat="60.0193569" lon="17.5344518">
        <ele>31.8607</ele>
        <time>2014-07-12T11:55:39Z</time>
      </trkpt>
      <trkpt lat="60.0192901" lon="17.5344601">
        <ele>31.8607</ele>
        <time>2014-07-12T11:55:40Z</time>
      </trkpt>
      <trkpt lat="60.0192237" lon="17.5344696">
        <ele>31.8607</ele>
        <time>2014-07-12T11:55:41Z</time>
      </trkpt>
      <trkpt lat="60.0191569" lon="17.5344803">
        <ele>31.8607</ele>
        <time>2014-07-12T11:55:42Z</time>
      </trkpt>
      <trkpt lat="60.0190897" lon="17.5344908">
        <ele>31.8607</ele>
        <time>2014-07-12T11:55:43Z</time>
      </trkpt>
      <trkpt lat="60.0190221" lon="17.5345011">
        <ele>31.8607</ele>
        <time>2014-07-12T11:55:44Z</time>
      </trkpt>
      <trkpt lat="60.0189539" lon="17.5345113">
        <ele>31.3801</ele>
        <time>2014-07-12T11:55:45Z</time>
      </trkpt>
      <trkpt lat="60.0188854" lon="17.5345202">
        <ele>31.3801</ele>
        <time>2014-07-12T11:55:46Z</time>
      </trkpt>
      <trkpt lat="60.0188161" lon="17.5345284">
        <ele>31.3801</ele>
        <time>2014-07-12T11:55:47Z</time>
      </trkpt>
      <trkpt lat="60.0187461" lon="17.5345373">
        <ele>31.3801</ele>
        <time>2014-07-12T11:55:48Z</time>
      </trkpt>
      <trkpt lat="60.018676" lon="17.5345477">
        <ele>31.3801</ele>
        <time>2014-07-12T11:55:49Z</time>
      </trkpt>
      <trkpt lat="60.0186058" lon="17.5345576">
        <ele>30.8995</ele>
        <time>2014-07-12T11:55:50Z</time>
      </trkpt>
      <trkpt lat="60.0185357" lon="17.5345671">
        <ele>31.3801</ele>
        <time>2014-07-12T11:55:51Z</time>
      </trkpt>
      <trkpt lat="60.0184662" lon="17.5345777">
        <ele>31.3801</ele>
        <time>2014-07-12T11:55:52Z</time>
      </trkpt>
      <trkpt lat="60.0183976" lon="17.5345869">
        <ele>31.3801</ele>
        <time>2014-07-12T11:55:53Z</time>
      </trkpt>
      <trkpt lat="60.0183287" lon="17.5345952">
        <ele>31.3801</ele>
        <time>2014-07-12T11:55:54Z</time>
      </trkpt>
      <trkpt lat="60.0182597" lon="17.5346034">
        <ele>31.3801</ele>
        <time>2014-07-12T11:55:55Z</time>
      </trkpt>
      <trkpt lat="60.0181907" lon="17.5346112">
        <ele>31.3801</ele>
        <time>2014-07-12T11:55:56Z</time>
      </trkpt>
      <trkpt lat="60.0181219" lon="17.5346186">
        <ele>31.3801</ele>
        <time>2014-07-12T11:55:57Z</time>
      </trkpt>
      <trkpt lat="60.0180532" lon="17.5346269">
        <ele>31.3801</ele>
        <time>2014-07-12T11:55:58Z</time>
      </trkpt>
      <trkpt lat="60.0179846" lon="17.5346342">
        <ele>31.8607</ele>
        <time>2014-07-12T11:55:59Z</time>
      </trkpt>
      <trkpt lat="60.0179158" lon="17.5346397">
        <ele>31.8607</ele>
        <time>2014-07-12T11:56:00Z</time>
      </trkpt>
      <trkpt lat="60.0178474" lon="17.534644">
        <ele>31.8607</ele>
        <time>2014-07-12T11:56:01Z</time>
      </trkpt>
      <trkpt lat="60.0177791" lon="17.534647">
        <ele>31.8607</ele>
        <time>2014-07-12T11:56:02Z</time>
      </trkpt>
      <trkpt lat="60.017711" lon="17.5346491">
        <ele>31.8607</ele>
        <time>2014-07-12T11:56:03Z</time>
      </trkpt>
      <trkpt lat="60.0176432" lon="17.5346505">
        <ele>32.3416</ele>
        <time>2014-07-12T11:56:04Z</time>
      </trkpt>
      <trkpt lat="60.0175754" lon="17.5346505">
        <ele>32.3416</ele>
        <time>2014-07-12T11:56:05Z</time>
      </trkpt>
      <trkpt lat="60.0175074" lon="17.5346487">
        <ele>32.3416</ele>
        <time>2014-07-12T11:56:06Z</time>
      </trkpt>
      <trkpt lat="60.0174392" lon="17.5346461">
        <ele>32.3416</ele>
        <time>2014-07-12T11:56:07Z</time>
      </trkpt>
      <trkpt lat="60.0173717" lon="17.53464">
        <ele>32.3416</ele>
        <time>2014-07-12T11:56:08Z</time>
      </trkpt>
      <trkpt lat="60.0173046" lon="17.5346326">
        <ele>32.3416</ele>
        <time>2014-07-12T11:56:09Z</time>
      </trkpt>
      <trkpt lat="60.0172377" lon="17.5346258">
        <ele>32.3416</ele>
        <time>2014-07-12T11:56:10Z</time>
      </trkpt>
      <trkpt lat="60.0171699" lon="17.5346169">
        <ele>32.3416</ele>
        <time>2014-07-12T11:56:11Z</time>
      </trkpt>
      <trkpt lat="60.0171008" lon="17.5346057">
        <ele>32.3416</ele>
        <time>2014-07-12T11:56:12Z</time>
      </trkpt>
      <trkpt lat="60.0170316" lon="17.5345944">
        <ele>32.3416</ele>
        <time>2014-07-12T11:56:13Z</time>
      </trkpt>
      <trkpt lat="60.0169627" lon="17.5345819">
        <ele>32.3416</ele>
        <time>2014-07-12T11:56:14Z</time>
      </trkpt>
      <trkpt lat="60.0168941" lon="17.5345661">
        <ele>32.3416</ele>
        <time>2014-07-12T11:56:15Z</time>
      </trkpt>
      <trkpt lat="60.016825" lon="17.5345482">
        <ele>32.3416</ele>
        <time>2014-07-12T11:56:16Z</time>
      </trkpt>
      <trkpt lat="60.016756" lon="17.5345286">
        <ele>32.3416</ele>
        <time>2014-07-12T11:56:17Z</time>
      </trkpt>
      <trkpt lat="60.0166871" lon="17.5345057">
        <ele>32.3416</ele>
        <time>2014-07-12T11:56:18Z</time>
      </trkpt>
      <trkpt lat="60.0166185" lon="17.5344815">
        <ele>31.8607</ele>
        <time>2014-07-12T11:56:19Z</time>
      </trkpt>
      <trkpt lat="60.0165498" lon="17.5344575">
        <ele>31.8607</ele>
        <time>2014-07-12T11:56:20Z</time>
      </trkpt>
      <trkpt lat="60.0164812" lon="17.5344305">
        <ele>31.8607</ele>
        <time>2014-07-12T11:56:21Z</time>
      </trkpt>
      <trkpt lat="60.0164125" lon="17.5344016">
        <ele>31.8607</ele>
        <time>2014-07-12T11:56:22Z</time>
      </trkpt>
      <trkpt lat="60.0163436" lon="17.5343745">
        <ele>31.8607</ele>
        <time>2014-07-12T11:56:23Z</time>
      </trkpt>
      <trkpt lat="60.0162733" lon="17.5343498">
        <ele>31.8607</ele>
        <time>2014-07-12T11:56:24Z</time>
      </trkpt>
      <trkpt lat="60.0162027" lon="17.5343229">
        <ele>31.8607</ele>
        <time>2014-07-12T11:56:25Z</time>
      </trkpt>
      <trkpt lat="60.0161312" lon="17.5342957">
        <ele>31.8607</ele>
        <time>2014-07-12T11:56:26Z</time>
      </trkpt>
      <trkpt lat="60.0160592" lon="17.5342694">
        <ele>31.8607</ele>
        <time>2014-07-12T11:56:27Z</time>
      </trkpt>
      <trkpt lat="60.0159867" lon="17.534242">
        <ele>31.8607</ele>
        <time>2014-07-12T11:56:28Z</time>
      </trkpt>
      <trkpt lat="60.0159141" lon="17.5342135">
        <ele>31.8607</ele>
        <time>2014-07-12T11:56:29Z</time>
      </trkpt>
      <trkpt lat="60.0158412" lon="17.5341845">
        <ele>31.8607</ele>
        <time>2014-07-12T11:56:30Z</time>
      </trkpt>
      <trkpt lat="60.0157685" lon="17.5341555">
        <ele>31.8607</ele>
        <time>2014-07-12T11:56:31Z</time>
      </trkpt>
      <trkpt lat="60.0156954" lon="17.534127">
        <ele>31.8607</ele>
        <time>2014-07-12T11:56:32Z</time>
      </trkpt>
      <trkpt lat="60.0156221" lon="17.534098">
        <ele>31.8607</ele>
        <time>2014-07-12T11:56:33Z</time>
      </trkpt>
      <trkpt lat="60.0155486" lon="17.5340685">
        <ele>31.8607</ele>
        <time>2014-07-12T11:56:34Z</time>
      </trkpt>
      <trkpt lat="60.0154747" lon="17.5340405">
        <ele>32.3416</ele>
        <time>2014-07-12T11:56:35Z</time>
      </trkpt>
      <trkpt lat="60.0154003" lon="17.5340127">
        <ele>32.3416</ele>
        <time>2014-07-12T11:56:36Z</time>
      </trkpt>
      <trkpt lat="60.0153253" lon="17.5339825">
        <ele>32.3416</ele>
        <time>2014-07-12T11:56:37Z</time>
      </trkpt>
      <trkpt lat="60.0152496" lon="17.533952">
        <ele>32.3416</ele>
        <time>2014-07-12T11:56:38Z</time>
      </trkpt>
      <trkpt lat="60.0151729" lon="17.5339225">
        <ele>32.3416</ele>
        <time>2014-07-12T11:56:39Z</time>
      </trkpt>
      <trkpt lat="60.0150958" lon="17.5338939">
        <ele>32.3416</ele>
        <time>2014-07-12T11:56:40Z</time>
      </trkpt>
      <trkpt lat="60.0150201" lon="17.5338656">
        <ele>32.3416</ele>
        <time>2014-07-12T11:56:41Z</time>
      </trkpt>
      <trkpt lat="60.0149453" lon="17.5338381">
        <ele>32.3416</ele>
        <time>2014-07-12T11:56:42Z</time>
      </trkpt>
      <trkpt lat="60.0148709" lon="17.5338103">
        <ele>32.8223</ele>
        <time>2014-07-12T11:56:43Z</time>
      </trkpt>
      <trkpt lat="60.0147964" lon="17.5337821">
        <ele>32.8223</ele>
        <time>2014-07-12T11:56:44Z</time>
      </trkpt>
      <trkpt lat="60.0147215" lon="17.5337528">
        <ele>32.8223</ele>
        <time>2014-07-12T11:56:45Z</time>
      </trkpt>
      <trkpt lat="60.0146466" lon="17.5337215">
        <ele>32.8223</ele>
        <time>2014-07-12T11:56:46Z</time>
      </trkpt>
      <trkpt lat="60.0145718" lon="17.5336914">
        <ele>32.8223</ele>
        <time>2014-07-12T11:56:47Z</time>
      </trkpt>
      <trkpt lat="60.0144959" lon="17.5336624">
        <ele>32.8223</ele>
        <time>2014-07-12T11:56:48Z</time>
      </trkpt>
      <trkpt lat="60.0144187" lon="17.5336323">
        <ele>32.8223</ele>
        <time>2014-07-12T11:56:49Z</time>
      </trkpt>
      <trkpt lat="60.0143409" lon="17.5336019">
        <ele>32.8223</ele>
        <time>2014-07-12T11:56:50Z</time>
      </trkpt>
      <trkpt lat="60.0142626" lon="17.5335729">
        <ele>33.3029</ele>
        <time>2014-07-12T11:56:51Z</time>
      </trkpt>
      <trkpt lat="60.0141841" lon="17.5335458">
        <ele>33.3029</ele>
        <time>2014-07-12T11:56:52Z</time>
      </trkpt>
      <trkpt lat="60.014106" lon="17.5335205">
        <ele>33.3029</ele>
        <time>2014-07-12T11:56:53Z</time>
      </trkpt>
      <trkpt lat="60.0140288" lon="17.5334947">
        <ele>33.3029</ele>
        <time>2014-07-12T11:56:54Z</time>
      </trkpt>
      <trkpt lat="60.013953" lon="17.5334661">
        <ele>33.3029</ele>
        <time>2014-07-12T11:56:55Z</time>
      </trkpt>
      <trkpt lat="60.0138773" lon="17.533436">
        <ele>33.3029</ele>
        <time>2014-07-12T11:56:56Z</time>
      </trkpt>
      <trkpt lat="60.0138007" lon="17.5334058">
        <ele>33.7834</ele>
        <time>2014-07-12T11:56:57Z</time>
      </trkpt>
      <trkpt lat="60.0137245" lon="17.5333748">
        <ele>33.7834</ele>
        <time>2014-07-12T11:56:58Z</time>
      </trkpt>
      <trkpt lat="60.0136483" lon="17.5333434">
        <ele>33.7834</ele>
        <time>2014-07-12T11:56:59Z</time>
      </trkpt>
      <trkpt lat="60.0135723" lon="17.5333123">
        <ele>33.7834</ele>
        <time>2014-07-12T11:57:00Z</time>
      </trkpt>
      <trkpt lat="60.0134967" lon="17.5332812">
        <ele>33.7834</ele>
        <time>2014-07-12T11:57:01Z</time>
      </trkpt>
      <trkpt lat="60.0134208" lon="17.533251">
        <ele>33.7834</ele>
        <time>2014-07-12T11:57:02Z</time>
      </trkpt>
      <trkpt lat="60.0133444" lon="17.5332212">
        <ele>34.2642</ele>
        <time>2014-07-12T11:57:03Z</time>
      </trkpt>
      <trkpt lat="60.013268" lon="17.5331887">
        <ele>34.2642</ele>
        <time>2014-07-12T11:57:04Z</time>
      </trkpt>
      <trkpt lat="60.0131915" lon="17.5331519">
        <ele>34.2642</ele>
        <time>2014-07-12T11:57:05Z</time>
      </trkpt>
      <trkpt lat="60.0131152" lon="17.5331112">
        <ele>34.2642</ele>
        <time>2014-07-12T11:57:06Z</time>
      </trkpt>
      <trkpt lat="60.0130389" lon="17.5330678">
        <ele>34.2642</ele>
        <time>2014-07-12T11:57:07Z</time>
      </trkpt>
      <trkpt lat="60.0129631" lon="17.5330222">
        <ele>34.2642</ele>
        <time>2014-07-12T11:57:08Z</time>
      </trkpt>
      <trkpt lat="60.0128876" lon="17.5329746">
        <ele>34.2642</ele>
        <time>2014-07-12T11:57:09Z</time>
      </trkpt>
      <trkpt lat="60.0128135" lon="17.5329257">
        <ele>34.7449</ele>
        <time>2014-07-12T11:57:10Z</time>
      </trkpt>
      <trkpt lat="60.0127407" lon="17.5328775">
        <ele>34.7449</ele>
        <time>2014-07-12T11:57:11Z</time>
      </trkpt>
      <trkpt lat="60.0126683" lon="17.5328298">
        <ele>34.7449</ele>
        <time>2014-07-12T11:57:12Z</time>
      </trkpt>
      <trkpt lat="60.0125959" lon="17.532781">
        <ele>34.7449</ele>
        <time>2014-07-12T11:57:13Z</time>
      </trkpt>
      <trkpt lat="60.0125226" lon="17.532731">
        <ele>34.7449</ele>
        <time>2014-07-12T11:57:14Z</time>
      </trkpt>
      <trkpt lat="60.0124487" lon="17.5326776">
        <ele>35.2255</ele>
        <time>2014-07-12T11:57:15Z</time>
      </trkpt>
      <trkpt lat="60.0123747" lon="17.5326234">
        <ele>35.2255</ele>
        <time>2014-07-12T11:57:16Z</time>
      </trkpt>
      <trkpt lat="60.0123009" lon="17.5325699">
        <ele>35.2255</ele>
        <time>2014-07-12T11:57:17Z</time>
      </trkpt>
      <trkpt lat="60.012228" lon="17.5325166">
        <ele>35.2255</ele>
        <time>2014-07-12T11:57:18Z</time>
      </trkpt>
      <trkpt lat="60.0121558" lon="17.5324627">
        <ele>35.7061</ele>
        <time>2014-07-12T11:57:19Z</time>
      </trkpt>
      <trkpt lat="60.0120844" lon="17.5324086">
        <ele>35.7061</ele>
        <time>2014-07-12T11:57:20Z</time>
      </trkpt>
      <trkpt lat="60.0120131" lon="17.5323542">
        <ele>35.7061</ele>
        <time>2014-07-12T11:57:21Z</time>
      </trkpt>
      <trkpt lat="60.0119424" lon="17.5322979">
        <ele>35.7061</ele>
        <time>2014-07-12T11:57:22Z</time>
      </trkpt>
      <trkpt lat="60.0118715" lon="17.5322418">
        <ele>35.7061</ele>
        <time>2014-07-12T11:57:23Z</time>
      </trkpt>
      <trkpt lat="60.0117998" lon="17.5321881">
        <ele>35.7061</ele>
        <time>2014-07-12T11:57:24Z</time>
      </trkpt>
      <trkpt lat="60.0117277" lon="17.5321364">
        <ele>36.1868</ele>
        <time>2014-07-12T11:57:25Z</time>
      </trkpt>
      <trkpt lat="60.0116561" lon="17.5320856">
        <ele>36.1868</ele>
        <time>2014-07-12T11:57:26Z</time>
      </trkpt>
      <trkpt lat="60.011585" lon="17.5320352">
        <ele>36.1868</ele>
        <time>2014-07-12T11:57:27Z</time>
      </trkpt>
      <trkpt lat="60.0115143" lon="17.5319836">
        <ele>36.1868</ele>
        <time>2014-07-12T11:57:28Z</time>
      </trkpt>
      <trkpt lat="60.0114443" lon="17.5319301">
        <ele>36.1868</ele>
        <time>2014-07-12T11:57:29Z</time>
      </trkpt>
      <trkpt lat="60.0113744" lon="17.5318764">
        <ele>36.1868</ele>
        <time>2014-07-12T11:57:30Z</time>
      </trkpt>
      <trkpt lat="60.0113038" lon="17.5318246">
        <ele>36.1868</ele>
        <time>2014-07-12T11:57:31Z</time>
      </trkpt>
      <trkpt lat="60.0112326" lon="17.5317726">
        <ele>36.1868</ele>
        <time>2014-07-12T11:57:32Z</time>
      </trkpt>
      <trkpt lat="60.0111618" lon="17.5317197">
        <ele>36.1868</ele>
        <time>2014-07-12T11:57:33Z</time>
      </trkpt>
      <trkpt lat="60.011091" lon="17.5316673">
        <ele>36.6675</ele>
        <time>2014-07-12T11:57:34Z</time>
      </trkpt>
      <trkpt lat="60.0110207" lon="17.5316137">
        <ele>36.6675</ele>
        <time>2014-07-12T11:57:35Z</time>
      </trkpt>
      <trkpt lat="60.0109505" lon="17.5315603">
        <ele>36.6675</ele>
        <time>2014-07-12T11:57:36Z</time>
      </trkpt>
      <trkpt lat="60.0108797" lon="17.5315085">
        <ele>36.6675</ele>
        <time>2014-07-12T11:57:37Z</time>
      </trkpt>
      <trkpt lat="60.0108085" lon="17.5314555">
        <ele>36.6675</ele>
        <time>2014-07-12T11:57:38Z</time>
      </trkpt>
      <trkpt lat="60.0107367" lon="17.5314018">
        <ele>36.6675</ele>
        <time>2014-07-12T11:57:39Z</time>
      </trkpt>
      <trkpt lat="60.0106641" lon="17.5313515">
        <ele>36.6675</ele>
        <time>2014-07-12T11:57:40Z</time>
      </trkpt>
      <trkpt lat="60.0105896" lon="17.5313052">
        <ele>36.6675</ele>
        <time>2014-07-12T11:57:41Z</time>
      </trkpt>
      <trkpt lat="60.0105146" lon="17.5312578">
        <ele>36.6675</ele>
        <time>2014-07-12T11:57:42Z</time>
      </trkpt>
      <trkpt lat="60.0104383" lon="17.5312086">
        <ele>36.6675</ele>
        <time>2014-07-12T11:57:43Z</time>
      </trkpt>
      <trkpt lat="60.0103601" lon="17.5311599">
        <ele>36.1868</ele>
        <time>2014-07-12T11:57:44Z</time>
      </trkpt>
      <trkpt lat="60.0102809" lon="17.5311097">
        <ele>36.1868</ele>
        <time>2014-07-12T11:57:45Z</time>
      </trkpt>
      <trkpt lat="60.0102017" lon="17.5310568">
        <ele>36.1868</ele>
        <time>2014-07-12T11:57:46Z</time>
      </trkpt>
      <trkpt lat="60.0101223" lon="17.5310024">
        <ele>36.1868</ele>
        <time>2014-07-12T11:57:47Z</time>
      </trkpt>
      <trkpt lat="60.0100425" lon="17.5309484">
        <ele>36.1868</ele>
        <time>2014-07-12T11:57:48Z</time>
      </trkpt>
      <trkpt lat="60.0099632" lon="17.5308948">
        <ele>36.1868</ele>
        <time>2014-07-12T11:57:49Z</time>
      </trkpt>
      <trkpt lat="60.0098844" lon="17.5308443">
        <ele>36.1868</ele>
        <time>2014-07-12T11:57:50Z</time>
      </trkpt>
      <trkpt lat="60.009806" lon="17.5307957">
        <ele>36.1868</ele>
        <time>2014-07-12T11:57:51Z</time>
      </trkpt>
      <trkpt lat="60.0097286" lon="17.5307477">
        <ele>36.1868</ele>
        <time>2014-07-12T11:57:52Z</time>
      </trkpt>
      <trkpt lat="60.0096518" lon="17.5306999">
        <ele>35.7061</ele>
        <time>2014-07-12T11:57:53Z</time>
      </trkpt>
      <trkpt lat="60.0095757" lon="17.5306522">
        <ele>35.7061</ele>
        <time>2014-07-12T11:57:54Z</time>
      </trkpt>
      <trkpt lat="60.0094997" lon="17.530606">
        <ele>35.7061</ele>
        <time>2014-07-12T11:57:55Z</time>
      </trkpt>
      <trkpt lat="60.0094237" lon="17.5305595">
        <ele>35.7061</ele>
        <time>2014-07-12T11:57:56Z</time>
      </trkpt>
      <trkpt lat="60.0093475" lon="17.5305113">
        <ele>35.7061</ele>
        <time>2014-07-12T11:57:57Z</time>
      </trkpt>
      <trkpt lat="60.0092712" lon="17.5304616">
        <ele>35.2255</ele>
        <time>2014-07-12T11:57:58Z</time>
      </trkpt>
      <trkpt lat="60.0091946" lon="17.5304123">
        <ele>35.2255</ele>
        <time>2014-07-12T11:57:59Z</time>
      </trkpt>
      <trkpt lat="60.0091183" lon="17.5303632">
        <ele>35.2255</ele>
        <time>2014-07-12T11:58:00Z</time>
      </trkpt>
      <trkpt lat="60.0090421" lon="17.5303153">
        <ele>35.2255</ele>
        <time>2014-07-12T11:58:01Z</time>
      </trkpt>
      <trkpt lat="60.0089661" lon="17.5302694">
        <ele>35.2255</ele>
        <time>2014-07-12T11:58:02Z</time>
      </trkpt>
      <trkpt lat="60.0088909" lon="17.5302219">
        <ele>35.2255</ele>
        <time>2014-07-12T11:58:03Z</time>
      </trkpt>
      <trkpt lat="60.0088157" lon="17.5301723">
        <ele>35.2255</ele>
        <time>2014-07-12T11:58:04Z</time>
      </trkpt>
      <trkpt lat="60.0087402" lon="17.5301229">
        <ele>35.2255</ele>
        <time>2014-07-12T11:58:05Z</time>
      </trkpt>
      <trkpt lat="60.0086646" lon="17.5300752">
        <ele>35.2255</ele>
        <time>2014-07-12T11:58:06Z</time>
      </trkpt>
      <trkpt lat="60.008589" lon="17.530029">
        <ele>35.2255</ele>
        <time>2014-07-12T11:58:07Z</time>
      </trkpt>
      <trkpt lat="60.008513" lon="17.529984">
        <ele>35.7061</ele>
        <time>2014-07-12T11:58:08Z</time>
      </trkpt>
      <trkpt lat="60.0084369" lon="17.5299369">
        <ele>35.7061</ele>
        <time>2014-07-12T11:58:09Z</time>
      </trkpt>
      <trkpt lat="60.0083606" lon="17.529888">
        <ele>35.7061</ele>
        <time>2014-07-12T11:58:10Z</time>
      </trkpt>
      <trkpt lat="60.0082834" lon="17.5298388">
        <ele>35.7061</ele>
        <time>2014-07-12T11:58:11Z</time>
      </trkpt>
      <trkpt lat="60.008206" lon="17.5297903">
        <ele>35.7061</ele>
        <time>2014-07-12T11:58:12Z</time>
      </trkpt>
      <trkpt lat="60.0081288" lon="17.5297411">
        <ele>35.7061</ele>
        <time>2014-07-12T11:58:13Z</time>
      </trkpt>
      <trkpt lat="60.0080514" lon="17.5296932">
        <ele>35.7061</ele>
        <time>2014-07-12T11:58:14Z</time>
      </trkpt>
      <trkpt lat="60.007974" lon="17.529646">
        <ele>35.7061</ele>
        <time>2014-07-12T11:58:15Z</time>
      </trkpt>
      <trkpt lat="60.0078974" lon="17.5295981">
        <ele>35.7061</ele>
        <time>2014-07-12T11:58:16Z</time>
      </trkpt>
      <trkpt lat="60.0078213" lon="17.5295516">
        <ele>35.7061</ele>
        <time>2014-07-12T11:58:17Z</time>
      </trkpt>
      <trkpt lat="60.0077453" lon="17.5295042">
        <ele>35.7061</ele>
        <time>2014-07-12T11:58:18Z</time>
      </trkpt>
      <trkpt lat="60.0076691" lon="17.5294552">
        <ele>35.7061</ele>
        <time>2014-07-12T11:58:19Z</time>
      </trkpt>
      <trkpt lat="60.0075925" lon="17.5294024">
        <ele>35.7061</ele>
        <time>2014-07-12T11:58:20Z</time>
      </trkpt>
      <trkpt lat="60.0075161" lon="17.5293474">
        <ele>35.7061</ele>
        <time>2014-07-12T11:58:21Z</time>
      </trkpt>
      <trkpt lat="60.0074397" lon="17.5292889">
        <ele>35.2255</ele>
        <time>2014-07-12T11:58:22Z</time>
      </trkpt>
      <trkpt lat="60.0073645" lon="17.5292246">
        <ele>35.2255</ele>
        <time>2014-07-12T11:58:23Z</time>
      </trkpt>
      <trkpt lat="60.0072909" lon="17.5291541">
        <ele>35.2255</ele>
        <time>2014-07-12T11:58:24Z</time>
      </trkpt>
      <trkpt lat="60.0072187" lon="17.5290778">
        <ele>35.2255</ele>
        <time>2014-07-12T11:58:25Z</time>
      </trkpt>
      <trkpt lat="60.0071482" lon="17.5289962">
        <ele>35.2255</ele>
        <time>2014-07-12T11:58:26Z</time>
      </trkpt>
      <trkpt lat="60.0070793" lon="17.5289106">
        <ele>34.7449</ele>
        <time>2014-07-12T11:58:27Z</time>
      </trkpt>
      <trkpt lat="60.0070122" lon="17.5288209">
        <ele>34.7449</ele>
        <time>2014-07-12T11:58:28Z</time>
      </trkpt>
      <trkpt lat="60.0069467" lon="17.5287255">
        <ele>34.7449</ele>
        <time>2014-07-12T11:58:29Z</time>
      </trkpt>
      <trkpt lat="60.0068827" lon="17.5286264">
        <ele>34.2642</ele>
        <time>2014-07-12T11:58:30Z</time>
      </trkpt>
      <trkpt lat="60.0068193" lon="17.5285258">
        <ele>34.2642</ele>
        <time>2014-07-12T11:58:31Z</time>
      </trkpt>
      <trkpt lat="60.0067569" lon="17.5284222">
        <ele>34.2642</ele>
        <time>2014-07-12T11:58:32Z</time>
      </trkpt>
      <trkpt lat="60.0066972" lon="17.5283129">
        <ele>34.2642</ele>
        <time>2014-07-12T11:58:33Z</time>
      </trkpt>
      <trkpt lat="60.0066391" lon="17.5281999">
        <ele>34.2642</ele>
        <time>2014-07-12T11:58:34Z</time>
      </trkpt>
      <trkpt lat="60.0065812" lon="17.5280864">
        <ele>34.2642</ele>
        <time>2014-07-12T11:58:35Z</time>
      </trkpt>
      <trkpt lat="60.0065243" lon="17.527971">
        <ele>33.7834</ele>
        <time>2014-07-12T11:58:36Z</time>
      </trkpt>
      <trkpt lat="60.0064692" lon="17.5278503">
        <ele>33.7834</ele>
        <time>2014-07-12T11:58:37Z</time>
      </trkpt>
      <trkpt lat="60.0064175" lon="17.5277244">
        <ele>33.7834</ele>
        <time>2014-07-12T11:58:38Z</time>
      </trkpt>
      <trkpt lat="60.0063688" lon="17.5275948">
        <ele>33.7834</ele>
        <time>2014-07-12T11:58:39Z</time>
      </trkpt>
      <trkpt lat="60.0063217" lon="17.5274634">
        <ele>33.7834</ele>
        <time>2014-07-12T11:58:40Z</time>
      </trkpt>
      <trkpt lat="60.0062761" lon="17.5273306">
        <ele>33.3029</ele>
        <time>2014-07-12T11:58:41Z</time>
      </trkpt>
      <trkpt lat="60.006232" lon="17.527197">
        <ele>33.3029</ele>
        <time>2014-07-12T11:58:42Z</time>
      </trkpt>
      <trkpt lat="60.0061896" lon="17.5270615">
        <ele>33.3029</ele>
        <time>2014-07-12T11:58:43Z</time>
      </trkpt>
      <trkpt lat="60.0061491" lon="17.5269249">
        <ele>33.3029</ele>
        <time>2014-07-12T11:58:44Z</time>
      </trkpt>
      <trkpt lat="60.0061096" lon="17.526788">
        <ele>33.3029</ele>
        <time>2014-07-12T11:58:45Z</time>
      </trkpt>
      <trkpt lat="60.0060706" lon="17.5266506">
        <ele>33.3029</ele>
        <time>2014-07-12T11:58:46Z</time>
      </trkpt>
      <trkpt lat="60.0060319" lon="17.5265126">
        <ele>33.3029</ele>
        <time>2014-07-12T11:58:47Z</time>
      </trkpt>
      <trkpt lat="60.0059922" lon="17.526373">
        <ele>33.3029</ele>
        <time>2014-07-12T11:58:48Z</time>
      </trkpt>
      <trkpt lat="60.0059524" lon="17.5262334">
        <ele>33.3029</ele>
        <time>2014-07-12T11:58:49Z</time>
      </trkpt>
      <trkpt lat="60.005913" lon="17.5260948">
        <ele>32.8223</ele>
        <time>2014-07-12T11:58:50Z</time>
      </trkpt>
      <trkpt lat="60.005874" lon="17.5259564">
        <ele>32.8223</ele>
        <time>2014-07-12T11:58:51Z</time>
      </trkpt>
      <trkpt lat="60.0058356" lon="17.5258187">
        <ele>32.8223</ele>
        <time>2014-07-12T11:58:52Z</time>
      </trkpt>
      <trkpt lat="60.0057975" lon="17.5256803">
        <ele>32.8223</ele>
        <time>2014-07-12T11:58:53Z</time>
      </trkpt>
      <trkpt lat="60.0057592" lon="17.5255422">
        <ele>32.8223</ele>
        <time>2014-07-12T11:58:54Z</time>
      </trkpt>
      <trkpt lat="60.0057206" lon="17.5254051">
        <ele>32.8223</ele>
        <time>2014-07-12T11:58:55Z</time>
      </trkpt>
      <trkpt lat="60.005682" lon="17.5252676">
        <ele>33.3029</ele>
        <time>2014-07-12T11:58:56Z</time>
      </trkpt>
      <trkpt lat="60.0056432" lon="17.5251306">
        <ele>33.3029</ele>
        <time>2014-07-12T11:58:57Z</time>
      </trkpt>
      <trkpt lat="60.0056048" lon="17.5249935">
        <ele>33.3029</ele>
        <time>2014-07-12T11:58:58Z</time>
      </trkpt>
      <trkpt lat="60.0055665" lon="17.5248561">
        <ele>33.3029</ele>
        <time>2014-07-12T11:58:59Z</time>
      </trkpt>
      <trkpt lat="60.0055279" lon="17.5247187">
        <ele>33.3029</ele>
        <time>2014-07-12T11:59:00Z</time>
      </trkpt>
      <trkpt lat="60.0054896" lon="17.5245797">
        <ele>33.3029</ele>
        <time>2014-07-12T11:59:01Z</time>
      </trkpt>
      <trkpt lat="60.0054514" lon="17.5244395">
        <ele>32.8223</ele>
        <time>2014-07-12T11:59:02Z</time>
      </trkpt>
      <trkpt lat="60.0054126" lon="17.5242986">
        <ele>32.8223</ele>
        <time>2014-07-12T11:59:03Z</time>
      </trkpt>
      <trkpt lat="60.0053731" lon="17.5241568">
        <ele>32.8223</ele>
        <time>2014-07-12T11:59:04Z</time>
      </trkpt>
      <trkpt lat="60.0053333" lon="17.5240146">
        <ele>32.8223</ele>
        <time>2014-07-12T11:59:05Z</time>
      </trkpt>
      <trkpt lat="60.005294" lon="17.5238725">
        <ele>32.8223</ele>
        <time>2014-07-12T11:59:06Z</time>
      </trkpt>
      <trkpt lat="60.0052544" lon="17.5237311">
        <ele>32.8223</ele>
        <time>2014-07-12T11:59:07Z</time>
      </trkpt>
      <trkpt lat="60.0052146" lon="17.5235893">
        <ele>32.8223</ele>
        <time>2014-07-12T11:59:08Z</time>
      </trkpt>
      <trkpt lat="60.0051747" lon="17.5234461">
        <ele>32.8223</ele>
        <time>2014-07-12T11:59:09Z</time>
      </trkpt>
      <trkpt lat="60.0051345" lon="17.5233027">
        <ele>32.8223</ele>
        <time>2014-07-12T11:59:10Z</time>
      </trkpt>
      <trkpt lat="60.0050939" lon="17.5231597">
        <ele>32.8223</ele>
        <time>2014-07-12T11:59:11Z</time>
      </trkpt>
      <trkpt lat="60.0050532" lon="17.5230162">
        <ele>32.8223</ele>
        <time>2014-07-12T11:59:12Z</time>
      </trkpt>
      <trkpt lat="60.0050127" lon="17.5228712">
        <ele>32.8223</ele>
        <time>2014-07-12T11:59:13Z</time>
      </trkpt>
      <trkpt lat="60.0049722" lon="17.5227246">
        <ele>32.8223</ele>
        <time>2014-07-12T11:59:14Z</time>
      </trkpt>
      <trkpt lat="60.0049318" lon="17.522577">
        <ele>32.8223</ele>
        <time>2014-07-12T11:59:15Z</time>
      </trkpt>
      <trkpt lat="60.0048911" lon="17.5224309">
        <ele>32.8223</ele>
        <time>2014-07-12T11:59:16Z</time>
      </trkpt>
      <trkpt lat="60.0048501" lon="17.522286">
        <ele>32.8223</ele>
        <time>2014-07-12T11:59:17Z</time>
      </trkpt>
      <trkpt lat="60.004809" lon="17.5221416">
        <ele>32.8223</ele>
        <time>2014-07-12T11:59:18Z</time>
      </trkpt>
      <trkpt lat="60.0047682" lon="17.5219978">
        <ele>32.8223</ele>
        <time>2014-07-12T11:59:19Z</time>
      </trkpt>
      <trkpt lat="60.0047279" lon="17.5218545">
        <ele>32.8223</ele>
        <time>2014-07-12T11:59:20Z</time>
      </trkpt>
      <trkpt lat="60.0046879" lon="17.5217128">
        <ele>32.8223</ele>
        <time>2014-07-12T11:59:21Z</time>
      </trkpt>
      <trkpt lat="60.0046479" lon="17.5215715">
        <ele>32.8223</ele>
        <time>2014-07-12T11:59:22Z</time>
      </trkpt>
      <trkpt lat="60.004608" lon="17.5214292">
        <ele>33.3029</ele>
        <time>2014-07-12T11:59:23Z</time>
      </trkpt>
      <trkpt lat="60.0045683" lon="17.5212869">
        <ele>32.8223</ele>
        <time>2014-07-12T11:59:24Z</time>
      </trkpt>
      <trkpt lat="60.0045285" lon="17.521144">
        <ele>32.8223</ele>
        <time>2014-07-12T11:59:25Z</time>
      </trkpt>
      <trkpt lat="60.0044885" lon="17.5210007">
        <ele>33.3029</ele>
        <time>2014-07-12T11:59:26Z</time>
      </trkpt>
      <trkpt lat="60.004448" lon="17.5208583">
        <ele>33.3029</ele>
        <time>2014-07-12T11:59:27Z</time>
      </trkpt>
      <trkpt lat="60.0044064" lon="17.5207171">
        <ele>33.3029</ele>
        <time>2014-07-12T11:59:28Z</time>
      </trkpt>
      <trkpt lat="60.0043645" lon="17.5205754">
        <ele>33.7834</ele>
        <time>2014-07-12T11:59:29Z</time>
      </trkpt>
      <trkpt lat="60.0043222" lon="17.5204345">
        <ele>33.7834</ele>
        <time>2014-07-12T11:59:30Z</time>
      </trkpt>
      <trkpt lat="60.0042793" lon="17.520294">
        <ele>33.7834</ele>
        <time>2014-07-12T11:59:31Z</time>
      </trkpt>
      <trkpt lat="60.0042356" lon="17.5201541">
        <ele>34.2642</ele>
        <time>2014-07-12T11:59:32Z</time>
      </trkpt>
      <trkpt lat="60.0041901" lon="17.520016">
        <ele>34.2642</ele>
        <time>2014-07-12T11:59:33Z</time>
      </trkpt>
      <trkpt lat="60.0041434" lon="17.5198803">
        <ele>34.2642</ele>
        <time>2014-07-12T11:59:34Z</time>
      </trkpt>
      <trkpt lat="60.0040961" lon="17.5197469">
        <ele>34.2642</ele>
        <time>2014-07-12T11:59:35Z</time>
      </trkpt>
      <trkpt lat="60.0040482" lon="17.5196151">
        <ele>34.7449</ele>
        <time>2014-07-12T11:59:36Z</time>
      </trkpt>
      <trkpt lat="60.0039994" lon="17.519485">
        <ele>34.7449</ele>
        <time>2014-07-12T11:59:37Z</time>
      </trkpt>
      <trkpt lat="60.0039496" lon="17.5193559">
        <ele>34.7449</ele>
        <time>2014-07-12T11:59:38Z</time>
      </trkpt>
      <trkpt lat="60.0038983" lon="17.5192295">
        <ele>34.7449</ele>
        <time>2014-07-12T11:59:39Z</time>
      </trkpt>
      <trkpt lat="60.0038455" lon="17.5191059">
        <ele>34.7449</ele>
        <time>2014-07-12T11:59:40Z</time>
      </trkpt>
      <trkpt lat="60.0037916" lon="17.5189847">
        <ele>35.2255</ele>
        <time>2014-07-12T11:59:41Z</time>
      </trkpt>
      <trkpt lat="60.0037363" lon="17.518865">
        <ele>35.2255</ele>
        <time>2014-07-12T11:59:42Z</time>
      </trkpt>
      <trkpt lat="60.0036802" lon="17.5187462">
        <ele>35.2255</ele>
        <time>2014-07-12T11:59:43Z</time>
      </trkpt>
      <trkpt lat="60.0036234" lon="17.518629">
        <ele>35.2255</ele>
        <time>2014-07-12T11:59:44Z</time>
      </trkpt>
      <trkpt lat="60.0035658" lon="17.5185143">
        <ele>35.2255</ele>
        <time>2014-07-12T11:59:45Z</time>
      </trkpt>
      <trkpt lat="60.0035074" lon="17.5184021">
        <ele>35.7061</ele>
        <time>2014-07-12T11:59:46Z</time>
      </trkpt>
      <trkpt lat="60.0034488" lon="17.5182931">
        <ele>35.7061</ele>
        <time>2014-07-12T11:59:47Z</time>
      </trkpt>
      <trkpt lat="60.0033893" lon="17.518188">
        <ele>35.7061</ele>
        <time>2014-07-12T11:59:48Z</time>
      </trkpt>
      <trkpt lat="60.003329" lon="17.5180822">
        <ele>36.1868</ele>
        <time>2014-07-12T11:59:49Z</time>
      </trkpt>
      <trkpt lat="60.0032689" lon="17.5179755">
        <ele>36.1868</ele>
        <time>2014-07-12T11:59:50Z</time>
      </trkpt>
      <trkpt lat="60.003209" lon="17.5178688">
        <ele>36.1868</ele>
        <time>2014-07-12T11:59:51Z</time>
      </trkpt>
      <trkpt lat="60.0031494" lon="17.5177622">
        <ele>36.6675</ele>
        <time>2014-07-12T11:59:52Z</time>
      </trkpt>
      <trkpt lat="60.0030899" lon="17.5176562">
        <ele>36.6675</ele>
        <time>2014-07-12T11:59:53Z</time>
      </trkpt>
      <trkpt lat="60.0030303" lon="17.5175519">
        <ele>37.1481</ele>
        <time>2014-07-12T11:59:54Z</time>
      </trkpt>
      <trkpt lat="60.0029703" lon="17.5174482">
        <ele>37.1481</ele>
        <time>2014-07-12T11:59:55Z</time>
      </trkpt>
      <trkpt lat="60.0029111" lon="17.5173435">
        <ele>37.1481</ele>
        <time>2014-07-12T11:59:56Z</time>
      </trkpt>
      <trkpt lat="60.002853" lon="17.5172399">
        <ele>37.6287</ele>
        <time>2014-07-12T11:59:57Z</time>
      </trkpt>
      <trkpt lat="60.0027944" lon="17.5171389">
        <ele>37.6287</ele>
        <time>2014-07-12T11:59:58Z</time>
      </trkpt>
      <trkpt lat="60.0027366" lon="17.5170389">
        <ele>38.1094</ele>
        <time>2014-07-12T11:59:59Z</time>
      </trkpt>
      <trkpt lat="60.0026802" lon="17.5169416">
        <ele>38.1094</ele>
        <time>2014-07-12T12:00:00Z</time>
      </trkpt>
      <trkpt lat="60.0026243" lon="17.5168484">
        <ele>38.1094</ele>
        <time>2014-07-12T12:00:01Z</time>
      </trkpt>
      <trkpt lat="60.0025685" lon="17.5167567">
        <ele>38.1094</ele>
        <time>2014-07-12T12:00:02Z</time>
      </trkpt>
      <trkpt lat="60.0025132" lon="17.5166665">
        <ele>38.5901</ele>
        <time>2014-07-12T12:00:03Z</time>
      </trkpt>
      <trkpt lat="60.0024598" lon="17.5165794">
        <ele>38.5901</ele>
        <time>2014-07-12T12:00:04Z</time>
      </trkpt>
      <trkpt lat="60.0024074" lon="17.5164965">
        <ele>38.5901</ele>
        <time>2014-07-12T12:00:05Z</time>
      </trkpt>
      <trkpt lat="60.0023558" lon="17.5164169">
        <ele>39.0707</ele>
        <time>2014-07-12T12:00:06Z</time>
      </trkpt>
      <trkpt lat="60.0023051" lon="17.5163351">
        <ele>39.0707</ele>
        <time>2014-07-12T12:00:07Z</time>
      </trkpt>
      <trkpt lat="60.0022567" lon="17.5162519">
        <ele>39.5513</ele>
        <time>2014-07-12T12:00:08Z</time>
      </trkpt>
      <trkpt lat="60.0022077" lon="17.5161733">
        <ele>40.0321</ele>
        <time>2014-07-12T12:00:09Z</time>
      </trkpt>
      <trkpt lat="60.0021574" lon="17.5160994">
        <ele>40.5128</ele>
        <time>2014-07-12T12:00:10Z</time>
      </trkpt>
      <trkpt lat="60.0021046" lon="17.5160312">
        <ele>40.5128</ele>
        <time>2014-07-12T12:00:11Z</time>
      </trkpt>
      <trkpt lat="60.0020471" lon="17.5159724">
        <ele>40.5128</ele>
        <time>2014-07-12T12:00:12Z</time>
      </trkpt>
      <trkpt lat="60.0019854" lon="17.5159229">
        <ele>40.0321</ele>
        <time>2014-07-12T12:00:13Z</time>
      </trkpt>
      <trkpt lat="60.0019203" lon="17.5158774">
        <ele>40.0321</ele>
        <time>2014-07-12T12:00:14Z</time>
      </trkpt>
      <trkpt lat="60.0018575" lon="17.515834">
        <ele>40.0321</ele>
        <time>2014-07-12T12:00:15Z</time>
      </trkpt>
      <trkpt lat="60.0017908" lon="17.5157883">
        <ele>40.0321</ele>
        <time>2014-07-12T12:00:16Z</time>
      </trkpt>
      <trkpt lat="60.0017186" lon="17.5157396">
        <ele>39.5513</ele>
        <time>2014-07-12T12:00:17Z</time>
      </trkpt>
      <trkpt lat="60.0016411" lon="17.5156903">
        <ele>39.5513</ele>
        <time>2014-07-12T12:00:18Z</time>
      </trkpt>
      <trkpt lat="60.0015616" lon="17.5156417">
        <ele>39.5513</ele>
        <time>2014-07-12T12:00:19Z</time>
      </trkpt>
      <trkpt lat="60.001483" lon="17.5155942">
        <ele>39.5513</ele>
        <time>2014-07-12T12:00:20Z</time>
      </trkpt>
      <trkpt lat="60.0014061" lon="17.5155489">
        <ele>39.5513</ele>
        <time>2014-07-12T12:00:21Z</time>
      </trkpt>
      <trkpt lat="60.0013311" lon="17.515506">
        <ele>40.0321</ele>
        <time>2014-07-12T12:00:22Z</time>
      </trkpt>
      <trkpt lat="60.0012566" lon="17.5154671">
        <ele>39.5513</ele>
        <time>2014-07-12T12:00:23Z</time>
      </trkpt>
      <trkpt lat="60.0011814" lon="17.5154368">
        <ele>39.5513</ele>
        <time>2014-07-12T12:00:24Z</time>
      </trkpt>
      <trkpt lat="60.0011064" lon="17.5154111">
        <ele>40.0321</ele>
        <time>2014-07-12T12:00:25Z</time>
      </trkpt>
      <trkpt lat="60.0010305" lon="17.5153797">
        <ele>39.5513</ele>
        <time>2014-07-12T12:00:26Z</time>
      </trkpt>
      <trkpt lat="60.0009547" lon="17.5153485">
        <ele>39.5513</ele>
        <time>2014-07-12T12:00:27Z</time>
      </trkpt>
      <trkpt lat="60.0008793" lon="17.5153141">
        <ele>39.5513</ele>
        <time>2014-07-12T12:00:28Z</time>
      </trkpt>
      <trkpt lat="60.0008029" lon="17.5152767">
        <ele>39.0707</ele>
        <time>2014-07-12T12:00:29Z</time>
      </trkpt>
      <trkpt lat="60.0007251" lon="17.5152388">
        <ele>39.0707</ele>
        <time>2014-07-12T12:00:30Z</time>
      </trkpt>
      <trkpt lat="60.0006464" lon="17.5152026">
        <ele>39.0707</ele>
        <time>2014-07-12T12:00:31Z</time>
      </trkpt>
      <trkpt lat="60.0005557" lon="17.5151834">
        <ele>39.0707</ele>
        <time>2014-07-12T12:00:32Z</time>
      </trkpt>
      <trkpt lat="60.0004726" lon="17.5151709">
        <ele>39.0707</ele>
        <time>2014-07-12T12:00:33Z</time>
      </trkpt>
      <trkpt lat="60.0003925" lon="17.5151845">
        <ele>39.0707</ele>
        <time>2014-07-12T12:00:34Z</time>
      </trkpt>
      <trkpt lat="60.0003149" lon="17.5152263">
        <ele>38.5901</ele>
        <time>2014-07-12T12:00:35Z</time>
      </trkpt>
      <trkpt lat="60.0002367" lon="17.5152878">
        <ele>38.1094</ele>
        <time>2014-07-12T12:00:36Z</time>
      </trkpt>
      <trkpt lat="60.0001587" lon="17.5153569">
        <ele>37.6287</ele>
        <time>2014-07-12T12:00:37Z</time>
      </trkpt>
      <trkpt lat="60.0000798" lon="17.5154289">
        <ele>37.1481</ele>
        <time>2014-07-12T12:00:38Z</time>
      </trkpt>
      <trkpt lat="59.9999994" lon="17.5154938">
        <ele>37.1481</ele>
        <time>2014-07-12T12:00:39Z</time>
      </trkpt>
      <trkpt lat="59.999917" lon="17.5155455">
        <ele>36.6675</ele>
        <time>2014-07-12T12:00:40Z</time>
      </trkpt>
      <trkpt lat="59.9998331" lon="17.5155774">
        <ele>36.6675</ele>
        <time>2014-07-12T12:00:41Z</time>
      </trkpt>
      <trkpt lat="59.9997485" lon="17.5155843">
        <ele>36.1868</ele>
        <time>2014-07-12T12:00:42Z</time>
      </trkpt>
      <trkpt lat="59.9996642" lon="17.5155666">
        <ele>36.1868</ele>
        <time>2014-07-12T12:00:43Z</time>
      </trkpt>
      <trkpt lat="59.9995815" lon="17.5155269">
        <ele>36.1868</ele>
        <time>2014-07-12T12:00:44Z</time>
      </trkpt>
      <trkpt lat="59.9995024" lon="17.5154688">
        <ele>36.1868</ele>
        <time>2014-07-12T12:00:45Z</time>
      </trkpt>
      <trkpt lat="59.9994252" lon="17.5153995">
        <ele>36.1868</ele>
        <time>2014-07-12T12:00:46Z</time>
      </trkpt>
      <trkpt lat="59.9993487" lon="17.5153251">
        <ele>36.1868</ele>
        <time>2014-07-12T12:00:47Z</time>
      </trkpt>
      <trkpt lat="59.9992731" lon="17.5152454">
        <ele>36.1868</ele>
        <time>2014-07-12T12:00:48Z</time>
      </trkpt>
      <trkpt lat="59.9991994" lon="17.5151576">
        <ele>36.1868</ele>
        <time>2014-07-12T12:00:49Z</time>
      </trkpt>
      <trkpt lat="59.9991297" lon="17.5150579">
        <ele>36.1868</ele>
        <time>2014-07-12T12:00:50Z</time>
      </trkpt>
      <trkpt lat="59.999067" lon="17.5149431">
        <ele>36.6675</ele>
        <time>2014-07-12T12:00:51Z</time>
      </trkpt>
      <trkpt lat="59.9990126" lon="17.5148162">
        <ele>36.6675</ele>
        <time>2014-07-12T12:00:52Z</time>
      </trkpt>
      <trkpt lat="59.9989634" lon="17.514682">
        <ele>37.1481</ele>
        <time>2014-07-12T12:00:53Z</time>
      </trkpt>
      <trkpt lat="59.9989186" lon="17.5145472">
        <ele>37.1481</ele>
        <time>2014-07-12T12:00:54Z</time>
      </trkpt>
      <trkpt lat="59.9988721" lon="17.5144168">
        <ele>37.6287</ele>
        <time>2014-07-12T12:00:55Z</time>
      </trkpt>
      <trkpt lat="59.9988208" lon="17.514295">
        <ele>37.6287</ele>
        <time>2014-07-12T12:00:56Z</time>
      </trkpt>
      <trkpt lat="59.9987671" lon="17.5141764">
        <ele>37.6287</ele>
        <time>2014-07-12T12:00:57Z</time>
      </trkpt>
      <trkpt lat="59.9987141" lon="17.5140713">
        <ele>38.1094</ele>
        <time>2014-07-12T12:00:58Z</time>
      </trkpt>
      <trkpt lat="59.9986469" lon="17.513978">
        <ele>38.1094</ele>
        <time>2014-07-12T12:00:59Z</time>
      </trkpt>
      <trkpt lat="59.9985759" lon="17.5138805">
        <ele>38.1094</ele>
        <time>2014-07-12T12:01:00Z</time>
      </trkpt>
      <trkpt lat="59.9985071" lon="17.513795">
        <ele>37.6287</ele>
        <time>2014-07-12T12:01:01Z</time>
      </trkpt>
      <trkpt lat="59.9984299" lon="17.5136936">
        <ele>37.1481</ele>
        <time>2014-07-12T12:01:02Z</time>
      </trkpt>
      <trkpt lat="59.9983433" lon="17.5136232">
        <ele>36.6675</ele>
        <time>2014-07-12T12:01:03Z</time>
      </trkpt>
      <trkpt lat="59.9982551" lon="17.5135744">
        <ele>36.1868</ele>
        <time>2014-07-12T12:01:04Z</time>
      </trkpt>
      <trkpt lat="59.9981698" lon="17.5135304">
        <ele>35.7061</ele>
        <time>2014-07-12T12:01:05Z</time>
      </trkpt>
      <trkpt lat="59.9980839" lon="17.5134933">
        <ele>35.7061</ele>
        <time>2014-07-12T12:01:06Z</time>
      </trkpt>
      <trkpt lat="59.9979962" lon="17.5134643">
        <ele>35.2255</ele>
        <time>2014-07-12T12:01:07Z</time>
      </trkpt>
      <trkpt lat="59.9979081" lon="17.5134403">
        <ele>35.2255</ele>
        <time>2014-07-12T12:01:08Z</time>
      </trkpt>
      <trkpt lat="59.9978213" lon="17.5134194">
        <ele>35.2255</ele>
        <time>2014-07-12T12:01:09Z</time>
      </trkpt>
      <trkpt lat="59.9977357" lon="17.5133989">
        <ele>34.7449</ele>
        <time>2014-07-12T12:01:10Z</time>
      </trkpt>
      <trkpt lat="59.9976508" lon="17.5133771">
        <ele>34.7449</ele>
        <time>2014-07-12T12:01:11Z</time>
      </trkpt>
      <trkpt lat="59.9975673" lon="17.5133538">
        <ele>34.2642</ele>
        <time>2014-07-12T12:01:12Z</time>
      </trkpt>
      <trkpt lat="59.997485" lon="17.5133296">
        <ele>34.2642</ele>
        <time>2014-07-12T12:01:13Z</time>
      </trkpt>
      <trkpt lat="59.997404" lon="17.5133057">
        <ele>34.2642</ele>
        <time>2014-07-12T12:01:14Z</time>
      </trkpt>
      <trkpt lat="59.9973235" lon="17.5132828">
        <ele>34.2642</ele>
        <time>2014-07-12T12:01:15Z</time>
      </trkpt>
      <trkpt lat="59.997243" lon="17.5132604">
        <ele>34.2642</ele>
        <time>2014-07-12T12:01:16Z</time>
      </trkpt>
      <trkpt lat="59.9971616" lon="17.5132381">
        <ele>34.2642</ele>
        <time>2014-07-12T12:01:17Z</time>
      </trkpt>
      <trkpt lat="59.9970793" lon="17.5132149">
        <ele>34.2642</ele>
        <time>2014-07-12T12:01:18Z</time>
      </trkpt>
      <trkpt lat="59.9969964" lon="17.513192">
        <ele>33.7834</ele>
        <time>2014-07-12T12:01:19Z</time>
      </trkpt>
      <trkpt lat="59.9969127" lon="17.5131699">
        <ele>33.7834</ele>
        <time>2014-07-12T12:01:20Z</time>
      </trkpt>
      <trkpt lat="59.9968292" lon="17.5131469">
        <ele>33.7834</ele>
        <time>2014-07-12T12:01:21Z</time>
      </trkpt>
      <trkpt lat="59.9967454" lon="17.5131234">
        <ele>33.7834</ele>
        <time>2014-07-12T12:01:22Z</time>
      </trkpt>
      <trkpt lat="59.9966616" lon="17.5131019">
        <ele>33.7834</ele>
        <time>2014-07-12T12:01:23Z</time>
      </trkpt>
      <trkpt lat="59.9965778" lon="17.5130793">
        <ele>33.7834</ele>
        <time>2014-07-12T12:01:24Z</time>
      </trkpt>
      <trkpt lat="59.9964934" lon="17.5130563">
        <ele>33.7834</ele>
        <time>2014-07-12T12:01:25Z</time>
      </trkpt>
      <trkpt lat="59.9964087" lon="17.5130343">
        <ele>33.7834</ele>
        <time>2014-07-12T12:01:26Z</time>
      </trkpt>
      <trkpt lat="59.9963245" lon="17.5130119">
        <ele>33.7834</ele>
        <time>2014-07-12T12:01:27Z</time>
      </trkpt>
      <trkpt lat="59.9962407" lon="17.5129886">
        <ele>33.7834</ele>
        <time>2014-07-12T12:01:28Z</time>
      </trkpt>
      <trkpt lat="59.9961576" lon="17.5129659">
        <ele>33.7834</ele>
        <time>2014-07-12T12:01:29Z</time>
      </trkpt>
      <trkpt lat="59.9960754" lon="17.5129434">
        <ele>33.7834</ele>
        <time>2014-07-12T12:01:30Z</time>
      </trkpt>
      <trkpt lat="59.9959943" lon="17.5129218">
        <ele>34.2642</ele>
        <time>2014-07-12T12:01:31Z</time>
      </trkpt>
      <trkpt lat="59.995914" lon="17.5129016">
        <ele>34.2642</ele>
        <time>2014-07-12T12:01:32Z</time>
      </trkpt>
      <trkpt lat="59.9958356" lon="17.5128813">
        <ele>34.2642</ele>
        <time>2014-07-12T12:01:33Z</time>
      </trkpt>
      <trkpt lat="59.9957598" lon="17.5128591">
        <ele>34.2642</ele>
        <time>2014-07-12T12:01:34Z</time>
      </trkpt>
      <trkpt lat="59.9956847" lon="17.5128309">
        <ele>34.7449</ele>
        <time>2014-07-12T12:01:35Z</time>
      </trkpt>
      <trkpt lat="59.9956107" lon="17.5127896">
        <ele>34.7449</ele>
        <time>2014-07-12T12:01:36Z</time>
      </trkpt>
      <trkpt lat="59.9955398" lon="17.5127325">
        <ele>34.7449</ele>
        <time>2014-07-12T12:01:37Z</time>
      </trkpt>
      <trkpt lat="59.9954724" lon="17.5126591">
        <ele>34.7449</ele>
        <time>2014-07-12T12:01:38Z</time>
      </trkpt>
      <trkpt lat="59.9954088" lon="17.5125667">
        <ele>34.7449</ele>
        <time>2014-07-12T12:01:39Z</time>
      </trkpt>
      <trkpt lat="59.9953503" lon="17.5124571">
        <ele>34.7449</ele>
        <time>2014-07-12T12:01:40Z</time>
      </trkpt>
      <trkpt lat="59.9952989" lon="17.5123307">
        <ele>34.7449</ele>
        <time>2014-07-12T12:01:41Z</time>
      </trkpt>
      <trkpt lat="59.9952555" lon="17.5121879">
        <ele>34.2642</ele>
        <time>2014-07-12T12:01:42Z</time>
      </trkpt>
      <trkpt lat="59.9952208" lon="17.5120316">
        <ele>34.2642</ele>
        <time>2014-07-12T12:01:43Z</time>
      </trkpt>
      <trkpt lat="59.9951959" lon="17.511865">
        <ele>34.2642</ele>
        <time>2014-07-12T12:01:44Z</time>
      </trkpt>
      <trkpt lat="59.9951809" lon="17.5116914">
        <ele>34.2642</ele>
        <time>2014-07-12T12:01:45Z</time>
      </trkpt>
      <trkpt lat="59.995175" lon="17.5115129">
        <ele>33.7834</ele>
        <time>2014-07-12T12:01:46Z</time>
      </trkpt>
      <trkpt lat="59.9951761" lon="17.511331">
        <ele>33.7834</ele>
        <time>2014-07-12T12:01:47Z</time>
      </trkpt>
      <trkpt lat="59.9951809" lon="17.5111466">
        <ele>33.3029</ele>
        <time>2014-07-12T12:01:48Z</time>
      </trkpt>
      <trkpt lat="59.9951882" lon="17.5109606">
        <ele>32.8223</ele>
        <time>2014-07-12T12:01:49Z</time>
      </trkpt>
      <trkpt lat="59.9951969" lon="17.5107739">
        <ele>32.8223</ele>
        <time>2014-07-12T12:01:50Z</time>
      </trkpt>
      <trkpt lat="59.9952052" lon="17.5105903">
        <ele>32.3416</ele>
        <time>2014-07-12T12:01:51Z</time>
      </trkpt>
      <trkpt lat="59.9952124" lon="17.5104067">
        <ele>31.8607</ele>
        <time>2014-07-12T12:01:52Z</time>
      </trkpt>
      <trkpt lat="59.9952223" lon="17.5102219">
        <ele>31.3801</ele>
        <time>2014-07-12T12:01:53Z</time>
      </trkpt>
      <trkpt lat="59.9952358" lon="17.5100364">
        <ele>31.8607</ele>
        <time>2014-07-12T12:01:54Z</time>
      </trkpt>
      <trkpt lat="59.9952483" lon="17.5098525">
        <ele>32.3416</ele>
        <time>2014-07-12T12:01:55Z</time>
      </trkpt>
      <trkpt lat="59.9952626" lon="17.5096691">
        <ele>32.3416</ele>
        <time>2014-07-12T12:01:56Z</time>
      </trkpt>
      <trkpt lat="59.9952763" lon="17.5094858">
        <ele>32.3416</ele>
        <time>2014-07-12T12:01:57Z</time>
      </trkpt>
      <trkpt lat="59.9952949" lon="17.5093097">
        <ele>32.8223</ele>
        <time>2014-07-12T12:01:58Z</time>
      </trkpt>
      <trkpt lat="59.9953151" lon="17.5091417">
        <ele>32.8223</ele>
        <time>2014-07-12T12:01:59Z</time>
      </trkpt>
      <trkpt lat="59.9953369" lon="17.5089808">
        <ele>33.3029</ele>
        <time>2014-07-12T12:02:00Z</time>
      </trkpt>
      <trkpt lat="59.9953597" lon="17.5088237">
        <ele>33.3029</ele>
        <time>2014-07-12T12:02:01Z</time>
      </trkpt>
      <trkpt lat="59.9953829" lon="17.5086687">
        <ele>33.3029</ele>
        <time>2014-07-12T12:02:02Z</time>
      </trkpt>
      <trkpt lat="59.9954068" lon="17.5085149">
        <ele>33.7834</ele>
        <time>2014-07-12T12:02:03Z</time>
      </trkpt>
      <trkpt lat="59.9954312" lon="17.5083613">
        <ele>33.7834</ele>
        <time>2014-07-12T12:02:04Z</time>
      </trkpt>
      <trkpt lat="59.9954589" lon="17.5081862">
        <ele>33.7834</ele>
        <time>2014-07-12T12:02:05Z</time>
      </trkpt>
      <trkpt lat="59.9954838" lon="17.5080262">
        <ele>34.2642</ele>
        <time>2014-07-12T12:02:06Z</time>
      </trkpt>
      <trkpt lat="59.9955071" lon="17.5078705">
        <ele>34.2642</ele>
        <time>2014-07-12T12:02:07Z</time>
      </trkpt>
      <trkpt lat="59.9955317" lon="17.5077174">
        <ele>34.2642</ele>
        <time>2014-07-12T12:02:08Z</time>
      </trkpt>
      <trkpt lat="59.9955586" lon="17.5075676">
        <ele>34.2642</ele>
        <time>2014-07-12T12:02:09Z</time>
      </trkpt>
      <trkpt lat="59.9955899" lon="17.5074257">
        <ele>34.2642</ele>
        <time>2014-07-12T12:02:10Z</time>
      </trkpt>
      <trkpt lat="59.9956182" lon="17.5072797">
        <ele>34.2642</ele>
        <time>2014-07-12T12:02:11Z</time>
      </trkpt>
      <trkpt lat="59.9956487" lon="17.5071377">
        <ele>34.2642</ele>
        <time>2014-07-12T12:02:12Z</time>
      </trkpt>
      <trkpt lat="59.9956832" lon="17.507001">
        <ele>34.2642</ele>
        <time>2014-07-12T12:02:13Z</time>
      </trkpt>
      <trkpt lat="59.9957227" lon="17.5068616">
        <ele>34.2642</ele>
        <time>2014-07-12T12:02:14Z</time>
      </trkpt>
      <trkpt lat="59.9957624" lon="17.5067285">
        <ele>34.2642</ele>
        <time>2014-07-12T12:02:15Z</time>
      </trkpt>
      <trkpt lat="59.9958035" lon="17.5065973">
        <ele>34.7449</ele>
        <time>2014-07-12T12:02:16Z</time>
      </trkpt>
      <trkpt lat="59.9958455" lon="17.5064694">
        <ele>34.7449</ele>
        <time>2014-07-12T12:02:17Z</time>
      </trkpt>
      <trkpt lat="59.9958884" lon="17.5063437">
        <ele>34.7449</ele>
        <time>2014-07-12T12:02:18Z</time>
      </trkpt>
      <trkpt lat="59.9959305" lon="17.5062192">
        <ele>34.7449</ele>
        <time>2014-07-12T12:02:19Z</time>
      </trkpt>
      <trkpt lat="59.9959718" lon="17.5060935">
        <ele>34.7449</ele>
        <time>2014-07-12T12:02:20Z</time>
      </trkpt>
      <trkpt lat="59.9960115" lon="17.5059655">
        <ele>34.7449</ele>
        <time>2014-07-12T12:02:21Z</time>
      </trkpt>
      <trkpt lat="59.9960499" lon="17.5058359">
        <ele>34.7449</ele>
        <time>2014-07-12T12:02:22Z</time>
      </trkpt>
      <trkpt lat="59.9960889" lon="17.5057069">
        <ele>34.7449</ele>
        <time>2014-07-12T12:02:23Z</time>
      </trkpt>
      <trkpt lat="59.9961288" lon="17.505578">
        <ele>34.7449</ele>
        <time>2014-07-12T12:02:24Z</time>
      </trkpt>
      <trkpt lat="59.9961682" lon="17.505449">
        <ele>34.7449</ele>
        <time>2014-07-12T12:02:25Z</time>
      </trkpt>
      <trkpt lat="59.996207" lon="17.505322">
        <ele>34.7449</ele>
        <time>2014-07-12T12:02:26Z</time>
      </trkpt>
      <trkpt lat="59.9962396" lon="17.5051784">
        <ele>35.2255</ele>
        <time>2014-07-12T12:02:27Z</time>
      </trkpt>
      <trkpt lat="59.9962762" lon="17.5050507">
        <ele>35.2255</ele>
        <time>2014-07-12T12:02:28Z</time>
      </trkpt>
      <trkpt lat="59.9963158" lon="17.5049264">
        <ele>35.2255</ele>
        <time>2014-07-12T12:02:29Z</time>
      </trkpt>
      <trkpt lat="59.9963489" lon="17.5048007">
        <ele>35.2255</ele>
        <time>2014-07-12T12:02:30Z</time>
      </trkpt>
      <trkpt lat="59.996374" lon="17.5046641">
        <ele>35.2255</ele>
        <time>2014-07-12T12:02:31Z</time>
      </trkpt>
      <trkpt lat="59.9963863" lon="17.5045249">
        <ele>34.7449</ele>
        <time>2014-07-12T12:02:32Z</time>
      </trkpt>
      <trkpt lat="59.9963862" lon="17.5043958">
        <ele>34.2642</ele>
        <time>2014-07-12T12:02:33Z</time>
      </trkpt>
      <trkpt lat="59.9963462" lon="17.5043014">
        <ele>34.2642</ele>
        <time>2014-07-12T12:02:34Z</time>
      </trkpt>
      <trkpt lat="59.9963017" lon="17.504183">
        <ele>34.2642</ele>
        <time>2014-07-12T12:02:35Z</time>
      </trkpt>
      <trkpt lat="59.9962224" lon="17.5041265">
        <ele>33.7834</ele>
        <time>2014-07-12T12:02:36Z</time>
      </trkpt>
      <trkpt lat="59.9961521" lon="17.5040667">
        <ele>33.7834</ele>
        <time>2014-07-12T12:02:37Z</time>
      </trkpt>
      <trkpt lat="59.9960786" lon="17.5040167">
        <ele>34.2642</ele>
        <time>2014-07-12T12:02:38Z</time>
      </trkpt>
      <trkpt lat="59.9960048" lon="17.5039611">
        <ele>34.2642</ele>
        <time>2014-07-12T12:02:39Z</time>
      </trkpt>
      <trkpt lat="59.9959303" lon="17.5039103">
        <ele>33.7834</ele>
        <time>2014-07-12T12:02:40Z</time>
      </trkpt>
      <trkpt lat="59.9958587" lon="17.5038486">
        <ele>33.7834</ele>
        <time>2014-07-12T12:02:41Z</time>
      </trkpt>
      <trkpt lat="59.9957942" lon="17.5037773">
        <ele>33.7834</ele>
        <time>2014-07-12T12:02:42Z</time>
      </trkpt>
      <trkpt lat="59.9957308" lon="17.503678">
        <ele>33.3029</ele>
        <time>2014-07-12T12:02:43Z</time>
      </trkpt>
      <trkpt lat="59.9956871" lon="17.503558">
        <ele>33.3029</ele>
        <time>2014-07-12T12:02:44Z</time>
      </trkpt>
      <trkpt lat="59.9956693" lon="17.5034237">
        <ele>33.3029</ele>
        <time>2014-07-12T12:02:45Z</time>
      </trkpt>
      <trkpt lat="59.9956714" lon="17.5032837">
        <ele>33.3029</ele>
        <time>2014-07-12T12:02:46Z</time>
      </trkpt>
      <trkpt lat="59.9956932" lon="17.5031216">
        <ele>33.3029</ele>
        <time>2014-07-12T12:02:47Z</time>
      </trkpt>
      <trkpt lat="59.9957232" lon="17.5029794">
        <ele>33.3029</ele>
        <time>2014-07-12T12:02:48Z</time>
      </trkpt>
      <trkpt lat="59.9957299" lon="17.502816">
        <ele>33.3029</ele>
        <time>2014-07-12T12:02:49Z</time>
      </trkpt>
      <trkpt lat="59.9957329" lon="17.5026522">
        <ele>32.8223</ele>
        <time>2014-07-12T12:02:50Z</time>
      </trkpt>
      <trkpt lat="59.9957293" lon="17.5025023">
        <ele>32.3416</ele>
        <time>2014-07-12T12:02:51Z</time>
      </trkpt>
      <trkpt lat="59.9957135" lon="17.5023495">
        <ele>31.8607</ele>
        <time>2014-07-12T12:02:52Z</time>
      </trkpt>
      <trkpt lat="59.9956868" lon="17.5021977">
        <ele>31.3801</ele>
        <time>2014-07-12T12:02:53Z</time>
      </trkpt>
      <trkpt lat="59.9956532" lon="17.5020475">
        <ele>31.3801</ele>
        <time>2014-07-12T12:02:54Z</time>
      </trkpt>
      <trkpt lat="59.9956139" lon="17.5019151">
        <ele>30.8995</ele>
        <time>2014-07-12T12:02:55Z</time>
      </trkpt>
      <trkpt lat="59.9955599" lon="17.5017928">
        <ele>30.8995</ele>
        <time>2014-07-12T12:02:56Z</time>
      </trkpt>
      <trkpt lat="59.9954889" lon="17.5016966">
        <ele>30.4188</ele>
        <time>2014-07-12T12:02:57Z</time>
      </trkpt>
      <trkpt lat="59.9954112" lon="17.5016338">
        <ele>30.8995</ele>
        <time>2014-07-12T12:02:58Z</time>
      </trkpt>
      <trkpt lat="59.9953321" lon="17.5015873">
        <ele>30.8995</ele>
        <time>2014-07-12T12:02:59Z</time>
      </trkpt>
      <trkpt lat="59.995255" lon="17.5015499">
        <ele>31.3801</ele>
        <time>2014-07-12T12:03:00Z</time>
      </trkpt>
      <trkpt lat="59.9951862" lon="17.5015057">
        <ele>31.3801</ele>
        <time>2014-07-12T12:03:01Z</time>
      </trkpt>
      <trkpt lat="59.9951218" lon="17.501456">
        <ele>31.8607</ele>
        <time>2014-07-12T12:03:02Z</time>
      </trkpt>
      <trkpt lat="59.9950581" lon="17.5014007">
        <ele>32.3416</ele>
        <time>2014-07-12T12:03:03Z</time>
      </trkpt>
      <trkpt lat="59.9949973" lon="17.5013459">
        <ele>33.3029</ele>
        <time>2014-07-12T12:03:04Z</time>
      </trkpt>
      <trkpt lat="59.9949432" lon="17.5012889">
        <ele>33.7834</ele>
        <time>2014-07-12T12:03:05Z</time>
      </trkpt>
      <trkpt lat="59.9948867" lon="17.5012334">
        <ele>34.2642</ele>
        <time>2014-07-12T12:03:06Z</time>
      </trkpt>
      <trkpt lat="59.9948337" lon="17.5011701">
        <ele>34.2642</ele>
        <time>2014-07-12T12:03:07Z</time>
      </trkpt>
      <trkpt lat="59.9947805" lon="17.5010996">
        <ele>34.2642</ele>
        <time>2014-07-12T12:03:08Z</time>
      </trkpt>
      <trkpt lat="59.9947286" lon="17.5010241">
        <ele>34.2642</ele>
        <time>2014-07-12T12:03:09Z</time>
      </trkpt>
      <trkpt lat="59.9946753" lon="17.5009511">
        <ele>34.2642</ele>
        <time>2014-07-12T12:03:10Z</time>
      </trkpt>
      <trkpt lat="59.9946219" lon="17.5008821">
        <ele>34.2642</ele>
        <time>2014-07-12T12:03:11Z</time>
      </trkpt>
      <trkpt lat="59.9945682" lon="17.5008086">
        <ele>33.7834</ele>
        <time>2014-07-12T12:03:12Z</time>
      </trkpt>
      <trkpt lat="59.9945126" lon="17.5007518">
        <ele>33.7834</ele>
        <time>2014-07-12T12:03:13Z</time>
      </trkpt>
      <trkpt lat="59.9944515" lon="17.5007298">
        <ele>33.3029</ele>
        <time>2014-07-12T12:03:14Z</time>
      </trkpt>
      <trkpt lat="59.9943899" lon="17.5007495">
        <ele>33.3029</ele>
        <time>2014-07-12T12:03:15Z</time>
      </trkpt>
      <trkpt lat="59.9943339" lon="17.5008056">
        <ele>32.8223</ele>
        <time>2014-07-12T12:03:16Z</time>
      </trkpt>
      <trkpt lat="59.9942837" lon="17.5008847">
        <ele>32.8223</ele>
        <time>2014-07-12T12:03:17Z</time>
      </trkpt>
      <trkpt lat="59.9942368" lon="17.5009758">
        <ele>32.8223</ele>
        <time>2014-07-12T12:03:18Z</time>
      </trkpt>
      <trkpt lat="59.9941935" lon="17.5010734">
        <ele>32.8223</ele>
        <time>2014-07-12T12:03:19Z</time>
      </trkpt>
      <trkpt lat="59.9941514" lon="17.501175">
        <ele>32.8223</ele>
        <time>2014-07-12T12:03:20Z</time>
      </trkpt>
      <trkpt lat="59.9941104" lon="17.5012811">
        <ele>32.3416</ele>
        <time>2014-07-12T12:03:21Z</time>
      </trkpt>
      <trkpt lat="59.9940706" lon="17.5013909">
        <ele>31.8607</ele>
        <time>2014-07-12T12:03:22Z</time>
      </trkpt>
      <trkpt lat="59.9940298" lon="17.5015017">
        <ele>31.8607</ele>
        <time>2014-07-12T12:03:23Z</time>
      </trkpt>
      <trkpt lat="59.9939884" lon="17.5016135">
        <ele>31.3801</ele>
        <time>2014-07-12T12:03:24Z</time>
      </trkpt>
      <trkpt lat="59.9939464" lon="17.5017271">
        <ele>30.8995</ele>
        <time>2014-07-12T12:03:25Z</time>
      </trkpt>
      <trkpt lat="59.9939034" lon="17.5018419">
        <ele>30.8995</ele>
        <time>2014-07-12T12:03:26Z</time>
      </trkpt>
      <trkpt lat="59.9938589" lon="17.5019597">
        <ele>30.8995</ele>
        <time>2014-07-12T12:03:27Z</time>
      </trkpt>
      <trkpt lat="59.9938139" lon="17.5020794">
        <ele>30.4188</ele>
        <time>2014-07-12T12:03:28Z</time>
      </trkpt>
      <trkpt lat="59.9937694" lon="17.502201">
        <ele>30.8995</ele>
        <time>2014-07-12T12:03:29Z</time>
      </trkpt>
      <trkpt lat="59.9937257" lon="17.5023213">
        <ele>30.8995</ele>
        <time>2014-07-12T12:03:30Z</time>
      </trkpt>
      <trkpt lat="59.9936812" lon="17.5024417">
        <ele>30.4188</ele>
        <time>2014-07-12T12:03:31Z</time>
      </trkpt>
      <trkpt lat="59.9936368" lon="17.5025637">
        <ele>30.4188</ele>
        <time>2014-07-12T12:03:32Z</time>
      </trkpt>
      <trkpt lat="59.9935932" lon="17.5026867">
        <ele>30.4188</ele>
        <time>2014-07-12T12:03:33Z</time>
      </trkpt>
      <trkpt lat="59.9935482" lon="17.5028085">
        <ele>30.4188</ele>
        <time>2014-07-12T12:03:34Z</time>
      </trkpt>
      <trkpt lat="59.9935028" lon="17.5029312">
        <ele>30.4188</ele>
        <time>2014-07-12T12:03:35Z</time>
      </trkpt>
      <trkpt lat="59.9934569" lon="17.5030536">
        <ele>30.4188</ele>
        <time>2014-07-12T12:03:36Z</time>
      </trkpt>
      <trkpt lat="59.9934093" lon="17.5031724">
        <ele>29.9381</ele>
        <time>2014-07-12T12:03:37Z</time>
      </trkpt>
      <trkpt lat="59.9933616" lon="17.5032904">
        <ele>29.9381</ele>
        <time>2014-07-12T12:03:38Z</time>
      </trkpt>
      <trkpt lat="59.993314" lon="17.5034066">
        <ele>29.9381</ele>
        <time>2014-07-12T12:03:39Z</time>
      </trkpt>
      <trkpt lat="59.9932666" lon="17.503522">
        <ele>29.4575</ele>
        <time>2014-07-12T12:03:40Z</time>
      </trkpt>
      <trkpt lat="59.9932167" lon="17.503635">
        <ele>29.4575</ele>
        <time>2014-07-12T12:03:41Z</time>
      </trkpt>
      <trkpt lat="59.9931643" lon="17.5037462">
        <ele>28.9769</ele>
        <time>2014-07-12T12:03:42Z</time>
      </trkpt>
      <trkpt lat="59.9931091" lon="17.5038525">
        <ele>28.9769</ele>
        <time>2014-07-12T12:03:43Z</time>
      </trkpt>
      <trkpt lat="59.9930509" lon="17.503958">
        <ele>28.4962</ele>
        <time>2014-07-12T12:03:44Z</time>
      </trkpt>
      <trkpt lat="59.9929922" lon="17.5040628">
        <ele>28.4962</ele>
        <time>2014-07-12T12:03:45Z</time>
      </trkpt>
      <trkpt lat="59.992934" lon="17.504167">
        <ele>28.4962</ele>
        <time>2014-07-12T12:03:46Z</time>
      </trkpt>
      <trkpt lat="59.9928757" lon="17.5042714">
        <ele>28.4962</ele>
        <time>2014-07-12T12:03:47Z</time>
      </trkpt>
      <trkpt lat="59.9928177" lon="17.5043772">
        <ele>28.0155</ele>
        <time>2014-07-12T12:03:48Z</time>
      </trkpt>
      <trkpt lat="59.9927597" lon="17.5044837">
        <ele>28.0155</ele>
        <time>2014-07-12T12:03:49Z</time>
      </trkpt>
      <trkpt lat="59.9927017" lon="17.5045897">
        <ele>28.0155</ele>
        <time>2014-07-12T12:03:50Z</time>
      </trkpt>
      <trkpt lat="59.9926452" lon="17.5046959">
        <ele>28.0155</ele>
        <time>2014-07-12T12:03:51Z</time>
      </trkpt>
      <trkpt lat="59.9925901" lon="17.5048014">
        <ele>28.4962</ele>
        <time>2014-07-12T12:03:52Z</time>
      </trkpt>
      <trkpt lat="59.992535" lon="17.5049045">
        <ele>28.4962</ele>
        <time>2014-07-12T12:03:53Z</time>
      </trkpt>
      <trkpt lat="59.9924794" lon="17.5050062">
        <ele>28.4962</ele>
        <time>2014-07-12T12:03:54Z</time>
      </trkpt>
      <trkpt lat="59.9924238" lon="17.5051081">
        <ele>28.4962</ele>
        <time>2014-07-12T12:03:55Z</time>
      </trkpt>
      <trkpt lat="59.9923694" lon="17.5052115">
        <ele>28.4962</ele>
        <time>2014-07-12T12:03:56Z</time>
      </trkpt>
      <trkpt lat="59.9923153" lon="17.5053143">
        <ele>28.4962</ele>
        <time>2014-07-12T12:03:57Z</time>
      </trkpt>
      <trkpt lat="59.9922615" lon="17.5054157">
        <ele>28.9769</ele>
        <time>2014-07-12T12:03:58Z</time>
      </trkpt>
      <trkpt lat="59.9922079" lon="17.5055158">
        <ele>28.9769</ele>
        <time>2014-07-12T12:03:59Z</time>
      </trkpt>
      <trkpt lat="59.9921537" lon="17.5056143">
        <ele>28.9769</ele>
        <time>2014-07-12T12:04:00Z</time>
      </trkpt>
      <trkpt lat="59.9920985" lon="17.5057115">
        <ele>29.4575</ele>
        <time>2014-07-12T12:04:01Z</time>
      </trkpt>
      <trkpt lat="59.992041" lon="17.5058039">
        <ele>29.4575</ele>
        <time>2014-07-12T12:04:02Z</time>
      </trkpt>
      <trkpt lat="59.9919819" lon="17.5058924">
        <ele>29.9381</ele>
        <time>2014-07-12T12:04:03Z</time>
      </trkpt>
      <trkpt lat="59.9919206" lon="17.5059725">
        <ele>29.9381</ele>
        <time>2014-07-12T12:04:04Z</time>
      </trkpt>
      <trkpt lat="59.9918567" lon="17.5060411">
        <ele>30.4188</ele>
        <time>2014-07-12T12:04:05Z</time>
      </trkpt>
      <trkpt lat="59.99179" lon="17.506097">
        <ele>30.4188</ele>
        <time>2014-07-12T12:04:06Z</time>
      </trkpt>
      <trkpt lat="59.9917209" lon="17.5061404">
        <ele>30.4188</ele>
        <time>2014-07-12T12:04:07Z</time>
      </trkpt>
      <trkpt lat="59.9916506" lon="17.5061724">
        <ele>30.8995</ele>
        <time>2014-07-12T12:04:08Z</time>
      </trkpt>
      <trkpt lat="59.99158" lon="17.5061965">
        <ele>30.8995</ele>
        <time>2014-07-12T12:04:09Z</time>
      </trkpt>
      <trkpt lat="59.9915086" lon="17.5062136">
        <ele>30.8995</ele>
        <time>2014-07-12T12:04:10Z</time>
      </trkpt>
      <trkpt lat="59.9914372" lon="17.5062238">
        <ele>30.8995</ele>
        <time>2014-07-12T12:04:11Z</time>
      </trkpt>
      <trkpt lat="59.9913655" lon="17.5062277">
        <ele>30.8995</ele>
        <time>2014-07-12T12:04:12Z</time>
      </trkpt>
      <trkpt lat="59.9912932" lon="17.5062296">
        <ele>31.3801</ele>
        <time>2014-07-12T12:04:13Z</time>
      </trkpt>
      <trkpt lat="59.9912107" lon="17.506216">
        <ele>31.3801</ele>
        <time>2014-07-12T12:04:14Z</time>
      </trkpt>
      <trkpt lat="59.9911316" lon="17.5062201">
        <ele>31.3801</ele>
        <time>2014-07-12T12:04:15Z</time>
      </trkpt>
      <trkpt lat="59.9910549" lon="17.5062255">
        <ele>30.8995</ele>
        <time>2014-07-12T12:04:16Z</time>
      </trkpt>
      <trkpt lat="59.9909803" lon="17.5062322">
        <ele>30.8995</ele>
        <time>2014-07-12T12:04:17Z</time>
      </trkpt>
      <trkpt lat="59.9909063" lon="17.5062406">
        <ele>30.8995</ele>
        <time>2014-07-12T12:04:18Z</time>
      </trkpt>
      <trkpt lat="59.9908348" lon="17.5062513">
        <ele>30.8995</ele>
        <time>2014-07-12T12:04:19Z</time>
      </trkpt>
      <trkpt lat="59.9907648" lon="17.5062669">
        <ele>30.8995</ele>
        <time>2014-07-12T12:04:20Z</time>
      </trkpt>
      <trkpt lat="59.9906949" lon="17.5062871">
        <ele>30.8995</ele>
        <time>2014-07-12T12:04:21Z</time>
      </trkpt>
      <trkpt lat="59.9906253" lon="17.506314">
        <ele>30.8995</ele>
        <time>2014-07-12T12:04:22Z</time>
      </trkpt>
      <trkpt lat="59.9905556" lon="17.5063489">
        <ele>30.4188</ele>
        <time>2014-07-12T12:04:23Z</time>
      </trkpt>
      <trkpt lat="59.990487" lon="17.5064">
        <ele>30.4188</ele>
        <time>2014-07-12T12:04:24Z</time>
      </trkpt>
      <trkpt lat="59.9904198" lon="17.5064685">
        <ele>30.8995</ele>
        <time>2014-07-12T12:04:25Z</time>
      </trkpt>
      <trkpt lat="59.9903566" lon="17.5065518">
        <ele>30.4188</ele>
        <time>2014-07-12T12:04:26Z</time>
      </trkpt>
      <trkpt lat="59.9902961" lon="17.506643">
        <ele>30.4188</ele>
        <time>2014-07-12T12:04:27Z</time>
      </trkpt>
      <trkpt lat="59.9902388" lon="17.5067347">
        <ele>30.4188</ele>
        <time>2014-07-12T12:04:28Z</time>
      </trkpt>
      <trkpt lat="59.9901831" lon="17.5068253">
        <ele>30.8995</ele>
        <time>2014-07-12T12:04:29Z</time>
      </trkpt>
      <trkpt lat="59.9901301" lon="17.506915">
        <ele>30.8995</ele>
        <time>2014-07-12T12:04:30Z</time>
      </trkpt>
      <trkpt lat="59.9900785" lon="17.5070016">
        <ele>30.8995</ele>
        <time>2014-07-12T12:04:31Z</time>
      </trkpt>
      <trkpt lat="59.9900251" lon="17.5070864">
        <ele>30.8995</ele>
        <time>2014-07-12T12:04:32Z</time>
      </trkpt>
      <trkpt lat="59.9899687" lon="17.5071719">
        <ele>30.8995</ele>
        <time>2014-07-12T12:04:33Z</time>
      </trkpt>
      <trkpt lat="59.9899132" lon="17.5072578">
        <ele>30.8995</ele>
        <time>2014-07-12T12:04:34Z</time>
      </trkpt>
      <trkpt lat="59.9898609" lon="17.5073427">
        <ele>30.8995</ele>
        <time>2014-07-12T12:04:35Z</time>
      </trkpt>
      <trkpt lat="59.9898107" lon="17.5074257">
        <ele>30.8995</ele>
        <time>2014-07-12T12:04:36Z</time>
      </trkpt>
      <trkpt lat="59.9897623" lon="17.5075079">
        <ele>31.3801</ele>
        <time>2014-07-12T12:04:37Z</time>
      </trkpt>
      <trkpt lat="59.9897129" lon="17.5075916">
        <ele>31.3801</ele>
        <time>2014-07-12T12:04:38Z</time>
      </trkpt>
      <trkpt lat="59.9896604" lon="17.5076774">
        <ele>31.8607</ele>
        <time>2014-07-12T12:04:39Z</time>
      </trkpt>
      <trkpt lat="59.989606" lon="17.5077601">
        <ele>31.8607</ele>
        <time>2014-07-12T12:04:40Z</time>
      </trkpt>
      <trkpt lat="59.9895512" lon="17.507841">
        <ele>32.3416</ele>
        <time>2014-07-12T12:04:41Z</time>
      </trkpt>
      <trkpt lat="59.9894952" lon="17.507922">
        <ele>32.3416</ele>
        <time>2014-07-12T12:04:42Z</time>
      </trkpt>
      <trkpt lat="59.9894378" lon="17.5080023">
        <ele>32.3416</ele>
        <time>2014-07-12T12:04:43Z</time>
      </trkpt>
      <trkpt lat="59.9893802" lon="17.5080803">
        <ele>32.8223</ele>
        <time>2014-07-12T12:04:44Z</time>
      </trkpt>
      <trkpt lat="59.9893227" lon="17.5081578">
        <ele>32.8223</ele>
        <time>2014-07-12T12:04:45Z</time>
      </trkpt>
      <trkpt lat="59.9892642" lon="17.5082353">
        <ele>32.8223</ele>
        <time>2014-07-12T12:04:46Z</time>
      </trkpt>
      <trkpt lat="59.9892046" lon="17.5083094">
        <ele>33.3029</ele>
        <time>2014-07-12T12:04:47Z</time>
      </trkpt>
      <trkpt lat="59.9891454" lon="17.5083813">
        <ele>33.7834</ele>
        <time>2014-07-12T12:04:48Z</time>
      </trkpt>
      <trkpt lat="59.9890854" lon="17.5084493">
        <ele>34.2642</ele>
        <time>2014-07-12T12:04:49Z</time>
      </trkpt>
      <trkpt lat="59.9890281" lon="17.5085124">
        <ele>34.7449</ele>
        <time>2014-07-12T12:04:50Z</time>
      </trkpt>
      <trkpt lat="59.9889714" lon="17.5085634">
        <ele>35.2255</ele>
        <time>2014-07-12T12:04:51Z</time>
      </trkpt>
      <trkpt lat="59.988913" lon="17.508615">
        <ele>35.7061</ele>
        <time>2014-07-12T12:04:52Z</time>
      </trkpt>
      <trkpt lat="59.988855" lon="17.5086663">
        <ele>36.1868</ele>
        <time>2014-07-12T12:04:53Z</time>
      </trkpt>
      <trkpt lat="59.988796" lon="17.5087083">
        <ele>36.6675</ele>
        <time>2014-07-12T12:04:54Z</time>
      </trkpt>
      <trkpt lat="59.9887358" lon="17.5087377">
        <ele>36.1868</ele>
        <time>2014-07-12T12:04:55Z</time>
      </trkpt>
      <trkpt lat="59.9886746" lon="17.5087654">
        <ele>35.7061</ele>
        <time>2014-07-12T12:04:56Z</time>
      </trkpt>
      <trkpt lat="59.9886095" lon="17.5087944">
        <ele>35.7061</ele>
        <time>2014-07-12T12:04:57Z</time>
      </trkpt>
      <trkpt lat="59.9885413" lon="17.5088227">
        <ele>35.7061</ele>
        <time>2014-07-12T12:04:58Z</time>
      </trkpt>
      <trkpt lat="59.9884683" lon="17.5088498">
        <ele>35.2255</ele>
        <time>2014-07-12T12:04:59Z</time>
      </trkpt>
      <trkpt lat="59.9883994" lon="17.5088766">
        <ele>35.2255</ele>
        <time>2014-07-12T12:05:00Z</time>
      </trkpt>
      <trkpt lat="59.9883266" lon="17.5088993">
        <ele>34.7449</ele>
        <time>2014-07-12T12:05:01Z</time>
      </trkpt>
      <trkpt lat="59.9882503" lon="17.5089211">
        <ele>34.7449</ele>
        <time>2014-07-12T12:05:02Z</time>
      </trkpt>
      <trkpt lat="59.9881732" lon="17.5089461">
        <ele>34.7449</ele>
        <time>2014-07-12T12:05:03Z</time>
      </trkpt>
      <trkpt lat="59.9880986" lon="17.5089791">
        <ele>34.7449</ele>
        <time>2014-07-12T12:05:04Z</time>
      </trkpt>
      <trkpt lat="59.9880266" lon="17.5090222">
        <ele>34.7449</ele>
        <time>2014-07-12T12:05:05Z</time>
      </trkpt>
      <trkpt lat="59.987955" lon="17.5090673">
        <ele>34.2642</ele>
        <time>2014-07-12T12:05:06Z</time>
      </trkpt>
      <trkpt lat="59.9878831" lon="17.5091113">
        <ele>34.2642</ele>
        <time>2014-07-12T12:05:07Z</time>
      </trkpt>
      <trkpt lat="59.9878107" lon="17.5091626">
        <ele>34.2642</ele>
        <time>2014-07-12T12:05:08Z</time>
      </trkpt>
      <trkpt lat="59.9877411" lon="17.5092183">
        <ele>34.2642</ele>
        <time>2014-07-12T12:05:09Z</time>
      </trkpt>
      <trkpt lat="59.9876717" lon="17.5092797">
        <ele>33.7834</ele>
        <time>2014-07-12T12:05:10Z</time>
      </trkpt>
      <trkpt lat="59.9876034" lon="17.5093442">
        <ele>33.7834</ele>
        <time>2014-07-12T12:05:11Z</time>
      </trkpt>
      <trkpt lat="59.9875371" lon="17.5094118">
        <ele>34.2642</ele>
        <time>2014-07-12T12:05:12Z</time>
      </trkpt>
      <trkpt lat="59.9874727" lon="17.5094831">
        <ele>34.7449</ele>
        <time>2014-07-12T12:05:13Z</time>
      </trkpt>
      <trkpt lat="59.9874087" lon="17.5095541">
        <ele>34.7449</ele>
        <time>2014-07-12T12:05:14Z</time>
      </trkpt>
      <trkpt lat="59.9873471" lon="17.5096183">
        <ele>34.7449</ele>
        <time>2014-07-12T12:05:15Z</time>
      </trkpt>
      <trkpt lat="59.9872844" lon="17.5096848">
        <ele>34.7449</ele>
        <time>2014-07-12T12:05:16Z</time>
      </trkpt>
      <trkpt lat="59.9872169" lon="17.5097638">
        <ele>35.2255</ele>
        <time>2014-07-12T12:05:17Z</time>
      </trkpt>
      <trkpt lat="59.9871533" lon="17.509837">
        <ele>35.7061</ele>
        <time>2014-07-12T12:05:18Z</time>
      </trkpt>
      <trkpt lat="59.9870956" lon="17.5099247">
        <ele>36.6675</ele>
        <time>2014-07-12T12:05:19Z</time>
      </trkpt>
      <trkpt lat="59.9870362" lon="17.5100031">
        <ele>36.6675</ele>
        <time>2014-07-12T12:05:20Z</time>
      </trkpt>
      <trkpt lat="59.9869745" lon="17.5100756">
        <ele>36.6675</ele>
        <time>2014-07-12T12:05:21Z</time>
      </trkpt>
      <trkpt lat="59.9869125" lon="17.5101468">
        <ele>36.6675</ele>
        <time>2014-07-12T12:05:22Z</time>
      </trkpt>
      <trkpt lat="59.9868513" lon="17.5102198">
        <ele>36.6675</ele>
        <time>2014-07-12T12:05:23Z</time>
      </trkpt>
      <trkpt lat="59.9867907" lon="17.5102965">
        <ele>36.1868</ele>
        <time>2014-07-12T12:05:24Z</time>
      </trkpt>
      <trkpt lat="59.9867278" lon="17.5103751">
        <ele>36.1868</ele>
        <time>2014-07-12T12:05:25Z</time>
      </trkpt>
      <trkpt lat="59.9866664" lon="17.5104576">
        <ele>35.7061</ele>
        <time>2014-07-12T12:05:26Z</time>
      </trkpt>
      <trkpt lat="59.9866057" lon="17.5105468">
        <ele>35.2255</ele>
        <time>2014-07-12T12:05:27Z</time>
      </trkpt>
      <trkpt lat="59.9865432" lon="17.5106415">
        <ele>34.2642</ele>
        <time>2014-07-12T12:05:28Z</time>
      </trkpt>
      <trkpt lat="59.9864817" lon="17.5107467">
        <ele>34.2642</ele>
        <time>2014-07-12T12:05:29Z</time>
      </trkpt>
      <trkpt lat="59.9864206" lon="17.5108533">
        <ele>33.7834</ele>
        <time>2014-07-12T12:05:30Z</time>
      </trkpt>
      <trkpt lat="59.9863592" lon="17.510958">
        <ele>33.3029</ele>
        <time>2014-07-12T12:05:31Z</time>
      </trkpt>
      <trkpt lat="59.9862963" lon="17.5110596">
        <ele>33.3029</ele>
        <time>2014-07-12T12:05:32Z</time>
      </trkpt>
      <trkpt lat="59.9862329" lon="17.5111589">
        <ele>32.8223</ele>
        <time>2014-07-12T12:05:33Z</time>
      </trkpt>
      <trkpt lat="59.9861701" lon="17.511256">
        <ele>32.8223</ele>
        <time>2014-07-12T12:05:34Z</time>
      </trkpt>
      <trkpt lat="59.9861069" lon="17.5113461">
        <ele>32.8223</ele>
        <time>2014-07-12T12:05:35Z</time>
      </trkpt>
      <trkpt lat="59.9860425" lon="17.5114325">
        <ele>32.8223</ele>
        <time>2014-07-12T12:05:36Z</time>
      </trkpt>
      <trkpt lat="59.9859774" lon="17.5115181">
        <ele>32.8223</ele>
        <time>2014-07-12T12:05:37Z</time>
      </trkpt>
      <trkpt lat="59.9859121" lon="17.5116045">
        <ele>32.8223</ele>
        <time>2014-07-12T12:05:38Z</time>
      </trkpt>
      <trkpt lat="59.9858462" lon="17.51169">
        <ele>32.8223</ele>
        <time>2014-07-12T12:05:39Z</time>
      </trkpt>
      <trkpt lat="59.9857788" lon="17.5117734">
        <ele>32.8223</ele>
        <time>2014-07-12T12:05:40Z</time>
      </trkpt>
      <trkpt lat="59.9857109" lon="17.5118578">
        <ele>32.8223</ele>
        <time>2014-07-12T12:05:41Z</time>
      </trkpt>
      <trkpt lat="59.9856426" lon="17.5119431">
        <ele>32.8223</ele>
        <time>2014-07-12T12:05:42Z</time>
      </trkpt>
      <trkpt lat="59.9855733" lon="17.5120267">
        <ele>32.8223</ele>
        <time>2014-07-12T12:05:43Z</time>
      </trkpt>
      <trkpt lat="59.9855024" lon="17.5121058">
        <ele>33.3029</ele>
        <time>2014-07-12T12:05:44Z</time>
      </trkpt>
      <trkpt lat="59.98543" lon="17.512179">
        <ele>33.3029</ele>
        <time>2014-07-12T12:05:45Z</time>
      </trkpt>
      <trkpt lat="59.9853571" lon="17.5122463">
        <ele>33.3029</ele>
        <time>2014-07-12T12:05:46Z</time>
      </trkpt>
      <trkpt lat="59.9852846" lon="17.5123104">
        <ele>33.3029</ele>
        <time>2014-07-12T12:05:47Z</time>
      </trkpt>
      <trkpt lat="59.9852132" lon="17.5123769">
        <ele>33.3029</ele>
        <time>2014-07-12T12:05:48Z</time>
      </trkpt>
      <trkpt lat="59.9851414" lon="17.5124471">
        <ele>33.3029</ele>
        <time>2014-07-12T12:05:49Z</time>
      </trkpt>
      <trkpt lat="59.9850697" lon="17.5125217">
        <ele>33.3029</ele>
        <time>2014-07-12T12:05:50Z</time>
      </trkpt>
      <trkpt lat="59.9849994" lon="17.512601">
        <ele>33.3029</ele>
        <time>2014-07-12T12:05:51Z</time>
      </trkpt>
      <trkpt lat="59.9849323" lon="17.5126835">
        <ele>33.3029</ele>
        <time>2014-07-12T12:05:52Z</time>
      </trkpt>
      <trkpt lat="59.9848678" lon="17.5127699">
        <ele>33.3029</ele>
        <time>2014-07-12T12:05:53Z</time>
      </trkpt>
      <trkpt lat="59.9848067" lon="17.5128638">
        <ele>33.7834</ele>
        <time>2014-07-12T12:05:54Z</time>
      </trkpt>
      <trkpt lat="59.9847495" lon="17.5129677">
        <ele>33.7834</ele>
        <time>2014-07-12T12:05:55Z</time>
      </trkpt>
      <trkpt lat="59.984697" lon="17.5130839">
        <ele>33.7834</ele>
        <time>2014-07-12T12:05:56Z</time>
      </trkpt>
      <trkpt lat="59.9846447" lon="17.5132259">
        <ele>33.7834</ele>
        <time>2014-07-12T12:05:57Z</time>
      </trkpt>
      <trkpt lat="59.984597" lon="17.5133698">
        <ele>33.3029</ele>
        <time>2014-07-12T12:05:58Z</time>
      </trkpt>
      <trkpt lat="59.9845591" lon="17.5135109">
        <ele>33.3029</ele>
        <time>2014-07-12T12:05:59Z</time>
      </trkpt>
      <trkpt lat="59.9845162" lon="17.5136574">
        <ele>32.8223</ele>
        <time>2014-07-12T12:06:00Z</time>
      </trkpt>
      <trkpt lat="59.9844814" lon="17.5138107">
        <ele>32.8223</ele>
        <time>2014-07-12T12:06:01Z</time>
      </trkpt>
      <trkpt lat="59.9844503" lon="17.5139566">
        <ele>32.8223</ele>
        <time>2014-07-12T12:06:02Z</time>
      </trkpt>
      <trkpt lat="59.9844187" lon="17.5141003">
        <ele>32.3416</ele>
        <time>2014-07-12T12:06:03Z</time>
      </trkpt>
      <trkpt lat="59.984388" lon="17.5142463">
        <ele>32.8223</ele>
        <time>2014-07-12T12:06:04Z</time>
      </trkpt>
      <trkpt lat="59.9843555" lon="17.5143897">
        <ele>32.8223</ele>
        <time>2014-07-12T12:06:05Z</time>
      </trkpt>
      <trkpt lat="59.9843223" lon="17.5145311">
        <ele>33.3029</ele>
        <time>2014-07-12T12:06:06Z</time>
      </trkpt>
      <trkpt lat="59.9842872" lon="17.5146696">
        <ele>33.3029</ele>
        <time>2014-07-12T12:06:07Z</time>
      </trkpt>
      <trkpt lat="59.9842507" lon="17.5148078">
        <ele>32.8223</ele>
        <time>2014-07-12T12:06:08Z</time>
      </trkpt>
      <trkpt lat="59.9842135" lon="17.514948">
        <ele>32.8223</ele>
        <time>2014-07-12T12:06:09Z</time>
      </trkpt>
      <trkpt lat="59.9841757" lon="17.5150886">
        <ele>32.8223</ele>
        <time>2014-07-12T12:06:10Z</time>
      </trkpt>
      <trkpt lat="59.9841369" lon="17.5152262">
        <ele>32.8223</ele>
        <time>2014-07-12T12:06:11Z</time>
      </trkpt>
      <trkpt lat="59.9840986" lon="17.5153614">
        <ele>32.3416</ele>
        <time>2014-07-12T12:06:12Z</time>
      </trkpt>
      <trkpt lat="59.9840621" lon="17.5154948">
        <ele>32.8223</ele>
        <time>2014-07-12T12:06:13Z</time>
      </trkpt>
      <trkpt lat="59.984025" lon="17.5156251">
        <ele>32.3416</ele>
        <time>2014-07-12T12:06:14Z</time>
      </trkpt>
      <trkpt lat="59.9839871" lon="17.5157569">
        <ele>32.3416</ele>
        <time>2014-07-12T12:06:15Z</time>
      </trkpt>
      <trkpt lat="59.98395" lon="17.5158875">
        <ele>32.3416</ele>
        <time>2014-07-12T12:06:16Z</time>
      </trkpt>
      <trkpt lat="59.983914" lon="17.516017">
        <ele>32.3416</ele>
        <time>2014-07-12T12:06:17Z</time>
      </trkpt>
      <trkpt lat="59.983877" lon="17.5161444">
        <ele>32.3416</ele>
        <time>2014-07-12T12:06:18Z</time>
      </trkpt>
      <trkpt lat="59.9838395" lon="17.5162707">
        <ele>32.3416</ele>
        <time>2014-07-12T12:06:19Z</time>
      </trkpt>
      <trkpt lat="59.9838017" lon="17.5163976">
        <ele>32.3416</ele>
        <time>2014-07-12T12:06:20Z</time>
      </trkpt>
      <trkpt lat="59.983763" lon="17.5165251">
        <ele>32.3416</ele>
        <time>2014-07-12T12:06:21Z</time>
      </trkpt>
      <trkpt lat="59.9837247" lon="17.5166554">
        <ele>31.8607</ele>
        <time>2014-07-12T12:06:22Z</time>
      </trkpt>
      <trkpt lat="59.9836873" lon="17.5167904">
        <ele>31.8607</ele>
        <time>2014-07-12T12:06:23Z</time>
      </trkpt>
      <trkpt lat="59.983655" lon="17.5169276">
        <ele>31.3801</ele>
        <time>2014-07-12T12:06:24Z</time>
      </trkpt>
      <trkpt lat="59.9836173" lon="17.5170891">
        <ele>31.3801</ele>
        <time>2014-07-12T12:06:25Z</time>
      </trkpt>
      <trkpt lat="59.9835812" lon="17.5172332">
        <ele>31.3801</ele>
        <time>2014-07-12T12:06:26Z</time>
      </trkpt>
      <trkpt lat="59.9835412" lon="17.5173803">
        <ele>30.8995</ele>
        <time>2014-07-12T12:06:27Z</time>
      </trkpt>
      <trkpt lat="59.9834972" lon="17.5175232">
        <ele>30.8995</ele>
        <time>2014-07-12T12:06:28Z</time>
      </trkpt>
      <trkpt lat="59.9834421" lon="17.5176491">
        <ele>30.4188</ele>
        <time>2014-07-12T12:06:29Z</time>
      </trkpt>
      <trkpt lat="59.9833752" lon="17.5177533">
        <ele>29.9381</ele>
        <time>2014-07-12T12:06:30Z</time>
      </trkpt>
      <trkpt lat="59.9832992" lon="17.517832">
        <ele>29.9381</ele>
        <time>2014-07-12T12:06:31Z</time>
      </trkpt>
      <trkpt lat="59.9832185" lon="17.5178935">
        <ele>29.9381</ele>
        <time>2014-07-12T12:06:32Z</time>
      </trkpt>
      <trkpt lat="59.9831345" lon="17.5179387">
        <ele>29.9381</ele>
        <time>2014-07-12T12:06:33Z</time>
      </trkpt>
      <trkpt lat="59.9830499" lon="17.517973">
        <ele>29.9381</ele>
        <time>2014-07-12T12:06:34Z</time>
      </trkpt>
      <trkpt lat="59.9829641" lon="17.5179999">
        <ele>29.9381</ele>
        <time>2014-07-12T12:06:35Z</time>
      </trkpt>
      <trkpt lat="59.9828788" lon="17.5180283">
        <ele>29.4575</ele>
        <time>2014-07-12T12:06:36Z</time>
      </trkpt>
      <trkpt lat="59.982794" lon="17.5180572">
        <ele>29.4575</ele>
        <time>2014-07-12T12:06:37Z</time>
      </trkpt>
      <trkpt lat="59.9827093" lon="17.5180862">
        <ele>29.4575</ele>
        <time>2014-07-12T12:06:38Z</time>
      </trkpt>
      <trkpt lat="59.9826259" lon="17.5181136">
        <ele>29.4575</ele>
        <time>2014-07-12T12:06:39Z</time>
      </trkpt>
      <trkpt lat="59.9825412" lon="17.5181414">
        <ele>29.4575</ele>
        <time>2014-07-12T12:06:40Z</time>
      </trkpt>
      <trkpt lat="59.9824587" lon="17.5181608">
        <ele>29.4575</ele>
        <time>2014-07-12T12:06:41Z</time>
      </trkpt>
      <trkpt lat="59.9823767" lon="17.5181861">
        <ele>29.4575</ele>
        <time>2014-07-12T12:06:42Z</time>
      </trkpt>
      <trkpt lat="59.9822938" lon="17.5182142">
        <ele>29.4575</ele>
        <time>2014-07-12T12:06:43Z</time>
      </trkpt>
      <trkpt lat="59.982212" lon="17.5182319">
        <ele>29.4575</ele>
        <time>2014-07-12T12:06:44Z</time>
      </trkpt>
      <trkpt lat="59.9821301" lon="17.518256">
        <ele>29.4575</ele>
        <time>2014-07-12T12:06:45Z</time>
      </trkpt>
      <trkpt lat="59.9820487" lon="17.5182775">
        <ele>29.9381</ele>
        <time>2014-07-12T12:06:46Z</time>
      </trkpt>
      <trkpt lat="59.9819659" lon="17.5182858">
        <ele>29.9381</ele>
        <time>2014-07-12T12:06:47Z</time>
      </trkpt>
      <trkpt lat="59.9818825" lon="17.5182849">
        <ele>29.9381</ele>
        <time>2014-07-12T12:06:48Z</time>
      </trkpt>
      <trkpt lat="59.981799" lon="17.5182748">
        <ele>30.4188</ele>
        <time>2014-07-12T12:06:49Z</time>
      </trkpt>
      <trkpt lat="59.9817152" lon="17.518259">
        <ele>30.4188</ele>
        <time>2014-07-12T12:06:50Z</time>
      </trkpt>
      <trkpt lat="59.9816308" lon="17.5182428">
        <ele>30.4188</ele>
        <time>2014-07-12T12:06:51Z</time>
      </trkpt>
      <trkpt lat="59.9815446" lon="17.5182286">
        <ele>30.4188</ele>
        <time>2014-07-12T12:06:52Z</time>
      </trkpt>
      <trkpt lat="59.9814581" lon="17.5182123">
        <ele>30.4188</ele>
        <time>2014-07-12T12:06:53Z</time>
      </trkpt>
      <trkpt lat="59.9813707" lon="17.518194">
        <ele>30.4188</ele>
        <time>2014-07-12T12:06:54Z</time>
      </trkpt>
      <trkpt lat="59.981283" lon="17.5181755">
        <ele>30.4188</ele>
        <time>2014-07-12T12:06:55Z</time>
      </trkpt>
      <trkpt lat="59.9811947" lon="17.5181563">
        <ele>30.4188</ele>
        <time>2014-07-12T12:06:56Z</time>
      </trkpt>
      <trkpt lat="59.9811069" lon="17.5181344">
        <ele>30.4188</ele>
        <time>2014-07-12T12:06:57Z</time>
      </trkpt>
      <trkpt lat="59.9810201" lon="17.5181131">
        <ele>30.4188</ele>
        <time>2014-07-12T12:06:58Z</time>
      </trkpt>
      <trkpt lat="59.9809349" lon="17.5180906">
        <ele>29.9381</ele>
        <time>2014-07-12T12:06:59Z</time>
      </trkpt>
      <trkpt lat="59.9808516" lon="17.5180677">
        <ele>30.4188</ele>
        <time>2014-07-12T12:07:00Z</time>
      </trkpt>
      <trkpt lat="59.9807698" lon="17.5180452">
        <ele>30.4188</ele>
        <time>2014-07-12T12:07:01Z</time>
      </trkpt>
      <trkpt lat="59.9806875" lon="17.5180247">
        <ele>30.4188</ele>
        <time>2014-07-12T12:07:02Z</time>
      </trkpt>
      <trkpt lat="59.9806051" lon="17.5180035">
        <ele>30.4188</ele>
        <time>2014-07-12T12:07:03Z</time>
      </trkpt>
      <trkpt lat="59.9805212" lon="17.517987">
        <ele>30.4188</ele>
        <time>2014-07-12T12:07:04Z</time>
      </trkpt>
      <trkpt lat="59.9804365" lon="17.5179785">
        <ele>30.4188</ele>
        <time>2014-07-12T12:07:05Z</time>
      </trkpt>
      <trkpt lat="59.9803518" lon="17.5179799">
        <ele>30.8995</ele>
        <time>2014-07-12T12:07:06Z</time>
      </trkpt>
      <trkpt lat="59.9802677" lon="17.5179937">
        <ele>30.8995</ele>
        <time>2014-07-12T12:07:07Z</time>
      </trkpt>
      <trkpt lat="59.9801845" lon="17.5180212">
        <ele>30.8995</ele>
        <time>2014-07-12T12:07:08Z</time>
      </trkpt>
      <trkpt lat="59.980102" lon="17.5180599">
        <ele>30.8995</ele>
        <time>2014-07-12T12:07:09Z</time>
      </trkpt>
      <trkpt lat="59.9800182" lon="17.5181076">
        <ele>30.4188</ele>
        <time>2014-07-12T12:07:10Z</time>
      </trkpt>
      <trkpt lat="59.9799332" lon="17.5181641">
        <ele>30.4188</ele>
        <time>2014-07-12T12:07:11Z</time>
      </trkpt>
      <trkpt lat="59.9798491" lon="17.5182283">
        <ele>30.4188</ele>
        <time>2014-07-12T12:07:12Z</time>
      </trkpt>
      <trkpt lat="59.9797665" lon="17.5182973">
        <ele>29.9381</ele>
        <time>2014-07-12T12:07:13Z</time>
      </trkpt>
      <trkpt lat="59.9796856" lon="17.5183695">
        <ele>29.9381</ele>
        <time>2014-07-12T12:07:14Z</time>
      </trkpt>
      <trkpt lat="59.9796057" lon="17.5184438">
        <ele>29.9381</ele>
        <time>2014-07-12T12:07:15Z</time>
      </trkpt>
      <trkpt lat="59.9795272" lon="17.518519">
        <ele>29.9381</ele>
        <time>2014-07-12T12:07:16Z</time>
      </trkpt>
      <trkpt lat="59.9794498" lon="17.518594">
        <ele>29.9381</ele>
        <time>2014-07-12T12:07:17Z</time>
      </trkpt>
      <trkpt lat="59.9793722" lon="17.5186685">
        <ele>29.9381</ele>
        <time>2014-07-12T12:07:18Z</time>
      </trkpt>
      <trkpt lat="59.9792952" lon="17.5187423">
        <ele>29.9381</ele>
        <time>2014-07-12T12:07:19Z</time>
      </trkpt>
      <trkpt lat="59.97922" lon="17.518814">
        <ele>29.9381</ele>
        <time>2014-07-12T12:07:20Z</time>
      </trkpt>
      <trkpt lat="59.979146" lon="17.518881">
        <ele>30.4188</ele>
        <time>2014-07-12T12:07:21Z</time>
      </trkpt>
      <trkpt lat="59.9790721" lon="17.518944">
        <ele>30.4188</ele>
        <time>2014-07-12T12:07:22Z</time>
      </trkpt>
      <trkpt lat="59.978998" lon="17.5190033">
        <ele>30.4188</ele>
        <time>2014-07-12T12:07:23Z</time>
      </trkpt>
      <trkpt lat="59.9789235" lon="17.5190582">
        <ele>30.4188</ele>
        <time>2014-07-12T12:07:24Z</time>
      </trkpt>
      <trkpt lat="59.9788476" lon="17.5191079">
        <ele>30.4188</ele>
        <time>2014-07-12T12:07:25Z</time>
      </trkpt>
      <trkpt lat="59.9787709" lon="17.5191549">
        <ele>30.8995</ele>
        <time>2014-07-12T12:07:26Z</time>
      </trkpt>
      <trkpt lat="59.978694" lon="17.5192017">
        <ele>30.8995</ele>
        <time>2014-07-12T12:07:27Z</time>
      </trkpt>
      <trkpt lat="59.978617" lon="17.5192496">
        <ele>30.8995</ele>
        <time>2014-07-12T12:07:28Z</time>
      </trkpt>
      <trkpt lat="59.9785422" lon="17.5192993">
        <ele>30.8995</ele>
        <time>2014-07-12T12:07:29Z</time>
      </trkpt>
      <trkpt lat="59.9784702" lon="17.5193533">
        <ele>31.3801</ele>
        <time>2014-07-12T12:07:30Z</time>
      </trkpt>
      <trkpt lat="59.978401" lon="17.5194157">
        <ele>31.3801</ele>
        <time>2014-07-12T12:07:31Z</time>
      </trkpt>
      <trkpt lat="59.9783345" lon="17.5194891">
        <ele>31.3801</ele>
        <time>2014-07-12T12:07:32Z</time>
      </trkpt>
      <trkpt lat="59.9782702" lon="17.5195704">
        <ele>31.3801</ele>
        <time>2014-07-12T12:07:33Z</time>
      </trkpt>
      <trkpt lat="59.9782072" lon="17.5196576">
        <ele>31.3801</ele>
        <time>2014-07-12T12:07:34Z</time>
      </trkpt>
      <trkpt lat="59.9781456" lon="17.5197512">
        <ele>31.3801</ele>
        <time>2014-07-12T12:07:35Z</time>
      </trkpt>
      <trkpt lat="59.9780859" lon="17.5198517">
        <ele>31.3801</ele>
        <time>2014-07-12T12:07:36Z</time>
      </trkpt>
      <trkpt lat="59.9780288" lon="17.5199583">
        <ele>31.3801</ele>
        <time>2014-07-12T12:07:37Z</time>
      </trkpt>
      <trkpt lat="59.9779747" lon="17.5200724">
        <ele>31.8607</ele>
        <time>2014-07-12T12:07:38Z</time>
      </trkpt>
      <trkpt lat="59.9779245" lon="17.520192">
        <ele>31.8607</ele>
        <time>2014-07-12T12:07:39Z</time>
      </trkpt>
      <trkpt lat="59.9778773" lon="17.5203154">
        <ele>31.8607</ele>
        <time>2014-07-12T12:07:40Z</time>
      </trkpt>
      <trkpt lat="59.9778321" lon="17.5204417">
        <ele>31.8607</ele>
        <time>2014-07-12T12:07:41Z</time>
      </trkpt>
      <trkpt lat="59.9777869" lon="17.5205674">
        <ele>31.8607</ele>
        <time>2014-07-12T12:07:42Z</time>
      </trkpt>
      <trkpt lat="59.9777413" lon="17.5206931">
        <ele>31.8607</ele>
        <time>2014-07-12T12:07:43Z</time>
      </trkpt>
      <trkpt lat="59.9776945" lon="17.5208192">
        <ele>31.8607</ele>
        <time>2014-07-12T12:07:44Z</time>
      </trkpt>
      <trkpt lat="59.9776484" lon="17.5209452">
        <ele>31.8607</ele>
        <time>2014-07-12T12:07:45Z</time>
      </trkpt>
      <trkpt lat="59.977603" lon="17.5210711">
        <ele>31.8607</ele>
        <time>2014-07-12T12:07:46Z</time>
      </trkpt>
      <trkpt lat="59.9775569" lon="17.5211953">
        <ele>31.8607</ele>
        <time>2014-07-12T12:07:47Z</time>
      </trkpt>
      <trkpt lat="59.9775098" lon="17.5213191">
        <ele>31.8607</ele>
        <time>2014-07-12T12:07:48Z</time>
      </trkpt>
      <trkpt lat="59.9774618" lon="17.5214436">
        <ele>31.8607</ele>
        <time>2014-07-12T12:07:49Z</time>
      </trkpt>
      <trkpt lat="59.9774136" lon="17.5215683">
        <ele>31.8607</ele>
        <time>2014-07-12T12:07:50Z</time>
      </trkpt>
      <trkpt lat="59.9773649" lon="17.5216911">
        <ele>31.8607</ele>
        <time>2014-07-12T12:07:51Z</time>
      </trkpt>
      <trkpt lat="59.9773157" lon="17.5218113">
        <ele>31.8607</ele>
        <time>2014-07-12T12:07:52Z</time>
      </trkpt>
      <trkpt lat="59.977266" lon="17.5219278">
        <ele>31.8607</ele>
        <time>2014-07-12T12:07:53Z</time>
      </trkpt>
      <trkpt lat="59.9772156" lon="17.5220422">
        <ele>31.8607</ele>
        <time>2014-07-12T12:07:54Z</time>
      </trkpt>
      <trkpt lat="59.977164" lon="17.5221561">
        <ele>31.8607</ele>
        <time>2014-07-12T12:07:55Z</time>
      </trkpt>
      <trkpt lat="59.9771114" lon="17.5222723">
        <ele>31.8607</ele>
        <time>2014-07-12T12:07:56Z</time>
      </trkpt>
      <trkpt lat="59.9770578" lon="17.5223896">
        <ele>31.8607</ele>
        <time>2014-07-12T12:07:57Z</time>
      </trkpt>
      <trkpt lat="59.9770039" lon="17.522507">
        <ele>31.8607</ele>
        <time>2014-07-12T12:07:58Z</time>
      </trkpt>
      <trkpt lat="59.9769499" lon="17.522624">
        <ele>31.8607</ele>
        <time>2014-07-12T12:07:59Z</time>
      </trkpt>
      <trkpt lat="59.9768951" lon="17.5227406">
        <ele>31.8607</ele>
        <time>2014-07-12T12:08:00Z</time>
      </trkpt>
      <trkpt lat="59.9768395" lon="17.5228557">
        <ele>31.8607</ele>
        <time>2014-07-12T12:08:01Z</time>
      </trkpt>
      <trkpt lat="59.9767826" lon="17.5229691">
        <ele>31.8607</ele>
        <time>2014-07-12T12:08:02Z</time>
      </trkpt>
      <trkpt lat="59.9767245" lon="17.5230784">
        <ele>31.8607</ele>
        <time>2014-07-12T12:08:03Z</time>
      </trkpt>
      <trkpt lat="59.9766663" lon="17.5231862">
        <ele>31.8607</ele>
        <time>2014-07-12T12:08:04Z</time>
      </trkpt>
      <trkpt lat="59.9766108" lon="17.5232959">
        <ele>31.8607</ele>
        <time>2014-07-12T12:08:05Z</time>
      </trkpt>
      <trkpt lat="59.9765579" lon="17.5234073">
        <ele>31.8607</ele>
        <time>2014-07-12T12:08:06Z</time>
      </trkpt>
      <trkpt lat="59.9765051" lon="17.5235171">
        <ele>31.8607</ele>
        <time>2014-07-12T12:08:07Z</time>
      </trkpt>
      <trkpt lat="59.9764506" lon="17.5236227">
        <ele>32.3416</ele>
        <time>2014-07-12T12:08:08Z</time>
      </trkpt>
      <trkpt lat="59.9763958" lon="17.523726">
        <ele>32.3416</ele>
        <time>2014-07-12T12:08:09Z</time>
      </trkpt>
      <trkpt lat="59.9763415" lon="17.523829">
        <ele>32.3416</ele>
        <time>2014-07-12T12:08:10Z</time>
      </trkpt>
      <trkpt lat="59.9762874" lon="17.5239305">
        <ele>32.3416</ele>
        <time>2014-07-12T12:08:11Z</time>
      </trkpt>
      <trkpt lat="59.9762339" lon="17.5240315">
        <ele>32.8223</ele>
        <time>2014-07-12T12:08:12Z</time>
      </trkpt>
      <trkpt lat="59.9761818" lon="17.524134">
        <ele>32.8223</ele>
        <time>2014-07-12T12:08:13Z</time>
      </trkpt>
      <trkpt lat="59.976131" lon="17.5242407">
        <ele>32.8223</ele>
        <time>2014-07-12T12:08:14Z</time>
      </trkpt>
      <trkpt lat="59.9760807" lon="17.5243508">
        <ele>32.8223</ele>
        <time>2014-07-12T12:08:15Z</time>
      </trkpt>
      <trkpt lat="59.9760306" lon="17.5244636">
        <ele>32.8223</ele>
        <time>2014-07-12T12:08:16Z</time>
      </trkpt>
      <trkpt lat="59.9759807" lon="17.5245769">
        <ele>33.3029</ele>
        <time>2014-07-12T12:08:17Z</time>
      </trkpt>
      <trkpt lat="59.9759311" lon="17.5246906">
        <ele>33.3029</ele>
        <time>2014-07-12T12:08:18Z</time>
      </trkpt>
      <trkpt lat="59.9758812" lon="17.5248049">
        <ele>33.3029</ele>
        <time>2014-07-12T12:08:19Z</time>
      </trkpt>
      <trkpt lat="59.9758285" lon="17.5249166">
        <ele>33.3029</ele>
        <time>2014-07-12T12:08:20Z</time>
      </trkpt>
      <trkpt lat="59.975773" lon="17.5250246">
        <ele>33.3029</ele>
        <time>2014-07-12T12:08:21Z</time>
      </trkpt>
      <trkpt lat="59.9757146" lon="17.5251297">
        <ele>33.3029</ele>
        <time>2014-07-12T12:08:22Z</time>
      </trkpt>
      <trkpt lat="59.9756545" lon="17.5252312">
        <ele>33.7834</ele>
        <time>2014-07-12T12:08:23Z</time>
      </trkpt>
      <trkpt lat="59.9755971" lon="17.5253231">
        <ele>33.7834</ele>
        <time>2014-07-12T12:08:24Z</time>
      </trkpt>
      <trkpt lat="59.9755441" lon="17.5254089">
        <ele>34.2642</ele>
        <time>2014-07-12T12:08:25Z</time>
      </trkpt>
      <trkpt lat="59.9754914" lon="17.5254916">
        <ele>34.2642</ele>
        <time>2014-07-12T12:08:26Z</time>
      </trkpt>
      <trkpt lat="59.9754357" lon="17.5255743">
        <ele>34.2642</ele>
        <time>2014-07-12T12:08:27Z</time>
      </trkpt>
      <trkpt lat="59.9753762" lon="17.5256519">
        <ele>34.2642</ele>
        <time>2014-07-12T12:08:28Z</time>
      </trkpt>
      <trkpt lat="59.9753148" lon="17.5257222">
        <ele>34.2642</ele>
        <time>2014-07-12T12:08:29Z</time>
      </trkpt>
      <trkpt lat="59.9752562" lon="17.5257931">
        <ele>34.2642</ele>
        <time>2014-07-12T12:08:30Z</time>
      </trkpt>
      <trkpt lat="59.9751997" lon="17.5258617">
        <ele>34.2642</ele>
        <time>2014-07-12T12:08:31Z</time>
      </trkpt>
      <trkpt lat="59.9751435" lon="17.5259249">
        <ele>34.7449</ele>
        <time>2014-07-12T12:08:32Z</time>
      </trkpt>
      <trkpt lat="59.9750872" lon="17.5259865">
        <ele>34.7449</ele>
        <time>2014-07-12T12:08:33Z</time>
      </trkpt>
      <trkpt lat="59.9750311" lon="17.5260482">
        <ele>34.7449</ele>
        <time>2014-07-12T12:08:34Z</time>
      </trkpt>
      <trkpt lat="59.9749743" lon="17.5261094">
        <ele>34.7449</ele>
        <time>2014-07-12T12:08:35Z</time>
      </trkpt>
      <trkpt lat="59.9749174" lon="17.5261721">
        <ele>34.7449</ele>
        <time>2014-07-12T12:08:36Z</time>
      </trkpt>
      <trkpt lat="59.9748597" lon="17.5262352">
        <ele>34.7449</ele>
        <time>2014-07-12T12:08:37Z</time>
      </trkpt>
      <trkpt lat="59.9748003" lon="17.5262979">
        <ele>34.2642</ele>
        <time>2014-07-12T12:08:38Z</time>
      </trkpt>
      <trkpt lat="59.97474" lon="17.5263641">
        <ele>34.2642</ele>
        <time>2014-07-12T12:08:39Z</time>
      </trkpt>
      <trkpt lat="59.9746794" lon="17.5264354">
        <ele>34.2642</ele>
        <time>2014-07-12T12:08:40Z</time>
      </trkpt>
      <trkpt lat="59.9746169" lon="17.5265087">
        <ele>34.2642</ele>
        <time>2014-07-12T12:08:41Z</time>
      </trkpt>
      <trkpt lat="59.9745528" lon="17.5265821">
        <ele>34.2642</ele>
        <time>2014-07-12T12:08:42Z</time>
      </trkpt>
      <trkpt lat="59.9744879" lon="17.5266545">
        <ele>34.2642</ele>
        <time>2014-07-12T12:08:43Z</time>
      </trkpt>
      <trkpt lat="59.9744232" lon="17.5267293">
        <ele>33.7834</ele>
        <time>2014-07-12T12:08:44Z</time>
      </trkpt>
      <trkpt lat="59.9743579" lon="17.5268058">
        <ele>33.7834</ele>
        <time>2014-07-12T12:08:45Z</time>
      </trkpt>
      <trkpt lat="59.9742921" lon="17.5268817">
        <ele>33.7834</ele>
        <time>2014-07-12T12:08:46Z</time>
      </trkpt>
      <trkpt lat="59.9742266" lon="17.5269562">
        <ele>33.7834</ele>
        <time>2014-07-12T12:08:47Z</time>
      </trkpt>
      <trkpt lat="59.9741609" lon="17.5270293">
        <ele>33.7834</ele>
        <time>2014-07-12T12:08:48Z</time>
      </trkpt>
      <trkpt lat="59.9740948" lon="17.5270997">
        <ele>33.3029</ele>
        <time>2014-07-12T12:08:49Z</time>
      </trkpt>
      <trkpt lat="59.9740269" lon="17.5271658">
        <ele>33.3029</ele>
        <time>2014-07-12T12:08:50Z</time>
      </trkpt>
      <trkpt lat="59.9739563" lon="17.5272257">
        <ele>33.3029</ele>
        <time>2014-07-12T12:08:51Z</time>
      </trkpt>
      <trkpt lat="59.9738843" lon="17.5272845">
        <ele>32.8223</ele>
        <time>2014-07-12T12:08:52Z</time>
      </trkpt>
      <trkpt lat="59.9738119" lon="17.5273447">
        <ele>32.8223</ele>
        <time>2014-07-12T12:08:53Z</time>
      </trkpt>
      <trkpt lat="59.9737392" lon="17.5274039">
        <ele>32.8223</ele>
        <time>2014-07-12T12:08:54Z</time>
      </trkpt>
      <trkpt lat="59.9736654" lon="17.5274639">
        <ele>32.8223</ele>
        <time>2014-07-12T12:08:55Z</time>
      </trkpt>
      <trkpt lat="59.9735919" lon="17.5275271">
        <ele>32.8223</ele>
        <time>2014-07-12T12:08:56Z</time>
      </trkpt>
      <trkpt lat="59.9735188" lon="17.5275908">
        <ele>32.3416</ele>
        <time>2014-07-12T12:08:57Z</time>
      </trkpt>
      <trkpt lat="59.9734461" lon="17.5276546">
        <ele>32.3416</ele>
        <time>2014-07-12T12:08:58Z</time>
      </trkpt>
      <trkpt lat="59.9733747" lon="17.527718">
        <ele>32.3416</ele>
        <time>2014-07-12T12:08:59Z</time>
      </trkpt>
      <trkpt lat="59.9733046" lon="17.5277799">
        <ele>32.3416</ele>
        <time>2014-07-12T12:09:00Z</time>
      </trkpt>
      <trkpt lat="59.9732357" lon="17.5278421">
        <ele>32.3416</ele>
        <time>2014-07-12T12:09:01Z</time>
      </trkpt>
      <trkpt lat="59.9731676" lon="17.5279051">
        <ele>31.8607</ele>
        <time>2014-07-12T12:09:02Z</time>
      </trkpt>
      <trkpt lat="59.9731" lon="17.5279674">
        <ele>31.8607</ele>
        <time>2014-07-12T12:09:03Z</time>
      </trkpt>
      <trkpt lat="59.9730323" lon="17.5280302">
        <ele>31.8607</ele>
        <time>2014-07-12T12:09:04Z</time>
      </trkpt>
      <trkpt lat="59.9729648" lon="17.5280943">
        <ele>31.8607</ele>
        <time>2014-07-12T12:09:05Z</time>
      </trkpt>
      <trkpt lat="59.9728971" lon="17.5281594">
        <ele>31.8607</ele>
        <time>2014-07-12T12:09:06Z</time>
      </trkpt>
      <trkpt lat="59.9728287" lon="17.5282252">
        <ele>31.8607</ele>
        <time>2014-07-12T12:09:07Z</time>
      </trkpt>
      <trkpt lat="59.9727599" lon="17.5282922">
        <ele>31.8607</ele>
        <time>2014-07-12T12:09:08Z</time>
      </trkpt>
      <trkpt lat="59.9726908" lon="17.5283599">
        <ele>31.8607</ele>
        <time>2014-07-12T12:09:09Z</time>
      </trkpt>
      <trkpt lat="59.9726213" lon="17.5284284">
        <ele>31.8607</ele>
        <time>2014-07-12T12:09:10Z</time>
      </trkpt>
      <trkpt lat="59.972552" lon="17.5284988">
        <ele>31.8607</ele>
        <time>2014-07-12T12:09:11Z</time>
      </trkpt>
      <trkpt lat="59.9724822" lon="17.5285688">
        <ele>31.8607</ele>
        <time>2014-07-12T12:09:12Z</time>
      </trkpt>
      <trkpt lat="59.972412" lon="17.5286377">
        <ele>31.3801</ele>
        <time>2014-07-12T12:09:13Z</time>
      </trkpt>
      <trkpt lat="59.9723418" lon="17.5287074">
        <ele>31.3801</ele>
        <time>2014-07-12T12:09:14Z</time>
      </trkpt>
      <trkpt lat="59.9722717" lon="17.528778">
        <ele>31.8607</ele>
        <time>2014-07-12T12:09:15Z</time>
      </trkpt>
      <trkpt lat="59.9722023" lon="17.5288495">
        <ele>31.8607</ele>
        <time>2014-07-12T12:09:16Z</time>
      </trkpt>
      <trkpt lat="59.9721341" lon="17.5289221">
        <ele>31.8607</ele>
        <time>2014-07-12T12:09:17Z</time>
      </trkpt>
      <trkpt lat="59.9720671" lon="17.5289956">
        <ele>31.8607</ele>
        <time>2014-07-12T12:09:18Z</time>
      </trkpt>
      <trkpt lat="59.972001" lon="17.5290719">
        <ele>32.3416</ele>
        <time>2014-07-12T12:09:19Z</time>
      </trkpt>
      <trkpt lat="59.9719362" lon="17.5291495">
        <ele>32.3416</ele>
        <time>2014-07-12T12:09:20Z</time>
      </trkpt>
      <trkpt lat="59.971871" lon="17.5292256">
        <ele>32.3416</ele>
        <time>2014-07-12T12:09:21Z</time>
      </trkpt>
      <trkpt lat="59.9718052" lon="17.5293029">
        <ele>32.3416</ele>
        <time>2014-07-12T12:09:22Z</time>
      </trkpt>
      <trkpt lat="59.9717404" lon="17.5293843">
        <ele>32.3416</ele>
        <time>2014-07-12T12:09:23Z</time>
      </trkpt>
      <trkpt lat="59.9716767" lon="17.5294687">
        <ele>32.3416</ele>
        <time>2014-07-12T12:09:24Z</time>
      </trkpt>
      <trkpt lat="59.971613" lon="17.5295542">
        <ele>32.3416</ele>
        <time>2014-07-12T12:09:25Z</time>
      </trkpt>
      <trkpt lat="59.9715488" lon="17.5296417">
        <ele>32.3416</ele>
        <time>2014-07-12T12:09:26Z</time>
      </trkpt>
      <trkpt lat="59.9714853" lon="17.5297341">
        <ele>32.3416</ele>
        <time>2014-07-12T12:09:27Z</time>
      </trkpt>
      <trkpt lat="59.9714226" lon="17.5298274">
        <ele>32.3416</ele>
        <time>2014-07-12T12:09:28Z</time>
      </trkpt>
      <trkpt lat="59.9713607" lon="17.5299233">
        <ele>32.3416</ele>
        <time>2014-07-12T12:09:29Z</time>
      </trkpt>
      <trkpt lat="59.9712984" lon="17.5300191">
        <ele>32.3416</ele>
        <time>2014-07-12T12:09:30Z</time>
      </trkpt>
      <trkpt lat="59.9712359" lon="17.5301151">
        <ele>31.8607</ele>
        <time>2014-07-12T12:09:31Z</time>
      </trkpt>
      <trkpt lat="59.9711728" lon="17.5302113">
        <ele>31.8607</ele>
        <time>2014-07-12T12:09:32Z</time>
      </trkpt>
      <trkpt lat="59.9711106" lon="17.5303072">
        <ele>31.8607</ele>
        <time>2014-07-12T12:09:33Z</time>
      </trkpt>
      <trkpt lat="59.9710494" lon="17.5304044">
        <ele>31.8607</ele>
        <time>2014-07-12T12:09:34Z</time>
      </trkpt>
      <trkpt lat="59.9709877" lon="17.5305019">
        <ele>31.8607</ele>
        <time>2014-07-12T12:09:35Z</time>
      </trkpt>
      <trkpt lat="59.9709251" lon="17.5305985">
        <ele>31.8607</ele>
        <time>2014-07-12T12:09:36Z</time>
      </trkpt>
      <trkpt lat="59.970862" lon="17.5306946">
        <ele>31.8607</ele>
        <time>2014-07-12T12:09:37Z</time>
      </trkpt>
      <trkpt lat="59.9707995" lon="17.5307927">
        <ele>31.8607</ele>
        <time>2014-07-12T12:09:38Z</time>
      </trkpt>
      <trkpt lat="59.970737" lon="17.5308939">
        <ele>31.3801</ele>
        <time>2014-07-12T12:09:39Z</time>
      </trkpt>
      <trkpt lat="59.9706744" lon="17.5309953">
        <ele>31.3801</ele>
        <time>2014-07-12T12:09:40Z</time>
      </trkpt>
      <trkpt lat="59.9706132" lon="17.5310989">
        <ele>31.3801</ele>
        <time>2014-07-12T12:09:41Z</time>
      </trkpt>
      <trkpt lat="59.9705541" lon="17.5312053">
        <ele>31.3801</ele>
        <time>2014-07-12T12:09:42Z</time>
      </trkpt>
      <trkpt lat="59.9704977" lon="17.5313148">
        <ele>31.3801</ele>
        <time>2014-07-12T12:09:43Z</time>
      </trkpt>
      <trkpt lat="59.9704448" lon="17.5314294">
        <ele>31.3801</ele>
        <time>2014-07-12T12:09:44Z</time>
      </trkpt>
      <trkpt lat="59.9703941" lon="17.5315508">
        <ele>31.8607</ele>
        <time>2014-07-12T12:09:45Z</time>
      </trkpt>
      <trkpt lat="59.9703465" lon="17.5316708">
        <ele>31.8607</ele>
        <time>2014-07-12T12:09:46Z</time>
      </trkpt>
      <trkpt lat="59.9703003" lon="17.5317917">
        <ele>31.8607</ele>
        <time>2014-07-12T12:09:47Z</time>
      </trkpt>
      <trkpt lat="59.9702554" lon="17.5319153">
        <ele>31.8607</ele>
        <time>2014-07-12T12:09:48Z</time>
      </trkpt>
      <trkpt lat="59.9702121" lon="17.53204">
        <ele>31.8607</ele>
        <time>2014-07-12T12:09:49Z</time>
      </trkpt>
      <trkpt lat="59.9701693" lon="17.5321664">
        <ele>31.8607</ele>
        <time>2014-07-12T12:09:50Z</time>
      </trkpt>
      <trkpt lat="59.9701271" lon="17.5322949">
        <ele>31.8607</ele>
        <time>2014-07-12T12:09:51Z</time>
      </trkpt>
      <trkpt lat="59.9700858" lon="17.532425">
        <ele>31.8607</ele>
        <time>2014-07-12T12:09:52Z</time>
      </trkpt>
      <trkpt lat="59.9700444" lon="17.5325553">
        <ele>31.8607</ele>
        <time>2014-07-12T12:09:53Z</time>
      </trkpt>
      <trkpt lat="59.9700015" lon="17.5326843">
        <ele>31.8607</ele>
        <time>2014-07-12T12:09:54Z</time>
      </trkpt>
      <trkpt lat="59.9699557" lon="17.5328101">
        <ele>31.8607</ele>
        <time>2014-07-12T12:09:55Z</time>
      </trkpt>
      <trkpt lat="59.9699068" lon="17.5329346">
        <ele>31.8607</ele>
        <time>2014-07-12T12:09:56Z</time>
      </trkpt>
      <trkpt lat="59.9698554" lon="17.5330552">
        <ele>31.8607</ele>
        <time>2014-07-12T12:09:57Z</time>
      </trkpt>
      <trkpt lat="59.969801" lon="17.5331709">
        <ele>31.8607</ele>
        <time>2014-07-12T12:09:58Z</time>
      </trkpt>
      <trkpt lat="59.9697436" lon="17.5332791">
        <ele>31.8607</ele>
        <time>2014-07-12T12:09:59Z</time>
      </trkpt>
      <trkpt lat="59.9696843" lon="17.5333796">
        <ele>32.3416</ele>
        <time>2014-07-12T12:10:00Z</time>
      </trkpt>
      <trkpt lat="59.9696243" lon="17.5334799">
        <ele>32.3416</ele>
        <time>2014-07-12T12:10:01Z</time>
      </trkpt>
      <trkpt lat="59.9695648" lon="17.5335811">
        <ele>32.3416</ele>
        <time>2014-07-12T12:10:02Z</time>
      </trkpt>
      <trkpt lat="59.9695051" lon="17.53368">
        <ele>32.3416</ele>
        <time>2014-07-12T12:10:03Z</time>
      </trkpt>
      <trkpt lat="59.9694445" lon="17.5337764">
        <ele>32.3416</ele>
        <time>2014-07-12T12:10:04Z</time>
      </trkpt>
      <trkpt lat="59.9693844" lon="17.5338728">
        <ele>32.3416</ele>
        <time>2014-07-12T12:10:05Z</time>
      </trkpt>
      <trkpt lat="59.9693254" lon="17.533971">
        <ele>32.3416</ele>
        <time>2014-07-12T12:10:06Z</time>
      </trkpt>
      <trkpt lat="59.9692664" lon="17.5340695">
        <ele>32.3416</ele>
        <time>2014-07-12T12:10:07Z</time>
      </trkpt>
      <trkpt lat="59.9692079" lon="17.5341688">
        <ele>32.3416</ele>
        <time>2014-07-12T12:10:08Z</time>
      </trkpt>
      <trkpt lat="59.9691499" lon="17.5342686">
        <ele>32.3416</ele>
        <time>2014-07-12T12:10:09Z</time>
      </trkpt>
      <trkpt lat="59.9690927" lon="17.5343677">
        <ele>32.3416</ele>
        <time>2014-07-12T12:10:10Z</time>
      </trkpt>
      <trkpt lat="59.9690354" lon="17.5344678">
        <ele>32.3416</ele>
        <time>2014-07-12T12:10:11Z</time>
      </trkpt>
      <trkpt lat="59.9689797" lon="17.5345694">
        <ele>32.3416</ele>
        <time>2014-07-12T12:10:12Z</time>
      </trkpt>
      <trkpt lat="59.9689245" lon="17.5346737">
        <ele>32.3416</ele>
        <time>2014-07-12T12:10:13Z</time>
      </trkpt>
      <trkpt lat="59.9688689" lon="17.5347792">
        <ele>32.3416</ele>
        <time>2014-07-12T12:10:14Z</time>
      </trkpt>
      <trkpt lat="59.9688134" lon="17.5348854">
        <ele>32.3416</ele>
        <time>2014-07-12T12:10:15Z</time>
      </trkpt>
      <trkpt lat="59.9687588" lon="17.5349948">
        <ele>32.3416</ele>
        <time>2014-07-12T12:10:16Z</time>
      </trkpt>
      <trkpt lat="59.9687055" lon="17.535105">
        <ele>32.3416</ele>
        <time>2014-07-12T12:10:17Z</time>
      </trkpt>
      <trkpt lat="59.9686526" lon="17.5352123">
        <ele>32.3416</ele>
        <time>2014-07-12T12:10:18Z</time>
      </trkpt>
      <trkpt lat="59.9685987" lon="17.535315">
        <ele>32.3416</ele>
        <time>2014-07-12T12:10:19Z</time>
      </trkpt>
      <trkpt lat="59.9685447" lon="17.5354153">
        <ele>32.8223</ele>
        <time>2014-07-12T12:10:20Z</time>
      </trkpt>
      <trkpt lat="59.968492" lon="17.5355167">
        <ele>32.8223</ele>
        <time>2014-07-12T12:10:21Z</time>
      </trkpt>
      <trkpt lat="59.9684402" lon="17.5356175">
        <ele>32.3416</ele>
        <time>2014-07-12T12:10:22Z</time>
      </trkpt>
      <trkpt lat="59.9683879" lon="17.5357162">
        <ele>32.3416</ele>
        <time>2014-07-12T12:10:23Z</time>
      </trkpt>
      <trkpt lat="59.9683345" lon="17.5358152">
        <ele>32.3416</ele>
        <time>2014-07-12T12:10:24Z</time>
      </trkpt>
      <trkpt lat="59.9682794" lon="17.5359178">
        <ele>32.8223</ele>
        <time>2014-07-12T12:10:25Z</time>
      </trkpt>
      <trkpt lat="59.9682236" lon="17.5360178">
        <ele>32.3416</ele>
        <time>2014-07-12T12:10:26Z</time>
      </trkpt>
      <trkpt lat="59.9681706" lon="17.536127">
        <ele>32.3416</ele>
        <time>2014-07-12T12:10:27Z</time>
      </trkpt>
      <trkpt lat="59.9681212" lon="17.5362437">
        <ele>32.3416</ele>
        <time>2014-07-12T12:10:28Z</time>
      </trkpt>
      <trkpt lat="59.9680754" lon="17.5363659">
        <ele>31.8607</ele>
        <time>2014-07-12T12:10:29Z</time>
      </trkpt>
      <trkpt lat="59.9680314" lon="17.5364908">
        <ele>31.8607</ele>
        <time>2014-07-12T12:10:30Z</time>
      </trkpt>
      <trkpt lat="59.9679877" lon="17.5366171">
        <ele>31.8607</ele>
        <time>2014-07-12T12:10:31Z</time>
      </trkpt>
      <trkpt lat="59.9679442" lon="17.5367443">
        <ele>32.3416</ele>
        <time>2014-07-12T12:10:32Z</time>
      </trkpt>
      <trkpt lat="59.9678999" lon="17.5368678">
        <ele>32.3416</ele>
        <time>2014-07-12T12:10:33Z</time>
      </trkpt>
      <trkpt lat="59.9678533" lon="17.536987">
        <ele>32.3416</ele>
        <time>2014-07-12T12:10:34Z</time>
      </trkpt>
      <trkpt lat="59.9678038" lon="17.5371015">
        <ele>32.3416</ele>
        <time>2014-07-12T12:10:35Z</time>
      </trkpt>
      <trkpt lat="59.9677513" lon="17.5372105">
        <ele>32.3416</ele>
        <time>2014-07-12T12:10:36Z</time>
      </trkpt>
      <trkpt lat="59.9676969" lon="17.5373144">
        <ele>32.3416</ele>
        <time>2014-07-12T12:10:37Z</time>
      </trkpt>
      <trkpt lat="59.9676403" lon="17.5374133">
        <ele>32.3416</ele>
        <time>2014-07-12T12:10:38Z</time>
      </trkpt>
      <trkpt lat="59.9675821" lon="17.5375096">
        <ele>32.3416</ele>
        <time>2014-07-12T12:10:39Z</time>
      </trkpt>
      <trkpt lat="59.9675228" lon="17.5376025">
        <ele>32.3416</ele>
        <time>2014-07-12T12:10:40Z</time>
      </trkpt>
      <trkpt lat="59.9674627" lon="17.5376935">
        <ele>32.3416</ele>
        <time>2014-07-12T12:10:41Z</time>
      </trkpt>
      <trkpt lat="59.9674015" lon="17.5377832">
        <ele>32.3416</ele>
        <time>2014-07-12T12:10:42Z</time>
      </trkpt>
      <trkpt lat="59.9673398" lon="17.5378736">
        <ele>32.3416</ele>
        <time>2014-07-12T12:10:43Z</time>
      </trkpt>
      <trkpt lat="59.9672783" lon="17.5379649">
        <ele>32.3416</ele>
        <time>2014-07-12T12:10:44Z</time>
      </trkpt>
      <trkpt lat="59.9672172" lon="17.5380557">
        <ele>32.3416</ele>
        <time>2014-07-12T12:10:45Z</time>
      </trkpt>
      <trkpt lat="59.9671559" lon="17.5381451">
        <ele>32.3416</ele>
        <time>2014-07-12T12:10:46Z</time>
      </trkpt>
      <trkpt lat="59.9670944" lon="17.5382349">
        <ele>32.3416</ele>
        <time>2014-07-12T12:10:47Z</time>
      </trkpt>
      <trkpt lat="59.9670338" lon="17.5383261">
        <ele>32.3416</ele>
        <time>2014-07-12T12:10:48Z</time>
      </trkpt>
      <trkpt lat="59.9669742" lon="17.5384196">
        <ele>32.3416</ele>
        <time>2014-07-12T12:10:49Z</time>
      </trkpt>
      <trkpt lat="59.9669151" lon="17.5385156">
        <ele>32.3416</ele>
        <time>2014-07-12T12:10:50Z</time>
      </trkpt>
      <trkpt lat="59.9668571" lon="17.538613">
        <ele>32.3416</ele>
        <time>2014-07-12T12:10:51Z</time>
      </trkpt>
      <trkpt lat="59.9668002" lon="17.5387124">
        <ele>32.3416</ele>
        <time>2014-07-12T12:10:52Z</time>
      </trkpt>
      <trkpt lat="59.9667441" lon="17.5388123">
        <ele>32.3416</ele>
        <time>2014-07-12T12:10:53Z</time>
      </trkpt>
      <trkpt lat="59.9666875" lon="17.5389129">
        <ele>32.3416</ele>
        <time>2014-07-12T12:10:54Z</time>
      </trkpt>
      <trkpt lat="59.9666312" lon="17.5390155">
        <ele>32.3416</ele>
        <time>2014-07-12T12:10:55Z</time>
      </trkpt>
      <trkpt lat="59.9665754" lon="17.5391205">
        <ele>32.3416</ele>
        <time>2014-07-12T12:10:56Z</time>
      </trkpt>
      <trkpt lat="59.9665197" lon="17.5392259">
        <ele>32.3416</ele>
        <time>2014-07-12T12:10:57Z</time>
      </trkpt>
      <trkpt lat="59.9664628" lon="17.5393294">
        <ele>32.3416</ele>
        <time>2014-07-12T12:10:58Z</time>
      </trkpt>
      <trkpt lat="59.9664048" lon="17.5394319">
        <ele>32.3416</ele>
        <time>2014-07-12T12:10:59Z</time>
      </trkpt>
      <trkpt lat="59.9663458" lon="17.5395318">
        <ele>32.3416</ele>
        <time>2014-07-12T12:11:00Z</time>
      </trkpt>
      <trkpt lat="59.9662852" lon="17.5396274">
        <ele>32.8223</ele>
        <time>2014-07-12T12:11:01Z</time>
      </trkpt>
      <trkpt lat="59.9662235" lon="17.53972">
        <ele>32.8223</ele>
        <time>2014-07-12T12:11:02Z</time>
      </trkpt>
      <trkpt lat="59.9661609" lon="17.5398137">
        <ele>32.8223</ele>
        <time>2014-07-12T12:11:03Z</time>
      </trkpt>
      <trkpt lat="59.9660988" lon="17.5399109">
        <ele>32.8223</ele>
        <time>2014-07-12T12:11:04Z</time>
      </trkpt>
      <trkpt lat="59.9660374" lon="17.5400092">
        <ele>32.8223</ele>
        <time>2014-07-12T12:11:05Z</time>
      </trkpt>
      <trkpt lat="59.9659756" lon="17.540107">
        <ele>32.8223</ele>
        <time>2014-07-12T12:11:06Z</time>
      </trkpt>
      <trkpt lat="59.9659117" lon="17.5401998">
        <ele>32.8223</ele>
        <time>2014-07-12T12:11:07Z</time>
      </trkpt>
      <trkpt lat="59.9658454" lon="17.5402875">
        <ele>32.8223</ele>
        <time>2014-07-12T12:11:08Z</time>
      </trkpt>
      <trkpt lat="59.9657787" lon="17.5403728">
        <ele>32.8223</ele>
        <time>2014-07-12T12:11:09Z</time>
      </trkpt>
      <trkpt lat="59.9657121" lon="17.5404571">
        <ele>32.8223</ele>
        <time>2014-07-12T12:11:10Z</time>
      </trkpt>
      <trkpt lat="59.9656454" lon="17.5405401">
        <ele>32.3416</ele>
        <time>2014-07-12T12:11:11Z</time>
      </trkpt>
      <trkpt lat="59.9655786" lon="17.5406224">
        <ele>32.3416</ele>
        <time>2014-07-12T12:11:12Z</time>
      </trkpt>
      <trkpt lat="59.9655113" lon="17.5407038">
        <ele>32.3416</ele>
        <time>2014-07-12T12:11:13Z</time>
      </trkpt>
      <trkpt lat="59.9654433" lon="17.5407829">
        <ele>32.3416</ele>
        <time>2014-07-12T12:11:14Z</time>
      </trkpt>
      <trkpt lat="59.9653747" lon="17.5408597">
        <ele>32.3416</ele>
        <time>2014-07-12T12:11:15Z</time>
      </trkpt>
      <trkpt lat="59.9653066" lon="17.5409378">
        <ele>32.3416</ele>
        <time>2014-07-12T12:11:16Z</time>
      </trkpt>
      <trkpt lat="59.9652388" lon="17.5410187">
        <ele>32.3416</ele>
        <time>2014-07-12T12:11:17Z</time>
      </trkpt>
      <trkpt lat="59.9651718" lon="17.5411034">
        <ele>32.3416</ele>
        <time>2014-07-12T12:11:18Z</time>
      </trkpt>
      <trkpt lat="59.9651056" lon="17.5411901">
        <ele>32.3416</ele>
        <time>2014-07-12T12:11:19Z</time>
      </trkpt>
      <trkpt lat="59.9650388" lon="17.5412759">
        <ele>32.3416</ele>
        <time>2014-07-12T12:11:20Z</time>
      </trkpt>
      <trkpt lat="59.9649772" lon="17.5413557">
        <ele>32.3416</ele>
        <time>2014-07-12T12:11:21Z</time>
      </trkpt>
      <trkpt lat="59.9649168" lon="17.5414278">
        <ele>31.8607</ele>
        <time>2014-07-12T12:11:22Z</time>
      </trkpt>
      <trkpt lat="59.9648499" lon="17.5414989">
        <ele>31.8607</ele>
        <time>2014-07-12T12:11:23Z</time>
      </trkpt>
      <trkpt lat="59.9647807" lon="17.5415704">
        <ele>31.8607</ele>
        <time>2014-07-12T12:11:24Z</time>
      </trkpt>
      <trkpt lat="59.964712" lon="17.5416423">
        <ele>31.8607</ele>
        <time>2014-07-12T12:11:25Z</time>
      </trkpt>
      <trkpt lat="59.9646431" lon="17.5417137">
        <ele>31.8607</ele>
        <time>2014-07-12T12:11:26Z</time>
      </trkpt>
      <trkpt lat="59.9645737" lon="17.5417827">
        <ele>31.3801</ele>
        <time>2014-07-12T12:11:27Z</time>
      </trkpt>
      <trkpt lat="59.9645034" lon="17.5418504">
        <ele>31.3801</ele>
        <time>2014-07-12T12:11:28Z</time>
      </trkpt>
      <trkpt lat="59.9644324" lon="17.5419172">
        <ele>31.3801</ele>
        <time>2014-07-12T12:11:29Z</time>
      </trkpt>
      <trkpt lat="59.9643607" lon="17.5419832">
        <ele>31.3801</ele>
        <time>2014-07-12T12:11:30Z</time>
      </trkpt>
      <trkpt lat="59.9642883" lon="17.5420489">
        <ele>31.3801</ele>
        <time>2014-07-12T12:11:31Z</time>
      </trkpt>
      <trkpt lat="59.9642158" lon="17.5421154">
        <ele>31.3801</ele>
        <time>2014-07-12T12:11:32Z</time>
      </trkpt>
      <trkpt lat="59.9641433" lon="17.5421826">
        <ele>31.3801</ele>
        <time>2014-07-12T12:11:33Z</time>
      </trkpt>
      <trkpt lat="59.9640707" lon="17.5422484">
        <ele>31.3801</ele>
        <time>2014-07-12T12:11:34Z</time>
      </trkpt>
      <trkpt lat="59.9639987" lon="17.5423129">
        <ele>31.3801</ele>
        <time>2014-07-12T12:11:35Z</time>
      </trkpt>
      <trkpt lat="59.9639272" lon="17.5423761">
        <ele>31.3801</ele>
        <time>2014-07-12T12:11:36Z</time>
      </trkpt>
      <trkpt lat="59.9638558" lon="17.542438">
        <ele>31.3801</ele>
        <time>2014-07-12T12:11:37Z</time>
      </trkpt>
      <trkpt lat="59.9637842" lon="17.5425001">
        <ele>31.3801</ele>
        <time>2014-07-12T12:11:38Z</time>
      </trkpt>
      <trkpt lat="59.9637129" lon="17.5425634">
        <ele>31.3801</ele>
        <time>2014-07-12T12:11:39Z</time>
      </trkpt>
      <trkpt lat="59.9636428" lon="17.5426292">
        <ele>31.3801</ele>
        <time>2014-07-12T12:11:40Z</time>
      </trkpt>
      <trkpt lat="59.9635735" lon="17.5426992">
        <ele>31.3801</ele>
        <time>2014-07-12T12:11:41Z</time>
      </trkpt>
      <trkpt lat="59.9635056" lon="17.5427747">
        <ele>31.3801</ele>
        <time>2014-07-12T12:11:42Z</time>
      </trkpt>
      <trkpt lat="59.9634398" lon="17.5428575">
        <ele>31.3801</ele>
        <time>2014-07-12T12:11:43Z</time>
      </trkpt>
      <trkpt lat="59.9633776" lon="17.5429508">
        <ele>31.3801</ele>
        <time>2014-07-12T12:11:44Z</time>
      </trkpt>
      <trkpt lat="59.9633206" lon="17.5430573">
        <ele>31.3801</ele>
        <time>2014-07-12T12:11:45Z</time>
      </trkpt>
      <trkpt lat="59.9632692" lon="17.5431757">
        <ele>31.8607</ele>
        <time>2014-07-12T12:11:46Z</time>
      </trkpt>
      <trkpt lat="59.9632243" lon="17.5433031">
        <ele>31.8607</ele>
        <time>2014-07-12T12:11:47Z</time>
      </trkpt>
      <trkpt lat="59.9631856" lon="17.5434383">
        <ele>31.8607</ele>
        <time>2014-07-12T12:11:48Z</time>
      </trkpt>
      <trkpt lat="59.9631508" lon="17.5435774">
        <ele>31.8607</ele>
        <time>2014-07-12T12:11:49Z</time>
      </trkpt>
      <trkpt lat="59.9631171" lon="17.5437169">
        <ele>31.8607</ele>
        <time>2014-07-12T12:11:50Z</time>
      </trkpt>
      <trkpt lat="59.9630849" lon="17.5438579">
        <ele>31.8607</ele>
        <time>2014-07-12T12:11:51Z</time>
      </trkpt>
      <trkpt lat="59.963055" lon="17.5440007">
        <ele>32.3416</ele>
        <time>2014-07-12T12:11:52Z</time>
      </trkpt>
      <trkpt lat="59.9630263" lon="17.5441433">
        <ele>32.3416</ele>
        <time>2014-07-12T12:11:53Z</time>
      </trkpt>
      <trkpt lat="59.9629967" lon="17.5442843">
        <ele>32.3416</ele>
        <time>2014-07-12T12:11:54Z</time>
      </trkpt>
      <trkpt lat="59.9629648" lon="17.5444208">
        <ele>32.3416</ele>
        <time>2014-07-12T12:11:55Z</time>
      </trkpt>
      <trkpt lat="59.9629275" lon="17.5445504">
        <ele>32.8223</ele>
        <time>2014-07-12T12:11:56Z</time>
      </trkpt>
      <trkpt lat="59.9628843" lon="17.5446732">
        <ele>32.8223</ele>
        <time>2014-07-12T12:11:57Z</time>
      </trkpt>
      <trkpt lat="59.9628349" lon="17.5447909">
        <ele>32.8223</ele>
        <time>2014-07-12T12:11:58Z</time>
      </trkpt>
      <trkpt lat="59.9627778" lon="17.5448923">
        <ele>32.8223</ele>
        <time>2014-07-12T12:11:59Z</time>
      </trkpt>
      <trkpt lat="59.9627125" lon="17.5449621">
        <ele>32.3416</ele>
        <time>2014-07-12T12:12:00Z</time>
      </trkpt>
      <trkpt lat="59.9626374" lon="17.545002">
        <ele>31.8607</ele>
        <time>2014-07-12T12:12:01Z</time>
      </trkpt>
      <trkpt lat="59.9625623" lon="17.5450373">
        <ele>31.8607</ele>
        <time>2014-07-12T12:12:02Z</time>
      </trkpt>
      <trkpt lat="59.9624856" lon="17.5450695">
        <ele>31.3801</ele>
        <time>2014-07-12T12:12:03Z</time>
      </trkpt>
      <trkpt lat="59.9624106" lon="17.5451035">
        <ele>31.3801</ele>
        <time>2014-07-12T12:12:04Z</time>
      </trkpt>
      <trkpt lat="59.9623334" lon="17.5451354">
        <ele>30.8995</ele>
        <time>2014-07-12T12:12:05Z</time>
      </trkpt>
      <trkpt lat="59.9622562" lon="17.5451679">
        <ele>30.8995</ele>
        <time>2014-07-12T12:12:06Z</time>
      </trkpt>
      <trkpt lat="59.9621785" lon="17.5451985">
        <ele>30.8995</ele>
        <time>2014-07-12T12:12:07Z</time>
      </trkpt>
      <trkpt lat="59.9620997" lon="17.5452258">
        <ele>30.8995</ele>
        <time>2014-07-12T12:12:08Z</time>
      </trkpt>
      <trkpt lat="59.9620206" lon="17.5452483">
        <ele>30.4188</ele>
        <time>2014-07-12T12:12:09Z</time>
      </trkpt>
      <trkpt lat="59.9619417" lon="17.5452637">
        <ele>30.4188</ele>
        <time>2014-07-12T12:12:10Z</time>
      </trkpt>
      <trkpt lat="59.9618625" lon="17.5452656">
        <ele>30.4188</ele>
        <time>2014-07-12T12:12:11Z</time>
      </trkpt>
      <trkpt lat="59.9617836" lon="17.5452517">
        <ele>30.4188</ele>
        <time>2014-07-12T12:12:12Z</time>
      </trkpt>
      <trkpt lat="59.9617045" lon="17.5452191">
        <ele>30.4188</ele>
        <time>2014-07-12T12:12:13Z</time>
      </trkpt>
      <trkpt lat="59.9616271" lon="17.545184">
        <ele>30.4188</ele>
        <time>2014-07-12T12:12:14Z</time>
      </trkpt>
      <trkpt lat="59.9615484" lon="17.5451481">
        <ele>30.4188</ele>
        <time>2014-07-12T12:12:15Z</time>
      </trkpt>
      <trkpt lat="59.9614657" lon="17.5451055">
        <ele>30.4188</ele>
        <time>2014-07-12T12:12:16Z</time>
      </trkpt>
      <trkpt lat="59.961388" lon="17.5450527">
        <ele>29.9381</ele>
        <time>2014-07-12T12:12:17Z</time>
      </trkpt>
      <trkpt lat="59.9613149" lon="17.544997">
        <ele>29.9381</ele>
        <time>2014-07-12T12:12:18Z</time>
      </trkpt>
      <trkpt lat="59.9612417" lon="17.5449442">
        <ele>29.9381</ele>
        <time>2014-07-12T12:12:19Z</time>
      </trkpt>
      <trkpt lat="59.9611682" lon="17.5448966">
        <ele>29.9381</ele>
        <time>2014-07-12T12:12:20Z</time>
      </trkpt>
      <trkpt lat="59.9610936" lon="17.5448556">
        <ele>29.9381</ele>
        <time>2014-07-12T12:12:21Z</time>
      </trkpt>
      <trkpt lat="59.9610176" lon="17.5448191">
        <ele>29.9381</ele>
        <time>2014-07-12T12:12:22Z</time>
      </trkpt>
      <trkpt lat="59.960942" lon="17.5447825">
        <ele>29.9381</ele>
        <time>2014-07-12T12:12:23Z</time>
      </trkpt>
      <trkpt lat="59.9608661" lon="17.5447486">
        <ele>29.9381</ele>
        <time>2014-07-12T12:12:24Z</time>
      </trkpt>
      <trkpt lat="59.9607887" lon="17.5447193">
        <ele>29.9381</ele>
        <time>2014-07-12T12:12:25Z</time>
      </trkpt>
      <trkpt lat="59.9607099" lon="17.5446934">
        <ele>29.9381</ele>
        <time>2014-07-12T12:12:26Z</time>
      </trkpt>
      <trkpt lat="59.9606299" lon="17.5446665">
        <ele>29.9381</ele>
        <time>2014-07-12T12:12:27Z</time>
      </trkpt>
      <trkpt lat="59.9605488" lon="17.5446401">
        <ele>29.4575</ele>
        <time>2014-07-12T12:12:28Z</time>
      </trkpt>
      <trkpt lat="59.9604664" lon="17.5446143">
        <ele>29.4575</ele>
        <time>2014-07-12T12:12:29Z</time>
      </trkpt>
      <trkpt lat="59.9603823" lon="17.544588">
        <ele>29.4575</ele>
        <time>2014-07-12T12:12:30Z</time>
      </trkpt>
      <trkpt lat="59.960297" lon="17.5445613">
        <ele>29.4575</ele>
        <time>2014-07-12T12:12:31Z</time>
      </trkpt>
      <trkpt lat="59.960211" lon="17.5445347">
        <ele>28.9769</ele>
        <time>2014-07-12T12:12:32Z</time>
      </trkpt>
      <trkpt lat="59.9601248" lon="17.5445081">
        <ele>28.9769</ele>
        <time>2014-07-12T12:12:33Z</time>
      </trkpt>
      <trkpt lat="59.960038" lon="17.5444817">
        <ele>28.9769</ele>
        <time>2014-07-12T12:12:34Z</time>
      </trkpt>
      <trkpt lat="59.9599513" lon="17.5444547">
        <ele>28.9769</ele>
        <time>2014-07-12T12:12:35Z</time>
      </trkpt>
      <trkpt lat="59.9598644" lon="17.5444282">
        <ele>28.9769</ele>
        <time>2014-07-12T12:12:36Z</time>
      </trkpt>
      <trkpt lat="59.9597774" lon="17.544404">
        <ele>28.9769</ele>
        <time>2014-07-12T12:12:37Z</time>
      </trkpt>
      <trkpt lat="59.9596894" lon="17.5443841">
        <ele>28.4962</ele>
        <time>2014-07-12T12:12:38Z</time>
      </trkpt>
      <trkpt lat="59.9596006" lon="17.5443655">
        <ele>28.4962</ele>
        <time>2014-07-12T12:12:39Z</time>
      </trkpt>
      <trkpt lat="59.9595112" lon="17.5443464">
        <ele>28.4962</ele>
        <time>2014-07-12T12:12:40Z</time>
      </trkpt>
      <trkpt lat="59.959421" lon="17.544328">
        <ele>28.4962</ele>
        <time>2014-07-12T12:12:41Z</time>
      </trkpt>
      <trkpt lat="59.9593303" lon="17.5443085">
        <ele>28.4962</ele>
        <time>2014-07-12T12:12:42Z</time>
      </trkpt>
      <trkpt lat="59.9592394" lon="17.5442877">
        <ele>28.4962</ele>
        <time>2014-07-12T12:12:43Z</time>
      </trkpt>
      <trkpt lat="59.9591486" lon="17.5442671">
        <ele>28.4962</ele>
        <time>2014-07-12T12:12:44Z</time>
      </trkpt>
      <trkpt lat="59.9590584" lon="17.5442478">
        <ele>28.4962</ele>
        <time>2014-07-12T12:12:45Z</time>
      </trkpt>
      <trkpt lat="59.9589685" lon="17.5442293">
        <ele>28.4962</ele>
        <time>2014-07-12T12:12:46Z</time>
      </trkpt>
      <trkpt lat="59.9588803" lon="17.5442121">
        <ele>28.4962</ele>
        <time>2014-07-12T12:12:47Z</time>
      </trkpt>
      <trkpt lat="59.9587943" lon="17.5441949">
        <ele>28.4962</ele>
        <time>2014-07-12T12:12:48Z</time>
      </trkpt>
      <trkpt lat="59.9587102" lon="17.5441781">
        <ele>28.4962</ele>
        <time>2014-07-12T12:12:49Z</time>
      </trkpt>
      <trkpt lat="59.9586283" lon="17.5441641">
        <ele>28.4962</ele>
        <time>2014-07-12T12:12:50Z</time>
      </trkpt>
      <trkpt lat="59.9585488" lon="17.5441562">
        <ele>28.4962</ele>
        <time>2014-07-12T12:12:51Z</time>
      </trkpt>
      <trkpt lat="59.9584712" lon="17.5441584">
        <ele>28.4962</ele>
        <time>2014-07-12T12:12:52Z</time>
      </trkpt>
      <trkpt lat="59.9583954" lon="17.5441695">
        <ele>28.4962</ele>
        <time>2014-07-12T12:12:53Z</time>
      </trkpt>
      <trkpt lat="59.9583198" lon="17.5441909">
        <ele>28.4962</ele>
        <time>2014-07-12T12:12:54Z</time>
      </trkpt>
      <trkpt lat="59.9582417" lon="17.5442175">
        <ele>28.4962</ele>
        <time>2014-07-12T12:12:55Z</time>
      </trkpt>
      <trkpt lat="59.9581609" lon="17.5442438">
        <ele>28.4962</ele>
        <time>2014-07-12T12:12:56Z</time>
      </trkpt>
      <trkpt lat="59.9580779" lon="17.5442693">
        <ele>28.4962</ele>
        <time>2014-07-12T12:12:57Z</time>
      </trkpt>
      <trkpt lat="59.9579958" lon="17.5442945">
        <ele>28.4962</ele>
        <time>2014-07-12T12:12:58Z</time>
      </trkpt>
      <trkpt lat="59.9579159" lon="17.5443179">
        <ele>28.4962</ele>
        <time>2014-07-12T12:12:59Z</time>
      </trkpt>
      <trkpt lat="59.9578378" lon="17.5443396">
        <ele>28.4962</ele>
        <time>2014-07-12T12:13:00Z</time>
      </trkpt>
      <trkpt lat="59.9577597" lon="17.5443604">
        <ele>28.4962</ele>
        <time>2014-07-12T12:13:01Z</time>
      </trkpt>
      <trkpt lat="59.9576817" lon="17.5443829">
        <ele>28.4962</ele>
        <time>2014-07-12T12:13:02Z</time>
      </trkpt>
      <trkpt lat="59.9576042" lon="17.544406">
        <ele>28.4962</ele>
        <time>2014-07-12T12:13:03Z</time>
      </trkpt>
      <trkpt lat="59.9575265" lon="17.5444277">
        <ele>28.4962</ele>
        <time>2014-07-12T12:13:04Z</time>
      </trkpt>
      <trkpt lat="59.9574485" lon="17.5444495">
        <ele>28.4962</ele>
        <time>2014-07-12T12:13:05Z</time>
      </trkpt>
      <trkpt lat="59.9573703" lon="17.5444731">
        <ele>28.9769</ele>
        <time>2014-07-12T12:13:06Z</time>
      </trkpt>
      <trkpt lat="59.9572915" lon="17.5444961">
        <ele>28.9769</ele>
        <time>2014-07-12T12:13:07Z</time>
      </trkpt>
      <trkpt lat="59.9572122" lon="17.5445179">
        <ele>28.9769</ele>
        <time>2014-07-12T12:13:08Z</time>
      </trkpt>
      <trkpt lat="59.9571326" lon="17.5445405">
        <ele>28.9769</ele>
        <time>2014-07-12T12:13:09Z</time>
      </trkpt>
      <trkpt lat="59.9570527" lon="17.5445621">
        <ele>28.9769</ele>
        <time>2014-07-12T12:13:10Z</time>
      </trkpt>
      <trkpt lat="59.9569723" lon="17.5445835">
        <ele>28.9769</ele>
        <time>2014-07-12T12:13:11Z</time>
      </trkpt>
      <trkpt lat="59.9568911" lon="17.5446062">
        <ele>28.9769</ele>
        <time>2014-07-12T12:13:12Z</time>
      </trkpt>
      <trkpt lat="59.9568098" lon="17.5446297">
        <ele>28.9769</ele>
        <time>2014-07-12T12:13:13Z</time>
      </trkpt>
      <trkpt lat="59.9567285" lon="17.5446528">
        <ele>28.9769</ele>
        <time>2014-07-12T12:13:14Z</time>
      </trkpt>
      <trkpt lat="59.9566471" lon="17.5446747">
        <ele>28.9769</ele>
        <time>2014-07-12T12:13:15Z</time>
      </trkpt>
      <trkpt lat="59.9565661" lon="17.5446961">
        <ele>28.9769</ele>
        <time>2014-07-12T12:13:16Z</time>
      </trkpt>
      <trkpt lat="59.9564854" lon="17.5447163">
        <ele>29.4575</ele>
        <time>2014-07-12T12:13:17Z</time>
      </trkpt>
      <trkpt lat="59.9564048" lon="17.544736">
        <ele>29.4575</ele>
        <time>2014-07-12T12:13:18Z</time>
      </trkpt>
      <trkpt lat="59.9563252" lon="17.5447551">
        <ele>29.4575</ele>
        <time>2014-07-12T12:13:19Z</time>
      </trkpt>
      <trkpt lat="59.9562478" lon="17.5447745">
        <ele>29.9381</ele>
        <time>2014-07-12T12:13:20Z</time>
      </trkpt>
      <trkpt lat="59.9561721" lon="17.544797">
        <ele>29.9381</ele>
        <time>2014-07-12T12:13:21Z</time>
      </trkpt>
      <trkpt lat="59.9560981" lon="17.5448285">
        <ele>30.4188</ele>
        <time>2014-07-12T12:13:22Z</time>
      </trkpt>
      <trkpt lat="59.9560271" lon="17.5448722">
        <ele>30.4188</ele>
        <time>2014-07-12T12:13:23Z</time>
      </trkpt>
      <trkpt lat="59.9559587" lon="17.5449286">
        <ele>30.8995</ele>
        <time>2014-07-12T12:13:24Z</time>
      </trkpt>
      <trkpt lat="59.955894" lon="17.5449947">
        <ele>30.8995</ele>
        <time>2014-07-12T12:13:25Z</time>
      </trkpt>
      <trkpt lat="59.9558316" lon="17.5450709">
        <ele>30.8995</ele>
        <time>2014-07-12T12:13:26Z</time>
      </trkpt>
      <trkpt lat="59.9557708" lon="17.5451554">
        <ele>31.3801</ele>
        <time>2014-07-12T12:13:27Z</time>
      </trkpt>
      <trkpt lat="59.9557114" lon="17.5452425">
        <ele>31.3801</ele>
        <time>2014-07-12T12:13:28Z</time>
      </trkpt>
      <trkpt lat="59.9556508" lon="17.5453279">
        <ele>31.3801</ele>
        <time>2014-07-12T12:13:29Z</time>
      </trkpt>
      <trkpt lat="59.9555862" lon="17.5454066">
        <ele>31.8607</ele>
        <time>2014-07-12T12:13:30Z</time>
      </trkpt>
      <trkpt lat="59.9555189" lon="17.5454765">
        <ele>31.8607</ele>
        <time>2014-07-12T12:13:31Z</time>
      </trkpt>
      <trkpt lat="59.9554503" lon="17.5455362">
        <ele>31.8607</ele>
        <time>2014-07-12T12:13:32Z</time>
      </trkpt>
      <trkpt lat="59.9553792" lon="17.545585">
        <ele>32.3416</ele>
        <time>2014-07-12T12:13:33Z</time>
      </trkpt>
      <trkpt lat="59.9553084" lon="17.5456251">
        <ele>32.8223</ele>
        <time>2014-07-12T12:13:34Z</time>
      </trkpt>
      <trkpt lat="59.9552382" lon="17.5456596">
        <ele>32.8223</ele>
        <time>2014-07-12T12:13:35Z</time>
      </trkpt>
      <trkpt lat="59.9551681" lon="17.5456963">
        <ele>33.3029</ele>
        <time>2014-07-12T12:13:36Z</time>
      </trkpt>
      <trkpt lat="59.9550977" lon="17.5457331">
        <ele>33.3029</ele>
        <time>2014-07-12T12:13:37Z</time>
      </trkpt>
      <trkpt lat="59.9550268" lon="17.5457709">
        <ele>33.7834</ele>
        <time>2014-07-12T12:13:38Z</time>
      </trkpt>
      <trkpt lat="59.9549559" lon="17.5458116">
        <ele>33.7834</ele>
        <time>2014-07-12T12:13:39Z</time>
      </trkpt>
      <trkpt lat="59.9548844" lon="17.5458517">
        <ele>34.2642</ele>
        <time>2014-07-12T12:13:40Z</time>
      </trkpt>
      <trkpt lat="59.9548147" lon="17.5458894">
        <ele>34.2642</ele>
        <time>2014-07-12T12:13:41Z</time>
      </trkpt>
      <trkpt lat="59.9547482" lon="17.5459262">
        <ele>34.2642</ele>
        <time>2014-07-12T12:13:42Z</time>
      </trkpt>
      <trkpt lat="59.9546826" lon="17.5459623">
        <ele>34.2642</ele>
        <time>2014-07-12T12:13:43Z</time>
      </trkpt>
      <trkpt lat="59.9546175" lon="17.5459952">
        <ele>34.7449</ele>
        <time>2014-07-12T12:13:44Z</time>
      </trkpt>
      <trkpt lat="59.9545531" lon="17.5460268">
        <ele>34.7449</ele>
        <time>2014-07-12T12:13:45Z</time>
      </trkpt>
      <trkpt lat="59.9544876" lon="17.5460588">
        <ele>34.7449</ele>
        <time>2014-07-12T12:13:46Z</time>
      </trkpt>
      <trkpt lat="59.9544208" lon="17.5460894">
        <ele>34.7449</ele>
        <time>2014-07-12T12:13:47Z</time>
      </trkpt>
      <trkpt lat="59.9543524" lon="17.546121">
        <ele>34.7449</ele>
        <time>2014-07-12T12:13:48Z</time>
      </trkpt>
      <trkpt lat="59.9542829" lon="17.5461528">
        <ele>34.7449</ele>
        <time>2014-07-12T12:13:49Z</time>
      </trkpt>
      <trkpt lat="59.9542133" lon="17.5461854">
        <ele>34.7449</ele>
        <time>2014-07-12T12:13:50Z</time>
      </trkpt>
      <trkpt lat="59.954144" lon="17.5462191">
        <ele>34.7449</ele>
        <time>2014-07-12T12:13:51Z</time>
      </trkpt>
      <trkpt lat="59.9540752" lon="17.5462516">
        <ele>34.7449</ele>
        <time>2014-07-12T12:13:52Z</time>
      </trkpt>
      <trkpt lat="59.9540073" lon="17.5462857">
        <ele>34.7449</ele>
        <time>2014-07-12T12:13:53Z</time>
      </trkpt>
      <trkpt lat="59.9539396" lon="17.5463195">
        <ele>35.2255</ele>
        <time>2014-07-12T12:13:54Z</time>
      </trkpt>
      <trkpt lat="59.9538722" lon="17.5463531">
        <ele>35.2255</ele>
        <time>2014-07-12T12:13:55Z</time>
      </trkpt>
      <trkpt lat="59.9538053" lon="17.5463842">
        <ele>35.2255</ele>
        <time>2014-07-12T12:13:56Z</time>
      </trkpt>
      <trkpt lat="59.953739" lon="17.5464168">
        <ele>35.2255</ele>
        <time>2014-07-12T12:13:57Z</time>
      </trkpt>
      <trkpt lat="59.9536728" lon="17.5464498">
        <ele>35.2255</ele>
        <time>2014-07-12T12:13:58Z</time>
      </trkpt>
      <trkpt lat="59.9536069" lon="17.5464789">
        <ele>35.7061</ele>
        <time>2014-07-12T12:13:59Z</time>
      </trkpt>
      <trkpt lat="59.9535411" lon="17.5465019">
        <ele>35.7061</ele>
        <time>2014-07-12T12:14:00Z</time>
      </trkpt>
      <trkpt lat="59.9534754" lon="17.546519">
        <ele>35.7061</ele>
        <time>2014-07-12T12:14:01Z</time>
      </trkpt>
      <trkpt lat="59.9534101" lon="17.5465283">
        <ele>35.7061</ele>
        <time>2014-07-12T12:14:02Z</time>
      </trkpt>
      <trkpt lat="59.9533454" lon="17.5465324">
        <ele>36.1868</ele>
        <time>2014-07-12T12:14:03Z</time>
      </trkpt>
      <trkpt lat="59.9532837" lon="17.5465322">
        <ele>36.1868</ele>
        <time>2014-07-12T12:14:04Z</time>
      </trkpt>
      <trkpt lat="59.9532225" lon="17.5465236">
        <ele>36.1868</ele>
        <time>2014-07-12T12:14:05Z</time>
      </trkpt>
      <trkpt lat="59.9531612" lon="17.5465143">
        <ele>36.6675</ele>
        <time>2014-07-12T12:14:06Z</time>
      </trkpt>
      <trkpt lat="59.9530992" lon="17.5465064">
        <ele>37.1481</ele>
        <time>2014-07-12T12:14:07Z</time>
      </trkpt>
      <trkpt lat="59.9530361" lon="17.5464886">
        <ele>37.1481</ele>
        <time>2014-07-12T12:14:08Z</time>
      </trkpt>
      <trkpt lat="59.9529722" lon="17.5464732">
        <ele>37.1481</ele>
        <time>2014-07-12T12:14:09Z</time>
      </trkpt>
      <trkpt lat="59.9529066" lon="17.5464572">
        <ele>37.6287</ele>
        <time>2014-07-12T12:14:10Z</time>
      </trkpt>
      <trkpt lat="59.9528406" lon="17.5464399">
        <ele>37.1481</ele>
        <time>2014-07-12T12:14:11Z</time>
      </trkpt>
      <trkpt lat="59.952774" lon="17.5464214">
        <ele>37.6287</ele>
        <time>2014-07-12T12:14:12Z</time>
      </trkpt>
      <trkpt lat="59.9527061" lon="17.5464013">
        <ele>37.1481</ele>
        <time>2014-07-12T12:14:13Z</time>
      </trkpt>
      <trkpt lat="59.9526377" lon="17.5463884">
        <ele>37.6287</ele>
        <time>2014-07-12T12:14:14Z</time>
      </trkpt>
      <trkpt lat="59.9525682" lon="17.5463738">
        <ele>37.6287</ele>
        <time>2014-07-12T12:14:15Z</time>
      </trkpt>
      <trkpt lat="59.9524963" lon="17.5463599">
        <ele>37.1481</ele>
        <time>2014-07-12T12:14:16Z</time>
      </trkpt>
      <trkpt lat="59.9524242" lon="17.5463535">
        <ele>37.1481</ele>
        <time>2014-07-12T12:14:17Z</time>
      </trkpt>
      <trkpt lat="59.9523528" lon="17.5463569">
        <ele>37.1481</ele>
        <time>2014-07-12T12:14:18Z</time>
      </trkpt>
      <trkpt lat="59.9522809" lon="17.5463645">
        <ele>37.1481</ele>
        <time>2014-07-12T12:14:19Z</time>
      </trkpt>
      <trkpt lat="59.9522073" lon="17.5463737">
        <ele>36.6675</ele>
        <time>2014-07-12T12:14:20Z</time>
      </trkpt>
      <trkpt lat="59.9521342" lon="17.5463881">
        <ele>36.6675</ele>
        <time>2014-07-12T12:14:21Z</time>
      </trkpt>
      <trkpt lat="59.952061" lon="17.5464115">
        <ele>36.6675</ele>
        <time>2014-07-12T12:14:22Z</time>
      </trkpt>
      <trkpt lat="59.9519865" lon="17.546433">
        <ele>36.1868</ele>
        <time>2014-07-12T12:14:23Z</time>
      </trkpt>
      <trkpt lat="59.951912" lon="17.5464648">
        <ele>36.1868</ele>
        <time>2014-07-12T12:14:24Z</time>
      </trkpt>
      <trkpt lat="59.9518369" lon="17.5464996">
        <ele>35.7061</ele>
        <time>2014-07-12T12:14:25Z</time>
      </trkpt>
      <trkpt lat="59.9517618" lon="17.5465386">
        <ele>35.7061</ele>
        <time>2014-07-12T12:14:26Z</time>
      </trkpt>
      <trkpt lat="59.9516872" lon="17.5465827">
        <ele>35.2255</ele>
        <time>2014-07-12T12:14:27Z</time>
      </trkpt>
      <trkpt lat="59.9516134" lon="17.5466318">
        <ele>35.2255</ele>
        <time>2014-07-12T12:14:28Z</time>
      </trkpt>
      <trkpt lat="59.9515399" lon="17.5466858">
        <ele>35.2255</ele>
        <time>2014-07-12T12:14:29Z</time>
      </trkpt>
      <trkpt lat="59.9514661" lon="17.546739">
        <ele>35.2255</ele>
        <time>2014-07-12T12:14:30Z</time>
      </trkpt>
      <trkpt lat="59.9513914" lon="17.5467902">
        <ele>34.7449</ele>
        <time>2014-07-12T12:14:31Z</time>
      </trkpt>
      <trkpt lat="59.9513162" lon="17.546842">
        <ele>34.7449</ele>
        <time>2014-07-12T12:14:32Z</time>
      </trkpt>
      <trkpt lat="59.9512402" lon="17.5468958">
        <ele>34.7449</ele>
        <time>2014-07-12T12:14:33Z</time>
      </trkpt>
      <trkpt lat="59.9511653" lon="17.5469492">
        <ele>34.7449</ele>
        <time>2014-07-12T12:14:34Z</time>
      </trkpt>
      <trkpt lat="59.9510913" lon="17.5470015">
        <ele>35.2255</ele>
        <time>2014-07-12T12:14:35Z</time>
      </trkpt>
      <trkpt lat="59.9510175" lon="17.5470545">
        <ele>35.2255</ele>
        <time>2014-07-12T12:14:36Z</time>
      </trkpt>
      <trkpt lat="59.9509433" lon="17.5471041">
        <ele>35.2255</ele>
        <time>2014-07-12T12:14:37Z</time>
      </trkpt>
      <trkpt lat="59.9508678" lon="17.5471525">
        <ele>35.2255</ele>
        <time>2014-07-12T12:14:38Z</time>
      </trkpt>
      <trkpt lat="59.9507952" lon="17.5472032">
        <ele>35.2255</ele>
        <time>2014-07-12T12:14:39Z</time>
      </trkpt>
      <trkpt lat="59.9507245" lon="17.5472556">
        <ele>35.2255</ele>
        <time>2014-07-12T12:14:40Z</time>
      </trkpt>
      <trkpt lat="59.9506526" lon="17.5473125">
        <ele>35.2255</ele>
        <time>2014-07-12T12:14:41Z</time>
      </trkpt>
      <trkpt lat="59.9505808" lon="17.5473721">
        <ele>34.7449</ele>
        <time>2014-07-12T12:14:42Z</time>
      </trkpt>
      <trkpt lat="59.9505092" lon="17.5474338">
        <ele>34.7449</ele>
        <time>2014-07-12T12:14:43Z</time>
      </trkpt>
      <trkpt lat="59.9504379" lon="17.5474996">
        <ele>34.7449</ele>
        <time>2014-07-12T12:14:44Z</time>
      </trkpt>
      <trkpt lat="59.9503678" lon="17.5475704">
        <ele>34.7449</ele>
        <time>2014-07-12T12:14:45Z</time>
      </trkpt>
      <trkpt lat="59.9502989" lon="17.5476429">
        <ele>34.7449</ele>
        <time>2014-07-12T12:14:46Z</time>
      </trkpt>
      <trkpt lat="59.9502298" lon="17.5477135">
        <ele>34.7449</ele>
        <time>2014-07-12T12:14:47Z</time>
      </trkpt>
      <trkpt lat="59.9501586" lon="17.5477752">
        <ele>34.2642</ele>
        <time>2014-07-12T12:14:48Z</time>
      </trkpt>
      <trkpt lat="59.950085" lon="17.5478252">
        <ele>34.2642</ele>
        <time>2014-07-12T12:14:49Z</time>
      </trkpt>
      <trkpt lat="59.9500095" lon="17.5478687">
        <ele>34.2642</ele>
        <time>2014-07-12T12:14:50Z</time>
      </trkpt>
      <trkpt lat="59.9499336" lon="17.5479098">
        <ele>34.2642</ele>
        <time>2014-07-12T12:14:51Z</time>
      </trkpt>
      <trkpt lat="59.949858" lon="17.5479492">
        <ele>34.2642</ele>
        <time>2014-07-12T12:14:52Z</time>
      </trkpt>
      <trkpt lat="59.9497826" lon="17.5479847">
        <ele>34.2642</ele>
        <time>2014-07-12T12:14:53Z</time>
      </trkpt>
      <trkpt lat="59.9497074" lon="17.5480142">
        <ele>34.2642</ele>
        <time>2014-07-12T12:14:54Z</time>
      </trkpt>
      <trkpt lat="59.9496317" lon="17.548037">
        <ele>34.2642</ele>
        <time>2014-07-12T12:14:55Z</time>
      </trkpt>
      <trkpt lat="59.9495551" lon="17.5480515">
        <ele>34.2642</ele>
        <time>2014-07-12T12:14:56Z</time>
      </trkpt>
      <trkpt lat="59.9494777" lon="17.5480574">
        <ele>34.2642</ele>
        <time>2014-07-12T12:14:57Z</time>
      </trkpt>
      <trkpt lat="59.9493991" lon="17.5480563">
        <ele>34.2642</ele>
        <time>2014-07-12T12:14:58Z</time>
      </trkpt>
      <trkpt lat="59.9493199" lon="17.5480465">
        <ele>34.2642</ele>
        <time>2014-07-12T12:14:59Z</time>
      </trkpt>
      <trkpt lat="59.9492415" lon="17.5480267">
        <ele>34.2642</ele>
        <time>2014-07-12T12:15:00Z</time>
      </trkpt>
      <trkpt lat="59.9491643" lon="17.5480004">
        <ele>34.2642</ele>
        <time>2014-07-12T12:15:01Z</time>
      </trkpt>
      <trkpt lat="59.9490873" lon="17.5479714">
        <ele>34.7449</ele>
        <time>2014-07-12T12:15:02Z</time>
      </trkpt>
      <trkpt lat="59.949012" lon="17.5479319">
        <ele>34.7449</ele>
        <time>2014-07-12T12:15:03Z</time>
      </trkpt>
      <trkpt lat="59.9489379" lon="17.5478869">
        <ele>34.2642</ele>
        <time>2014-07-12T12:15:04Z</time>
      </trkpt>
      <trkpt lat="59.948866" lon="17.547835">
        <ele>34.2642</ele>
        <time>2014-07-12T12:15:05Z</time>
      </trkpt>
      <trkpt lat="59.9487949" lon="17.5477771">
        <ele>33.7834</ele>
        <time>2014-07-12T12:15:06Z</time>
      </trkpt>
      <trkpt lat="59.948725" lon="17.547714">
        <ele>33.7834</ele>
        <time>2014-07-12T12:15:07Z</time>
      </trkpt>
      <trkpt lat="59.9486563" lon="17.547646">
        <ele>33.7834</ele>
        <time>2014-07-12T12:15:08Z</time>
      </trkpt>
      <trkpt lat="59.948589" lon="17.547572">
        <ele>33.7834</ele>
        <time>2014-07-12T12:15:09Z</time>
      </trkpt>
      <trkpt lat="59.9485228" lon="17.5474933">
        <ele>33.7834</ele>
        <time>2014-07-12T12:15:10Z</time>
      </trkpt>
      <trkpt lat="59.9484567" lon="17.5474102">
        <ele>33.3029</ele>
        <time>2014-07-12T12:15:11Z</time>
      </trkpt>
      <trkpt lat="59.9483911" lon="17.5473238">
        <ele>33.3029</ele>
        <time>2014-07-12T12:15:12Z</time>
      </trkpt>
      <trkpt lat="59.9483264" lon="17.5472337">
        <ele>33.3029</ele>
        <time>2014-07-12T12:15:13Z</time>
      </trkpt>
      <trkpt lat="59.9482651" lon="17.5471317">
        <ele>33.3029</ele>
        <time>2014-07-12T12:15:14Z</time>
      </trkpt>
      <trkpt lat="59.9482072" lon="17.5470193">
        <ele>33.3029</ele>
        <time>2014-07-12T12:15:15Z</time>
      </trkpt>
      <trkpt lat="59.9481497" lon="17.5469056">
        <ele>33.3029</ele>
        <time>2014-07-12T12:15:16Z</time>
      </trkpt>
      <trkpt lat="59.9480913" lon="17.5467933">
        <ele>33.3029</ele>
        <time>2014-07-12T12:15:17Z</time>
      </trkpt>
      <trkpt lat="59.9480326" lon="17.5466831">
        <ele>33.3029</ele>
        <time>2014-07-12T12:15:18Z</time>
      </trkpt>
      <trkpt lat="59.947973" lon="17.5465722">
        <ele>33.3029</ele>
        <time>2014-07-12T12:15:19Z</time>
      </trkpt>
      <trkpt lat="59.9479133" lon="17.5464603">
        <ele>33.3029</ele>
        <time>2014-07-12T12:15:20Z</time>
      </trkpt>
      <trkpt lat="59.9478539" lon="17.5463474">
        <ele>33.3029</ele>
        <time>2014-07-12T12:15:21Z</time>
      </trkpt>
      <trkpt lat="59.9477945" lon="17.546234">
        <ele>33.3029</ele>
        <time>2014-07-12T12:15:22Z</time>
      </trkpt>
      <trkpt lat="59.9477353" lon="17.5461199">
        <ele>33.3029</ele>
        <time>2014-07-12T12:15:23Z</time>
      </trkpt>
      <trkpt lat="59.9476756" lon="17.546005">
        <ele>32.8223</ele>
        <time>2014-07-12T12:15:24Z</time>
      </trkpt>
      <trkpt lat="59.9476156" lon="17.5458894">
        <ele>32.8223</ele>
        <time>2014-07-12T12:15:25Z</time>
      </trkpt>
      <trkpt lat="59.9475551" lon="17.5457745">
        <ele>32.8223</ele>
        <time>2014-07-12T12:15:26Z</time>
      </trkpt>
      <trkpt lat="59.947494" lon="17.5456622">
        <ele>32.8223</ele>
        <time>2014-07-12T12:15:27Z</time>
      </trkpt>
      <trkpt lat="59.9474331" lon="17.5455529">
        <ele>32.8223</ele>
        <time>2014-07-12T12:15:28Z</time>
      </trkpt>
      <trkpt lat="59.9473722" lon="17.5454466">
        <ele>32.8223</ele>
        <time>2014-07-12T12:15:29Z</time>
      </trkpt>
      <trkpt lat="59.9473115" lon="17.5453426">
        <ele>32.8223</ele>
        <time>2014-07-12T12:15:30Z</time>
      </trkpt>
      <trkpt lat="59.9472514" lon="17.5452404">
        <ele>32.8223</ele>
        <time>2014-07-12T12:15:31Z</time>
      </trkpt>
      <trkpt lat="59.9471914" lon="17.5451404">
        <ele>32.3416</ele>
        <time>2014-07-12T12:15:32Z</time>
      </trkpt>
      <trkpt lat="59.9471303" lon="17.5450441">
        <ele>32.3416</ele>
        <time>2014-07-12T12:15:33Z</time>
      </trkpt>
      <trkpt lat="59.9470679" lon="17.5449532">
        <ele>32.3416</ele>
        <time>2014-07-12T12:15:34Z</time>
      </trkpt>
      <trkpt lat="59.947004" lon="17.5448649">
        <ele>32.3416</ele>
        <time>2014-07-12T12:15:35Z</time>
      </trkpt>
      <trkpt lat="59.9469395" lon="17.5447794">
        <ele>32.3416</ele>
        <time>2014-07-12T12:15:36Z</time>
      </trkpt>
      <trkpt lat="59.9468737" lon="17.5446977">
        <ele>31.8607</ele>
        <time>2014-07-12T12:15:37Z</time>
      </trkpt>
      <trkpt lat="59.9468068" lon="17.5446197">
        <ele>31.8607</ele>
        <time>2014-07-12T12:15:38Z</time>
      </trkpt>
      <trkpt lat="59.9467384" lon="17.5445462">
        <ele>31.8607</ele>
        <time>2014-07-12T12:15:39Z</time>
      </trkpt>
      <trkpt lat="59.9466682" lon="17.5444779">
        <ele>31.8607</ele>
        <time>2014-07-12T12:15:40Z</time>
      </trkpt>
      <trkpt lat="59.9465967" lon="17.5444152">
        <ele>31.8607</ele>
        <time>2014-07-12T12:15:41Z</time>
      </trkpt>
      <trkpt lat="59.9465243" lon="17.5443582">
        <ele>31.8607</ele>
        <time>2014-07-12T12:15:42Z</time>
      </trkpt>
      <trkpt lat="59.9464502" lon="17.544306">
        <ele>31.8607</ele>
        <time>2014-07-12T12:15:43Z</time>
      </trkpt>
      <trkpt lat="59.9463748" lon="17.5442576">
        <ele>31.8607</ele>
        <time>2014-07-12T12:15:44Z</time>
      </trkpt>
      <trkpt lat="59.9462984" lon="17.5442143">
        <ele>31.8607</ele>
        <time>2014-07-12T12:15:45Z</time>
      </trkpt>
      <trkpt lat="59.9462206" lon="17.5441794">
        <ele>31.8607</ele>
        <time>2014-07-12T12:15:46Z</time>
      </trkpt>
      <trkpt lat="59.9461414" lon="17.544151">
        <ele>31.8607</ele>
        <time>2014-07-12T12:15:47Z</time>
      </trkpt>
      <trkpt lat="59.9460614" lon="17.5441271">
        <ele>31.8607</ele>
        <time>2014-07-12T12:15:48Z</time>
      </trkpt>
      <trkpt lat="59.9459809" lon="17.5441091">
        <ele>31.8607</ele>
        <time>2014-07-12T12:15:49Z</time>
      </trkpt>
      <trkpt lat="59.9459" lon="17.5440972">
        <ele>31.8607</ele>
        <time>2014-07-12T12:15:50Z</time>
      </trkpt>
      <trkpt lat="59.9458193" lon="17.5440878">
        <ele>31.8607</ele>
        <time>2014-07-12T12:15:51Z</time>
      </trkpt>
      <trkpt lat="59.9457387" lon="17.5440802">
        <ele>31.8607</ele>
        <time>2014-07-12T12:15:52Z</time>
      </trkpt>
      <trkpt lat="59.9456579" lon="17.5440759">
        <ele>31.8607</ele>
        <time>2014-07-12T12:15:53Z</time>
      </trkpt>
      <trkpt lat="59.9455766" lon="17.5440739">
        <ele>31.8607</ele>
        <time>2014-07-12T12:15:54Z</time>
      </trkpt>
      <trkpt lat="59.9454948" lon="17.5440737">
        <ele>32.3416</ele>
        <time>2014-07-12T12:15:55Z</time>
      </trkpt>
      <trkpt lat="59.9454131" lon="17.544074">
        <ele>32.3416</ele>
        <time>2014-07-12T12:15:56Z</time>
      </trkpt>
      <trkpt lat="59.9453317" lon="17.5440733">
        <ele>32.3416</ele>
        <time>2014-07-12T12:15:57Z</time>
      </trkpt>
      <trkpt lat="59.9452504" lon="17.5440706">
        <ele>32.3416</ele>
        <time>2014-07-12T12:15:58Z</time>
      </trkpt>
      <trkpt lat="59.945169" lon="17.5440665">
        <ele>32.3416</ele>
        <time>2014-07-12T12:15:59Z</time>
      </trkpt>
      <trkpt lat="59.9450877" lon="17.5440629">
        <ele>32.3416</ele>
        <time>2014-07-12T12:16:00Z</time>
      </trkpt>
      <trkpt lat="59.945006" lon="17.5440598">
        <ele>32.3416</ele>
        <time>2014-07-12T12:16:01Z</time>
      </trkpt>
      <trkpt lat="59.944925" lon="17.5440578">
        <ele>32.3416</ele>
        <time>2014-07-12T12:16:02Z</time>
      </trkpt>
      <trkpt lat="59.9448443" lon="17.5440558">
        <ele>32.3416</ele>
        <time>2014-07-12T12:16:03Z</time>
      </trkpt>
      <trkpt lat="59.9447638" lon="17.5440537">
        <ele>32.3416</ele>
        <time>2014-07-12T12:16:04Z</time>
      </trkpt>
      <trkpt lat="59.9446828" lon="17.5440521">
        <ele>32.3416</ele>
        <time>2014-07-12T12:16:05Z</time>
      </trkpt>
      <trkpt lat="59.9446018" lon="17.5440519">
        <ele>32.3416</ele>
        <time>2014-07-12T12:16:06Z</time>
      </trkpt>
      <trkpt lat="59.94452" lon="17.5440511">
        <ele>32.3416</ele>
        <time>2014-07-12T12:16:07Z</time>
      </trkpt>
      <trkpt lat="59.9444376" lon="17.5440485">
        <ele>32.3416</ele>
        <time>2014-07-12T12:16:08Z</time>
      </trkpt>
      <trkpt lat="59.9443547" lon="17.5440449">
        <ele>32.3416</ele>
        <time>2014-07-12T12:16:09Z</time>
      </trkpt>
      <trkpt lat="59.9442722" lon="17.5440423">
        <ele>32.3416</ele>
        <time>2014-07-12T12:16:10Z</time>
      </trkpt>
      <trkpt lat="59.9441901" lon="17.5440392">
        <ele>32.3416</ele>
        <time>2014-07-12T12:16:11Z</time>
      </trkpt>
      <trkpt lat="59.9441087" lon="17.5440343">
        <ele>31.8607</ele>
        <time>2014-07-12T12:16:12Z</time>
      </trkpt>
      <trkpt lat="59.9440273" lon="17.5440263">
        <ele>31.8607</ele>
        <time>2014-07-12T12:16:13Z</time>
      </trkpt>
      <trkpt lat="59.9439461" lon="17.5440154">
        <ele>31.8607</ele>
        <time>2014-07-12T12:16:14Z</time>
      </trkpt>
      <trkpt lat="59.9438651" lon="17.5440022">
        <ele>31.8607</ele>
        <time>2014-07-12T12:16:15Z</time>
      </trkpt>
      <trkpt lat="59.9437835" lon="17.5439866">
        <ele>31.8607</ele>
        <time>2014-07-12T12:16:16Z</time>
      </trkpt>
      <trkpt lat="59.943702" lon="17.5439677">
        <ele>31.3801</ele>
        <time>2014-07-12T12:16:17Z</time>
      </trkpt>
      <trkpt lat="59.9436207" lon="17.5439433">
        <ele>31.3801</ele>
        <time>2014-07-12T12:16:18Z</time>
      </trkpt>
      <trkpt lat="59.9435397" lon="17.5439154">
        <ele>31.3801</ele>
        <time>2014-07-12T12:16:19Z</time>
      </trkpt>
      <trkpt lat="59.9434582" lon="17.5438872">
        <ele>31.3801</ele>
        <time>2014-07-12T12:16:20Z</time>
      </trkpt>
      <trkpt lat="59.9433762" lon="17.5438582">
        <ele>31.3801</ele>
        <time>2014-07-12T12:16:21Z</time>
      </trkpt>
      <trkpt lat="59.9432937" lon="17.5438257">
        <ele>30.8995</ele>
        <time>2014-07-12T12:16:22Z</time>
      </trkpt>
      <trkpt lat="59.9432111" lon="17.5437895">
        <ele>30.8995</ele>
        <time>2014-07-12T12:16:23Z</time>
      </trkpt>
      <trkpt lat="59.943129" lon="17.5437506">
        <ele>30.8995</ele>
        <time>2014-07-12T12:16:24Z</time>
      </trkpt>
      <trkpt lat="59.9430469" lon="17.5437091">
        <ele>30.8995</ele>
        <time>2014-07-12T12:16:25Z</time>
      </trkpt>
      <trkpt lat="59.9429654" lon="17.5436631">
        <ele>30.8995</ele>
        <time>2014-07-12T12:16:26Z</time>
      </trkpt>
      <trkpt lat="59.9428844" lon="17.5436123">
        <ele>30.8995</ele>
        <time>2014-07-12T12:16:27Z</time>
      </trkpt>
      <trkpt lat="59.9428038" lon="17.5435589">
        <ele>30.4188</ele>
        <time>2014-07-12T12:16:28Z</time>
      </trkpt>
      <trkpt lat="59.9427251" lon="17.5435029">
        <ele>30.4188</ele>
        <time>2014-07-12T12:16:29Z</time>
      </trkpt>
      <trkpt lat="59.9426469" lon="17.5434498">
        <ele>30.4188</ele>
        <time>2014-07-12T12:16:30Z</time>
      </trkpt>
      <trkpt lat="59.9425696" lon="17.5433982">
        <ele>30.4188</ele>
        <time>2014-07-12T12:16:31Z</time>
      </trkpt>
      <trkpt lat="59.9424942" lon="17.5433431">
        <ele>30.4188</ele>
        <time>2014-07-12T12:16:32Z</time>
      </trkpt>
      <trkpt lat="59.9424211" lon="17.5432913">
        <ele>30.4188</ele>
        <time>2014-07-12T12:16:33Z</time>
      </trkpt>
      <trkpt lat="59.9423475" lon="17.54324">
        <ele>30.4188</ele>
        <time>2014-07-12T12:16:34Z</time>
      </trkpt>
      <trkpt lat="59.9422734" lon="17.5431907">
        <ele>30.4188</ele>
        <time>2014-07-12T12:16:35Z</time>
      </trkpt>
      <trkpt lat="59.9422019" lon="17.5431399">
        <ele>29.9381</ele>
        <time>2014-07-12T12:16:36Z</time>
      </trkpt>
      <trkpt lat="59.9421329" lon="17.5430886">
        <ele>29.9381</ele>
        <time>2014-07-12T12:16:37Z</time>
      </trkpt>
      <trkpt lat="59.9420676" lon="17.5430573">
        <ele>29.9381</ele>
        <time>2014-07-12T12:16:38Z</time>
      </trkpt>
      <trkpt lat="59.9420062" lon="17.5430625">
        <ele>29.9381</ele>
        <time>2014-07-12T12:16:39Z</time>
      </trkpt>
      <trkpt lat="59.9419425" lon="17.5430757">
        <ele>29.4575</ele>
        <time>2014-07-12T12:16:40Z</time>
      </trkpt>
      <trkpt lat="59.9418761" lon="17.5430537">
        <ele>29.4575</ele>
        <time>2014-07-12T12:16:41Z</time>
      </trkpt>
      <trkpt lat="59.9418101" lon="17.5430016">
        <ele>28.9769</ele>
        <time>2014-07-12T12:16:42Z</time>
      </trkpt>
      <trkpt lat="59.941744" lon="17.5429409">
        <ele>28.9769</ele>
        <time>2014-07-12T12:16:43Z</time>
      </trkpt>
      <trkpt lat="59.9416765" lon="17.5428815">
        <ele>28.9769</ele>
        <time>2014-07-12T12:16:44Z</time>
      </trkpt>
      <trkpt lat="59.9416068" lon="17.5428311">
        <ele>28.9769</ele>
        <time>2014-07-12T12:16:45Z</time>
      </trkpt>
      <trkpt lat="59.9415352" lon="17.5428094">
        <ele>28.9769</ele>
        <time>2014-07-12T12:16:46Z</time>
      </trkpt>
      <trkpt lat="59.9414673" lon="17.5428471">
        <ele>28.9769</ele>
        <time>2014-07-12T12:16:47Z</time>
      </trkpt>
      <trkpt lat="59.9414057" lon="17.5429315">
        <ele>28.9769</ele>
        <time>2014-07-12T12:16:48Z</time>
      </trkpt>
      <trkpt lat="59.9413498" lon="17.5430393">
        <ele>28.4962</ele>
        <time>2014-07-12T12:16:49Z</time>
      </trkpt>
      <trkpt lat="59.9412954" lon="17.5431523">
        <ele>28.4962</ele>
        <time>2014-07-12T12:16:50Z</time>
      </trkpt>
      <trkpt lat="59.9412392" lon="17.5432637">
        <ele>28.4962</ele>
        <time>2014-07-12T12:16:51Z</time>
      </trkpt>
      <trkpt lat="59.9411818" lon="17.5433744">
        <ele>28.4962</ele>
        <time>2014-07-12T12:16:52Z</time>
      </trkpt>
      <trkpt lat="59.9411251" lon="17.5434864">
        <ele>28.4962</ele>
        <time>2014-07-12T12:16:53Z</time>
      </trkpt>
      <trkpt lat="59.9410683" lon="17.5435974">
        <ele>28.4962</ele>
        <time>2014-07-12T12:16:54Z</time>
      </trkpt>
      <trkpt lat="59.9410105" lon="17.5437066">
        <ele>28.4962</ele>
        <time>2014-07-12T12:16:55Z</time>
      </trkpt>
      <trkpt lat="59.9409525" lon="17.5438144">
        <ele>28.4962</ele>
        <time>2014-07-12T12:16:56Z</time>
      </trkpt>
      <trkpt lat="59.9408935" lon="17.5439206">
        <ele>28.4962</ele>
        <time>2014-07-12T12:16:57Z</time>
      </trkpt>
      <trkpt lat="59.9408339" lon="17.5440258">
        <ele>28.4962</ele>
        <time>2014-07-12T12:16:58Z</time>
      </trkpt>
      <trkpt lat="59.9407734" lon="17.544132">
        <ele>28.4962</ele>
        <time>2014-07-12T12:16:59Z</time>
      </trkpt>
      <trkpt lat="59.9407125" lon="17.5442377">
        <ele>28.4962</ele>
        <time>2014-07-12T12:17:00Z</time>
      </trkpt>
      <trkpt lat="59.9406499" lon="17.5443411">
        <ele>28.4962</ele>
        <time>2014-07-12T12:17:01Z</time>
      </trkpt>
      <trkpt lat="59.940586" lon="17.5444415">
        <ele>28.4962</ele>
        <time>2014-07-12T12:17:02Z</time>
      </trkpt>
      <trkpt lat="59.9405215" lon="17.5445391">
        <ele>28.9769</ele>
        <time>2014-07-12T12:17:03Z</time>
      </trkpt>
      <trkpt lat="59.9404572" lon="17.544634">
        <ele>28.9769</ele>
        <time>2014-07-12T12:17:04Z</time>
      </trkpt>
      <trkpt lat="59.940393" lon="17.544729">
        <ele>28.9769</ele>
        <time>2014-07-12T12:17:05Z</time>
      </trkpt>
      <trkpt lat="59.9403282" lon="17.5448215">
        <ele>28.9769</ele>
        <time>2014-07-12T12:17:06Z</time>
      </trkpt>
      <trkpt lat="59.9402615" lon="17.5449102">
        <ele>28.9769</ele>
        <time>2014-07-12T12:17:07Z</time>
      </trkpt>
      <trkpt lat="59.940192" lon="17.5449947">
        <ele>28.4962</ele>
        <time>2014-07-12T12:17:08Z</time>
      </trkpt>
      <trkpt lat="59.9401199" lon="17.5450778">
        <ele>28.4962</ele>
        <time>2014-07-12T12:17:09Z</time>
      </trkpt>
      <trkpt lat="59.9400464" lon="17.5451623">
        <ele>28.0155</ele>
        <time>2014-07-12T12:17:10Z</time>
      </trkpt>
      <trkpt lat="59.939972" lon="17.5452492">
        <ele>28.0155</ele>
        <time>2014-07-12T12:17:11Z</time>
      </trkpt>
      <trkpt lat="59.9398974" lon="17.5453394">
        <ele>28.0155</ele>
        <time>2014-07-12T12:17:12Z</time>
      </trkpt>
      <trkpt lat="59.9398232" lon="17.5454325">
        <ele>28.0155</ele>
        <time>2014-07-12T12:17:13Z</time>
      </trkpt>
      <trkpt lat="59.9397482" lon="17.5455237">
        <ele>28.0155</ele>
        <time>2014-07-12T12:17:14Z</time>
      </trkpt>
      <trkpt lat="59.9396725" lon="17.5456133">
        <ele>27.5349</ele>
        <time>2014-07-12T12:17:15Z</time>
      </trkpt>
      <trkpt lat="59.9395958" lon="17.545701">
        <ele>27.5349</ele>
        <time>2014-07-12T12:17:16Z</time>
      </trkpt>
      <trkpt lat="59.9395184" lon="17.5457852">
        <ele>27.5349</ele>
        <time>2014-07-12T12:17:17Z</time>
      </trkpt>
      <trkpt lat="59.9394459" lon="17.5458729">
        <ele>27.5349</ele>
        <time>2014-07-12T12:17:18Z</time>
      </trkpt>
      <trkpt lat="59.9393735" lon="17.5459611">
        <ele>27.5349</ele>
        <time>2014-07-12T12:17:19Z</time>
      </trkpt>
      <trkpt lat="59.9392983" lon="17.5460408">
        <ele>27.5349</ele>
        <time>2014-07-12T12:17:20Z</time>
      </trkpt>
      <trkpt lat="59.9392261" lon="17.5461221">
        <ele>27.5349</ele>
        <time>2014-07-12T12:17:21Z</time>
      </trkpt>
      <trkpt lat="59.9391571" lon="17.5462107">
        <ele>27.5349</ele>
        <time>2014-07-12T12:17:22Z</time>
      </trkpt>
      <trkpt lat="59.9390907" lon="17.5463066">
        <ele>27.5349</ele>
        <time>2014-07-12T12:17:23Z</time>
      </trkpt>
      <trkpt lat="59.9390249" lon="17.5464033">
        <ele>27.5349</ele>
        <time>2014-07-12T12:17:24Z</time>
      </trkpt>
      <trkpt lat="59.9389572" lon="17.5464925">
        <ele>28.0155</ele>
        <time>2014-07-12T12:17:25Z</time>
      </trkpt>
      <trkpt lat="59.9388868" lon="17.5465708">
        <ele>28.0155</ele>
        <time>2014-07-12T12:17:26Z</time>
      </trkpt>
      <trkpt lat="59.9388155" lon="17.5466428">
        <ele>27.5349</ele>
        <time>2014-07-12T12:17:27Z</time>
      </trkpt>
      <trkpt lat="59.9387463" lon="17.5467169">
        <ele>28.0155</ele>
        <time>2014-07-12T12:17:28Z</time>
      </trkpt>
      <trkpt lat="59.93868" lon="17.5467959">
        <ele>28.0155</ele>
        <time>2014-07-12T12:17:29Z</time>
      </trkpt>
      <trkpt lat="59.9386142" lon="17.5468773">
        <ele>28.0155</ele>
        <time>2014-07-12T12:17:30Z</time>
      </trkpt>
      <trkpt lat="59.9385484" lon="17.5469612">
        <ele>28.0155</ele>
        <time>2014-07-12T12:17:31Z</time>
      </trkpt>
      <trkpt lat="59.9384836" lon="17.5470483">
        <ele>27.5349</ele>
        <time>2014-07-12T12:17:32Z</time>
      </trkpt>
      <trkpt lat="59.9384199" lon="17.547142">
        <ele>27.5349</ele>
        <time>2014-07-12T12:17:33Z</time>
      </trkpt>
      <trkpt lat="59.9383563" lon="17.5472399">
        <ele>27.5349</ele>
        <time>2014-07-12T12:17:34Z</time>
      </trkpt>
      <trkpt lat="59.938293" lon="17.5473418">
        <ele>27.5349</ele>
        <time>2014-07-12T12:17:35Z</time>
      </trkpt>
      <trkpt lat="59.9382298" lon="17.5474466">
        <ele>27.5349</ele>
        <time>2014-07-12T12:17:36Z</time>
      </trkpt>
      <trkpt lat="59.9381666" lon="17.5475543">
        <ele>27.0543</ele>
        <time>2014-07-12T12:17:37Z</time>
      </trkpt>
      <trkpt lat="59.9381034" lon="17.547663">
        <ele>27.0543</ele>
        <time>2014-07-12T12:17:38Z</time>
      </trkpt>
      <trkpt lat="59.9380402" lon="17.5477717">
        <ele>27.0543</ele>
        <time>2014-07-12T12:17:39Z</time>
      </trkpt>
      <trkpt lat="59.9379775" lon="17.5478814">
        <ele>27.0543</ele>
        <time>2014-07-12T12:17:40Z</time>
      </trkpt>
      <trkpt lat="59.9379158" lon="17.5479926">
        <ele>27.0543</ele>
        <time>2014-07-12T12:17:41Z</time>
      </trkpt>
      <trkpt lat="59.9378543" lon="17.5481028">
        <ele>27.0543</ele>
        <time>2014-07-12T12:17:42Z</time>
      </trkpt>
      <trkpt lat="59.9377938" lon="17.5482148">
        <ele>27.0543</ele>
        <time>2014-07-12T12:17:43Z</time>
      </trkpt>
      <trkpt lat="59.9377346" lon="17.5483298">
        <ele>27.0543</ele>
        <time>2014-07-12T12:17:44Z</time>
      </trkpt>
      <trkpt lat="59.9376755" lon="17.5484454">
        <ele>27.0543</ele>
        <time>2014-07-12T12:17:45Z</time>
      </trkpt>
      <trkpt lat="59.9376169" lon="17.5485624">
        <ele>27.0543</ele>
        <time>2014-07-12T12:17:46Z</time>
      </trkpt>
      <trkpt lat="59.9375581" lon="17.5486801">
        <ele>27.0543</ele>
        <time>2014-07-12T12:17:47Z</time>
      </trkpt>
      <trkpt lat="59.9374985" lon="17.5487991">
        <ele>27.0543</ele>
        <time>2014-07-12T12:17:48Z</time>
      </trkpt>
      <trkpt lat="59.9374388" lon="17.5489181">
        <ele>27.0543</ele>
        <time>2014-07-12T12:17:49Z</time>
      </trkpt>
      <trkpt lat="59.9373793" lon="17.5490365">
        <ele>27.0543</ele>
        <time>2014-07-12T12:17:50Z</time>
      </trkpt>
      <trkpt lat="59.9373198" lon="17.5491556">
        <ele>27.0543</ele>
        <time>2014-07-12T12:17:51Z</time>
      </trkpt>
      <trkpt lat="59.9372606" lon="17.5492753">
        <ele>27.0543</ele>
        <time>2014-07-12T12:17:52Z</time>
      </trkpt>
      <trkpt lat="59.9372019" lon="17.549395">
        <ele>27.0543</ele>
        <time>2014-07-12T12:17:53Z</time>
      </trkpt>
      <trkpt lat="59.9371439" lon="17.5495154">
        <ele>27.0543</ele>
        <time>2014-07-12T12:17:54Z</time>
      </trkpt>
      <trkpt lat="59.9370881" lon="17.5496369">
        <ele>27.0543</ele>
        <time>2014-07-12T12:17:55Z</time>
      </trkpt>
      <trkpt lat="59.9370344" lon="17.5497625">
        <ele>27.0543</ele>
        <time>2014-07-12T12:17:56Z</time>
      </trkpt>
      <trkpt lat="59.9369774" lon="17.5498832">
        <ele>27.0543</ele>
        <time>2014-07-12T12:17:57Z</time>
      </trkpt>
      <trkpt lat="59.9369149" lon="17.5499924">
        <ele>27.0543</ele>
        <time>2014-07-12T12:17:58Z</time>
      </trkpt>
      <trkpt lat="59.9368519" lon="17.550099">
        <ele>27.0543</ele>
        <time>2014-07-12T12:17:59Z</time>
      </trkpt>
      <trkpt lat="59.9367908" lon="17.5502095">
        <ele>27.0543</ele>
        <time>2014-07-12T12:18:00Z</time>
      </trkpt>
      <trkpt lat="59.9367312" lon="17.5503227">
        <ele>27.0543</ele>
        <time>2014-07-12T12:18:01Z</time>
      </trkpt>
      <trkpt lat="59.9366721" lon="17.5504393">
        <ele>27.0543</ele>
        <time>2014-07-12T12:18:02Z</time>
      </trkpt>
      <trkpt lat="59.936613" lon="17.5505583">
        <ele>27.0543</ele>
        <time>2014-07-12T12:18:03Z</time>
      </trkpt>
      <trkpt lat="59.9365535" lon="17.5506784">
        <ele>27.0543</ele>
        <time>2014-07-12T12:18:04Z</time>
      </trkpt>
      <trkpt lat="59.936494" lon="17.5507992">
        <ele>27.0543</ele>
        <time>2014-07-12T12:18:05Z</time>
      </trkpt>
      <trkpt lat="59.9364344" lon="17.550921">
        <ele>27.0543</ele>
        <time>2014-07-12T12:18:06Z</time>
      </trkpt>
      <trkpt lat="59.9363739" lon="17.5510432">
        <ele>26.5736</ele>
        <time>2014-07-12T12:18:07Z</time>
      </trkpt>
      <trkpt lat="59.936313" lon="17.5511665">
        <ele>26.5736</ele>
        <time>2014-07-12T12:18:08Z</time>
      </trkpt>
      <trkpt lat="59.9362518" lon="17.5512907">
        <ele>26.5736</ele>
        <time>2014-07-12T12:18:09Z</time>
      </trkpt>
      <trkpt lat="59.93619" lon="17.5514141">
        <ele>26.5736</ele>
        <time>2014-07-12T12:18:10Z</time>
      </trkpt>
      <trkpt lat="59.9361281" lon="17.5515368">
        <ele>26.5736</ele>
        <time>2014-07-12T12:18:11Z</time>
      </trkpt>
      <trkpt lat="59.9360661" lon="17.55166">
        <ele>26.5736</ele>
        <time>2014-07-12T12:18:12Z</time>
      </trkpt>
      <trkpt lat="59.9360037" lon="17.5517824">
        <ele>26.5736</ele>
        <time>2014-07-12T12:18:13Z</time>
      </trkpt>
      <trkpt lat="59.935941" lon="17.5519057">
        <ele>26.5736</ele>
        <time>2014-07-12T12:18:14Z</time>
      </trkpt>
      <trkpt lat="59.9358782" lon="17.552031">
        <ele>26.5736</ele>
        <time>2014-07-12T12:18:15Z</time>
      </trkpt>
      <trkpt lat="59.935815" lon="17.5521579">
        <ele>26.0929</ele>
        <time>2014-07-12T12:18:16Z</time>
      </trkpt>
      <trkpt lat="59.9357512" lon="17.5522844">
        <ele>26.0929</ele>
        <time>2014-07-12T12:18:17Z</time>
      </trkpt>
      <trkpt lat="59.9356875" lon="17.5524107">
        <ele>26.0929</ele>
        <time>2014-07-12T12:18:18Z</time>
      </trkpt>
      <trkpt lat="59.9356242" lon="17.5525376">
        <ele>26.0929</ele>
        <time>2014-07-12T12:18:19Z</time>
      </trkpt>
      <trkpt lat="59.935561" lon="17.5526646">
        <ele>26.0929</ele>
        <time>2014-07-12T12:18:20Z</time>
      </trkpt>
      <trkpt lat="59.9354982" lon="17.5527899">
        <ele>26.0929</ele>
        <time>2014-07-12T12:18:21Z</time>
      </trkpt>
      <trkpt lat="59.9354367" lon="17.5529127">
        <ele>26.0929</ele>
        <time>2014-07-12T12:18:22Z</time>
      </trkpt>
      <trkpt lat="59.9353772" lon="17.5530349">
        <ele>26.0929</ele>
        <time>2014-07-12T12:18:23Z</time>
      </trkpt>
      <trkpt lat="59.9353174" lon="17.5531567">
        <ele>26.0929</ele>
        <time>2014-07-12T12:18:24Z</time>
      </trkpt>
      <trkpt lat="59.9352567" lon="17.5532775">
        <ele>25.6123</ele>
        <time>2014-07-12T12:18:25Z</time>
      </trkpt>
      <trkpt lat="59.9351972" lon="17.5534008">
        <ele>25.6123</ele>
        <time>2014-07-12T12:18:26Z</time>
      </trkpt>
      <trkpt lat="59.9351388" lon="17.553526">
        <ele>25.6123</ele>
        <time>2014-07-12T12:18:27Z</time>
      </trkpt>
      <trkpt lat="59.9350802" lon="17.5536492">
        <ele>25.6123</ele>
        <time>2014-07-12T12:18:28Z</time>
      </trkpt>
      <trkpt lat="59.9350205" lon="17.5537695">
        <ele>25.6123</ele>
        <time>2014-07-12T12:18:29Z</time>
      </trkpt>
      <trkpt lat="59.9349601" lon="17.5538897">
        <ele>25.6123</ele>
        <time>2014-07-12T12:18:30Z</time>
      </trkpt>
      <trkpt lat="59.9348996" lon="17.5540089">
        <ele>25.6123</ele>
        <time>2014-07-12T12:18:31Z</time>
      </trkpt>
      <trkpt lat="59.9348394" lon="17.5541284">
        <ele>25.6123</ele>
        <time>2014-07-12T12:18:32Z</time>
      </trkpt>
      <trkpt lat="59.9347789" lon="17.5542467">
        <ele>25.6123</ele>
        <time>2014-07-12T12:18:33Z</time>
      </trkpt>
      <trkpt lat="59.9347198" lon="17.5543634">
        <ele>25.6123</ele>
        <time>2014-07-12T12:18:34Z</time>
      </trkpt>
      <trkpt lat="59.9346621" lon="17.5544801">
        <ele>25.6123</ele>
        <time>2014-07-12T12:18:35Z</time>
      </trkpt>
      <trkpt lat="59.9346047" lon="17.5545963">
        <ele>25.6123</ele>
        <time>2014-07-12T12:18:36Z</time>
      </trkpt>
      <trkpt lat="59.9345478" lon="17.5547113">
        <ele>25.6123</ele>
        <time>2014-07-12T12:18:37Z</time>
      </trkpt>
      <trkpt lat="59.9344919" lon="17.5548236">
        <ele>25.6123</ele>
        <time>2014-07-12T12:18:38Z</time>
      </trkpt>
      <trkpt lat="59.9344369" lon="17.554932">
        <ele>25.6123</ele>
        <time>2014-07-12T12:18:39Z</time>
      </trkpt>
      <trkpt lat="59.9343836" lon="17.5550403">
        <ele>25.6123</ele>
        <time>2014-07-12T12:18:40Z</time>
      </trkpt>
      <trkpt lat="59.9343347" lon="17.5551536">
        <ele>25.6123</ele>
        <time>2014-07-12T12:18:41Z</time>
      </trkpt>
      <trkpt lat="59.9342954" lon="17.5552779">
        <ele>25.6123</ele>
        <time>2014-07-12T12:18:42Z</time>
      </trkpt>
      <trkpt lat="59.9342676" lon="17.555414">
        <ele>25.6123</ele>
        <time>2014-07-12T12:18:43Z</time>
      </trkpt>
      <trkpt lat="59.934242" lon="17.5555536">
        <ele>25.6123</ele>
        <time>2014-07-12T12:18:44Z</time>
      </trkpt>
      <trkpt lat="59.9342023" lon="17.5556788">
        <ele>25.6123</ele>
        <time>2014-07-12T12:18:45Z</time>
      </trkpt>
      <trkpt lat="59.9341437" lon="17.5557657">
        <ele>25.6123</ele>
        <time>2014-07-12T12:18:46Z</time>
      </trkpt>
      <trkpt lat="59.9340759" lon="17.5558193">
        <ele>25.6123</ele>
        <time>2014-07-12T12:18:47Z</time>
      </trkpt>
      <trkpt lat="59.9340056" lon="17.5558684">
        <ele>25.1317</ele>
        <time>2014-07-12T12:18:48Z</time>
      </trkpt>
      <trkpt lat="59.9339369" lon="17.5559347">
        <ele>25.1317</ele>
        <time>2014-07-12T12:18:49Z</time>
      </trkpt>
      <trkpt lat="59.9338722" lon="17.5560238">
        <ele>25.1317</ele>
        <time>2014-07-12T12:18:50Z</time>
      </trkpt>
      <trkpt lat="59.9338108" lon="17.5561306">
        <ele>25.6123</ele>
        <time>2014-07-12T12:18:51Z</time>
      </trkpt>
      <trkpt lat="59.9337538" lon="17.5562436">
        <ele>25.6123</ele>
        <time>2014-07-12T12:18:52Z</time>
      </trkpt>
      <trkpt lat="59.9336988" lon="17.5563558">
        <ele>25.6123</ele>
        <time>2014-07-12T12:18:53Z</time>
      </trkpt>
      <trkpt lat="59.9336428" lon="17.5564662">
        <ele>26.0929</ele>
        <time>2014-07-12T12:18:54Z</time>
      </trkpt>
      <trkpt lat="59.9335867" lon="17.556575">
        <ele>26.0929</ele>
        <time>2014-07-12T12:18:55Z</time>
      </trkpt>
      <trkpt lat="59.9335313" lon="17.5566851">
        <ele>26.0929</ele>
        <time>2014-07-12T12:18:56Z</time>
      </trkpt>
      <trkpt lat="59.9334763" lon="17.5567958">
        <ele>26.0929</ele>
        <time>2014-07-12T12:18:57Z</time>
      </trkpt>
      <trkpt lat="59.9334214" lon="17.556907">
        <ele>26.5736</ele>
        <time>2014-07-12T12:18:58Z</time>
      </trkpt>
      <trkpt lat="59.933366" lon="17.557017">
        <ele>26.5736</ele>
        <time>2014-07-12T12:18:59Z</time>
      </trkpt>
      <trkpt lat="59.9333107" lon="17.5571272">
        <ele>26.5736</ele>
        <time>2014-07-12T12:19:00Z</time>
      </trkpt>
      <trkpt lat="59.9332552" lon="17.5572365">
        <ele>26.5736</ele>
        <time>2014-07-12T12:19:01Z</time>
      </trkpt>
      <trkpt lat="59.9331994" lon="17.5573461">
        <ele>26.5736</ele>
        <time>2014-07-12T12:19:02Z</time>
      </trkpt>
      <trkpt lat="59.9331441" lon="17.557457">
        <ele>27.0543</ele>
        <time>2014-07-12T12:19:03Z</time>
      </trkpt>
      <trkpt lat="59.9330886" lon="17.5575675">
        <ele>27.0543</ele>
        <time>2014-07-12T12:19:04Z</time>
      </trkpt>
      <trkpt lat="59.9330336" lon="17.5576779">
        <ele>27.0543</ele>
        <time>2014-07-12T12:19:05Z</time>
      </trkpt>
      <trkpt lat="59.9329789" lon="17.5577876">
        <ele>27.5349</ele>
        <time>2014-07-12T12:19:06Z</time>
      </trkpt>
      <trkpt lat="59.9329249" lon="17.5578955">
        <ele>27.5349</ele>
        <time>2014-07-12T12:19:07Z</time>
      </trkpt>
      <trkpt lat="59.9328715" lon="17.5580011">
        <ele>27.5349</ele>
        <time>2014-07-12T12:19:08Z</time>
      </trkpt>
      <trkpt lat="59.9328183" lon="17.558106">
        <ele>27.5349</ele>
        <time>2014-07-12T12:19:09Z</time>
      </trkpt>
      <trkpt lat="59.9327659" lon="17.5582098">
        <ele>28.0155</ele>
        <time>2014-07-12T12:19:10Z</time>
      </trkpt>
      <trkpt lat="59.9327141" lon="17.5583127">
        <ele>28.0155</ele>
        <time>2014-07-12T12:19:11Z</time>
      </trkpt>
      <trkpt lat="59.9326633" lon="17.558415">
        <ele>28.0155</ele>
        <time>2014-07-12T12:19:12Z</time>
      </trkpt>
      <trkpt lat="59.9326141" lon="17.558516">
        <ele>28.0155</ele>
        <time>2014-07-12T12:19:13Z</time>
      </trkpt>
      <trkpt lat="59.9325664" lon="17.5586135">
        <ele>28.4962</ele>
        <time>2014-07-12T12:19:14Z</time>
      </trkpt>
      <trkpt lat="59.9325178" lon="17.5587083">
        <ele>28.4962</ele>
        <time>2014-07-12T12:19:15Z</time>
      </trkpt>
      <trkpt lat="59.9324685" lon="17.5588033">
        <ele>28.4962</ele>
        <time>2014-07-12T12:19:16Z</time>
      </trkpt>
      <trkpt lat="59.9324196" lon="17.5588988">
        <ele>28.4962</ele>
        <time>2014-07-12T12:19:17Z</time>
      </trkpt>
      <trkpt lat="59.9323707" lon="17.5589958">
        <ele>28.9769</ele>
        <time>2014-07-12T12:19:18Z</time>
      </trkpt>
      <trkpt lat="59.9323218" lon="17.5590945">
        <ele>28.9769</ele>
        <time>2014-07-12T12:19:19Z</time>
      </trkpt>
      <trkpt lat="59.932273" lon="17.5591941">
        <ele>28.9769</ele>
        <time>2014-07-12T12:19:20Z</time>
      </trkpt>
      <trkpt lat="59.932225" lon="17.5592936">
        <ele>29.4575</ele>
        <time>2014-07-12T12:19:21Z</time>
      </trkpt>
      <trkpt lat="59.9321769" lon="17.5593933">
        <ele>29.4575</ele>
        <time>2014-07-12T12:19:22Z</time>
      </trkpt>
      <trkpt lat="59.9321287" lon="17.5594924">
        <ele>29.9381</ele>
        <time>2014-07-12T12:19:23Z</time>
      </trkpt>
      <trkpt lat="59.9320804" lon="17.5595909">
        <ele>29.9381</ele>
        <time>2014-07-12T12:19:24Z</time>
      </trkpt>
      <trkpt lat="59.9320313" lon="17.5596899">
        <ele>30.4188</ele>
        <time>2014-07-12T12:19:25Z</time>
      </trkpt>
      <trkpt lat="59.9319831" lon="17.5597875">
        <ele>30.4188</ele>
        <time>2014-07-12T12:19:26Z</time>
      </trkpt>
      <trkpt lat="59.931937" lon="17.5598808">
        <ele>30.4188</ele>
        <time>2014-07-12T12:19:27Z</time>
      </trkpt>
      <trkpt lat="59.9318918" lon="17.5599696">
        <ele>30.4188</ele>
        <time>2014-07-12T12:19:28Z</time>
      </trkpt>
      <trkpt lat="59.9318464" lon="17.560056">
        <ele>30.8995</ele>
        <time>2014-07-12T12:19:29Z</time>
      </trkpt>
      <trkpt lat="59.9318018" lon="17.5601418">
        <ele>30.8995</ele>
        <time>2014-07-12T12:19:30Z</time>
      </trkpt>
      <trkpt lat="59.9317576" lon="17.5602265">
        <ele>30.8995</ele>
        <time>2014-07-12T12:19:31Z</time>
      </trkpt>
      <trkpt lat="59.931713" lon="17.560311">
        <ele>30.8995</ele>
        <time>2014-07-12T12:19:32Z</time>
      </trkpt>
      <trkpt lat="59.9316687" lon="17.5603978">
        <ele>30.8995</ele>
        <time>2014-07-12T12:19:33Z</time>
      </trkpt>
      <trkpt lat="59.9316246" lon="17.560486">
        <ele>30.8995</ele>
        <time>2014-07-12T12:19:34Z</time>
      </trkpt>
      <trkpt lat="59.9315792" lon="17.560574">
        <ele>30.8995</ele>
        <time>2014-07-12T12:19:35Z</time>
      </trkpt>
      <trkpt lat="59.9315335" lon="17.560663">
        <ele>30.8995</ele>
        <time>2014-07-12T12:19:36Z</time>
      </trkpt>
      <trkpt lat="59.9314877" lon="17.5607533">
        <ele>30.8995</ele>
        <time>2014-07-12T12:19:37Z</time>
      </trkpt>
      <trkpt lat="59.9314409" lon="17.5608439">
        <ele>30.8995</ele>
        <time>2014-07-12T12:19:38Z</time>
      </trkpt>
      <trkpt lat="59.9313937" lon="17.560936">
        <ele>30.8995</ele>
        <time>2014-07-12T12:19:39Z</time>
      </trkpt>
      <trkpt lat="59.9313469" lon="17.5610303">
        <ele>30.8995</ele>
        <time>2014-07-12T12:19:40Z</time>
      </trkpt>
      <trkpt lat="59.9313003" lon="17.5611263">
        <ele>30.8995</ele>
        <time>2014-07-12T12:19:41Z</time>
      </trkpt>
      <trkpt lat="59.931253" lon="17.5612216">
        <ele>30.8995</ele>
        <time>2014-07-12T12:19:42Z</time>
      </trkpt>
      <trkpt lat="59.9312062" lon="17.5613182">
        <ele>30.8995</ele>
        <time>2014-07-12T12:19:43Z</time>
      </trkpt>
      <trkpt lat="59.9311601" lon="17.5614168">
        <ele>30.8995</ele>
        <time>2014-07-12T12:19:44Z</time>
      </trkpt>
      <trkpt lat="59.9311128" lon="17.5615137">
        <ele>30.8995</ele>
        <time>2014-07-12T12:19:45Z</time>
      </trkpt>
      <trkpt lat="59.9310643" lon="17.5616095">
        <ele>30.8995</ele>
        <time>2014-07-12T12:19:46Z</time>
      </trkpt>
      <trkpt lat="59.9310165" lon="17.561706">
        <ele>30.8995</ele>
        <time>2014-07-12T12:19:47Z</time>
      </trkpt>
      <trkpt lat="59.9309687" lon="17.5618034">
        <ele>30.8995</ele>
        <time>2014-07-12T12:19:48Z</time>
      </trkpt>
      <trkpt lat="59.9309206" lon="17.5618981">
        <ele>30.8995</ele>
        <time>2014-07-12T12:19:49Z</time>
      </trkpt>
      <trkpt lat="59.9308725" lon="17.5619877">
        <ele>30.8995</ele>
        <time>2014-07-12T12:19:50Z</time>
      </trkpt>
      <trkpt lat="59.9308259" lon="17.5620763">
        <ele>31.3801</ele>
        <time>2014-07-12T12:19:51Z</time>
      </trkpt>
      <trkpt lat="59.9307807" lon="17.5621669">
        <ele>30.8995</ele>
        <time>2014-07-12T12:19:52Z</time>
      </trkpt>
      <trkpt lat="59.9307337" lon="17.56226">
        <ele>30.8995</ele>
        <time>2014-07-12T12:19:53Z</time>
      </trkpt>
      <trkpt lat="59.930684" lon="17.5623549">
        <ele>30.8995</ele>
        <time>2014-07-12T12:19:54Z</time>
      </trkpt>
      <trkpt lat="59.930633" lon="17.5624512">
        <ele>30.4188</ele>
        <time>2014-07-12T12:19:55Z</time>
      </trkpt>
      <trkpt lat="59.9305814" lon="17.5625482">
        <ele>30.4188</ele>
        <time>2014-07-12T12:19:56Z</time>
      </trkpt>
      <trkpt lat="59.9305301" lon="17.5626461">
        <ele>30.4188</ele>
        <time>2014-07-12T12:19:57Z</time>
      </trkpt>
      <trkpt lat="59.9304797" lon="17.5627466">
        <ele>30.4188</ele>
        <time>2014-07-12T12:19:58Z</time>
      </trkpt>
      <trkpt lat="59.9304301" lon="17.5628487">
        <ele>30.4188</ele>
        <time>2014-07-12T12:19:59Z</time>
      </trkpt>
      <trkpt lat="59.9303809" lon="17.5629507">
        <ele>30.4188</ele>
        <time>2014-07-12T12:20:00Z</time>
      </trkpt>
      <trkpt lat="59.9303312" lon="17.5630521">
        <ele>30.4188</ele>
        <time>2014-07-12T12:20:01Z</time>
      </trkpt>
      <trkpt lat="59.9302805" lon="17.5631526">
        <ele>30.4188</ele>
        <time>2014-07-12T12:20:02Z</time>
      </trkpt>
      <trkpt lat="59.9302296" lon="17.563254">
        <ele>30.4188</ele>
        <time>2014-07-12T12:20:03Z</time>
      </trkpt>
      <trkpt lat="59.9301784" lon="17.5633581">
        <ele>30.4188</ele>
        <time>2014-07-12T12:20:04Z</time>
      </trkpt>
      <trkpt lat="59.9301261" lon="17.5634636">
        <ele>30.4188</ele>
        <time>2014-07-12T12:20:05Z</time>
      </trkpt>
      <trkpt lat="59.9300722" lon="17.5635697">
        <ele>30.4188</ele>
        <time>2014-07-12T12:20:06Z</time>
      </trkpt>
      <trkpt lat="59.9300181" lon="17.5636763">
        <ele>30.4188</ele>
        <time>2014-07-12T12:20:07Z</time>
      </trkpt>
      <trkpt lat="59.929965" lon="17.5637858">
        <ele>30.4188</ele>
        <time>2014-07-12T12:20:08Z</time>
      </trkpt>
      <trkpt lat="59.9299117" lon="17.5638971">
        <ele>29.9381</ele>
        <time>2014-07-12T12:20:09Z</time>
      </trkpt>
      <trkpt lat="59.9298577" lon="17.564007">
        <ele>29.9381</ele>
        <time>2014-07-12T12:20:10Z</time>
      </trkpt>
      <trkpt lat="59.9298043" lon="17.564116">
        <ele>30.4188</ele>
        <time>2014-07-12T12:20:11Z</time>
      </trkpt>
      <trkpt lat="59.9297521" lon="17.5642224">
        <ele>30.4188</ele>
        <time>2014-07-12T12:20:12Z</time>
      </trkpt>
      <trkpt lat="59.9297003" lon="17.5643266">
        <ele>30.4188</ele>
        <time>2014-07-12T12:20:13Z</time>
      </trkpt>
      <trkpt lat="59.9296479" lon="17.56443">
        <ele>30.4188</ele>
        <time>2014-07-12T12:20:14Z</time>
      </trkpt>
      <trkpt lat="59.9295961" lon="17.5645331">
        <ele>30.4188</ele>
        <time>2014-07-12T12:20:15Z</time>
      </trkpt>
      <trkpt lat="59.9295441" lon="17.5646371">
        <ele>30.4188</ele>
        <time>2014-07-12T12:20:16Z</time>
      </trkpt>
      <trkpt lat="59.9294921" lon="17.5647425">
        <ele>30.4188</ele>
        <time>2014-07-12T12:20:17Z</time>
      </trkpt>
      <trkpt lat="59.9294402" lon="17.564849">
        <ele>30.4188</ele>
        <time>2014-07-12T12:20:18Z</time>
      </trkpt>
      <trkpt lat="59.9293873" lon="17.5649547">
        <ele>29.9381</ele>
        <time>2014-07-12T12:20:19Z</time>
      </trkpt>
      <trkpt lat="59.9293335" lon="17.5650596">
        <ele>29.9381</ele>
        <time>2014-07-12T12:20:20Z</time>
      </trkpt>
      <trkpt lat="59.9292799" lon="17.5651658">
        <ele>29.9381</ele>
        <time>2014-07-12T12:20:21Z</time>
      </trkpt>
      <trkpt lat="59.9292256" lon="17.5652737">
        <ele>29.9381</ele>
        <time>2014-07-12T12:20:22Z</time>
      </trkpt>
      <trkpt lat="59.9291703" lon="17.5653812">
        <ele>29.9381</ele>
        <time>2014-07-12T12:20:23Z</time>
      </trkpt>
      <trkpt lat="59.9291147" lon="17.5654896">
        <ele>29.4575</ele>
        <time>2014-07-12T12:20:24Z</time>
      </trkpt>
      <trkpt lat="59.9290584" lon="17.5655998">
        <ele>29.4575</ele>
        <time>2014-07-12T12:20:25Z</time>
      </trkpt>
      <trkpt lat="59.9290023" lon="17.565712">
        <ele>29.4575</ele>
        <time>2014-07-12T12:20:26Z</time>
      </trkpt>
      <trkpt lat="59.9289463" lon="17.5658259">
        <ele>29.4575</ele>
        <time>2014-07-12T12:20:27Z</time>
      </trkpt>
      <trkpt lat="59.9288906" lon="17.5659391">
        <ele>29.4575</ele>
        <time>2014-07-12T12:20:28Z</time>
      </trkpt>
      <trkpt lat="59.9288358" lon="17.5660524">
        <ele>29.4575</ele>
        <time>2014-07-12T12:20:29Z</time>
      </trkpt>
      <trkpt lat="59.9287816" lon="17.5661642">
        <ele>29.4575</ele>
        <time>2014-07-12T12:20:30Z</time>
      </trkpt>
      <trkpt lat="59.9287274" lon="17.5662746">
        <ele>29.4575</ele>
        <time>2014-07-12T12:20:31Z</time>
      </trkpt>
      <trkpt lat="59.9286726" lon="17.5663834">
        <ele>29.4575</ele>
        <time>2014-07-12T12:20:32Z</time>
      </trkpt>
      <trkpt lat="59.9286181" lon="17.5664914">
        <ele>29.4575</ele>
        <time>2014-07-12T12:20:33Z</time>
      </trkpt>
      <trkpt lat="59.9285694" lon="17.5665944">
        <ele>28.9769</ele>
        <time>2014-07-12T12:20:34Z</time>
      </trkpt>
      <trkpt lat="59.928525" lon="17.5666985">
        <ele>29.4575</ele>
        <time>2014-07-12T12:20:35Z</time>
      </trkpt>
      <trkpt lat="59.9284757" lon="17.5668026">
        <ele>28.4962</ele>
        <time>2014-07-12T12:20:36Z</time>
      </trkpt>
      <trkpt lat="59.9284245" lon="17.5669107">
        <ele>28.0155</ele>
        <time>2014-07-12T12:20:37Z</time>
      </trkpt>
      <trkpt lat="59.9283736" lon="17.5670133">
        <ele>28.0155</ele>
        <time>2014-07-12T12:20:38Z</time>
      </trkpt>
      <trkpt lat="59.9283227" lon="17.5671118">
        <ele>28.0155</ele>
        <time>2014-07-12T12:20:39Z</time>
      </trkpt>
      <trkpt lat="59.9282773" lon="17.5672163">
        <ele>28.0155</ele>
        <time>2014-07-12T12:20:40Z</time>
      </trkpt>
      <trkpt lat="59.9282415" lon="17.5673311">
        <ele>28.0155</ele>
        <time>2014-07-12T12:20:41Z</time>
      </trkpt>
      <trkpt lat="59.9282087" lon="17.5674501">
        <ele>28.4962</ele>
        <time>2014-07-12T12:20:42Z</time>
      </trkpt>
      <trkpt lat="59.9281657" lon="17.5675509">
        <ele>28.4962</ele>
        <time>2014-07-12T12:20:43Z</time>
      </trkpt>
      <trkpt lat="59.9281121" lon="17.567616">
        <ele>28.0155</ele>
        <time>2014-07-12T12:20:44Z</time>
      </trkpt>
      <trkpt lat="59.9280567" lon="17.5676597">
        <ele>28.0155</ele>
        <time>2014-07-12T12:20:45Z</time>
      </trkpt>
      <trkpt lat="59.9280008" lon="17.5676937">
        <ele>27.5349</ele>
        <time>2014-07-12T12:20:46Z</time>
      </trkpt>
      <trkpt lat="59.9279415" lon="17.5677116">
        <ele>27.0543</ele>
        <time>2014-07-12T12:20:47Z</time>
      </trkpt>
      <trkpt lat="59.9278774" lon="17.5677074">
        <ele>26.5736</ele>
        <time>2014-07-12T12:20:48Z</time>
      </trkpt>
      <trkpt lat="59.9278095" lon="17.5676999">
        <ele>26.0929</ele>
        <time>2014-07-12T12:20:49Z</time>
      </trkpt>
      <trkpt lat="59.9277401" lon="17.5677096">
        <ele>26.0929</ele>
        <time>2014-07-12T12:20:50Z</time>
      </trkpt>
      <trkpt lat="59.9276706" lon="17.5677367">
        <ele>25.6123</ele>
        <time>2014-07-12T12:20:51Z</time>
      </trkpt>
      <trkpt lat="59.9276004" lon="17.5677723">
        <ele>25.6123</ele>
        <time>2014-07-12T12:20:52Z</time>
      </trkpt>
      <trkpt lat="59.9275294" lon="17.5678122">
        <ele>25.6123</ele>
        <time>2014-07-12T12:20:53Z</time>
      </trkpt>
      <trkpt lat="59.9274583" lon="17.5678526">
        <ele>25.6123</ele>
        <time>2014-07-12T12:20:54Z</time>
      </trkpt>
      <trkpt lat="59.9273863" lon="17.5678889">
        <ele>25.6123</ele>
        <time>2014-07-12T12:20:55Z</time>
      </trkpt>
      <trkpt lat="59.9273117" lon="17.5679225">
        <ele>25.1317</ele>
        <time>2014-07-12T12:20:56Z</time>
      </trkpt>
      <trkpt lat="59.9272349" lon="17.5679535">
        <ele>25.1317</ele>
        <time>2014-07-12T12:20:57Z</time>
      </trkpt>
      <trkpt lat="59.9271566" lon="17.5679811">
        <ele>25.1317</ele>
        <time>2014-07-12T12:20:58Z</time>
      </trkpt>
      <trkpt lat="59.9270763" lon="17.5680047">
        <ele>24.651</ele>
        <time>2014-07-12T12:20:59Z</time>
      </trkpt>
      <trkpt lat="59.9269941" lon="17.5680233">
        <ele>24.651</ele>
        <time>2014-07-12T12:21:00Z</time>
      </trkpt>
      <trkpt lat="59.9269111" lon="17.5680399">
        <ele>24.651</ele>
        <time>2014-07-12T12:21:01Z</time>
      </trkpt>
      <trkpt lat="59.9268272" lon="17.5680541">
        <ele>24.651</ele>
        <time>2014-07-12T12:21:02Z</time>
      </trkpt>
      <trkpt lat="59.9267407" lon="17.5680628">
        <ele>24.651</ele>
        <time>2014-07-12T12:21:03Z</time>
      </trkpt>
      <trkpt lat="59.9266528" lon="17.5680644">
        <ele>24.1703</ele>
        <time>2014-07-12T12:21:04Z</time>
      </trkpt>
      <trkpt lat="59.9265647" lon="17.5680587">
        <ele>24.1703</ele>
        <time>2014-07-12T12:21:05Z</time>
      </trkpt>
      <trkpt lat="59.9264772" lon="17.5680469">
        <ele>24.1703</ele>
        <time>2014-07-12T12:21:06Z</time>
      </trkpt>
      <trkpt lat="59.9263892" lon="17.5680275">
        <ele>24.1703</ele>
        <time>2014-07-12T12:21:07Z</time>
      </trkpt>
      <trkpt lat="59.9263017" lon="17.5680053">
        <ele>24.1703</ele>
        <time>2014-07-12T12:21:08Z</time>
      </trkpt>
      <trkpt lat="59.926215" lon="17.5679816">
        <ele>24.1703</ele>
        <time>2014-07-12T12:21:09Z</time>
      </trkpt>
      <trkpt lat="59.9261286" lon="17.5679524">
        <ele>24.1703</ele>
        <time>2014-07-12T12:21:10Z</time>
      </trkpt>
      <trkpt lat="59.9260437" lon="17.5679163">
        <ele>23.6896</ele>
        <time>2014-07-12T12:21:11Z</time>
      </trkpt>
      <trkpt lat="59.9259602" lon="17.5678737">
        <ele>23.6896</ele>
        <time>2014-07-12T12:21:12Z</time>
      </trkpt>
      <trkpt lat="59.9258773" lon="17.5678275">
        <ele>23.6896</ele>
        <time>2014-07-12T12:21:13Z</time>
      </trkpt>
      <trkpt lat="59.9257949" lon="17.5677773">
        <ele>23.6896</ele>
        <time>2014-07-12T12:21:14Z</time>
      </trkpt>
      <trkpt lat="59.9257131" lon="17.5677195">
        <ele>23.6896</ele>
        <time>2014-07-12T12:21:15Z</time>
      </trkpt>
      <trkpt lat="59.9256324" lon="17.5676537">
        <ele>23.6896</ele>
        <time>2014-07-12T12:21:16Z</time>
      </trkpt>
      <trkpt lat="59.9255531" lon="17.567582">
        <ele>23.6896</ele>
        <time>2014-07-12T12:21:17Z</time>
      </trkpt>
      <trkpt lat="59.9254747" lon="17.5675051">
        <ele>23.209</ele>
        <time>2014-07-12T12:21:18Z</time>
      </trkpt>
      <trkpt lat="59.9253967" lon="17.5674252">
        <ele>23.209</ele>
        <time>2014-07-12T12:21:19Z</time>
      </trkpt>
      <trkpt lat="59.9253194" lon="17.5673448">
        <ele>23.209</ele>
        <time>2014-07-12T12:21:20Z</time>
      </trkpt>
      <trkpt lat="59.9252441" lon="17.5672642">
        <ele>23.209</ele>
        <time>2014-07-12T12:21:21Z</time>
      </trkpt>
      <trkpt lat="59.9251696" lon="17.5671864">
        <ele>23.209</ele>
        <time>2014-07-12T12:21:22Z</time>
      </trkpt>
      <trkpt lat="59.925095" lon="17.5671111">
        <ele>23.209</ele>
        <time>2014-07-12T12:21:23Z</time>
      </trkpt>
      <trkpt lat="59.92502" lon="17.5670366">
        <ele>22.7283</ele>
        <time>2014-07-12T12:21:24Z</time>
      </trkpt>
      <trkpt lat="59.9249444" lon="17.5669631">
        <ele>22.7283</ele>
        <time>2014-07-12T12:21:25Z</time>
      </trkpt>
      <trkpt lat="59.9248683" lon="17.5668887">
        <ele>22.7283</ele>
        <time>2014-07-12T12:21:26Z</time>
      </trkpt>
      <trkpt lat="59.9247921" lon="17.566813">
        <ele>22.7283</ele>
        <time>2014-07-12T12:21:27Z</time>
      </trkpt>
      <trkpt lat="59.924716" lon="17.5667368">
        <ele>22.7283</ele>
        <time>2014-07-12T12:21:28Z</time>
      </trkpt>
      <trkpt lat="59.9246402" lon="17.5666603">
        <ele>22.7283</ele>
        <time>2014-07-12T12:21:29Z</time>
      </trkpt>
      <trkpt lat="59.9245641" lon="17.5665845">
        <ele>22.7283</ele>
        <time>2014-07-12T12:21:30Z</time>
      </trkpt>
      <trkpt lat="59.924487" lon="17.5665082">
        <ele>22.7283</ele>
        <time>2014-07-12T12:21:31Z</time>
      </trkpt>
      <trkpt lat="59.9244093" lon="17.5664303">
        <ele>22.7283</ele>
        <time>2014-07-12T12:21:32Z</time>
      </trkpt>
      <trkpt lat="59.9243309" lon="17.5663519">
        <ele>22.7283</ele>
        <time>2014-07-12T12:21:33Z</time>
      </trkpt>
      <trkpt lat="59.9242517" lon="17.5662722">
        <ele>22.7283</ele>
        <time>2014-07-12T12:21:34Z</time>
      </trkpt>
      <trkpt lat="59.9241727" lon="17.5661912">
        <ele>22.7283</ele>
        <time>2014-07-12T12:21:35Z</time>
      </trkpt>
      <trkpt lat="59.9240941" lon="17.5661103">
        <ele>22.7283</ele>
        <time>2014-07-12T12:21:36Z</time>
      </trkpt>
      <trkpt lat="59.9240151" lon="17.5660304">
        <ele>22.7283</ele>
        <time>2014-07-12T12:21:37Z</time>
      </trkpt>
      <trkpt lat="59.9239359" lon="17.5659518">
        <ele>22.7283</ele>
        <time>2014-07-12T12:21:38Z</time>
      </trkpt>
      <trkpt lat="59.9238569" lon="17.5658727">
        <ele>22.7283</ele>
        <time>2014-07-12T12:21:39Z</time>
      </trkpt>
      <trkpt lat="59.9237779" lon="17.565792">
        <ele>22.2476</ele>
        <time>2014-07-12T12:21:40Z</time>
      </trkpt>
      <trkpt lat="59.9236985" lon="17.5657115">
        <ele>22.2476</ele>
        <time>2014-07-12T12:21:41Z</time>
      </trkpt>
      <trkpt lat="59.9236184" lon="17.5656329">
        <ele>22.2476</ele>
        <time>2014-07-12T12:21:42Z</time>
      </trkpt>
      <trkpt lat="59.9235379" lon="17.5655548">
        <ele>22.2476</ele>
        <time>2014-07-12T12:21:43Z</time>
      </trkpt>
      <trkpt lat="59.9234571" lon="17.5654766">
        <ele>22.2476</ele>
        <time>2014-07-12T12:21:44Z</time>
      </trkpt>
      <trkpt lat="59.923376" lon="17.565401">
        <ele>22.2476</ele>
        <time>2014-07-12T12:21:45Z</time>
      </trkpt>
      <trkpt lat="59.9232945" lon="17.5653283">
        <ele>22.2476</ele>
        <time>2014-07-12T12:21:46Z</time>
      </trkpt>
      <trkpt lat="59.9232125" lon="17.5652564">
        <ele>22.2476</ele>
        <time>2014-07-12T12:21:47Z</time>
      </trkpt>
      <trkpt lat="59.9231301" lon="17.5651878">
        <ele>22.2476</ele>
        <time>2014-07-12T12:21:48Z</time>
      </trkpt>
      <trkpt lat="59.9230465" lon="17.5651242">
        <ele>22.2476</ele>
        <time>2014-07-12T12:21:49Z</time>
      </trkpt>
      <trkpt lat="59.9229619" lon="17.565066">
        <ele>22.2476</ele>
        <time>2014-07-12T12:21:50Z</time>
      </trkpt>
      <trkpt lat="59.9228761" lon="17.5650132">
        <ele>22.2476</ele>
        <time>2014-07-12T12:21:51Z</time>
      </trkpt>
      <trkpt lat="59.9227894" lon="17.5649656">
        <ele>22.2476</ele>
        <time>2014-07-12T12:21:52Z</time>
      </trkpt>
      <trkpt lat="59.9227019" lon="17.5649226">
        <ele>22.2476</ele>
        <time>2014-07-12T12:21:53Z</time>
      </trkpt>
      <trkpt lat="59.9226137" lon="17.5648822">
        <ele>22.2476</ele>
        <time>2014-07-12T12:21:54Z</time>
      </trkpt>
      <trkpt lat="59.9225243" lon="17.5648425">
        <ele>22.2476</ele>
        <time>2014-07-12T12:21:55Z</time>
      </trkpt>
      <trkpt lat="59.9224341" lon="17.5648046">
        <ele>22.2476</ele>
        <time>2014-07-12T12:21:56Z</time>
      </trkpt>
      <trkpt lat="59.9223433" lon="17.5647704">
        <ele>22.2476</ele>
        <time>2014-07-12T12:21:57Z</time>
      </trkpt>
      <trkpt lat="59.9222526" lon="17.5647378">
        <ele>22.2476</ele>
        <time>2014-07-12T12:21:58Z</time>
      </trkpt>
      <trkpt lat="59.9221617" lon="17.5647057">
        <ele>22.2476</ele>
        <time>2014-07-12T12:21:59Z</time>
      </trkpt>
      <trkpt lat="59.92207" lon="17.5646754">
        <ele>22.2476</ele>
        <time>2014-07-12T12:22:00Z</time>
      </trkpt>
      <trkpt lat="59.9219783" lon="17.5646459">
        <ele>22.2476</ele>
        <time>2014-07-12T12:22:01Z</time>
      </trkpt>
      <trkpt lat="59.9218871" lon="17.5646156">
        <ele>22.2476</ele>
        <time>2014-07-12T12:22:02Z</time>
      </trkpt>
      <trkpt lat="59.9217966" lon="17.5645846">
        <ele>22.2476</ele>
        <time>2014-07-12T12:22:03Z</time>
      </trkpt>
      <trkpt lat="59.9217061" lon="17.5645537">
        <ele>22.2476</ele>
        <time>2014-07-12T12:22:04Z</time>
      </trkpt>
      <trkpt lat="59.9216153" lon="17.5645222">
        <ele>22.2476</ele>
        <time>2014-07-12T12:22:05Z</time>
      </trkpt>
      <trkpt lat="59.9215245" lon="17.5644901">
        <ele>22.2476</ele>
        <time>2014-07-12T12:22:06Z</time>
      </trkpt>
      <trkpt lat="59.9214333" lon="17.5644581">
        <ele>22.2476</ele>
        <time>2014-07-12T12:22:07Z</time>
      </trkpt>
      <trkpt lat="59.921342" lon="17.5644265">
        <ele>22.2476</ele>
        <time>2014-07-12T12:22:08Z</time>
      </trkpt>
      <trkpt lat="59.92125" lon="17.5643994">
        <ele>21.767</ele>
        <time>2014-07-12T12:22:09Z</time>
      </trkpt>
      <trkpt lat="59.9211578" lon="17.5643773">
        <ele>21.767</ele>
        <time>2014-07-12T12:22:10Z</time>
      </trkpt>
      <trkpt lat="59.9210656" lon="17.5643595">
        <ele>21.767</ele>
        <time>2014-07-12T12:22:11Z</time>
      </trkpt>
      <trkpt lat="59.9209738" lon="17.5643452">
        <ele>21.767</ele>
        <time>2014-07-12T12:22:12Z</time>
      </trkpt>
      <trkpt lat="59.9208817" lon="17.5643321">
        <ele>21.767</ele>
        <time>2014-07-12T12:22:13Z</time>
      </trkpt>
      <trkpt lat="59.9207899" lon="17.5643203">
        <ele>21.767</ele>
        <time>2014-07-12T12:22:14Z</time>
      </trkpt>
      <trkpt lat="59.9206986" lon="17.564311">
        <ele>21.767</ele>
        <time>2014-07-12T12:22:15Z</time>
      </trkpt>
      <trkpt lat="59.9206071" lon="17.5643052">
        <ele>21.767</ele>
        <time>2014-07-12T12:22:16Z</time>
      </trkpt>
      <trkpt lat="59.9205163" lon="17.5643053">
        <ele>21.767</ele>
        <time>2014-07-12T12:22:17Z</time>
      </trkpt>
      <trkpt lat="59.9204274" lon="17.5643175">
        <ele>21.767</ele>
        <time>2014-07-12T12:22:18Z</time>
      </trkpt>
      <trkpt lat="59.9203422" lon="17.5643426">
        <ele>22.2476</ele>
        <time>2014-07-12T12:22:19Z</time>
      </trkpt>
      <trkpt lat="59.9202596" lon="17.5643553">
        <ele>22.2476</ele>
        <time>2014-07-12T12:22:20Z</time>
      </trkpt>
      <trkpt lat="59.9201795" lon="17.5643377">
        <ele>22.2476</ele>
        <time>2014-07-12T12:22:21Z</time>
      </trkpt>
      <trkpt lat="59.9201015" lon="17.5643097">
        <ele>22.2476</ele>
        <time>2014-07-12T12:22:22Z</time>
      </trkpt>
      <trkpt lat="59.9200238" lon="17.5642883">
        <ele>22.2476</ele>
        <time>2014-07-12T12:22:23Z</time>
      </trkpt>
      <trkpt lat="59.9199466" lon="17.5642747">
        <ele>22.2476</ele>
        <time>2014-07-12T12:22:24Z</time>
      </trkpt>
      <trkpt lat="59.91987" lon="17.564267">
        <ele>22.2476</ele>
        <time>2014-07-12T12:22:25Z</time>
      </trkpt>
      <trkpt lat="59.9197945" lon="17.5642617">
        <ele>21.767</ele>
        <time>2014-07-12T12:22:26Z</time>
      </trkpt>
      <trkpt lat="59.9197204" lon="17.5642619">
        <ele>21.767</ele>
        <time>2014-07-12T12:22:27Z</time>
      </trkpt>
      <trkpt lat="59.9196467" lon="17.5642629">
        <ele>21.767</ele>
        <time>2014-07-12T12:22:28Z</time>
      </trkpt>
      <trkpt lat="59.9195732" lon="17.5642645">
        <ele>21.767</ele>
        <time>2014-07-12T12:22:29Z</time>
      </trkpt>
      <trkpt lat="59.9194997" lon="17.5642706">
        <ele>22.2476</ele>
        <time>2014-07-12T12:22:30Z</time>
      </trkpt>
      <trkpt lat="59.9194266" lon="17.5642818">
        <ele>22.2476</ele>
        <time>2014-07-12T12:22:31Z</time>
      </trkpt>
      <trkpt lat="59.919355" lon="17.5643009">
        <ele>22.2476</ele>
        <time>2014-07-12T12:22:32Z</time>
      </trkpt>
      <trkpt lat="59.9192862" lon="17.5643251">
        <ele>22.2476</ele>
        <time>2014-07-12T12:22:33Z</time>
      </trkpt>
      <trkpt lat="59.9192218" lon="17.5643628">
        <ele>22.7283</ele>
        <time>2014-07-12T12:22:34Z</time>
      </trkpt>
      <trkpt lat="59.9191611" lon="17.5644128">
        <ele>22.7283</ele>
        <time>2014-07-12T12:22:35Z</time>
      </trkpt>
      <trkpt lat="59.9191023" lon="17.5644729">
        <ele>22.7283</ele>
        <time>2014-07-12T12:22:36Z</time>
      </trkpt>
      <trkpt lat="59.9190449" lon="17.5645385">
        <ele>22.7283</ele>
        <time>2014-07-12T12:22:37Z</time>
      </trkpt>
      <trkpt lat="59.9189893" lon="17.5646104">
        <ele>22.7283</ele>
        <time>2014-07-12T12:22:38Z</time>
      </trkpt>
      <trkpt lat="59.9189355" lon="17.5646905">
        <ele>22.7283</ele>
        <time>2014-07-12T12:22:39Z</time>
      </trkpt>
      <trkpt lat="59.9188826" lon="17.5647756">
        <ele>22.7283</ele>
        <time>2014-07-12T12:22:40Z</time>
      </trkpt>
      <trkpt lat="59.9188303" lon="17.5648652">
        <ele>22.7283</ele>
        <time>2014-07-12T12:22:41Z</time>
      </trkpt>
      <trkpt lat="59.918778" lon="17.5649581">
        <ele>22.7283</ele>
        <time>2014-07-12T12:22:42Z</time>
      </trkpt>
      <trkpt lat="59.918725" lon="17.5650513">
        <ele>22.7283</ele>
        <time>2014-07-12T12:22:43Z</time>
      </trkpt>
      <trkpt lat="59.9186704" lon="17.5651442">
        <ele>22.7283</ele>
        <time>2014-07-12T12:22:44Z</time>
      </trkpt>
      <trkpt lat="59.9186149" lon="17.5652377">
        <ele>22.7283</ele>
        <time>2014-07-12T12:22:45Z</time>
      </trkpt>
      <trkpt lat="59.9185593" lon="17.5653349">
        <ele>22.7283</ele>
        <time>2014-07-12T12:22:46Z</time>
      </trkpt>
      <trkpt lat="59.9185027" lon="17.5654345">
        <ele>22.7283</ele>
        <time>2014-07-12T12:22:47Z</time>
      </trkpt>
      <trkpt lat="59.9184434" lon="17.5655304">
        <ele>22.7283</ele>
        <time>2014-07-12T12:22:48Z</time>
      </trkpt>
      <trkpt lat="59.9183819" lon="17.5656227">
        <ele>22.7283</ele>
        <time>2014-07-12T12:22:49Z</time>
      </trkpt>
      <trkpt lat="59.9183204" lon="17.5657175">
        <ele>22.7283</ele>
        <time>2014-07-12T12:22:50Z</time>
      </trkpt>
      <trkpt lat="59.918258" lon="17.5658132">
        <ele>22.7283</ele>
        <time>2014-07-12T12:22:51Z</time>
      </trkpt>
      <trkpt lat="59.9181942" lon="17.565908">
        <ele>22.7283</ele>
        <time>2014-07-12T12:22:52Z</time>
      </trkpt>
      <trkpt lat="59.9181296" lon="17.5660043">
        <ele>22.7283</ele>
        <time>2014-07-12T12:22:53Z</time>
      </trkpt>
      <trkpt lat="59.918065" lon="17.5661021">
        <ele>22.7283</ele>
        <time>2014-07-12T12:22:54Z</time>
      </trkpt>
      <trkpt lat="59.9180008" lon="17.5662012">
        <ele>22.7283</ele>
        <time>2014-07-12T12:22:55Z</time>
      </trkpt>
      <trkpt lat="59.9179367" lon="17.5663017">
        <ele>22.7283</ele>
        <time>2014-07-12T12:22:56Z</time>
      </trkpt>
      <trkpt lat="59.9178735" lon="17.566404">
        <ele>22.7283</ele>
        <time>2014-07-12T12:22:57Z</time>
      </trkpt>
      <trkpt lat="59.9178124" lon="17.5665089">
        <ele>22.7283</ele>
        <time>2014-07-12T12:22:58Z</time>
      </trkpt>
      <trkpt lat="59.9177528" lon="17.5666154">
        <ele>22.7283</ele>
        <time>2014-07-12T12:22:59Z</time>
      </trkpt>
      <trkpt lat="59.9176949" lon="17.5667232">
        <ele>22.7283</ele>
        <time>2014-07-12T12:23:00Z</time>
      </trkpt>
      <trkpt lat="59.9176394" lon="17.5668335">
        <ele>22.7283</ele>
        <time>2014-07-12T12:23:01Z</time>
      </trkpt>
      <trkpt lat="59.9175861" lon="17.5669449">
        <ele>23.209</ele>
        <time>2014-07-12T12:23:02Z</time>
      </trkpt>
      <trkpt lat="59.9175331" lon="17.5670539">
        <ele>23.209</ele>
        <time>2014-07-12T12:23:03Z</time>
      </trkpt>
      <trkpt lat="59.917481" lon="17.5671638">
        <ele>23.209</ele>
        <time>2014-07-12T12:23:04Z</time>
      </trkpt>
      <trkpt lat="59.9174296" lon="17.5672755">
        <ele>23.209</ele>
        <time>2014-07-12T12:23:05Z</time>
      </trkpt>
      <trkpt lat="59.9173781" lon="17.5673895">
        <ele>23.209</ele>
        <time>2014-07-12T12:23:06Z</time>
      </trkpt>
      <trkpt lat="59.9173276" lon="17.5675051">
        <ele>23.209</ele>
        <time>2014-07-12T12:23:07Z</time>
      </trkpt>
      <trkpt lat="59.9172779" lon="17.5676211">
        <ele>23.209</ele>
        <time>2014-07-12T12:23:08Z</time>
      </trkpt>
      <trkpt lat="59.9172276" lon="17.5677354">
        <ele>23.209</ele>
        <time>2014-07-12T12:23:09Z</time>
      </trkpt>
      <trkpt lat="59.9171768" lon="17.567849">
        <ele>23.209</ele>
        <time>2014-07-12T12:23:10Z</time>
      </trkpt>
      <trkpt lat="59.9171252" lon="17.5679618">
        <ele>23.209</ele>
        <time>2014-07-12T12:23:11Z</time>
      </trkpt>
      <trkpt lat="59.9170742" lon="17.5680764">
        <ele>23.209</ele>
        <time>2014-07-12T12:23:12Z</time>
      </trkpt>
      <trkpt lat="59.9170246" lon="17.5681934">
        <ele>23.209</ele>
        <time>2014-07-12T12:23:13Z</time>
      </trkpt>
      <trkpt lat="59.9169762" lon="17.5683079">
        <ele>23.209</ele>
        <time>2014-07-12T12:23:14Z</time>
      </trkpt>
      <trkpt lat="59.9169288" lon="17.5684172">
        <ele>23.209</ele>
        <time>2014-07-12T12:23:15Z</time>
      </trkpt>
      <trkpt lat="59.9168846" lon="17.5685256">
        <ele>23.209</ele>
        <time>2014-07-12T12:23:16Z</time>
      </trkpt>
      <trkpt lat="59.9168427" lon="17.5686332">
        <ele>23.209</ele>
        <time>2014-07-12T12:23:17Z</time>
      </trkpt>
      <trkpt lat="59.9168021" lon="17.5687389">
        <ele>23.209</ele>
        <time>2014-07-12T12:23:18Z</time>
      </trkpt>
      <trkpt lat="59.9167624" lon="17.5688441">
        <ele>23.209</ele>
        <time>2014-07-12T12:23:19Z</time>
      </trkpt>
      <trkpt lat="59.9167227" lon="17.5689482">
        <ele>23.209</ele>
        <time>2014-07-12T12:23:20Z</time>
      </trkpt>
      <trkpt lat="59.9166846" lon="17.5690509">
        <ele>23.6896</ele>
        <time>2014-07-12T12:23:21Z</time>
      </trkpt>
      <trkpt lat="59.916648" lon="17.5691518">
        <ele>23.6896</ele>
        <time>2014-07-12T12:23:22Z</time>
      </trkpt>
      <trkpt lat="59.9166133" lon="17.5692523">
        <ele>23.6896</ele>
        <time>2014-07-12T12:23:23Z</time>
      </trkpt>
      <trkpt lat="59.9165802" lon="17.5693527">
        <ele>23.6896</ele>
        <time>2014-07-12T12:23:24Z</time>
      </trkpt>
      <trkpt lat="59.916548" lon="17.5694512">
        <ele>23.6896</ele>
        <time>2014-07-12T12:23:25Z</time>
      </trkpt>
      <trkpt lat="59.9165167" lon="17.5695478">
        <ele>23.6896</ele>
        <time>2014-07-12T12:23:26Z</time>
      </trkpt>
      <trkpt lat="59.9164858" lon="17.5696424">
        <ele>23.6896</ele>
        <time>2014-07-12T12:23:27Z</time>
      </trkpt>
      <trkpt lat="59.91645" lon="17.5697298">
        <ele>23.6896</ele>
        <time>2014-07-12T12:23:28Z</time>
      </trkpt>
      <trkpt lat="59.9164072" lon="17.569806">
        <ele>23.6896</ele>
        <time>2014-07-12T12:23:29Z</time>
      </trkpt>
      <trkpt lat="59.916361" lon="17.5698749">
        <ele>24.1703</ele>
        <time>2014-07-12T12:23:30Z</time>
      </trkpt>
      <trkpt lat="59.916317" lon="17.569945">
        <ele>24.1703</ele>
        <time>2014-07-12T12:23:31Z</time>
      </trkpt>
      <trkpt lat="59.9162776" lon="17.570021">
        <ele>24.651</ele>
        <time>2014-07-12T12:23:32Z</time>
      </trkpt>
      <trkpt lat="59.9162404" lon="17.5701013">
        <ele>24.651</ele>
        <time>2014-07-12T12:23:33Z</time>
      </trkpt>
      <trkpt lat="59.9162047" lon="17.5701853">
        <ele>24.651</ele>
        <time>2014-07-12T12:23:34Z</time>
      </trkpt>
      <trkpt lat="59.9161705" lon="17.5702757">
        <ele>24.651</ele>
        <time>2014-07-12T12:23:35Z</time>
      </trkpt>
      <trkpt lat="59.9161372" lon="17.5703717">
        <ele>24.651</ele>
        <time>2014-07-12T12:23:36Z</time>
      </trkpt>
      <trkpt lat="59.9161038" lon="17.5704725">
        <ele>24.651</ele>
        <time>2014-07-12T12:23:37Z</time>
      </trkpt>
      <trkpt lat="59.9160702" lon="17.5705772">
        <ele>24.651</ele>
        <time>2014-07-12T12:23:38Z</time>
      </trkpt>
      <trkpt lat="59.916036" lon="17.570685">
        <ele>24.651</ele>
        <time>2014-07-12T12:23:39Z</time>
      </trkpt>
      <trkpt lat="59.9160005" lon="17.5707934">
        <ele>24.651</ele>
        <time>2014-07-12T12:23:40Z</time>
      </trkpt>
      <trkpt lat="59.9159653" lon="17.5709035">
        <ele>24.651</ele>
        <time>2014-07-12T12:23:41Z</time>
      </trkpt>
      <trkpt lat="59.9159314" lon="17.5710207">
        <ele>24.1703</ele>
        <time>2014-07-12T12:23:42Z</time>
      </trkpt>
      <trkpt lat="59.9159001" lon="17.5711449">
        <ele>24.1703</ele>
        <time>2014-07-12T12:23:43Z</time>
      </trkpt>
      <trkpt lat="59.915873" lon="17.5712772">
        <ele>23.6896</ele>
        <time>2014-07-12T12:23:44Z</time>
      </trkpt>
      <trkpt lat="59.9158513" lon="17.5714182">
        <ele>23.6896</ele>
        <time>2014-07-12T12:23:45Z</time>
      </trkpt>
      <trkpt lat="59.9158357" lon="17.5715647">
        <ele>23.209</ele>
        <time>2014-07-12T12:23:46Z</time>
      </trkpt>
      <trkpt lat="59.9158241" lon="17.5717147">
        <ele>23.209</ele>
        <time>2014-07-12T12:23:47Z</time>
      </trkpt>
      <trkpt lat="59.915814" lon="17.5718659">
        <ele>23.209</ele>
        <time>2014-07-12T12:23:48Z</time>
      </trkpt>
      <trkpt lat="59.9158031" lon="17.5720178">
        <ele>23.209</ele>
        <time>2014-07-12T12:23:49Z</time>
      </trkpt>
      <trkpt lat="59.9157885" lon="17.5721682">
        <ele>23.209</ele>
        <time>2014-07-12T12:23:50Z</time>
      </trkpt>
      <trkpt lat="59.9157697" lon="17.5723173">
        <ele>23.209</ele>
        <time>2014-07-12T12:23:51Z</time>
      </trkpt>
      <trkpt lat="59.9157469" lon="17.5724635">
        <ele>23.209</ele>
        <time>2014-07-12T12:23:52Z</time>
      </trkpt>
      <trkpt lat="59.9157188" lon="17.5726051">
        <ele>23.209</ele>
        <time>2014-07-12T12:23:53Z</time>
      </trkpt>
      <trkpt lat="59.9156861" lon="17.5727414">
        <ele>23.6896</ele>
        <time>2014-07-12T12:23:54Z</time>
      </trkpt>
      <trkpt lat="59.9156504" lon="17.572874">
        <ele>23.209</ele>
        <time>2014-07-12T12:23:55Z</time>
      </trkpt>
      <trkpt lat="59.9156118" lon="17.5730047">
        <ele>23.209</ele>
        <time>2014-07-12T12:23:56Z</time>
      </trkpt>
      <trkpt lat="59.9155706" lon="17.5731357">
        <ele>23.209</ele>
        <time>2014-07-12T12:23:57Z</time>
      </trkpt>
      <trkpt lat="59.915527" lon="17.5732643">
        <ele>23.209</ele>
        <time>2014-07-12T12:23:58Z</time>
      </trkpt>
      <trkpt lat="59.9154788" lon="17.5733873">
        <ele>23.209</ele>
        <time>2014-07-12T12:23:59Z</time>
      </trkpt>
      <trkpt lat="59.9154238" lon="17.5735008">
        <ele>22.7283</ele>
        <time>2014-07-12T12:24:00Z</time>
      </trkpt>
      <trkpt lat="59.9153612" lon="17.5736015">
        <ele>23.209</ele>
        <time>2014-07-12T12:24:01Z</time>
      </trkpt>
      <trkpt lat="59.91529" lon="17.5736715">
        <ele>22.7283</ele>
        <time>2014-07-12T12:24:02Z</time>
      </trkpt>
      <trkpt lat="59.9152121" lon="17.5737087">
        <ele>22.2476</ele>
        <time>2014-07-12T12:24:03Z</time>
      </trkpt>
      <trkpt lat="59.9151308" lon="17.5737196">
        <ele>21.767</ele>
        <time>2014-07-12T12:24:04Z</time>
      </trkpt>
      <trkpt lat="59.9150489" lon="17.5737153">
        <ele>21.2864</ele>
        <time>2014-07-12T12:24:05Z</time>
      </trkpt>
      <trkpt lat="59.9149669" lon="17.5737041">
        <ele>20.8057</ele>
        <time>2014-07-12T12:24:06Z</time>
      </trkpt>
      <trkpt lat="59.9148847" lon="17.5736922">
        <ele>20.8057</ele>
        <time>2014-07-12T12:24:07Z</time>
      </trkpt>
      <trkpt lat="59.9148049" lon="17.5736797">
        <ele>20.325</ele>
        <time>2014-07-12T12:24:08Z</time>
      </trkpt>
      <trkpt lat="59.9147273" lon="17.5736642">
        <ele>20.325</ele>
        <time>2014-07-12T12:24:09Z</time>
      </trkpt>
      <trkpt lat="59.914651" lon="17.5736505">
        <ele>19.8444</ele>
        <time>2014-07-12T12:24:10Z</time>
      </trkpt>
      <trkpt lat="59.9145757" lon="17.5736404">
        <ele>19.8444</ele>
        <time>2014-07-12T12:24:11Z</time>
      </trkpt>
      <trkpt lat="59.914502" lon="17.5736296">
        <ele>19.8444</ele>
        <time>2014-07-12T12:24:12Z</time>
      </trkpt>
      <trkpt lat="59.9144303" lon="17.573616">
        <ele>19.3638</ele>
        <time>2014-07-12T12:24:13Z</time>
      </trkpt>
      <trkpt lat="59.9143599" lon="17.5736041">
        <ele>19.3638</ele>
        <time>2014-07-12T12:24:14Z</time>
      </trkpt>
      <trkpt lat="59.914291" lon="17.5735977">
        <ele>19.3638</ele>
        <time>2014-07-12T12:24:15Z</time>
      </trkpt>
      <trkpt lat="59.9142235" lon="17.5735925">
        <ele>19.3638</ele>
        <time>2014-07-12T12:24:16Z</time>
      </trkpt>
      <trkpt lat="59.9141579" lon="17.5735837">
        <ele>19.3638</ele>
        <time>2014-07-12T12:24:17Z</time>
      </trkpt>
      <trkpt lat="59.9140942" lon="17.5735747">
        <ele>19.3638</ele>
        <time>2014-07-12T12:24:18Z</time>
      </trkpt>
      <trkpt lat="59.9140315" lon="17.5735709">
        <ele>19.3638</ele>
        <time>2014-07-12T12:24:19Z</time>
      </trkpt>
      <trkpt lat="59.9139702" lon="17.5735695">
        <ele>19.3638</ele>
        <time>2014-07-12T12:24:20Z</time>
      </trkpt>
      <trkpt lat="59.9139102" lon="17.5735679">
        <ele>19.3638</ele>
        <time>2014-07-12T12:24:21Z</time>
      </trkpt>
      <trkpt lat="59.9138516" lon="17.5735651">
        <ele>19.3638</ele>
        <time>2014-07-12T12:24:22Z</time>
      </trkpt>
      <trkpt lat="59.9137958" lon="17.5735616">
        <ele>18.8831</ele>
        <time>2014-07-12T12:24:23Z</time>
      </trkpt>
      <trkpt lat="59.9137415" lon="17.5735606">
        <ele>18.8831</ele>
        <time>2014-07-12T12:24:24Z</time>
      </trkpt>
      <trkpt lat="59.9136897" lon="17.5735515">
        <ele>18.8831</ele>
        <time>2014-07-12T12:24:25Z</time>
      </trkpt>
      <trkpt lat="59.9136415" lon="17.5735392">
        <ele>18.8831</ele>
        <time>2014-07-12T12:24:26Z</time>
      </trkpt>
      <trkpt lat="59.9136005" lon="17.5735527">
        <ele>18.8831</ele>
        <time>2014-07-12T12:24:27Z</time>
      </trkpt>
      <trkpt lat="59.913569" lon="17.5735951">
        <ele>18.4023</ele>
        <time>2014-07-12T12:24:28Z</time>
      </trkpt>
      <trkpt lat="59.913544" lon="17.5736434">
        <ele>18.4023</ele>
        <time>2014-07-12T12:24:29Z</time>
      </trkpt>
      <trkpt lat="59.9135193" lon="17.5736871">
        <ele>18.4023</ele>
        <time>2014-07-12T12:24:30Z</time>
      </trkpt>
      <trkpt lat="59.9134979" lon="17.5737242">
        <ele>18.4023</ele>
        <time>2014-07-12T12:24:31Z</time>
      </trkpt>
      <trkpt lat="59.9134824" lon="17.573765">
        <ele>18.4023</ele>
        <time>2014-07-12T12:24:32Z</time>
      </trkpt>
      <trkpt lat="59.9134684" lon="17.5737999">
        <ele>17.9218</ele>
        <time>2014-07-12T12:24:33Z</time>
      </trkpt>
      <trkpt lat="59.9134534" lon="17.5738247">
        <ele>17.4412</ele>
        <time>2014-07-12T12:24:34Z</time>
      </trkpt>
      <trkpt lat="59.9134403" lon="17.5738513">
        <ele>17.4412</ele>
        <time>2014-07-12T12:24:35Z</time>
      </trkpt>
      <trkpt lat="59.9134285" lon="17.5738775">
        <ele>17.4412</ele>
        <time>2014-07-12T12:24:36Z</time>
      </trkpt>
      <trkpt lat="59.9134178" lon="17.5739065">
        <ele>17.4412</ele>
        <time>2014-07-12T12:24:37Z</time>
      </trkpt>
      <trkpt lat="59.9134063" lon="17.5739232">
        <ele>17.4412</ele>
        <time>2014-07-12T12:24:38Z</time>
      </trkpt>
      <trkpt lat="59.9133928" lon="17.5739263">
        <ele>17.4412</ele>
        <time>2014-07-12T12:24:39Z</time>
      </trkpt>
      <trkpt lat="59.9133829" lon="17.5739295">
        <ele>17.9218</ele>
        <time>2014-07-12T12:24:40Z</time>
      </trkpt>
      <trkpt lat="59.9133776" lon="17.5739364">
        <ele>18.4023</ele>
        <time>2014-07-12T12:24:41Z</time>
      </trkpt>
      <trkpt lat="59.9133713" lon="17.573938">
        <ele>18.4023</ele>
        <time>2014-07-12T12:24:42Z</time>
      </trkpt>
      <trkpt lat="59.9133689" lon="17.5739413">
        <ele>18.4023</ele>
        <time>2014-07-12T12:24:43Z</time>
      </trkpt>
      <trkpt lat="59.9133721" lon="17.5739459">
        <ele>18.4023</ele>
        <time>2014-07-12T12:24:44Z</time>
      </trkpt>
      <trkpt lat="59.9137185" lon="17.5736103">
        <ele>21.2864</ele>
        <time>2014-07-12T12:55:11Z</time>
      </trkpt>
      <trkpt lat="59.9137492" lon="17.5736154">
        <ele>21.2864</ele>
        <time>2014-07-12T12:55:12Z</time>
      </trkpt>
      <trkpt lat="59.9137803" lon="17.5736211">
        <ele>21.2864</ele>
        <time>2014-07-12T12:55:13Z</time>
      </trkpt>
      <trkpt lat="59.9138139" lon="17.573645">
        <ele>21.2864</ele>
        <time>2014-07-12T12:55:14Z</time>
      </trkpt>
      <trkpt lat="59.9138448" lon="17.5736943">
        <ele>21.2864</ele>
        <time>2014-07-12T12:55:15Z</time>
      </trkpt>
      <trkpt lat="59.9138684" lon="17.5737682">
        <ele>21.2864</ele>
        <time>2014-07-12T12:55:16Z</time>
      </trkpt>
      <trkpt lat="59.9138847" lon="17.5738631">
        <ele>21.2864</ele>
        <time>2014-07-12T12:55:17Z</time>
      </trkpt>
      <trkpt lat="59.913891" lon="17.5739781">
        <ele>20.8057</ele>
        <time>2014-07-12T12:55:18Z</time>
      </trkpt>
      <trkpt lat="59.9138875" lon="17.5741091">
        <ele>20.8057</ele>
        <time>2014-07-12T12:55:19Z</time>
      </trkpt>
      <trkpt lat="59.9138698" lon="17.5742474">
        <ele>20.325</ele>
        <time>2014-07-12T12:55:20Z</time>
      </trkpt>
      <trkpt lat="59.9138203" lon="17.5744085">
        <ele>19.8444</ele>
        <time>2014-07-12T12:55:21Z</time>
      </trkpt>
      <trkpt lat="59.9137692" lon="17.5745276">
        <ele>19.8444</ele>
        <time>2014-07-12T12:55:22Z</time>
      </trkpt>
      <trkpt lat="59.9137181" lon="17.5746591">
        <ele>18.8831</ele>
        <time>2014-07-12T12:55:23Z</time>
      </trkpt>
      <trkpt lat="59.9136698" lon="17.574768">
        <ele>18.8831</ele>
        <time>2014-07-12T12:55:24Z</time>
      </trkpt>
      <trkpt lat="59.9136208" lon="17.5748737">
        <ele>17.9218</ele>
        <time>2014-07-12T12:55:25Z</time>
      </trkpt>
      <trkpt lat="59.9135692" lon="17.5749877">
        <ele>16.9604</ele>
        <time>2014-07-12T12:55:26Z</time>
      </trkpt>
      <trkpt lat="59.9135167" lon="17.5751009">
        <ele>16.4797</ele>
        <time>2014-07-12T12:55:27Z</time>
      </trkpt>
      <trkpt lat="59.9134658" lon="17.5752154">
        <ele>16.4797</ele>
        <time>2014-07-12T12:55:28Z</time>
      </trkpt>
      <trkpt lat="59.9134177" lon="17.5753306">
        <ele>15.999</ele>
        <time>2014-07-12T12:55:29Z</time>
      </trkpt>
      <trkpt lat="59.9133741" lon="17.5754496">
        <ele>15.999</ele>
        <time>2014-07-12T12:55:30Z</time>
      </trkpt>
      <trkpt lat="59.9133368" lon="17.5755747">
        <ele>15.5184</ele>
        <time>2014-07-12T12:55:31Z</time>
      </trkpt>
      <trkpt lat="59.9133169" lon="17.5757054">
        <ele>15.999</ele>
        <time>2014-07-12T12:55:32Z</time>
      </trkpt>
      <trkpt lat="59.9133172" lon="17.5758355">
        <ele>15.999</ele>
        <time>2014-07-12T12:55:33Z</time>
      </trkpt>
      <trkpt lat="59.9133305" lon="17.5759578">
        <ele>16.4797</ele>
        <time>2014-07-12T12:55:34Z</time>
      </trkpt>
      <trkpt lat="59.9133449" lon="17.5760744">
        <ele>16.4797</ele>
        <time>2014-07-12T12:55:35Z</time>
      </trkpt>
      <trkpt lat="59.9133625" lon="17.5761882">
        <ele>16.4797</ele>
        <time>2014-07-12T12:55:36Z</time>
      </trkpt>
      <trkpt lat="59.9133923" lon="17.5762955">
        <ele>16.4797</ele>
        <time>2014-07-12T12:55:37Z</time>
      </trkpt>
      <trkpt lat="59.9134312" lon="17.5763988">
        <ele>16.4797</ele>
        <time>2014-07-12T12:55:38Z</time>
      </trkpt>
      <trkpt lat="59.9134757" lon="17.5764995">
        <ele>16.4797</ele>
        <time>2014-07-12T12:55:39Z</time>
      </trkpt>
      <trkpt lat="59.9135223" lon="17.5766031">
        <ele>16.4797</ele>
        <time>2014-07-12T12:55:40Z</time>
      </trkpt>
      <trkpt lat="59.9135663" lon="17.5767164">
        <ele>16.4797</ele>
        <time>2014-07-12T12:55:41Z</time>
      </trkpt>
      <trkpt lat="59.9136036" lon="17.5768379">
        <ele>16.4797</ele>
        <time>2014-07-12T12:55:42Z</time>
      </trkpt>
      <trkpt lat="59.9136342" lon="17.5769673">
        <ele>16.4797</ele>
        <time>2014-07-12T12:55:43Z</time>
      </trkpt>
      <trkpt lat="59.9136588" lon="17.5771016">
        <ele>16.9604</ele>
        <time>2014-07-12T12:55:44Z</time>
      </trkpt>
      <trkpt lat="59.9136759" lon="17.577237">
        <ele>16.9604</ele>
        <time>2014-07-12T12:55:45Z</time>
      </trkpt>
      <trkpt lat="59.9136813" lon="17.5773903">
        <ele>16.9604</ele>
        <time>2014-07-12T12:55:46Z</time>
      </trkpt>
      <trkpt lat="59.9136871" lon="17.5775321">
        <ele>17.4412</ele>
        <time>2014-07-12T12:55:47Z</time>
      </trkpt>
      <trkpt lat="59.9136837" lon="17.5776685">
        <ele>17.9218</ele>
        <time>2014-07-12T12:55:48Z</time>
      </trkpt>
      <trkpt lat="59.9136694" lon="17.5778066">
        <ele>18.4023</ele>
        <time>2014-07-12T12:55:49Z</time>
      </trkpt>
      <trkpt lat="59.9136539" lon="17.5779256">
        <ele>18.4023</ele>
        <time>2014-07-12T12:55:50Z</time>
      </trkpt>
      <trkpt lat="59.9136274" lon="17.5780344">
        <ele>18.8831</ele>
        <time>2014-07-12T12:55:51Z</time>
      </trkpt>
      <trkpt lat="59.9136051" lon="17.5781345">
        <ele>19.3638</ele>
        <time>2014-07-12T12:55:52Z</time>
      </trkpt>
      <trkpt lat="59.9135815" lon="17.5782263">
        <ele>19.8444</ele>
        <time>2014-07-12T12:55:53Z</time>
      </trkpt>
      <trkpt lat="59.913557" lon="17.5783133">
        <ele>19.8444</ele>
        <time>2014-07-12T12:55:54Z</time>
      </trkpt>
      <trkpt lat="59.9135306" lon="17.5783951">
        <ele>20.325</ele>
        <time>2014-07-12T12:55:55Z</time>
      </trkpt>
      <trkpt lat="59.9135025" lon="17.5784732">
        <ele>20.8057</ele>
        <time>2014-07-12T12:55:56Z</time>
      </trkpt>
      <trkpt lat="59.9134735" lon="17.5785432">
        <ele>20.8057</ele>
        <time>2014-07-12T12:55:57Z</time>
      </trkpt>
      <trkpt lat="59.9134437" lon="17.5786116">
        <ele>21.2864</ele>
        <time>2014-07-12T12:55:58Z</time>
      </trkpt>
      <trkpt lat="59.913414" lon="17.5786764">
        <ele>21.767</ele>
        <time>2014-07-12T12:55:59Z</time>
      </trkpt>
      <trkpt lat="59.9133828" lon="17.5787353">
        <ele>21.767</ele>
        <time>2014-07-12T12:56:00Z</time>
      </trkpt>
      <trkpt lat="59.9133497" lon="17.5787893">
        <ele>22.2476</ele>
        <time>2014-07-12T12:56:01Z</time>
      </trkpt>
      <trkpt lat="59.9133159" lon="17.5788417">
        <ele>22.2476</ele>
        <time>2014-07-12T12:56:02Z</time>
      </trkpt>
      <trkpt lat="59.9132817" lon="17.5788919">
        <ele>22.7283</ele>
        <time>2014-07-12T12:56:03Z</time>
      </trkpt>
      <trkpt lat="59.9132477" lon="17.5789422">
        <ele>22.7283</ele>
        <time>2014-07-12T12:56:04Z</time>
      </trkpt>
      <trkpt lat="59.9132147" lon="17.5789955">
        <ele>23.209</ele>
        <time>2014-07-12T12:56:05Z</time>
      </trkpt>
      <trkpt lat="59.9131819" lon="17.5790458">
        <ele>23.209</ele>
        <time>2014-07-12T12:56:06Z</time>
      </trkpt>
      <trkpt lat="59.9131477" lon="17.5790934">
        <ele>23.209</ele>
        <time>2014-07-12T12:56:07Z</time>
      </trkpt>
      <trkpt lat="59.9131141" lon="17.5791414">
        <ele>23.209</ele>
        <time>2014-07-12T12:56:08Z</time>
      </trkpt>
      <trkpt lat="59.9130825" lon="17.5791893">
        <ele>23.209</ele>
        <time>2014-07-12T12:56:09Z</time>
      </trkpt>
      <trkpt lat="59.9130507" lon="17.5792369">
        <ele>23.209</ele>
        <time>2014-07-12T12:56:10Z</time>
      </trkpt>
      <trkpt lat="59.9130193" lon="17.5792835">
        <ele>23.209</ele>
        <time>2014-07-12T12:56:11Z</time>
      </trkpt>
      <trkpt lat="59.9129875" lon="17.5793322">
        <ele>23.209</ele>
        <time>2014-07-12T12:56:12Z</time>
      </trkpt>
      <trkpt lat="59.9129545" lon="17.5793839">
        <ele>23.209</ele>
        <time>2014-07-12T12:56:13Z</time>
      </trkpt>
      <trkpt lat="59.9129218" lon="17.5794357">
        <ele>23.209</ele>
        <time>2014-07-12T12:56:14Z</time>
      </trkpt>
      <trkpt lat="59.9128893" lon="17.5794954">
        <ele>23.209</ele>
        <time>2014-07-12T12:56:15Z</time>
      </trkpt>
      <trkpt lat="59.9128561" lon="17.5795642">
        <ele>23.209</ele>
        <time>2014-07-12T12:56:16Z</time>
      </trkpt>
      <trkpt lat="59.9128224" lon="17.5796363">
        <ele>23.209</ele>
        <time>2014-07-12T12:56:17Z</time>
      </trkpt>
      <trkpt lat="59.9127881" lon="17.579712">
        <ele>23.209</ele>
        <time>2014-07-12T12:56:18Z</time>
      </trkpt>
      <trkpt lat="59.9127547" lon="17.579792">
        <ele>23.209</ele>
        <time>2014-07-12T12:56:19Z</time>
      </trkpt>
      <trkpt lat="59.912722" lon="17.5798752">
        <ele>23.209</ele>
        <time>2014-07-12T12:56:20Z</time>
      </trkpt>
      <trkpt lat="59.9126883" lon="17.57996">
        <ele>23.209</ele>
        <time>2014-07-12T12:56:21Z</time>
      </trkpt>
      <trkpt lat="59.9126545" lon="17.5800476">
        <ele>23.209</ele>
        <time>2014-07-12T12:56:22Z</time>
      </trkpt>
      <trkpt lat="59.9126205" lon="17.5801398">
        <ele>23.209</ele>
        <time>2014-07-12T12:56:23Z</time>
      </trkpt>
      <trkpt lat="59.9125862" lon="17.5802339">
        <ele>23.209</ele>
        <time>2014-07-12T12:56:24Z</time>
      </trkpt>
      <trkpt lat="59.9125513" lon="17.5803294">
        <ele>23.209</ele>
        <time>2014-07-12T12:56:25Z</time>
      </trkpt>
      <trkpt lat="59.9125149" lon="17.5804268">
        <ele>22.7283</ele>
        <time>2014-07-12T12:56:26Z</time>
      </trkpt>
      <trkpt lat="59.9124776" lon="17.5805253">
        <ele>23.209</ele>
        <time>2014-07-12T12:56:27Z</time>
      </trkpt>
      <trkpt lat="59.9124407" lon="17.5806246">
        <ele>23.209</ele>
        <time>2014-07-12T12:56:28Z</time>
      </trkpt>
      <trkpt lat="59.9124047" lon="17.5807231">
        <ele>23.209</ele>
        <time>2014-07-12T12:56:29Z</time>
      </trkpt>
      <trkpt lat="59.9123688" lon="17.5808213">
        <ele>23.209</ele>
        <time>2014-07-12T12:56:30Z</time>
      </trkpt>
      <trkpt lat="59.9123332" lon="17.5809182">
        <ele>23.209</ele>
        <time>2014-07-12T12:56:31Z</time>
      </trkpt>
      <trkpt lat="59.9122978" lon="17.5810146">
        <ele>23.209</ele>
        <time>2014-07-12T12:56:32Z</time>
      </trkpt>
      <trkpt lat="59.9122633" lon="17.5811109">
        <ele>23.209</ele>
        <time>2014-07-12T12:56:33Z</time>
      </trkpt>
      <trkpt lat="59.9122292" lon="17.5812062">
        <ele>23.209</ele>
        <time>2014-07-12T12:56:34Z</time>
      </trkpt>
      <trkpt lat="59.9121958" lon="17.5812997">
        <ele>23.209</ele>
        <time>2014-07-12T12:56:35Z</time>
      </trkpt>
      <trkpt lat="59.9121637" lon="17.5813922">
        <ele>23.209</ele>
        <time>2014-07-12T12:56:36Z</time>
      </trkpt>
      <trkpt lat="59.9121324" lon="17.581485">
        <ele>23.6896</ele>
        <time>2014-07-12T12:56:37Z</time>
      </trkpt>
      <trkpt lat="59.9120993" lon="17.5815799">
        <ele>23.6896</ele>
        <time>2014-07-12T12:56:38Z</time>
      </trkpt>
      <trkpt lat="59.9120645" lon="17.5816745">
        <ele>23.6896</ele>
        <time>2014-07-12T12:56:39Z</time>
      </trkpt>
      <trkpt lat="59.9120309" lon="17.5817709">
        <ele>24.1703</ele>
        <time>2014-07-12T12:56:40Z</time>
      </trkpt>
      <trkpt lat="59.9119983" lon="17.5818695">
        <ele>24.1703</ele>
        <time>2014-07-12T12:56:41Z</time>
      </trkpt>
      <trkpt lat="59.9119637" lon="17.5819664">
        <ele>24.1703</ele>
        <time>2014-07-12T12:56:42Z</time>
      </trkpt>
      <trkpt lat="59.9119283" lon="17.5820609">
        <ele>24.1703</ele>
        <time>2014-07-12T12:56:43Z</time>
      </trkpt>
      <trkpt lat="59.9118947" lon="17.5821565">
        <ele>24.651</ele>
        <time>2014-07-12T12:56:44Z</time>
      </trkpt>
      <trkpt lat="59.9118625" lon="17.5822527">
        <ele>24.651</ele>
        <time>2014-07-12T12:56:45Z</time>
      </trkpt>
      <trkpt lat="59.9118305" lon="17.582348">
        <ele>24.651</ele>
        <time>2014-07-12T12:56:46Z</time>
      </trkpt>
      <trkpt lat="59.9117995" lon="17.5824424">
        <ele>25.1317</ele>
        <time>2014-07-12T12:56:47Z</time>
      </trkpt>
      <trkpt lat="59.9117697" lon="17.5825376">
        <ele>25.1317</ele>
        <time>2014-07-12T12:56:48Z</time>
      </trkpt>
      <trkpt lat="59.9117402" lon="17.5826338">
        <ele>25.1317</ele>
        <time>2014-07-12T12:56:49Z</time>
      </trkpt>
      <trkpt lat="59.9117104" lon="17.5827302">
        <ele>25.6123</ele>
        <time>2014-07-12T12:56:50Z</time>
      </trkpt>
      <trkpt lat="59.9116812" lon="17.5828268">
        <ele>25.6123</ele>
        <time>2014-07-12T12:56:51Z</time>
      </trkpt>
      <trkpt lat="59.9116523" lon="17.5829241">
        <ele>25.6123</ele>
        <time>2014-07-12T12:56:52Z</time>
      </trkpt>
      <trkpt lat="59.9116232" lon="17.5830213">
        <ele>25.6123</ele>
        <time>2014-07-12T12:56:53Z</time>
      </trkpt>
      <trkpt lat="59.9115933" lon="17.5831182">
        <ele>26.0929</ele>
        <time>2014-07-12T12:56:54Z</time>
      </trkpt>
      <trkpt lat="59.9115642" lon="17.5832151">
        <ele>26.0929</ele>
        <time>2014-07-12T12:56:55Z</time>
      </trkpt>
      <trkpt lat="59.9115355" lon="17.5833105">
        <ele>26.0929</ele>
        <time>2014-07-12T12:56:56Z</time>
      </trkpt>
      <trkpt lat="59.9115072" lon="17.5834049">
        <ele>26.0929</ele>
        <time>2014-07-12T12:56:57Z</time>
      </trkpt>
      <trkpt lat="59.9114792" lon="17.5834992">
        <ele>26.5736</ele>
        <time>2014-07-12T12:56:58Z</time>
      </trkpt>
      <trkpt lat="59.9114502" lon="17.5835933">
        <ele>26.5736</ele>
        <time>2014-07-12T12:56:59Z</time>
      </trkpt>
      <trkpt lat="59.9114214" lon="17.5836877">
        <ele>26.5736</ele>
        <time>2014-07-12T12:57:00Z</time>
      </trkpt>
      <trkpt lat="59.9113928" lon="17.5837836">
        <ele>26.5736</ele>
        <time>2014-07-12T12:57:01Z</time>
      </trkpt>
      <trkpt lat="59.9113631" lon="17.5838814">
        <ele>26.5736</ele>
        <time>2014-07-12T12:57:02Z</time>
      </trkpt>
      <trkpt lat="59.9113327" lon="17.5839813">
        <ele>26.5736</ele>
        <time>2014-07-12T12:57:03Z</time>
      </trkpt>
      <trkpt lat="59.9113017" lon="17.5840832">
        <ele>26.5736</ele>
        <time>2014-07-12T12:57:04Z</time>
      </trkpt>
      <trkpt lat="59.91127" lon="17.5841863">
        <ele>26.5736</ele>
        <time>2014-07-12T12:57:05Z</time>
      </trkpt>
      <trkpt lat="59.9112383" lon="17.5842905">
        <ele>27.0543</ele>
        <time>2014-07-12T12:57:06Z</time>
      </trkpt>
      <trkpt lat="59.9112068" lon="17.5843954">
        <ele>27.0543</ele>
        <time>2014-07-12T12:57:07Z</time>
      </trkpt>
      <trkpt lat="59.9111752" lon="17.5844999">
        <ele>27.0543</ele>
        <time>2014-07-12T12:57:08Z</time>
      </trkpt>
      <trkpt lat="59.9111439" lon="17.584606">
        <ele>27.0543</ele>
        <time>2014-07-12T12:57:09Z</time>
      </trkpt>
      <trkpt lat="59.9111125" lon="17.5847148">
        <ele>27.0543</ele>
        <time>2014-07-12T12:57:10Z</time>
      </trkpt>
      <trkpt lat="59.9110818" lon="17.5848268">
        <ele>27.0543</ele>
        <time>2014-07-12T12:57:11Z</time>
      </trkpt>
      <trkpt lat="59.9110518" lon="17.5849424">
        <ele>27.0543</ele>
        <time>2014-07-12T12:57:12Z</time>
      </trkpt>
      <trkpt lat="59.9110229" lon="17.585063">
        <ele>27.0543</ele>
        <time>2014-07-12T12:57:13Z</time>
      </trkpt>
      <trkpt lat="59.9109958" lon="17.5851878">
        <ele>27.0543</ele>
        <time>2014-07-12T12:57:14Z</time>
      </trkpt>
      <trkpt lat="59.9109704" lon="17.5853156">
        <ele>27.0543</ele>
        <time>2014-07-12T12:57:15Z</time>
      </trkpt>
      <trkpt lat="59.9109461" lon="17.5854454">
        <ele>27.0543</ele>
        <time>2014-07-12T12:57:16Z</time>
      </trkpt>
      <trkpt lat="59.9109229" lon="17.5855766">
        <ele>27.0543</ele>
        <time>2014-07-12T12:57:17Z</time>
      </trkpt>
      <trkpt lat="59.9109006" lon="17.5857079">
        <ele>27.0543</ele>
        <time>2014-07-12T12:57:18Z</time>
      </trkpt>
      <trkpt lat="59.9108782" lon="17.5858389">
        <ele>27.0543</ele>
        <time>2014-07-12T12:57:19Z</time>
      </trkpt>
      <trkpt lat="59.9108545" lon="17.585969">
        <ele>27.0543</ele>
        <time>2014-07-12T12:57:20Z</time>
      </trkpt>
      <trkpt lat="59.9108289" lon="17.5860985">
        <ele>27.0543</ele>
        <time>2014-07-12T12:57:21Z</time>
      </trkpt>
      <trkpt lat="59.9108036" lon="17.5862291">
        <ele>27.0543</ele>
        <time>2014-07-12T12:57:22Z</time>
      </trkpt>
      <trkpt lat="59.9107779" lon="17.5863612">
        <ele>27.0543</ele>
        <time>2014-07-12T12:57:23Z</time>
      </trkpt>
      <trkpt lat="59.9107509" lon="17.5864942">
        <ele>27.0543</ele>
        <time>2014-07-12T12:57:24Z</time>
      </trkpt>
      <trkpt lat="59.910723" lon="17.5866285">
        <ele>27.0543</ele>
        <time>2014-07-12T12:57:25Z</time>
      </trkpt>
      <trkpt lat="59.9106941" lon="17.5867641">
        <ele>27.0543</ele>
        <time>2014-07-12T12:57:26Z</time>
      </trkpt>
      <trkpt lat="59.9106632" lon="17.5868989">
        <ele>26.5736</ele>
        <time>2014-07-12T12:57:27Z</time>
      </trkpt>
      <trkpt lat="59.9106308" lon="17.5870333">
        <ele>26.5736</ele>
        <time>2014-07-12T12:57:28Z</time>
      </trkpt>
      <trkpt lat="59.9105974" lon="17.5871683">
        <ele>26.5736</ele>
        <time>2014-07-12T12:57:29Z</time>
      </trkpt>
      <trkpt lat="59.9105619" lon="17.5873027">
        <ele>26.5736</ele>
        <time>2014-07-12T12:57:30Z</time>
      </trkpt>
      <trkpt lat="59.9105244" lon="17.5874349">
        <ele>26.5736</ele>
        <time>2014-07-12T12:57:31Z</time>
      </trkpt>
      <trkpt lat="59.910485" lon="17.5875644">
        <ele>26.5736</ele>
        <time>2014-07-12T12:57:32Z</time>
      </trkpt>
      <trkpt lat="59.9104437" lon="17.5876918">
        <ele>26.5736</ele>
        <time>2014-07-12T12:57:33Z</time>
      </trkpt>
      <trkpt lat="59.9104002" lon="17.5878173">
        <ele>26.5736</ele>
        <time>2014-07-12T12:57:34Z</time>
      </trkpt>
      <trkpt lat="59.9103561" lon="17.5879403">
        <ele>26.5736</ele>
        <time>2014-07-12T12:57:35Z</time>
      </trkpt>
      <trkpt lat="59.9103118" lon="17.5880633">
        <ele>27.0543</ele>
        <time>2014-07-12T12:57:36Z</time>
      </trkpt>
      <trkpt lat="59.9102676" lon="17.5881864">
        <ele>27.0543</ele>
        <time>2014-07-12T12:57:37Z</time>
      </trkpt>
      <trkpt lat="59.9102229" lon="17.5883093">
        <ele>27.0543</ele>
        <time>2014-07-12T12:57:38Z</time>
      </trkpt>
      <trkpt lat="59.9101783" lon="17.5884331">
        <ele>27.0543</ele>
        <time>2014-07-12T12:57:39Z</time>
      </trkpt>
      <trkpt lat="59.9101345" lon="17.5885575">
        <ele>27.0543</ele>
        <time>2014-07-12T12:57:40Z</time>
      </trkpt>
      <trkpt lat="59.910091" lon="17.5886811">
        <ele>27.5349</ele>
        <time>2014-07-12T12:57:41Z</time>
      </trkpt>
      <trkpt lat="59.9100474" lon="17.5888019">
        <ele>27.5349</ele>
        <time>2014-07-12T12:57:42Z</time>
      </trkpt>
      <trkpt lat="59.9100048" lon="17.5889193">
        <ele>27.5349</ele>
        <time>2014-07-12T12:57:43Z</time>
      </trkpt>
      <trkpt lat="59.9099628" lon="17.5890345">
        <ele>27.5349</ele>
        <time>2014-07-12T12:57:44Z</time>
      </trkpt>
      <trkpt lat="59.9099211" lon="17.589149">
        <ele>27.5349</ele>
        <time>2014-07-12T12:57:45Z</time>
      </trkpt>
      <trkpt lat="59.9098797" lon="17.5892625">
        <ele>27.5349</ele>
        <time>2014-07-12T12:57:46Z</time>
      </trkpt>
      <trkpt lat="59.9098383" lon="17.5893764">
        <ele>27.5349</ele>
        <time>2014-07-12T12:57:47Z</time>
      </trkpt>
      <trkpt lat="59.9097966" lon="17.589493">
        <ele>27.5349</ele>
        <time>2014-07-12T12:57:48Z</time>
      </trkpt>
      <trkpt lat="59.9097532" lon="17.5896083">
        <ele>27.0543</ele>
        <time>2014-07-12T12:57:49Z</time>
      </trkpt>
      <trkpt lat="59.9097081" lon="17.5897199">
        <ele>27.0543</ele>
        <time>2014-07-12T12:57:50Z</time>
      </trkpt>
      <trkpt lat="59.9096611" lon="17.5898288">
        <ele>27.0543</ele>
        <time>2014-07-12T12:57:51Z</time>
      </trkpt>
      <trkpt lat="59.9096133" lon="17.5899359">
        <ele>27.0543</ele>
        <time>2014-07-12T12:57:52Z</time>
      </trkpt>
      <trkpt lat="59.9095651" lon="17.5900431">
        <ele>26.5736</ele>
        <time>2014-07-12T12:57:53Z</time>
      </trkpt>
      <trkpt lat="59.9095179" lon="17.5901498">
        <ele>26.5736</ele>
        <time>2014-07-12T12:57:54Z</time>
      </trkpt>
      <trkpt lat="59.9094723" lon="17.5902554">
        <ele>26.5736</ele>
        <time>2014-07-12T12:57:55Z</time>
      </trkpt>
      <trkpt lat="59.9094279" lon="17.5903596">
        <ele>26.5736</ele>
        <time>2014-07-12T12:57:56Z</time>
      </trkpt>
      <trkpt lat="59.9093849" lon="17.5904622">
        <ele>26.5736</ele>
        <time>2014-07-12T12:57:57Z</time>
      </trkpt>
      <trkpt lat="59.9093414" lon="17.5905635">
        <ele>26.5736</ele>
        <time>2014-07-12T12:57:58Z</time>
      </trkpt>
      <trkpt lat="59.9092972" lon="17.590665">
        <ele>26.0929</ele>
        <time>2014-07-12T12:57:59Z</time>
      </trkpt>
      <trkpt lat="59.9092529" lon="17.5907678">
        <ele>26.0929</ele>
        <time>2014-07-12T12:58:00Z</time>
      </trkpt>
      <trkpt lat="59.9092091" lon="17.5908736">
        <ele>26.0929</ele>
        <time>2014-07-12T12:58:01Z</time>
      </trkpt>
      <trkpt lat="59.9091648" lon="17.5909767">
        <ele>26.0929</ele>
        <time>2014-07-12T12:58:02Z</time>
      </trkpt>
      <trkpt lat="59.9091166" lon="17.5910953">
        <ele>25.6123</ele>
        <time>2014-07-12T12:58:03Z</time>
      </trkpt>
      <trkpt lat="59.9090648" lon="17.5912251">
        <ele>25.6123</ele>
        <time>2014-07-12T12:58:04Z</time>
      </trkpt>
      <trkpt lat="59.9090192" lon="17.5913429">
        <ele>25.6123</ele>
        <time>2014-07-12T12:58:05Z</time>
      </trkpt>
      <trkpt lat="59.9089726" lon="17.591467">
        <ele>25.6123</ele>
        <time>2014-07-12T12:58:06Z</time>
      </trkpt>
      <trkpt lat="59.9089263" lon="17.5915897">
        <ele>25.6123</ele>
        <time>2014-07-12T12:58:07Z</time>
      </trkpt>
      <trkpt lat="59.9088815" lon="17.5917143">
        <ele>25.6123</ele>
        <time>2014-07-12T12:58:08Z</time>
      </trkpt>
      <trkpt lat="59.9088383" lon="17.5918406">
        <ele>25.6123</ele>
        <time>2014-07-12T12:58:09Z</time>
      </trkpt>
      <trkpt lat="59.9087978" lon="17.5919689">
        <ele>25.6123</ele>
        <time>2014-07-12T12:58:10Z</time>
      </trkpt>
      <trkpt lat="59.9087601" lon="17.5920975">
        <ele>25.6123</ele>
        <time>2014-07-12T12:58:11Z</time>
      </trkpt>
      <trkpt lat="59.9087224" lon="17.5922313">
        <ele>25.6123</ele>
        <time>2014-07-12T12:58:12Z</time>
      </trkpt>
      <trkpt lat="59.9086877" lon="17.5923663">
        <ele>25.6123</ele>
        <time>2014-07-12T12:58:13Z</time>
      </trkpt>
      <trkpt lat="59.9086546" lon="17.5925053">
        <ele>25.1317</ele>
        <time>2014-07-12T12:58:14Z</time>
      </trkpt>
      <trkpt lat="59.9086212" lon="17.5926466">
        <ele>25.1317</ele>
        <time>2014-07-12T12:58:15Z</time>
      </trkpt>
      <trkpt lat="59.9085887" lon="17.5927865">
        <ele>25.1317</ele>
        <time>2014-07-12T12:58:16Z</time>
      </trkpt>
      <trkpt lat="59.9085562" lon="17.5929289">
        <ele>24.651</ele>
        <time>2014-07-12T12:58:17Z</time>
      </trkpt>
      <trkpt lat="59.9085238" lon="17.5930707">
        <ele>24.651</ele>
        <time>2014-07-12T12:58:18Z</time>
      </trkpt>
      <trkpt lat="59.9084908" lon="17.5932159">
        <ele>24.651</ele>
        <time>2014-07-12T12:58:19Z</time>
      </trkpt>
      <trkpt lat="59.9084604" lon="17.5933618">
        <ele>24.651</ele>
        <time>2014-07-12T12:58:20Z</time>
      </trkpt>
      <trkpt lat="59.9084285" lon="17.5935065">
        <ele>24.651</ele>
        <time>2014-07-12T12:58:21Z</time>
      </trkpt>
      <trkpt lat="59.908397" lon="17.5936516">
        <ele>24.651</ele>
        <time>2014-07-12T12:58:22Z</time>
      </trkpt>
      <trkpt lat="59.9083649" lon="17.5937974">
        <ele>24.651</ele>
        <time>2014-07-12T12:58:23Z</time>
      </trkpt>
      <trkpt lat="59.9083337" lon="17.5939417">
        <ele>24.1703</ele>
        <time>2014-07-12T12:58:24Z</time>
      </trkpt>
      <trkpt lat="59.9083012" lon="17.5940839">
        <ele>24.1703</ele>
        <time>2014-07-12T12:58:25Z</time>
      </trkpt>
      <trkpt lat="59.9082682" lon="17.594224">
        <ele>24.1703</ele>
        <time>2014-07-12T12:58:26Z</time>
      </trkpt>
      <trkpt lat="59.9082351" lon="17.5943639">
        <ele>24.1703</ele>
        <time>2014-07-12T12:58:27Z</time>
      </trkpt>
      <trkpt lat="59.908204" lon="17.5945071">
        <ele>24.651</ele>
        <time>2014-07-12T12:58:28Z</time>
      </trkpt>
      <trkpt lat="59.9081739" lon="17.5946533">
        <ele>24.651</ele>
        <time>2014-07-12T12:58:29Z</time>
      </trkpt>
      <trkpt lat="59.9081459" lon="17.5947994">
        <ele>24.651</ele>
        <time>2014-07-12T12:58:30Z</time>
      </trkpt>
      <trkpt lat="59.9081189" lon="17.5949452">
        <ele>24.651</ele>
        <time>2014-07-12T12:58:31Z</time>
      </trkpt>
      <trkpt lat="59.9080923" lon="17.59509">
        <ele>24.651</ele>
        <time>2014-07-12T12:58:32Z</time>
      </trkpt>
      <trkpt lat="59.9080669" lon="17.5952346">
        <ele>24.651</ele>
        <time>2014-07-12T12:58:33Z</time>
      </trkpt>
      <trkpt lat="59.9080441" lon="17.5953797">
        <ele>24.651</ele>
        <time>2014-07-12T12:58:34Z</time>
      </trkpt>
      <trkpt lat="59.9080231" lon="17.5955242">
        <ele>24.1703</ele>
        <time>2014-07-12T12:58:35Z</time>
      </trkpt>
      <trkpt lat="59.9080053" lon="17.5956707">
        <ele>24.1703</ele>
        <time>2014-07-12T12:58:36Z</time>
      </trkpt>
      <trkpt lat="59.907991" lon="17.595821">
        <ele>24.1703</ele>
        <time>2014-07-12T12:58:37Z</time>
      </trkpt>
      <trkpt lat="59.9079796" lon="17.5959739">
        <ele>24.1703</ele>
        <time>2014-07-12T12:58:38Z</time>
      </trkpt>
      <trkpt lat="59.9079697" lon="17.5961273">
        <ele>24.1703</ele>
        <time>2014-07-12T12:58:39Z</time>
      </trkpt>
      <trkpt lat="59.9079615" lon="17.5962801">
        <ele>24.1703</ele>
        <time>2014-07-12T12:58:40Z</time>
      </trkpt>
      <trkpt lat="59.9079547" lon="17.5964328">
        <ele>24.1703</ele>
        <time>2014-07-12T12:58:41Z</time>
      </trkpt>
      <trkpt lat="59.9079502" lon="17.5965844">
        <ele>24.651</ele>
        <time>2014-07-12T12:58:42Z</time>
      </trkpt>
      <trkpt lat="59.9079479" lon="17.5967356">
        <ele>24.651</ele>
        <time>2014-07-12T12:58:43Z</time>
      </trkpt>
      <trkpt lat="59.9079478" lon="17.596886">
        <ele>24.651</ele>
        <time>2014-07-12T12:58:44Z</time>
      </trkpt>
      <trkpt lat="59.9079494" lon="17.5970352">
        <ele>24.651</ele>
        <time>2014-07-12T12:58:45Z</time>
      </trkpt>
      <trkpt lat="59.9079532" lon="17.5971832">
        <ele>25.1317</ele>
        <time>2014-07-12T12:58:46Z</time>
      </trkpt>
      <trkpt lat="59.9079599" lon="17.5973295">
        <ele>25.1317</ele>
        <time>2014-07-12T12:58:47Z</time>
      </trkpt>
      <trkpt lat="59.907969" lon="17.5974744">
        <ele>25.1317</ele>
        <time>2014-07-12T12:58:48Z</time>
      </trkpt>
      <trkpt lat="59.9079804" lon="17.5976169">
        <ele>25.1317</ele>
        <time>2014-07-12T12:58:49Z</time>
      </trkpt>
      <trkpt lat="59.907993" lon="17.5977594">
        <ele>25.1317</ele>
        <time>2014-07-12T12:58:50Z</time>
      </trkpt>
      <trkpt lat="59.908006" lon="17.5979018">
        <ele>25.1317</ele>
        <time>2014-07-12T12:58:51Z</time>
      </trkpt>
      <trkpt lat="59.9080205" lon="17.5980422">
        <ele>25.1317</ele>
        <time>2014-07-12T12:58:52Z</time>
      </trkpt>
      <trkpt lat="59.9080371" lon="17.5981808">
        <ele>25.6123</ele>
        <time>2014-07-12T12:58:53Z</time>
      </trkpt>
      <trkpt lat="59.9080557" lon="17.5983188">
        <ele>25.6123</ele>
        <time>2014-07-12T12:58:54Z</time>
      </trkpt>
      <trkpt lat="59.9080765" lon="17.5984567">
        <ele>25.6123</ele>
        <time>2014-07-12T12:58:55Z</time>
      </trkpt>
      <trkpt lat="59.9081001" lon="17.598594">
        <ele>25.6123</ele>
        <time>2014-07-12T12:58:56Z</time>
      </trkpt>
      <trkpt lat="59.9081262" lon="17.5987299">
        <ele>25.6123</ele>
        <time>2014-07-12T12:58:57Z</time>
      </trkpt>
      <trkpt lat="59.908154" lon="17.5988649">
        <ele>25.6123</ele>
        <time>2014-07-12T12:58:58Z</time>
      </trkpt>
      <trkpt lat="59.9081838" lon="17.5989994">
        <ele>25.6123</ele>
        <time>2014-07-12T12:58:59Z</time>
      </trkpt>
      <trkpt lat="59.9082156" lon="17.5991326">
        <ele>25.6123</ele>
        <time>2014-07-12T12:59:00Z</time>
      </trkpt>
      <trkpt lat="59.9082498" lon="17.5992657">
        <ele>26.0929</ele>
        <time>2014-07-12T12:59:01Z</time>
      </trkpt>
      <trkpt lat="59.9082864" lon="17.5993989">
        <ele>25.6123</ele>
        <time>2014-07-12T12:59:02Z</time>
      </trkpt>
      <trkpt lat="59.9083249" lon="17.5995328">
        <ele>25.6123</ele>
        <time>2014-07-12T12:59:03Z</time>
      </trkpt>
      <trkpt lat="59.9083649" lon="17.5996672">
        <ele>25.6123</ele>
        <time>2014-07-12T12:59:04Z</time>
      </trkpt>
      <trkpt lat="59.9084065" lon="17.5998003">
        <ele>25.6123</ele>
        <time>2014-07-12T12:59:05Z</time>
      </trkpt>
      <trkpt lat="59.9084505" lon="17.5999294">
        <ele>25.6123</ele>
        <time>2014-07-12T12:59:06Z</time>
      </trkpt>
      <trkpt lat="59.9084977" lon="17.6000545">
        <ele>25.1317</ele>
        <time>2014-07-12T12:59:07Z</time>
      </trkpt>
      <trkpt lat="59.9085476" lon="17.6001771">
        <ele>25.1317</ele>
        <time>2014-07-12T12:59:08Z</time>
      </trkpt>
      <trkpt lat="59.9085987" lon="17.6002986">
        <ele>25.1317</ele>
        <time>2014-07-12T12:59:09Z</time>
      </trkpt>
      <trkpt lat="59.9086513" lon="17.6004189">
        <ele>24.651</ele>
        <time>2014-07-12T12:59:10Z</time>
      </trkpt>
      <trkpt lat="59.9087058" lon="17.6005373">
        <ele>24.651</ele>
        <time>2014-07-12T12:59:11Z</time>
      </trkpt>
      <trkpt lat="59.9087631" lon="17.6006531">
        <ele>24.651</ele>
        <time>2014-07-12T12:59:12Z</time>
      </trkpt>
      <trkpt lat="59.9088234" lon="17.600767">
        <ele>24.1703</ele>
        <time>2014-07-12T12:59:13Z</time>
      </trkpt>
      <trkpt lat="59.9088866" lon="17.6008794">
        <ele>24.1703</ele>
        <time>2014-07-12T12:59:14Z</time>
      </trkpt>
      <trkpt lat="59.9089528" lon="17.6009886">
        <ele>23.6896</ele>
        <time>2014-07-12T12:59:15Z</time>
      </trkpt>
      <trkpt lat="59.9090207" lon="17.6010938">
        <ele>23.6896</ele>
        <time>2014-07-12T12:59:16Z</time>
      </trkpt>
      <trkpt lat="59.9090887" lon="17.6011974">
        <ele>23.209</ele>
        <time>2014-07-12T12:59:17Z</time>
      </trkpt>
      <trkpt lat="59.9091564" lon="17.6013015">
        <ele>22.7283</ele>
        <time>2014-07-12T12:59:18Z</time>
      </trkpt>
      <trkpt lat="59.9092238" lon="17.6014057">
        <ele>22.7283</ele>
        <time>2014-07-12T12:59:19Z</time>
      </trkpt>
      <trkpt lat="59.9092908" lon="17.6015102">
        <ele>22.2476</ele>
        <time>2014-07-12T12:59:20Z</time>
      </trkpt>
      <trkpt lat="59.9093573" lon="17.6016147">
        <ele>21.767</ele>
        <time>2014-07-12T12:59:21Z</time>
      </trkpt>
      <trkpt lat="59.9094232" lon="17.6017187">
        <ele>21.767</ele>
        <time>2014-07-12T12:59:22Z</time>
      </trkpt>
      <trkpt lat="59.9094885" lon="17.601823">
        <ele>21.2864</ele>
        <time>2014-07-12T12:59:23Z</time>
      </trkpt>
      <trkpt lat="59.9095538" lon="17.6019259">
        <ele>21.2864</ele>
        <time>2014-07-12T12:59:24Z</time>
      </trkpt>
      <trkpt lat="59.9096191" lon="17.6020258">
        <ele>21.2864</ele>
        <time>2014-07-12T12:59:25Z</time>
      </trkpt>
      <trkpt lat="59.9096834" lon="17.6021241">
        <ele>20.8057</ele>
        <time>2014-07-12T12:59:26Z</time>
      </trkpt>
      <trkpt lat="59.9097469" lon="17.6022219">
        <ele>20.8057</ele>
        <time>2014-07-12T12:59:27Z</time>
      </trkpt>
      <trkpt lat="59.9098096" lon="17.6023205">
        <ele>20.8057</ele>
        <time>2014-07-12T12:59:28Z</time>
      </trkpt>
      <trkpt lat="59.9098729" lon="17.6024209">
        <ele>20.325</ele>
        <time>2014-07-12T12:59:29Z</time>
      </trkpt>
      <trkpt lat="59.909938" lon="17.6025202">
        <ele>20.325</ele>
        <time>2014-07-12T12:59:30Z</time>
      </trkpt>
      <trkpt lat="59.9100044" lon="17.6026194">
        <ele>20.325</ele>
        <time>2014-07-12T12:59:31Z</time>
      </trkpt>
      <trkpt lat="59.9100702" lon="17.6027214">
        <ele>20.325</ele>
        <time>2014-07-12T12:59:32Z</time>
      </trkpt>
      <trkpt lat="59.9101346" lon="17.602825">
        <ele>20.325</ele>
        <time>2014-07-12T12:59:33Z</time>
      </trkpt>
      <trkpt lat="59.9101987" lon="17.6029266">
        <ele>20.325</ele>
        <time>2014-07-12T12:59:34Z</time>
      </trkpt>
      <trkpt lat="59.9102633" lon="17.6030266">
        <ele>20.325</ele>
        <time>2014-07-12T12:59:35Z</time>
      </trkpt>
      <trkpt lat="59.9103282" lon="17.6031265">
        <ele>20.325</ele>
        <time>2014-07-12T12:59:36Z</time>
      </trkpt>
      <trkpt lat="59.9103926" lon="17.6032245">
        <ele>20.8057</ele>
        <time>2014-07-12T12:59:37Z</time>
      </trkpt>
      <trkpt lat="59.9104567" lon="17.6033208">
        <ele>20.8057</ele>
        <time>2014-07-12T12:59:38Z</time>
      </trkpt>
      <trkpt lat="59.91052" lon="17.6034181">
        <ele>20.8057</ele>
        <time>2014-07-12T12:59:39Z</time>
      </trkpt>
      <trkpt lat="59.9105831" lon="17.6035177">
        <ele>20.8057</ele>
        <time>2014-07-12T12:59:40Z</time>
      </trkpt>
      <trkpt lat="59.9106459" lon="17.6036182">
        <ele>20.8057</ele>
        <time>2014-07-12T12:59:41Z</time>
      </trkpt>
      <trkpt lat="59.9107091" lon="17.6037176">
        <ele>21.2864</ele>
        <time>2014-07-12T12:59:42Z</time>
      </trkpt>
      <trkpt lat="59.9107726" lon="17.6038155">
        <ele>21.2864</ele>
        <time>2014-07-12T12:59:43Z</time>
      </trkpt>
      <trkpt lat="59.9108358" lon="17.6039129">
        <ele>21.2864</ele>
        <time>2014-07-12T12:59:44Z</time>
      </trkpt>
      <trkpt lat="59.9108986" lon="17.6040122">
        <ele>21.2864</ele>
        <time>2014-07-12T12:59:45Z</time>
      </trkpt>
      <trkpt lat="59.9109606" lon="17.6041142">
        <ele>21.767</ele>
        <time>2014-07-12T12:59:46Z</time>
      </trkpt>
      <trkpt lat="59.9110214" lon="17.6042191">
        <ele>21.767</ele>
        <time>2014-07-12T12:59:47Z</time>
      </trkpt>
      <trkpt lat="59.9110805" lon="17.6043267">
        <ele>21.767</ele>
        <time>2014-07-12T12:59:48Z</time>
      </trkpt>
      <trkpt lat="59.9111372" lon="17.6044369">
        <ele>21.767</ele>
        <time>2014-07-12T12:59:49Z</time>
      </trkpt>
      <trkpt lat="59.9111912" lon="17.6045515">
        <ele>21.767</ele>
        <time>2014-07-12T12:59:50Z</time>
      </trkpt>
      <trkpt lat="59.9112423" lon="17.6046712">
        <ele>21.767</ele>
        <time>2014-07-12T12:59:51Z</time>
      </trkpt>
      <trkpt lat="59.9112908" lon="17.6047939">
        <ele>21.767</ele>
        <time>2014-07-12T12:59:52Z</time>
      </trkpt>
      <trkpt lat="59.9113368" lon="17.6049182">
        <ele>21.767</ele>
        <time>2014-07-12T12:59:53Z</time>
      </trkpt>
      <trkpt lat="59.9113788" lon="17.6050458">
        <ele>21.767</ele>
        <time>2014-07-12T12:59:54Z</time>
      </trkpt>
      <trkpt lat="59.9114166" lon="17.6051772">
        <ele>21.767</ele>
        <time>2014-07-12T12:59:55Z</time>
      </trkpt>
      <trkpt lat="59.9114518" lon="17.6053099">
        <ele>22.2476</ele>
        <time>2014-07-12T12:59:56Z</time>
      </trkpt>
      <trkpt lat="59.9114845" lon="17.6054434">
        <ele>22.2476</ele>
        <time>2014-07-12T12:59:57Z</time>
      </trkpt>
      <trkpt lat="59.9115145" lon="17.6055777">
        <ele>22.2476</ele>
        <time>2014-07-12T12:59:58Z</time>
      </trkpt>
      <trkpt lat="59.9115413" lon="17.6057115">
        <ele>22.2476</ele>
        <time>2014-07-12T12:59:59Z</time>
      </trkpt>
      <trkpt lat="59.9115648" lon="17.6058418">
        <ele>22.2476</ele>
        <time>2014-07-12T13:00:00Z</time>
      </trkpt>
      <trkpt lat="59.9115852" lon="17.6059673">
        <ele>22.2476</ele>
        <time>2014-07-12T13:00:01Z</time>
      </trkpt>
      <trkpt lat="59.9116018" lon="17.606089">
        <ele>22.2476</ele>
        <time>2014-07-12T13:00:02Z</time>
      </trkpt>
      <trkpt lat="59.9116155" lon="17.6062061">
        <ele>22.2476</ele>
        <time>2014-07-12T13:00:03Z</time>
      </trkpt>
      <trkpt lat="59.9116286" lon="17.6063185">
        <ele>22.2476</ele>
        <time>2014-07-12T13:00:04Z</time>
      </trkpt>
      <trkpt lat="59.9116422" lon="17.6064262">
        <ele>22.2476</ele>
        <time>2014-07-12T13:00:05Z</time>
      </trkpt>
      <trkpt lat="59.9116548" lon="17.6065332">
        <ele>22.7283</ele>
        <time>2014-07-12T13:00:06Z</time>
      </trkpt>
      <trkpt lat="59.9116632" lon="17.6066418">
        <ele>22.7283</ele>
        <time>2014-07-12T13:00:07Z</time>
      </trkpt>
      <trkpt lat="59.9116617" lon="17.6067505">
        <ele>22.7283</ele>
        <time>2014-07-12T13:00:08Z</time>
      </trkpt>
      <trkpt lat="59.9116429" lon="17.6068511">
        <ele>22.7283</ele>
        <time>2014-07-12T13:00:09Z</time>
      </trkpt>
      <trkpt lat="59.9116054" lon="17.6069303">
        <ele>22.2476</ele>
        <time>2014-07-12T13:00:10Z</time>
      </trkpt>
      <trkpt lat="59.9115538" lon="17.6069779">
        <ele>22.2476</ele>
        <time>2014-07-12T13:00:11Z</time>
      </trkpt>
      <trkpt lat="59.9114948" lon="17.6070031">
        <ele>22.2476</ele>
        <time>2014-07-12T13:00:12Z</time>
      </trkpt>
      <trkpt lat="59.9114329" lon="17.6070248">
        <ele>21.767</ele>
        <time>2014-07-12T13:00:13Z</time>
      </trkpt>
      <trkpt lat="59.9113684" lon="17.6070493">
        <ele>21.767</ele>
        <time>2014-07-12T13:00:14Z</time>
      </trkpt>
      <trkpt lat="59.911302" lon="17.6070774">
        <ele>21.767</ele>
        <time>2014-07-12T13:00:15Z</time>
      </trkpt>
      <trkpt lat="59.9112336" lon="17.607109">
        <ele>21.767</ele>
        <time>2014-07-12T13:00:16Z</time>
      </trkpt>
      <trkpt lat="59.9111641" lon="17.6071407">
        <ele>21.2864</ele>
        <time>2014-07-12T13:00:17Z</time>
      </trkpt>
      <trkpt lat="59.9110938" lon="17.6071722">
        <ele>21.2864</ele>
        <time>2014-07-12T13:00:18Z</time>
      </trkpt>
      <trkpt lat="59.9110224" lon="17.6072043">
        <ele>21.2864</ele>
        <time>2014-07-12T13:00:19Z</time>
      </trkpt>
      <trkpt lat="59.91095" lon="17.6072374">
        <ele>20.8057</ele>
        <time>2014-07-12T13:00:20Z</time>
      </trkpt>
      <trkpt lat="59.9108768" lon="17.607272">
        <ele>20.8057</ele>
        <time>2014-07-12T13:00:21Z</time>
      </trkpt>
      <trkpt lat="59.9108028" lon="17.6073084">
        <ele>20.8057</ele>
        <time>2014-07-12T13:00:22Z</time>
      </trkpt>
      <trkpt lat="59.910728" lon="17.607345">
        <ele>20.8057</ele>
        <time>2014-07-12T13:00:23Z</time>
      </trkpt>
      <trkpt lat="59.910652" lon="17.6073808">
        <ele>20.8057</ele>
        <time>2014-07-12T13:00:24Z</time>
      </trkpt>
      <trkpt lat="59.9105759" lon="17.6074173">
        <ele>20.8057</ele>
        <time>2014-07-12T13:00:25Z</time>
      </trkpt>
      <trkpt lat="59.9105" lon="17.6074541">
        <ele>20.325</ele>
        <time>2014-07-12T13:00:26Z</time>
      </trkpt>
      <trkpt lat="59.9104242" lon="17.607491">
        <ele>20.325</ele>
        <time>2014-07-12T13:00:27Z</time>
      </trkpt>
      <trkpt lat="59.9103486" lon="17.6075278">
        <ele>20.325</ele>
        <time>2014-07-12T13:00:28Z</time>
      </trkpt>
      <trkpt lat="59.9102728" lon="17.6075646">
        <ele>20.325</ele>
        <time>2014-07-12T13:00:29Z</time>
      </trkpt>
      <trkpt lat="59.9101967" lon="17.6076022">
        <ele>20.325</ele>
        <time>2014-07-12T13:00:30Z</time>
      </trkpt>
      <trkpt lat="59.9101193" lon="17.60764">
        <ele>20.325</ele>
        <time>2014-07-12T13:00:31Z</time>
      </trkpt>
      <trkpt lat="59.9100406" lon="17.6076763">
        <ele>20.325</ele>
        <time>2014-07-12T13:00:32Z</time>
      </trkpt>
      <trkpt lat="59.9099606" lon="17.6077122">
        <ele>20.325</ele>
        <time>2014-07-12T13:00:33Z</time>
      </trkpt>
      <trkpt lat="59.9098801" lon="17.6077482">
        <ele>20.325</ele>
        <time>2014-07-12T13:00:34Z</time>
      </trkpt>
      <trkpt lat="59.9097991" lon="17.607785">
        <ele>20.325</ele>
        <time>2014-07-12T13:00:35Z</time>
      </trkpt>
      <trkpt lat="59.9097176" lon="17.6078248">
        <ele>19.8444</ele>
        <time>2014-07-12T13:00:36Z</time>
      </trkpt>
      <trkpt lat="59.9096362" lon="17.6078663">
        <ele>19.8444</ele>
        <time>2014-07-12T13:00:37Z</time>
      </trkpt>
      <trkpt lat="59.9095543" lon="17.6079065">
        <ele>19.8444</ele>
        <time>2014-07-12T13:00:38Z</time>
      </trkpt>
      <trkpt lat="59.9094718" lon="17.6079438">
        <ele>19.8444</ele>
        <time>2014-07-12T13:00:39Z</time>
      </trkpt>
      <trkpt lat="59.9093901" lon="17.6079802">
        <ele>19.8444</ele>
        <time>2014-07-12T13:00:40Z</time>
      </trkpt>
      <trkpt lat="59.909311" lon="17.6080177">
        <ele>19.8444</ele>
        <time>2014-07-12T13:00:41Z</time>
      </trkpt>
      <trkpt lat="59.9092345" lon="17.6080557">
        <ele>19.8444</ele>
        <time>2014-07-12T13:00:42Z</time>
      </trkpt>
      <trkpt lat="59.9091608" lon="17.6080921">
        <ele>19.8444</ele>
        <time>2014-07-12T13:00:43Z</time>
      </trkpt>
      <trkpt lat="59.9090897" lon="17.6081258">
        <ele>19.8444</ele>
        <time>2014-07-12T13:00:44Z</time>
      </trkpt>
      <trkpt lat="59.9090209" lon="17.6081582">
        <ele>19.8444</ele>
        <time>2014-07-12T13:00:45Z</time>
      </trkpt>
      <trkpt lat="59.9089543" lon="17.6081885">
        <ele>19.8444</ele>
        <time>2014-07-12T13:00:46Z</time>
      </trkpt>
      <trkpt lat="59.9088887" lon="17.6082185">
        <ele>19.8444</ele>
        <time>2014-07-12T13:00:47Z</time>
      </trkpt>
      <trkpt lat="59.9088237" lon="17.6082502">
        <ele>19.8444</ele>
        <time>2014-07-12T13:00:48Z</time>
      </trkpt>
      <trkpt lat="59.9087593" lon="17.6082808">
        <ele>19.8444</ele>
        <time>2014-07-12T13:00:49Z</time>
      </trkpt>
      <trkpt lat="59.9086942" lon="17.6083082">
        <ele>19.8444</ele>
        <time>2014-07-12T13:00:50Z</time>
      </trkpt>
      <trkpt lat="59.9086262" lon="17.6083359">
        <ele>19.8444</ele>
        <time>2014-07-12T13:00:51Z</time>
      </trkpt>
      <trkpt lat="59.9085559" lon="17.6083667">
        <ele>20.325</ele>
        <time>2014-07-12T13:00:52Z</time>
      </trkpt>
      <trkpt lat="59.908484" lon="17.6083979">
        <ele>20.325</ele>
        <time>2014-07-12T13:00:53Z</time>
      </trkpt>
      <trkpt lat="59.9084109" lon="17.6084298">
        <ele>20.325</ele>
        <time>2014-07-12T13:00:54Z</time>
      </trkpt>
      <trkpt lat="59.908337" lon="17.608461">
        <ele>20.325</ele>
        <time>2014-07-12T13:00:55Z</time>
      </trkpt>
      <trkpt lat="59.9082624" lon="17.6084951">
        <ele>20.8057</ele>
        <time>2014-07-12T13:00:56Z</time>
      </trkpt>
      <trkpt lat="59.9081877" lon="17.6085319">
        <ele>20.8057</ele>
        <time>2014-07-12T13:00:57Z</time>
      </trkpt>
      <trkpt lat="59.9081118" lon="17.6085708">
        <ele>20.8057</ele>
        <time>2014-07-12T13:00:58Z</time>
      </trkpt>
      <trkpt lat="59.9080343" lon="17.6086077">
        <ele>21.2864</ele>
        <time>2014-07-12T13:00:59Z</time>
      </trkpt>
      <trkpt lat="59.9079564" lon="17.6086438">
        <ele>21.2864</ele>
        <time>2014-07-12T13:01:00Z</time>
      </trkpt>
      <trkpt lat="59.9078813" lon="17.6086796">
        <ele>21.2864</ele>
        <time>2014-07-12T13:01:01Z</time>
      </trkpt>
      <trkpt lat="59.9078074" lon="17.6087149">
        <ele>21.767</ele>
        <time>2014-07-12T13:01:02Z</time>
      </trkpt>
      <trkpt lat="59.9077346" lon="17.6087495">
        <ele>21.767</ele>
        <time>2014-07-12T13:01:03Z</time>
      </trkpt>
      <trkpt lat="59.9076629" lon="17.6087836">
        <ele>21.767</ele>
        <time>2014-07-12T13:01:04Z</time>
      </trkpt>
      <trkpt lat="59.9075916" lon="17.6088174">
        <ele>22.2476</ele>
        <time>2014-07-12T13:01:05Z</time>
      </trkpt>
      <trkpt lat="59.9075204" lon="17.6088515">
        <ele>22.2476</ele>
        <time>2014-07-12T13:01:06Z</time>
      </trkpt>
      <trkpt lat="59.9074491" lon="17.6088868">
        <ele>22.2476</ele>
        <time>2014-07-12T13:01:07Z</time>
      </trkpt>
      <trkpt lat="59.9073771" lon="17.6089225">
        <ele>22.7283</ele>
        <time>2014-07-12T13:01:08Z</time>
      </trkpt>
      <trkpt lat="59.9073041" lon="17.6089572">
        <ele>22.7283</ele>
        <time>2014-07-12T13:01:09Z</time>
      </trkpt>
      <trkpt lat="59.9072311" lon="17.6089903">
        <ele>23.209</ele>
        <time>2014-07-12T13:01:10Z</time>
      </trkpt>
      <trkpt lat="59.9071583" lon="17.609024">
        <ele>23.209</ele>
        <time>2014-07-12T13:01:11Z</time>
      </trkpt>
      <trkpt lat="59.9070855" lon="17.6090578">
        <ele>23.209</ele>
        <time>2014-07-12T13:01:12Z</time>
      </trkpt>
      <trkpt lat="59.907013" lon="17.6090898">
        <ele>23.209</ele>
        <time>2014-07-12T13:01:13Z</time>
      </trkpt>
      <trkpt lat="59.9069413" lon="17.6091228">
        <ele>23.6896</ele>
        <time>2014-07-12T13:01:14Z</time>
      </trkpt>
      <trkpt lat="59.9068708" lon="17.6091578">
        <ele>23.6896</ele>
        <time>2014-07-12T13:01:15Z</time>
      </trkpt>
      <trkpt lat="59.9068015" lon="17.6091924">
        <ele>23.6896</ele>
        <time>2014-07-12T13:01:16Z</time>
      </trkpt>
      <trkpt lat="59.9067327" lon="17.609224">
        <ele>24.1703</ele>
        <time>2014-07-12T13:01:17Z</time>
      </trkpt>
      <trkpt lat="59.9066639" lon="17.6092556">
        <ele>24.1703</ele>
        <time>2014-07-12T13:01:18Z</time>
      </trkpt>
      <trkpt lat="59.9065956" lon="17.6092901">
        <ele>24.1703</ele>
        <time>2014-07-12T13:01:19Z</time>
      </trkpt>
      <trkpt lat="59.9065271" lon="17.6093239">
        <ele>24.1703</ele>
        <time>2014-07-12T13:01:20Z</time>
      </trkpt>
      <trkpt lat="59.906458" lon="17.6093566">
        <ele>24.651</ele>
        <time>2014-07-12T13:01:21Z</time>
      </trkpt>
      <trkpt lat="59.9063883" lon="17.6093887">
        <ele>24.651</ele>
        <time>2014-07-12T13:01:22Z</time>
      </trkpt>
      <trkpt lat="59.9063178" lon="17.6094212">
        <ele>24.651</ele>
        <time>2014-07-12T13:01:23Z</time>
      </trkpt>
      <trkpt lat="59.9062466" lon="17.6094545">
        <ele>24.651</ele>
        <time>2014-07-12T13:01:24Z</time>
      </trkpt>
      <trkpt lat="59.9061754" lon="17.6094881">
        <ele>24.651</ele>
        <time>2014-07-12T13:01:25Z</time>
      </trkpt>
      <trkpt lat="59.9061058" lon="17.6095203">
        <ele>24.651</ele>
        <time>2014-07-12T13:01:26Z</time>
      </trkpt>
      <trkpt lat="59.9060391" lon="17.6095503">
        <ele>24.651</ele>
        <time>2014-07-12T13:01:27Z</time>
      </trkpt>
      <trkpt lat="59.9059754" lon="17.6095805">
        <ele>25.1317</ele>
        <time>2014-07-12T13:01:28Z</time>
      </trkpt>
      <trkpt lat="59.9059126" lon="17.6096094">
        <ele>25.1317</ele>
        <time>2014-07-12T13:01:29Z</time>
      </trkpt>
      <trkpt lat="59.9058514" lon="17.6096369">
        <ele>25.1317</ele>
        <time>2014-07-12T13:01:30Z</time>
      </trkpt>
      <trkpt lat="59.905792" lon="17.6096651">
        <ele>25.1317</ele>
        <time>2014-07-12T13:01:31Z</time>
      </trkpt>
      <trkpt lat="59.9057336" lon="17.6096918">
        <ele>25.1317</ele>
        <time>2014-07-12T13:01:32Z</time>
      </trkpt>
      <trkpt lat="59.9056766" lon="17.6097169">
        <ele>25.1317</ele>
        <time>2014-07-12T13:01:33Z</time>
      </trkpt>
      <trkpt lat="59.9056212" lon="17.6097428">
        <ele>25.1317</ele>
        <time>2014-07-12T13:01:34Z</time>
      </trkpt>
      <trkpt lat="59.9055668" lon="17.6097689">
        <ele>25.1317</ele>
        <time>2014-07-12T13:01:35Z</time>
      </trkpt>
      <trkpt lat="59.9055124" lon="17.6097928">
        <ele>25.1317</ele>
        <time>2014-07-12T13:01:36Z</time>
      </trkpt>
      <trkpt lat="59.9054593" lon="17.6098172">
        <ele>25.1317</ele>
        <time>2014-07-12T13:01:37Z</time>
      </trkpt>
      <trkpt lat="59.9054073" lon="17.6098412">
        <ele>25.1317</ele>
        <time>2014-07-12T13:01:38Z</time>
      </trkpt>
      <trkpt lat="59.905356" lon="17.6098654">
        <ele>25.1317</ele>
        <time>2014-07-12T13:01:39Z</time>
      </trkpt>
      <trkpt lat="59.9053056" lon="17.6098902">
        <ele>24.651</ele>
        <time>2014-07-12T13:01:40Z</time>
      </trkpt>
      <trkpt lat="59.9052555" lon="17.6099139">
        <ele>24.651</ele>
        <time>2014-07-12T13:01:41Z</time>
      </trkpt>
      <trkpt lat="59.9052066" lon="17.6099409">
        <ele>24.651</ele>
        <time>2014-07-12T13:01:42Z</time>
      </trkpt>
      <trkpt lat="59.905161" lon="17.6099828">
        <ele>24.651</ele>
        <time>2014-07-12T13:01:43Z</time>
      </trkpt>
      <trkpt lat="59.9051174" lon="17.6100336">
        <ele>24.651</ele>
        <time>2014-07-12T13:01:44Z</time>
      </trkpt>
      <trkpt lat="59.9050708" lon="17.6100811">
        <ele>24.651</ele>
        <time>2014-07-12T13:01:45Z</time>
      </trkpt>
      <trkpt lat="59.905019" lon="17.6101208">
        <ele>24.651</ele>
        <time>2014-07-12T13:01:46Z</time>
      </trkpt>
      <trkpt lat="59.9049633" lon="17.6101539">
        <ele>24.651</ele>
        <time>2014-07-12T13:01:47Z</time>
      </trkpt>
      <trkpt lat="59.9049053" lon="17.6101859">
        <ele>24.651</ele>
        <time>2014-07-12T13:01:48Z</time>
      </trkpt>
      <trkpt lat="59.9048452" lon="17.6102179">
        <ele>24.651</ele>
        <time>2014-07-12T13:01:49Z</time>
      </trkpt>
      <trkpt lat="59.9047836" lon="17.6102503">
        <ele>24.651</ele>
        <time>2014-07-12T13:01:50Z</time>
      </trkpt>
      <trkpt lat="59.9047235" lon="17.6102968">
        <ele>24.651</ele>
        <time>2014-07-12T13:01:51Z</time>
      </trkpt>
      <trkpt lat="59.9046691" lon="17.6103693">
        <ele>24.651</ele>
        <time>2014-07-12T13:01:52Z</time>
      </trkpt>
      <trkpt lat="59.9046234" lon="17.6104687">
        <ele>24.1703</ele>
        <time>2014-07-12T13:01:53Z</time>
      </trkpt>
      <trkpt lat="59.9045892" lon="17.610591">
        <ele>24.1703</ele>
        <time>2014-07-12T13:01:54Z</time>
      </trkpt>
      <trkpt lat="59.9045659" lon="17.6107288">
        <ele>24.1703</ele>
        <time>2014-07-12T13:01:55Z</time>
      </trkpt>
      <trkpt lat="59.9045442" lon="17.6108731">
        <ele>24.1703</ele>
        <time>2014-07-12T13:01:56Z</time>
      </trkpt>
      <trkpt lat="59.9045131" lon="17.6110122">
        <ele>24.1703</ele>
        <time>2014-07-12T13:01:57Z</time>
      </trkpt>
      <trkpt lat="59.9044681" lon="17.611136">
        <ele>23.6896</ele>
        <time>2014-07-12T13:01:58Z</time>
      </trkpt>
      <trkpt lat="59.904412" lon="17.6112392">
        <ele>23.6896</ele>
        <time>2014-07-12T13:01:59Z</time>
      </trkpt>
      <trkpt lat="59.9043498" lon="17.6113291">
        <ele>23.6896</ele>
        <time>2014-07-12T13:02:00Z</time>
      </trkpt>
      <trkpt lat="59.9042857" lon="17.6114129">
        <ele>23.6896</ele>
        <time>2014-07-12T13:02:01Z</time>
      </trkpt>
      <trkpt lat="59.9042209" lon="17.6114965">
        <ele>23.6896</ele>
        <time>2014-07-12T13:02:02Z</time>
      </trkpt>
      <trkpt lat="59.9041572" lon="17.6115839">
        <ele>23.6896</ele>
        <time>2014-07-12T13:02:03Z</time>
      </trkpt>
      <trkpt lat="59.9040959" lon="17.6116771">
        <ele>23.6896</ele>
        <time>2014-07-12T13:02:04Z</time>
      </trkpt>
      <trkpt lat="59.9040375" lon="17.6117793">
        <ele>23.6896</ele>
        <time>2014-07-12T13:02:05Z</time>
      </trkpt>
      <trkpt lat="59.9039841" lon="17.6118938">
        <ele>23.6896</ele>
        <time>2014-07-12T13:02:06Z</time>
      </trkpt>
      <trkpt lat="59.9039361" lon="17.6120223">
        <ele>23.6896</ele>
        <time>2014-07-12T13:02:07Z</time>
      </trkpt>
      <trkpt lat="59.9038949" lon="17.6121625">
        <ele>23.6896</ele>
        <time>2014-07-12T13:02:08Z</time>
      </trkpt>
      <trkpt lat="59.9038584" lon="17.6123111">
        <ele>23.6896</ele>
        <time>2014-07-12T13:02:09Z</time>
      </trkpt>
      <trkpt lat="59.9038247" lon="17.6124651">
        <ele>23.209</ele>
        <time>2014-07-12T13:02:10Z</time>
      </trkpt>
      <trkpt lat="59.903793" lon="17.6126242">
        <ele>23.209</ele>
        <time>2014-07-12T13:02:11Z</time>
      </trkpt>
      <trkpt lat="59.9037619" lon="17.6127851">
        <ele>23.209</ele>
        <time>2014-07-12T13:02:12Z</time>
      </trkpt>
      <trkpt lat="59.9037308" lon="17.6129436">
        <ele>23.209</ele>
        <time>2014-07-12T13:02:13Z</time>
      </trkpt>
      <trkpt lat="59.9036994" lon="17.6130986">
        <ele>23.209</ele>
        <time>2014-07-12T13:02:14Z</time>
      </trkpt>
      <trkpt lat="59.9036688" lon="17.6132505">
        <ele>23.209</ele>
        <time>2014-07-12T13:02:15Z</time>
      </trkpt>
      <trkpt lat="59.9036403" lon="17.6134012">
        <ele>23.6896</ele>
        <time>2014-07-12T13:02:16Z</time>
      </trkpt>
      <trkpt lat="59.9036147" lon="17.6135534">
        <ele>23.6896</ele>
        <time>2014-07-12T13:02:17Z</time>
      </trkpt>
      <trkpt lat="59.903592" lon="17.613708">
        <ele>23.6896</ele>
        <time>2014-07-12T13:02:18Z</time>
      </trkpt>
      <trkpt lat="59.9035721" lon="17.6138639">
        <ele>23.6896</ele>
        <time>2014-07-12T13:02:19Z</time>
      </trkpt>
      <trkpt lat="59.9035552" lon="17.6140217">
        <ele>23.6896</ele>
        <time>2014-07-12T13:02:20Z</time>
      </trkpt>
      <trkpt lat="59.9035428" lon="17.6141829">
        <ele>23.6896</ele>
        <time>2014-07-12T13:02:21Z</time>
      </trkpt>
      <trkpt lat="59.9035344" lon="17.6143466">
        <ele>23.6896</ele>
        <time>2014-07-12T13:02:22Z</time>
      </trkpt>
      <trkpt lat="59.9035287" lon="17.6145094">
        <ele>23.209</ele>
        <time>2014-07-12T13:02:23Z</time>
      </trkpt>
      <trkpt lat="59.9035241" lon="17.6146698">
        <ele>23.209</ele>
        <time>2014-07-12T13:02:24Z</time>
      </trkpt>
      <trkpt lat="59.9035194" lon="17.6148297">
        <ele>23.209</ele>
        <time>2014-07-12T13:02:25Z</time>
      </trkpt>
      <trkpt lat="59.9035127" lon="17.6149898">
        <ele>23.209</ele>
        <time>2014-07-12T13:02:26Z</time>
      </trkpt>
      <trkpt lat="59.9035027" lon="17.6151485">
        <ele>23.209</ele>
        <time>2014-07-12T13:02:27Z</time>
      </trkpt>
      <trkpt lat="59.9034874" lon="17.6153047">
        <ele>23.6896</ele>
        <time>2014-07-12T13:02:28Z</time>
      </trkpt>
      <trkpt lat="59.9034665" lon="17.6154567">
        <ele>23.6896</ele>
        <time>2014-07-12T13:02:29Z</time>
      </trkpt>
      <trkpt lat="59.9034397" lon="17.6156036">
        <ele>23.6896</ele>
        <time>2014-07-12T13:02:30Z</time>
      </trkpt>
      <trkpt lat="59.903408" lon="17.6157464">
        <ele>24.1703</ele>
        <time>2014-07-12T13:02:31Z</time>
      </trkpt>
      <trkpt lat="59.9033733" lon="17.6158861">
        <ele>24.1703</ele>
        <time>2014-07-12T13:02:32Z</time>
      </trkpt>
      <trkpt lat="59.9033368" lon="17.6160242">
        <ele>24.1703</ele>
        <time>2014-07-12T13:02:33Z</time>
      </trkpt>
      <trkpt lat="59.9032989" lon="17.6161612">
        <ele>24.1703</ele>
        <time>2014-07-12T13:02:34Z</time>
      </trkpt>
      <trkpt lat="59.9032605" lon="17.6162989">
        <ele>24.651</ele>
        <time>2014-07-12T13:02:35Z</time>
      </trkpt>
      <trkpt lat="59.9032222" lon="17.6164369">
        <ele>24.651</ele>
        <time>2014-07-12T13:02:36Z</time>
      </trkpt>
      <trkpt lat="59.9031831" lon="17.616574">
        <ele>24.651</ele>
        <time>2014-07-12T13:02:37Z</time>
      </trkpt>
      <trkpt lat="59.9031439" lon="17.6167102">
        <ele>24.651</ele>
        <time>2014-07-12T13:02:38Z</time>
      </trkpt>
      <trkpt lat="59.9031057" lon="17.6168454">
        <ele>24.651</ele>
        <time>2014-07-12T13:02:39Z</time>
      </trkpt>
      <trkpt lat="59.9030673" lon="17.6169806">
        <ele>24.1703</ele>
        <time>2014-07-12T13:02:40Z</time>
      </trkpt>
      <trkpt lat="59.9030279" lon="17.6171174">
        <ele>24.1703</ele>
        <time>2014-07-12T13:02:41Z</time>
      </trkpt>
      <trkpt lat="59.9029868" lon="17.617256">
        <ele>24.1703</ele>
        <time>2014-07-12T13:02:42Z</time>
      </trkpt>
      <trkpt lat="59.9029438" lon="17.6173957">
        <ele>23.6896</ele>
        <time>2014-07-12T13:02:43Z</time>
      </trkpt>
      <trkpt lat="59.9029005" lon="17.6175375">
        <ele>23.6896</ele>
        <time>2014-07-12T13:02:44Z</time>
      </trkpt>
      <trkpt lat="59.902857" lon="17.6176795">
        <ele>23.6896</ele>
        <time>2014-07-12T13:02:45Z</time>
      </trkpt>
      <trkpt lat="59.9028118" lon="17.6178219">
        <ele>23.209</ele>
        <time>2014-07-12T13:02:46Z</time>
      </trkpt>
      <trkpt lat="59.9027651" lon="17.6179636">
        <ele>23.209</ele>
        <time>2014-07-12T13:02:47Z</time>
      </trkpt>
      <trkpt lat="59.9027176" lon="17.6181027">
        <ele>23.209</ele>
        <time>2014-07-12T13:02:48Z</time>
      </trkpt>
      <trkpt lat="59.90267" lon="17.6182405">
        <ele>23.209</ele>
        <time>2014-07-12T13:02:49Z</time>
      </trkpt>
      <trkpt lat="59.9026226" lon="17.6183777">
        <ele>23.209</ele>
        <time>2014-07-12T13:02:50Z</time>
      </trkpt>
      <trkpt lat="59.9025741" lon="17.6185143">
        <ele>23.209</ele>
        <time>2014-07-12T13:02:51Z</time>
      </trkpt>
      <trkpt lat="59.902524" lon="17.6186485">
        <ele>22.7283</ele>
        <time>2014-07-12T13:02:52Z</time>
      </trkpt>
      <trkpt lat="59.9024734" lon="17.6187814">
        <ele>22.7283</ele>
        <time>2014-07-12T13:02:53Z</time>
      </trkpt>
      <trkpt lat="59.9024224" lon="17.6189147">
        <ele>22.7283</ele>
        <time>2014-07-12T13:02:54Z</time>
      </trkpt>
      <trkpt lat="59.9023712" lon="17.6190465">
        <ele>22.7283</ele>
        <time>2014-07-12T13:02:55Z</time>
      </trkpt>
      <trkpt lat="59.9023208" lon="17.6191761">
        <ele>22.7283</ele>
        <time>2014-07-12T13:02:56Z</time>
      </trkpt>
      <trkpt lat="59.9022704" lon="17.6193043">
        <ele>22.7283</ele>
        <time>2014-07-12T13:02:57Z</time>
      </trkpt>
      <trkpt lat="59.9022187" lon="17.6194319">
        <ele>22.7283</ele>
        <time>2014-07-12T13:02:58Z</time>
      </trkpt>
      <trkpt lat="59.9021661" lon="17.6195604">
        <ele>22.7283</ele>
        <time>2014-07-12T13:02:59Z</time>
      </trkpt>
      <trkpt lat="59.9021141" lon="17.6196883">
        <ele>22.7283</ele>
        <time>2014-07-12T13:03:00Z</time>
      </trkpt>
      <trkpt lat="59.9020627" lon="17.6198148">
        <ele>22.7283</ele>
        <time>2014-07-12T13:03:01Z</time>
      </trkpt>
      <trkpt lat="59.9020115" lon="17.6199406">
        <ele>22.7283</ele>
        <time>2014-07-12T13:03:02Z</time>
      </trkpt>
      <trkpt lat="59.9019593" lon="17.6200655">
        <ele>22.7283</ele>
        <time>2014-07-12T13:03:03Z</time>
      </trkpt>
      <trkpt lat="59.9019076" lon="17.6201903">
        <ele>22.7283</ele>
        <time>2014-07-12T13:03:04Z</time>
      </trkpt>
      <trkpt lat="59.9018572" lon="17.620317">
        <ele>22.7283</ele>
        <time>2014-07-12T13:03:05Z</time>
      </trkpt>
      <trkpt lat="59.9018064" lon="17.6204451">
        <ele>22.7283</ele>
        <time>2014-07-12T13:03:06Z</time>
      </trkpt>
      <trkpt lat="59.9017547" lon="17.6205744">
        <ele>22.2476</ele>
        <time>2014-07-12T13:03:07Z</time>
      </trkpt>
      <trkpt lat="59.9017048" lon="17.6207051">
        <ele>22.7283</ele>
        <time>2014-07-12T13:03:08Z</time>
      </trkpt>
      <trkpt lat="59.9016577" lon="17.6208371">
        <ele>22.7283</ele>
        <time>2014-07-12T13:03:09Z</time>
      </trkpt>
      <trkpt lat="59.9016117" lon="17.6209697">
        <ele>22.7283</ele>
        <time>2014-07-12T13:03:10Z</time>
      </trkpt>
      <trkpt lat="59.9015672" lon="17.6211034">
        <ele>22.7283</ele>
        <time>2014-07-12T13:03:11Z</time>
      </trkpt>
      <trkpt lat="59.9015262" lon="17.6212407">
        <ele>22.7283</ele>
        <time>2014-07-12T13:03:12Z</time>
      </trkpt>
      <trkpt lat="59.9014879" lon="17.6213828">
        <ele>22.7283</ele>
        <time>2014-07-12T13:03:13Z</time>
      </trkpt>
      <trkpt lat="59.9014506" lon="17.6215277">
        <ele>22.7283</ele>
        <time>2014-07-12T13:03:14Z</time>
      </trkpt>
      <trkpt lat="59.9014144" lon="17.6216728">
        <ele>22.7283</ele>
        <time>2014-07-12T13:03:15Z</time>
      </trkpt>
      <trkpt lat="59.9013785" lon="17.6218176">
        <ele>22.7283</ele>
        <time>2014-07-12T13:03:16Z</time>
      </trkpt>
      <trkpt lat="59.9013427" lon="17.6219634">
        <ele>22.7283</ele>
        <time>2014-07-12T13:03:17Z</time>
      </trkpt>
      <trkpt lat="59.9013076" lon="17.622111">
        <ele>22.7283</ele>
        <time>2014-07-12T13:03:18Z</time>
      </trkpt>
      <trkpt lat="59.9012734" lon="17.6222602">
        <ele>23.209</ele>
        <time>2014-07-12T13:03:19Z</time>
      </trkpt>
      <trkpt lat="59.9012393" lon="17.6224102">
        <ele>23.209</ele>
        <time>2014-07-12T13:03:20Z</time>
      </trkpt>
      <trkpt lat="59.901205" lon="17.6225615">
        <ele>23.209</ele>
        <time>2014-07-12T13:03:21Z</time>
      </trkpt>
      <trkpt lat="59.9011714" lon="17.6227144">
        <ele>23.209</ele>
        <time>2014-07-12T13:03:22Z</time>
      </trkpt>
      <trkpt lat="59.9011386" lon="17.6228674">
        <ele>23.209</ele>
        <time>2014-07-12T13:03:23Z</time>
      </trkpt>
      <trkpt lat="59.9011055" lon="17.6230192">
        <ele>23.209</ele>
        <time>2014-07-12T13:03:24Z</time>
      </trkpt>
      <trkpt lat="59.9010735" lon="17.6231709">
        <ele>23.6896</ele>
        <time>2014-07-12T13:03:25Z</time>
      </trkpt>
      <trkpt lat="59.9010429" lon="17.6233227">
        <ele>23.6896</ele>
        <time>2014-07-12T13:03:26Z</time>
      </trkpt>
      <trkpt lat="59.9010139" lon="17.6234734">
        <ele>23.6896</ele>
        <time>2014-07-12T13:03:27Z</time>
      </trkpt>
      <trkpt lat="59.9009871" lon="17.623624">
        <ele>24.1703</ele>
        <time>2014-07-12T13:03:28Z</time>
      </trkpt>
      <trkpt lat="59.9009626" lon="17.6237738">
        <ele>24.1703</ele>
        <time>2014-07-12T13:03:29Z</time>
      </trkpt>
      <trkpt lat="59.9009392" lon="17.6239202">
        <ele>24.651</ele>
        <time>2014-07-12T13:03:30Z</time>
      </trkpt>
      <trkpt lat="59.9009169" lon="17.6240629">
        <ele>24.651</ele>
        <time>2014-07-12T13:03:31Z</time>
      </trkpt>
      <trkpt lat="59.9008968" lon="17.6242039">
        <ele>25.1317</ele>
        <time>2014-07-12T13:03:32Z</time>
      </trkpt>
      <trkpt lat="59.9008792" lon="17.6243424">
        <ele>25.6123</ele>
        <time>2014-07-12T13:03:33Z</time>
      </trkpt>
      <trkpt lat="59.9008641" lon="17.6244767">
        <ele>26.0929</ele>
        <time>2014-07-12T13:03:34Z</time>
      </trkpt>
      <trkpt lat="59.9008506" lon="17.6246076">
        <ele>26.5736</ele>
        <time>2014-07-12T13:03:35Z</time>
      </trkpt>
      <trkpt lat="59.9008379" lon="17.6247341">
        <ele>27.0543</ele>
        <time>2014-07-12T13:03:36Z</time>
      </trkpt>
      <trkpt lat="59.9008274" lon="17.6248591">
        <ele>27.0543</ele>
        <time>2014-07-12T13:03:37Z</time>
      </trkpt>
      <trkpt lat="59.9008185" lon="17.6249859">
        <ele>27.0543</ele>
        <time>2014-07-12T13:03:38Z</time>
      </trkpt>
      <trkpt lat="59.9008103" lon="17.6251151">
        <ele>27.0543</ele>
        <time>2014-07-12T13:03:39Z</time>
      </trkpt>
      <trkpt lat="59.9008031" lon="17.6252479">
        <ele>27.0543</ele>
        <time>2014-07-12T13:03:40Z</time>
      </trkpt>
      <trkpt lat="59.9007983" lon="17.6253878">
        <ele>27.0543</ele>
        <time>2014-07-12T13:03:41Z</time>
      </trkpt>
      <trkpt lat="59.9007948" lon="17.6255328">
        <ele>26.5736</ele>
        <time>2014-07-12T13:03:42Z</time>
      </trkpt>
      <trkpt lat="59.9007917" lon="17.6256817">
        <ele>26.5736</ele>
        <time>2014-07-12T13:03:43Z</time>
      </trkpt>
      <trkpt lat="59.9007887" lon="17.6258324">
        <ele>26.0929</ele>
        <time>2014-07-12T13:03:44Z</time>
      </trkpt>
      <trkpt lat="59.9007873" lon="17.6259846">
        <ele>26.0929</ele>
        <time>2014-07-12T13:03:45Z</time>
      </trkpt>
      <trkpt lat="59.900787" lon="17.6261355">
        <ele>26.0929</ele>
        <time>2014-07-12T13:03:46Z</time>
      </trkpt>
      <trkpt lat="59.9007879" lon="17.6262861">
        <ele>26.0929</ele>
        <time>2014-07-12T13:03:47Z</time>
      </trkpt>
      <trkpt lat="59.9007925" lon="17.6264383">
        <ele>26.0929</ele>
        <time>2014-07-12T13:03:48Z</time>
      </trkpt>
      <trkpt lat="59.9008031" lon="17.6265908">
        <ele>26.0929</ele>
        <time>2014-07-12T13:03:49Z</time>
      </trkpt>
      <trkpt lat="59.9008212" lon="17.6267431">
        <ele>26.0929</ele>
        <time>2014-07-12T13:03:50Z</time>
      </trkpt>
      <trkpt lat="59.9008455" lon="17.6268933">
        <ele>25.6123</ele>
        <time>2014-07-12T13:03:51Z</time>
      </trkpt>
      <trkpt lat="59.9008752" lon="17.6270398">
        <ele>25.6123</ele>
        <time>2014-07-12T13:03:52Z</time>
      </trkpt>
      <trkpt lat="59.9009082" lon="17.6271837">
        <ele>25.6123</ele>
        <time>2014-07-12T13:03:53Z</time>
      </trkpt>
      <trkpt lat="59.9009436" lon="17.6273253">
        <ele>25.1317</ele>
        <time>2014-07-12T13:03:54Z</time>
      </trkpt>
      <trkpt lat="59.9009813" lon="17.6274672">
        <ele>25.1317</ele>
        <time>2014-07-12T13:03:55Z</time>
      </trkpt>
      <trkpt lat="59.9010204" lon="17.6276087">
        <ele>24.651</ele>
        <time>2014-07-12T13:03:56Z</time>
      </trkpt>
      <trkpt lat="59.9010601" lon="17.6277497">
        <ele>24.651</ele>
        <time>2014-07-12T13:03:57Z</time>
      </trkpt>
      <trkpt lat="59.9010987" lon="17.6278923">
        <ele>24.651</ele>
        <time>2014-07-12T13:03:58Z</time>
      </trkpt>
      <trkpt lat="59.901135" lon="17.6280355">
        <ele>24.651</ele>
        <time>2014-07-12T13:03:59Z</time>
      </trkpt>
      <trkpt lat="59.9011699" lon="17.6281769">
        <ele>24.651</ele>
        <time>2014-07-12T13:04:00Z</time>
      </trkpt>
      <trkpt lat="59.9012019" lon="17.6283183">
        <ele>24.651</ele>
        <time>2014-07-12T13:04:01Z</time>
      </trkpt>
      <trkpt lat="59.9012303" lon="17.6284623">
        <ele>24.651</ele>
        <time>2014-07-12T13:04:02Z</time>
      </trkpt>
      <trkpt lat="59.9012554" lon="17.628609">
        <ele>24.651</ele>
        <time>2014-07-12T13:04:03Z</time>
      </trkpt>
      <trkpt lat="59.9012758" lon="17.6287583">
        <ele>24.651</ele>
        <time>2014-07-12T13:04:04Z</time>
      </trkpt>
      <trkpt lat="59.9012915" lon="17.6289099">
        <ele>24.651</ele>
        <time>2014-07-12T13:04:05Z</time>
      </trkpt>
      <trkpt lat="59.901305" lon="17.6290628">
        <ele>24.651</ele>
        <time>2014-07-12T13:04:06Z</time>
      </trkpt>
      <trkpt lat="59.9013176" lon="17.6292175">
        <ele>24.651</ele>
        <time>2014-07-12T13:04:07Z</time>
      </trkpt>
      <trkpt lat="59.9013292" lon="17.6293737">
        <ele>24.651</ele>
        <time>2014-07-12T13:04:08Z</time>
      </trkpt>
      <trkpt lat="59.9013397" lon="17.6295303">
        <ele>24.651</ele>
        <time>2014-07-12T13:04:09Z</time>
      </trkpt>
      <trkpt lat="59.9013497" lon="17.6296857">
        <ele>24.1703</ele>
        <time>2014-07-12T13:04:10Z</time>
      </trkpt>
      <trkpt lat="59.9013594" lon="17.6298406">
        <ele>24.1703</ele>
        <time>2014-07-12T13:04:11Z</time>
      </trkpt>
      <trkpt lat="59.9013691" lon="17.6299949">
        <ele>24.1703</ele>
        <time>2014-07-12T13:04:12Z</time>
      </trkpt>
      <trkpt lat="59.9013785" lon="17.6301489">
        <ele>24.1703</ele>
        <time>2014-07-12T13:04:13Z</time>
      </trkpt>
      <trkpt lat="59.9013869" lon="17.6303037">
        <ele>24.1703</ele>
        <time>2014-07-12T13:04:14Z</time>
      </trkpt>
      <trkpt lat="59.9013936" lon="17.6304592">
        <ele>24.1703</ele>
        <time>2014-07-12T13:04:15Z</time>
      </trkpt>
      <trkpt lat="59.9013977" lon="17.6306156">
        <ele>24.1703</ele>
        <time>2014-07-12T13:04:16Z</time>
      </trkpt>
      <trkpt lat="59.9013983" lon="17.6307722">
        <ele>24.1703</ele>
        <time>2014-07-12T13:04:17Z</time>
      </trkpt>
      <trkpt lat="59.901395" lon="17.6309284">
        <ele>24.1703</ele>
        <time>2014-07-12T13:04:18Z</time>
      </trkpt>
      <trkpt lat="59.9013882" lon="17.6310831">
        <ele>24.1703</ele>
        <time>2014-07-12T13:04:19Z</time>
      </trkpt>
      <trkpt lat="59.9013775" lon="17.6312366">
        <ele>24.1703</ele>
        <time>2014-07-12T13:04:20Z</time>
      </trkpt>
      <trkpt lat="59.901362" lon="17.6313884">
        <ele>24.1703</ele>
        <time>2014-07-12T13:04:21Z</time>
      </trkpt>
      <trkpt lat="59.9013409" lon="17.6315368">
        <ele>24.1703</ele>
        <time>2014-07-12T13:04:22Z</time>
      </trkpt>
      <trkpt lat="59.9013159" lon="17.6316819">
        <ele>23.6896</ele>
        <time>2014-07-12T13:04:23Z</time>
      </trkpt>
      <trkpt lat="59.9012873" lon="17.6318237">
        <ele>23.6896</ele>
        <time>2014-07-12T13:04:24Z</time>
      </trkpt>
      <trkpt lat="59.9012547" lon="17.6319611">
        <ele>23.6896</ele>
        <time>2014-07-12T13:04:25Z</time>
      </trkpt>
      <trkpt lat="59.9012196" lon="17.6320953">
        <ele>23.6896</ele>
        <time>2014-07-12T13:04:26Z</time>
      </trkpt>
      <trkpt lat="59.9011811" lon="17.6322258">
        <ele>23.6896</ele>
        <time>2014-07-12T13:04:27Z</time>
      </trkpt>
      <trkpt lat="59.9011378" lon="17.63235">
        <ele>24.1703</ele>
        <time>2014-07-12T13:04:28Z</time>
      </trkpt>
      <trkpt lat="59.9010909" lon="17.6324686">
        <ele>24.1703</ele>
        <time>2014-07-12T13:04:29Z</time>
      </trkpt>
      <trkpt lat="59.9010406" lon="17.6325817">
        <ele>24.1703</ele>
        <time>2014-07-12T13:04:30Z</time>
      </trkpt>
      <trkpt lat="59.900987" lon="17.6326909">
        <ele>24.1703</ele>
        <time>2014-07-12T13:04:31Z</time>
      </trkpt>
      <trkpt lat="59.900931" lon="17.6327981">
        <ele>24.1703</ele>
        <time>2014-07-12T13:04:32Z</time>
      </trkpt>
      <trkpt lat="59.9008725" lon="17.6329027">
        <ele>24.1703</ele>
        <time>2014-07-12T13:04:33Z</time>
      </trkpt>
      <trkpt lat="59.9008112" lon="17.6330028">
        <ele>23.6896</ele>
        <time>2014-07-12T13:04:34Z</time>
      </trkpt>
      <trkpt lat="59.9007476" lon="17.6330995">
        <ele>23.6896</ele>
        <time>2014-07-12T13:04:35Z</time>
      </trkpt>
      <trkpt lat="59.9006829" lon="17.6331969">
        <ele>23.6896</ele>
        <time>2014-07-12T13:04:36Z</time>
      </trkpt>
      <trkpt lat="59.9006159" lon="17.6332928">
        <ele>23.6896</ele>
        <time>2014-07-12T13:04:37Z</time>
      </trkpt>
      <trkpt lat="59.9005462" lon="17.6333843">
        <ele>23.6896</ele>
        <time>2014-07-12T13:04:38Z</time>
      </trkpt>
      <trkpt lat="59.9004762" lon="17.633472">
        <ele>23.209</ele>
        <time>2014-07-12T13:04:39Z</time>
      </trkpt>
      <trkpt lat="59.9004076" lon="17.6335564">
        <ele>23.209</ele>
        <time>2014-07-12T13:04:40Z</time>
      </trkpt>
      <trkpt lat="59.90034" lon="17.6336347">
        <ele>23.209</ele>
        <time>2014-07-12T13:04:41Z</time>
      </trkpt>
      <trkpt lat="59.9002733" lon="17.6337091">
        <ele>23.209</ele>
        <time>2014-07-12T13:04:42Z</time>
      </trkpt>
      <trkpt lat="59.9002058" lon="17.6337782">
        <ele>23.209</ele>
        <time>2014-07-12T13:04:43Z</time>
      </trkpt>
      <trkpt lat="59.9001364" lon="17.6338419">
        <ele>23.209</ele>
        <time>2014-07-12T13:04:44Z</time>
      </trkpt>
      <trkpt lat="59.9000668" lon="17.6339029">
        <ele>22.7283</ele>
        <time>2014-07-12T13:04:45Z</time>
      </trkpt>
      <trkpt lat="59.899997" lon="17.633959">
        <ele>22.7283</ele>
        <time>2014-07-12T13:04:46Z</time>
      </trkpt>
      <trkpt lat="59.8999265" lon="17.6340104">
        <ele>23.209</ele>
        <time>2014-07-12T13:04:47Z</time>
      </trkpt>
      <trkpt lat="59.8998349" lon="17.6340396">
        <ele>23.209</ele>
        <time>2014-07-12T13:04:48Z</time>
      </trkpt>
      <trkpt lat="59.8997715" lon="17.6340829">
        <ele>23.209</ele>
        <time>2014-07-12T13:04:49Z</time>
      </trkpt>
      <trkpt lat="59.8997142" lon="17.6341349">
        <ele>23.209</ele>
        <time>2014-07-12T13:04:50Z</time>
      </trkpt>
      <trkpt lat="59.8996439" lon="17.6341744">
        <ele>23.6896</ele>
        <time>2014-07-12T13:04:51Z</time>
      </trkpt>
      <trkpt lat="59.8995742" lon="17.6342062">
        <ele>23.6896</ele>
        <time>2014-07-12T13:04:52Z</time>
      </trkpt>
      <trkpt lat="59.8995091" lon="17.6342278">
        <ele>23.6896</ele>
        <time>2014-07-12T13:04:53Z</time>
      </trkpt>
      <trkpt lat="59.8994359" lon="17.6342535">
        <ele>23.6896</ele>
        <time>2014-07-12T13:04:54Z</time>
      </trkpt>
      <trkpt lat="59.8993578" lon="17.6342775">
        <ele>23.6896</ele>
        <time>2014-07-12T13:04:55Z</time>
      </trkpt>
      <trkpt lat="59.8992796" lon="17.6343111">
        <ele>23.6896</ele>
        <time>2014-07-12T13:04:56Z</time>
      </trkpt>
      <trkpt lat="59.8992035" lon="17.6343512">
        <ele>23.6896</ele>
        <time>2014-07-12T13:04:57Z</time>
      </trkpt>
      <trkpt lat="59.899125" lon="17.6343899">
        <ele>24.1703</ele>
        <time>2014-07-12T13:04:58Z</time>
      </trkpt>
      <trkpt lat="59.8990473" lon="17.6344277">
        <ele>24.651</ele>
        <time>2014-07-12T13:04:59Z</time>
      </trkpt>
      <trkpt lat="59.8989729" lon="17.6344545">
        <ele>24.651</ele>
        <time>2014-07-12T13:05:00Z</time>
      </trkpt>
      <trkpt lat="59.8988938" lon="17.6344612">
        <ele>25.1317</ele>
        <time>2014-07-12T13:05:01Z</time>
      </trkpt>
      <trkpt lat="59.8988205" lon="17.6344597">
        <ele>25.1317</ele>
        <time>2014-07-12T13:05:02Z</time>
      </trkpt>
      <trkpt lat="59.8987527" lon="17.6344588">
        <ele>25.1317</ele>
        <time>2014-07-12T13:05:03Z</time>
      </trkpt>
      <trkpt lat="59.8986865" lon="17.6344564">
        <ele>25.6123</ele>
        <time>2014-07-12T13:05:04Z</time>
      </trkpt>
      <trkpt lat="59.8986228" lon="17.6344501">
        <ele>25.6123</ele>
        <time>2014-07-12T13:05:05Z</time>
      </trkpt>
      <trkpt lat="59.8985618" lon="17.6344429">
        <ele>25.6123</ele>
        <time>2014-07-12T13:05:06Z</time>
      </trkpt>
      <trkpt lat="59.898503" lon="17.6344375">
        <ele>26.0929</ele>
        <time>2014-07-12T13:05:07Z</time>
      </trkpt>
      <trkpt lat="59.8984492" lon="17.6344339">
        <ele>26.0929</ele>
        <time>2014-07-12T13:05:08Z</time>
      </trkpt>
      <trkpt lat="59.8984001" lon="17.6344322">
        <ele>26.5736</ele>
        <time>2014-07-12T13:05:09Z</time>
      </trkpt>
      <trkpt lat="59.898356" lon="17.6344287">
        <ele>26.5736</ele>
        <time>2014-07-12T13:05:10Z</time>
      </trkpt>
      <trkpt lat="59.8983136" lon="17.634418">
        <ele>26.5736</ele>
        <time>2014-07-12T13:05:11Z</time>
      </trkpt>
      <trkpt lat="59.8982783" lon="17.6344128">
        <ele>26.5736</ele>
        <time>2014-07-12T13:05:12Z</time>
      </trkpt>
      <trkpt lat="59.8982476" lon="17.6344179">
        <ele>27.0543</ele>
        <time>2014-07-12T13:05:13Z</time>
      </trkpt>
      <trkpt lat="59.8982188" lon="17.6344324">
        <ele>27.0543</ele>
        <time>2014-07-12T13:05:14Z</time>
      </trkpt>
      <trkpt lat="59.8981927" lon="17.6344512">
        <ele>27.0543</ele>
        <time>2014-07-12T13:05:15Z</time>
      </trkpt>
      <trkpt lat="59.8981669" lon="17.6344662">
        <ele>27.0543</ele>
        <time>2014-07-12T13:05:16Z</time>
      </trkpt>
      <trkpt lat="59.8981426" lon="17.6344795">
        <ele>26.5736</ele>
        <time>2014-07-12T13:05:17Z</time>
      </trkpt>
      <trkpt lat="59.8981203" lon="17.6345039">
        <ele>27.0543</ele>
        <time>2014-07-12T13:05:18Z</time>
      </trkpt>
      <trkpt lat="59.898098" lon="17.634537">
        <ele>26.5736</ele>
        <time>2014-07-12T13:05:19Z</time>
      </trkpt>
      <trkpt lat="59.8980769" lon="17.634577">
        <ele>26.5736</ele>
        <time>2014-07-12T13:05:20Z</time>
      </trkpt>
      <trkpt lat="59.8980592" lon="17.6346282">
        <ele>26.0929</ele>
        <time>2014-07-12T13:05:21Z</time>
      </trkpt>
      <trkpt lat="59.8980446" lon="17.6346915">
        <ele>26.0929</ele>
        <time>2014-07-12T13:05:22Z</time>
      </trkpt>
      <trkpt lat="59.8980296" lon="17.634764">
        <ele>26.0929</ele>
        <time>2014-07-12T13:05:23Z</time>
      </trkpt>
      <trkpt lat="59.8980103" lon="17.6348417">
        <ele>25.6123</ele>
        <time>2014-07-12T13:05:24Z</time>
      </trkpt>
      <trkpt lat="59.8979862" lon="17.6349203">
        <ele>25.6123</ele>
        <time>2014-07-12T13:05:25Z</time>
      </trkpt>
      <trkpt lat="59.8979639" lon="17.6349976">
        <ele>25.6123</ele>
        <time>2014-07-12T13:05:26Z</time>
      </trkpt>
      <trkpt lat="59.8979442" lon="17.635074">
        <ele>25.6123</ele>
        <time>2014-07-12T13:05:27Z</time>
      </trkpt>
      <trkpt lat="59.8979277" lon="17.6351502">
        <ele>25.6123</ele>
        <time>2014-07-12T13:05:28Z</time>
      </trkpt>
      <trkpt lat="59.897923" lon="17.635227">
        <ele>25.6123</ele>
        <time>2014-07-12T13:05:29Z</time>
      </trkpt>
      <trkpt lat="59.8979336" lon="17.6352966">
        <ele>25.6123</ele>
        <time>2014-07-12T13:05:30Z</time>
      </trkpt>
      <trkpt lat="59.8979567" lon="17.6353463">
        <ele>25.6123</ele>
        <time>2014-07-12T13:05:31Z</time>
      </trkpt>
      <trkpt lat="59.897986" lon="17.6353815">
        <ele>25.6123</ele>
        <time>2014-07-12T13:05:32Z</time>
      </trkpt>
      <trkpt lat="59.8980157" lon="17.6354185">
        <ele>25.6123</ele>
        <time>2014-07-12T13:05:33Z</time>
      </trkpt>
      <trkpt lat="59.8980406" lon="17.6354674">
        <ele>25.6123</ele>
        <time>2014-07-12T13:05:34Z</time>
      </trkpt>
      <trkpt lat="59.8980586" lon="17.6355301">
        <ele>26.0929</ele>
        <time>2014-07-12T13:05:35Z</time>
      </trkpt>
      <trkpt lat="59.8980644" lon="17.6355986">
        <ele>26.0929</ele>
        <time>2014-07-12T13:05:36Z</time>
      </trkpt>
      <trkpt lat="59.8980602" lon="17.6356631">
        <ele>26.0929</ele>
        <time>2014-07-12T13:05:37Z</time>
      </trkpt>
      <trkpt lat="59.898052" lon="17.6357228">
        <ele>25.6123</ele>
        <time>2014-07-12T13:05:38Z</time>
      </trkpt>
      <trkpt lat="59.8980424" lon="17.6357798">
        <ele>25.6123</ele>
        <time>2014-07-12T13:05:39Z</time>
      </trkpt>
      <trkpt lat="59.8980303" lon="17.6358332">
        <ele>25.6123</ele>
        <time>2014-07-12T13:05:40Z</time>
      </trkpt>
      <trkpt lat="59.8980183" lon="17.6358762">
        <ele>25.6123</ele>
        <time>2014-07-12T13:05:41Z</time>
      </trkpt>
      <trkpt lat="59.8980113" lon="17.635905">
        <ele>25.1317</ele>
        <time>2014-07-12T13:05:42Z</time>
      </trkpt>
      <trkpt lat="59.8980093" lon="17.6359151">
        <ele>25.1317</ele>
        <time>2014-07-12T13:05:43Z</time>
      </trkpt>
      <trkpt lat="59.898008" lon="17.6359264">
        <ele>25.6123</ele>
        <time>2014-07-12T13:05:44Z</time>
      </trkpt>
      <trkpt lat="59.8980093" lon="17.6359228">
        <ele>26.0929</ele>
        <time>2014-07-12T13:05:45Z</time>
      </trkpt>
      <trkpt lat="59.8980111" lon="17.635917">
        <ele>25.6123</ele>
        <time>2014-07-12T13:05:46Z</time>
      </trkpt>
      <trkpt lat="59.8979716" lon="17.636038">
        <ele>26.0929</ele>
        <time>2014-07-12T13:06:24Z</time>
      </trkpt>
      <trkpt lat="59.8979607" lon="17.6360683">
        <ele>25.6123</ele>
        <time>2014-07-12T13:06:25Z</time>
      </trkpt>
      <trkpt lat="59.8979455" lon="17.6361003">
        <ele>25.6123</ele>
        <time>2014-07-12T13:06:26Z</time>
      </trkpt>
      <trkpt lat="59.8979301" lon="17.6361319">
        <ele>25.6123</ele>
        <time>2014-07-12T13:06:27Z</time>
      </trkpt>
      <trkpt lat="59.8979161" lon="17.6361693">
        <ele>26.0929</ele>
        <time>2014-07-12T13:06:28Z</time>
      </trkpt>
      <trkpt lat="59.8978996" lon="17.6362123">
        <ele>26.0929</ele>
        <time>2014-07-12T13:06:29Z</time>
      </trkpt>
      <trkpt lat="59.8978804" lon="17.6362548">
        <ele>26.0929</ele>
        <time>2014-07-12T13:06:30Z</time>
      </trkpt>
      <trkpt lat="59.8978635" lon="17.6363043">
        <ele>25.6123</ele>
        <time>2014-07-12T13:06:31Z</time>
      </trkpt>
      <trkpt lat="59.8978464" lon="17.6363611">
        <ele>25.6123</ele>
        <time>2014-07-12T13:06:32Z</time>
      </trkpt>
      <trkpt lat="59.8978288" lon="17.6364199">
        <ele>25.6123</ele>
        <time>2014-07-12T13:06:33Z</time>
      </trkpt>
      <trkpt lat="59.8978119" lon="17.6364874">
        <ele>25.1317</ele>
        <time>2014-07-12T13:06:34Z</time>
      </trkpt>
      <trkpt lat="59.8977953" lon="17.6365568">
        <ele>25.6123</ele>
        <time>2014-07-12T13:06:35Z</time>
      </trkpt>
      <trkpt lat="59.8977872" lon="17.636627">
        <ele>25.6123</ele>
        <time>2014-07-12T13:06:36Z</time>
      </trkpt>
      <trkpt lat="59.8977945" lon="17.636698">
        <ele>25.6123</ele>
        <time>2014-07-12T13:06:37Z</time>
      </trkpt>
      <trkpt lat="59.8978156" lon="17.6367584">
        <ele>25.6123</ele>
        <time>2014-07-12T13:06:38Z</time>
      </trkpt>
      <trkpt lat="59.8978426" lon="17.636821">
        <ele>25.6123</ele>
        <time>2014-07-12T13:06:39Z</time>
      </trkpt>
      <trkpt lat="59.8978742" lon="17.636891">
        <ele>25.6123</ele>
        <time>2014-07-12T13:06:40Z</time>
      </trkpt>
      <trkpt lat="59.8979115" lon="17.6369628">
        <ele>25.6123</ele>
        <time>2014-07-12T13:06:41Z</time>
      </trkpt>
      <trkpt lat="59.8979549" lon="17.6370337">
        <ele>25.1317</ele>
        <time>2014-07-12T13:06:42Z</time>
      </trkpt>
      <trkpt lat="59.8980032" lon="17.6371007">
        <ele>25.1317</ele>
        <time>2014-07-12T13:06:43Z</time>
      </trkpt>
      <trkpt lat="59.8980551" lon="17.637166">
        <ele>25.6123</ele>
        <time>2014-07-12T13:06:44Z</time>
      </trkpt>
      <trkpt lat="59.8981095" lon="17.6372249">
        <ele>25.6123</ele>
        <time>2014-07-12T13:06:45Z</time>
      </trkpt>
      <trkpt lat="59.898166" lon="17.6372773">
        <ele>25.6123</ele>
        <time>2014-07-12T13:06:46Z</time>
      </trkpt>
      <trkpt lat="59.8982222" lon="17.6373292">
        <ele>25.6123</ele>
        <time>2014-07-12T13:06:47Z</time>
      </trkpt>
      <trkpt lat="59.8982753" lon="17.6373871">
        <ele>25.6123</ele>
        <time>2014-07-12T13:06:48Z</time>
      </trkpt>
      <trkpt lat="59.8983274" lon="17.6374473">
        <ele>25.6123</ele>
        <time>2014-07-12T13:06:49Z</time>
      </trkpt>
      <trkpt lat="59.8983814" lon="17.6375032">
        <ele>25.6123</ele>
        <time>2014-07-12T13:06:50Z</time>
      </trkpt>
      <trkpt lat="59.8984378" lon="17.6375543">
        <ele>25.6123</ele>
        <time>2014-07-12T13:06:51Z</time>
      </trkpt>
      <trkpt lat="59.8984949" lon="17.6375999">
        <ele>25.6123</ele>
        <time>2014-07-12T13:06:52Z</time>
      </trkpt>
      <trkpt lat="59.8985533" lon="17.6376374">
        <ele>25.6123</ele>
        <time>2014-07-12T13:06:53Z</time>
      </trkpt>
      <trkpt lat="59.8986145" lon="17.6376617">
        <ele>25.6123</ele>
        <time>2014-07-12T13:06:54Z</time>
      </trkpt>
      <trkpt lat="59.8986781" lon="17.6376719">
        <ele>25.6123</ele>
        <time>2014-07-12T13:06:55Z</time>
      </trkpt>
      <trkpt lat="59.8987436" lon="17.6376745">
        <ele>25.6123</ele>
        <time>2014-07-12T13:06:56Z</time>
      </trkpt>
      <trkpt lat="59.8988097" lon="17.637685">
        <ele>25.6123</ele>
        <time>2014-07-12T13:06:57Z</time>
      </trkpt>
      <trkpt lat="59.898876" lon="17.6377105">
        <ele>25.6123</ele>
        <time>2014-07-12T13:06:58Z</time>
      </trkpt>
      <trkpt lat="59.8989414" lon="17.6377482">
        <ele>26.0929</ele>
        <time>2014-07-12T13:06:59Z</time>
      </trkpt>
      <trkpt lat="59.8990051" lon="17.6377954">
        <ele>26.0929</ele>
        <time>2014-07-12T13:07:00Z</time>
      </trkpt>
      <trkpt lat="59.8990661" lon="17.6378534">
        <ele>26.0929</ele>
        <time>2014-07-12T13:07:01Z</time>
      </trkpt>
      <trkpt lat="59.8991256" lon="17.6379171">
        <ele>26.5736</ele>
        <time>2014-07-12T13:07:02Z</time>
      </trkpt>
      <trkpt lat="59.8991848" lon="17.6379818">
        <ele>26.5736</ele>
        <time>2014-07-12T13:07:03Z</time>
      </trkpt>
      <trkpt lat="59.8992449" lon="17.6380454">
        <ele>26.5736</ele>
        <time>2014-07-12T13:07:04Z</time>
      </trkpt>
      <trkpt lat="59.8993072" lon="17.6381051">
        <ele>27.0543</ele>
        <time>2014-07-12T13:07:05Z</time>
      </trkpt>
      <trkpt lat="59.8993719" lon="17.6381605">
        <ele>27.0543</ele>
        <time>2014-07-12T13:07:06Z</time>
      </trkpt>
      <trkpt lat="59.8994385" lon="17.6382123">
        <ele>27.0543</ele>
        <time>2014-07-12T13:07:07Z</time>
      </trkpt>
      <trkpt lat="59.8995058" lon="17.6382609">
        <ele>27.0543</ele>
        <time>2014-07-12T13:07:08Z</time>
      </trkpt>
      <trkpt lat="59.8995752" lon="17.6383095">
        <ele>27.0543</ele>
        <time>2014-07-12T13:07:09Z</time>
      </trkpt>
      <trkpt lat="59.8996458" lon="17.6383601">
        <ele>27.0543</ele>
        <time>2014-07-12T13:07:10Z</time>
      </trkpt>
      <trkpt lat="59.8997166" lon="17.6384118">
        <ele>27.0543</ele>
        <time>2014-07-12T13:07:11Z</time>
      </trkpt>
      <trkpt lat="59.8997874" lon="17.6384662">
        <ele>26.5736</ele>
        <time>2014-07-12T13:07:12Z</time>
      </trkpt>
      <trkpt lat="59.8998588" lon="17.6385242">
        <ele>26.5736</ele>
        <time>2014-07-12T13:07:13Z</time>
      </trkpt>
      <trkpt lat="59.8999317" lon="17.6385818">
        <ele>26.5736</ele>
        <time>2014-07-12T13:07:14Z</time>
      </trkpt>
      <trkpt lat="59.900006" lon="17.6386377">
        <ele>26.0929</ele>
        <time>2014-07-12T13:07:15Z</time>
      </trkpt>
      <trkpt lat="59.9000824" lon="17.6386926">
        <ele>26.0929</ele>
        <time>2014-07-12T13:07:16Z</time>
      </trkpt>
      <trkpt lat="59.9001601" lon="17.6387493">
        <ele>25.6123</ele>
        <time>2014-07-12T13:07:17Z</time>
      </trkpt>
      <trkpt lat="59.9002382" lon="17.6388094">
        <ele>25.6123</ele>
        <time>2014-07-12T13:07:18Z</time>
      </trkpt>
      <trkpt lat="59.9003171" lon="17.6388713">
        <ele>25.1317</ele>
        <time>2014-07-12T13:07:19Z</time>
      </trkpt>
      <trkpt lat="59.9003969" lon="17.6389338">
        <ele>25.1317</ele>
        <time>2014-07-12T13:07:20Z</time>
      </trkpt>
      <trkpt lat="59.900477" lon="17.6389985">
        <ele>24.651</ele>
        <time>2014-07-12T13:07:21Z</time>
      </trkpt>
      <trkpt lat="59.9005563" lon="17.6390655">
        <ele>24.651</ele>
        <time>2014-07-12T13:07:22Z</time>
      </trkpt>
      <trkpt lat="59.9006346" lon="17.6391319">
        <ele>24.651</ele>
        <time>2014-07-12T13:07:23Z</time>
      </trkpt>
      <trkpt lat="59.900712" lon="17.6391958">
        <ele>24.1703</ele>
        <time>2014-07-12T13:07:24Z</time>
      </trkpt>
      <trkpt lat="59.9007885" lon="17.6392598">
        <ele>24.1703</ele>
        <time>2014-07-12T13:07:25Z</time>
      </trkpt>
      <trkpt lat="59.9008632" lon="17.6393264">
        <ele>24.1703</ele>
        <time>2014-07-12T13:07:26Z</time>
      </trkpt>
      <trkpt lat="59.9009378" lon="17.6393924">
        <ele>24.1703</ele>
        <time>2014-07-12T13:07:27Z</time>
      </trkpt>
      <trkpt lat="59.9010116" lon="17.6394564">
        <ele>24.1703</ele>
        <time>2014-07-12T13:07:28Z</time>
      </trkpt>
      <trkpt lat="59.9010838" lon="17.6395192">
        <ele>24.1703</ele>
        <time>2014-07-12T13:07:29Z</time>
      </trkpt>
      <trkpt lat="59.9011549" lon="17.6395809">
        <ele>24.1703</ele>
        <time>2014-07-12T13:07:30Z</time>
      </trkpt>
      <trkpt lat="59.9012252" lon="17.6396434">
        <ele>24.1703</ele>
        <time>2014-07-12T13:07:31Z</time>
      </trkpt>
      <trkpt lat="59.901294" lon="17.6397079">
        <ele>24.1703</ele>
        <time>2014-07-12T13:07:32Z</time>
      </trkpt>
      <trkpt lat="59.9013618" lon="17.639772">
        <ele>24.1703</ele>
        <time>2014-07-12T13:07:33Z</time>
      </trkpt>
      <trkpt lat="59.9014293" lon="17.6398347">
        <ele>23.6896</ele>
        <time>2014-07-12T13:07:34Z</time>
      </trkpt>
      <trkpt lat="59.9014963" lon="17.6398983">
        <ele>23.6896</ele>
        <time>2014-07-12T13:07:35Z</time>
      </trkpt>
      <trkpt lat="59.9015639" lon="17.639963">
        <ele>23.6896</ele>
        <time>2014-07-12T13:07:36Z</time>
      </trkpt>
      <trkpt lat="59.9016318" lon="17.640028">
        <ele>23.6896</ele>
        <time>2014-07-12T13:07:37Z</time>
      </trkpt>
      <trkpt lat="59.9016997" lon="17.6400948">
        <ele>23.6896</ele>
        <time>2014-07-12T13:07:38Z</time>
      </trkpt>
      <trkpt lat="59.9017684" lon="17.6401624">
        <ele>23.6896</ele>
        <time>2014-07-12T13:07:39Z</time>
      </trkpt>
      <trkpt lat="59.9018375" lon="17.6402291">
        <ele>23.6896</ele>
        <time>2014-07-12T13:07:40Z</time>
      </trkpt>
      <trkpt lat="59.901907" lon="17.6402957">
        <ele>23.6896</ele>
        <time>2014-07-12T13:07:41Z</time>
      </trkpt>
      <trkpt lat="59.9019763" lon="17.6403619">
        <ele>23.6896</ele>
        <time>2014-07-12T13:07:42Z</time>
      </trkpt>
      <trkpt lat="59.9020454" lon="17.6404277">
        <ele>23.6896</ele>
        <time>2014-07-12T13:07:43Z</time>
      </trkpt>
      <trkpt lat="59.9021137" lon="17.6404933">
        <ele>23.209</ele>
        <time>2014-07-12T13:07:44Z</time>
      </trkpt>
      <trkpt lat="59.9021815" lon="17.6405577">
        <ele>23.209</ele>
        <time>2014-07-12T13:07:45Z</time>
      </trkpt>
      <trkpt lat="59.9022489" lon="17.6406209">
        <ele>23.209</ele>
        <time>2014-07-12T13:07:46Z</time>
      </trkpt>
      <trkpt lat="59.9023152" lon="17.6406856">
        <ele>23.209</ele>
        <time>2014-07-12T13:07:47Z</time>
      </trkpt>
      <trkpt lat="59.9023807" lon="17.6407515">
        <ele>23.209</ele>
        <time>2014-07-12T13:07:48Z</time>
      </trkpt>
      <trkpt lat="59.9024457" lon="17.6408159">
        <ele>23.209</ele>
        <time>2014-07-12T13:07:49Z</time>
      </trkpt>
      <trkpt lat="59.9025107" lon="17.640878">
        <ele>23.209</ele>
        <time>2014-07-12T13:07:50Z</time>
      </trkpt>
      <trkpt lat="59.9025748" lon="17.6409391">
        <ele>23.209</ele>
        <time>2014-07-12T13:07:51Z</time>
      </trkpt>
      <trkpt lat="59.9026384" lon="17.6410003">
        <ele>23.209</ele>
        <time>2014-07-12T13:07:52Z</time>
      </trkpt>
      <trkpt lat="59.9027017" lon="17.6410604">
        <ele>23.209</ele>
        <time>2014-07-12T13:07:53Z</time>
      </trkpt>
      <trkpt lat="59.9027643" lon="17.6411194">
        <ele>23.209</ele>
        <time>2014-07-12T13:07:54Z</time>
      </trkpt>
      <trkpt lat="59.9028264" lon="17.6411791">
        <ele>23.209</ele>
        <time>2014-07-12T13:07:55Z</time>
      </trkpt>
      <trkpt lat="59.9028874" lon="17.6412422">
        <ele>23.209</ele>
        <time>2014-07-12T13:07:56Z</time>
      </trkpt>
      <trkpt lat="59.9029443" lon="17.6413164">
        <ele>23.209</ele>
        <time>2014-07-12T13:07:57Z</time>
      </trkpt>
      <trkpt lat="59.9029964" lon="17.6414043">
        <ele>23.209</ele>
        <time>2014-07-12T13:07:58Z</time>
      </trkpt>
      <trkpt lat="59.9030451" lon="17.6414994">
        <ele>23.209</ele>
        <time>2014-07-12T13:07:59Z</time>
      </trkpt>
      <trkpt lat="59.9030931" lon="17.6415927">
        <ele>23.209</ele>
        <time>2014-07-12T13:08:00Z</time>
      </trkpt>
      <trkpt lat="59.9031433" lon="17.6416784">
        <ele>23.209</ele>
        <time>2014-07-12T13:08:01Z</time>
      </trkpt>
      <trkpt lat="59.9031978" lon="17.6417534">
        <ele>23.209</ele>
        <time>2014-07-12T13:08:02Z</time>
      </trkpt>
      <trkpt lat="59.9032567" lon="17.6418156">
        <ele>23.209</ele>
        <time>2014-07-12T13:08:03Z</time>
      </trkpt>
      <trkpt lat="59.9033185" lon="17.641866">
        <ele>23.209</ele>
        <time>2014-07-12T13:08:04Z</time>
      </trkpt>
      <trkpt lat="59.9033822" lon="17.6419066">
        <ele>23.6896</ele>
        <time>2014-07-12T13:08:05Z</time>
      </trkpt>
      <trkpt lat="59.9034463" lon="17.6419452">
        <ele>23.6896</ele>
        <time>2014-07-12T13:08:06Z</time>
      </trkpt>
      <trkpt lat="59.9035086" lon="17.6419876">
        <ele>23.6896</ele>
        <time>2014-07-12T13:08:07Z</time>
      </trkpt>
      <trkpt lat="59.9035698" lon="17.6420208">
        <ele>24.1703</ele>
        <time>2014-07-12T13:08:08Z</time>
      </trkpt>
      <trkpt lat="59.9036299" lon="17.6420294">
        <ele>24.1703</ele>
        <time>2014-07-12T13:08:09Z</time>
      </trkpt>
      <trkpt lat="59.9036906" lon="17.6420301">
        <ele>23.6896</ele>
        <time>2014-07-12T13:08:10Z</time>
      </trkpt>
      <trkpt lat="59.9037531" lon="17.6420482">
        <ele>23.6896</ele>
        <time>2014-07-12T13:08:11Z</time>
      </trkpt>
      <trkpt lat="59.9038159" lon="17.6420772">
        <ele>23.6896</ele>
        <time>2014-07-12T13:08:12Z</time>
      </trkpt>
      <trkpt lat="59.9038804" lon="17.6421077">
        <ele>23.6896</ele>
        <time>2014-07-12T13:08:13Z</time>
      </trkpt>
      <trkpt lat="59.9039468" lon="17.6421402">
        <ele>23.209</ele>
        <time>2014-07-12T13:08:14Z</time>
      </trkpt>
      <trkpt lat="59.9040142" lon="17.6421751">
        <ele>23.209</ele>
        <time>2014-07-12T13:08:15Z</time>
      </trkpt>
      <trkpt lat="59.9040821" lon="17.642212">
        <ele>23.209</ele>
        <time>2014-07-12T13:08:16Z</time>
      </trkpt>
      <trkpt lat="59.9041505" lon="17.6422502">
        <ele>23.209</ele>
        <time>2014-07-12T13:08:17Z</time>
      </trkpt>
      <trkpt lat="59.9042191" lon="17.6422904">
        <ele>22.7283</ele>
        <time>2014-07-12T13:08:18Z</time>
      </trkpt>
      <trkpt lat="59.9042888" lon="17.6423311">
        <ele>22.7283</ele>
        <time>2014-07-12T13:08:19Z</time>
      </trkpt>
      <trkpt lat="59.9043601" lon="17.6423712">
        <ele>22.7283</ele>
        <time>2014-07-12T13:08:20Z</time>
      </trkpt>
      <trkpt lat="59.9044323" lon="17.6424116">
        <ele>22.2476</ele>
        <time>2014-07-12T13:08:21Z</time>
      </trkpt>
      <trkpt lat="59.9045048" lon="17.6424536">
        <ele>22.2476</ele>
        <time>2014-07-12T13:08:22Z</time>
      </trkpt>
      <trkpt lat="59.9045783" lon="17.6424953">
        <ele>22.2476</ele>
        <time>2014-07-12T13:08:23Z</time>
      </trkpt>
      <trkpt lat="59.9046525" lon="17.6425393">
        <ele>22.2476</ele>
        <time>2014-07-12T13:08:24Z</time>
      </trkpt>
      <trkpt lat="59.904726" lon="17.6425919">
        <ele>21.767</ele>
        <time>2014-07-12T13:08:25Z</time>
      </trkpt>
      <trkpt lat="59.904797" lon="17.6426501">
        <ele>21.767</ele>
        <time>2014-07-12T13:08:26Z</time>
      </trkpt>
      <trkpt lat="59.9048665" lon="17.6427036">
        <ele>22.2476</ele>
        <time>2014-07-12T13:08:27Z</time>
      </trkpt>
      <trkpt lat="59.9049351" lon="17.6427464">
        <ele>22.2476</ele>
        <time>2014-07-12T13:08:28Z</time>
      </trkpt>
      <trkpt lat="59.9050021" lon="17.6427781">
        <ele>22.2476</ele>
        <time>2014-07-12T13:08:29Z</time>
      </trkpt>
      <trkpt lat="59.9050672" lon="17.6428053">
        <ele>22.2476</ele>
        <time>2014-07-12T13:08:30Z</time>
      </trkpt>
      <trkpt lat="59.90513" lon="17.642832">
        <ele>22.2476</ele>
        <time>2014-07-12T13:08:31Z</time>
      </trkpt>
      <trkpt lat="59.9051905" lon="17.6428604">
        <ele>22.2476</ele>
        <time>2014-07-12T13:08:32Z</time>
      </trkpt>
      <trkpt lat="59.9052484" lon="17.6428905">
        <ele>22.2476</ele>
        <time>2014-07-12T13:08:33Z</time>
      </trkpt>
      <trkpt lat="59.9053061" lon="17.6429179">
        <ele>22.2476</ele>
        <time>2014-07-12T13:08:34Z</time>
      </trkpt>
      <trkpt lat="59.905364" lon="17.6429414">
        <ele>22.2476</ele>
        <time>2014-07-12T13:08:35Z</time>
      </trkpt>
      <trkpt lat="59.9054209" lon="17.6429602">
        <ele>22.2476</ele>
        <time>2014-07-12T13:08:36Z</time>
      </trkpt>
      <trkpt lat="59.9054746" lon="17.6429842">
        <ele>22.2476</ele>
        <time>2014-07-12T13:08:37Z</time>
      </trkpt>
      <trkpt lat="59.9055221" lon="17.6430267">
        <ele>22.2476</ele>
        <time>2014-07-12T13:08:38Z</time>
      </trkpt>
      <trkpt lat="59.9055658" lon="17.6430778">
        <ele>22.2476</ele>
        <time>2014-07-12T13:08:39Z</time>
      </trkpt>
      <trkpt lat="59.9056066" lon="17.6431365">
        <ele>22.2476</ele>
        <time>2014-07-12T13:08:40Z</time>
      </trkpt>
      <trkpt lat="59.9056455" lon="17.6432019">
        <ele>22.2476</ele>
        <time>2014-07-12T13:08:41Z</time>
      </trkpt>
      <trkpt lat="59.905688" lon="17.643255">
        <ele>22.7283</ele>
        <time>2014-07-12T13:08:42Z</time>
      </trkpt>
      <trkpt lat="59.9057366" lon="17.6432915">
        <ele>22.7283</ele>
        <time>2014-07-12T13:08:43Z</time>
      </trkpt>
      <trkpt lat="59.9057868" lon="17.6433308">
        <ele>22.7283</ele>
        <time>2014-07-12T13:08:44Z</time>
      </trkpt>
      <trkpt lat="59.9058303" lon="17.6433972">
        <ele>22.7283</ele>
        <time>2014-07-12T13:08:45Z</time>
      </trkpt>
      <trkpt lat="59.9058595" lon="17.6434955">
        <ele>22.7283</ele>
        <time>2014-07-12T13:08:46Z</time>
      </trkpt>
      <trkpt lat="59.9058796" lon="17.6436085">
        <ele>22.2476</ele>
        <time>2014-07-12T13:08:47Z</time>
      </trkpt>
      <trkpt lat="59.9058983" lon="17.6437229">
        <ele>22.2476</ele>
        <time>2014-07-12T13:08:48Z</time>
      </trkpt>
      <trkpt lat="59.9059189" lon="17.6438342">
        <ele>22.2476</ele>
        <time>2014-07-12T13:08:49Z</time>
      </trkpt>
      <trkpt lat="59.9059436" lon="17.6439436">
        <ele>22.2476</ele>
        <time>2014-07-12T13:08:50Z</time>
      </trkpt>
      <trkpt lat="59.9059724" lon="17.6440528">
        <ele>22.2476</ele>
        <time>2014-07-12T13:08:51Z</time>
      </trkpt>
      <trkpt lat="59.9060034" lon="17.6441626">
        <ele>22.2476</ele>
        <time>2014-07-12T13:08:52Z</time>
      </trkpt>
      <trkpt lat="59.9060346" lon="17.6442723">
        <ele>22.2476</ele>
        <time>2014-07-12T13:08:53Z</time>
      </trkpt>
      <trkpt lat="59.9060646" lon="17.6443825">
        <ele>22.2476</ele>
        <time>2014-07-12T13:08:54Z</time>
      </trkpt>
      <trkpt lat="59.9060931" lon="17.6444927">
        <ele>22.2476</ele>
        <time>2014-07-12T13:08:55Z</time>
      </trkpt>
      <trkpt lat="59.906121" lon="17.6446026">
        <ele>22.7283</ele>
        <time>2014-07-12T13:08:56Z</time>
      </trkpt>
      <trkpt lat="59.9061458" lon="17.6447163">
        <ele>22.7283</ele>
        <time>2014-07-12T13:08:57Z</time>
      </trkpt>
      <trkpt lat="59.9061633" lon="17.644833">
        <ele>22.7283</ele>
        <time>2014-07-12T13:08:58Z</time>
      </trkpt>
      <trkpt lat="59.9061711" lon="17.6449527">
        <ele>22.7283</ele>
        <time>2014-07-12T13:08:59Z</time>
      </trkpt>
      <trkpt lat="59.9061733" lon="17.6450723">
        <ele>23.209</ele>
        <time>2014-07-12T13:09:00Z</time>
      </trkpt>
      <trkpt lat="59.9061736" lon="17.6451905">
        <ele>23.6896</ele>
        <time>2014-07-12T13:09:01Z</time>
      </trkpt>
      <trkpt lat="59.9061694" lon="17.6453073">
        <ele>23.6896</ele>
        <time>2014-07-12T13:09:02Z</time>
      </trkpt>
      <trkpt lat="59.9061609" lon="17.645421">
        <ele>24.1703</ele>
        <time>2014-07-12T13:09:03Z</time>
      </trkpt>
      <trkpt lat="59.90615" lon="17.6455348">
        <ele>24.1703</ele>
        <time>2014-07-12T13:09:04Z</time>
      </trkpt>
      <trkpt lat="59.9061365" lon="17.6456437">
        <ele>24.651</ele>
        <time>2014-07-12T13:09:05Z</time>
      </trkpt>
      <trkpt lat="59.9061239" lon="17.6457483">
        <ele>24.651</ele>
        <time>2014-07-12T13:09:06Z</time>
      </trkpt>
      <trkpt lat="59.9061128" lon="17.6458509">
        <ele>24.651</ele>
        <time>2014-07-12T13:09:07Z</time>
      </trkpt>
      <trkpt lat="59.9061012" lon="17.6459509">
        <ele>25.1317</ele>
        <time>2014-07-12T13:09:08Z</time>
      </trkpt>
      <trkpt lat="59.9060857" lon="17.646046">
        <ele>25.1317</ele>
        <time>2014-07-12T13:09:09Z</time>
      </trkpt>
      <trkpt lat="59.906069" lon="17.6461363">
        <ele>25.1317</ele>
        <time>2014-07-12T13:09:10Z</time>
      </trkpt>
      <trkpt lat="59.9060548" lon="17.6462247">
        <ele>25.6123</ele>
        <time>2014-07-12T13:09:11Z</time>
      </trkpt>
      <trkpt lat="59.9060425" lon="17.6463136">
        <ele>25.6123</ele>
        <time>2014-07-12T13:09:12Z</time>
      </trkpt>
      <trkpt lat="59.9060298" lon="17.6464057">
        <ele>25.6123</ele>
        <time>2014-07-12T13:09:13Z</time>
      </trkpt>
      <trkpt lat="59.9060163" lon="17.6465011">
        <ele>25.6123</ele>
        <time>2014-07-12T13:09:14Z</time>
      </trkpt>
      <trkpt lat="59.9060027" lon="17.646599">
        <ele>25.6123</ele>
        <time>2014-07-12T13:09:15Z</time>
      </trkpt>
      <trkpt lat="59.9059902" lon="17.6466987">
        <ele>25.6123</ele>
        <time>2014-07-12T13:09:16Z</time>
      </trkpt>
      <trkpt lat="59.9059771" lon="17.6467983">
        <ele>25.6123</ele>
        <time>2014-07-12T13:09:17Z</time>
      </trkpt>
      <trkpt lat="59.905963" lon="17.6468987">
        <ele>25.6123</ele>
        <time>2014-07-12T13:09:18Z</time>
      </trkpt>
      <trkpt lat="59.9059516" lon="17.6470013">
        <ele>25.6123</ele>
        <time>2014-07-12T13:09:19Z</time>
      </trkpt>
      <trkpt lat="59.9059441" lon="17.6471064">
        <ele>25.6123</ele>
        <time>2014-07-12T13:09:20Z</time>
      </trkpt>
      <trkpt lat="59.9059398" lon="17.6472138">
        <ele>26.0929</ele>
        <time>2014-07-12T13:09:21Z</time>
      </trkpt>
      <trkpt lat="59.9059386" lon="17.6473242">
        <ele>26.0929</ele>
        <time>2014-07-12T13:09:22Z</time>
      </trkpt>
      <trkpt lat="59.9059392" lon="17.6474379">
        <ele>26.0929</ele>
        <time>2014-07-12T13:09:23Z</time>
      </trkpt>
      <trkpt lat="59.9059417" lon="17.647554">
        <ele>26.0929</ele>
        <time>2014-07-12T13:09:24Z</time>
      </trkpt>
      <trkpt lat="59.9059473" lon="17.6476713">
        <ele>26.0929</ele>
        <time>2014-07-12T13:09:25Z</time>
      </trkpt>
      <trkpt lat="59.9059574" lon="17.6477896">
        <ele>26.0929</ele>
        <time>2014-07-12T13:09:26Z</time>
      </trkpt>
      <trkpt lat="59.9059723" lon="17.6479069">
        <ele>26.0929</ele>
        <time>2014-07-12T13:09:27Z</time>
      </trkpt>
      <trkpt lat="59.905992" lon="17.6480217">
        <ele>26.0929</ele>
        <time>2014-07-12T13:09:28Z</time>
      </trkpt>
      <trkpt lat="59.9060164" lon="17.6481334">
        <ele>26.0929</ele>
        <time>2014-07-12T13:09:29Z</time>
      </trkpt>
      <trkpt lat="59.9060446" lon="17.6482421">
        <ele>26.5736</ele>
        <time>2014-07-12T13:09:30Z</time>
      </trkpt>
      <trkpt lat="59.9060757" lon="17.648348">
        <ele>26.5736</ele>
        <time>2014-07-12T13:09:31Z</time>
      </trkpt>
      <trkpt lat="59.906109" lon="17.6484518">
        <ele>26.5736</ele>
        <time>2014-07-12T13:09:32Z</time>
      </trkpt>
      <trkpt lat="59.9061443" lon="17.6485544">
        <ele>26.5736</ele>
        <time>2014-07-12T13:09:33Z</time>
      </trkpt>
      <trkpt lat="59.9061822" lon="17.648655">
        <ele>26.5736</ele>
        <time>2014-07-12T13:09:34Z</time>
      </trkpt>
      <trkpt lat="59.9062228" lon="17.6487523">
        <ele>26.5736</ele>
        <time>2014-07-12T13:09:35Z</time>
      </trkpt>
      <trkpt lat="59.9062646" lon="17.6488493">
        <ele>26.5736</ele>
        <time>2014-07-12T13:09:36Z</time>
      </trkpt>
      <trkpt lat="59.9063064" lon="17.6489471">
        <ele>26.5736</ele>
        <time>2014-07-12T13:09:37Z</time>
      </trkpt>
      <trkpt lat="59.9063464" lon="17.6490466">
        <ele>26.5736</ele>
        <time>2014-07-12T13:09:38Z</time>
      </trkpt>
      <trkpt lat="59.9063836" lon="17.649149">
        <ele>27.0543</ele>
        <time>2014-07-12T13:09:39Z</time>
      </trkpt>
      <trkpt lat="59.9064183" lon="17.6492533">
        <ele>27.0543</ele>
        <time>2014-07-12T13:09:40Z</time>
      </trkpt>
      <trkpt lat="59.9064504" lon="17.6493605">
        <ele>27.0543</ele>
        <time>2014-07-12T13:09:41Z</time>
      </trkpt>
      <trkpt lat="59.90648" lon="17.6494698">
        <ele>27.5349</ele>
        <time>2014-07-12T13:09:42Z</time>
      </trkpt>
      <trkpt lat="59.9065082" lon="17.6495776">
        <ele>27.5349</ele>
        <time>2014-07-12T13:09:43Z</time>
      </trkpt>
      <trkpt lat="59.9065349" lon="17.6496842">
        <ele>28.0155</ele>
        <time>2014-07-12T13:09:44Z</time>
      </trkpt>
      <trkpt lat="59.9065597" lon="17.6497888">
        <ele>28.0155</ele>
        <time>2014-07-12T13:09:45Z</time>
      </trkpt>
      <trkpt lat="59.9065841" lon="17.6498892">
        <ele>28.0155</ele>
        <time>2014-07-12T13:09:46Z</time>
      </trkpt>
      <trkpt lat="59.9066092" lon="17.6499883">
        <ele>28.4962</ele>
        <time>2014-07-12T13:09:47Z</time>
      </trkpt>
      <trkpt lat="59.9066325" lon="17.6500862">
        <ele>28.4962</ele>
        <time>2014-07-12T13:09:48Z</time>
      </trkpt>
      <trkpt lat="59.9066544" lon="17.6501836">
        <ele>28.9769</ele>
        <time>2014-07-12T13:09:49Z</time>
      </trkpt>
      <trkpt lat="59.9066763" lon="17.6502788">
        <ele>28.9769</ele>
        <time>2014-07-12T13:09:50Z</time>
      </trkpt>
      <trkpt lat="59.9066986" lon="17.6503737">
        <ele>28.9769</ele>
        <time>2014-07-12T13:09:51Z</time>
      </trkpt>
      <trkpt lat="59.9067209" lon="17.650469">
        <ele>28.9769</ele>
        <time>2014-07-12T13:09:52Z</time>
      </trkpt>
      <trkpt lat="59.9067435" lon="17.6505651">
        <ele>28.9769</ele>
        <time>2014-07-12T13:09:53Z</time>
      </trkpt>
      <trkpt lat="59.9067665" lon="17.6506618">
        <ele>28.9769</ele>
        <time>2014-07-12T13:09:54Z</time>
      </trkpt>
      <trkpt lat="59.9067893" lon="17.6507591">
        <ele>28.9769</ele>
        <time>2014-07-12T13:09:55Z</time>
      </trkpt>
      <trkpt lat="59.9068121" lon="17.650857">
        <ele>29.4575</ele>
        <time>2014-07-12T13:09:56Z</time>
      </trkpt>
      <trkpt lat="59.9068361" lon="17.6509555">
        <ele>29.4575</ele>
        <time>2014-07-12T13:09:57Z</time>
      </trkpt>
      <trkpt lat="59.9068607" lon="17.6510569">
        <ele>29.4575</ele>
        <time>2014-07-12T13:09:58Z</time>
      </trkpt>
      <trkpt lat="59.9068848" lon="17.6511619">
        <ele>29.4575</ele>
        <time>2014-07-12T13:09:59Z</time>
      </trkpt>
      <trkpt lat="59.9069078" lon="17.6512693">
        <ele>29.4575</ele>
        <time>2014-07-12T13:10:00Z</time>
      </trkpt>
      <trkpt lat="59.9069306" lon="17.6513784">
        <ele>29.4575</ele>
        <time>2014-07-12T13:10:01Z</time>
      </trkpt>
      <trkpt lat="59.9069537" lon="17.6514888">
        <ele>29.4575</ele>
        <time>2014-07-12T13:10:02Z</time>
      </trkpt>
      <trkpt lat="59.9069775" lon="17.6516013">
        <ele>29.4575</ele>
        <time>2014-07-12T13:10:03Z</time>
      </trkpt>
      <trkpt lat="59.9069995" lon="17.651717">
        <ele>29.4575</ele>
        <time>2014-07-12T13:10:04Z</time>
      </trkpt>
      <trkpt lat="59.9070192" lon="17.6518355">
        <ele>29.4575</ele>
        <time>2014-07-12T13:10:05Z</time>
      </trkpt>
      <trkpt lat="59.9070378" lon="17.6519566">
        <ele>29.9381</ele>
        <time>2014-07-12T13:10:06Z</time>
      </trkpt>
      <trkpt lat="59.9070542" lon="17.6520798">
        <ele>29.9381</ele>
        <time>2014-07-12T13:10:07Z</time>
      </trkpt>
      <trkpt lat="59.9070674" lon="17.6522054">
        <ele>29.9381</ele>
        <time>2014-07-12T13:10:08Z</time>
      </trkpt>
      <trkpt lat="59.9070767" lon="17.6523333">
        <ele>29.9381</ele>
        <time>2014-07-12T13:10:09Z</time>
      </trkpt>
      <trkpt lat="59.9070834" lon="17.6524618">
        <ele>29.9381</ele>
        <time>2014-07-12T13:10:10Z</time>
      </trkpt>
      <trkpt lat="59.9070881" lon="17.6525913">
        <ele>29.9381</ele>
        <time>2014-07-12T13:10:11Z</time>
      </trkpt>
      <trkpt lat="59.9070896" lon="17.6527213">
        <ele>29.9381</ele>
        <time>2014-07-12T13:10:12Z</time>
      </trkpt>
      <trkpt lat="59.907088" lon="17.6528522">
        <ele>29.9381</ele>
        <time>2014-07-12T13:10:13Z</time>
      </trkpt>
      <trkpt lat="59.907085" lon="17.6529834">
        <ele>29.9381</ele>
        <time>2014-07-12T13:10:14Z</time>
      </trkpt>
      <trkpt lat="59.907082" lon="17.6531156">
        <ele>29.9381</ele>
        <time>2014-07-12T13:10:15Z</time>
      </trkpt>
      <trkpt lat="59.9070791" lon="17.6532498">
        <ele>29.9381</ele>
        <time>2014-07-12T13:10:16Z</time>
      </trkpt>
      <trkpt lat="59.9070752" lon="17.6533849">
        <ele>29.9381</ele>
        <time>2014-07-12T13:10:17Z</time>
      </trkpt>
      <trkpt lat="59.907072" lon="17.6535204">
        <ele>29.9381</ele>
        <time>2014-07-12T13:10:18Z</time>
      </trkpt>
      <trkpt lat="59.9070689" lon="17.6536568">
        <ele>29.9381</ele>
        <time>2014-07-12T13:10:19Z</time>
      </trkpt>
      <trkpt lat="59.9070652" lon="17.6537937">
        <ele>29.9381</ele>
        <time>2014-07-12T13:10:20Z</time>
      </trkpt>
      <trkpt lat="59.907061" lon="17.6539308">
        <ele>29.9381</ele>
        <time>2014-07-12T13:10:21Z</time>
      </trkpt>
      <trkpt lat="59.9070563" lon="17.6540682">
        <ele>29.9381</ele>
        <time>2014-07-12T13:10:22Z</time>
      </trkpt>
      <trkpt lat="59.9070499" lon="17.6542064">
        <ele>29.9381</ele>
        <time>2014-07-12T13:10:23Z</time>
      </trkpt>
      <trkpt lat="59.9070441" lon="17.6543464">
        <ele>29.9381</ele>
        <time>2014-07-12T13:10:24Z</time>
      </trkpt>
      <trkpt lat="59.9070403" lon="17.6544876">
        <ele>29.4575</ele>
        <time>2014-07-12T13:10:25Z</time>
      </trkpt>
      <trkpt lat="59.9070366" lon="17.6546291">
        <ele>29.4575</ele>
        <time>2014-07-12T13:10:26Z</time>
      </trkpt>
      <trkpt lat="59.9070327" lon="17.6547699">
        <ele>29.4575</ele>
        <time>2014-07-12T13:10:27Z</time>
      </trkpt>
      <trkpt lat="59.9070301" lon="17.6549083">
        <ele>29.4575</ele>
        <time>2014-07-12T13:10:28Z</time>
      </trkpt>
      <trkpt lat="59.9070288" lon="17.6550454">
        <ele>29.9381</ele>
        <time>2014-07-12T13:10:29Z</time>
      </trkpt>
      <trkpt lat="59.907028" lon="17.6551813">
        <ele>29.9381</ele>
        <time>2014-07-12T13:10:30Z</time>
      </trkpt>
      <trkpt lat="59.907028" lon="17.6553154">
        <ele>29.9381</ele>
        <time>2014-07-12T13:10:31Z</time>
      </trkpt>
      <trkpt lat="59.9070281" lon="17.6554469">
        <ele>29.9381</ele>
        <time>2014-07-12T13:10:32Z</time>
      </trkpt>
      <trkpt lat="59.9070293" lon="17.6555754">
        <ele>29.9381</ele>
        <time>2014-07-12T13:10:33Z</time>
      </trkpt>
      <trkpt lat="59.907031" lon="17.6557005">
        <ele>30.4188</ele>
        <time>2014-07-12T13:10:34Z</time>
      </trkpt>
      <trkpt lat="59.9070331" lon="17.6558224">
        <ele>30.4188</ele>
        <time>2014-07-12T13:10:35Z</time>
      </trkpt>
      <trkpt lat="59.9070353" lon="17.6559415">
        <ele>30.4188</ele>
        <time>2014-07-12T13:10:36Z</time>
      </trkpt>
      <trkpt lat="59.9070378" lon="17.6560582">
        <ele>30.8995</ele>
        <time>2014-07-12T13:10:37Z</time>
      </trkpt>
      <trkpt lat="59.9070399" lon="17.6561721">
        <ele>31.3801</ele>
        <time>2014-07-12T13:10:38Z</time>
      </trkpt>
      <trkpt lat="59.9070415" lon="17.6562834">
        <ele>31.3801</ele>
        <time>2014-07-12T13:10:39Z</time>
      </trkpt>
      <trkpt lat="59.9070451" lon="17.6563924">
        <ele>31.3801</ele>
        <time>2014-07-12T13:10:40Z</time>
      </trkpt>
      <trkpt lat="59.9070506" lon="17.6565007">
        <ele>31.8607</ele>
        <time>2014-07-12T13:10:41Z</time>
      </trkpt>
      <trkpt lat="59.9070569" lon="17.6566093">
        <ele>31.8607</ele>
        <time>2014-07-12T13:10:42Z</time>
      </trkpt>
      <trkpt lat="59.9070646" lon="17.6567188">
        <ele>31.8607</ele>
        <time>2014-07-12T13:10:43Z</time>
      </trkpt>
      <trkpt lat="59.9070745" lon="17.656831">
        <ele>31.8607</ele>
        <time>2014-07-12T13:10:44Z</time>
      </trkpt>
      <trkpt lat="59.9070861" lon="17.6569463">
        <ele>31.8607</ele>
        <time>2014-07-12T13:10:45Z</time>
      </trkpt>
      <trkpt lat="59.9071" lon="17.6570642">
        <ele>31.8607</ele>
        <time>2014-07-12T13:10:46Z</time>
      </trkpt>
      <trkpt lat="59.9071164" lon="17.6571834">
        <ele>31.8607</ele>
        <time>2014-07-12T13:10:47Z</time>
      </trkpt>
      <trkpt lat="59.9071358" lon="17.6573031">
        <ele>31.8607</ele>
        <time>2014-07-12T13:10:48Z</time>
      </trkpt>
      <trkpt lat="59.9071578" lon="17.6574236">
        <ele>31.8607</ele>
        <time>2014-07-12T13:10:49Z</time>
      </trkpt>
      <trkpt lat="59.9071802" lon="17.6575469">
        <ele>31.8607</ele>
        <time>2014-07-12T13:10:50Z</time>
      </trkpt>
      <trkpt lat="59.9072026" lon="17.6576718">
        <ele>31.8607</ele>
        <time>2014-07-12T13:10:51Z</time>
      </trkpt>
      <trkpt lat="59.9072252" lon="17.6577967">
        <ele>32.3416</ele>
        <time>2014-07-12T13:10:52Z</time>
      </trkpt>
      <trkpt lat="59.9072466" lon="17.6579222">
        <ele>32.3416</ele>
        <time>2014-07-12T13:10:53Z</time>
      </trkpt>
      <trkpt lat="59.9072672" lon="17.658049">
        <ele>32.3416</ele>
        <time>2014-07-12T13:10:54Z</time>
      </trkpt>
      <trkpt lat="59.9072865" lon="17.6581744">
        <ele>32.3416</ele>
        <time>2014-07-12T13:10:55Z</time>
      </trkpt>
      <trkpt lat="59.9073036" lon="17.658296">
        <ele>32.8223</ele>
        <time>2014-07-12T13:10:56Z</time>
      </trkpt>
      <trkpt lat="59.9073177" lon="17.6584142">
        <ele>32.8223</ele>
        <time>2014-07-12T13:10:57Z</time>
      </trkpt>
      <trkpt lat="59.9073306" lon="17.6585272">
        <ele>32.8223</ele>
        <time>2014-07-12T13:10:58Z</time>
      </trkpt>
      <trkpt lat="59.9073427" lon="17.6586389">
        <ele>33.3029</ele>
        <time>2014-07-12T13:10:59Z</time>
      </trkpt>
      <trkpt lat="59.9073552" lon="17.6587478">
        <ele>33.3029</ele>
        <time>2014-07-12T13:11:00Z</time>
      </trkpt>
      <trkpt lat="59.9073686" lon="17.6588557">
        <ele>33.3029</ele>
        <time>2014-07-12T13:11:01Z</time>
      </trkpt>
      <trkpt lat="59.9073797" lon="17.658965">
        <ele>33.3029</ele>
        <time>2014-07-12T13:11:02Z</time>
      </trkpt>
      <trkpt lat="59.9073892" lon="17.6590757">
        <ele>33.3029</ele>
        <time>2014-07-12T13:11:03Z</time>
      </trkpt>
      <trkpt lat="59.9073994" lon="17.6591876">
        <ele>33.3029</ele>
        <time>2014-07-12T13:11:04Z</time>
      </trkpt>
      <trkpt lat="59.9074102" lon="17.6593031">
        <ele>33.3029</ele>
        <time>2014-07-12T13:11:05Z</time>
      </trkpt>
      <trkpt lat="59.907423" lon="17.6594212">
        <ele>33.3029</ele>
        <time>2014-07-12T13:11:06Z</time>
      </trkpt>
      <trkpt lat="59.9074357" lon="17.6595422">
        <ele>33.3029</ele>
        <time>2014-07-12T13:11:07Z</time>
      </trkpt>
      <trkpt lat="59.9074476" lon="17.6596653">
        <ele>33.3029</ele>
        <time>2014-07-12T13:11:08Z</time>
      </trkpt>
      <trkpt lat="59.9074612" lon="17.6597895">
        <ele>33.3029</ele>
        <time>2014-07-12T13:11:09Z</time>
      </trkpt>
      <trkpt lat="59.9074771" lon="17.6599136">
        <ele>33.3029</ele>
        <time>2014-07-12T13:11:10Z</time>
      </trkpt>
      <trkpt lat="59.9074943" lon="17.6600373">
        <ele>33.3029</ele>
        <time>2014-07-12T13:11:11Z</time>
      </trkpt>
      <trkpt lat="59.907513" lon="17.6601603">
        <ele>33.7834</ele>
        <time>2014-07-12T13:11:12Z</time>
      </trkpt>
      <trkpt lat="59.9075335" lon="17.6602821">
        <ele>33.7834</ele>
        <time>2014-07-12T13:11:13Z</time>
      </trkpt>
      <trkpt lat="59.9075549" lon="17.6604035">
        <ele>33.7834</ele>
        <time>2014-07-12T13:11:14Z</time>
      </trkpt>
      <trkpt lat="59.9075761" lon="17.6605244">
        <ele>33.7834</ele>
        <time>2014-07-12T13:11:15Z</time>
      </trkpt>
      <trkpt lat="59.9075963" lon="17.6606437">
        <ele>33.7834</ele>
        <time>2014-07-12T13:11:16Z</time>
      </trkpt>
      <trkpt lat="59.907614" lon="17.6607635">
        <ele>33.7834</ele>
        <time>2014-07-12T13:11:17Z</time>
      </trkpt>
      <trkpt lat="59.9076287" lon="17.6608825">
        <ele>33.7834</ele>
        <time>2014-07-12T13:11:18Z</time>
      </trkpt>
      <trkpt lat="59.907643" lon="17.6610009">
        <ele>33.7834</ele>
        <time>2014-07-12T13:11:19Z</time>
      </trkpt>
      <trkpt lat="59.9076579" lon="17.6611212">
        <ele>33.7834</ele>
        <time>2014-07-12T13:11:20Z</time>
      </trkpt>
      <trkpt lat="59.9076714" lon="17.6612458">
        <ele>33.7834</ele>
        <time>2014-07-12T13:11:21Z</time>
      </trkpt>
      <trkpt lat="59.9076839" lon="17.6613757">
        <ele>33.7834</ele>
        <time>2014-07-12T13:11:22Z</time>
      </trkpt>
      <trkpt lat="59.9076968" lon="17.6615087">
        <ele>33.3029</ele>
        <time>2014-07-12T13:11:23Z</time>
      </trkpt>
      <trkpt lat="59.9077105" lon="17.661645">
        <ele>33.3029</ele>
        <time>2014-07-12T13:11:24Z</time>
      </trkpt>
      <trkpt lat="59.9077257" lon="17.6617845">
        <ele>33.3029</ele>
        <time>2014-07-12T13:11:25Z</time>
      </trkpt>
      <trkpt lat="59.9077408" lon="17.6619262">
        <ele>32.8223</ele>
        <time>2014-07-12T13:11:26Z</time>
      </trkpt>
      <trkpt lat="59.9077542" lon="17.6620699">
        <ele>32.8223</ele>
        <time>2014-07-12T13:11:27Z</time>
      </trkpt>
      <trkpt lat="59.9077668" lon="17.662216">
        <ele>32.8223</ele>
        <time>2014-07-12T13:11:28Z</time>
      </trkpt>
      <trkpt lat="59.9077808" lon="17.6623631">
        <ele>32.8223</ele>
        <time>2014-07-12T13:11:29Z</time>
      </trkpt>
      <trkpt lat="59.9077979" lon="17.6625105">
        <ele>32.8223</ele>
        <time>2014-07-12T13:11:30Z</time>
      </trkpt>
      <trkpt lat="59.9078168" lon="17.6626583">
        <ele>32.8223</ele>
        <time>2014-07-12T13:11:31Z</time>
      </trkpt>
      <trkpt lat="59.9078359" lon="17.6628062">
        <ele>32.8223</ele>
        <time>2014-07-12T13:11:32Z</time>
      </trkpt>
      <trkpt lat="59.9078554" lon="17.6629526">
        <ele>32.8223</ele>
        <time>2014-07-12T13:11:33Z</time>
      </trkpt>
      <trkpt lat="59.9078739" lon="17.6630984">
        <ele>32.8223</ele>
        <time>2014-07-12T13:11:34Z</time>
      </trkpt>
      <trkpt lat="59.9078905" lon="17.6632439">
        <ele>33.3029</ele>
        <time>2014-07-12T13:11:35Z</time>
      </trkpt>
      <trkpt lat="59.9079071" lon="17.6633893">
        <ele>33.3029</ele>
        <time>2014-07-12T13:11:36Z</time>
      </trkpt>
      <trkpt lat="59.9079239" lon="17.6635351">
        <ele>33.3029</ele>
        <time>2014-07-12T13:11:37Z</time>
      </trkpt>
      <trkpt lat="59.9079397" lon="17.6636813">
        <ele>33.3029</ele>
        <time>2014-07-12T13:11:38Z</time>
      </trkpt>
      <trkpt lat="59.9079543" lon="17.663828">
        <ele>33.3029</ele>
        <time>2014-07-12T13:11:39Z</time>
      </trkpt>
      <trkpt lat="59.9079677" lon="17.6639744">
        <ele>33.3029</ele>
        <time>2014-07-12T13:11:40Z</time>
      </trkpt>
      <trkpt lat="59.907979" lon="17.6641215">
        <ele>33.3029</ele>
        <time>2014-07-12T13:11:41Z</time>
      </trkpt>
      <trkpt lat="59.9079874" lon="17.6642683">
        <ele>33.7834</ele>
        <time>2014-07-12T13:11:42Z</time>
      </trkpt>
      <trkpt lat="59.9079914" lon="17.6644137">
        <ele>33.7834</ele>
        <time>2014-07-12T13:11:43Z</time>
      </trkpt>
      <trkpt lat="59.9079914" lon="17.6645578">
        <ele>34.2642</ele>
        <time>2014-07-12T13:11:44Z</time>
      </trkpt>
      <trkpt lat="59.9079863" lon="17.6646998">
        <ele>34.7449</ele>
        <time>2014-07-12T13:11:45Z</time>
      </trkpt>
      <trkpt lat="59.907976" lon="17.66484">
        <ele>34.7449</ele>
        <time>2014-07-12T13:11:46Z</time>
      </trkpt>
      <trkpt lat="59.907963" lon="17.6649811">
        <ele>35.2255</ele>
        <time>2014-07-12T13:11:47Z</time>
      </trkpt>
      <trkpt lat="59.9079498" lon="17.665123">
        <ele>35.2255</ele>
        <time>2014-07-12T13:11:48Z</time>
      </trkpt>
      <trkpt lat="59.9079345" lon="17.6652652">
        <ele>35.2255</ele>
        <time>2014-07-12T13:11:49Z</time>
      </trkpt>
      <trkpt lat="59.9079189" lon="17.6654053">
        <ele>35.7061</ele>
        <time>2014-07-12T13:11:50Z</time>
      </trkpt>
      <trkpt lat="59.9079041" lon="17.6655446">
        <ele>35.7061</ele>
        <time>2014-07-12T13:11:51Z</time>
      </trkpt>
      <trkpt lat="59.9078924" lon="17.6656805">
        <ele>36.1868</ele>
        <time>2014-07-12T13:11:52Z</time>
      </trkpt>
      <trkpt lat="59.9078738" lon="17.665829">
        <ele>36.1868</ele>
        <time>2014-07-12T13:11:53Z</time>
      </trkpt>
      <trkpt lat="59.9078605" lon="17.6659875">
        <ele>36.1868</ele>
        <time>2014-07-12T13:11:54Z</time>
      </trkpt>
      <trkpt lat="59.9078421" lon="17.6661257">
        <ele>35.7061</ele>
        <time>2014-07-12T13:11:55Z</time>
      </trkpt>
      <trkpt lat="59.907821" lon="17.6662771">
        <ele>35.2255</ele>
        <time>2014-07-12T13:11:56Z</time>
      </trkpt>
      <trkpt lat="59.9077932" lon="17.6664154">
        <ele>34.7449</ele>
        <time>2014-07-12T13:11:57Z</time>
      </trkpt>
      <trkpt lat="59.9077811" lon="17.6665486">
        <ele>34.2642</ele>
        <time>2014-07-12T13:11:58Z</time>
      </trkpt>
      <trkpt lat="59.9077784" lon="17.666693">
        <ele>33.7834</ele>
        <time>2014-07-12T13:11:59Z</time>
      </trkpt>
      <trkpt lat="59.9077636" lon="17.6668407">
        <ele>32.8223</ele>
        <time>2014-07-12T13:12:00Z</time>
      </trkpt>
      <trkpt lat="59.9077569" lon="17.6669862">
        <ele>32.8223</ele>
        <time>2014-07-12T13:12:01Z</time>
      </trkpt>
      <trkpt lat="59.9077582" lon="17.6671277">
        <ele>32.3416</ele>
        <time>2014-07-12T13:12:02Z</time>
      </trkpt>
      <trkpt lat="59.9077463" lon="17.6672856">
        <ele>31.8607</ele>
        <time>2014-07-12T13:12:03Z</time>
      </trkpt>
      <trkpt lat="59.9077341" lon="17.6674429">
        <ele>31.3801</ele>
        <time>2014-07-12T13:12:04Z</time>
      </trkpt>
      <trkpt lat="59.9077262" lon="17.6675964">
        <ele>30.8995</ele>
        <time>2014-07-12T13:12:05Z</time>
      </trkpt>
      <trkpt lat="59.907715" lon="17.6677456">
        <ele>30.8995</ele>
        <time>2014-07-12T13:12:06Z</time>
      </trkpt>
      <trkpt lat="59.9076911" lon="17.6678881">
        <ele>30.4188</ele>
        <time>2014-07-12T13:12:07Z</time>
      </trkpt>
      <trkpt lat="59.9076496" lon="17.6680155">
        <ele>29.9381</ele>
        <time>2014-07-12T13:12:08Z</time>
      </trkpt>
      <trkpt lat="59.9075916" lon="17.668129">
        <ele>29.4575</ele>
        <time>2014-07-12T13:12:09Z</time>
      </trkpt>
      <trkpt lat="59.9075226" lon="17.6682098">
        <ele>28.9769</ele>
        <time>2014-07-12T13:12:10Z</time>
      </trkpt>
      <trkpt lat="59.9074466" lon="17.6682643">
        <ele>28.9769</ele>
        <time>2014-07-12T13:12:11Z</time>
      </trkpt>
      <trkpt lat="59.9073674" lon="17.6683018">
        <ele>28.9769</ele>
        <time>2014-07-12T13:12:12Z</time>
      </trkpt>
      <trkpt lat="59.9072874" lon="17.66833">
        <ele>28.4962</ele>
        <time>2014-07-12T13:12:13Z</time>
      </trkpt>
      <trkpt lat="59.907207" lon="17.6683546">
        <ele>28.4962</ele>
        <time>2014-07-12T13:12:14Z</time>
      </trkpt>
      <trkpt lat="59.9071269" lon="17.6683793">
        <ele>28.9769</ele>
        <time>2014-07-12T13:12:15Z</time>
      </trkpt>
      <trkpt lat="59.9070498" lon="17.6684025">
        <ele>28.9769</ele>
        <time>2014-07-12T13:12:16Z</time>
      </trkpt>
      <trkpt lat="59.9069617" lon="17.6684075">
        <ele>28.9769</ele>
        <time>2014-07-12T13:12:17Z</time>
      </trkpt>
      <trkpt lat="59.9068872" lon="17.668431">
        <ele>29.4575</ele>
        <time>2014-07-12T13:12:18Z</time>
      </trkpt>
      <trkpt lat="59.9068151" lon="17.6684584">
        <ele>29.9381</ele>
        <time>2014-07-12T13:12:19Z</time>
      </trkpt>
      <trkpt lat="59.9067478" lon="17.6684878">
        <ele>29.9381</ele>
        <time>2014-07-12T13:12:20Z</time>
      </trkpt>
      <trkpt lat="59.9066812" lon="17.6685113">
        <ele>30.4188</ele>
        <time>2014-07-12T13:12:21Z</time>
      </trkpt>
      <trkpt lat="59.906614" lon="17.6685292">
        <ele>30.4188</ele>
        <time>2014-07-12T13:12:22Z</time>
      </trkpt>
      <trkpt lat="59.9065483" lon="17.6685417">
        <ele>30.4188</ele>
        <time>2014-07-12T13:12:23Z</time>
      </trkpt>
      <trkpt lat="59.9064818" lon="17.6685489">
        <ele>29.9381</ele>
        <time>2014-07-12T13:12:24Z</time>
      </trkpt>
      <trkpt lat="59.9064146" lon="17.6685506">
        <ele>29.9381</ele>
        <time>2014-07-12T13:12:25Z</time>
      </trkpt>
      <trkpt lat="59.9063448" lon="17.6685445">
        <ele>29.4575</ele>
        <time>2014-07-12T13:12:26Z</time>
      </trkpt>
      <trkpt lat="59.9062725" lon="17.6685304">
        <ele>29.4575</ele>
        <time>2014-07-12T13:12:27Z</time>
      </trkpt>
      <trkpt lat="59.9062023" lon="17.6685096">
        <ele>28.9769</ele>
        <time>2014-07-12T13:12:28Z</time>
      </trkpt>
      <trkpt lat="59.9061324" lon="17.6684847">
        <ele>28.4962</ele>
        <time>2014-07-12T13:12:29Z</time>
      </trkpt>
      <trkpt lat="59.9060604" lon="17.6684574">
        <ele>28.4962</ele>
        <time>2014-07-12T13:12:30Z</time>
      </trkpt>
      <trkpt lat="59.9059873" lon="17.6684294">
        <ele>28.0155</ele>
        <time>2014-07-12T13:12:31Z</time>
      </trkpt>
      <trkpt lat="59.9059125" lon="17.6683988">
        <ele>28.0155</ele>
        <time>2014-07-12T13:12:32Z</time>
      </trkpt>
      <trkpt lat="59.9058377" lon="17.6683647">
        <ele>28.0155</ele>
        <time>2014-07-12T13:12:33Z</time>
      </trkpt>
      <trkpt lat="59.90576" lon="17.6683258">
        <ele>28.0155</ele>
        <time>2014-07-12T13:12:34Z</time>
      </trkpt>
      <trkpt lat="59.9056869" lon="17.6682885">
        <ele>28.0155</ele>
        <time>2014-07-12T13:12:35Z</time>
      </trkpt>
      <trkpt lat="59.9056128" lon="17.6682496">
        <ele>27.5349</ele>
        <time>2014-07-12T13:12:36Z</time>
      </trkpt>
      <trkpt lat="59.9055386" lon="17.6682124">
        <ele>27.5349</ele>
        <time>2014-07-12T13:12:37Z</time>
      </trkpt>
      <trkpt lat="59.9054631" lon="17.6681757">
        <ele>27.5349</ele>
        <time>2014-07-12T13:12:38Z</time>
      </trkpt>
      <trkpt lat="59.9053859" lon="17.6681389">
        <ele>27.5349</ele>
        <time>2014-07-12T13:12:39Z</time>
      </trkpt>
      <trkpt lat="59.9052963" lon="17.6680776">
        <ele>27.5349</ele>
        <time>2014-07-12T13:12:40Z</time>
      </trkpt>
      <trkpt lat="59.9052139" lon="17.6680304">
        <ele>27.5349</ele>
        <time>2014-07-12T13:12:41Z</time>
      </trkpt>
      <trkpt lat="59.9051424" lon="17.6679913">
        <ele>27.5349</ele>
        <time>2014-07-12T13:12:42Z</time>
      </trkpt>
      <trkpt lat="59.905077" lon="17.6679544">
        <ele>28.0155</ele>
        <time>2014-07-12T13:12:43Z</time>
      </trkpt>
      <trkpt lat="59.9050139" lon="17.6679156">
        <ele>28.0155</ele>
        <time>2014-07-12T13:12:44Z</time>
      </trkpt>
      <trkpt lat="59.9049523" lon="17.6678819">
        <ele>28.4962</ele>
        <time>2014-07-12T13:12:45Z</time>
      </trkpt>
      <trkpt lat="59.9048948" lon="17.6678563">
        <ele>28.4962</ele>
        <time>2014-07-12T13:12:46Z</time>
      </trkpt>
      <trkpt lat="59.9048358" lon="17.6678431">
        <ele>28.9769</ele>
        <time>2014-07-12T13:12:47Z</time>
      </trkpt>
      <trkpt lat="59.9047735" lon="17.667838">
        <ele>29.9381</ele>
        <time>2014-07-12T13:12:48Z</time>
      </trkpt>
      <trkpt lat="59.9047144" lon="17.6678395">
        <ele>29.9381</ele>
        <time>2014-07-12T13:12:49Z</time>
      </trkpt>
      <trkpt lat="59.9046538" lon="17.6678509">
        <ele>30.4188</ele>
        <time>2014-07-12T13:12:50Z</time>
      </trkpt>
      <trkpt lat="59.9045938" lon="17.6678641">
        <ele>30.8995</ele>
        <time>2014-07-12T13:12:51Z</time>
      </trkpt>
      <trkpt lat="59.9045338" lon="17.6678737">
        <ele>30.8995</ele>
        <time>2014-07-12T13:12:52Z</time>
      </trkpt>
      <trkpt lat="59.9044748" lon="17.6678794">
        <ele>31.3801</ele>
        <time>2014-07-12T13:12:53Z</time>
      </trkpt>
      <trkpt lat="59.9044194" lon="17.6678885">
        <ele>31.8607</ele>
        <time>2014-07-12T13:12:54Z</time>
      </trkpt>
      <trkpt lat="59.9043649" lon="17.6679025">
        <ele>32.3416</ele>
        <time>2014-07-12T13:12:55Z</time>
      </trkpt>
      <trkpt lat="59.9043132" lon="17.6679197">
        <ele>32.3416</ele>
        <time>2014-07-12T13:12:56Z</time>
      </trkpt>
      <trkpt lat="59.9042624" lon="17.6679416">
        <ele>32.3416</ele>
        <time>2014-07-12T13:12:57Z</time>
      </trkpt>
      <trkpt lat="59.9042122" lon="17.6679721">
        <ele>32.8223</ele>
        <time>2014-07-12T13:12:58Z</time>
      </trkpt>
      <trkpt lat="59.9041639" lon="17.6680115">
        <ele>32.8223</ele>
        <time>2014-07-12T13:12:59Z</time>
      </trkpt>
      <trkpt lat="59.9041158" lon="17.6680559">
        <ele>32.8223</ele>
        <time>2014-07-12T13:13:00Z</time>
      </trkpt>
      <trkpt lat="59.9040675" lon="17.6681062">
        <ele>32.8223</ele>
        <time>2014-07-12T13:13:01Z</time>
      </trkpt>
      <trkpt lat="59.9040202" lon="17.6681679">
        <ele>32.8223</ele>
        <time>2014-07-12T13:13:02Z</time>
      </trkpt>
      <trkpt lat="59.9039763" lon="17.6682415">
        <ele>32.8223</ele>
        <time>2014-07-12T13:13:03Z</time>
      </trkpt>
      <trkpt lat="59.9039313" lon="17.6683218">
        <ele>32.3416</ele>
        <time>2014-07-12T13:13:04Z</time>
      </trkpt>
      <trkpt lat="59.9038864" lon="17.6684055">
        <ele>31.8607</ele>
        <time>2014-07-12T13:13:05Z</time>
      </trkpt>
      <trkpt lat="59.9038434" lon="17.6684977">
        <ele>31.8607</ele>
        <time>2014-07-12T13:13:06Z</time>
      </trkpt>
      <trkpt lat="59.9038007" lon="17.6685936">
        <ele>31.3801</ele>
        <time>2014-07-12T13:13:07Z</time>
      </trkpt>
      <trkpt lat="59.9037553" lon="17.6686944">
        <ele>31.3801</ele>
        <time>2014-07-12T13:13:08Z</time>
      </trkpt>
      <trkpt lat="59.9037091" lon="17.6688028">
        <ele>30.8995</ele>
        <time>2014-07-12T13:13:09Z</time>
      </trkpt>
      <trkpt lat="59.9036625" lon="17.668922">
        <ele>31.3801</ele>
        <time>2014-07-12T13:13:10Z</time>
      </trkpt>
      <trkpt lat="59.9036168" lon="17.6690453">
        <ele>31.3801</ele>
        <time>2014-07-12T13:13:11Z</time>
      </trkpt>
      <trkpt lat="59.9035748" lon="17.6691748">
        <ele>31.3801</ele>
        <time>2014-07-12T13:13:12Z</time>
      </trkpt>
      <trkpt lat="59.9035386" lon="17.6693136">
        <ele>31.8607</ele>
        <time>2014-07-12T13:13:13Z</time>
      </trkpt>
      <trkpt lat="59.9035044" lon="17.6694507">
        <ele>31.3801</ele>
        <time>2014-07-12T13:13:14Z</time>
      </trkpt>
      <trkpt lat="59.9034688" lon="17.6695828">
        <ele>31.3801</ele>
        <time>2014-07-12T13:13:15Z</time>
      </trkpt>
      <trkpt lat="59.9034273" lon="17.6697072">
        <ele>30.8995</ele>
        <time>2014-07-12T13:13:16Z</time>
      </trkpt>
      <trkpt lat="59.9033754" lon="17.669818">
        <ele>30.8995</ele>
        <time>2014-07-12T13:13:17Z</time>
      </trkpt>
      <trkpt lat="59.9033092" lon="17.6699001">
        <ele>30.4188</ele>
        <time>2014-07-12T13:13:18Z</time>
      </trkpt>
      <trkpt lat="59.9032318" lon="17.6699045">
        <ele>30.4188</ele>
        <time>2014-07-12T13:13:19Z</time>
      </trkpt>
      <trkpt lat="59.9031579" lon="17.6698903">
        <ele>30.4188</ele>
        <time>2014-07-12T13:13:20Z</time>
      </trkpt>
      <trkpt lat="59.9030874" lon="17.6698572">
        <ele>30.4188</ele>
        <time>2014-07-12T13:13:21Z</time>
      </trkpt>
      <trkpt lat="59.9030202" lon="17.669813">
        <ele>29.9381</ele>
        <time>2014-07-12T13:13:22Z</time>
      </trkpt>
      <trkpt lat="59.9029549" lon="17.6697756">
        <ele>29.9381</ele>
        <time>2014-07-12T13:13:23Z</time>
      </trkpt>
      <trkpt lat="59.9028915" lon="17.6697601">
        <ele>29.9381</ele>
        <time>2014-07-12T13:13:24Z</time>
      </trkpt>
      <trkpt lat="59.9028248" lon="17.669769">
        <ele>29.9381</ele>
        <time>2014-07-12T13:13:25Z</time>
      </trkpt>
      <trkpt lat="59.902742" lon="17.6697954">
        <ele>29.4575</ele>
        <time>2014-07-12T13:13:26Z</time>
      </trkpt>
      <trkpt lat="59.9026716" lon="17.669831">
        <ele>29.4575</ele>
        <time>2014-07-12T13:13:27Z</time>
      </trkpt>
      <trkpt lat="59.9025918" lon="17.6698688">
        <ele>28.9769</ele>
        <time>2014-07-12T13:13:28Z</time>
      </trkpt>
      <trkpt lat="59.9025167" lon="17.6699152">
        <ele>28.9769</ele>
        <time>2014-07-12T13:13:29Z</time>
      </trkpt>
      <trkpt lat="59.9024375" lon="17.6699451">
        <ele>28.9769</ele>
        <time>2014-07-12T13:13:30Z</time>
      </trkpt>
      <trkpt lat="59.9023608" lon="17.6699554">
        <ele>28.9769</ele>
        <time>2014-07-12T13:13:31Z</time>
      </trkpt>
      <trkpt lat="59.902283" lon="17.6699492">
        <ele>28.9769</ele>
        <time>2014-07-12T13:13:32Z</time>
      </trkpt>
      <trkpt lat="59.9022058" lon="17.6699273">
        <ele>29.4575</ele>
        <time>2014-07-12T13:13:33Z</time>
      </trkpt>
      <trkpt lat="59.9021313" lon="17.6698906">
        <ele>29.4575</ele>
        <time>2014-07-12T13:13:34Z</time>
      </trkpt>
      <trkpt lat="59.9020592" lon="17.6698431">
        <ele>29.9381</ele>
        <time>2014-07-12T13:13:35Z</time>
      </trkpt>
      <trkpt lat="59.9019891" lon="17.6697898">
        <ele>29.9381</ele>
        <time>2014-07-12T13:13:36Z</time>
      </trkpt>
      <trkpt lat="59.9019219" lon="17.6697373">
        <ele>30.4188</ele>
        <time>2014-07-12T13:13:37Z</time>
      </trkpt>
      <trkpt lat="59.9018557" lon="17.6696877">
        <ele>30.8995</ele>
        <time>2014-07-12T13:13:38Z</time>
      </trkpt>
      <trkpt lat="59.901789" lon="17.6696401">
        <ele>30.8995</ele>
        <time>2014-07-12T13:13:39Z</time>
      </trkpt>
      <trkpt lat="59.9017226" lon="17.6696006">
        <ele>30.8995</ele>
        <time>2014-07-12T13:13:40Z</time>
      </trkpt>
      <trkpt lat="59.9016526" lon="17.669566">
        <ele>30.8995</ele>
        <time>2014-07-12T13:13:41Z</time>
      </trkpt>
      <trkpt lat="59.9015818" lon="17.6695404">
        <ele>30.4188</ele>
        <time>2014-07-12T13:13:42Z</time>
      </trkpt>
      <trkpt lat="59.9015079" lon="17.6695251">
        <ele>30.4188</ele>
        <time>2014-07-12T13:13:43Z</time>
      </trkpt>
      <trkpt lat="59.9014322" lon="17.6695244">
        <ele>29.9381</ele>
        <time>2014-07-12T13:13:44Z</time>
      </trkpt>
      <trkpt lat="59.9013535" lon="17.6695328">
        <ele>29.9381</ele>
        <time>2014-07-12T13:13:45Z</time>
      </trkpt>
      <trkpt lat="59.901266" lon="17.6695628">
        <ele>29.9381</ele>
        <time>2014-07-12T13:13:46Z</time>
      </trkpt>
      <trkpt lat="59.9011889" lon="17.669584">
        <ele>29.4575</ele>
        <time>2014-07-12T13:13:47Z</time>
      </trkpt>
      <trkpt lat="59.9011187" lon="17.6695934">
        <ele>29.4575</ele>
        <time>2014-07-12T13:13:48Z</time>
      </trkpt>
      <trkpt lat="59.901045" lon="17.6696075">
        <ele>29.4575</ele>
        <time>2014-07-12T13:13:49Z</time>
      </trkpt>
      <trkpt lat="59.9009781" lon="17.6696277">
        <ele>29.9381</ele>
        <time>2014-07-12T13:13:50Z</time>
      </trkpt>
      <trkpt lat="59.9009117" lon="17.6696469">
        <ele>30.4188</ele>
        <time>2014-07-12T13:13:51Z</time>
      </trkpt>
      <trkpt lat="59.9008492" lon="17.6696587">
        <ele>30.4188</ele>
        <time>2014-07-12T13:13:52Z</time>
      </trkpt>
      <trkpt lat="59.9007803" lon="17.6696706">
        <ele>30.4188</ele>
        <time>2014-07-12T13:13:53Z</time>
      </trkpt>
      <trkpt lat="59.9007079" lon="17.6696831">
        <ele>29.4575</ele>
        <time>2014-07-12T13:13:54Z</time>
      </trkpt>
      <trkpt lat="59.900629" lon="17.6697047">
        <ele>28.9769</ele>
        <time>2014-07-12T13:13:55Z</time>
      </trkpt>
      <trkpt lat="59.9005468" lon="17.6697342">
        <ele>28.9769</ele>
        <time>2014-07-12T13:13:56Z</time>
      </trkpt>
      <trkpt lat="59.9004632" lon="17.6697642">
        <ele>28.4962</ele>
        <time>2014-07-12T13:13:57Z</time>
      </trkpt>
      <trkpt lat="59.9003788" lon="17.6697887">
        <ele>28.4962</ele>
        <time>2014-07-12T13:13:58Z</time>
      </trkpt>
      <trkpt lat="59.9002964" lon="17.6698111">
        <ele>28.4962</ele>
        <time>2014-07-12T13:13:59Z</time>
      </trkpt>
      <trkpt lat="59.9002172" lon="17.6698335">
        <ele>28.9769</ele>
        <time>2014-07-12T13:14:00Z</time>
      </trkpt>
      <trkpt lat="59.9001421" lon="17.669855">
        <ele>28.9769</ele>
        <time>2014-07-12T13:14:01Z</time>
      </trkpt>
      <trkpt lat="59.9000711" lon="17.6698782">
        <ele>29.4575</ele>
        <time>2014-07-12T13:14:02Z</time>
      </trkpt>
      <trkpt lat="59.9000054" lon="17.6699001">
        <ele>29.4575</ele>
        <time>2014-07-12T13:14:03Z</time>
      </trkpt>
      <trkpt lat="59.8999443" lon="17.6699218">
        <ele>29.4575</ele>
        <time>2014-07-12T13:14:04Z</time>
      </trkpt>
      <trkpt lat="59.8998847" lon="17.6699447">
        <ele>29.4575</ele>
        <time>2014-07-12T13:14:05Z</time>
      </trkpt>
      <trkpt lat="59.8998246" lon="17.6699766">
        <ele>29.4575</ele>
        <time>2014-07-12T13:14:06Z</time>
      </trkpt>
      <trkpt lat="59.8997639" lon="17.6700114">
        <ele>29.4575</ele>
        <time>2014-07-12T13:14:07Z</time>
      </trkpt>
      <trkpt lat="59.8997018" lon="17.6700457">
        <ele>29.4575</ele>
        <time>2014-07-12T13:14:08Z</time>
      </trkpt>
      <trkpt lat="59.8996381" lon="17.6700807">
        <ele>29.4575</ele>
        <time>2014-07-12T13:14:09Z</time>
      </trkpt>
      <trkpt lat="59.8995728" lon="17.6701213">
        <ele>29.4575</ele>
        <time>2014-07-12T13:14:10Z</time>
      </trkpt>
      <trkpt lat="59.899506" lon="17.6701705">
        <ele>29.4575</ele>
        <time>2014-07-12T13:14:11Z</time>
      </trkpt>
      <trkpt lat="59.8994407" lon="17.670235">
        <ele>29.4575</ele>
        <time>2014-07-12T13:14:12Z</time>
      </trkpt>
      <trkpt lat="59.899378" lon="17.6703175">
        <ele>28.9769</ele>
        <time>2014-07-12T13:14:13Z</time>
      </trkpt>
      <trkpt lat="59.8993178" lon="17.6704138">
        <ele>28.9769</ele>
        <time>2014-07-12T13:14:14Z</time>
      </trkpt>
      <trkpt lat="59.89929" lon="17.6706178">
        <ele>28.4962</ele>
        <time>2014-07-12T13:14:15Z</time>
      </trkpt>
      <trkpt lat="59.8992796" lon="17.6707869">
        <ele>28.0155</ele>
        <time>2014-07-12T13:14:16Z</time>
      </trkpt>
      <trkpt lat="59.8992766" lon="17.6709447">
        <ele>27.5349</ele>
        <time>2014-07-12T13:14:17Z</time>
      </trkpt>
      <trkpt lat="59.8992807" lon="17.6711096">
        <ele>27.0543</ele>
        <time>2014-07-12T13:14:18Z</time>
      </trkpt>
      <trkpt lat="59.8992976" lon="17.6712732">
        <ele>27.5349</ele>
        <time>2014-07-12T13:14:19Z</time>
      </trkpt>
      <trkpt lat="59.8993056" lon="17.671439">
        <ele>27.5349</ele>
        <time>2014-07-12T13:14:20Z</time>
      </trkpt>
      <trkpt lat="59.89931" lon="17.6716248">
        <ele>27.5349</ele>
        <time>2014-07-12T13:14:21Z</time>
      </trkpt>
      <trkpt lat="59.8993048" lon="17.6717927">
        <ele>28.0155</ele>
        <time>2014-07-12T13:14:22Z</time>
      </trkpt>
      <trkpt lat="59.899309" lon="17.6719277">
        <ele>28.4962</ele>
        <time>2014-07-12T13:14:23Z</time>
      </trkpt>
      <trkpt lat="59.8993094" lon="17.6720798">
        <ele>28.4962</ele>
        <time>2014-07-12T13:14:24Z</time>
      </trkpt>
      <trkpt lat="59.8993003" lon="17.6722253">
        <ele>28.4962</ele>
        <time>2014-07-12T13:14:25Z</time>
      </trkpt>
      <trkpt lat="59.8992883" lon="17.6723853">
        <ele>28.4962</ele>
        <time>2014-07-12T13:14:26Z</time>
      </trkpt>
      <trkpt lat="59.8992571" lon="17.6725177">
        <ele>28.9769</ele>
        <time>2014-07-12T13:14:27Z</time>
      </trkpt>
      <trkpt lat="59.89922" lon="17.6726377">
        <ele>29.4575</ele>
        <time>2014-07-12T13:14:28Z</time>
      </trkpt>
      <trkpt lat="59.8991922" lon="17.6727693">
        <ele>29.4575</ele>
        <time>2014-07-12T13:14:29Z</time>
      </trkpt>
      <trkpt lat="59.8991672" lon="17.6729023">
        <ele>29.4575</ele>
        <time>2014-07-12T13:14:30Z</time>
      </trkpt>
      <trkpt lat="59.8991474" lon="17.6730366">
        <ele>29.9381</ele>
        <time>2014-07-12T13:14:31Z</time>
      </trkpt>
      <trkpt lat="59.8991316" lon="17.6731774">
        <ele>30.4188</ele>
        <time>2014-07-12T13:14:32Z</time>
      </trkpt>
      <trkpt lat="59.899119" lon="17.6733133">
        <ele>30.4188</ele>
        <time>2014-07-12T13:14:33Z</time>
      </trkpt>
      <trkpt lat="59.8991142" lon="17.6734531">
        <ele>30.4188</ele>
        <time>2014-07-12T13:14:34Z</time>
      </trkpt>
      <trkpt lat="59.8991154" lon="17.6736043">
        <ele>30.4188</ele>
        <time>2014-07-12T13:14:35Z</time>
      </trkpt>
      <trkpt lat="59.8991147" lon="17.6737629">
        <ele>30.8995</ele>
        <time>2014-07-12T13:14:36Z</time>
      </trkpt>
      <trkpt lat="59.8990967" lon="17.6739292">
        <ele>30.8995</ele>
        <time>2014-07-12T13:14:37Z</time>
      </trkpt>
      <trkpt lat="59.899059" lon="17.6741136">
        <ele>30.8995</ele>
        <time>2014-07-12T13:14:38Z</time>
      </trkpt>
      <trkpt lat="59.8990302" lon="17.6742744">
        <ele>30.8995</ele>
        <time>2014-07-12T13:14:39Z</time>
      </trkpt>
      <trkpt lat="59.8989932" lon="17.6744103">
        <ele>31.3801</ele>
        <time>2014-07-12T13:14:40Z</time>
      </trkpt>
      <trkpt lat="59.8989445" lon="17.6745295">
        <ele>30.8995</ele>
        <time>2014-07-12T13:14:41Z</time>
      </trkpt>
      <trkpt lat="59.8988802" lon="17.6745987">
        <ele>29.9381</ele>
        <time>2014-07-12T13:14:42Z</time>
      </trkpt>
      <trkpt lat="59.8988072" lon="17.6746641">
        <ele>29.4575</ele>
        <time>2014-07-12T13:14:43Z</time>
      </trkpt>
      <trkpt lat="59.8987347" lon="17.6747289">
        <ele>28.9769</ele>
        <time>2014-07-12T13:14:44Z</time>
      </trkpt>
      <trkpt lat="59.8986674" lon="17.6748042">
        <ele>28.9769</ele>
        <time>2014-07-12T13:14:45Z</time>
      </trkpt>
      <trkpt lat="59.898604" lon="17.6748904">
        <ele>28.0155</ele>
        <time>2014-07-12T13:14:46Z</time>
      </trkpt>
      <trkpt lat="59.8985441" lon="17.6750012">
        <ele>28.0155</ele>
        <time>2014-07-12T13:14:47Z</time>
      </trkpt>
      <trkpt lat="59.8984926" lon="17.6751299">
        <ele>28.0155</ele>
        <time>2014-07-12T13:14:48Z</time>
      </trkpt>
      <trkpt lat="59.8984518" lon="17.6752749">
        <ele>28.0155</ele>
        <time>2014-07-12T13:14:49Z</time>
      </trkpt>
      <trkpt lat="59.8984259" lon="17.6754301">
        <ele>28.0155</ele>
        <time>2014-07-12T13:14:50Z</time>
      </trkpt>
      <trkpt lat="59.8984089" lon="17.6755956">
        <ele>28.0155</ele>
        <time>2014-07-12T13:14:51Z</time>
      </trkpt>
      <trkpt lat="59.8983937" lon="17.6757738">
        <ele>28.0155</ele>
        <time>2014-07-12T13:14:52Z</time>
      </trkpt>
      <trkpt lat="59.8983835" lon="17.6759555">
        <ele>28.4962</ele>
        <time>2014-07-12T13:14:53Z</time>
      </trkpt>
      <trkpt lat="59.898375" lon="17.6761389">
        <ele>28.0155</ele>
        <time>2014-07-12T13:14:54Z</time>
      </trkpt>
      <trkpt lat="59.8983638" lon="17.6763254">
        <ele>28.0155</ele>
        <time>2014-07-12T13:14:55Z</time>
      </trkpt>
      <trkpt lat="59.8983511" lon="17.676513">
        <ele>28.0155</ele>
        <time>2014-07-12T13:14:56Z</time>
      </trkpt>
      <trkpt lat="59.8983357" lon="17.6767001">
        <ele>28.0155</ele>
        <time>2014-07-12T13:14:57Z</time>
      </trkpt>
      <trkpt lat="59.8983181" lon="17.6768855">
        <ele>28.0155</ele>
        <time>2014-07-12T13:14:58Z</time>
      </trkpt>
      <trkpt lat="59.8982983" lon="17.6770704">
        <ele>28.0155</ele>
        <time>2014-07-12T13:14:59Z</time>
      </trkpt>
      <trkpt lat="59.8982753" lon="17.6772551">
        <ele>28.0155</ele>
        <time>2014-07-12T13:15:00Z</time>
      </trkpt>
      <trkpt lat="59.8982493" lon="17.6774374">
        <ele>28.0155</ele>
        <time>2014-07-12T13:15:01Z</time>
      </trkpt>
      <trkpt lat="59.8982188" lon="17.6776151">
        <ele>28.0155</ele>
        <time>2014-07-12T13:15:02Z</time>
      </trkpt>
      <trkpt lat="59.8981843" lon="17.6777868">
        <ele>28.0155</ele>
        <time>2014-07-12T13:15:03Z</time>
      </trkpt>
      <trkpt lat="59.8981467" lon="17.6779533">
        <ele>28.4962</ele>
        <time>2014-07-12T13:15:04Z</time>
      </trkpt>
      <trkpt lat="59.8981073" lon="17.6781141">
        <ele>28.4962</ele>
        <time>2014-07-12T13:15:05Z</time>
      </trkpt>
      <trkpt lat="59.8980649" lon="17.6782669">
        <ele>28.4962</ele>
        <time>2014-07-12T13:15:06Z</time>
      </trkpt>
      <trkpt lat="59.8980199" lon="17.6784123">
        <ele>28.4962</ele>
        <time>2014-07-12T13:15:07Z</time>
      </trkpt>
      <trkpt lat="59.8979723" lon="17.6785542">
        <ele>28.4962</ele>
        <time>2014-07-12T13:15:08Z</time>
      </trkpt>
      <trkpt lat="59.8979223" lon="17.6786948">
        <ele>28.4962</ele>
        <time>2014-07-12T13:15:09Z</time>
      </trkpt>
      <trkpt lat="59.8978705" lon="17.6788337">
        <ele>28.4962</ele>
        <time>2014-07-12T13:15:10Z</time>
      </trkpt>
      <trkpt lat="59.8978178" lon="17.6789709">
        <ele>28.0155</ele>
        <time>2014-07-12T13:15:11Z</time>
      </trkpt>
      <trkpt lat="59.8977645" lon="17.6791072">
        <ele>28.0155</ele>
        <time>2014-07-12T13:15:12Z</time>
      </trkpt>
      <trkpt lat="59.8977114" lon="17.6792459">
        <ele>27.5349</ele>
        <time>2014-07-12T13:15:13Z</time>
      </trkpt>
      <trkpt lat="59.8976577" lon="17.6793869">
        <ele>27.5349</ele>
        <time>2014-07-12T13:15:14Z</time>
      </trkpt>
      <trkpt lat="59.8976038" lon="17.6795281">
        <ele>27.5349</ele>
        <time>2014-07-12T13:15:15Z</time>
      </trkpt>
      <trkpt lat="59.8975489" lon="17.6796692">
        <ele>27.5349</ele>
        <time>2014-07-12T13:15:16Z</time>
      </trkpt>
      <trkpt lat="59.897494" lon="17.6798091">
        <ele>27.0543</ele>
        <time>2014-07-12T13:15:17Z</time>
      </trkpt>
      <trkpt lat="59.8974408" lon="17.6799474">
        <ele>27.5349</ele>
        <time>2014-07-12T13:15:18Z</time>
      </trkpt>
      <trkpt lat="59.8973894" lon="17.6800831">
        <ele>27.5349</ele>
        <time>2014-07-12T13:15:19Z</time>
      </trkpt>
      <trkpt lat="59.8973384" lon="17.6802162">
        <ele>27.5349</ele>
        <time>2014-07-12T13:15:20Z</time>
      </trkpt>
      <trkpt lat="59.8972884" lon="17.6803478">
        <ele>27.5349</ele>
        <time>2014-07-12T13:15:21Z</time>
      </trkpt>
      <trkpt lat="59.897239" lon="17.6804762">
        <ele>27.5349</ele>
        <time>2014-07-12T13:15:22Z</time>
      </trkpt>
      <trkpt lat="59.8971895" lon="17.6806022">
        <ele>27.0543</ele>
        <time>2014-07-12T13:15:23Z</time>
      </trkpt>
      <trkpt lat="59.8971412" lon="17.6807285">
        <ele>27.0543</ele>
        <time>2014-07-12T13:15:24Z</time>
      </trkpt>
      <trkpt lat="59.8970926" lon="17.6808502">
        <ele>27.0543</ele>
        <time>2014-07-12T13:15:25Z</time>
      </trkpt>
      <trkpt lat="59.8970438" lon="17.6809674">
        <ele>27.0543</ele>
        <time>2014-07-12T13:15:26Z</time>
      </trkpt>
      <trkpt lat="59.8969943" lon="17.6810829">
        <ele>27.0543</ele>
        <time>2014-07-12T13:15:27Z</time>
      </trkpt>
      <trkpt lat="59.8969429" lon="17.6811949">
        <ele>27.0543</ele>
        <time>2014-07-12T13:15:28Z</time>
      </trkpt>
      <trkpt lat="59.8968891" lon="17.6813033">
        <ele>27.0543</ele>
        <time>2014-07-12T13:15:29Z</time>
      </trkpt>
      <trkpt lat="59.8968341" lon="17.6814072">
        <ele>27.5349</ele>
        <time>2014-07-12T13:15:30Z</time>
      </trkpt>
      <trkpt lat="59.8967771" lon="17.681506">
        <ele>27.5349</ele>
        <time>2014-07-12T13:15:31Z</time>
      </trkpt>
      <trkpt lat="59.8967191" lon="17.6815987">
        <ele>27.5349</ele>
        <time>2014-07-12T13:15:32Z</time>
      </trkpt>
      <trkpt lat="59.8966614" lon="17.6816875">
        <ele>27.5349</ele>
        <time>2014-07-12T13:15:33Z</time>
      </trkpt>
      <trkpt lat="59.8966023" lon="17.6817726">
        <ele>27.5349</ele>
        <time>2014-07-12T13:15:34Z</time>
      </trkpt>
      <trkpt lat="59.8965418" lon="17.6818553">
        <ele>27.5349</ele>
        <time>2014-07-12T13:15:35Z</time>
      </trkpt>
      <trkpt lat="59.8964798" lon="17.6819379">
        <ele>27.5349</ele>
        <time>2014-07-12T13:15:36Z</time>
      </trkpt>
      <trkpt lat="59.8964159" lon="17.6820184">
        <ele>27.5349</ele>
        <time>2014-07-12T13:15:37Z</time>
      </trkpt>
      <trkpt lat="59.8963523" lon="17.6820951">
        <ele>28.0155</ele>
        <time>2014-07-12T13:15:38Z</time>
      </trkpt>
      <trkpt lat="59.8962902" lon="17.6821691">
        <ele>28.0155</ele>
        <time>2014-07-12T13:15:39Z</time>
      </trkpt>
      <trkpt lat="59.89623" lon="17.6822385">
        <ele>28.0155</ele>
        <time>2014-07-12T13:15:40Z</time>
      </trkpt>
      <trkpt lat="59.896171" lon="17.6823028">
        <ele>28.0155</ele>
        <time>2014-07-12T13:15:41Z</time>
      </trkpt>
      <trkpt lat="59.8961139" lon="17.6823643">
        <ele>28.0155</ele>
        <time>2014-07-12T13:15:42Z</time>
      </trkpt>
      <trkpt lat="59.8960572" lon="17.682421">
        <ele>28.0155</ele>
        <time>2014-07-12T13:15:43Z</time>
      </trkpt>
      <trkpt lat="59.8960019" lon="17.6824736">
        <ele>28.0155</ele>
        <time>2014-07-12T13:15:44Z</time>
      </trkpt>
      <trkpt lat="59.8959479" lon="17.6825208">
        <ele>28.0155</ele>
        <time>2014-07-12T13:15:45Z</time>
      </trkpt>
      <trkpt lat="59.8958934" lon="17.68256">
        <ele>28.0155</ele>
        <time>2014-07-12T13:15:46Z</time>
      </trkpt>
      <trkpt lat="59.895837" lon="17.682596">
        <ele>27.5349</ele>
        <time>2014-07-12T13:15:47Z</time>
      </trkpt>
      <trkpt lat="59.8957774" lon="17.6826333">
        <ele>27.5349</ele>
        <time>2014-07-12T13:15:48Z</time>
      </trkpt>
      <trkpt lat="59.8957141" lon="17.6826742">
        <ele>27.5349</ele>
        <time>2014-07-12T13:15:49Z</time>
      </trkpt>
      <trkpt lat="59.8956485" lon="17.6827229">
        <ele>27.0543</ele>
        <time>2014-07-12T13:15:50Z</time>
      </trkpt>
      <trkpt lat="59.8955814" lon="17.6827809">
        <ele>27.0543</ele>
        <time>2014-07-12T13:15:51Z</time>
      </trkpt>
      <trkpt lat="59.8955137" lon="17.6828486">
        <ele>26.5736</ele>
        <time>2014-07-12T13:15:52Z</time>
      </trkpt>
      <trkpt lat="59.8954469" lon="17.6829269">
        <ele>26.5736</ele>
        <time>2014-07-12T13:15:53Z</time>
      </trkpt>
      <trkpt lat="59.8953821" lon="17.6830066">
        <ele>26.0929</ele>
        <time>2014-07-12T13:15:54Z</time>
      </trkpt>
      <trkpt lat="59.8953171" lon="17.6830874">
        <ele>26.0929</ele>
        <time>2014-07-12T13:15:55Z</time>
      </trkpt>
      <trkpt lat="59.8952535" lon="17.6831699">
        <ele>25.6123</ele>
        <time>2014-07-12T13:15:56Z</time>
      </trkpt>
      <trkpt lat="59.8951918" lon="17.6832511">
        <ele>25.6123</ele>
        <time>2014-07-12T13:15:57Z</time>
      </trkpt>
      <trkpt lat="59.8951294" lon="17.6833263">
        <ele>25.1317</ele>
        <time>2014-07-12T13:15:58Z</time>
      </trkpt>
      <trkpt lat="59.8950677" lon="17.6834025">
        <ele>24.651</ele>
        <time>2014-07-12T13:15:59Z</time>
      </trkpt>
      <trkpt lat="59.8950128" lon="17.683494">
        <ele>24.1703</ele>
        <time>2014-07-12T13:16:00Z</time>
      </trkpt>
      <trkpt lat="59.894967" lon="17.683603">
        <ele>24.1703</ele>
        <time>2014-07-12T13:16:01Z</time>
      </trkpt>
      <trkpt lat="59.8949278" lon="17.6837209">
        <ele>23.6896</ele>
        <time>2014-07-12T13:16:02Z</time>
      </trkpt>
      <trkpt lat="59.8948976" lon="17.6838382">
        <ele>23.6896</ele>
        <time>2014-07-12T13:16:03Z</time>
      </trkpt>
      <trkpt lat="59.8948745" lon="17.6839604">
        <ele>23.6896</ele>
        <time>2014-07-12T13:16:04Z</time>
      </trkpt>
      <trkpt lat="59.8948567" lon="17.6840842">
        <ele>23.6896</ele>
        <time>2014-07-12T13:16:05Z</time>
      </trkpt>
      <trkpt lat="59.8948421" lon="17.6842116">
        <ele>23.6896</ele>
        <time>2014-07-12T13:16:06Z</time>
      </trkpt>
      <trkpt lat="59.8948289" lon="17.6843463">
        <ele>23.209</ele>
        <time>2014-07-12T13:16:07Z</time>
      </trkpt>
      <trkpt lat="59.8948168" lon="17.6844853">
        <ele>22.7283</ele>
        <time>2014-07-12T13:16:08Z</time>
      </trkpt>
      <trkpt lat="59.8948055" lon="17.6846303">
        <ele>22.7283</ele>
        <time>2014-07-12T13:16:09Z</time>
      </trkpt>
      <trkpt lat="59.8947931" lon="17.6847762">
        <ele>22.2476</ele>
        <time>2014-07-12T13:16:10Z</time>
      </trkpt>
      <trkpt lat="59.8947808" lon="17.6849239">
        <ele>22.2476</ele>
        <time>2014-07-12T13:16:11Z</time>
      </trkpt>
      <trkpt lat="59.8947709" lon="17.6850678">
        <ele>22.2476</ele>
        <time>2014-07-12T13:16:12Z</time>
      </trkpt>
      <trkpt lat="59.894763" lon="17.6852098">
        <ele>22.2476</ele>
        <time>2014-07-12T13:16:13Z</time>
      </trkpt>
      <trkpt lat="59.8947543" lon="17.6853495">
        <ele>21.767</ele>
        <time>2014-07-12T13:16:14Z</time>
      </trkpt>
      <trkpt lat="59.8947456" lon="17.6854897">
        <ele>21.2864</ele>
        <time>2014-07-12T13:16:15Z</time>
      </trkpt>
      <trkpt lat="59.8947383" lon="17.685636">
        <ele>21.2864</ele>
        <time>2014-07-12T13:16:16Z</time>
      </trkpt>
      <trkpt lat="59.89473" lon="17.6857858">
        <ele>21.2864</ele>
        <time>2014-07-12T13:16:17Z</time>
      </trkpt>
      <trkpt lat="59.8947173" lon="17.6859448">
        <ele>21.767</ele>
        <time>2014-07-12T13:16:18Z</time>
      </trkpt>
      <trkpt lat="59.8947047" lon="17.6860985">
        <ele>22.2476</ele>
        <time>2014-07-12T13:16:19Z</time>
      </trkpt>
      <trkpt lat="59.8946914" lon="17.6862484">
        <ele>22.2476</ele>
        <time>2014-07-12T13:16:20Z</time>
      </trkpt>
      <trkpt lat="59.8946744" lon="17.686394">
        <ele>22.2476</ele>
        <time>2014-07-12T13:16:21Z</time>
      </trkpt>
      <trkpt lat="59.8946543" lon="17.686539">
        <ele>23.209</ele>
        <time>2014-07-12T13:16:22Z</time>
      </trkpt>
      <trkpt lat="59.894633" lon="17.6866794">
        <ele>23.209</ele>
        <time>2014-07-12T13:16:23Z</time>
      </trkpt>
      <trkpt lat="59.8946109" lon="17.6868177">
        <ele>23.6896</ele>
        <time>2014-07-12T13:16:24Z</time>
      </trkpt>
      <trkpt lat="59.8945889" lon="17.6869538">
        <ele>24.1703</ele>
        <time>2014-07-12T13:16:25Z</time>
      </trkpt>
      <trkpt lat="59.8945652" lon="17.6870866">
        <ele>24.651</ele>
        <time>2014-07-12T13:16:26Z</time>
      </trkpt>
      <trkpt lat="59.8945403" lon="17.687218">
        <ele>24.651</ele>
        <time>2014-07-12T13:16:27Z</time>
      </trkpt>
      <trkpt lat="59.8945154" lon="17.6873491">
        <ele>25.1317</ele>
        <time>2014-07-12T13:16:28Z</time>
      </trkpt>
      <trkpt lat="59.8944892" lon="17.6874801">
        <ele>25.1317</ele>
        <time>2014-07-12T13:16:29Z</time>
      </trkpt>
      <trkpt lat="59.8944614" lon="17.6876096">
        <ele>25.6123</ele>
        <time>2014-07-12T13:16:30Z</time>
      </trkpt>
      <trkpt lat="59.8944326" lon="17.6877371">
        <ele>25.6123</ele>
        <time>2014-07-12T13:16:31Z</time>
      </trkpt>
      <trkpt lat="59.894403" lon="17.6878636">
        <ele>25.6123</ele>
        <time>2014-07-12T13:16:32Z</time>
      </trkpt>
      <trkpt lat="59.8943735" lon="17.6879895">
        <ele>26.0929</ele>
        <time>2014-07-12T13:16:33Z</time>
      </trkpt>
      <trkpt lat="59.894345" lon="17.6881153">
        <ele>26.0929</ele>
        <time>2014-07-12T13:16:34Z</time>
      </trkpt>
      <trkpt lat="59.8943181" lon="17.6882384">
        <ele>26.5736</ele>
        <time>2014-07-12T13:16:35Z</time>
      </trkpt>
      <trkpt lat="59.8942928" lon="17.6883582">
        <ele>26.5736</ele>
        <time>2014-07-12T13:16:36Z</time>
      </trkpt>
      <trkpt lat="59.8942693" lon="17.6884754">
        <ele>26.5736</ele>
        <time>2014-07-12T13:16:37Z</time>
      </trkpt>
      <trkpt lat="59.894249" lon="17.6885918">
        <ele>27.0543</ele>
        <time>2014-07-12T13:16:38Z</time>
      </trkpt>
      <trkpt lat="59.8942316" lon="17.6887074">
        <ele>27.0543</ele>
        <time>2014-07-12T13:16:39Z</time>
      </trkpt>
      <trkpt lat="59.8942165" lon="17.688824">
        <ele>27.0543</ele>
        <time>2014-07-12T13:16:40Z</time>
      </trkpt>
      <trkpt lat="59.8942027" lon="17.6889416">
        <ele>27.5349</ele>
        <time>2014-07-12T13:16:41Z</time>
      </trkpt>
      <trkpt lat="59.8941899" lon="17.6890597">
        <ele>27.5349</ele>
        <time>2014-07-12T13:16:42Z</time>
      </trkpt>
      <trkpt lat="59.8941767" lon="17.6891782">
        <ele>27.5349</ele>
        <time>2014-07-12T13:16:43Z</time>
      </trkpt>
      <trkpt lat="59.8941643" lon="17.689296">
        <ele>28.0155</ele>
        <time>2014-07-12T13:16:44Z</time>
      </trkpt>
      <trkpt lat="59.8941534" lon="17.689412">
        <ele>28.0155</ele>
        <time>2014-07-12T13:16:45Z</time>
      </trkpt>
      <trkpt lat="59.8941411" lon="17.6895269">
        <ele>28.4962</ele>
        <time>2014-07-12T13:16:46Z</time>
      </trkpt>
      <trkpt lat="59.8941279" lon="17.689643">
        <ele>28.4962</ele>
        <time>2014-07-12T13:16:47Z</time>
      </trkpt>
      <trkpt lat="59.8941141" lon="17.6897594">
        <ele>28.9769</ele>
        <time>2014-07-12T13:16:48Z</time>
      </trkpt>
      <trkpt lat="59.894099" lon="17.6898767">
        <ele>28.9769</ele>
        <time>2014-07-12T13:16:49Z</time>
      </trkpt>
      <trkpt lat="59.8940846" lon="17.6899977">
        <ele>28.9769</ele>
        <time>2014-07-12T13:16:50Z</time>
      </trkpt>
      <trkpt lat="59.8940704" lon="17.6901222">
        <ele>28.9769</ele>
        <time>2014-07-12T13:16:51Z</time>
      </trkpt>
      <trkpt lat="59.8940539" lon="17.6902493">
        <ele>28.9769</ele>
        <time>2014-07-12T13:16:52Z</time>
      </trkpt>
      <trkpt lat="59.8940338" lon="17.6903815">
        <ele>28.9769</ele>
        <time>2014-07-12T13:16:53Z</time>
      </trkpt>
      <trkpt lat="59.8940133" lon="17.6905218">
        <ele>28.4962</ele>
        <time>2014-07-12T13:16:54Z</time>
      </trkpt>
      <trkpt lat="59.8939833" lon="17.6906604">
        <ele>28.4962</ele>
        <time>2014-07-12T13:16:55Z</time>
      </trkpt>
      <trkpt lat="59.8939596" lon="17.6908064">
        <ele>28.0155</ele>
        <time>2014-07-12T13:16:56Z</time>
      </trkpt>
      <trkpt lat="59.8939368" lon="17.6909654">
        <ele>28.0155</ele>
        <time>2014-07-12T13:16:57Z</time>
      </trkpt>
      <trkpt lat="59.8939183" lon="17.6910991">
        <ele>28.0155</ele>
        <time>2014-07-12T13:16:58Z</time>
      </trkpt>
      <trkpt lat="59.8939027" lon="17.6912512">
        <ele>28.0155</ele>
        <time>2014-07-12T13:16:59Z</time>
      </trkpt>
      <trkpt lat="59.8938876" lon="17.6914056">
        <ele>28.0155</ele>
        <time>2014-07-12T13:17:00Z</time>
      </trkpt>
      <trkpt lat="59.8938808" lon="17.6915514">
        <ele>28.0155</ele>
        <time>2014-07-12T13:17:01Z</time>
      </trkpt>
      <trkpt lat="59.8938757" lon="17.6917058">
        <ele>27.5349</ele>
        <time>2014-07-12T13:17:02Z</time>
      </trkpt>
      <trkpt lat="59.8938722" lon="17.6918652">
        <ele>27.5349</ele>
        <time>2014-07-12T13:17:03Z</time>
      </trkpt>
      <trkpt lat="59.8938704" lon="17.6920279">
        <ele>27.0543</ele>
        <time>2014-07-12T13:17:04Z</time>
      </trkpt>
      <trkpt lat="59.8938711" lon="17.6921976">
        <ele>27.0543</ele>
        <time>2014-07-12T13:17:05Z</time>
      </trkpt>
      <trkpt lat="59.8938669" lon="17.6923775">
        <ele>26.5736</ele>
        <time>2014-07-12T13:17:06Z</time>
      </trkpt>
      <trkpt lat="59.8938665" lon="17.6925472">
        <ele>26.0929</ele>
        <time>2014-07-12T13:17:07Z</time>
      </trkpt>
      <trkpt lat="59.8938655" lon="17.6927167">
        <ele>26.0929</ele>
        <time>2014-07-12T13:17:08Z</time>
      </trkpt>
      <trkpt lat="59.8938592" lon="17.692884">
        <ele>26.0929</ele>
        <time>2014-07-12T13:17:09Z</time>
      </trkpt>
      <trkpt lat="59.8938544" lon="17.6930507">
        <ele>26.0929</ele>
        <time>2014-07-12T13:17:10Z</time>
      </trkpt>
      <trkpt lat="59.8938484" lon="17.6932093">
        <ele>26.0929</ele>
        <time>2014-07-12T13:17:11Z</time>
      </trkpt>
      <trkpt lat="59.8938426" lon="17.6933685">
        <ele>26.5736</ele>
        <time>2014-07-12T13:17:12Z</time>
      </trkpt>
      <trkpt lat="59.8938367" lon="17.6935281">
        <ele>26.5736</ele>
        <time>2014-07-12T13:17:13Z</time>
      </trkpt>
      <trkpt lat="59.8938318" lon="17.6936886">
        <ele>26.5736</ele>
        <time>2014-07-12T13:17:14Z</time>
      </trkpt>
      <trkpt lat="59.8938285" lon="17.6938472">
        <ele>26.5736</ele>
        <time>2014-07-12T13:17:15Z</time>
      </trkpt>
      <trkpt lat="59.8938251" lon="17.694005">
        <ele>27.0543</ele>
        <time>2014-07-12T13:17:16Z</time>
      </trkpt>
      <trkpt lat="59.8938206" lon="17.6941635">
        <ele>27.0543</ele>
        <time>2014-07-12T13:17:17Z</time>
      </trkpt>
      <trkpt lat="59.8938167" lon="17.6943231">
        <ele>27.0543</ele>
        <time>2014-07-12T13:17:18Z</time>
      </trkpt>
      <trkpt lat="59.8938135" lon="17.6944852">
        <ele>27.0543</ele>
        <time>2014-07-12T13:17:19Z</time>
      </trkpt>
      <trkpt lat="59.8938099" lon="17.6946496">
        <ele>27.0543</ele>
        <time>2014-07-12T13:17:20Z</time>
      </trkpt>
      <trkpt lat="59.8938053" lon="17.6948157">
        <ele>27.5349</ele>
        <time>2014-07-12T13:17:21Z</time>
      </trkpt>
      <trkpt lat="59.8938011" lon="17.6949829">
        <ele>27.5349</ele>
        <time>2014-07-12T13:17:22Z</time>
      </trkpt>
      <trkpt lat="59.8937974" lon="17.6951509">
        <ele>27.5349</ele>
        <time>2014-07-12T13:17:23Z</time>
      </trkpt>
      <trkpt lat="59.8937934" lon="17.6953192">
        <ele>27.5349</ele>
        <time>2014-07-12T13:17:24Z</time>
      </trkpt>
      <trkpt lat="59.8937902" lon="17.6954876">
        <ele>28.0155</ele>
        <time>2014-07-12T13:17:25Z</time>
      </trkpt>
      <trkpt lat="59.8937872" lon="17.6956541">
        <ele>28.0155</ele>
        <time>2014-07-12T13:17:26Z</time>
      </trkpt>
      <trkpt lat="59.8937829" lon="17.6958165">
        <ele>28.4962</ele>
        <time>2014-07-12T13:17:27Z</time>
      </trkpt>
      <trkpt lat="59.8937783" lon="17.6959752">
        <ele>28.9769</ele>
        <time>2014-07-12T13:17:28Z</time>
      </trkpt>
      <trkpt lat="59.8937738" lon="17.6961305">
        <ele>28.9769</ele>
        <time>2014-07-12T13:17:29Z</time>
      </trkpt>
      <trkpt lat="59.8937701" lon="17.6962817">
        <ele>29.4575</ele>
        <time>2014-07-12T13:17:30Z</time>
      </trkpt>
      <trkpt lat="59.8937693" lon="17.6964308">
        <ele>29.4575</ele>
        <time>2014-07-12T13:17:31Z</time>
      </trkpt>
      <trkpt lat="59.8937709" lon="17.6965745">
        <ele>29.9381</ele>
        <time>2014-07-12T13:17:32Z</time>
      </trkpt>
      <trkpt lat="59.8937737" lon="17.6967203">
        <ele>29.9381</ele>
        <time>2014-07-12T13:17:33Z</time>
      </trkpt>
      <trkpt lat="59.8937721" lon="17.6968709">
        <ele>29.9381</ele>
        <time>2014-07-12T13:17:34Z</time>
      </trkpt>
      <trkpt lat="59.8937641" lon="17.6970256">
        <ele>29.4575</ele>
        <time>2014-07-12T13:17:35Z</time>
      </trkpt>
      <trkpt lat="59.8937505" lon="17.697181">
        <ele>28.9769</ele>
        <time>2014-07-12T13:17:36Z</time>
      </trkpt>
      <trkpt lat="59.8937333" lon="17.6973333">
        <ele>28.4962</ele>
        <time>2014-07-12T13:17:37Z</time>
      </trkpt>
      <trkpt lat="59.8937108" lon="17.6974804">
        <ele>28.4962</ele>
        <time>2014-07-12T13:17:38Z</time>
      </trkpt>
      <trkpt lat="59.893684" lon="17.6976228">
        <ele>28.0155</ele>
        <time>2014-07-12T13:17:39Z</time>
      </trkpt>
      <trkpt lat="59.8936519" lon="17.6977581">
        <ele>27.5349</ele>
        <time>2014-07-12T13:17:40Z</time>
      </trkpt>
      <trkpt lat="59.8936165" lon="17.6978871">
        <ele>27.5349</ele>
        <time>2014-07-12T13:17:41Z</time>
      </trkpt>
      <trkpt lat="59.8935801" lon="17.6980107">
        <ele>27.5349</ele>
        <time>2014-07-12T13:17:42Z</time>
      </trkpt>
      <trkpt lat="59.8935431" lon="17.698129">
        <ele>27.0543</ele>
        <time>2014-07-12T13:17:43Z</time>
      </trkpt>
      <trkpt lat="59.8935068" lon="17.6982366">
        <ele>27.0543</ele>
        <time>2014-07-12T13:17:44Z</time>
      </trkpt>
      <trkpt lat="59.8934659" lon="17.6983415">
        <ele>27.0543</ele>
        <time>2014-07-12T13:17:45Z</time>
      </trkpt>
      <trkpt lat="59.8934219" lon="17.6984439">
        <ele>27.0543</ele>
        <time>2014-07-12T13:17:46Z</time>
      </trkpt>
      <trkpt lat="59.8933793" lon="17.6985377">
        <ele>27.0543</ele>
        <time>2014-07-12T13:17:47Z</time>
      </trkpt>
      <trkpt lat="59.8933364" lon="17.6986311">
        <ele>26.5736</ele>
        <time>2014-07-12T13:17:48Z</time>
      </trkpt>
      <trkpt lat="59.8932972" lon="17.6987299">
        <ele>26.5736</ele>
        <time>2014-07-12T13:17:49Z</time>
      </trkpt>
      <trkpt lat="59.893266" lon="17.6988392">
        <ele>26.5736</ele>
        <time>2014-07-12T13:17:50Z</time>
      </trkpt>
      <trkpt lat="59.8932453" lon="17.69896">
        <ele>26.5736</ele>
        <time>2014-07-12T13:17:51Z</time>
      </trkpt>
      <trkpt lat="59.8932307" lon="17.6990903">
        <ele>26.5736</ele>
        <time>2014-07-12T13:17:52Z</time>
      </trkpt>
      <trkpt lat="59.8932101" lon="17.6992213">
        <ele>26.5736</ele>
        <time>2014-07-12T13:17:53Z</time>
      </trkpt>
      <trkpt lat="59.8931765" lon="17.6993416">
        <ele>26.5736</ele>
        <time>2014-07-12T13:17:54Z</time>
      </trkpt>
      <trkpt lat="59.893133" lon="17.6994513">
        <ele>26.0929</ele>
        <time>2014-07-12T13:17:55Z</time>
      </trkpt>
      <trkpt lat="59.893085" lon="17.699556">
        <ele>26.0929</ele>
        <time>2014-07-12T13:17:56Z</time>
      </trkpt>
      <trkpt lat="59.8930355" lon="17.6996611">
        <ele>26.0929</ele>
        <time>2014-07-12T13:17:57Z</time>
      </trkpt>
      <trkpt lat="59.8929867" lon="17.6997696">
        <ele>26.0929</ele>
        <time>2014-07-12T13:17:58Z</time>
      </trkpt>
      <trkpt lat="59.8929386" lon="17.699883">
        <ele>26.0929</ele>
        <time>2014-07-12T13:17:59Z</time>
      </trkpt>
      <trkpt lat="59.8928909" lon="17.6999984">
        <ele>26.0929</ele>
        <time>2014-07-12T13:18:00Z</time>
      </trkpt>
      <trkpt lat="59.8928371" lon="17.7001121">
        <ele>26.0929</ele>
        <time>2014-07-12T13:18:01Z</time>
      </trkpt>
      <trkpt lat="59.8927908" lon="17.700225">
        <ele>25.6123</ele>
        <time>2014-07-12T13:18:02Z</time>
      </trkpt>
      <trkpt lat="59.8927459" lon="17.7003346">
        <ele>25.6123</ele>
        <time>2014-07-12T13:18:03Z</time>
      </trkpt>
      <trkpt lat="59.8927024" lon="17.7004429">
        <ele>25.1317</ele>
        <time>2014-07-12T13:18:04Z</time>
      </trkpt>
      <trkpt lat="59.8926611" lon="17.7005466">
        <ele>25.1317</ele>
        <time>2014-07-12T13:18:05Z</time>
      </trkpt>
      <trkpt lat="59.8926197" lon="17.7006464">
        <ele>25.1317</ele>
        <time>2014-07-12T13:18:06Z</time>
      </trkpt>
      <trkpt lat="59.8925823" lon="17.7007368">
        <ele>25.1317</ele>
        <time>2014-07-12T13:18:07Z</time>
      </trkpt>
      <trkpt lat="59.8925526" lon="17.7008228">
        <ele>25.1317</ele>
        <time>2014-07-12T13:18:08Z</time>
      </trkpt>
      <trkpt lat="59.89253" lon="17.7008939">
        <ele>25.1317</ele>
        <time>2014-07-12T13:18:09Z</time>
      </trkpt>
      <trkpt lat="59.8925119" lon="17.7009458">
        <ele>25.1317</ele>
        <time>2014-07-12T13:18:10Z</time>
      </trkpt>
      <trkpt lat="59.8924973" lon="17.7009781">
        <ele>25.1317</ele>
        <time>2014-07-12T13:18:11Z</time>
      </trkpt>
      <trkpt lat="59.8924838" lon="17.7009812">
        <ele>25.1317</ele>
        <time>2014-07-12T13:18:12Z</time>
      </trkpt>
      <trkpt lat="59.8924698" lon="17.7009823">
        <ele>25.1317</ele>
        <time>2014-07-12T13:18:13Z</time>
      </trkpt>
      <trkpt lat="59.8924584" lon="17.7009976">
        <ele>25.1317</ele>
        <time>2014-07-12T13:18:14Z</time>
      </trkpt>
      <trkpt lat="59.8924485" lon="17.7010225">
        <ele>25.1317</ele>
        <time>2014-07-12T13:18:15Z</time>
      </trkpt>
      <trkpt lat="59.8924403" lon="17.7010488">
        <ele>25.6123</ele>
        <time>2014-07-12T13:18:16Z</time>
      </trkpt>
      <trkpt lat="59.8924363" lon="17.7010671">
        <ele>25.6123</ele>
        <time>2014-07-12T13:18:17Z</time>
      </trkpt>
      <trkpt lat="59.8924337" lon="17.7010898">
        <ele>25.6123</ele>
        <time>2014-07-12T13:18:18Z</time>
      </trkpt>
      <trkpt lat="59.8924275" lon="17.70112">
        <ele>25.6123</ele>
        <time>2014-07-12T13:18:19Z</time>
      </trkpt>
      <trkpt lat="59.8924153" lon="17.7011531">
        <ele>25.6123</ele>
        <time>2014-07-12T13:18:20Z</time>
      </trkpt>
      <trkpt lat="59.8923988" lon="17.7011915">
        <ele>25.6123</ele>
        <time>2014-07-12T13:18:21Z</time>
      </trkpt>
      <trkpt lat="59.8923813" lon="17.7012433">
        <ele>25.1317</ele>
        <time>2014-07-12T13:18:22Z</time>
      </trkpt>
      <trkpt lat="59.8923688" lon="17.7013117">
        <ele>25.1317</ele>
        <time>2014-07-12T13:18:23Z</time>
      </trkpt>
      <trkpt lat="59.8923719" lon="17.7013833">
        <ele>25.1317</ele>
        <time>2014-07-12T13:18:24Z</time>
      </trkpt>
      <trkpt lat="59.8923947" lon="17.7014539">
        <ele>25.1317</ele>
        <time>2014-07-12T13:18:25Z</time>
      </trkpt>
      <trkpt lat="59.892431" lon="17.701515">
        <ele>25.1317</ele>
        <time>2014-07-12T13:18:26Z</time>
      </trkpt>
      <trkpt lat="59.8924729" lon="17.7015785">
        <ele>25.1317</ele>
        <time>2014-07-12T13:18:27Z</time>
      </trkpt>
      <trkpt lat="59.8925171" lon="17.7016516">
        <ele>25.1317</ele>
        <time>2014-07-12T13:18:28Z</time>
      </trkpt>
      <trkpt lat="59.8925637" lon="17.7017323">
        <ele>25.1317</ele>
        <time>2014-07-12T13:18:29Z</time>
      </trkpt>
      <trkpt lat="59.8926126" lon="17.7018126">
        <ele>25.1317</ele>
        <time>2014-07-12T13:18:30Z</time>
      </trkpt>
      <trkpt lat="59.8926646" lon="17.7018867">
        <ele>25.1317</ele>
        <time>2014-07-12T13:18:31Z</time>
      </trkpt>
      <trkpt lat="59.8927202" lon="17.701954">
        <ele>25.1317</ele>
        <time>2014-07-12T13:18:32Z</time>
      </trkpt>
      <trkpt lat="59.8927786" lon="17.702015">
        <ele>25.1317</ele>
        <time>2014-07-12T13:18:33Z</time>
      </trkpt>
      <trkpt lat="59.892839" lon="17.7020752">
        <ele>25.6123</ele>
        <time>2014-07-12T13:18:34Z</time>
      </trkpt>
      <trkpt lat="59.8928986" lon="17.7021426">
        <ele>25.6123</ele>
        <time>2014-07-12T13:18:35Z</time>
      </trkpt>
      <trkpt lat="59.8929571" lon="17.702215">
        <ele>25.6123</ele>
        <time>2014-07-12T13:18:36Z</time>
      </trkpt>
      <trkpt lat="59.8930152" lon="17.702289">
        <ele>25.6123</ele>
        <time>2014-07-12T13:18:37Z</time>
      </trkpt>
      <trkpt lat="59.8930733" lon="17.7023656">
        <ele>25.6123</ele>
        <time>2014-07-12T13:18:38Z</time>
      </trkpt>
      <trkpt lat="59.8931325" lon="17.7024431">
        <ele>25.6123</ele>
        <time>2014-07-12T13:18:39Z</time>
      </trkpt>
      <trkpt lat="59.8931923" lon="17.7025228">
        <ele>25.6123</ele>
        <time>2014-07-12T13:18:40Z</time>
      </trkpt>
      <trkpt lat="59.8932526" lon="17.7026056">
        <ele>25.6123</ele>
        <time>2014-07-12T13:18:41Z</time>
      </trkpt>
      <trkpt lat="59.8933146" lon="17.702689">
        <ele>25.6123</ele>
        <time>2014-07-12T13:18:42Z</time>
      </trkpt>
      <trkpt lat="59.8933774" lon="17.7027714">
        <ele>25.6123</ele>
        <time>2014-07-12T13:18:43Z</time>
      </trkpt>
      <trkpt lat="59.8934411" lon="17.7028512">
        <ele>25.6123</ele>
        <time>2014-07-12T13:18:44Z</time>
      </trkpt>
      <trkpt lat="59.8935063" lon="17.702929">
        <ele>25.6123</ele>
        <time>2014-07-12T13:18:45Z</time>
      </trkpt>
      <trkpt lat="59.8935721" lon="17.7030086">
        <ele>25.6123</ele>
        <time>2014-07-12T13:18:46Z</time>
      </trkpt>
      <trkpt lat="59.8936369" lon="17.7030934">
        <ele>25.6123</ele>
        <time>2014-07-12T13:18:47Z</time>
      </trkpt>
      <trkpt lat="59.8937015" lon="17.7031832">
        <ele>25.6123</ele>
        <time>2014-07-12T13:18:48Z</time>
      </trkpt>
      <trkpt lat="59.8937667" lon="17.703275">
        <ele>25.6123</ele>
        <time>2014-07-12T13:18:49Z</time>
      </trkpt>
      <trkpt lat="59.8938332" lon="17.7033659">
        <ele>25.6123</ele>
        <time>2014-07-12T13:18:50Z</time>
      </trkpt>
      <trkpt lat="59.8938999" lon="17.7034548">
        <ele>25.6123</ele>
        <time>2014-07-12T13:18:51Z</time>
      </trkpt>
      <trkpt lat="59.8939672" lon="17.7035438">
        <ele>25.6123</ele>
        <time>2014-07-12T13:18:52Z</time>
      </trkpt>
      <trkpt lat="59.8940348" lon="17.7036347">
        <ele>25.6123</ele>
        <time>2014-07-12T13:18:53Z</time>
      </trkpt>
      <trkpt lat="59.8941027" lon="17.7037266">
        <ele>25.6123</ele>
        <time>2014-07-12T13:18:54Z</time>
      </trkpt>
      <trkpt lat="59.8941709" lon="17.7038177">
        <ele>25.6123</ele>
        <time>2014-07-12T13:18:55Z</time>
      </trkpt>
      <trkpt lat="59.8942382" lon="17.7039093">
        <ele>25.6123</ele>
        <time>2014-07-12T13:18:56Z</time>
      </trkpt>
      <trkpt lat="59.8943046" lon="17.7040026">
        <ele>25.6123</ele>
        <time>2014-07-12T13:18:57Z</time>
      </trkpt>
      <trkpt lat="59.894371" lon="17.7040968">
        <ele>25.6123</ele>
        <time>2014-07-12T13:18:58Z</time>
      </trkpt>
      <trkpt lat="59.8944388" lon="17.7041902">
        <ele>25.6123</ele>
        <time>2014-07-12T13:18:59Z</time>
      </trkpt>
      <trkpt lat="59.8945078" lon="17.7042815">
        <ele>25.6123</ele>
        <time>2014-07-12T13:19:00Z</time>
      </trkpt>
      <trkpt lat="59.8945785" lon="17.7043725">
        <ele>25.1317</ele>
        <time>2014-07-12T13:19:01Z</time>
      </trkpt>
      <trkpt lat="59.8946487" lon="17.7044652">
        <ele>25.1317</ele>
        <time>2014-07-12T13:19:02Z</time>
      </trkpt>
      <trkpt lat="59.8947185" lon="17.7045596">
        <ele>25.1317</ele>
        <time>2014-07-12T13:19:03Z</time>
      </trkpt>
      <trkpt lat="59.8947879" lon="17.7046549">
        <ele>25.1317</ele>
        <time>2014-07-12T13:19:04Z</time>
      </trkpt>
      <trkpt lat="59.8948573" lon="17.7047518">
        <ele>25.1317</ele>
        <time>2014-07-12T13:19:05Z</time>
      </trkpt>
      <trkpt lat="59.8949272" lon="17.7048485">
        <ele>25.1317</ele>
        <time>2014-07-12T13:19:06Z</time>
      </trkpt>
      <trkpt lat="59.8949977" lon="17.7049466">
        <ele>25.1317</ele>
        <time>2014-07-12T13:19:07Z</time>
      </trkpt>
      <trkpt lat="59.8950678" lon="17.7050513">
        <ele>25.1317</ele>
        <time>2014-07-12T13:19:08Z</time>
      </trkpt>
      <trkpt lat="59.8951371" lon="17.7051579">
        <ele>25.1317</ele>
        <time>2014-07-12T13:19:09Z</time>
      </trkpt>
      <trkpt lat="59.8952078" lon="17.7052613">
        <ele>25.1317</ele>
        <time>2014-07-12T13:19:10Z</time>
      </trkpt>
      <trkpt lat="59.8952809" lon="17.7053563">
        <ele>25.1317</ele>
        <time>2014-07-12T13:19:11Z</time>
      </trkpt>
      <trkpt lat="59.8953562" lon="17.7054401">
        <ele>25.1317</ele>
        <time>2014-07-12T13:19:12Z</time>
      </trkpt>
      <trkpt lat="59.8954317" lon="17.7055196">
        <ele>25.1317</ele>
        <time>2014-07-12T13:19:13Z</time>
      </trkpt>
      <trkpt lat="59.8955049" lon="17.7056048">
        <ele>25.1317</ele>
        <time>2014-07-12T13:19:14Z</time>
      </trkpt>
      <trkpt lat="59.8955749" lon="17.7056975">
        <ele>25.1317</ele>
        <time>2014-07-12T13:19:15Z</time>
      </trkpt>
      <trkpt lat="59.895644" lon="17.7057919">
        <ele>25.1317</ele>
        <time>2014-07-12T13:19:16Z</time>
      </trkpt>
      <trkpt lat="59.8957131" lon="17.7058857">
        <ele>25.1317</ele>
        <time>2014-07-12T13:19:17Z</time>
      </trkpt>
      <trkpt lat="59.8957826" lon="17.7059794">
        <ele>25.1317</ele>
        <time>2014-07-12T13:19:18Z</time>
      </trkpt>
      <trkpt lat="59.8958519" lon="17.7060732">
        <ele>25.1317</ele>
        <time>2014-07-12T13:19:19Z</time>
      </trkpt>
      <trkpt lat="59.8959213" lon="17.7061675">
        <ele>25.1317</ele>
        <time>2014-07-12T13:19:20Z</time>
      </trkpt>
      <trkpt lat="59.8959908" lon="17.7062605">
        <ele>25.6123</ele>
        <time>2014-07-12T13:19:21Z</time>
      </trkpt>
      <trkpt lat="59.8960608" lon="17.7063523">
        <ele>25.6123</ele>
        <time>2014-07-12T13:19:22Z</time>
      </trkpt>
      <trkpt lat="59.8961309" lon="17.7064441">
        <ele>25.6123</ele>
        <time>2014-07-12T13:19:23Z</time>
      </trkpt>
      <trkpt lat="59.896201" lon="17.7065367">
        <ele>25.6123</ele>
        <time>2014-07-12T13:19:24Z</time>
      </trkpt>
      <trkpt lat="59.8962704" lon="17.706632">
        <ele>25.6123</ele>
        <time>2014-07-12T13:19:25Z</time>
      </trkpt>
      <trkpt lat="59.89634" lon="17.7067267">
        <ele>25.6123</ele>
        <time>2014-07-12T13:19:26Z</time>
      </trkpt>
      <trkpt lat="59.8964107" lon="17.7068191">
        <ele>25.6123</ele>
        <time>2014-07-12T13:19:27Z</time>
      </trkpt>
      <trkpt lat="59.8964808" lon="17.7069124">
        <ele>25.6123</ele>
        <time>2014-07-12T13:19:28Z</time>
      </trkpt>
      <trkpt lat="59.8965507" lon="17.7070061">
        <ele>25.6123</ele>
        <time>2014-07-12T13:19:29Z</time>
      </trkpt>
      <trkpt lat="59.8966206" lon="17.7070978">
        <ele>26.0929</ele>
        <time>2014-07-12T13:19:30Z</time>
      </trkpt>
      <trkpt lat="59.8966897" lon="17.7071886">
        <ele>25.6123</ele>
        <time>2014-07-12T13:19:31Z</time>
      </trkpt>
      <trkpt lat="59.8967585" lon="17.7072802">
        <ele>26.0929</ele>
        <time>2014-07-12T13:19:32Z</time>
      </trkpt>
      <trkpt lat="59.8968262" lon="17.707374">
        <ele>25.6123</ele>
        <time>2014-07-12T13:19:33Z</time>
      </trkpt>
      <trkpt lat="59.896894" lon="17.7074677">
        <ele>25.6123</ele>
        <time>2014-07-12T13:19:34Z</time>
      </trkpt>
      <trkpt lat="59.896963" lon="17.7075589">
        <ele>25.6123</ele>
        <time>2014-07-12T13:19:35Z</time>
      </trkpt>
      <trkpt lat="59.8970316" lon="17.7076519">
        <ele>25.6123</ele>
        <time>2014-07-12T13:19:36Z</time>
      </trkpt>
      <trkpt lat="59.8971003" lon="17.7077452">
        <ele>25.6123</ele>
        <time>2014-07-12T13:19:37Z</time>
      </trkpt>
      <trkpt lat="59.8971687" lon="17.7078374">
        <ele>25.6123</ele>
        <time>2014-07-12T13:19:38Z</time>
      </trkpt>
      <trkpt lat="59.8972366" lon="17.7079299">
        <ele>25.6123</ele>
        <time>2014-07-12T13:19:39Z</time>
      </trkpt>
      <trkpt lat="59.897304" lon="17.7080229">
        <ele>25.6123</ele>
        <time>2014-07-12T13:19:40Z</time>
      </trkpt>
      <trkpt lat="59.8973711" lon="17.7081178">
        <ele>25.6123</ele>
        <time>2014-07-12T13:19:41Z</time>
      </trkpt>
      <trkpt lat="59.897436" lon="17.7082178">
        <ele>25.6123</ele>
        <time>2014-07-12T13:19:42Z</time>
      </trkpt>
      <trkpt lat="59.8974991" lon="17.7083229">
        <ele>25.6123</ele>
        <time>2014-07-12T13:19:43Z</time>
      </trkpt>
      <trkpt lat="59.8975632" lon="17.7084253">
        <ele>25.6123</ele>
        <time>2014-07-12T13:19:44Z</time>
      </trkpt>
      <trkpt lat="59.8976318" lon="17.708515">
        <ele>25.6123</ele>
        <time>2014-07-12T13:19:45Z</time>
      </trkpt>
      <trkpt lat="59.8977049" lon="17.7085928">
        <ele>25.6123</ele>
        <time>2014-07-12T13:19:46Z</time>
      </trkpt>
      <trkpt lat="59.8977788" lon="17.708669">
        <ele>25.6123</ele>
        <time>2014-07-12T13:19:47Z</time>
      </trkpt>
      <trkpt lat="59.8978514" lon="17.7087509">
        <ele>25.6123</ele>
        <time>2014-07-12T13:19:48Z</time>
      </trkpt>
      <trkpt lat="59.897923" lon="17.7088404">
        <ele>25.6123</ele>
        <time>2014-07-12T13:19:49Z</time>
      </trkpt>
      <trkpt lat="59.8979924" lon="17.7089337">
        <ele>25.6123</ele>
        <time>2014-07-12T13:19:50Z</time>
      </trkpt>
      <trkpt lat="59.898059" lon="17.7090279">
        <ele>25.6123</ele>
        <time>2014-07-12T13:19:51Z</time>
      </trkpt>
      <trkpt lat="59.8981249" lon="17.7091202">
        <ele>25.6123</ele>
        <time>2014-07-12T13:19:52Z</time>
      </trkpt>
      <trkpt lat="59.8981913" lon="17.7092081">
        <ele>25.6123</ele>
        <time>2014-07-12T13:19:53Z</time>
      </trkpt>
      <trkpt lat="59.8982575" lon="17.7092933">
        <ele>26.0929</ele>
        <time>2014-07-12T13:19:54Z</time>
      </trkpt>
      <trkpt lat="59.8983233" lon="17.7093771">
        <ele>26.0929</ele>
        <time>2014-07-12T13:19:55Z</time>
      </trkpt>
      <trkpt lat="59.8983876" lon="17.7094618">
        <ele>26.0929</ele>
        <time>2014-07-12T13:19:56Z</time>
      </trkpt>
      <trkpt lat="59.8984507" lon="17.709548">
        <ele>26.0929</ele>
        <time>2014-07-12T13:19:57Z</time>
      </trkpt>
      <trkpt lat="59.898514" lon="17.7096328">
        <ele>26.0929</ele>
        <time>2014-07-12T13:19:58Z</time>
      </trkpt>
      <trkpt lat="59.8985785" lon="17.7097189">
        <ele>26.0929</ele>
        <time>2014-07-12T13:19:59Z</time>
      </trkpt>
      <trkpt lat="59.8986439" lon="17.7098059">
        <ele>26.0929</ele>
        <time>2014-07-12T13:20:00Z</time>
      </trkpt>
      <trkpt lat="59.8987112" lon="17.7098908">
        <ele>26.0929</ele>
        <time>2014-07-12T13:20:01Z</time>
      </trkpt>
      <trkpt lat="59.8987807" lon="17.7099754">
        <ele>26.0929</ele>
        <time>2014-07-12T13:20:02Z</time>
      </trkpt>
      <trkpt lat="59.8988506" lon="17.7100607">
        <ele>26.0929</ele>
        <time>2014-07-12T13:20:03Z</time>
      </trkpt>
      <trkpt lat="59.8989186" lon="17.7101478">
        <ele>26.0929</ele>
        <time>2014-07-12T13:20:04Z</time>
      </trkpt>
      <trkpt lat="59.8989848" lon="17.710237">
        <ele>26.0929</ele>
        <time>2014-07-12T13:20:05Z</time>
      </trkpt>
      <trkpt lat="59.8990504" lon="17.7103251">
        <ele>26.0929</ele>
        <time>2014-07-12T13:20:06Z</time>
      </trkpt>
      <trkpt lat="59.8991152" lon="17.7104105">
        <ele>26.0929</ele>
        <time>2014-07-12T13:20:07Z</time>
      </trkpt>
      <trkpt lat="59.8991791" lon="17.7104955">
        <ele>26.0929</ele>
        <time>2014-07-12T13:20:08Z</time>
      </trkpt>
      <trkpt lat="59.8992424" lon="17.71058">
        <ele>26.0929</ele>
        <time>2014-07-12T13:20:09Z</time>
      </trkpt>
      <trkpt lat="59.8993058" lon="17.7106628">
        <ele>26.5736</ele>
        <time>2014-07-12T13:20:10Z</time>
      </trkpt>
      <trkpt lat="59.8993693" lon="17.7107427">
        <ele>26.5736</ele>
        <time>2014-07-12T13:20:11Z</time>
      </trkpt>
      <trkpt lat="59.8994336" lon="17.7108195">
        <ele>26.5736</ele>
        <time>2014-07-12T13:20:12Z</time>
      </trkpt>
      <trkpt lat="59.8994981" lon="17.7108955">
        <ele>26.5736</ele>
        <time>2014-07-12T13:20:13Z</time>
      </trkpt>
      <trkpt lat="59.8995624" lon="17.710971">
        <ele>26.5736</ele>
        <time>2014-07-12T13:20:14Z</time>
      </trkpt>
      <trkpt lat="59.8996267" lon="17.7110456">
        <ele>26.5736</ele>
        <time>2014-07-12T13:20:15Z</time>
      </trkpt>
      <trkpt lat="59.8996909" lon="17.7111202">
        <ele>26.5736</ele>
        <time>2014-07-12T13:20:16Z</time>
      </trkpt>
      <trkpt lat="59.8997546" lon="17.7111958">
        <ele>26.5736</ele>
        <time>2014-07-12T13:20:17Z</time>
      </trkpt>
      <trkpt lat="59.8998177" lon="17.7112729">
        <ele>26.5736</ele>
        <time>2014-07-12T13:20:18Z</time>
      </trkpt>
      <trkpt lat="59.8998808" lon="17.7113485">
        <ele>26.5736</ele>
        <time>2014-07-12T13:20:19Z</time>
      </trkpt>
      <trkpt lat="59.899944" lon="17.7114213">
        <ele>27.0543</ele>
        <time>2014-07-12T13:20:20Z</time>
      </trkpt>
      <trkpt lat="59.9000064" lon="17.7114924">
        <ele>27.0543</ele>
        <time>2014-07-12T13:20:21Z</time>
      </trkpt>
      <trkpt lat="59.9000685" lon="17.7115618">
        <ele>27.0543</ele>
        <time>2014-07-12T13:20:22Z</time>
      </trkpt>
      <trkpt lat="59.9001295" lon="17.7116299">
        <ele>27.0543</ele>
        <time>2014-07-12T13:20:23Z</time>
      </trkpt>
      <trkpt lat="59.9001893" lon="17.7116974">
        <ele>27.0543</ele>
        <time>2014-07-12T13:20:24Z</time>
      </trkpt>
      <trkpt lat="59.9002487" lon="17.7117655">
        <ele>27.0543</ele>
        <time>2014-07-12T13:20:25Z</time>
      </trkpt>
      <trkpt lat="59.9003072" lon="17.7118331">
        <ele>27.0543</ele>
        <time>2014-07-12T13:20:26Z</time>
      </trkpt>
      <trkpt lat="59.9003651" lon="17.7118991">
        <ele>27.0543</ele>
        <time>2014-07-12T13:20:27Z</time>
      </trkpt>
      <trkpt lat="59.9004223" lon="17.711963">
        <ele>27.0543</ele>
        <time>2014-07-12T13:20:28Z</time>
      </trkpt>
      <trkpt lat="59.9004797" lon="17.7120258">
        <ele>27.0543</ele>
        <time>2014-07-12T13:20:29Z</time>
      </trkpt>
      <trkpt lat="59.9005376" lon="17.7120881">
        <ele>27.0543</ele>
        <time>2014-07-12T13:20:30Z</time>
      </trkpt>
      <trkpt lat="59.9005947" lon="17.7121504">
        <ele>27.0543</ele>
        <time>2014-07-12T13:20:31Z</time>
      </trkpt>
      <trkpt lat="59.9006504" lon="17.7122116">
        <ele>27.0543</ele>
        <time>2014-07-12T13:20:32Z</time>
      </trkpt>
      <trkpt lat="59.9007053" lon="17.712269">
        <ele>27.0543</ele>
        <time>2014-07-12T13:20:33Z</time>
      </trkpt>
      <trkpt lat="59.900759" lon="17.7123261">
        <ele>27.0543</ele>
        <time>2014-07-12T13:20:34Z</time>
      </trkpt>
      <trkpt lat="59.9008102" lon="17.7123866">
        <ele>27.0543</ele>
        <time>2014-07-12T13:20:35Z</time>
      </trkpt>
      <trkpt lat="59.9008609" lon="17.7124427">
        <ele>27.0543</ele>
        <time>2014-07-12T13:20:36Z</time>
      </trkpt>
      <trkpt lat="59.9009124" lon="17.7124923">
        <ele>27.0543</ele>
        <time>2014-07-12T13:20:37Z</time>
      </trkpt>
      <trkpt lat="59.9009632" lon="17.7125406">
        <ele>27.0543</ele>
        <time>2014-07-12T13:20:38Z</time>
      </trkpt>
      <trkpt lat="59.9010127" lon="17.7125908">
        <ele>27.0543</ele>
        <time>2014-07-12T13:20:39Z</time>
      </trkpt>
      <trkpt lat="59.9010555" lon="17.7126572">
        <ele>27.0543</ele>
        <time>2014-07-12T13:20:40Z</time>
      </trkpt>
      <trkpt lat="59.9010796" lon="17.7127515">
        <ele>27.0543</ele>
        <time>2014-07-12T13:20:41Z</time>
      </trkpt>
      <trkpt lat="59.9010748" lon="17.7128592">
        <ele>27.0543</ele>
        <time>2014-07-12T13:20:42Z</time>
      </trkpt>
      <trkpt lat="59.901047" lon="17.7129591">
        <ele>26.5736</ele>
        <time>2014-07-12T13:20:43Z</time>
      </trkpt>
      <trkpt lat="59.901009" lon="17.7130517">
        <ele>26.0929</ele>
        <time>2014-07-12T13:20:44Z</time>
      </trkpt>
      <trkpt lat="59.9009697" lon="17.7131466">
        <ele>25.6123</ele>
        <time>2014-07-12T13:20:45Z</time>
      </trkpt>
      <trkpt lat="59.9009324" lon="17.7132481">
        <ele>25.6123</ele>
        <time>2014-07-12T13:20:46Z</time>
      </trkpt>
      <trkpt lat="59.9008966" lon="17.7133549">
        <ele>25.1317</ele>
        <time>2014-07-12T13:20:47Z</time>
      </trkpt>
      <trkpt lat="59.9008595" lon="17.7134652">
        <ele>25.1317</ele>
        <time>2014-07-12T13:20:48Z</time>
      </trkpt>
      <trkpt lat="59.9008206" lon="17.7135767">
        <ele>24.651</ele>
        <time>2014-07-12T13:20:49Z</time>
      </trkpt>
      <trkpt lat="59.9007814" lon="17.7136901">
        <ele>24.651</ele>
        <time>2014-07-12T13:20:50Z</time>
      </trkpt>
      <trkpt lat="59.9007426" lon="17.7138059">
        <ele>24.651</ele>
        <time>2014-07-12T13:20:51Z</time>
      </trkpt>
      <trkpt lat="59.9007041" lon="17.713923">
        <ele>24.1703</ele>
        <time>2014-07-12T13:20:52Z</time>
      </trkpt>
      <trkpt lat="59.9006653" lon="17.7140395">
        <ele>24.1703</ele>
        <time>2014-07-12T13:20:53Z</time>
      </trkpt>
      <trkpt lat="59.9006262" lon="17.7141552">
        <ele>24.1703</ele>
        <time>2014-07-12T13:20:54Z</time>
      </trkpt>
      <trkpt lat="59.9005884" lon="17.7142711">
        <ele>24.1703</ele>
        <time>2014-07-12T13:20:55Z</time>
      </trkpt>
      <trkpt lat="59.9005524" lon="17.7143858">
        <ele>24.1703</ele>
        <time>2014-07-12T13:20:56Z</time>
      </trkpt>
      <trkpt lat="59.9005167" lon="17.7144997">
        <ele>24.1703</ele>
        <time>2014-07-12T13:20:57Z</time>
      </trkpt>
      <trkpt lat="59.9004814" lon="17.7146131">
        <ele>24.1703</ele>
        <time>2014-07-12T13:20:58Z</time>
      </trkpt>
      <trkpt lat="59.9004477" lon="17.7147276">
        <ele>24.1703</ele>
        <time>2014-07-12T13:20:59Z</time>
      </trkpt>
      <trkpt lat="59.9004164" lon="17.7148437">
        <ele>24.1703</ele>
        <time>2014-07-12T13:21:00Z</time>
      </trkpt>
      <trkpt lat="59.9003857" lon="17.7149605">
        <ele>24.651</ele>
        <time>2014-07-12T13:21:01Z</time>
      </trkpt>
      <trkpt lat="59.9003555" lon="17.7150774">
        <ele>24.651</ele>
        <time>2014-07-12T13:21:02Z</time>
      </trkpt>
      <trkpt lat="59.9003265" lon="17.7151948">
        <ele>24.651</ele>
        <time>2014-07-12T13:21:03Z</time>
      </trkpt>
      <trkpt lat="59.9002986" lon="17.7153135">
        <ele>24.651</ele>
        <time>2014-07-12T13:21:04Z</time>
      </trkpt>
      <trkpt lat="59.9002716" lon="17.715434">
        <ele>24.651</ele>
        <time>2014-07-12T13:21:05Z</time>
      </trkpt>
      <trkpt lat="59.9002451" lon="17.7155554">
        <ele>24.651</ele>
        <time>2014-07-12T13:21:06Z</time>
      </trkpt>
      <trkpt lat="59.9002203" lon="17.7156781">
        <ele>24.651</ele>
        <time>2014-07-12T13:21:07Z</time>
      </trkpt>
      <trkpt lat="59.900199" lon="17.7158043">
        <ele>24.651</ele>
        <time>2014-07-12T13:21:08Z</time>
      </trkpt>
      <trkpt lat="59.9001793" lon="17.7159321">
        <ele>24.651</ele>
        <time>2014-07-12T13:21:09Z</time>
      </trkpt>
      <trkpt lat="59.9001603" lon="17.716062">
        <ele>24.651</ele>
        <time>2014-07-12T13:21:10Z</time>
      </trkpt>
      <trkpt lat="59.9001438" lon="17.7161952">
        <ele>24.651</ele>
        <time>2014-07-12T13:21:11Z</time>
      </trkpt>
      <trkpt lat="59.900132" lon="17.7163329">
        <ele>24.651</ele>
        <time>2014-07-12T13:21:12Z</time>
      </trkpt>
      <trkpt lat="59.9001238" lon="17.7164747">
        <ele>24.651</ele>
        <time>2014-07-12T13:21:13Z</time>
      </trkpt>
      <trkpt lat="59.9001167" lon="17.7166186">
        <ele>24.1703</ele>
        <time>2014-07-12T13:21:14Z</time>
      </trkpt>
      <trkpt lat="59.9001094" lon="17.7167634">
        <ele>24.1703</ele>
        <time>2014-07-12T13:21:15Z</time>
      </trkpt>
      <trkpt lat="59.9001012" lon="17.7169065">
        <ele>24.651</ele>
        <time>2014-07-12T13:21:16Z</time>
      </trkpt>
      <trkpt lat="59.9000955" lon="17.7170488">
        <ele>24.651</ele>
        <time>2014-07-12T13:21:17Z</time>
      </trkpt>
      <trkpt lat="59.9000898" lon="17.7171886">
        <ele>24.651</ele>
        <time>2014-07-12T13:21:18Z</time>
      </trkpt>
      <trkpt lat="59.9000814" lon="17.7173255">
        <ele>24.651</ele>
        <time>2014-07-12T13:21:19Z</time>
      </trkpt>
      <trkpt lat="59.9000706" lon="17.717462">
        <ele>24.651</ele>
        <time>2014-07-12T13:21:20Z</time>
      </trkpt>
      <trkpt lat="59.9000577" lon="17.7175984">
        <ele>25.1317</ele>
        <time>2014-07-12T13:21:21Z</time>
      </trkpt>
      <trkpt lat="59.9000393" lon="17.7177322">
        <ele>25.1317</ele>
        <time>2014-07-12T13:21:22Z</time>
      </trkpt>
      <trkpt lat="59.9000162" lon="17.7178657">
        <ele>25.1317</ele>
        <time>2014-07-12T13:21:23Z</time>
      </trkpt>
      <trkpt lat="59.8999893" lon="17.7179974">
        <ele>25.1317</ele>
        <time>2014-07-12T13:21:24Z</time>
      </trkpt>
      <trkpt lat="59.899958" lon="17.7181245">
        <ele>25.1317</ele>
        <time>2014-07-12T13:21:25Z</time>
      </trkpt>
      <trkpt lat="59.8999239" lon="17.7182485">
        <ele>25.1317</ele>
        <time>2014-07-12T13:21:26Z</time>
      </trkpt>
      <trkpt lat="59.8998878" lon="17.71837">
        <ele>25.1317</ele>
        <time>2014-07-12T13:21:27Z</time>
      </trkpt>
      <trkpt lat="59.8998494" lon="17.718489">
        <ele>25.6123</ele>
        <time>2014-07-12T13:21:28Z</time>
      </trkpt>
      <trkpt lat="59.8998088" lon="17.7186088">
        <ele>25.6123</ele>
        <time>2014-07-12T13:21:29Z</time>
      </trkpt>
      <trkpt lat="59.8997682" lon="17.7187313">
        <ele>25.6123</ele>
        <time>2014-07-12T13:21:30Z</time>
      </trkpt>
      <trkpt lat="59.8997277" lon="17.7188557">
        <ele>25.6123</ele>
        <time>2014-07-12T13:21:31Z</time>
      </trkpt>
      <trkpt lat="59.8996888" lon="17.7189834">
        <ele>25.1317</ele>
        <time>2014-07-12T13:21:32Z</time>
      </trkpt>
      <trkpt lat="59.8996514" lon="17.7191101">
        <ele>25.1317</ele>
        <time>2014-07-12T13:21:33Z</time>
      </trkpt>
      <trkpt lat="59.8996157" lon="17.7192373">
        <ele>25.1317</ele>
        <time>2014-07-12T13:21:34Z</time>
      </trkpt>
      <trkpt lat="59.8995832" lon="17.719368">
        <ele>25.1317</ele>
        <time>2014-07-12T13:21:35Z</time>
      </trkpt>
      <trkpt lat="59.8995534" lon="17.7194979">
        <ele>25.1317</ele>
        <time>2014-07-12T13:21:36Z</time>
      </trkpt>
      <trkpt lat="59.8995242" lon="17.7196278">
        <ele>25.1317</ele>
        <time>2014-07-12T13:21:37Z</time>
      </trkpt>
      <trkpt lat="59.8994965" lon="17.719759">
        <ele>25.1317</ele>
        <time>2014-07-12T13:21:38Z</time>
      </trkpt>
      <trkpt lat="59.8994645" lon="17.7198909">
        <ele>25.1317</ele>
        <time>2014-07-12T13:21:39Z</time>
      </trkpt>
      <trkpt lat="59.8994361" lon="17.7200212">
        <ele>25.1317</ele>
        <time>2014-07-12T13:21:40Z</time>
      </trkpt>
      <trkpt lat="59.8994092" lon="17.7201523">
        <ele>25.1317</ele>
        <time>2014-07-12T13:21:41Z</time>
      </trkpt>
      <trkpt lat="59.8993832" lon="17.7202801">
        <ele>25.1317</ele>
        <time>2014-07-12T13:21:42Z</time>
      </trkpt>
      <trkpt lat="59.8993584" lon="17.7204051">
        <ele>25.1317</ele>
        <time>2014-07-12T13:21:43Z</time>
      </trkpt>
      <trkpt lat="59.8993351" lon="17.7205322">
        <ele>25.1317</ele>
        <time>2014-07-12T13:21:44Z</time>
      </trkpt>
      <trkpt lat="59.8993149" lon="17.7206555">
        <ele>25.1317</ele>
        <time>2014-07-12T13:21:45Z</time>
      </trkpt>
      <trkpt lat="59.8992955" lon="17.7207762">
        <ele>25.1317</ele>
        <time>2014-07-12T13:21:46Z</time>
      </trkpt>
      <trkpt lat="59.8992751" lon="17.720894">
        <ele>25.1317</ele>
        <time>2014-07-12T13:21:47Z</time>
      </trkpt>
      <trkpt lat="59.8992531" lon="17.7210094">
        <ele>25.6123</ele>
        <time>2014-07-12T13:21:48Z</time>
      </trkpt>
      <trkpt lat="59.8992315" lon="17.7211259">
        <ele>25.6123</ele>
        <time>2014-07-12T13:21:49Z</time>
      </trkpt>
      <trkpt lat="59.8992101" lon="17.7212414">
        <ele>25.6123</ele>
        <time>2014-07-12T13:21:50Z</time>
      </trkpt>
      <trkpt lat="59.8991884" lon="17.7213577">
        <ele>25.6123</ele>
        <time>2014-07-12T13:21:51Z</time>
      </trkpt>
      <trkpt lat="59.8991689" lon="17.7214809">
        <ele>25.6123</ele>
        <time>2014-07-12T13:21:52Z</time>
      </trkpt>
      <trkpt lat="59.8991509" lon="17.7216108">
        <ele>25.6123</ele>
        <time>2014-07-12T13:21:53Z</time>
      </trkpt>
      <trkpt lat="59.8991315" lon="17.7217447">
        <ele>25.6123</ele>
        <time>2014-07-12T13:21:54Z</time>
      </trkpt>
      <trkpt lat="59.8991098" lon="17.7218804">
        <ele>25.6123</ele>
        <time>2014-07-12T13:21:55Z</time>
      </trkpt>
      <trkpt lat="59.8990879" lon="17.7220194">
        <ele>25.6123</ele>
        <time>2014-07-12T13:21:56Z</time>
      </trkpt>
      <trkpt lat="59.8990662" lon="17.7221625">
        <ele>26.0929</ele>
        <time>2014-07-12T13:21:57Z</time>
      </trkpt>
      <trkpt lat="59.8990443" lon="17.7223079">
        <ele>26.0929</ele>
        <time>2014-07-12T13:21:58Z</time>
      </trkpt>
      <trkpt lat="59.8990223" lon="17.7224556">
        <ele>26.0929</ele>
        <time>2014-07-12T13:21:59Z</time>
      </trkpt>
      <trkpt lat="59.8990012" lon="17.7226064">
        <ele>26.0929</ele>
        <time>2014-07-12T13:22:00Z</time>
      </trkpt>
      <trkpt lat="59.8989792" lon="17.7227591">
        <ele>26.0929</ele>
        <time>2014-07-12T13:22:01Z</time>
      </trkpt>
      <trkpt lat="59.8989557" lon="17.7229149">
        <ele>26.0929</ele>
        <time>2014-07-12T13:22:02Z</time>
      </trkpt>
      <trkpt lat="59.8989311" lon="17.7230733">
        <ele>26.0929</ele>
        <time>2014-07-12T13:22:03Z</time>
      </trkpt>
      <trkpt lat="59.8989061" lon="17.7232291">
        <ele>26.0929</ele>
        <time>2014-07-12T13:22:04Z</time>
      </trkpt>
      <trkpt lat="59.898881" lon="17.7233835">
        <ele>25.6123</ele>
        <time>2014-07-12T13:22:05Z</time>
      </trkpt>
      <trkpt lat="59.8988562" lon="17.7235395">
        <ele>25.6123</ele>
        <time>2014-07-12T13:22:06Z</time>
      </trkpt>
      <trkpt lat="59.898832" lon="17.723696">
        <ele>25.6123</ele>
        <time>2014-07-12T13:22:07Z</time>
      </trkpt>
      <trkpt lat="59.8988077" lon="17.7238512">
        <ele>25.1317</ele>
        <time>2014-07-12T13:22:08Z</time>
      </trkpt>
      <trkpt lat="59.8987834" lon="17.724005">
        <ele>25.1317</ele>
        <time>2014-07-12T13:22:09Z</time>
      </trkpt>
      <trkpt lat="59.898759" lon="17.7241573">
        <ele>25.1317</ele>
        <time>2014-07-12T13:22:10Z</time>
      </trkpt>
      <trkpt lat="59.8987346" lon="17.7243085">
        <ele>25.1317</ele>
        <time>2014-07-12T13:22:11Z</time>
      </trkpt>
      <trkpt lat="59.8987114" lon="17.7244585">
        <ele>24.651</ele>
        <time>2014-07-12T13:22:12Z</time>
      </trkpt>
      <trkpt lat="59.8986879" lon="17.7246058">
        <ele>24.651</ele>
        <time>2014-07-12T13:22:13Z</time>
      </trkpt>
      <trkpt lat="59.8986627" lon="17.7247493">
        <ele>24.651</ele>
        <time>2014-07-12T13:22:14Z</time>
      </trkpt>
      <trkpt lat="59.8986383" lon="17.7248909">
        <ele>24.1703</ele>
        <time>2014-07-12T13:22:15Z</time>
      </trkpt>
      <trkpt lat="59.8986145" lon="17.7250287">
        <ele>24.1703</ele>
        <time>2014-07-12T13:22:16Z</time>
      </trkpt>
      <trkpt lat="59.8985916" lon="17.7251674">
        <ele>24.1703</ele>
        <time>2014-07-12T13:22:17Z</time>
      </trkpt>
      <trkpt lat="59.8985684" lon="17.7253095">
        <ele>24.1703</ele>
        <time>2014-07-12T13:22:18Z</time>
      </trkpt>
      <trkpt lat="59.898544" lon="17.7254541">
        <ele>23.6896</ele>
        <time>2014-07-12T13:22:19Z</time>
      </trkpt>
      <trkpt lat="59.8985181" lon="17.7256017">
        <ele>23.6896</ele>
        <time>2014-07-12T13:22:20Z</time>
      </trkpt>
      <trkpt lat="59.8984903" lon="17.7257517">
        <ele>23.6896</ele>
        <time>2014-07-12T13:22:21Z</time>
      </trkpt>
      <trkpt lat="59.8984601" lon="17.7259055">
        <ele>23.209</ele>
        <time>2014-07-12T13:22:22Z</time>
      </trkpt>
      <trkpt lat="59.8984284" lon="17.7260571">
        <ele>23.209</ele>
        <time>2014-07-12T13:22:23Z</time>
      </trkpt>
      <trkpt lat="59.8983969" lon="17.7262026">
        <ele>23.209</ele>
        <time>2014-07-12T13:22:24Z</time>
      </trkpt>
      <trkpt lat="59.8983648" lon="17.7263408">
        <ele>23.209</ele>
        <time>2014-07-12T13:22:25Z</time>
      </trkpt>
      <trkpt lat="59.8983311" lon="17.7264748">
        <ele>23.209</ele>
        <time>2014-07-12T13:22:26Z</time>
      </trkpt>
      <trkpt lat="59.8982965" lon="17.7266091">
        <ele>23.209</ele>
        <time>2014-07-12T13:22:27Z</time>
      </trkpt>
      <trkpt lat="59.8982608" lon="17.7267449">
        <ele>23.209</ele>
        <time>2014-07-12T13:22:28Z</time>
      </trkpt>
      <trkpt lat="59.8982234" lon="17.7268775">
        <ele>23.209</ele>
        <time>2014-07-12T13:22:29Z</time>
      </trkpt>
      <trkpt lat="59.8981856" lon="17.7270044">
        <ele>23.209</ele>
        <time>2014-07-12T13:22:30Z</time>
      </trkpt>
      <trkpt lat="59.8981475" lon="17.7271262">
        <ele>23.209</ele>
        <time>2014-07-12T13:22:31Z</time>
      </trkpt>
      <trkpt lat="59.8981075" lon="17.727242">
        <ele>23.209</ele>
        <time>2014-07-12T13:22:32Z</time>
      </trkpt>
      <trkpt lat="59.8980664" lon="17.7273529">
        <ele>23.209</ele>
        <time>2014-07-12T13:22:33Z</time>
      </trkpt>
      <trkpt lat="59.898025" lon="17.7274613">
        <ele>23.209</ele>
        <time>2014-07-12T13:22:34Z</time>
      </trkpt>
      <trkpt lat="59.8979834" lon="17.7275685">
        <ele>23.209</ele>
        <time>2014-07-12T13:22:35Z</time>
      </trkpt>
      <trkpt lat="59.8979422" lon="17.7276752">
        <ele>23.209</ele>
        <time>2014-07-12T13:22:36Z</time>
      </trkpt>
      <trkpt lat="59.8979016" lon="17.7277824">
        <ele>23.209</ele>
        <time>2014-07-12T13:22:37Z</time>
      </trkpt>
      <trkpt lat="59.8978621" lon="17.7278916">
        <ele>23.209</ele>
        <time>2014-07-12T13:22:38Z</time>
      </trkpt>
      <trkpt lat="59.8978249" lon="17.7280035">
        <ele>23.209</ele>
        <time>2014-07-12T13:22:39Z</time>
      </trkpt>
      <trkpt lat="59.8977908" lon="17.7281185">
        <ele>23.209</ele>
        <time>2014-07-12T13:22:40Z</time>
      </trkpt>
      <trkpt lat="59.8977597" lon="17.7282377">
        <ele>23.209</ele>
        <time>2014-07-12T13:22:41Z</time>
      </trkpt>
      <trkpt lat="59.8977303" lon="17.7283596">
        <ele>23.209</ele>
        <time>2014-07-12T13:22:42Z</time>
      </trkpt>
      <trkpt lat="59.8977029" lon="17.7284832">
        <ele>23.209</ele>
        <time>2014-07-12T13:22:43Z</time>
      </trkpt>
      <trkpt lat="59.8976769" lon="17.7286076">
        <ele>23.209</ele>
        <time>2014-07-12T13:22:44Z</time>
      </trkpt>
      <trkpt lat="59.8976515" lon="17.7287324">
        <ele>23.209</ele>
        <time>2014-07-12T13:22:45Z</time>
      </trkpt>
      <trkpt lat="59.8976265" lon="17.728857">
        <ele>23.209</ele>
        <time>2014-07-12T13:22:46Z</time>
      </trkpt>
      <trkpt lat="59.8976018" lon="17.7289804">
        <ele>23.209</ele>
        <time>2014-07-12T13:22:47Z</time>
      </trkpt>
      <trkpt lat="59.8975779" lon="17.7291025">
        <ele>23.209</ele>
        <time>2014-07-12T13:22:48Z</time>
      </trkpt>
      <trkpt lat="59.8975551" lon="17.7292241">
        <ele>23.6896</ele>
        <time>2014-07-12T13:22:49Z</time>
      </trkpt>
      <trkpt lat="59.897534" lon="17.7293443">
        <ele>23.6896</ele>
        <time>2014-07-12T13:22:50Z</time>
      </trkpt>
      <trkpt lat="59.8975164" lon="17.7294629">
        <ele>23.6896</ele>
        <time>2014-07-12T13:22:51Z</time>
      </trkpt>
      <trkpt lat="59.8975013" lon="17.729579">
        <ele>23.6896</ele>
        <time>2014-07-12T13:22:52Z</time>
      </trkpt>
      <trkpt lat="59.8974872" lon="17.7296906">
        <ele>24.1703</ele>
        <time>2014-07-12T13:22:53Z</time>
      </trkpt>
      <trkpt lat="59.8974745" lon="17.7298007">
        <ele>24.1703</ele>
        <time>2014-07-12T13:22:54Z</time>
      </trkpt>
      <trkpt lat="59.8974638" lon="17.7299126">
        <ele>24.651</ele>
        <time>2014-07-12T13:22:55Z</time>
      </trkpt>
      <trkpt lat="59.8974561" lon="17.730026">
        <ele>25.1317</ele>
        <time>2014-07-12T13:22:56Z</time>
      </trkpt>
      <trkpt lat="59.8974531" lon="17.7301368">
        <ele>25.1317</ele>
        <time>2014-07-12T13:22:57Z</time>
      </trkpt>
      <trkpt lat="59.8974547" lon="17.730243">
        <ele>25.1317</ele>
        <time>2014-07-12T13:22:58Z</time>
      </trkpt>
      <trkpt lat="59.8974623" lon="17.730345">
        <ele>25.6123</ele>
        <time>2014-07-12T13:22:59Z</time>
      </trkpt>
      <trkpt lat="59.8974728" lon="17.7304443">
        <ele>26.0929</ele>
        <time>2014-07-12T13:23:00Z</time>
      </trkpt>
      <trkpt lat="59.8974855" lon="17.730544">
        <ele>26.0929</ele>
        <time>2014-07-12T13:23:01Z</time>
      </trkpt>
      <trkpt lat="59.8974992" lon="17.7306449">
        <ele>26.5736</ele>
        <time>2014-07-12T13:23:02Z</time>
      </trkpt>
      <trkpt lat="59.897514" lon="17.730746">
        <ele>26.5736</ele>
        <time>2014-07-12T13:23:03Z</time>
      </trkpt>
      <trkpt lat="59.8975283" lon="17.7308481">
        <ele>26.5736</ele>
        <time>2014-07-12T13:23:04Z</time>
      </trkpt>
      <trkpt lat="59.8975408" lon="17.730951">
        <ele>26.5736</ele>
        <time>2014-07-12T13:23:05Z</time>
      </trkpt>
      <trkpt lat="59.8975508" lon="17.7310589">
        <ele>27.0543</ele>
        <time>2014-07-12T13:23:06Z</time>
      </trkpt>
      <trkpt lat="59.8975582" lon="17.7311718">
        <ele>27.0543</ele>
        <time>2014-07-12T13:23:07Z</time>
      </trkpt>
      <trkpt lat="59.897563" lon="17.7312873">
        <ele>27.0543</ele>
        <time>2014-07-12T13:23:08Z</time>
      </trkpt>
      <trkpt lat="59.8975665" lon="17.7314032">
        <ele>27.0543</ele>
        <time>2014-07-12T13:23:09Z</time>
      </trkpt>
      <trkpt lat="59.897568" lon="17.7315179">
        <ele>27.0543</ele>
        <time>2014-07-12T13:23:10Z</time>
      </trkpt>
      <trkpt lat="59.8975684" lon="17.7316334">
        <ele>27.0543</ele>
        <time>2014-07-12T13:23:11Z</time>
      </trkpt>
      <trkpt lat="59.8975675" lon="17.7317503">
        <ele>27.0543</ele>
        <time>2014-07-12T13:23:12Z</time>
      </trkpt>
      <trkpt lat="59.8975634" lon="17.731869">
        <ele>27.0543</ele>
        <time>2014-07-12T13:23:13Z</time>
      </trkpt>
      <trkpt lat="59.8975577" lon="17.7319873">
        <ele>27.0543</ele>
        <time>2014-07-12T13:23:14Z</time>
      </trkpt>
      <trkpt lat="59.8975521" lon="17.7321069">
        <ele>27.0543</ele>
        <time>2014-07-12T13:23:15Z</time>
      </trkpt>
      <trkpt lat="59.8975469" lon="17.7322271">
        <ele>27.0543</ele>
        <time>2014-07-12T13:23:16Z</time>
      </trkpt>
      <trkpt lat="59.8975423" lon="17.7323472">
        <ele>27.0543</ele>
        <time>2014-07-12T13:23:17Z</time>
      </trkpt>
      <trkpt lat="59.8975371" lon="17.7324669">
        <ele>26.5736</ele>
        <time>2014-07-12T13:23:18Z</time>
      </trkpt>
      <trkpt lat="59.8975313" lon="17.732587">
        <ele>26.5736</ele>
        <time>2014-07-12T13:23:19Z</time>
      </trkpt>
      <trkpt lat="59.8975252" lon="17.732707">
        <ele>26.5736</ele>
        <time>2014-07-12T13:23:20Z</time>
      </trkpt>
      <trkpt lat="59.8975199" lon="17.7328274">
        <ele>26.5736</ele>
        <time>2014-07-12T13:23:21Z</time>
      </trkpt>
      <trkpt lat="59.8975149" lon="17.7329481">
        <ele>26.5736</ele>
        <time>2014-07-12T13:23:22Z</time>
      </trkpt>
      <trkpt lat="59.8975084" lon="17.7330689">
        <ele>26.5736</ele>
        <time>2014-07-12T13:23:23Z</time>
      </trkpt>
      <trkpt lat="59.8974987" lon="17.7331883">
        <ele>26.5736</ele>
        <time>2014-07-12T13:23:24Z</time>
      </trkpt>
      <trkpt lat="59.8974883" lon="17.7333058">
        <ele>26.5736</ele>
        <time>2014-07-12T13:23:25Z</time>
      </trkpt>
      <trkpt lat="59.8974788" lon="17.7334219">
        <ele>26.0929</ele>
        <time>2014-07-12T13:23:26Z</time>
      </trkpt>
      <trkpt lat="59.8974676" lon="17.7335366">
        <ele>26.0929</ele>
        <time>2014-07-12T13:23:27Z</time>
      </trkpt>
      <trkpt lat="59.8974541" lon="17.733648">
        <ele>26.0929</ele>
        <time>2014-07-12T13:23:28Z</time>
      </trkpt>
      <trkpt lat="59.8974385" lon="17.7337581">
        <ele>26.0929</ele>
        <time>2014-07-12T13:23:29Z</time>
      </trkpt>
      <trkpt lat="59.8974194" lon="17.733868">
        <ele>25.6123</ele>
        <time>2014-07-12T13:23:30Z</time>
      </trkpt>
      <trkpt lat="59.8973965" lon="17.7339788">
        <ele>25.6123</ele>
        <time>2014-07-12T13:23:31Z</time>
      </trkpt>
      <trkpt lat="59.8973708" lon="17.7340898">
        <ele>25.1317</ele>
        <time>2014-07-12T13:23:32Z</time>
      </trkpt>
      <trkpt lat="59.8973421" lon="17.734198">
        <ele>25.1317</ele>
        <time>2014-07-12T13:23:33Z</time>
      </trkpt>
      <trkpt lat="59.8973128" lon="17.7343061">
        <ele>25.1317</ele>
        <time>2014-07-12T13:23:34Z</time>
      </trkpt>
      <trkpt lat="59.8972856" lon="17.7344165">
        <ele>25.1317</ele>
        <time>2014-07-12T13:23:35Z</time>
      </trkpt>
      <trkpt lat="59.8972604" lon="17.734534">
        <ele>24.651</ele>
        <time>2014-07-12T13:23:36Z</time>
      </trkpt>
      <trkpt lat="59.8972379" lon="17.7346618">
        <ele>24.651</ele>
        <time>2014-07-12T13:23:37Z</time>
      </trkpt>
      <trkpt lat="59.8972169" lon="17.734801">
        <ele>24.1703</ele>
        <time>2014-07-12T13:23:38Z</time>
      </trkpt>
      <trkpt lat="59.8972003" lon="17.7349524">
        <ele>23.6896</ele>
        <time>2014-07-12T13:23:39Z</time>
      </trkpt>
      <trkpt lat="59.89719" lon="17.7351138">
        <ele>23.209</ele>
        <time>2014-07-12T13:23:40Z</time>
      </trkpt>
      <trkpt lat="59.8971879" lon="17.7352748">
        <ele>22.7283</ele>
        <time>2014-07-12T13:23:41Z</time>
      </trkpt>
      <trkpt lat="59.897188" lon="17.7354385">
        <ele>22.7283</ele>
        <time>2014-07-12T13:23:42Z</time>
      </trkpt>
      <trkpt lat="59.8971853" lon="17.7356068">
        <ele>22.2476</ele>
        <time>2014-07-12T13:23:43Z</time>
      </trkpt>
      <trkpt lat="59.8971809" lon="17.7357754">
        <ele>22.2476</ele>
        <time>2014-07-12T13:23:44Z</time>
      </trkpt>
      <trkpt lat="59.8971744" lon="17.7359463">
        <ele>22.2476</ele>
        <time>2014-07-12T13:23:45Z</time>
      </trkpt>
      <trkpt lat="59.8971645" lon="17.7361162">
        <ele>22.2476</ele>
        <time>2014-07-12T13:23:46Z</time>
      </trkpt>
      <trkpt lat="59.8971486" lon="17.7362836">
        <ele>22.2476</ele>
        <time>2014-07-12T13:23:47Z</time>
      </trkpt>
      <trkpt lat="59.8971266" lon="17.7364472">
        <ele>22.7283</ele>
        <time>2014-07-12T13:23:48Z</time>
      </trkpt>
      <trkpt lat="59.8970983" lon="17.7366041">
        <ele>22.7283</ele>
        <time>2014-07-12T13:23:49Z</time>
      </trkpt>
      <trkpt lat="59.8970636" lon="17.7367501">
        <ele>22.7283</ele>
        <time>2014-07-12T13:23:50Z</time>
      </trkpt>
      <trkpt lat="59.8970245" lon="17.736885">
        <ele>23.209</ele>
        <time>2014-07-12T13:23:51Z</time>
      </trkpt>
      <trkpt lat="59.8969833" lon="17.7370114">
        <ele>23.6896</ele>
        <time>2014-07-12T13:23:52Z</time>
      </trkpt>
      <trkpt lat="59.8969413" lon="17.737131">
        <ele>23.6896</ele>
        <time>2014-07-12T13:23:53Z</time>
      </trkpt>
      <trkpt lat="59.8968984" lon="17.7372429">
        <ele>24.1703</ele>
        <time>2014-07-12T13:23:54Z</time>
      </trkpt>
      <trkpt lat="59.8968553" lon="17.7373492">
        <ele>24.1703</ele>
        <time>2014-07-12T13:23:55Z</time>
      </trkpt>
      <trkpt lat="59.8968126" lon="17.7374535">
        <ele>24.1703</ele>
        <time>2014-07-12T13:23:56Z</time>
      </trkpt>
      <trkpt lat="59.8967705" lon="17.7375582">
        <ele>24.651</ele>
        <time>2014-07-12T13:23:57Z</time>
      </trkpt>
      <trkpt lat="59.89673" lon="17.7376656">
        <ele>24.651</ele>
        <time>2014-07-12T13:23:58Z</time>
      </trkpt>
      <trkpt lat="59.8966921" lon="17.7377773">
        <ele>24.651</ele>
        <time>2014-07-12T13:23:59Z</time>
      </trkpt>
      <trkpt lat="59.8966573" lon="17.737894">
        <ele>24.1703</ele>
        <time>2014-07-12T13:24:00Z</time>
      </trkpt>
      <trkpt lat="59.8966252" lon="17.7380158">
        <ele>24.1703</ele>
        <time>2014-07-12T13:24:01Z</time>
      </trkpt>
      <trkpt lat="59.8965968" lon="17.7381442">
        <ele>24.1703</ele>
        <time>2014-07-12T13:24:02Z</time>
      </trkpt>
      <trkpt lat="59.8965714" lon="17.7382783">
        <ele>24.1703</ele>
        <time>2014-07-12T13:24:03Z</time>
      </trkpt>
      <trkpt lat="59.8965438" lon="17.7384147">
        <ele>24.1703</ele>
        <time>2014-07-12T13:24:04Z</time>
      </trkpt>
      <trkpt lat="59.8964953" lon="17.7385551">
        <ele>24.1703</ele>
        <time>2014-07-12T13:24:05Z</time>
      </trkpt>
      <trkpt lat="59.8964455" lon="17.7386657">
        <ele>24.651</ele>
        <time>2014-07-12T13:24:06Z</time>
      </trkpt>
      <trkpt lat="59.8963846" lon="17.7387472">
        <ele>24.651</ele>
        <time>2014-07-12T13:24:07Z</time>
      </trkpt>
      <trkpt lat="59.8963149" lon="17.7388001">
        <ele>24.651</ele>
        <time>2014-07-12T13:24:08Z</time>
      </trkpt>
      <trkpt lat="59.8962395" lon="17.7388351">
        <ele>24.1703</ele>
        <time>2014-07-12T13:24:09Z</time>
      </trkpt>
      <trkpt lat="59.8961622" lon="17.7388638">
        <ele>24.1703</ele>
        <time>2014-07-12T13:24:10Z</time>
      </trkpt>
      <trkpt lat="59.8960807" lon="17.7388863">
        <ele>23.6896</ele>
        <time>2014-07-12T13:24:11Z</time>
      </trkpt>
      <trkpt lat="59.895998" lon="17.7389104">
        <ele>23.209</ele>
        <time>2014-07-12T13:24:12Z</time>
      </trkpt>
      <trkpt lat="59.8959132" lon="17.7389364">
        <ele>23.209</ele>
        <time>2014-07-12T13:24:13Z</time>
      </trkpt>
      <trkpt lat="59.895828" lon="17.738962">
        <ele>23.209</ele>
        <time>2014-07-12T13:24:14Z</time>
      </trkpt>
      <trkpt lat="59.8957445" lon="17.7389861">
        <ele>23.209</ele>
        <time>2014-07-12T13:24:15Z</time>
      </trkpt>
      <trkpt lat="59.8956629" lon="17.7390078">
        <ele>23.209</ele>
        <time>2014-07-12T13:24:16Z</time>
      </trkpt>
      <trkpt lat="59.8955834" lon="17.7390269">
        <ele>23.209</ele>
        <time>2014-07-12T13:24:17Z</time>
      </trkpt>
      <trkpt lat="59.8955058" lon="17.7390466">
        <ele>23.6896</ele>
        <time>2014-07-12T13:24:18Z</time>
      </trkpt>
      <trkpt lat="59.8954308" lon="17.7390663">
        <ele>23.6896</ele>
        <time>2014-07-12T13:24:19Z</time>
      </trkpt>
      <trkpt lat="59.8953578" lon="17.7390856">
        <ele>23.6896</ele>
        <time>2014-07-12T13:24:20Z</time>
      </trkpt>
      <trkpt lat="59.8952863" lon="17.7391037">
        <ele>23.6896</ele>
        <time>2014-07-12T13:24:21Z</time>
      </trkpt>
      <trkpt lat="59.8952169" lon="17.7391213">
        <ele>23.6896</ele>
        <time>2014-07-12T13:24:22Z</time>
      </trkpt>
      <trkpt lat="59.8951493" lon="17.7391399">
        <ele>23.6896</ele>
        <time>2014-07-12T13:24:23Z</time>
      </trkpt>
      <trkpt lat="59.8950843" lon="17.7391625">
        <ele>23.6896</ele>
        <time>2014-07-12T13:24:24Z</time>
      </trkpt>
    </trkseg>
  </trk>
</gpx>